<?xml version="1.0" encoding="UTF-8"?>
<gpx xmlns="http://www.topografix.com/GPX/1/1"
     creator="GpsDump 4.71"
     version="1.1"
     xmlns:xsi="http://www.w3.org/2001/XMLSchema-instance"
     xsi:schemaLocation="http://www.topografix.com/GPX/1/1 http://www.topografix.com/GPX/1/1/gpx.xsd">
  <metadata>
    <link href="http://www.gethome.no/stein.sorensen/">
      <text>GPS dump for www.flightlog.org</text>
    </link>
    <time>2013-07-21T12:11:40Z</time>
    <bounds minlat="40.012517" minlon="-5.572183" maxlat="40.252550" maxlon="-4.883583"/>
  </metadata>
  <trk>
    <name>Track 001</name>
    <trkseg>
      <trkpt lat="40.252500" lon="-4.887533">
        <ele>1013.0</ele>
        <time>2013-06-30T12:06:37Z</time>
      </trkpt>
      <trkpt lat="40.252517" lon="-4.887467">
        <ele>1012.0</ele>
        <time>2013-06-30T12:06:38Z</time>
      </trkpt>
      <trkpt lat="40.252533" lon="-4.887400">
        <ele>1013.0</ele>
        <time>2013-06-30T12:06:39Z</time>
      </trkpt>
      <trkpt lat="40.252550" lon="-4.887350">
        <ele>1012.0</ele>
        <time>2013-06-30T12:06:40Z</time>
      </trkpt>
      <trkpt lat="40.252550" lon="-4.887283">
        <ele>1010.0</ele>
        <time>2013-06-30T12:06:41Z</time>
      </trkpt>
      <trkpt lat="40.252550" lon="-4.887200">
        <ele>1009.0</ele>
        <time>2013-06-30T12:06:42Z</time>
      </trkpt>
      <trkpt lat="40.252517" lon="-4.887117">
        <ele>1008.0</ele>
        <time>2013-06-30T12:06:43Z</time>
      </trkpt>
      <trkpt lat="40.252500" lon="-4.887050">
        <ele>1008.0</ele>
        <time>2013-06-30T12:06:44Z</time>
      </trkpt>
      <trkpt lat="40.252467" lon="-4.887000">
        <ele>1008.0</ele>
        <time>2013-06-30T12:06:45Z</time>
      </trkpt>
      <trkpt lat="40.252450" lon="-4.886933">
        <ele>1008.0</ele>
        <time>2013-06-30T12:06:46Z</time>
      </trkpt>
      <trkpt lat="40.252417" lon="-4.886867">
        <ele>1007.0</ele>
        <time>2013-06-30T12:06:47Z</time>
      </trkpt>
      <trkpt lat="40.252400" lon="-4.886817">
        <ele>1006.0</ele>
        <time>2013-06-30T12:06:48Z</time>
      </trkpt>
      <trkpt lat="40.252367" lon="-4.886750">
        <ele>1006.0</ele>
        <time>2013-06-30T12:06:49Z</time>
      </trkpt>
      <trkpt lat="40.252333" lon="-4.886683">
        <ele>1005.0</ele>
        <time>2013-06-30T12:06:50Z</time>
      </trkpt>
      <trkpt lat="40.252300" lon="-4.886600">
        <ele>1004.0</ele>
        <time>2013-06-30T12:06:51Z</time>
      </trkpt>
      <trkpt lat="40.252250" lon="-4.886550">
        <ele>1005.0</ele>
        <time>2013-06-30T12:06:52Z</time>
      </trkpt>
      <trkpt lat="40.252200" lon="-4.886483">
        <ele>1005.0</ele>
        <time>2013-06-30T12:06:53Z</time>
      </trkpt>
      <trkpt lat="40.252150" lon="-4.886433">
        <ele>1007.0</ele>
        <time>2013-06-30T12:06:54Z</time>
      </trkpt>
      <trkpt lat="40.252100" lon="-4.886400">
        <ele>1009.0</ele>
        <time>2013-06-30T12:06:55Z</time>
      </trkpt>
      <trkpt lat="40.252050" lon="-4.886383">
        <ele>1010.0</ele>
        <time>2013-06-30T12:06:56Z</time>
      </trkpt>
      <trkpt lat="40.252000" lon="-4.886350">
        <ele>1012.0</ele>
        <time>2013-06-30T12:06:57Z</time>
      </trkpt>
      <trkpt lat="40.251967" lon="-4.886317">
        <ele>1013.0</ele>
        <time>2013-06-30T12:06:58Z</time>
      </trkpt>
      <trkpt lat="40.251933" lon="-4.886267">
        <ele>1014.0</ele>
        <time>2013-06-30T12:06:59Z</time>
      </trkpt>
      <trkpt lat="40.251900" lon="-4.886217">
        <ele>1015.0</ele>
        <time>2013-06-30T12:07:00Z</time>
      </trkpt>
      <trkpt lat="40.251867" lon="-4.886183">
        <ele>1017.0</ele>
        <time>2013-06-30T12:07:01Z</time>
      </trkpt>
      <trkpt lat="40.251833" lon="-4.886150">
        <ele>1018.0</ele>
        <time>2013-06-30T12:07:02Z</time>
      </trkpt>
      <trkpt lat="40.251817" lon="-4.886133">
        <ele>1019.0</ele>
        <time>2013-06-30T12:07:03Z</time>
      </trkpt>
      <trkpt lat="40.251783" lon="-4.886100">
        <ele>1020.0</ele>
        <time>2013-06-30T12:07:04Z</time>
      </trkpt>
      <trkpt lat="40.251767" lon="-4.886083">
        <ele>1022.0</ele>
        <time>2013-06-30T12:07:05Z</time>
      </trkpt>
      <trkpt lat="40.251767" lon="-4.886050">
        <ele>1023.0</ele>
        <time>2013-06-30T12:07:06Z</time>
      </trkpt>
      <trkpt lat="40.251750" lon="-4.886000">
        <ele>1025.0</ele>
        <time>2013-06-30T12:07:07Z</time>
      </trkpt>
      <trkpt lat="40.251717" lon="-4.885967">
        <ele>1026.0</ele>
        <time>2013-06-30T12:07:08Z</time>
      </trkpt>
      <trkpt lat="40.251683" lon="-4.885917">
        <ele>1026.0</ele>
        <time>2013-06-30T12:07:09Z</time>
      </trkpt>
      <trkpt lat="40.251650" lon="-4.885883">
        <ele>1027.0</ele>
        <time>2013-06-30T12:07:10Z</time>
      </trkpt>
      <trkpt lat="40.251600" lon="-4.885833">
        <ele>1028.0</ele>
        <time>2013-06-30T12:07:11Z</time>
      </trkpt>
      <trkpt lat="40.251550" lon="-4.885817">
        <ele>1029.0</ele>
        <time>2013-06-30T12:07:12Z</time>
      </trkpt>
      <trkpt lat="40.251500" lon="-4.885800">
        <ele>1030.0</ele>
        <time>2013-06-30T12:07:13Z</time>
      </trkpt>
      <trkpt lat="40.251433" lon="-4.885817">
        <ele>1030.0</ele>
        <time>2013-06-30T12:07:14Z</time>
      </trkpt>
      <trkpt lat="40.251350" lon="-4.885850">
        <ele>1029.0</ele>
        <time>2013-06-30T12:07:15Z</time>
      </trkpt>
      <trkpt lat="40.251283" lon="-4.885900">
        <ele>1029.0</ele>
        <time>2013-06-30T12:07:16Z</time>
      </trkpt>
      <trkpt lat="40.251200" lon="-4.886000">
        <ele>1028.0</ele>
        <time>2013-06-30T12:07:17Z</time>
      </trkpt>
      <trkpt lat="40.251150" lon="-4.886100">
        <ele>1028.0</ele>
        <time>2013-06-30T12:07:18Z</time>
      </trkpt>
      <trkpt lat="40.251083" lon="-4.886200">
        <ele>1028.0</ele>
        <time>2013-06-30T12:07:19Z</time>
      </trkpt>
      <trkpt lat="40.251033" lon="-4.886267">
        <ele>1027.0</ele>
        <time>2013-06-30T12:07:20Z</time>
      </trkpt>
      <trkpt lat="40.250950" lon="-4.886300">
        <ele>1025.0</ele>
        <time>2013-06-30T12:07:21Z</time>
      </trkpt>
      <trkpt lat="40.250867" lon="-4.886300">
        <ele>1024.0</ele>
        <time>2013-06-30T12:07:22Z</time>
      </trkpt>
      <trkpt lat="40.250817" lon="-4.886267">
        <ele>1022.0</ele>
        <time>2013-06-30T12:07:23Z</time>
      </trkpt>
      <trkpt lat="40.250767" lon="-4.886200">
        <ele>1021.0</ele>
        <time>2013-06-30T12:07:24Z</time>
      </trkpt>
      <trkpt lat="40.250733" lon="-4.886117">
        <ele>1020.0</ele>
        <time>2013-06-30T12:07:25Z</time>
      </trkpt>
      <trkpt lat="40.250717" lon="-4.886050">
        <ele>1020.0</ele>
        <time>2013-06-30T12:07:26Z</time>
      </trkpt>
      <trkpt lat="40.250683" lon="-4.886000">
        <ele>1021.0</ele>
        <time>2013-06-30T12:07:27Z</time>
      </trkpt>
      <trkpt lat="40.250650" lon="-4.885967">
        <ele>1020.0</ele>
        <time>2013-06-30T12:07:28Z</time>
      </trkpt>
      <trkpt lat="40.250617" lon="-4.885917">
        <ele>1018.0</ele>
        <time>2013-06-30T12:07:29Z</time>
      </trkpt>
      <trkpt lat="40.250567" lon="-4.885850">
        <ele>1016.0</ele>
        <time>2013-06-30T12:07:30Z</time>
      </trkpt>
      <trkpt lat="40.250517" lon="-4.885767">
        <ele>1015.0</ele>
        <time>2013-06-30T12:07:31Z</time>
      </trkpt>
      <trkpt lat="40.250483" lon="-4.885683">
        <ele>1014.0</ele>
        <time>2013-06-30T12:07:32Z</time>
      </trkpt>
      <trkpt lat="40.250450" lon="-4.885617">
        <ele>1015.0</ele>
        <time>2013-06-30T12:07:33Z</time>
      </trkpt>
      <trkpt lat="40.250417" lon="-4.885550">
        <ele>1015.0</ele>
        <time>2013-06-30T12:07:34Z</time>
      </trkpt>
      <trkpt lat="40.250400" lon="-4.885483">
        <ele>1014.0</ele>
        <time>2013-06-30T12:07:35Z</time>
      </trkpt>
      <trkpt lat="40.250400" lon="-4.885417">
        <ele>1013.0</ele>
        <time>2013-06-30T12:07:36Z</time>
      </trkpt>
      <trkpt lat="40.250417" lon="-4.885333">
        <ele>1011.0</ele>
        <time>2013-06-30T12:07:37Z</time>
      </trkpt>
      <trkpt lat="40.250433" lon="-4.885267">
        <ele>1010.0</ele>
        <time>2013-06-30T12:07:38Z</time>
      </trkpt>
      <trkpt lat="40.250467" lon="-4.885183">
        <ele>1009.0</ele>
        <time>2013-06-30T12:07:39Z</time>
      </trkpt>
      <trkpt lat="40.250517" lon="-4.885117">
        <ele>1009.0</ele>
        <time>2013-06-30T12:07:40Z</time>
      </trkpt>
      <trkpt lat="40.250533" lon="-4.885033">
        <ele>1009.0</ele>
        <time>2013-06-30T12:07:41Z</time>
      </trkpt>
      <trkpt lat="40.250567" lon="-4.884950">
        <ele>1009.0</ele>
        <time>2013-06-30T12:07:42Z</time>
      </trkpt>
      <trkpt lat="40.250600" lon="-4.884867">
        <ele>1009.0</ele>
        <time>2013-06-30T12:07:43Z</time>
      </trkpt>
      <trkpt lat="40.250633" lon="-4.884800">
        <ele>1009.0</ele>
        <time>2013-06-30T12:07:44Z</time>
      </trkpt>
      <trkpt lat="40.250667" lon="-4.884717">
        <ele>1008.0</ele>
        <time>2013-06-30T12:07:45Z</time>
      </trkpt>
      <trkpt lat="40.250683" lon="-4.884650">
        <ele>1007.0</ele>
        <time>2013-06-30T12:07:46Z</time>
      </trkpt>
      <trkpt lat="40.250717" lon="-4.884550">
        <ele>1007.0</ele>
        <time>2013-06-30T12:07:47Z</time>
      </trkpt>
      <trkpt lat="40.250733" lon="-4.884467">
        <ele>1007.0</ele>
        <time>2013-06-30T12:07:48Z</time>
      </trkpt>
      <trkpt lat="40.250767" lon="-4.884383">
        <ele>1007.0</ele>
        <time>2013-06-30T12:07:49Z</time>
      </trkpt>
      <trkpt lat="40.250783" lon="-4.884317">
        <ele>1008.0</ele>
        <time>2013-06-30T12:07:50Z</time>
      </trkpt>
      <trkpt lat="40.250800" lon="-4.884250">
        <ele>1008.0</ele>
        <time>2013-06-30T12:07:51Z</time>
      </trkpt>
      <trkpt lat="40.250833" lon="-4.884200">
        <ele>1009.0</ele>
        <time>2013-06-30T12:07:52Z</time>
      </trkpt>
      <trkpt lat="40.250850" lon="-4.884150">
        <ele>1010.0</ele>
        <time>2013-06-30T12:07:53Z</time>
      </trkpt>
      <trkpt lat="40.250883" lon="-4.884117">
        <ele>1011.0</ele>
        <time>2013-06-30T12:07:54Z</time>
      </trkpt>
      <trkpt lat="40.250900" lon="-4.884083">
        <ele>1011.0</ele>
        <time>2013-06-30T12:07:55Z</time>
      </trkpt>
      <trkpt lat="40.250933" lon="-4.884033">
        <ele>1011.0</ele>
        <time>2013-06-30T12:07:56Z</time>
      </trkpt>
      <trkpt lat="40.250967" lon="-4.883983">
        <ele>1011.0</ele>
        <time>2013-06-30T12:07:57Z</time>
      </trkpt>
      <trkpt lat="40.251000" lon="-4.883950">
        <ele>1012.0</ele>
        <time>2013-06-30T12:07:58Z</time>
      </trkpt>
      <trkpt lat="40.251050" lon="-4.883917">
        <ele>1012.0</ele>
        <time>2013-06-30T12:07:59Z</time>
      </trkpt>
      <trkpt lat="40.251083" lon="-4.883900">
        <ele>1013.0</ele>
        <time>2013-06-30T12:08:00Z</time>
      </trkpt>
      <trkpt lat="40.251117" lon="-4.883883">
        <ele>1012.0</ele>
        <time>2013-06-30T12:08:01Z</time>
      </trkpt>
      <trkpt lat="40.251167" lon="-4.883867">
        <ele>1011.0</ele>
        <time>2013-06-30T12:08:02Z</time>
      </trkpt>
      <trkpt lat="40.251217" lon="-4.883850">
        <ele>1010.0</ele>
        <time>2013-06-30T12:08:03Z</time>
      </trkpt>
      <trkpt lat="40.251250" lon="-4.883817">
        <ele>1009.0</ele>
        <time>2013-06-30T12:08:04Z</time>
      </trkpt>
      <trkpt lat="40.251267" lon="-4.883750">
        <ele>1008.0</ele>
        <time>2013-06-30T12:08:05Z</time>
      </trkpt>
      <trkpt lat="40.251250" lon="-4.883683">
        <ele>1006.0</ele>
        <time>2013-06-30T12:08:06Z</time>
      </trkpt>
      <trkpt lat="40.251217" lon="-4.883617">
        <ele>1006.0</ele>
        <time>2013-06-30T12:08:07Z</time>
      </trkpt>
      <trkpt lat="40.251150" lon="-4.883583">
        <ele>1005.0</ele>
        <time>2013-06-30T12:08:08Z</time>
      </trkpt>
      <trkpt lat="40.251083" lon="-4.883583">
        <ele>1004.0</ele>
        <time>2013-06-30T12:08:09Z</time>
      </trkpt>
      <trkpt lat="40.250983" lon="-4.883617">
        <ele>1002.0</ele>
        <time>2013-06-30T12:08:10Z</time>
      </trkpt>
      <trkpt lat="40.250900" lon="-4.883683">
        <ele>1001.0</ele>
        <time>2013-06-30T12:08:11Z</time>
      </trkpt>
      <trkpt lat="40.250800" lon="-4.883750">
        <ele>999.0</ele>
        <time>2013-06-30T12:08:12Z</time>
      </trkpt>
      <trkpt lat="40.250700" lon="-4.883817">
        <ele>998.0</ele>
        <time>2013-06-30T12:08:13Z</time>
      </trkpt>
      <trkpt lat="40.250600" lon="-4.883883">
        <ele>998.0</ele>
        <time>2013-06-30T12:08:14Z</time>
      </trkpt>
      <trkpt lat="40.250517" lon="-4.883950">
        <ele>997.0</ele>
        <time>2013-06-30T12:08:15Z</time>
      </trkpt>
      <trkpt lat="40.250433" lon="-4.884033">
        <ele>997.0</ele>
        <time>2013-06-30T12:08:16Z</time>
      </trkpt>
      <trkpt lat="40.250350" lon="-4.884117">
        <ele>995.0</ele>
        <time>2013-06-30T12:08:17Z</time>
      </trkpt>
      <trkpt lat="40.250250" lon="-4.884183">
        <ele>994.0</ele>
        <time>2013-06-30T12:08:18Z</time>
      </trkpt>
      <trkpt lat="40.250150" lon="-4.884250">
        <ele>993.0</ele>
        <time>2013-06-30T12:08:19Z</time>
      </trkpt>
      <trkpt lat="40.250050" lon="-4.884317">
        <ele>992.0</ele>
        <time>2013-06-30T12:08:20Z</time>
      </trkpt>
      <trkpt lat="40.249950" lon="-4.884400">
        <ele>991.0</ele>
        <time>2013-06-30T12:08:21Z</time>
      </trkpt>
      <trkpt lat="40.249850" lon="-4.884483">
        <ele>991.0</ele>
        <time>2013-06-30T12:08:22Z</time>
      </trkpt>
      <trkpt lat="40.249767" lon="-4.884550">
        <ele>990.0</ele>
        <time>2013-06-30T12:08:23Z</time>
      </trkpt>
      <trkpt lat="40.249667" lon="-4.884617">
        <ele>990.0</ele>
        <time>2013-06-30T12:08:24Z</time>
      </trkpt>
      <trkpt lat="40.249583" lon="-4.884700">
        <ele>989.0</ele>
        <time>2013-06-30T12:08:25Z</time>
      </trkpt>
      <trkpt lat="40.249483" lon="-4.884783">
        <ele>988.0</ele>
        <time>2013-06-30T12:08:26Z</time>
      </trkpt>
      <trkpt lat="40.249383" lon="-4.884850">
        <ele>988.0</ele>
        <time>2013-06-30T12:08:27Z</time>
      </trkpt>
      <trkpt lat="40.249283" lon="-4.884900">
        <ele>990.0</ele>
        <time>2013-06-30T12:08:28Z</time>
      </trkpt>
      <trkpt lat="40.249217" lon="-4.884967">
        <ele>992.0</ele>
        <time>2013-06-30T12:08:29Z</time>
      </trkpt>
      <trkpt lat="40.249133" lon="-4.885017">
        <ele>994.0</ele>
        <time>2013-06-30T12:08:30Z</time>
      </trkpt>
      <trkpt lat="40.249067" lon="-4.885083">
        <ele>995.0</ele>
        <time>2013-06-30T12:08:31Z</time>
      </trkpt>
      <trkpt lat="40.248983" lon="-4.885117">
        <ele>996.0</ele>
        <time>2013-06-30T12:08:32Z</time>
      </trkpt>
      <trkpt lat="40.248883" lon="-4.885133">
        <ele>996.0</ele>
        <time>2013-06-30T12:08:33Z</time>
      </trkpt>
      <trkpt lat="40.248800" lon="-4.885133">
        <ele>996.0</ele>
        <time>2013-06-30T12:08:34Z</time>
      </trkpt>
      <trkpt lat="40.248717" lon="-4.885117">
        <ele>996.0</ele>
        <time>2013-06-30T12:08:35Z</time>
      </trkpt>
      <trkpt lat="40.248667" lon="-4.885083">
        <ele>995.0</ele>
        <time>2013-06-30T12:08:36Z</time>
      </trkpt>
      <trkpt lat="40.248633" lon="-4.885033">
        <ele>994.0</ele>
        <time>2013-06-30T12:08:37Z</time>
      </trkpt>
      <trkpt lat="40.248617" lon="-4.884983">
        <ele>992.0</ele>
        <time>2013-06-30T12:08:38Z</time>
      </trkpt>
      <trkpt lat="40.248633" lon="-4.884917">
        <ele>989.0</ele>
        <time>2013-06-30T12:08:39Z</time>
      </trkpt>
      <trkpt lat="40.248700" lon="-4.884883">
        <ele>986.0</ele>
        <time>2013-06-30T12:08:40Z</time>
      </trkpt>
      <trkpt lat="40.248783" lon="-4.884917">
        <ele>983.0</ele>
        <time>2013-06-30T12:08:41Z</time>
      </trkpt>
      <trkpt lat="40.248867" lon="-4.884983">
        <ele>982.0</ele>
        <time>2013-06-30T12:08:42Z</time>
      </trkpt>
      <trkpt lat="40.248933" lon="-4.885050">
        <ele>981.0</ele>
        <time>2013-06-30T12:08:43Z</time>
      </trkpt>
      <trkpt lat="40.249000" lon="-4.885150">
        <ele>980.0</ele>
        <time>2013-06-30T12:08:44Z</time>
      </trkpt>
      <trkpt lat="40.249067" lon="-4.885233">
        <ele>978.0</ele>
        <time>2013-06-30T12:08:45Z</time>
      </trkpt>
      <trkpt lat="40.249133" lon="-4.885317">
        <ele>976.0</ele>
        <time>2013-06-30T12:08:46Z</time>
      </trkpt>
      <trkpt lat="40.249200" lon="-4.885417">
        <ele>975.0</ele>
        <time>2013-06-30T12:08:47Z</time>
      </trkpt>
      <trkpt lat="40.249267" lon="-4.885517">
        <ele>975.0</ele>
        <time>2013-06-30T12:08:48Z</time>
      </trkpt>
      <trkpt lat="40.249333" lon="-4.885600">
        <ele>975.0</ele>
        <time>2013-06-30T12:08:49Z</time>
      </trkpt>
      <trkpt lat="40.249400" lon="-4.885667">
        <ele>975.0</ele>
        <time>2013-06-30T12:08:50Z</time>
      </trkpt>
      <trkpt lat="40.249450" lon="-4.885733">
        <ele>975.0</ele>
        <time>2013-06-30T12:08:51Z</time>
      </trkpt>
      <trkpt lat="40.249500" lon="-4.885800">
        <ele>975.0</ele>
        <time>2013-06-30T12:08:52Z</time>
      </trkpt>
      <trkpt lat="40.249567" lon="-4.885867">
        <ele>974.0</ele>
        <time>2013-06-30T12:08:53Z</time>
      </trkpt>
      <trkpt lat="40.249650" lon="-4.885917">
        <ele>973.0</ele>
        <time>2013-06-30T12:08:54Z</time>
      </trkpt>
      <trkpt lat="40.249717" lon="-4.885967">
        <ele>972.0</ele>
        <time>2013-06-30T12:08:55Z</time>
      </trkpt>
      <trkpt lat="40.249800" lon="-4.885983">
        <ele>972.0</ele>
        <time>2013-06-30T12:08:56Z</time>
      </trkpt>
      <trkpt lat="40.249883" lon="-4.886017">
        <ele>972.0</ele>
        <time>2013-06-30T12:08:57Z</time>
      </trkpt>
      <trkpt lat="40.249967" lon="-4.886017">
        <ele>972.0</ele>
        <time>2013-06-30T12:08:58Z</time>
      </trkpt>
      <trkpt lat="40.250050" lon="-4.886033">
        <ele>971.0</ele>
        <time>2013-06-30T12:08:59Z</time>
      </trkpt>
      <trkpt lat="40.250117" lon="-4.886033">
        <ele>971.0</ele>
        <time>2013-06-30T12:09:00Z</time>
      </trkpt>
      <trkpt lat="40.250183" lon="-4.886033">
        <ele>971.0</ele>
        <time>2013-06-30T12:09:01Z</time>
      </trkpt>
      <trkpt lat="40.250250" lon="-4.886017">
        <ele>972.0</ele>
        <time>2013-06-30T12:09:02Z</time>
      </trkpt>
      <trkpt lat="40.250317" lon="-4.886017">
        <ele>972.0</ele>
        <time>2013-06-30T12:09:03Z</time>
      </trkpt>
      <trkpt lat="40.250383" lon="-4.886000">
        <ele>971.0</ele>
        <time>2013-06-30T12:09:04Z</time>
      </trkpt>
      <trkpt lat="40.250450" lon="-4.885967">
        <ele>971.0</ele>
        <time>2013-06-30T12:09:05Z</time>
      </trkpt>
      <trkpt lat="40.250517" lon="-4.885950">
        <ele>970.0</ele>
        <time>2013-06-30T12:09:06Z</time>
      </trkpt>
      <trkpt lat="40.250567" lon="-4.885917">
        <ele>970.0</ele>
        <time>2013-06-30T12:09:07Z</time>
      </trkpt>
      <trkpt lat="40.250633" lon="-4.885883">
        <ele>970.0</ele>
        <time>2013-06-30T12:09:08Z</time>
      </trkpt>
      <trkpt lat="40.250683" lon="-4.885850">
        <ele>970.0</ele>
        <time>2013-06-30T12:09:09Z</time>
      </trkpt>
      <trkpt lat="40.250750" lon="-4.885817">
        <ele>969.0</ele>
        <time>2013-06-30T12:09:10Z</time>
      </trkpt>
      <trkpt lat="40.250800" lon="-4.885783">
        <ele>969.0</ele>
        <time>2013-06-30T12:09:11Z</time>
      </trkpt>
      <trkpt lat="40.250850" lon="-4.885750">
        <ele>968.0</ele>
        <time>2013-06-30T12:09:12Z</time>
      </trkpt>
      <trkpt lat="40.250900" lon="-4.885700">
        <ele>968.0</ele>
        <time>2013-06-30T12:09:13Z</time>
      </trkpt>
      <trkpt lat="40.250950" lon="-4.885650">
        <ele>968.0</ele>
        <time>2013-06-30T12:09:14Z</time>
      </trkpt>
      <trkpt lat="40.251000" lon="-4.885617">
        <ele>969.0</ele>
        <time>2013-06-30T12:09:15Z</time>
      </trkpt>
      <trkpt lat="40.251033" lon="-4.885583">
        <ele>969.0</ele>
        <time>2013-06-30T12:09:16Z</time>
      </trkpt>
      <trkpt lat="40.251050" lon="-4.885533">
        <ele>969.0</ele>
        <time>2013-06-30T12:09:17Z</time>
      </trkpt>
      <trkpt lat="40.251083" lon="-4.885500">
        <ele>969.0</ele>
        <time>2013-06-30T12:09:18Z</time>
      </trkpt>
      <trkpt lat="40.251100" lon="-4.885483">
        <ele>968.0</ele>
        <time>2013-06-30T12:09:19Z</time>
      </trkpt>
      <trkpt lat="40.251150" lon="-4.885467">
        <ele>967.0</ele>
        <time>2013-06-30T12:09:20Z</time>
      </trkpt>
      <trkpt lat="40.251183" lon="-4.885433">
        <ele>966.0</ele>
        <time>2013-06-30T12:09:21Z</time>
      </trkpt>
      <trkpt lat="40.251200" lon="-4.885367">
        <ele>965.0</ele>
        <time>2013-06-30T12:09:22Z</time>
      </trkpt>
      <trkpt lat="40.251200" lon="-4.885300">
        <ele>963.0</ele>
        <time>2013-06-30T12:09:23Z</time>
      </trkpt>
      <trkpt lat="40.251150" lon="-4.885233">
        <ele>962.0</ele>
        <time>2013-06-30T12:09:24Z</time>
      </trkpt>
      <trkpt lat="40.251067" lon="-4.885183">
        <ele>961.0</ele>
        <time>2013-06-30T12:09:25Z</time>
      </trkpt>
      <trkpt lat="40.250967" lon="-4.885167">
        <ele>961.0</ele>
        <time>2013-06-30T12:09:26Z</time>
      </trkpt>
      <trkpt lat="40.250867" lon="-4.885167">
        <ele>960.0</ele>
        <time>2013-06-30T12:09:27Z</time>
      </trkpt>
      <trkpt lat="40.250783" lon="-4.885150">
        <ele>960.0</ele>
        <time>2013-06-30T12:09:28Z</time>
      </trkpt>
      <trkpt lat="40.250700" lon="-4.885133">
        <ele>959.0</ele>
        <time>2013-06-30T12:09:29Z</time>
      </trkpt>
      <trkpt lat="40.250617" lon="-4.885117">
        <ele>958.0</ele>
        <time>2013-06-30T12:09:30Z</time>
      </trkpt>
      <trkpt lat="40.250517" lon="-4.885117">
        <ele>957.0</ele>
        <time>2013-06-30T12:09:31Z</time>
      </trkpt>
      <trkpt lat="40.250417" lon="-4.885150">
        <ele>957.0</ele>
        <time>2013-06-30T12:09:32Z</time>
      </trkpt>
      <trkpt lat="40.250317" lon="-4.885200">
        <ele>957.0</ele>
        <time>2013-06-30T12:09:33Z</time>
      </trkpt>
      <trkpt lat="40.250217" lon="-4.885250">
        <ele>957.0</ele>
        <time>2013-06-30T12:09:34Z</time>
      </trkpt>
      <trkpt lat="40.250133" lon="-4.885317">
        <ele>957.0</ele>
        <time>2013-06-30T12:09:35Z</time>
      </trkpt>
      <trkpt lat="40.250033" lon="-4.885367">
        <ele>957.0</ele>
        <time>2013-06-30T12:09:36Z</time>
      </trkpt>
      <trkpt lat="40.249950" lon="-4.885417">
        <ele>958.0</ele>
        <time>2013-06-30T12:09:37Z</time>
      </trkpt>
      <trkpt lat="40.249867" lon="-4.885483">
        <ele>960.0</ele>
        <time>2013-06-30T12:09:38Z</time>
      </trkpt>
      <trkpt lat="40.249800" lon="-4.885533">
        <ele>960.0</ele>
        <time>2013-06-30T12:09:39Z</time>
      </trkpt>
      <trkpt lat="40.249750" lon="-4.885617">
        <ele>959.0</ele>
        <time>2013-06-30T12:09:40Z</time>
      </trkpt>
      <trkpt lat="40.249667" lon="-4.885683">
        <ele>957.0</ele>
        <time>2013-06-30T12:09:41Z</time>
      </trkpt>
      <trkpt lat="40.249583" lon="-4.885767">
        <ele>955.0</ele>
        <time>2013-06-30T12:09:42Z</time>
      </trkpt>
      <trkpt lat="40.249483" lon="-4.885850">
        <ele>953.0</ele>
        <time>2013-06-30T12:09:43Z</time>
      </trkpt>
      <trkpt lat="40.249367" lon="-4.885950">
        <ele>952.0</ele>
        <time>2013-06-30T12:09:44Z</time>
      </trkpt>
      <trkpt lat="40.249267" lon="-4.886050">
        <ele>951.0</ele>
        <time>2013-06-30T12:09:45Z</time>
      </trkpt>
      <trkpt lat="40.249150" lon="-4.886150">
        <ele>952.0</ele>
        <time>2013-06-30T12:09:46Z</time>
      </trkpt>
      <trkpt lat="40.249050" lon="-4.886233">
        <ele>952.0</ele>
        <time>2013-06-30T12:09:47Z</time>
      </trkpt>
      <trkpt lat="40.248950" lon="-4.886300">
        <ele>953.0</ele>
        <time>2013-06-30T12:09:48Z</time>
      </trkpt>
      <trkpt lat="40.248850" lon="-4.886350">
        <ele>954.0</ele>
        <time>2013-06-30T12:09:49Z</time>
      </trkpt>
      <trkpt lat="40.248733" lon="-4.886417">
        <ele>955.0</ele>
        <time>2013-06-30T12:09:50Z</time>
      </trkpt>
      <trkpt lat="40.248650" lon="-4.886483">
        <ele>956.0</ele>
        <time>2013-06-30T12:09:51Z</time>
      </trkpt>
      <trkpt lat="40.248567" lon="-4.886550">
        <ele>957.0</ele>
        <time>2013-06-30T12:09:52Z</time>
      </trkpt>
      <trkpt lat="40.248483" lon="-4.886600">
        <ele>957.0</ele>
        <time>2013-06-30T12:09:53Z</time>
      </trkpt>
      <trkpt lat="40.248400" lon="-4.886650">
        <ele>956.0</ele>
        <time>2013-06-30T12:09:54Z</time>
      </trkpt>
      <trkpt lat="40.248317" lon="-4.886700">
        <ele>954.0</ele>
        <time>2013-06-30T12:09:55Z</time>
      </trkpt>
      <trkpt lat="40.248217" lon="-4.886767">
        <ele>953.0</ele>
        <time>2013-06-30T12:09:56Z</time>
      </trkpt>
      <trkpt lat="40.248117" lon="-4.886817">
        <ele>952.0</ele>
        <time>2013-06-30T12:09:57Z</time>
      </trkpt>
      <trkpt lat="40.248017" lon="-4.886883">
        <ele>952.0</ele>
        <time>2013-06-30T12:09:58Z</time>
      </trkpt>
      <trkpt lat="40.247933" lon="-4.886917">
        <ele>953.0</ele>
        <time>2013-06-30T12:09:59Z</time>
      </trkpt>
      <trkpt lat="40.247833" lon="-4.886950">
        <ele>954.0</ele>
        <time>2013-06-30T12:10:00Z</time>
      </trkpt>
      <trkpt lat="40.247750" lon="-4.886983">
        <ele>955.0</ele>
        <time>2013-06-30T12:10:01Z</time>
      </trkpt>
      <trkpt lat="40.247667" lon="-4.887033">
        <ele>956.0</ele>
        <time>2013-06-30T12:10:02Z</time>
      </trkpt>
      <trkpt lat="40.247600" lon="-4.887050">
        <ele>955.0</ele>
        <time>2013-06-30T12:10:03Z</time>
      </trkpt>
      <trkpt lat="40.247500" lon="-4.887067">
        <ele>954.0</ele>
        <time>2013-06-30T12:10:04Z</time>
      </trkpt>
      <trkpt lat="40.247400" lon="-4.887067">
        <ele>954.0</ele>
        <time>2013-06-30T12:10:05Z</time>
      </trkpt>
      <trkpt lat="40.247300" lon="-4.887083">
        <ele>954.0</ele>
        <time>2013-06-30T12:10:06Z</time>
      </trkpt>
      <trkpt lat="40.247200" lon="-4.887100">
        <ele>953.0</ele>
        <time>2013-06-30T12:10:07Z</time>
      </trkpt>
      <trkpt lat="40.247117" lon="-4.887133">
        <ele>952.0</ele>
        <time>2013-06-30T12:10:08Z</time>
      </trkpt>
      <trkpt lat="40.247033" lon="-4.887167">
        <ele>950.0</ele>
        <time>2013-06-30T12:10:09Z</time>
      </trkpt>
      <trkpt lat="40.246933" lon="-4.887200">
        <ele>948.0</ele>
        <time>2013-06-30T12:10:10Z</time>
      </trkpt>
      <trkpt lat="40.246817" lon="-4.887217">
        <ele>945.0</ele>
        <time>2013-06-30T12:10:11Z</time>
      </trkpt>
      <trkpt lat="40.246717" lon="-4.887250">
        <ele>944.0</ele>
        <time>2013-06-30T12:10:12Z</time>
      </trkpt>
      <trkpt lat="40.246617" lon="-4.887250">
        <ele>943.0</ele>
        <time>2013-06-30T12:10:13Z</time>
      </trkpt>
      <trkpt lat="40.246517" lon="-4.887267">
        <ele>944.0</ele>
        <time>2013-06-30T12:10:14Z</time>
      </trkpt>
      <trkpt lat="40.246417" lon="-4.887267">
        <ele>944.0</ele>
        <time>2013-06-30T12:10:15Z</time>
      </trkpt>
      <trkpt lat="40.246317" lon="-4.887283">
        <ele>943.0</ele>
        <time>2013-06-30T12:10:16Z</time>
      </trkpt>
      <trkpt lat="40.246217" lon="-4.887300">
        <ele>941.0</ele>
        <time>2013-06-30T12:10:17Z</time>
      </trkpt>
      <trkpt lat="40.246117" lon="-4.887300">
        <ele>939.0</ele>
        <time>2013-06-30T12:10:18Z</time>
      </trkpt>
      <trkpt lat="40.246000" lon="-4.887283">
        <ele>938.0</ele>
        <time>2013-06-30T12:10:19Z</time>
      </trkpt>
      <trkpt lat="40.245900" lon="-4.887283">
        <ele>937.0</ele>
        <time>2013-06-30T12:10:20Z</time>
      </trkpt>
      <trkpt lat="40.245800" lon="-4.887300">
        <ele>938.0</ele>
        <time>2013-06-30T12:10:21Z</time>
      </trkpt>
      <trkpt lat="40.245717" lon="-4.887300">
        <ele>939.0</ele>
        <time>2013-06-30T12:10:22Z</time>
      </trkpt>
      <trkpt lat="40.245633" lon="-4.887300">
        <ele>938.0</ele>
        <time>2013-06-30T12:10:23Z</time>
      </trkpt>
      <trkpt lat="40.245550" lon="-4.887300">
        <ele>937.0</ele>
        <time>2013-06-30T12:10:24Z</time>
      </trkpt>
      <trkpt lat="40.245450" lon="-4.887283">
        <ele>936.0</ele>
        <time>2013-06-30T12:10:25Z</time>
      </trkpt>
      <trkpt lat="40.245350" lon="-4.887283">
        <ele>935.0</ele>
        <time>2013-06-30T12:10:26Z</time>
      </trkpt>
      <trkpt lat="40.245267" lon="-4.887250">
        <ele>935.0</ele>
        <time>2013-06-30T12:10:27Z</time>
      </trkpt>
      <trkpt lat="40.245183" lon="-4.887233">
        <ele>935.0</ele>
        <time>2013-06-30T12:10:28Z</time>
      </trkpt>
      <trkpt lat="40.245100" lon="-4.887183">
        <ele>935.0</ele>
        <time>2013-06-30T12:10:29Z</time>
      </trkpt>
      <trkpt lat="40.245017" lon="-4.887133">
        <ele>934.0</ele>
        <time>2013-06-30T12:10:30Z</time>
      </trkpt>
      <trkpt lat="40.244933" lon="-4.887100">
        <ele>934.0</ele>
        <time>2013-06-30T12:10:31Z</time>
      </trkpt>
      <trkpt lat="40.244850" lon="-4.887067">
        <ele>932.0</ele>
        <time>2013-06-30T12:10:32Z</time>
      </trkpt>
      <trkpt lat="40.244767" lon="-4.887033">
        <ele>931.0</ele>
        <time>2013-06-30T12:10:33Z</time>
      </trkpt>
      <trkpt lat="40.244683" lon="-4.887000">
        <ele>929.0</ele>
        <time>2013-06-30T12:10:34Z</time>
      </trkpt>
      <trkpt lat="40.244600" lon="-4.886933">
        <ele>928.0</ele>
        <time>2013-06-30T12:10:35Z</time>
      </trkpt>
      <trkpt lat="40.244517" lon="-4.886883">
        <ele>927.0</ele>
        <time>2013-06-30T12:10:36Z</time>
      </trkpt>
      <trkpt lat="40.244450" lon="-4.886817">
        <ele>927.0</ele>
        <time>2013-06-30T12:10:37Z</time>
      </trkpt>
      <trkpt lat="40.244383" lon="-4.886767">
        <ele>927.0</ele>
        <time>2013-06-30T12:10:38Z</time>
      </trkpt>
      <trkpt lat="40.244317" lon="-4.886717">
        <ele>926.0</ele>
        <time>2013-06-30T12:10:39Z</time>
      </trkpt>
      <trkpt lat="40.244233" lon="-4.886667">
        <ele>926.0</ele>
        <time>2013-06-30T12:10:40Z</time>
      </trkpt>
      <trkpt lat="40.244167" lon="-4.886600">
        <ele>925.0</ele>
        <time>2013-06-30T12:10:41Z</time>
      </trkpt>
      <trkpt lat="40.244083" lon="-4.886533">
        <ele>926.0</ele>
        <time>2013-06-30T12:10:42Z</time>
      </trkpt>
      <trkpt lat="40.244033" lon="-4.886483">
        <ele>927.0</ele>
        <time>2013-06-30T12:10:43Z</time>
      </trkpt>
      <trkpt lat="40.243983" lon="-4.886417">
        <ele>928.0</ele>
        <time>2013-06-30T12:10:44Z</time>
      </trkpt>
      <trkpt lat="40.243917" lon="-4.886367">
        <ele>929.0</ele>
        <time>2013-06-30T12:10:45Z</time>
      </trkpt>
      <trkpt lat="40.243867" lon="-4.886300">
        <ele>930.0</ele>
        <time>2013-06-30T12:10:46Z</time>
      </trkpt>
      <trkpt lat="40.243833" lon="-4.886233">
        <ele>932.0</ele>
        <time>2013-06-30T12:10:47Z</time>
      </trkpt>
      <trkpt lat="40.243783" lon="-4.886167">
        <ele>934.0</ele>
        <time>2013-06-30T12:10:48Z</time>
      </trkpt>
      <trkpt lat="40.243750" lon="-4.886133">
        <ele>935.0</ele>
        <time>2013-06-30T12:10:49Z</time>
      </trkpt>
      <trkpt lat="40.243717" lon="-4.886100">
        <ele>936.0</ele>
        <time>2013-06-30T12:10:50Z</time>
      </trkpt>
      <trkpt lat="40.243667" lon="-4.886050">
        <ele>937.0</ele>
        <time>2013-06-30T12:10:51Z</time>
      </trkpt>
      <trkpt lat="40.243600" lon="-4.885983">
        <ele>937.0</ele>
        <time>2013-06-30T12:10:52Z</time>
      </trkpt>
      <trkpt lat="40.243550" lon="-4.885917">
        <ele>940.0</ele>
        <time>2013-06-30T12:10:53Z</time>
      </trkpt>
      <trkpt lat="40.243483" lon="-4.885883">
        <ele>942.0</ele>
        <time>2013-06-30T12:10:54Z</time>
      </trkpt>
      <trkpt lat="40.243433" lon="-4.885833">
        <ele>944.0</ele>
        <time>2013-06-30T12:10:55Z</time>
      </trkpt>
      <trkpt lat="40.243367" lon="-4.885800">
        <ele>947.0</ele>
        <time>2013-06-30T12:10:56Z</time>
      </trkpt>
      <trkpt lat="40.243317" lon="-4.885767">
        <ele>949.0</ele>
        <time>2013-06-30T12:10:57Z</time>
      </trkpt>
      <trkpt lat="40.243267" lon="-4.885733">
        <ele>951.0</ele>
        <time>2013-06-30T12:10:58Z</time>
      </trkpt>
      <trkpt lat="40.243233" lon="-4.885700">
        <ele>953.0</ele>
        <time>2013-06-30T12:10:59Z</time>
      </trkpt>
      <trkpt lat="40.243217" lon="-4.885633">
        <ele>954.0</ele>
        <time>2013-06-30T12:11:00Z</time>
      </trkpt>
      <trkpt lat="40.243200" lon="-4.885550">
        <ele>957.0</ele>
        <time>2013-06-30T12:11:01Z</time>
      </trkpt>
      <trkpt lat="40.243200" lon="-4.885483">
        <ele>960.0</ele>
        <time>2013-06-30T12:11:02Z</time>
      </trkpt>
      <trkpt lat="40.243167" lon="-4.885417">
        <ele>963.0</ele>
        <time>2013-06-30T12:11:03Z</time>
      </trkpt>
      <trkpt lat="40.243117" lon="-4.885383">
        <ele>966.0</ele>
        <time>2013-06-30T12:11:04Z</time>
      </trkpt>
      <trkpt lat="40.243067" lon="-4.885350">
        <ele>968.0</ele>
        <time>2013-06-30T12:11:05Z</time>
      </trkpt>
      <trkpt lat="40.243000" lon="-4.885333">
        <ele>970.0</ele>
        <time>2013-06-30T12:11:06Z</time>
      </trkpt>
      <trkpt lat="40.242933" lon="-4.885350">
        <ele>972.0</ele>
        <time>2013-06-30T12:11:07Z</time>
      </trkpt>
      <trkpt lat="40.242850" lon="-4.885400">
        <ele>973.0</ele>
        <time>2013-06-30T12:11:08Z</time>
      </trkpt>
      <trkpt lat="40.242783" lon="-4.885483">
        <ele>975.0</ele>
        <time>2013-06-30T12:11:09Z</time>
      </trkpt>
      <trkpt lat="40.242733" lon="-4.885600">
        <ele>978.0</ele>
        <time>2013-06-30T12:11:10Z</time>
      </trkpt>
      <trkpt lat="40.242733" lon="-4.885717">
        <ele>980.0</ele>
        <time>2013-06-30T12:11:11Z</time>
      </trkpt>
      <trkpt lat="40.242767" lon="-4.885833">
        <ele>982.0</ele>
        <time>2013-06-30T12:11:12Z</time>
      </trkpt>
      <trkpt lat="40.242817" lon="-4.885917">
        <ele>985.0</ele>
        <time>2013-06-30T12:11:13Z</time>
      </trkpt>
      <trkpt lat="40.242883" lon="-4.886000">
        <ele>989.0</ele>
        <time>2013-06-30T12:11:14Z</time>
      </trkpt>
      <trkpt lat="40.242950" lon="-4.886050">
        <ele>995.0</ele>
        <time>2013-06-30T12:11:15Z</time>
      </trkpt>
      <trkpt lat="40.243000" lon="-4.886100">
        <ele>1000.0</ele>
        <time>2013-06-30T12:11:16Z</time>
      </trkpt>
      <trkpt lat="40.243050" lon="-4.886133">
        <ele>1003.0</ele>
        <time>2013-06-30T12:11:17Z</time>
      </trkpt>
      <trkpt lat="40.243117" lon="-4.886133">
        <ele>1005.0</ele>
        <time>2013-06-30T12:11:18Z</time>
      </trkpt>
      <trkpt lat="40.243167" lon="-4.886117">
        <ele>1005.0</ele>
        <time>2013-06-30T12:11:19Z</time>
      </trkpt>
      <trkpt lat="40.243233" lon="-4.886050">
        <ele>1006.0</ele>
        <time>2013-06-30T12:11:20Z</time>
      </trkpt>
      <trkpt lat="40.243283" lon="-4.885983">
        <ele>1008.0</ele>
        <time>2013-06-30T12:11:21Z</time>
      </trkpt>
      <trkpt lat="40.243317" lon="-4.885900">
        <ele>1011.0</ele>
        <time>2013-06-30T12:11:22Z</time>
      </trkpt>
      <trkpt lat="40.243317" lon="-4.885817">
        <ele>1015.0</ele>
        <time>2013-06-30T12:11:23Z</time>
      </trkpt>
      <trkpt lat="40.243300" lon="-4.885767">
        <ele>1018.0</ele>
        <time>2013-06-30T12:11:24Z</time>
      </trkpt>
      <trkpt lat="40.243300" lon="-4.885717">
        <ele>1020.0</ele>
        <time>2013-06-30T12:11:25Z</time>
      </trkpt>
      <trkpt lat="40.243283" lon="-4.885667">
        <ele>1021.0</ele>
        <time>2013-06-30T12:11:26Z</time>
      </trkpt>
      <trkpt lat="40.243283" lon="-4.885600">
        <ele>1020.0</ele>
        <time>2013-06-30T12:11:27Z</time>
      </trkpt>
      <trkpt lat="40.243267" lon="-4.885517">
        <ele>1019.0</ele>
        <time>2013-06-30T12:11:28Z</time>
      </trkpt>
      <trkpt lat="40.243233" lon="-4.885400">
        <ele>1021.0</ele>
        <time>2013-06-30T12:11:29Z</time>
      </trkpt>
      <trkpt lat="40.243183" lon="-4.885300">
        <ele>1023.0</ele>
        <time>2013-06-30T12:11:30Z</time>
      </trkpt>
      <trkpt lat="40.243117" lon="-4.885233">
        <ele>1026.0</ele>
        <time>2013-06-30T12:11:31Z</time>
      </trkpt>
      <trkpt lat="40.243033" lon="-4.885217">
        <ele>1031.0</ele>
        <time>2013-06-30T12:11:32Z</time>
      </trkpt>
      <trkpt lat="40.242950" lon="-4.885200">
        <ele>1035.0</ele>
        <time>2013-06-30T12:11:33Z</time>
      </trkpt>
      <trkpt lat="40.242883" lon="-4.885200">
        <ele>1039.0</ele>
        <time>2013-06-30T12:11:34Z</time>
      </trkpt>
      <trkpt lat="40.242833" lon="-4.885217">
        <ele>1043.0</ele>
        <time>2013-06-30T12:11:35Z</time>
      </trkpt>
      <trkpt lat="40.242750" lon="-4.885233">
        <ele>1046.0</ele>
        <time>2013-06-30T12:11:36Z</time>
      </trkpt>
      <trkpt lat="40.242667" lon="-4.885300">
        <ele>1049.0</ele>
        <time>2013-06-30T12:11:37Z</time>
      </trkpt>
      <trkpt lat="40.242600" lon="-4.885367">
        <ele>1053.0</ele>
        <time>2013-06-30T12:11:38Z</time>
      </trkpt>
      <trkpt lat="40.242550" lon="-4.885467">
        <ele>1057.0</ele>
        <time>2013-06-30T12:11:39Z</time>
      </trkpt>
      <trkpt lat="40.242517" lon="-4.885583">
        <ele>1060.0</ele>
        <time>2013-06-30T12:11:40Z</time>
      </trkpt>
      <trkpt lat="40.242517" lon="-4.885683">
        <ele>1064.0</ele>
        <time>2013-06-30T12:11:41Z</time>
      </trkpt>
      <trkpt lat="40.242533" lon="-4.885800">
        <ele>1068.0</ele>
        <time>2013-06-30T12:11:42Z</time>
      </trkpt>
      <trkpt lat="40.242567" lon="-4.885900">
        <ele>1071.0</ele>
        <time>2013-06-30T12:11:43Z</time>
      </trkpt>
      <trkpt lat="40.242617" lon="-4.885983">
        <ele>1075.0</ele>
        <time>2013-06-30T12:11:44Z</time>
      </trkpt>
      <trkpt lat="40.242667" lon="-4.886050">
        <ele>1079.0</ele>
        <time>2013-06-30T12:11:45Z</time>
      </trkpt>
      <trkpt lat="40.242717" lon="-4.886117">
        <ele>1082.0</ele>
        <time>2013-06-30T12:11:46Z</time>
      </trkpt>
      <trkpt lat="40.242783" lon="-4.886183">
        <ele>1086.0</ele>
        <time>2013-06-30T12:11:47Z</time>
      </trkpt>
      <trkpt lat="40.242833" lon="-4.886233">
        <ele>1090.0</ele>
        <time>2013-06-30T12:11:48Z</time>
      </trkpt>
      <trkpt lat="40.242900" lon="-4.886300">
        <ele>1094.0</ele>
        <time>2013-06-30T12:11:49Z</time>
      </trkpt>
      <trkpt lat="40.242967" lon="-4.886333">
        <ele>1096.0</ele>
        <time>2013-06-30T12:11:50Z</time>
      </trkpt>
      <trkpt lat="40.243050" lon="-4.886350">
        <ele>1099.0</ele>
        <time>2013-06-30T12:11:51Z</time>
      </trkpt>
      <trkpt lat="40.243133" lon="-4.886333">
        <ele>1103.0</ele>
        <time>2013-06-30T12:11:52Z</time>
      </trkpt>
      <trkpt lat="40.243217" lon="-4.886283">
        <ele>1107.0</ele>
        <time>2013-06-30T12:11:53Z</time>
      </trkpt>
      <trkpt lat="40.243267" lon="-4.886217">
        <ele>1110.0</ele>
        <time>2013-06-30T12:11:54Z</time>
      </trkpt>
      <trkpt lat="40.243317" lon="-4.886150">
        <ele>1112.0</ele>
        <time>2013-06-30T12:11:55Z</time>
      </trkpt>
      <trkpt lat="40.243367" lon="-4.886100">
        <ele>1114.0</ele>
        <time>2013-06-30T12:11:56Z</time>
      </trkpt>
      <trkpt lat="40.243417" lon="-4.886050">
        <ele>1115.0</ele>
        <time>2013-06-30T12:11:57Z</time>
      </trkpt>
      <trkpt lat="40.243450" lon="-4.885967">
        <ele>1116.0</ele>
        <time>2013-06-30T12:11:58Z</time>
      </trkpt>
      <trkpt lat="40.243450" lon="-4.885867">
        <ele>1116.0</ele>
        <time>2013-06-30T12:11:59Z</time>
      </trkpt>
      <trkpt lat="40.243417" lon="-4.885767">
        <ele>1116.0</ele>
        <time>2013-06-30T12:12:00Z</time>
      </trkpt>
      <trkpt lat="40.243383" lon="-4.885650">
        <ele>1116.0</ele>
        <time>2013-06-30T12:12:01Z</time>
      </trkpt>
      <trkpt lat="40.243333" lon="-4.885567">
        <ele>1117.0</ele>
        <time>2013-06-30T12:12:02Z</time>
      </trkpt>
      <trkpt lat="40.243283" lon="-4.885483">
        <ele>1119.0</ele>
        <time>2013-06-30T12:12:03Z</time>
      </trkpt>
      <trkpt lat="40.243217" lon="-4.885400">
        <ele>1121.0</ele>
        <time>2013-06-30T12:12:04Z</time>
      </trkpt>
      <trkpt lat="40.243150" lon="-4.885350">
        <ele>1123.0</ele>
        <time>2013-06-30T12:12:05Z</time>
      </trkpt>
      <trkpt lat="40.243100" lon="-4.885300">
        <ele>1126.0</ele>
        <time>2013-06-30T12:12:06Z</time>
      </trkpt>
      <trkpt lat="40.243033" lon="-4.885267">
        <ele>1127.0</ele>
        <time>2013-06-30T12:12:07Z</time>
      </trkpt>
      <trkpt lat="40.242983" lon="-4.885217">
        <ele>1129.0</ele>
        <time>2013-06-30T12:12:08Z</time>
      </trkpt>
      <trkpt lat="40.242933" lon="-4.885167">
        <ele>1131.0</ele>
        <time>2013-06-30T12:12:09Z</time>
      </trkpt>
      <trkpt lat="40.242867" lon="-4.885117">
        <ele>1133.0</ele>
        <time>2013-06-30T12:12:10Z</time>
      </trkpt>
      <trkpt lat="40.242800" lon="-4.885083">
        <ele>1135.0</ele>
        <time>2013-06-30T12:12:11Z</time>
      </trkpt>
      <trkpt lat="40.242717" lon="-4.885067">
        <ele>1137.0</ele>
        <time>2013-06-30T12:12:12Z</time>
      </trkpt>
      <trkpt lat="40.242633" lon="-4.885083">
        <ele>1140.0</ele>
        <time>2013-06-30T12:12:13Z</time>
      </trkpt>
      <trkpt lat="40.242550" lon="-4.885117">
        <ele>1142.0</ele>
        <time>2013-06-30T12:12:14Z</time>
      </trkpt>
      <trkpt lat="40.242483" lon="-4.885150">
        <ele>1145.0</ele>
        <time>2013-06-30T12:12:15Z</time>
      </trkpt>
      <trkpt lat="40.242400" lon="-4.885200">
        <ele>1148.0</ele>
        <time>2013-06-30T12:12:16Z</time>
      </trkpt>
      <trkpt lat="40.242333" lon="-4.885233">
        <ele>1151.0</ele>
        <time>2013-06-30T12:12:17Z</time>
      </trkpt>
      <trkpt lat="40.242250" lon="-4.885300">
        <ele>1154.0</ele>
        <time>2013-06-30T12:12:18Z</time>
      </trkpt>
      <trkpt lat="40.242167" lon="-4.885350">
        <ele>1158.0</ele>
        <time>2013-06-30T12:12:19Z</time>
      </trkpt>
      <trkpt lat="40.242100" lon="-4.885433">
        <ele>1161.0</ele>
        <time>2013-06-30T12:12:20Z</time>
      </trkpt>
      <trkpt lat="40.242050" lon="-4.885533">
        <ele>1164.0</ele>
        <time>2013-06-30T12:12:21Z</time>
      </trkpt>
      <trkpt lat="40.242017" lon="-4.885633">
        <ele>1167.0</ele>
        <time>2013-06-30T12:12:22Z</time>
      </trkpt>
      <trkpt lat="40.241983" lon="-4.885733">
        <ele>1170.0</ele>
        <time>2013-06-30T12:12:23Z</time>
      </trkpt>
      <trkpt lat="40.241983" lon="-4.885850">
        <ele>1173.0</ele>
        <time>2013-06-30T12:12:24Z</time>
      </trkpt>
      <trkpt lat="40.241983" lon="-4.885967">
        <ele>1176.0</ele>
        <time>2013-06-30T12:12:25Z</time>
      </trkpt>
      <trkpt lat="40.242000" lon="-4.886083">
        <ele>1178.0</ele>
        <time>2013-06-30T12:12:26Z</time>
      </trkpt>
      <trkpt lat="40.242050" lon="-4.886167">
        <ele>1181.0</ele>
        <time>2013-06-30T12:12:27Z</time>
      </trkpt>
      <trkpt lat="40.242100" lon="-4.886250">
        <ele>1184.0</ele>
        <time>2013-06-30T12:12:28Z</time>
      </trkpt>
      <trkpt lat="40.242150" lon="-4.886300">
        <ele>1188.0</ele>
        <time>2013-06-30T12:12:29Z</time>
      </trkpt>
      <trkpt lat="40.242200" lon="-4.886317">
        <ele>1192.0</ele>
        <time>2013-06-30T12:12:30Z</time>
      </trkpt>
      <trkpt lat="40.242233" lon="-4.886317">
        <ele>1196.0</ele>
        <time>2013-06-30T12:12:31Z</time>
      </trkpt>
      <trkpt lat="40.242283" lon="-4.886317">
        <ele>1200.0</ele>
        <time>2013-06-30T12:12:32Z</time>
      </trkpt>
      <trkpt lat="40.242333" lon="-4.886317">
        <ele>1203.0</ele>
        <time>2013-06-30T12:12:33Z</time>
      </trkpt>
      <trkpt lat="40.242383" lon="-4.886300">
        <ele>1208.0</ele>
        <time>2013-06-30T12:12:34Z</time>
      </trkpt>
      <trkpt lat="40.242433" lon="-4.886250">
        <ele>1212.0</ele>
        <time>2013-06-30T12:12:35Z</time>
      </trkpt>
      <trkpt lat="40.242450" lon="-4.886183">
        <ele>1214.0</ele>
        <time>2013-06-30T12:12:36Z</time>
      </trkpt>
      <trkpt lat="40.242433" lon="-4.886083">
        <ele>1216.0</ele>
        <time>2013-06-30T12:12:37Z</time>
      </trkpt>
      <trkpt lat="40.242383" lon="-4.886000">
        <ele>1219.0</ele>
        <time>2013-06-30T12:12:38Z</time>
      </trkpt>
      <trkpt lat="40.242350" lon="-4.885917">
        <ele>1223.0</ele>
        <time>2013-06-30T12:12:39Z</time>
      </trkpt>
      <trkpt lat="40.242300" lon="-4.885867">
        <ele>1226.0</ele>
        <time>2013-06-30T12:12:40Z</time>
      </trkpt>
      <trkpt lat="40.242250" lon="-4.885817">
        <ele>1228.0</ele>
        <time>2013-06-30T12:12:41Z</time>
      </trkpt>
      <trkpt lat="40.242200" lon="-4.885767">
        <ele>1230.0</ele>
        <time>2013-06-30T12:12:42Z</time>
      </trkpt>
      <trkpt lat="40.242117" lon="-4.885717">
        <ele>1233.0</ele>
        <time>2013-06-30T12:12:43Z</time>
      </trkpt>
      <trkpt lat="40.242033" lon="-4.885683">
        <ele>1235.0</ele>
        <time>2013-06-30T12:12:44Z</time>
      </trkpt>
      <trkpt lat="40.241950" lon="-4.885683">
        <ele>1238.0</ele>
        <time>2013-06-30T12:12:45Z</time>
      </trkpt>
      <trkpt lat="40.241867" lon="-4.885700">
        <ele>1240.0</ele>
        <time>2013-06-30T12:12:46Z</time>
      </trkpt>
      <trkpt lat="40.241783" lon="-4.885733">
        <ele>1242.0</ele>
        <time>2013-06-30T12:12:47Z</time>
      </trkpt>
      <trkpt lat="40.241683" lon="-4.885750">
        <ele>1244.0</ele>
        <time>2013-06-30T12:12:48Z</time>
      </trkpt>
      <trkpt lat="40.241583" lon="-4.885800">
        <ele>1245.0</ele>
        <time>2013-06-30T12:12:49Z</time>
      </trkpt>
      <trkpt lat="40.241483" lon="-4.885883">
        <ele>1246.0</ele>
        <time>2013-06-30T12:12:50Z</time>
      </trkpt>
      <trkpt lat="40.241400" lon="-4.885983">
        <ele>1246.0</ele>
        <time>2013-06-30T12:12:51Z</time>
      </trkpt>
      <trkpt lat="40.241350" lon="-4.886117">
        <ele>1246.0</ele>
        <time>2013-06-30T12:12:52Z</time>
      </trkpt>
      <trkpt lat="40.241300" lon="-4.886233">
        <ele>1246.0</ele>
        <time>2013-06-30T12:12:53Z</time>
      </trkpt>
      <trkpt lat="40.241283" lon="-4.886367">
        <ele>1245.0</ele>
        <time>2013-06-30T12:12:54Z</time>
      </trkpt>
      <trkpt lat="40.241283" lon="-4.886483">
        <ele>1244.0</ele>
        <time>2013-06-30T12:12:55Z</time>
      </trkpt>
      <trkpt lat="40.241283" lon="-4.886600">
        <ele>1242.0</ele>
        <time>2013-06-30T12:12:56Z</time>
      </trkpt>
      <trkpt lat="40.241333" lon="-4.886717">
        <ele>1239.0</ele>
        <time>2013-06-30T12:12:57Z</time>
      </trkpt>
      <trkpt lat="40.241383" lon="-4.886833">
        <ele>1238.0</ele>
        <time>2013-06-30T12:12:58Z</time>
      </trkpt>
      <trkpt lat="40.241433" lon="-4.886950">
        <ele>1237.0</ele>
        <time>2013-06-30T12:12:59Z</time>
      </trkpt>
      <trkpt lat="40.241483" lon="-4.887050">
        <ele>1236.0</ele>
        <time>2013-06-30T12:13:00Z</time>
      </trkpt>
      <trkpt lat="40.241550" lon="-4.887150">
        <ele>1237.0</ele>
        <time>2013-06-30T12:13:01Z</time>
      </trkpt>
      <trkpt lat="40.241617" lon="-4.887233">
        <ele>1238.0</ele>
        <time>2013-06-30T12:13:02Z</time>
      </trkpt>
      <trkpt lat="40.241667" lon="-4.887317">
        <ele>1240.0</ele>
        <time>2013-06-30T12:13:03Z</time>
      </trkpt>
      <trkpt lat="40.241717" lon="-4.887383">
        <ele>1242.0</ele>
        <time>2013-06-30T12:13:04Z</time>
      </trkpt>
      <trkpt lat="40.241767" lon="-4.887433">
        <ele>1244.0</ele>
        <time>2013-06-30T12:13:05Z</time>
      </trkpt>
      <trkpt lat="40.241817" lon="-4.887450">
        <ele>1246.0</ele>
        <time>2013-06-30T12:13:06Z</time>
      </trkpt>
      <trkpt lat="40.241883" lon="-4.887483">
        <ele>1247.0</ele>
        <time>2013-06-30T12:13:07Z</time>
      </trkpt>
      <trkpt lat="40.241933" lon="-4.887483">
        <ele>1249.0</ele>
        <time>2013-06-30T12:13:08Z</time>
      </trkpt>
      <trkpt lat="40.242000" lon="-4.887483">
        <ele>1250.0</ele>
        <time>2013-06-30T12:13:09Z</time>
      </trkpt>
      <trkpt lat="40.242050" lon="-4.887467">
        <ele>1252.0</ele>
        <time>2013-06-30T12:13:10Z</time>
      </trkpt>
      <trkpt lat="40.242117" lon="-4.887433">
        <ele>1255.0</ele>
        <time>2013-06-30T12:13:11Z</time>
      </trkpt>
      <trkpt lat="40.242167" lon="-4.887400">
        <ele>1258.0</ele>
        <time>2013-06-30T12:13:12Z</time>
      </trkpt>
      <trkpt lat="40.242200" lon="-4.887350">
        <ele>1262.0</ele>
        <time>2013-06-30T12:13:13Z</time>
      </trkpt>
      <trkpt lat="40.242233" lon="-4.887317">
        <ele>1265.0</ele>
        <time>2013-06-30T12:13:14Z</time>
      </trkpt>
      <trkpt lat="40.242283" lon="-4.887267">
        <ele>1267.0</ele>
        <time>2013-06-30T12:13:15Z</time>
      </trkpt>
      <trkpt lat="40.242317" lon="-4.887217">
        <ele>1269.0</ele>
        <time>2013-06-30T12:13:16Z</time>
      </trkpt>
      <trkpt lat="40.242333" lon="-4.887150">
        <ele>1272.0</ele>
        <time>2013-06-30T12:13:17Z</time>
      </trkpt>
      <trkpt lat="40.242333" lon="-4.887083">
        <ele>1275.0</ele>
        <time>2013-06-30T12:13:18Z</time>
      </trkpt>
      <trkpt lat="40.242333" lon="-4.887017">
        <ele>1278.0</ele>
        <time>2013-06-30T12:13:19Z</time>
      </trkpt>
      <trkpt lat="40.242317" lon="-4.886933">
        <ele>1280.0</ele>
        <time>2013-06-30T12:13:20Z</time>
      </trkpt>
      <trkpt lat="40.242317" lon="-4.886867">
        <ele>1283.0</ele>
        <time>2013-06-30T12:13:21Z</time>
      </trkpt>
      <trkpt lat="40.242300" lon="-4.886800">
        <ele>1285.0</ele>
        <time>2013-06-30T12:13:22Z</time>
      </trkpt>
      <trkpt lat="40.242283" lon="-4.886717">
        <ele>1287.0</ele>
        <time>2013-06-30T12:13:23Z</time>
      </trkpt>
      <trkpt lat="40.242233" lon="-4.886633">
        <ele>1289.0</ele>
        <time>2013-06-30T12:13:24Z</time>
      </trkpt>
      <trkpt lat="40.242183" lon="-4.886567">
        <ele>1292.0</ele>
        <time>2013-06-30T12:13:25Z</time>
      </trkpt>
      <trkpt lat="40.242117" lon="-4.886517">
        <ele>1296.0</ele>
        <time>2013-06-30T12:13:26Z</time>
      </trkpt>
      <trkpt lat="40.242033" lon="-4.886483">
        <ele>1300.0</ele>
        <time>2013-06-30T12:13:27Z</time>
      </trkpt>
      <trkpt lat="40.241950" lon="-4.886467">
        <ele>1305.0</ele>
        <time>2013-06-30T12:13:28Z</time>
      </trkpt>
      <trkpt lat="40.241883" lon="-4.886467">
        <ele>1309.0</ele>
        <time>2013-06-30T12:13:29Z</time>
      </trkpt>
      <trkpt lat="40.241817" lon="-4.886450">
        <ele>1311.0</ele>
        <time>2013-06-30T12:13:30Z</time>
      </trkpt>
      <trkpt lat="40.241750" lon="-4.886433">
        <ele>1313.0</ele>
        <time>2013-06-30T12:13:31Z</time>
      </trkpt>
      <trkpt lat="40.241667" lon="-4.886450">
        <ele>1314.0</ele>
        <time>2013-06-30T12:13:32Z</time>
      </trkpt>
      <trkpt lat="40.241583" lon="-4.886483">
        <ele>1314.0</ele>
        <time>2013-06-30T12:13:33Z</time>
      </trkpt>
      <trkpt lat="40.241500" lon="-4.886567">
        <ele>1314.0</ele>
        <time>2013-06-30T12:13:34Z</time>
      </trkpt>
      <trkpt lat="40.241450" lon="-4.886700">
        <ele>1314.0</ele>
        <time>2013-06-30T12:13:35Z</time>
      </trkpt>
      <trkpt lat="40.241433" lon="-4.886850">
        <ele>1314.0</ele>
        <time>2013-06-30T12:13:36Z</time>
      </trkpt>
      <trkpt lat="40.241417" lon="-4.886983">
        <ele>1315.0</ele>
        <time>2013-06-30T12:13:37Z</time>
      </trkpt>
      <trkpt lat="40.241417" lon="-4.887117">
        <ele>1316.0</ele>
        <time>2013-06-30T12:13:38Z</time>
      </trkpt>
      <trkpt lat="40.241417" lon="-4.887250">
        <ele>1317.0</ele>
        <time>2013-06-30T12:13:39Z</time>
      </trkpt>
      <trkpt lat="40.241433" lon="-4.887367">
        <ele>1317.0</ele>
        <time>2013-06-30T12:13:40Z</time>
      </trkpt>
      <trkpt lat="40.241467" lon="-4.887483">
        <ele>1316.0</ele>
        <time>2013-06-30T12:13:41Z</time>
      </trkpt>
      <trkpt lat="40.241517" lon="-4.887583">
        <ele>1316.0</ele>
        <time>2013-06-30T12:13:42Z</time>
      </trkpt>
      <trkpt lat="40.241567" lon="-4.887650">
        <ele>1316.0</ele>
        <time>2013-06-30T12:13:43Z</time>
      </trkpt>
      <trkpt lat="40.241633" lon="-4.887717">
        <ele>1316.0</ele>
        <time>2013-06-30T12:13:44Z</time>
      </trkpt>
      <trkpt lat="40.241700" lon="-4.887750">
        <ele>1317.0</ele>
        <time>2013-06-30T12:13:45Z</time>
      </trkpt>
      <trkpt lat="40.241767" lon="-4.887750">
        <ele>1318.0</ele>
        <time>2013-06-30T12:13:46Z</time>
      </trkpt>
      <trkpt lat="40.241833" lon="-4.887750">
        <ele>1320.0</ele>
        <time>2013-06-30T12:13:47Z</time>
      </trkpt>
      <trkpt lat="40.241900" lon="-4.887750">
        <ele>1322.0</ele>
        <time>2013-06-30T12:13:48Z</time>
      </trkpt>
      <trkpt lat="40.241967" lon="-4.887733">
        <ele>1325.0</ele>
        <time>2013-06-30T12:13:49Z</time>
      </trkpt>
      <trkpt lat="40.242017" lon="-4.887717">
        <ele>1327.0</ele>
        <time>2013-06-30T12:13:50Z</time>
      </trkpt>
      <trkpt lat="40.242050" lon="-4.887683">
        <ele>1329.0</ele>
        <time>2013-06-30T12:13:51Z</time>
      </trkpt>
      <trkpt lat="40.242100" lon="-4.887633">
        <ele>1331.0</ele>
        <time>2013-06-30T12:13:52Z</time>
      </trkpt>
      <trkpt lat="40.242133" lon="-4.887567">
        <ele>1333.0</ele>
        <time>2013-06-30T12:13:53Z</time>
      </trkpt>
      <trkpt lat="40.242150" lon="-4.887500">
        <ele>1336.0</ele>
        <time>2013-06-30T12:13:54Z</time>
      </trkpt>
      <trkpt lat="40.242183" lon="-4.887433">
        <ele>1338.0</ele>
        <time>2013-06-30T12:13:55Z</time>
      </trkpt>
      <trkpt lat="40.242183" lon="-4.887350">
        <ele>1341.0</ele>
        <time>2013-06-30T12:13:56Z</time>
      </trkpt>
      <trkpt lat="40.242200" lon="-4.887283">
        <ele>1344.0</ele>
        <time>2013-06-30T12:13:57Z</time>
      </trkpt>
      <trkpt lat="40.242217" lon="-4.887217">
        <ele>1347.0</ele>
        <time>2013-06-30T12:13:58Z</time>
      </trkpt>
      <trkpt lat="40.242217" lon="-4.887150">
        <ele>1350.0</ele>
        <time>2013-06-30T12:13:59Z</time>
      </trkpt>
      <trkpt lat="40.242233" lon="-4.887083">
        <ele>1353.0</ele>
        <time>2013-06-30T12:14:00Z</time>
      </trkpt>
      <trkpt lat="40.242217" lon="-4.887000">
        <ele>1357.0</ele>
        <time>2013-06-30T12:14:01Z</time>
      </trkpt>
      <trkpt lat="40.242200" lon="-4.886917">
        <ele>1360.0</ele>
        <time>2013-06-30T12:14:02Z</time>
      </trkpt>
      <trkpt lat="40.242183" lon="-4.886850">
        <ele>1364.0</ele>
        <time>2013-06-30T12:14:03Z</time>
      </trkpt>
      <trkpt lat="40.242167" lon="-4.886800">
        <ele>1368.0</ele>
        <time>2013-06-30T12:14:04Z</time>
      </trkpt>
      <trkpt lat="40.242167" lon="-4.886717">
        <ele>1371.0</ele>
        <time>2013-06-30T12:14:05Z</time>
      </trkpt>
      <trkpt lat="40.242150" lon="-4.886633">
        <ele>1374.0</ele>
        <time>2013-06-30T12:14:06Z</time>
      </trkpt>
      <trkpt lat="40.242117" lon="-4.886550">
        <ele>1378.0</ele>
        <time>2013-06-30T12:14:07Z</time>
      </trkpt>
      <trkpt lat="40.242067" lon="-4.886483">
        <ele>1382.0</ele>
        <time>2013-06-30T12:14:08Z</time>
      </trkpt>
      <trkpt lat="40.241983" lon="-4.886450">
        <ele>1385.0</ele>
        <time>2013-06-30T12:14:09Z</time>
      </trkpt>
      <trkpt lat="40.241900" lon="-4.886483">
        <ele>1386.0</ele>
        <time>2013-06-30T12:14:10Z</time>
      </trkpt>
      <trkpt lat="40.241800" lon="-4.886550">
        <ele>1389.0</ele>
        <time>2013-06-30T12:14:11Z</time>
      </trkpt>
      <trkpt lat="40.241750" lon="-4.886667">
        <ele>1392.0</ele>
        <time>2013-06-30T12:14:12Z</time>
      </trkpt>
      <trkpt lat="40.241717" lon="-4.886767">
        <ele>1395.0</ele>
        <time>2013-06-30T12:14:13Z</time>
      </trkpt>
      <trkpt lat="40.241717" lon="-4.886883">
        <ele>1398.0</ele>
        <time>2013-06-30T12:14:14Z</time>
      </trkpt>
      <trkpt lat="40.241750" lon="-4.887000">
        <ele>1401.0</ele>
        <time>2013-06-30T12:14:15Z</time>
      </trkpt>
      <trkpt lat="40.241783" lon="-4.887083">
        <ele>1405.0</ele>
        <time>2013-06-30T12:14:16Z</time>
      </trkpt>
      <trkpt lat="40.241833" lon="-4.887167">
        <ele>1410.0</ele>
        <time>2013-06-30T12:14:17Z</time>
      </trkpt>
      <trkpt lat="40.241883" lon="-4.887200">
        <ele>1415.0</ele>
        <time>2013-06-30T12:14:18Z</time>
      </trkpt>
      <trkpt lat="40.241933" lon="-4.887217">
        <ele>1418.0</ele>
        <time>2013-06-30T12:14:19Z</time>
      </trkpt>
      <trkpt lat="40.241983" lon="-4.887217">
        <ele>1420.0</ele>
        <time>2013-06-30T12:14:20Z</time>
      </trkpt>
      <trkpt lat="40.242050" lon="-4.887200">
        <ele>1423.0</ele>
        <time>2013-06-30T12:14:21Z</time>
      </trkpt>
      <trkpt lat="40.242117" lon="-4.887167">
        <ele>1426.0</ele>
        <time>2013-06-30T12:14:22Z</time>
      </trkpt>
      <trkpt lat="40.242150" lon="-4.887083">
        <ele>1430.0</ele>
        <time>2013-06-30T12:14:23Z</time>
      </trkpt>
      <trkpt lat="40.242150" lon="-4.886983">
        <ele>1433.0</ele>
        <time>2013-06-30T12:14:24Z</time>
      </trkpt>
      <trkpt lat="40.242117" lon="-4.886900">
        <ele>1437.0</ele>
        <time>2013-06-30T12:14:25Z</time>
      </trkpt>
      <trkpt lat="40.242067" lon="-4.886817">
        <ele>1440.0</ele>
        <time>2013-06-30T12:14:26Z</time>
      </trkpt>
      <trkpt lat="40.242017" lon="-4.886733">
        <ele>1444.0</ele>
        <time>2013-06-30T12:14:27Z</time>
      </trkpt>
      <trkpt lat="40.241967" lon="-4.886683">
        <ele>1448.0</ele>
        <time>2013-06-30T12:14:28Z</time>
      </trkpt>
      <trkpt lat="40.241917" lon="-4.886650">
        <ele>1451.0</ele>
        <time>2013-06-30T12:14:29Z</time>
      </trkpt>
      <trkpt lat="40.241850" lon="-4.886650">
        <ele>1453.0</ele>
        <time>2013-06-30T12:14:30Z</time>
      </trkpt>
      <trkpt lat="40.241783" lon="-4.886650">
        <ele>1453.0</ele>
        <time>2013-06-30T12:14:31Z</time>
      </trkpt>
      <trkpt lat="40.241683" lon="-4.886650">
        <ele>1454.0</ele>
        <time>2013-06-30T12:14:32Z</time>
      </trkpt>
      <trkpt lat="40.241600" lon="-4.886667">
        <ele>1456.0</ele>
        <time>2013-06-30T12:14:33Z</time>
      </trkpt>
      <trkpt lat="40.241533" lon="-4.886700">
        <ele>1456.0</ele>
        <time>2013-06-30T12:14:34Z</time>
      </trkpt>
      <trkpt lat="40.241450" lon="-4.886783">
        <ele>1457.0</ele>
        <time>2013-06-30T12:14:35Z</time>
      </trkpt>
      <trkpt lat="40.241400" lon="-4.886900">
        <ele>1455.0</ele>
        <time>2013-06-30T12:14:36Z</time>
      </trkpt>
      <trkpt lat="40.241367" lon="-4.887017">
        <ele>1456.0</ele>
        <time>2013-06-30T12:14:37Z</time>
      </trkpt>
      <trkpt lat="40.241350" lon="-4.887150">
        <ele>1457.0</ele>
        <time>2013-06-30T12:14:38Z</time>
      </trkpt>
      <trkpt lat="40.241350" lon="-4.887283">
        <ele>1458.0</ele>
        <time>2013-06-30T12:14:39Z</time>
      </trkpt>
      <trkpt lat="40.241383" lon="-4.887400">
        <ele>1460.0</ele>
        <time>2013-06-30T12:14:40Z</time>
      </trkpt>
      <trkpt lat="40.241400" lon="-4.887517">
        <ele>1463.0</ele>
        <time>2013-06-30T12:14:41Z</time>
      </trkpt>
      <trkpt lat="40.241433" lon="-4.887633">
        <ele>1465.0</ele>
        <time>2013-06-30T12:14:42Z</time>
      </trkpt>
      <trkpt lat="40.241467" lon="-4.887750">
        <ele>1469.0</ele>
        <time>2013-06-30T12:14:43Z</time>
      </trkpt>
      <trkpt lat="40.241517" lon="-4.887850">
        <ele>1472.0</ele>
        <time>2013-06-30T12:14:44Z</time>
      </trkpt>
      <trkpt lat="40.241567" lon="-4.887933">
        <ele>1476.0</ele>
        <time>2013-06-30T12:14:45Z</time>
      </trkpt>
      <trkpt lat="40.241617" lon="-4.887983">
        <ele>1479.0</ele>
        <time>2013-06-30T12:14:46Z</time>
      </trkpt>
      <trkpt lat="40.241667" lon="-4.888017">
        <ele>1482.0</ele>
        <time>2013-06-30T12:14:47Z</time>
      </trkpt>
      <trkpt lat="40.241733" lon="-4.888067">
        <ele>1485.0</ele>
        <time>2013-06-30T12:14:48Z</time>
      </trkpt>
      <trkpt lat="40.241783" lon="-4.888117">
        <ele>1488.0</ele>
        <time>2013-06-30T12:14:49Z</time>
      </trkpt>
      <trkpt lat="40.241850" lon="-4.888150">
        <ele>1491.0</ele>
        <time>2013-06-30T12:14:50Z</time>
      </trkpt>
      <trkpt lat="40.241917" lon="-4.888183">
        <ele>1494.0</ele>
        <time>2013-06-30T12:14:51Z</time>
      </trkpt>
      <trkpt lat="40.241983" lon="-4.888200">
        <ele>1497.0</ele>
        <time>2013-06-30T12:14:52Z</time>
      </trkpt>
      <trkpt lat="40.242033" lon="-4.888200">
        <ele>1500.0</ele>
        <time>2013-06-30T12:14:53Z</time>
      </trkpt>
      <trkpt lat="40.242083" lon="-4.888183">
        <ele>1503.0</ele>
        <time>2013-06-30T12:14:54Z</time>
      </trkpt>
      <trkpt lat="40.242117" lon="-4.888117">
        <ele>1504.0</ele>
        <time>2013-06-30T12:14:55Z</time>
      </trkpt>
      <trkpt lat="40.242133" lon="-4.888033">
        <ele>1506.0</ele>
        <time>2013-06-30T12:14:56Z</time>
      </trkpt>
      <trkpt lat="40.242150" lon="-4.887950">
        <ele>1508.0</ele>
        <time>2013-06-30T12:14:57Z</time>
      </trkpt>
      <trkpt lat="40.242133" lon="-4.887883">
        <ele>1511.0</ele>
        <time>2013-06-30T12:14:58Z</time>
      </trkpt>
      <trkpt lat="40.242100" lon="-4.887800">
        <ele>1514.0</ele>
        <time>2013-06-30T12:14:59Z</time>
      </trkpt>
      <trkpt lat="40.242067" lon="-4.887733">
        <ele>1517.0</ele>
        <time>2013-06-30T12:15:00Z</time>
      </trkpt>
      <trkpt lat="40.242017" lon="-4.887683">
        <ele>1520.0</ele>
        <time>2013-06-30T12:15:01Z</time>
      </trkpt>
      <trkpt lat="40.241950" lon="-4.887633">
        <ele>1522.0</ele>
        <time>2013-06-30T12:15:02Z</time>
      </trkpt>
      <trkpt lat="40.241867" lon="-4.887617">
        <ele>1523.0</ele>
        <time>2013-06-30T12:15:03Z</time>
      </trkpt>
      <trkpt lat="40.241783" lon="-4.887617">
        <ele>1523.0</ele>
        <time>2013-06-30T12:15:04Z</time>
      </trkpt>
      <trkpt lat="40.241683" lon="-4.887633">
        <ele>1524.0</ele>
        <time>2013-06-30T12:15:05Z</time>
      </trkpt>
      <trkpt lat="40.241583" lon="-4.887700">
        <ele>1524.0</ele>
        <time>2013-06-30T12:15:06Z</time>
      </trkpt>
      <trkpt lat="40.241517" lon="-4.887800">
        <ele>1525.0</ele>
        <time>2013-06-30T12:15:07Z</time>
      </trkpt>
      <trkpt lat="40.241467" lon="-4.887933">
        <ele>1525.0</ele>
        <time>2013-06-30T12:15:08Z</time>
      </trkpt>
      <trkpt lat="40.241433" lon="-4.888083">
        <ele>1526.0</ele>
        <time>2013-06-30T12:15:09Z</time>
      </trkpt>
      <trkpt lat="40.241417" lon="-4.888233">
        <ele>1528.0</ele>
        <time>2013-06-30T12:15:10Z</time>
      </trkpt>
      <trkpt lat="40.241417" lon="-4.888383">
        <ele>1532.0</ele>
        <time>2013-06-30T12:15:11Z</time>
      </trkpt>
      <trkpt lat="40.241417" lon="-4.888500">
        <ele>1536.0</ele>
        <time>2013-06-30T12:15:12Z</time>
      </trkpt>
      <trkpt lat="40.241433" lon="-4.888583">
        <ele>1540.0</ele>
        <time>2013-06-30T12:15:13Z</time>
      </trkpt>
      <trkpt lat="40.241450" lon="-4.888683">
        <ele>1543.0</ele>
        <time>2013-06-30T12:15:14Z</time>
      </trkpt>
      <trkpt lat="40.241467" lon="-4.888800">
        <ele>1546.0</ele>
        <time>2013-06-30T12:15:15Z</time>
      </trkpt>
      <trkpt lat="40.241500" lon="-4.888900">
        <ele>1548.0</ele>
        <time>2013-06-30T12:15:16Z</time>
      </trkpt>
      <trkpt lat="40.241550" lon="-4.888983">
        <ele>1550.0</ele>
        <time>2013-06-30T12:15:17Z</time>
      </trkpt>
      <trkpt lat="40.241617" lon="-4.889050">
        <ele>1553.0</ele>
        <time>2013-06-30T12:15:18Z</time>
      </trkpt>
      <trkpt lat="40.241683" lon="-4.889067">
        <ele>1555.0</ele>
        <time>2013-06-30T12:15:19Z</time>
      </trkpt>
      <trkpt lat="40.241733" lon="-4.889067">
        <ele>1558.0</ele>
        <time>2013-06-30T12:15:20Z</time>
      </trkpt>
      <trkpt lat="40.241800" lon="-4.889067">
        <ele>1561.0</ele>
        <time>2013-06-30T12:15:21Z</time>
      </trkpt>
      <trkpt lat="40.241850" lon="-4.889067">
        <ele>1563.0</ele>
        <time>2013-06-30T12:15:22Z</time>
      </trkpt>
      <trkpt lat="40.241900" lon="-4.889050">
        <ele>1565.0</ele>
        <time>2013-06-30T12:15:23Z</time>
      </trkpt>
      <trkpt lat="40.241950" lon="-4.889033">
        <ele>1567.0</ele>
        <time>2013-06-30T12:15:24Z</time>
      </trkpt>
      <trkpt lat="40.241983" lon="-4.888983">
        <ele>1568.0</ele>
        <time>2013-06-30T12:15:25Z</time>
      </trkpt>
      <trkpt lat="40.242000" lon="-4.888900">
        <ele>1568.0</ele>
        <time>2013-06-30T12:15:26Z</time>
      </trkpt>
      <trkpt lat="40.242000" lon="-4.888800">
        <ele>1570.0</ele>
        <time>2013-06-30T12:15:27Z</time>
      </trkpt>
      <trkpt lat="40.241983" lon="-4.888717">
        <ele>1572.0</ele>
        <time>2013-06-30T12:15:28Z</time>
      </trkpt>
      <trkpt lat="40.241967" lon="-4.888633">
        <ele>1575.0</ele>
        <time>2013-06-30T12:15:29Z</time>
      </trkpt>
      <trkpt lat="40.241950" lon="-4.888550">
        <ele>1578.0</ele>
        <time>2013-06-30T12:15:30Z</time>
      </trkpt>
      <trkpt lat="40.241917" lon="-4.888483">
        <ele>1580.0</ele>
        <time>2013-06-30T12:15:31Z</time>
      </trkpt>
      <trkpt lat="40.241883" lon="-4.888417">
        <ele>1582.0</ele>
        <time>2013-06-30T12:15:32Z</time>
      </trkpt>
      <trkpt lat="40.241850" lon="-4.888350">
        <ele>1582.0</ele>
        <time>2013-06-30T12:15:33Z</time>
      </trkpt>
      <trkpt lat="40.241783" lon="-4.888300">
        <ele>1581.0</ele>
        <time>2013-06-30T12:15:34Z</time>
      </trkpt>
      <trkpt lat="40.241700" lon="-4.888250">
        <ele>1580.0</ele>
        <time>2013-06-30T12:15:35Z</time>
      </trkpt>
      <trkpt lat="40.241617" lon="-4.888233">
        <ele>1580.0</ele>
        <time>2013-06-30T12:15:36Z</time>
      </trkpt>
      <trkpt lat="40.241517" lon="-4.888267">
        <ele>1579.0</ele>
        <time>2013-06-30T12:15:37Z</time>
      </trkpt>
      <trkpt lat="40.241433" lon="-4.888317">
        <ele>1579.0</ele>
        <time>2013-06-30T12:15:38Z</time>
      </trkpt>
      <trkpt lat="40.241333" lon="-4.888383">
        <ele>1578.0</ele>
        <time>2013-06-30T12:15:39Z</time>
      </trkpt>
      <trkpt lat="40.241250" lon="-4.888450">
        <ele>1577.0</ele>
        <time>2013-06-30T12:15:40Z</time>
      </trkpt>
      <trkpt lat="40.241183" lon="-4.888550">
        <ele>1577.0</ele>
        <time>2013-06-30T12:15:41Z</time>
      </trkpt>
      <trkpt lat="40.241083" lon="-4.888650">
        <ele>1576.0</ele>
        <time>2013-06-30T12:15:42Z</time>
      </trkpt>
      <trkpt lat="40.241000" lon="-4.888783">
        <ele>1574.0</ele>
        <time>2013-06-30T12:15:43Z</time>
      </trkpt>
      <trkpt lat="40.240950" lon="-4.888950">
        <ele>1575.0</ele>
        <time>2013-06-30T12:15:44Z</time>
      </trkpt>
      <trkpt lat="40.240917" lon="-4.889117">
        <ele>1575.0</ele>
        <time>2013-06-30T12:15:45Z</time>
      </trkpt>
      <trkpt lat="40.240900" lon="-4.889283">
        <ele>1576.0</ele>
        <time>2013-06-30T12:15:46Z</time>
      </trkpt>
      <trkpt lat="40.240883" lon="-4.889450">
        <ele>1577.0</ele>
        <time>2013-06-30T12:15:47Z</time>
      </trkpt>
      <trkpt lat="40.240867" lon="-4.889600">
        <ele>1580.0</ele>
        <time>2013-06-30T12:15:48Z</time>
      </trkpt>
      <trkpt lat="40.240867" lon="-4.889750">
        <ele>1582.0</ele>
        <time>2013-06-30T12:15:49Z</time>
      </trkpt>
      <trkpt lat="40.240867" lon="-4.889867">
        <ele>1584.0</ele>
        <time>2013-06-30T12:15:50Z</time>
      </trkpt>
      <trkpt lat="40.240900" lon="-4.890000">
        <ele>1584.0</ele>
        <time>2013-06-30T12:15:51Z</time>
      </trkpt>
      <trkpt lat="40.240917" lon="-4.890117">
        <ele>1585.0</ele>
        <time>2013-06-30T12:15:52Z</time>
      </trkpt>
      <trkpt lat="40.240967" lon="-4.890250">
        <ele>1586.0</ele>
        <time>2013-06-30T12:15:53Z</time>
      </trkpt>
      <trkpt lat="40.241017" lon="-4.890367">
        <ele>1587.0</ele>
        <time>2013-06-30T12:15:54Z</time>
      </trkpt>
      <trkpt lat="40.241083" lon="-4.890450">
        <ele>1589.0</ele>
        <time>2013-06-30T12:15:55Z</time>
      </trkpt>
      <trkpt lat="40.241133" lon="-4.890533">
        <ele>1591.0</ele>
        <time>2013-06-30T12:15:56Z</time>
      </trkpt>
      <trkpt lat="40.241200" lon="-4.890617">
        <ele>1593.0</ele>
        <time>2013-06-30T12:15:57Z</time>
      </trkpt>
      <trkpt lat="40.241250" lon="-4.890667">
        <ele>1594.0</ele>
        <time>2013-06-30T12:15:58Z</time>
      </trkpt>
      <trkpt lat="40.241317" lon="-4.890717">
        <ele>1594.0</ele>
        <time>2013-06-30T12:15:59Z</time>
      </trkpt>
      <trkpt lat="40.241383" lon="-4.890733">
        <ele>1595.0</ele>
        <time>2013-06-30T12:16:00Z</time>
      </trkpt>
      <trkpt lat="40.241450" lon="-4.890750">
        <ele>1595.0</ele>
        <time>2013-06-30T12:16:01Z</time>
      </trkpt>
      <trkpt lat="40.241517" lon="-4.890733">
        <ele>1593.0</ele>
        <time>2013-06-30T12:16:02Z</time>
      </trkpt>
      <trkpt lat="40.241583" lon="-4.890700">
        <ele>1591.0</ele>
        <time>2013-06-30T12:16:03Z</time>
      </trkpt>
      <trkpt lat="40.241667" lon="-4.890650">
        <ele>1591.0</ele>
        <time>2013-06-30T12:16:04Z</time>
      </trkpt>
      <trkpt lat="40.241750" lon="-4.890600">
        <ele>1592.0</ele>
        <time>2013-06-30T12:16:05Z</time>
      </trkpt>
      <trkpt lat="40.241800" lon="-4.890533">
        <ele>1595.0</ele>
        <time>2013-06-30T12:16:06Z</time>
      </trkpt>
      <trkpt lat="40.241850" lon="-4.890450">
        <ele>1598.0</ele>
        <time>2013-06-30T12:16:07Z</time>
      </trkpt>
      <trkpt lat="40.241883" lon="-4.890383">
        <ele>1601.0</ele>
        <time>2013-06-30T12:16:08Z</time>
      </trkpt>
      <trkpt lat="40.241900" lon="-4.890333">
        <ele>1604.0</ele>
        <time>2013-06-30T12:16:09Z</time>
      </trkpt>
      <trkpt lat="40.241900" lon="-4.890300">
        <ele>1606.0</ele>
        <time>2013-06-30T12:16:10Z</time>
      </trkpt>
      <trkpt lat="40.241917" lon="-4.890250">
        <ele>1608.0</ele>
        <time>2013-06-30T12:16:11Z</time>
      </trkpt>
      <trkpt lat="40.241933" lon="-4.890200">
        <ele>1608.0</ele>
        <time>2013-06-30T12:16:12Z</time>
      </trkpt>
      <trkpt lat="40.241950" lon="-4.890150">
        <ele>1608.0</ele>
        <time>2013-06-30T12:16:13Z</time>
      </trkpt>
      <trkpt lat="40.241933" lon="-4.890083">
        <ele>1609.0</ele>
        <time>2013-06-30T12:16:14Z</time>
      </trkpt>
      <trkpt lat="40.241900" lon="-4.890017">
        <ele>1608.0</ele>
        <time>2013-06-30T12:16:15Z</time>
      </trkpt>
      <trkpt lat="40.241817" lon="-4.889983">
        <ele>1608.0</ele>
        <time>2013-06-30T12:16:16Z</time>
      </trkpt>
      <trkpt lat="40.241700" lon="-4.889967">
        <ele>1607.0</ele>
        <time>2013-06-30T12:16:17Z</time>
      </trkpt>
      <trkpt lat="40.241600" lon="-4.889983">
        <ele>1607.0</ele>
        <time>2013-06-30T12:16:18Z</time>
      </trkpt>
      <trkpt lat="40.241483" lon="-4.890033">
        <ele>1606.0</ele>
        <time>2013-06-30T12:16:19Z</time>
      </trkpt>
      <trkpt lat="40.241367" lon="-4.890100">
        <ele>1606.0</ele>
        <time>2013-06-30T12:16:20Z</time>
      </trkpt>
      <trkpt lat="40.241250" lon="-4.890150">
        <ele>1606.0</ele>
        <time>2013-06-30T12:16:21Z</time>
      </trkpt>
      <trkpt lat="40.241150" lon="-4.890217">
        <ele>1606.0</ele>
        <time>2013-06-30T12:16:22Z</time>
      </trkpt>
      <trkpt lat="40.241033" lon="-4.890300">
        <ele>1607.0</ele>
        <time>2013-06-30T12:16:23Z</time>
      </trkpt>
      <trkpt lat="40.240933" lon="-4.890367">
        <ele>1606.0</ele>
        <time>2013-06-30T12:16:24Z</time>
      </trkpt>
      <trkpt lat="40.240817" lon="-4.890467">
        <ele>1606.0</ele>
        <time>2013-06-30T12:16:25Z</time>
      </trkpt>
      <trkpt lat="40.240717" lon="-4.890550">
        <ele>1606.0</ele>
        <time>2013-06-30T12:16:26Z</time>
      </trkpt>
      <trkpt lat="40.240600" lon="-4.890667">
        <ele>1607.0</ele>
        <time>2013-06-30T12:16:27Z</time>
      </trkpt>
      <trkpt lat="40.240500" lon="-4.890783">
        <ele>1609.0</ele>
        <time>2013-06-30T12:16:28Z</time>
      </trkpt>
      <trkpt lat="40.240433" lon="-4.890900">
        <ele>1611.0</ele>
        <time>2013-06-30T12:16:29Z</time>
      </trkpt>
      <trkpt lat="40.240367" lon="-4.891017">
        <ele>1612.0</ele>
        <time>2013-06-30T12:16:30Z</time>
      </trkpt>
      <trkpt lat="40.240317" lon="-4.891133">
        <ele>1614.0</ele>
        <time>2013-06-30T12:16:31Z</time>
      </trkpt>
      <trkpt lat="40.240267" lon="-4.891267">
        <ele>1614.0</ele>
        <time>2013-06-30T12:16:32Z</time>
      </trkpt>
      <trkpt lat="40.240217" lon="-4.891417">
        <ele>1613.0</ele>
        <time>2013-06-30T12:16:33Z</time>
      </trkpt>
      <trkpt lat="40.240183" lon="-4.891567">
        <ele>1613.0</ele>
        <time>2013-06-30T12:16:34Z</time>
      </trkpt>
      <trkpt lat="40.240167" lon="-4.891733">
        <ele>1613.0</ele>
        <time>2013-06-30T12:16:35Z</time>
      </trkpt>
      <trkpt lat="40.240200" lon="-4.891900">
        <ele>1612.0</ele>
        <time>2013-06-30T12:16:36Z</time>
      </trkpt>
      <trkpt lat="40.240250" lon="-4.892033">
        <ele>1610.0</ele>
        <time>2013-06-30T12:16:37Z</time>
      </trkpt>
      <trkpt lat="40.240333" lon="-4.892150">
        <ele>1609.0</ele>
        <time>2013-06-30T12:16:38Z</time>
      </trkpt>
      <trkpt lat="40.240400" lon="-4.892233">
        <ele>1608.0</ele>
        <time>2013-06-30T12:16:39Z</time>
      </trkpt>
      <trkpt lat="40.240500" lon="-4.892317">
        <ele>1610.0</ele>
        <time>2013-06-30T12:16:40Z</time>
      </trkpt>
      <trkpt lat="40.240583" lon="-4.892383">
        <ele>1612.0</ele>
        <time>2013-06-30T12:16:41Z</time>
      </trkpt>
      <trkpt lat="40.240667" lon="-4.892433">
        <ele>1613.0</ele>
        <time>2013-06-30T12:16:42Z</time>
      </trkpt>
      <trkpt lat="40.240733" lon="-4.892483">
        <ele>1615.0</ele>
        <time>2013-06-30T12:16:43Z</time>
      </trkpt>
      <trkpt lat="40.240800" lon="-4.892517">
        <ele>1615.0</ele>
        <time>2013-06-30T12:16:44Z</time>
      </trkpt>
      <trkpt lat="40.240850" lon="-4.892533">
        <ele>1613.0</ele>
        <time>2013-06-30T12:16:45Z</time>
      </trkpt>
      <trkpt lat="40.240900" lon="-4.892567">
        <ele>1612.0</ele>
        <time>2013-06-30T12:16:46Z</time>
      </trkpt>
      <trkpt lat="40.240967" lon="-4.892583">
        <ele>1610.0</ele>
        <time>2013-06-30T12:16:47Z</time>
      </trkpt>
      <trkpt lat="40.241033" lon="-4.892583">
        <ele>1608.0</ele>
        <time>2013-06-30T12:16:48Z</time>
      </trkpt>
      <trkpt lat="40.241117" lon="-4.892583">
        <ele>1607.0</ele>
        <time>2013-06-30T12:16:49Z</time>
      </trkpt>
      <trkpt lat="40.241200" lon="-4.892550">
        <ele>1605.0</ele>
        <time>2013-06-30T12:16:50Z</time>
      </trkpt>
      <trkpt lat="40.241267" lon="-4.892533">
        <ele>1604.0</ele>
        <time>2013-06-30T12:16:51Z</time>
      </trkpt>
      <trkpt lat="40.241333" lon="-4.892500">
        <ele>1604.0</ele>
        <time>2013-06-30T12:16:52Z</time>
      </trkpt>
      <trkpt lat="40.241383" lon="-4.892450">
        <ele>1603.0</ele>
        <time>2013-06-30T12:16:53Z</time>
      </trkpt>
      <trkpt lat="40.241433" lon="-4.892417">
        <ele>1602.0</ele>
        <time>2013-06-30T12:16:54Z</time>
      </trkpt>
      <trkpt lat="40.241483" lon="-4.892350">
        <ele>1600.0</ele>
        <time>2013-06-30T12:16:55Z</time>
      </trkpt>
      <trkpt lat="40.241533" lon="-4.892283">
        <ele>1599.0</ele>
        <time>2013-06-30T12:16:56Z</time>
      </trkpt>
      <trkpt lat="40.241600" lon="-4.892217">
        <ele>1599.0</ele>
        <time>2013-06-30T12:16:57Z</time>
      </trkpt>
      <trkpt lat="40.241633" lon="-4.892167">
        <ele>1600.0</ele>
        <time>2013-06-30T12:16:58Z</time>
      </trkpt>
      <trkpt lat="40.241683" lon="-4.892117">
        <ele>1601.0</ele>
        <time>2013-06-30T12:16:59Z</time>
      </trkpt>
      <trkpt lat="40.241717" lon="-4.892067">
        <ele>1603.0</ele>
        <time>2013-06-30T12:17:00Z</time>
      </trkpt>
      <trkpt lat="40.241733" lon="-4.892033">
        <ele>1604.0</ele>
        <time>2013-06-30T12:17:01Z</time>
      </trkpt>
      <trkpt lat="40.241733" lon="-4.892017">
        <ele>1605.0</ele>
        <time>2013-06-30T12:17:02Z</time>
      </trkpt>
      <trkpt lat="40.241750" lon="-4.891983">
        <ele>1604.0</ele>
        <time>2013-06-30T12:17:03Z</time>
      </trkpt>
      <trkpt lat="40.241750" lon="-4.891917">
        <ele>1603.0</ele>
        <time>2013-06-30T12:17:04Z</time>
      </trkpt>
      <trkpt lat="40.241750" lon="-4.891850">
        <ele>1601.0</ele>
        <time>2013-06-30T12:17:05Z</time>
      </trkpt>
      <trkpt lat="40.241767" lon="-4.891783">
        <ele>1600.0</ele>
        <time>2013-06-30T12:17:06Z</time>
      </trkpt>
      <trkpt lat="40.241767" lon="-4.891700">
        <ele>1599.0</ele>
        <time>2013-06-30T12:17:07Z</time>
      </trkpt>
      <trkpt lat="40.241767" lon="-4.891617">
        <ele>1599.0</ele>
        <time>2013-06-30T12:17:08Z</time>
      </trkpt>
      <trkpt lat="40.241750" lon="-4.891517">
        <ele>1600.0</ele>
        <time>2013-06-30T12:17:09Z</time>
      </trkpt>
      <trkpt lat="40.241733" lon="-4.891433">
        <ele>1601.0</ele>
        <time>2013-06-30T12:17:10Z</time>
      </trkpt>
      <trkpt lat="40.241733" lon="-4.891367">
        <ele>1603.0</ele>
        <time>2013-06-30T12:17:11Z</time>
      </trkpt>
      <trkpt lat="40.241733" lon="-4.891283">
        <ele>1604.0</ele>
        <time>2013-06-30T12:17:12Z</time>
      </trkpt>
      <trkpt lat="40.241733" lon="-4.891233">
        <ele>1606.0</ele>
        <time>2013-06-30T12:17:13Z</time>
      </trkpt>
      <trkpt lat="40.241717" lon="-4.891167">
        <ele>1608.0</ele>
        <time>2013-06-30T12:17:14Z</time>
      </trkpt>
      <trkpt lat="40.241700" lon="-4.891133">
        <ele>1609.0</ele>
        <time>2013-06-30T12:17:15Z</time>
      </trkpt>
      <trkpt lat="40.241700" lon="-4.891083">
        <ele>1608.0</ele>
        <time>2013-06-30T12:17:16Z</time>
      </trkpt>
      <trkpt lat="40.241700" lon="-4.891033">
        <ele>1607.0</ele>
        <time>2013-06-30T12:17:17Z</time>
      </trkpt>
      <trkpt lat="40.241717" lon="-4.890967">
        <ele>1605.0</ele>
        <time>2013-06-30T12:17:18Z</time>
      </trkpt>
      <trkpt lat="40.241733" lon="-4.890900">
        <ele>1603.0</ele>
        <time>2013-06-30T12:17:19Z</time>
      </trkpt>
      <trkpt lat="40.241733" lon="-4.890817">
        <ele>1601.0</ele>
        <time>2013-06-30T12:17:20Z</time>
      </trkpt>
      <trkpt lat="40.241717" lon="-4.890733">
        <ele>1599.0</ele>
        <time>2013-06-30T12:17:21Z</time>
      </trkpt>
      <trkpt lat="40.241700" lon="-4.890650">
        <ele>1596.0</ele>
        <time>2013-06-30T12:17:22Z</time>
      </trkpt>
      <trkpt lat="40.241667" lon="-4.890567">
        <ele>1594.0</ele>
        <time>2013-06-30T12:17:23Z</time>
      </trkpt>
      <trkpt lat="40.241667" lon="-4.890483">
        <ele>1591.0</ele>
        <time>2013-06-30T12:17:24Z</time>
      </trkpt>
      <trkpt lat="40.241667" lon="-4.890383">
        <ele>1589.0</ele>
        <time>2013-06-30T12:17:25Z</time>
      </trkpt>
      <trkpt lat="40.241650" lon="-4.890283">
        <ele>1587.0</ele>
        <time>2013-06-30T12:17:26Z</time>
      </trkpt>
      <trkpt lat="40.241650" lon="-4.890183">
        <ele>1587.0</ele>
        <time>2013-06-30T12:17:27Z</time>
      </trkpt>
      <trkpt lat="40.241633" lon="-4.890067">
        <ele>1589.0</ele>
        <time>2013-06-30T12:17:28Z</time>
      </trkpt>
      <trkpt lat="40.241617" lon="-4.889983">
        <ele>1592.0</ele>
        <time>2013-06-30T12:17:29Z</time>
      </trkpt>
      <trkpt lat="40.241633" lon="-4.889900">
        <ele>1594.0</ele>
        <time>2013-06-30T12:17:30Z</time>
      </trkpt>
      <trkpt lat="40.241633" lon="-4.889833">
        <ele>1595.0</ele>
        <time>2013-06-30T12:17:31Z</time>
      </trkpt>
      <trkpt lat="40.241650" lon="-4.889750">
        <ele>1597.0</ele>
        <time>2013-06-30T12:17:32Z</time>
      </trkpt>
      <trkpt lat="40.241650" lon="-4.889667">
        <ele>1599.0</ele>
        <time>2013-06-30T12:17:33Z</time>
      </trkpt>
      <trkpt lat="40.241650" lon="-4.889583">
        <ele>1602.0</ele>
        <time>2013-06-30T12:17:34Z</time>
      </trkpt>
      <trkpt lat="40.241633" lon="-4.889500">
        <ele>1606.0</ele>
        <time>2013-06-30T12:17:35Z</time>
      </trkpt>
      <trkpt lat="40.241600" lon="-4.889450">
        <ele>1611.0</ele>
        <time>2013-06-30T12:17:36Z</time>
      </trkpt>
      <trkpt lat="40.241567" lon="-4.889417">
        <ele>1615.0</ele>
        <time>2013-06-30T12:17:37Z</time>
      </trkpt>
      <trkpt lat="40.241517" lon="-4.889367">
        <ele>1618.0</ele>
        <time>2013-06-30T12:17:38Z</time>
      </trkpt>
      <trkpt lat="40.241483" lon="-4.889333">
        <ele>1620.0</ele>
        <time>2013-06-30T12:17:39Z</time>
      </trkpt>
      <trkpt lat="40.241400" lon="-4.889317">
        <ele>1622.0</ele>
        <time>2013-06-30T12:17:40Z</time>
      </trkpt>
      <trkpt lat="40.241317" lon="-4.889350">
        <ele>1623.0</ele>
        <time>2013-06-30T12:17:41Z</time>
      </trkpt>
      <trkpt lat="40.241233" lon="-4.889433">
        <ele>1625.0</ele>
        <time>2013-06-30T12:17:42Z</time>
      </trkpt>
      <trkpt lat="40.241167" lon="-4.889567">
        <ele>1626.0</ele>
        <time>2013-06-30T12:17:43Z</time>
      </trkpt>
      <trkpt lat="40.241150" lon="-4.889717">
        <ele>1628.0</ele>
        <time>2013-06-30T12:17:44Z</time>
      </trkpt>
      <trkpt lat="40.241167" lon="-4.889867">
        <ele>1630.0</ele>
        <time>2013-06-30T12:17:45Z</time>
      </trkpt>
      <trkpt lat="40.241200" lon="-4.889967">
        <ele>1632.0</ele>
        <time>2013-06-30T12:17:46Z</time>
      </trkpt>
      <trkpt lat="40.241250" lon="-4.890033">
        <ele>1635.0</ele>
        <time>2013-06-30T12:17:47Z</time>
      </trkpt>
      <trkpt lat="40.241300" lon="-4.890083">
        <ele>1638.0</ele>
        <time>2013-06-30T12:17:48Z</time>
      </trkpt>
      <trkpt lat="40.241350" lon="-4.890117">
        <ele>1640.0</ele>
        <time>2013-06-30T12:17:49Z</time>
      </trkpt>
      <trkpt lat="40.241400" lon="-4.890117">
        <ele>1642.0</ele>
        <time>2013-06-30T12:17:50Z</time>
      </trkpt>
      <trkpt lat="40.241467" lon="-4.890100">
        <ele>1644.0</ele>
        <time>2013-06-30T12:17:51Z</time>
      </trkpt>
      <trkpt lat="40.241533" lon="-4.890050">
        <ele>1647.0</ele>
        <time>2013-06-30T12:17:52Z</time>
      </trkpt>
      <trkpt lat="40.241583" lon="-4.890000">
        <ele>1650.0</ele>
        <time>2013-06-30T12:17:53Z</time>
      </trkpt>
      <trkpt lat="40.241617" lon="-4.889933">
        <ele>1653.0</ele>
        <time>2013-06-30T12:17:54Z</time>
      </trkpt>
      <trkpt lat="40.241633" lon="-4.889867">
        <ele>1655.0</ele>
        <time>2013-06-30T12:17:55Z</time>
      </trkpt>
      <trkpt lat="40.241633" lon="-4.889800">
        <ele>1657.0</ele>
        <time>2013-06-30T12:17:56Z</time>
      </trkpt>
      <trkpt lat="40.241617" lon="-4.889717">
        <ele>1658.0</ele>
        <time>2013-06-30T12:17:57Z</time>
      </trkpt>
      <trkpt lat="40.241600" lon="-4.889650">
        <ele>1659.0</ele>
        <time>2013-06-30T12:17:58Z</time>
      </trkpt>
      <trkpt lat="40.241567" lon="-4.889583">
        <ele>1660.0</ele>
        <time>2013-06-30T12:17:59Z</time>
      </trkpt>
      <trkpt lat="40.241483" lon="-4.889500">
        <ele>1660.0</ele>
        <time>2013-06-30T12:18:00Z</time>
      </trkpt>
      <trkpt lat="40.241383" lon="-4.889450">
        <ele>1662.0</ele>
        <time>2013-06-30T12:18:01Z</time>
      </trkpt>
      <trkpt lat="40.241283" lon="-4.889467">
        <ele>1665.0</ele>
        <time>2013-06-30T12:18:02Z</time>
      </trkpt>
      <trkpt lat="40.241200" lon="-4.889533">
        <ele>1666.0</ele>
        <time>2013-06-30T12:18:03Z</time>
      </trkpt>
      <trkpt lat="40.241133" lon="-4.889633">
        <ele>1668.0</ele>
        <time>2013-06-30T12:18:04Z</time>
      </trkpt>
      <trkpt lat="40.241083" lon="-4.889733">
        <ele>1669.0</ele>
        <time>2013-06-30T12:18:05Z</time>
      </trkpt>
      <trkpt lat="40.241050" lon="-4.889850">
        <ele>1670.0</ele>
        <time>2013-06-30T12:18:06Z</time>
      </trkpt>
      <trkpt lat="40.241050" lon="-4.889983">
        <ele>1670.0</ele>
        <time>2013-06-30T12:18:07Z</time>
      </trkpt>
      <trkpt lat="40.241050" lon="-4.890117">
        <ele>1670.0</ele>
        <time>2013-06-30T12:18:08Z</time>
      </trkpt>
      <trkpt lat="40.241067" lon="-4.890233">
        <ele>1673.0</ele>
        <time>2013-06-30T12:18:09Z</time>
      </trkpt>
      <trkpt lat="40.241100" lon="-4.890350">
        <ele>1676.0</ele>
        <time>2013-06-30T12:18:10Z</time>
      </trkpt>
      <trkpt lat="40.241133" lon="-4.890450">
        <ele>1680.0</ele>
        <time>2013-06-30T12:18:11Z</time>
      </trkpt>
      <trkpt lat="40.241150" lon="-4.890533">
        <ele>1683.0</ele>
        <time>2013-06-30T12:18:12Z</time>
      </trkpt>
      <trkpt lat="40.241183" lon="-4.890617">
        <ele>1686.0</ele>
        <time>2013-06-30T12:18:13Z</time>
      </trkpt>
      <trkpt lat="40.241200" lon="-4.890700">
        <ele>1688.0</ele>
        <time>2013-06-30T12:18:14Z</time>
      </trkpt>
      <trkpt lat="40.241233" lon="-4.890767">
        <ele>1689.0</ele>
        <time>2013-06-30T12:18:15Z</time>
      </trkpt>
      <trkpt lat="40.241267" lon="-4.890817">
        <ele>1690.0</ele>
        <time>2013-06-30T12:18:16Z</time>
      </trkpt>
      <trkpt lat="40.241300" lon="-4.890833">
        <ele>1689.0</ele>
        <time>2013-06-30T12:18:17Z</time>
      </trkpt>
      <trkpt lat="40.241350" lon="-4.890850">
        <ele>1689.0</ele>
        <time>2013-06-30T12:18:18Z</time>
      </trkpt>
      <trkpt lat="40.241417" lon="-4.890833">
        <ele>1689.0</ele>
        <time>2013-06-30T12:18:19Z</time>
      </trkpt>
      <trkpt lat="40.241450" lon="-4.890767">
        <ele>1690.0</ele>
        <time>2013-06-30T12:18:20Z</time>
      </trkpt>
      <trkpt lat="40.241483" lon="-4.890700">
        <ele>1691.0</ele>
        <time>2013-06-30T12:18:21Z</time>
      </trkpt>
      <trkpt lat="40.241500" lon="-4.890600">
        <ele>1692.0</ele>
        <time>2013-06-30T12:18:22Z</time>
      </trkpt>
      <trkpt lat="40.241500" lon="-4.890500">
        <ele>1694.0</ele>
        <time>2013-06-30T12:18:23Z</time>
      </trkpt>
      <trkpt lat="40.241500" lon="-4.890417">
        <ele>1697.0</ele>
        <time>2013-06-30T12:18:24Z</time>
      </trkpt>
      <trkpt lat="40.241467" lon="-4.890350">
        <ele>1699.0</ele>
        <time>2013-06-30T12:18:25Z</time>
      </trkpt>
      <trkpt lat="40.241433" lon="-4.890267">
        <ele>1701.0</ele>
        <time>2013-06-30T12:18:26Z</time>
      </trkpt>
      <trkpt lat="40.241400" lon="-4.890183">
        <ele>1702.0</ele>
        <time>2013-06-30T12:18:27Z</time>
      </trkpt>
      <trkpt lat="40.241367" lon="-4.890117">
        <ele>1703.0</ele>
        <time>2013-06-30T12:18:28Z</time>
      </trkpt>
      <trkpt lat="40.241283" lon="-4.890067">
        <ele>1703.0</ele>
        <time>2013-06-30T12:18:29Z</time>
      </trkpt>
      <trkpt lat="40.241200" lon="-4.890033">
        <ele>1702.0</ele>
        <time>2013-06-30T12:18:30Z</time>
      </trkpt>
      <trkpt lat="40.241100" lon="-4.890033">
        <ele>1703.0</ele>
        <time>2013-06-30T12:18:31Z</time>
      </trkpt>
      <trkpt lat="40.241017" lon="-4.890083">
        <ele>1704.0</ele>
        <time>2013-06-30T12:18:32Z</time>
      </trkpt>
      <trkpt lat="40.240933" lon="-4.890150">
        <ele>1704.0</ele>
        <time>2013-06-30T12:18:33Z</time>
      </trkpt>
      <trkpt lat="40.240883" lon="-4.890233">
        <ele>1705.0</ele>
        <time>2013-06-30T12:18:34Z</time>
      </trkpt>
      <trkpt lat="40.240850" lon="-4.890317">
        <ele>1705.0</ele>
        <time>2013-06-30T12:18:35Z</time>
      </trkpt>
      <trkpt lat="40.240817" lon="-4.890417">
        <ele>1705.0</ele>
        <time>2013-06-30T12:18:36Z</time>
      </trkpt>
      <trkpt lat="40.240767" lon="-4.890517">
        <ele>1704.0</ele>
        <time>2013-06-30T12:18:37Z</time>
      </trkpt>
      <trkpt lat="40.240733" lon="-4.890617">
        <ele>1704.0</ele>
        <time>2013-06-30T12:18:38Z</time>
      </trkpt>
      <trkpt lat="40.240700" lon="-4.890733">
        <ele>1703.0</ele>
        <time>2013-06-30T12:18:39Z</time>
      </trkpt>
      <trkpt lat="40.240667" lon="-4.890867">
        <ele>1703.0</ele>
        <time>2013-06-30T12:18:40Z</time>
      </trkpt>
      <trkpt lat="40.240633" lon="-4.890983">
        <ele>1704.0</ele>
        <time>2013-06-30T12:18:41Z</time>
      </trkpt>
      <trkpt lat="40.240617" lon="-4.891117">
        <ele>1705.0</ele>
        <time>2013-06-30T12:18:42Z</time>
      </trkpt>
      <trkpt lat="40.240617" lon="-4.891233">
        <ele>1706.0</ele>
        <time>2013-06-30T12:18:43Z</time>
      </trkpt>
      <trkpt lat="40.240600" lon="-4.891350">
        <ele>1707.0</ele>
        <time>2013-06-30T12:18:44Z</time>
      </trkpt>
      <trkpt lat="40.240600" lon="-4.891467">
        <ele>1708.0</ele>
        <time>2013-06-30T12:18:45Z</time>
      </trkpt>
      <trkpt lat="40.240600" lon="-4.891567">
        <ele>1710.0</ele>
        <time>2013-06-30T12:18:46Z</time>
      </trkpt>
      <trkpt lat="40.240617" lon="-4.891667">
        <ele>1711.0</ele>
        <time>2013-06-30T12:18:47Z</time>
      </trkpt>
      <trkpt lat="40.240617" lon="-4.891767">
        <ele>1713.0</ele>
        <time>2013-06-30T12:18:48Z</time>
      </trkpt>
      <trkpt lat="40.240633" lon="-4.891867">
        <ele>1715.0</ele>
        <time>2013-06-30T12:18:49Z</time>
      </trkpt>
      <trkpt lat="40.240650" lon="-4.891950">
        <ele>1716.0</ele>
        <time>2013-06-30T12:18:50Z</time>
      </trkpt>
      <trkpt lat="40.240683" lon="-4.892033">
        <ele>1717.0</ele>
        <time>2013-06-30T12:18:51Z</time>
      </trkpt>
      <trkpt lat="40.240717" lon="-4.892100">
        <ele>1718.0</ele>
        <time>2013-06-30T12:18:52Z</time>
      </trkpt>
      <trkpt lat="40.240767" lon="-4.892133">
        <ele>1719.0</ele>
        <time>2013-06-30T12:18:53Z</time>
      </trkpt>
      <trkpt lat="40.240800" lon="-4.892150">
        <ele>1720.0</ele>
        <time>2013-06-30T12:18:54Z</time>
      </trkpt>
      <trkpt lat="40.240833" lon="-4.892150">
        <ele>1720.0</ele>
        <time>2013-06-30T12:18:55Z</time>
      </trkpt>
      <trkpt lat="40.240883" lon="-4.892133">
        <ele>1721.0</ele>
        <time>2013-06-30T12:18:56Z</time>
      </trkpt>
      <trkpt lat="40.240933" lon="-4.892100">
        <ele>1721.0</ele>
        <time>2013-06-30T12:18:57Z</time>
      </trkpt>
      <trkpt lat="40.240967" lon="-4.892067">
        <ele>1722.0</ele>
        <time>2013-06-30T12:18:58Z</time>
      </trkpt>
      <trkpt lat="40.241000" lon="-4.892017">
        <ele>1722.0</ele>
        <time>2013-06-30T12:18:59Z</time>
      </trkpt>
      <trkpt lat="40.241033" lon="-4.891950">
        <ele>1722.0</ele>
        <time>2013-06-30T12:19:00Z</time>
      </trkpt>
      <trkpt lat="40.241050" lon="-4.891883">
        <ele>1722.0</ele>
        <time>2013-06-30T12:19:01Z</time>
      </trkpt>
      <trkpt lat="40.241083" lon="-4.891833">
        <ele>1720.0</ele>
        <time>2013-06-30T12:19:02Z</time>
      </trkpt>
      <trkpt lat="40.241117" lon="-4.891750">
        <ele>1720.0</ele>
        <time>2013-06-30T12:19:03Z</time>
      </trkpt>
      <trkpt lat="40.241150" lon="-4.891683">
        <ele>1720.0</ele>
        <time>2013-06-30T12:19:04Z</time>
      </trkpt>
      <trkpt lat="40.241183" lon="-4.891600">
        <ele>1721.0</ele>
        <time>2013-06-30T12:19:05Z</time>
      </trkpt>
      <trkpt lat="40.241200" lon="-4.891533">
        <ele>1721.0</ele>
        <time>2013-06-30T12:19:06Z</time>
      </trkpt>
      <trkpt lat="40.241233" lon="-4.891483">
        <ele>1721.0</ele>
        <time>2013-06-30T12:19:07Z</time>
      </trkpt>
      <trkpt lat="40.241267" lon="-4.891400">
        <ele>1720.0</ele>
        <time>2013-06-30T12:19:08Z</time>
      </trkpt>
      <trkpt lat="40.241300" lon="-4.891317">
        <ele>1719.0</ele>
        <time>2013-06-30T12:19:09Z</time>
      </trkpt>
      <trkpt lat="40.241350" lon="-4.891233">
        <ele>1719.0</ele>
        <time>2013-06-30T12:19:10Z</time>
      </trkpt>
      <trkpt lat="40.241367" lon="-4.891133">
        <ele>1720.0</ele>
        <time>2013-06-30T12:19:11Z</time>
      </trkpt>
      <trkpt lat="40.241383" lon="-4.891050">
        <ele>1720.0</ele>
        <time>2013-06-30T12:19:12Z</time>
      </trkpt>
      <trkpt lat="40.241383" lon="-4.890967">
        <ele>1721.0</ele>
        <time>2013-06-30T12:19:13Z</time>
      </trkpt>
      <trkpt lat="40.241400" lon="-4.890883">
        <ele>1722.0</ele>
        <time>2013-06-30T12:19:14Z</time>
      </trkpt>
      <trkpt lat="40.241400" lon="-4.890800">
        <ele>1723.0</ele>
        <time>2013-06-30T12:19:15Z</time>
      </trkpt>
      <trkpt lat="40.241417" lon="-4.890717">
        <ele>1724.0</ele>
        <time>2013-06-30T12:19:16Z</time>
      </trkpt>
      <trkpt lat="40.241417" lon="-4.890633">
        <ele>1724.0</ele>
        <time>2013-06-30T12:19:17Z</time>
      </trkpt>
      <trkpt lat="40.241433" lon="-4.890550">
        <ele>1726.0</ele>
        <time>2013-06-30T12:19:18Z</time>
      </trkpt>
      <trkpt lat="40.241450" lon="-4.890483">
        <ele>1727.0</ele>
        <time>2013-06-30T12:19:19Z</time>
      </trkpt>
      <trkpt lat="40.241450" lon="-4.890433">
        <ele>1729.0</ele>
        <time>2013-06-30T12:19:20Z</time>
      </trkpt>
      <trkpt lat="40.241450" lon="-4.890383">
        <ele>1729.0</ele>
        <time>2013-06-30T12:19:21Z</time>
      </trkpt>
      <trkpt lat="40.241450" lon="-4.890317">
        <ele>1728.0</ele>
        <time>2013-06-30T12:19:22Z</time>
      </trkpt>
      <trkpt lat="40.241450" lon="-4.890233">
        <ele>1727.0</ele>
        <time>2013-06-30T12:19:23Z</time>
      </trkpt>
      <trkpt lat="40.241450" lon="-4.890150">
        <ele>1727.0</ele>
        <time>2013-06-30T12:19:24Z</time>
      </trkpt>
      <trkpt lat="40.241400" lon="-4.890067">
        <ele>1726.0</ele>
        <time>2013-06-30T12:19:25Z</time>
      </trkpt>
      <trkpt lat="40.241317" lon="-4.890017">
        <ele>1725.0</ele>
        <time>2013-06-30T12:19:26Z</time>
      </trkpt>
      <trkpt lat="40.241217" lon="-4.890017">
        <ele>1724.0</ele>
        <time>2013-06-30T12:19:27Z</time>
      </trkpt>
      <trkpt lat="40.241133" lon="-4.890033">
        <ele>1723.0</ele>
        <time>2013-06-30T12:19:28Z</time>
      </trkpt>
      <trkpt lat="40.241050" lon="-4.890083">
        <ele>1723.0</ele>
        <time>2013-06-30T12:19:29Z</time>
      </trkpt>
      <trkpt lat="40.240983" lon="-4.890167">
        <ele>1721.0</ele>
        <time>2013-06-30T12:19:30Z</time>
      </trkpt>
      <trkpt lat="40.240933" lon="-4.890267">
        <ele>1720.0</ele>
        <time>2013-06-30T12:19:31Z</time>
      </trkpt>
      <trkpt lat="40.240900" lon="-4.890383">
        <ele>1718.0</ele>
        <time>2013-06-30T12:19:32Z</time>
      </trkpt>
      <trkpt lat="40.240883" lon="-4.890517">
        <ele>1716.0</ele>
        <time>2013-06-30T12:19:33Z</time>
      </trkpt>
      <trkpt lat="40.240883" lon="-4.890650">
        <ele>1716.0</ele>
        <time>2013-06-30T12:19:34Z</time>
      </trkpt>
      <trkpt lat="40.240900" lon="-4.890783">
        <ele>1716.0</ele>
        <time>2013-06-30T12:19:35Z</time>
      </trkpt>
      <trkpt lat="40.240917" lon="-4.890900">
        <ele>1717.0</ele>
        <time>2013-06-30T12:19:36Z</time>
      </trkpt>
      <trkpt lat="40.240917" lon="-4.891000">
        <ele>1718.0</ele>
        <time>2013-06-30T12:19:37Z</time>
      </trkpt>
      <trkpt lat="40.240933" lon="-4.891117">
        <ele>1719.0</ele>
        <time>2013-06-30T12:19:38Z</time>
      </trkpt>
      <trkpt lat="40.240933" lon="-4.891233">
        <ele>1720.0</ele>
        <time>2013-06-30T12:19:39Z</time>
      </trkpt>
      <trkpt lat="40.240933" lon="-4.891333">
        <ele>1721.0</ele>
        <time>2013-06-30T12:19:40Z</time>
      </trkpt>
      <trkpt lat="40.240917" lon="-4.891417">
        <ele>1723.0</ele>
        <time>2013-06-30T12:19:41Z</time>
      </trkpt>
      <trkpt lat="40.240917" lon="-4.891500">
        <ele>1723.0</ele>
        <time>2013-06-30T12:19:42Z</time>
      </trkpt>
      <trkpt lat="40.240917" lon="-4.891600">
        <ele>1723.0</ele>
        <time>2013-06-30T12:19:43Z</time>
      </trkpt>
      <trkpt lat="40.240917" lon="-4.891700">
        <ele>1722.0</ele>
        <time>2013-06-30T12:19:44Z</time>
      </trkpt>
      <trkpt lat="40.240917" lon="-4.891817">
        <ele>1722.0</ele>
        <time>2013-06-30T12:19:45Z</time>
      </trkpt>
      <trkpt lat="40.240933" lon="-4.891933">
        <ele>1722.0</ele>
        <time>2013-06-30T12:19:46Z</time>
      </trkpt>
      <trkpt lat="40.240933" lon="-4.892033">
        <ele>1723.0</ele>
        <time>2013-06-30T12:19:47Z</time>
      </trkpt>
      <trkpt lat="40.240933" lon="-4.892133">
        <ele>1724.0</ele>
        <time>2013-06-30T12:19:48Z</time>
      </trkpt>
      <trkpt lat="40.240933" lon="-4.892217">
        <ele>1724.0</ele>
        <time>2013-06-30T12:19:49Z</time>
      </trkpt>
      <trkpt lat="40.240933" lon="-4.892317">
        <ele>1723.0</ele>
        <time>2013-06-30T12:19:50Z</time>
      </trkpt>
      <trkpt lat="40.240933" lon="-4.892417">
        <ele>1723.0</ele>
        <time>2013-06-30T12:19:51Z</time>
      </trkpt>
      <trkpt lat="40.240950" lon="-4.892533">
        <ele>1722.0</ele>
        <time>2013-06-30T12:19:52Z</time>
      </trkpt>
      <trkpt lat="40.240967" lon="-4.892633">
        <ele>1722.0</ele>
        <time>2013-06-30T12:19:53Z</time>
      </trkpt>
      <trkpt lat="40.240967" lon="-4.892750">
        <ele>1723.0</ele>
        <time>2013-06-30T12:19:54Z</time>
      </trkpt>
      <trkpt lat="40.240983" lon="-4.892850">
        <ele>1723.0</ele>
        <time>2013-06-30T12:19:55Z</time>
      </trkpt>
      <trkpt lat="40.240983" lon="-4.892950">
        <ele>1723.0</ele>
        <time>2013-06-30T12:19:56Z</time>
      </trkpt>
      <trkpt lat="40.241000" lon="-4.893033">
        <ele>1723.0</ele>
        <time>2013-06-30T12:19:57Z</time>
      </trkpt>
      <trkpt lat="40.241017" lon="-4.893133">
        <ele>1723.0</ele>
        <time>2013-06-30T12:19:58Z</time>
      </trkpt>
      <trkpt lat="40.241033" lon="-4.893250">
        <ele>1723.0</ele>
        <time>2013-06-30T12:19:59Z</time>
      </trkpt>
      <trkpt lat="40.241050" lon="-4.893367">
        <ele>1723.0</ele>
        <time>2013-06-30T12:20:00Z</time>
      </trkpt>
      <trkpt lat="40.241050" lon="-4.893483">
        <ele>1723.0</ele>
        <time>2013-06-30T12:20:01Z</time>
      </trkpt>
      <trkpt lat="40.241083" lon="-4.893600">
        <ele>1722.0</ele>
        <time>2013-06-30T12:20:02Z</time>
      </trkpt>
      <trkpt lat="40.241117" lon="-4.893717">
        <ele>1721.0</ele>
        <time>2013-06-30T12:20:03Z</time>
      </trkpt>
      <trkpt lat="40.241150" lon="-4.893833">
        <ele>1720.0</ele>
        <time>2013-06-30T12:20:04Z</time>
      </trkpt>
      <trkpt lat="40.241200" lon="-4.893933">
        <ele>1720.0</ele>
        <time>2013-06-30T12:20:05Z</time>
      </trkpt>
      <trkpt lat="40.241233" lon="-4.894067">
        <ele>1721.0</ele>
        <time>2013-06-30T12:20:06Z</time>
      </trkpt>
      <trkpt lat="40.241283" lon="-4.894183">
        <ele>1722.0</ele>
        <time>2013-06-30T12:20:07Z</time>
      </trkpt>
      <trkpt lat="40.241317" lon="-4.894267">
        <ele>1724.0</ele>
        <time>2013-06-30T12:20:08Z</time>
      </trkpt>
      <trkpt lat="40.241367" lon="-4.894367">
        <ele>1724.0</ele>
        <time>2013-06-30T12:20:09Z</time>
      </trkpt>
      <trkpt lat="40.241400" lon="-4.894467">
        <ele>1724.0</ele>
        <time>2013-06-30T12:20:10Z</time>
      </trkpt>
      <trkpt lat="40.241450" lon="-4.894583">
        <ele>1723.0</ele>
        <time>2013-06-30T12:20:11Z</time>
      </trkpt>
      <trkpt lat="40.241517" lon="-4.894700">
        <ele>1722.0</ele>
        <time>2013-06-30T12:20:12Z</time>
      </trkpt>
      <trkpt lat="40.241567" lon="-4.894817">
        <ele>1722.0</ele>
        <time>2013-06-30T12:20:13Z</time>
      </trkpt>
      <trkpt lat="40.241633" lon="-4.894917">
        <ele>1724.0</ele>
        <time>2013-06-30T12:20:14Z</time>
      </trkpt>
      <trkpt lat="40.241683" lon="-4.895033">
        <ele>1725.0</ele>
        <time>2013-06-30T12:20:15Z</time>
      </trkpt>
      <trkpt lat="40.241750" lon="-4.895150">
        <ele>1727.0</ele>
        <time>2013-06-30T12:20:16Z</time>
      </trkpt>
      <trkpt lat="40.241783" lon="-4.895250">
        <ele>1730.0</ele>
        <time>2013-06-30T12:20:17Z</time>
      </trkpt>
      <trkpt lat="40.241817" lon="-4.895333">
        <ele>1732.0</ele>
        <time>2013-06-30T12:20:18Z</time>
      </trkpt>
      <trkpt lat="40.241833" lon="-4.895433">
        <ele>1733.0</ele>
        <time>2013-06-30T12:20:19Z</time>
      </trkpt>
      <trkpt lat="40.241850" lon="-4.895550">
        <ele>1733.0</ele>
        <time>2013-06-30T12:20:20Z</time>
      </trkpt>
      <trkpt lat="40.241900" lon="-4.895650">
        <ele>1733.0</ele>
        <time>2013-06-30T12:20:21Z</time>
      </trkpt>
      <trkpt lat="40.241967" lon="-4.895717">
        <ele>1733.0</ele>
        <time>2013-06-30T12:20:22Z</time>
      </trkpt>
      <trkpt lat="40.242033" lon="-4.895733">
        <ele>1734.0</ele>
        <time>2013-06-30T12:20:23Z</time>
      </trkpt>
      <trkpt lat="40.242083" lon="-4.895717">
        <ele>1735.0</ele>
        <time>2013-06-30T12:20:24Z</time>
      </trkpt>
      <trkpt lat="40.242117" lon="-4.895683">
        <ele>1735.0</ele>
        <time>2013-06-30T12:20:25Z</time>
      </trkpt>
      <trkpt lat="40.242133" lon="-4.895633">
        <ele>1737.0</ele>
        <time>2013-06-30T12:20:26Z</time>
      </trkpt>
      <trkpt lat="40.242133" lon="-4.895567">
        <ele>1737.0</ele>
        <time>2013-06-30T12:20:27Z</time>
      </trkpt>
      <trkpt lat="40.242100" lon="-4.895483">
        <ele>1738.0</ele>
        <time>2013-06-30T12:20:28Z</time>
      </trkpt>
      <trkpt lat="40.242050" lon="-4.895400">
        <ele>1739.0</ele>
        <time>2013-06-30T12:20:29Z</time>
      </trkpt>
      <trkpt lat="40.241967" lon="-4.895350">
        <ele>1742.0</ele>
        <time>2013-06-30T12:20:30Z</time>
      </trkpt>
      <trkpt lat="40.241900" lon="-4.895317">
        <ele>1744.0</ele>
        <time>2013-06-30T12:20:31Z</time>
      </trkpt>
      <trkpt lat="40.241817" lon="-4.895317">
        <ele>1746.0</ele>
        <time>2013-06-30T12:20:32Z</time>
      </trkpt>
      <trkpt lat="40.241733" lon="-4.895317">
        <ele>1748.0</ele>
        <time>2013-06-30T12:20:33Z</time>
      </trkpt>
      <trkpt lat="40.241650" lon="-4.895333">
        <ele>1749.0</ele>
        <time>2013-06-30T12:20:34Z</time>
      </trkpt>
      <trkpt lat="40.241567" lon="-4.895350">
        <ele>1750.0</ele>
        <time>2013-06-30T12:20:35Z</time>
      </trkpt>
      <trkpt lat="40.241483" lon="-4.895400">
        <ele>1751.0</ele>
        <time>2013-06-30T12:20:36Z</time>
      </trkpt>
      <trkpt lat="40.241400" lon="-4.895467">
        <ele>1752.0</ele>
        <time>2013-06-30T12:20:37Z</time>
      </trkpt>
      <trkpt lat="40.241333" lon="-4.895567">
        <ele>1753.0</ele>
        <time>2013-06-30T12:20:38Z</time>
      </trkpt>
      <trkpt lat="40.241283" lon="-4.895667">
        <ele>1754.0</ele>
        <time>2013-06-30T12:20:39Z</time>
      </trkpt>
      <trkpt lat="40.241250" lon="-4.895783">
        <ele>1755.0</ele>
        <time>2013-06-30T12:20:40Z</time>
      </trkpt>
      <trkpt lat="40.241217" lon="-4.895900">
        <ele>1755.0</ele>
        <time>2013-06-30T12:20:41Z</time>
      </trkpt>
      <trkpt lat="40.241183" lon="-4.896017">
        <ele>1755.0</ele>
        <time>2013-06-30T12:20:42Z</time>
      </trkpt>
      <trkpt lat="40.241183" lon="-4.896150">
        <ele>1755.0</ele>
        <time>2013-06-30T12:20:43Z</time>
      </trkpt>
      <trkpt lat="40.241183" lon="-4.896283">
        <ele>1756.0</ele>
        <time>2013-06-30T12:20:44Z</time>
      </trkpt>
      <trkpt lat="40.241217" lon="-4.896400">
        <ele>1756.0</ele>
        <time>2013-06-30T12:20:45Z</time>
      </trkpt>
      <trkpt lat="40.241250" lon="-4.896500">
        <ele>1757.0</ele>
        <time>2013-06-30T12:20:46Z</time>
      </trkpt>
      <trkpt lat="40.241300" lon="-4.896583">
        <ele>1758.0</ele>
        <time>2013-06-30T12:20:47Z</time>
      </trkpt>
      <trkpt lat="40.241367" lon="-4.896633">
        <ele>1759.0</ele>
        <time>2013-06-30T12:20:48Z</time>
      </trkpt>
      <trkpt lat="40.241417" lon="-4.896667">
        <ele>1759.0</ele>
        <time>2013-06-30T12:20:49Z</time>
      </trkpt>
      <trkpt lat="40.241467" lon="-4.896683">
        <ele>1760.0</ele>
        <time>2013-06-30T12:20:50Z</time>
      </trkpt>
      <trkpt lat="40.241517" lon="-4.896683">
        <ele>1760.0</ele>
        <time>2013-06-30T12:20:51Z</time>
      </trkpt>
      <trkpt lat="40.241567" lon="-4.896667">
        <ele>1761.0</ele>
        <time>2013-06-30T12:20:52Z</time>
      </trkpt>
      <trkpt lat="40.241583" lon="-4.896617">
        <ele>1762.0</ele>
        <time>2013-06-30T12:20:53Z</time>
      </trkpt>
      <trkpt lat="40.241600" lon="-4.896583">
        <ele>1762.0</ele>
        <time>2013-06-30T12:20:54Z</time>
      </trkpt>
      <trkpt lat="40.241600" lon="-4.896517">
        <ele>1762.0</ele>
        <time>2013-06-30T12:20:55Z</time>
      </trkpt>
      <trkpt lat="40.241583" lon="-4.896433">
        <ele>1761.0</ele>
        <time>2013-06-30T12:20:56Z</time>
      </trkpt>
      <trkpt lat="40.241550" lon="-4.896350">
        <ele>1761.0</ele>
        <time>2013-06-30T12:20:57Z</time>
      </trkpt>
      <trkpt lat="40.241500" lon="-4.896267">
        <ele>1762.0</ele>
        <time>2013-06-30T12:20:58Z</time>
      </trkpt>
      <trkpt lat="40.241433" lon="-4.896200">
        <ele>1763.0</ele>
        <time>2013-06-30T12:20:59Z</time>
      </trkpt>
      <trkpt lat="40.241350" lon="-4.896183">
        <ele>1764.0</ele>
        <time>2013-06-30T12:21:00Z</time>
      </trkpt>
      <trkpt lat="40.241250" lon="-4.896183">
        <ele>1765.0</ele>
        <time>2013-06-30T12:21:01Z</time>
      </trkpt>
      <trkpt lat="40.241167" lon="-4.896200">
        <ele>1767.0</ele>
        <time>2013-06-30T12:21:02Z</time>
      </trkpt>
      <trkpt lat="40.241100" lon="-4.896233">
        <ele>1768.0</ele>
        <time>2013-06-30T12:21:03Z</time>
      </trkpt>
      <trkpt lat="40.241017" lon="-4.896250">
        <ele>1768.0</ele>
        <time>2013-06-30T12:21:04Z</time>
      </trkpt>
      <trkpt lat="40.240933" lon="-4.896283">
        <ele>1769.0</ele>
        <time>2013-06-30T12:21:05Z</time>
      </trkpt>
      <trkpt lat="40.240867" lon="-4.896350">
        <ele>1769.0</ele>
        <time>2013-06-30T12:21:06Z</time>
      </trkpt>
      <trkpt lat="40.240783" lon="-4.896417">
        <ele>1769.0</ele>
        <time>2013-06-30T12:21:07Z</time>
      </trkpt>
      <trkpt lat="40.240717" lon="-4.896517">
        <ele>1769.0</ele>
        <time>2013-06-30T12:21:08Z</time>
      </trkpt>
      <trkpt lat="40.240667" lon="-4.896633">
        <ele>1769.0</ele>
        <time>2013-06-30T12:21:09Z</time>
      </trkpt>
      <trkpt lat="40.240633" lon="-4.896767">
        <ele>1770.0</ele>
        <time>2013-06-30T12:21:10Z</time>
      </trkpt>
      <trkpt lat="40.240617" lon="-4.896900">
        <ele>1771.0</ele>
        <time>2013-06-30T12:21:11Z</time>
      </trkpt>
      <trkpt lat="40.240600" lon="-4.897017">
        <ele>1772.0</ele>
        <time>2013-06-30T12:21:12Z</time>
      </trkpt>
      <trkpt lat="40.240600" lon="-4.897117">
        <ele>1773.0</ele>
        <time>2013-06-30T12:21:13Z</time>
      </trkpt>
      <trkpt lat="40.240600" lon="-4.897217">
        <ele>1773.0</ele>
        <time>2013-06-30T12:21:14Z</time>
      </trkpt>
      <trkpt lat="40.240600" lon="-4.897333">
        <ele>1771.0</ele>
        <time>2013-06-30T12:21:15Z</time>
      </trkpt>
      <trkpt lat="40.240600" lon="-4.897467">
        <ele>1769.0</ele>
        <time>2013-06-30T12:21:16Z</time>
      </trkpt>
      <trkpt lat="40.240617" lon="-4.897600">
        <ele>1768.0</ele>
        <time>2013-06-30T12:21:17Z</time>
      </trkpt>
      <trkpt lat="40.240650" lon="-4.897733">
        <ele>1769.0</ele>
        <time>2013-06-30T12:21:18Z</time>
      </trkpt>
      <trkpt lat="40.240683" lon="-4.897833">
        <ele>1770.0</ele>
        <time>2013-06-30T12:21:19Z</time>
      </trkpt>
      <trkpt lat="40.240700" lon="-4.897933">
        <ele>1770.0</ele>
        <time>2013-06-30T12:21:20Z</time>
      </trkpt>
      <trkpt lat="40.240733" lon="-4.898017">
        <ele>1769.0</ele>
        <time>2013-06-30T12:21:21Z</time>
      </trkpt>
      <trkpt lat="40.240767" lon="-4.898117">
        <ele>1768.0</ele>
        <time>2013-06-30T12:21:22Z</time>
      </trkpt>
      <trkpt lat="40.240800" lon="-4.898217">
        <ele>1767.0</ele>
        <time>2013-06-30T12:21:23Z</time>
      </trkpt>
      <trkpt lat="40.240850" lon="-4.898300">
        <ele>1766.0</ele>
        <time>2013-06-30T12:21:24Z</time>
      </trkpt>
      <trkpt lat="40.240900" lon="-4.898367">
        <ele>1766.0</ele>
        <time>2013-06-30T12:21:25Z</time>
      </trkpt>
      <trkpt lat="40.240950" lon="-4.898417">
        <ele>1766.0</ele>
        <time>2013-06-30T12:21:26Z</time>
      </trkpt>
      <trkpt lat="40.241000" lon="-4.898483">
        <ele>1765.0</ele>
        <time>2013-06-30T12:21:27Z</time>
      </trkpt>
      <trkpt lat="40.241050" lon="-4.898550">
        <ele>1764.0</ele>
        <time>2013-06-30T12:21:28Z</time>
      </trkpt>
      <trkpt lat="40.241100" lon="-4.898600">
        <ele>1762.0</ele>
        <time>2013-06-30T12:21:29Z</time>
      </trkpt>
      <trkpt lat="40.241150" lon="-4.898667">
        <ele>1761.0</ele>
        <time>2013-06-30T12:21:30Z</time>
      </trkpt>
      <trkpt lat="40.241217" lon="-4.898733">
        <ele>1760.0</ele>
        <time>2013-06-30T12:21:31Z</time>
      </trkpt>
      <trkpt lat="40.241267" lon="-4.898817">
        <ele>1759.0</ele>
        <time>2013-06-30T12:21:32Z</time>
      </trkpt>
      <trkpt lat="40.241300" lon="-4.898933">
        <ele>1758.0</ele>
        <time>2013-06-30T12:21:33Z</time>
      </trkpt>
      <trkpt lat="40.241350" lon="-4.899050">
        <ele>1756.0</ele>
        <time>2013-06-30T12:21:34Z</time>
      </trkpt>
      <trkpt lat="40.241400" lon="-4.899167">
        <ele>1754.0</ele>
        <time>2013-06-30T12:21:35Z</time>
      </trkpt>
      <trkpt lat="40.241450" lon="-4.899300">
        <ele>1752.0</ele>
        <time>2013-06-30T12:21:36Z</time>
      </trkpt>
      <trkpt lat="40.241517" lon="-4.899417">
        <ele>1751.0</ele>
        <time>2013-06-30T12:21:37Z</time>
      </trkpt>
      <trkpt lat="40.241567" lon="-4.899533">
        <ele>1752.0</ele>
        <time>2013-06-30T12:21:38Z</time>
      </trkpt>
      <trkpt lat="40.241617" lon="-4.899633">
        <ele>1751.0</ele>
        <time>2013-06-30T12:21:39Z</time>
      </trkpt>
      <trkpt lat="40.241667" lon="-4.899750">
        <ele>1750.0</ele>
        <time>2013-06-30T12:21:40Z</time>
      </trkpt>
      <trkpt lat="40.241717" lon="-4.899867">
        <ele>1748.0</ele>
        <time>2013-06-30T12:21:41Z</time>
      </trkpt>
      <trkpt lat="40.241783" lon="-4.899983">
        <ele>1746.0</ele>
        <time>2013-06-30T12:21:42Z</time>
      </trkpt>
      <trkpt lat="40.241850" lon="-4.900100">
        <ele>1745.0</ele>
        <time>2013-06-30T12:21:43Z</time>
      </trkpt>
      <trkpt lat="40.241933" lon="-4.900217">
        <ele>1744.0</ele>
        <time>2013-06-30T12:21:44Z</time>
      </trkpt>
      <trkpt lat="40.242000" lon="-4.900317">
        <ele>1744.0</ele>
        <time>2013-06-30T12:21:45Z</time>
      </trkpt>
      <trkpt lat="40.242067" lon="-4.900417">
        <ele>1745.0</ele>
        <time>2013-06-30T12:21:46Z</time>
      </trkpt>
      <trkpt lat="40.242133" lon="-4.900517">
        <ele>1746.0</ele>
        <time>2013-06-30T12:21:47Z</time>
      </trkpt>
      <trkpt lat="40.242200" lon="-4.900600">
        <ele>1746.0</ele>
        <time>2013-06-30T12:21:48Z</time>
      </trkpt>
      <trkpt lat="40.242267" lon="-4.900700">
        <ele>1748.0</ele>
        <time>2013-06-30T12:21:49Z</time>
      </trkpt>
      <trkpt lat="40.242333" lon="-4.900783">
        <ele>1751.0</ele>
        <time>2013-06-30T12:21:50Z</time>
      </trkpt>
      <trkpt lat="40.242383" lon="-4.900867">
        <ele>1754.0</ele>
        <time>2013-06-30T12:21:51Z</time>
      </trkpt>
      <trkpt lat="40.242417" lon="-4.900950">
        <ele>1756.0</ele>
        <time>2013-06-30T12:21:52Z</time>
      </trkpt>
      <trkpt lat="40.242450" lon="-4.901017">
        <ele>1758.0</ele>
        <time>2013-06-30T12:21:53Z</time>
      </trkpt>
      <trkpt lat="40.242483" lon="-4.901100">
        <ele>1759.0</ele>
        <time>2013-06-30T12:21:54Z</time>
      </trkpt>
      <trkpt lat="40.242533" lon="-4.901183">
        <ele>1760.0</ele>
        <time>2013-06-30T12:21:55Z</time>
      </trkpt>
      <trkpt lat="40.242600" lon="-4.901250">
        <ele>1763.0</ele>
        <time>2013-06-30T12:21:56Z</time>
      </trkpt>
      <trkpt lat="40.242667" lon="-4.901267">
        <ele>1767.0</ele>
        <time>2013-06-30T12:21:57Z</time>
      </trkpt>
      <trkpt lat="40.242733" lon="-4.901267">
        <ele>1770.0</ele>
        <time>2013-06-30T12:21:58Z</time>
      </trkpt>
      <trkpt lat="40.242783" lon="-4.901250">
        <ele>1775.0</ele>
        <time>2013-06-30T12:21:59Z</time>
      </trkpt>
      <trkpt lat="40.242817" lon="-4.901233">
        <ele>1779.0</ele>
        <time>2013-06-30T12:22:00Z</time>
      </trkpt>
      <trkpt lat="40.242850" lon="-4.901217">
        <ele>1782.0</ele>
        <time>2013-06-30T12:22:01Z</time>
      </trkpt>
      <trkpt lat="40.242867" lon="-4.901183">
        <ele>1785.0</ele>
        <time>2013-06-30T12:22:02Z</time>
      </trkpt>
      <trkpt lat="40.242883" lon="-4.901133">
        <ele>1787.0</ele>
        <time>2013-06-30T12:22:03Z</time>
      </trkpt>
      <trkpt lat="40.242867" lon="-4.901033">
        <ele>1790.0</ele>
        <time>2013-06-30T12:22:04Z</time>
      </trkpt>
      <trkpt lat="40.242817" lon="-4.900933">
        <ele>1794.0</ele>
        <time>2013-06-30T12:22:05Z</time>
      </trkpt>
      <trkpt lat="40.242733" lon="-4.900900">
        <ele>1796.0</ele>
        <time>2013-06-30T12:22:06Z</time>
      </trkpt>
      <trkpt lat="40.242633" lon="-4.900950">
        <ele>1799.0</ele>
        <time>2013-06-30T12:22:07Z</time>
      </trkpt>
      <trkpt lat="40.242550" lon="-4.901033">
        <ele>1801.0</ele>
        <time>2013-06-30T12:22:08Z</time>
      </trkpt>
      <trkpt lat="40.242483" lon="-4.901117">
        <ele>1806.0</ele>
        <time>2013-06-30T12:22:09Z</time>
      </trkpt>
      <trkpt lat="40.242450" lon="-4.901217">
        <ele>1809.0</ele>
        <time>2013-06-30T12:22:10Z</time>
      </trkpt>
      <trkpt lat="40.242433" lon="-4.901300">
        <ele>1812.0</ele>
        <time>2013-06-30T12:22:11Z</time>
      </trkpt>
      <trkpt lat="40.242417" lon="-4.901417">
        <ele>1814.0</ele>
        <time>2013-06-30T12:22:12Z</time>
      </trkpt>
      <trkpt lat="40.242400" lon="-4.901517">
        <ele>1817.0</ele>
        <time>2013-06-30T12:22:13Z</time>
      </trkpt>
      <trkpt lat="40.242417" lon="-4.901633">
        <ele>1819.0</ele>
        <time>2013-06-30T12:22:14Z</time>
      </trkpt>
      <trkpt lat="40.242433" lon="-4.901717">
        <ele>1822.0</ele>
        <time>2013-06-30T12:22:15Z</time>
      </trkpt>
      <trkpt lat="40.242483" lon="-4.901800">
        <ele>1824.0</ele>
        <time>2013-06-30T12:22:16Z</time>
      </trkpt>
      <trkpt lat="40.242533" lon="-4.901867">
        <ele>1828.0</ele>
        <time>2013-06-30T12:22:17Z</time>
      </trkpt>
      <trkpt lat="40.242600" lon="-4.901883">
        <ele>1831.0</ele>
        <time>2013-06-30T12:22:18Z</time>
      </trkpt>
      <trkpt lat="40.242667" lon="-4.901867">
        <ele>1834.0</ele>
        <time>2013-06-30T12:22:19Z</time>
      </trkpt>
      <trkpt lat="40.242717" lon="-4.901833">
        <ele>1838.0</ele>
        <time>2013-06-30T12:22:20Z</time>
      </trkpt>
      <trkpt lat="40.242750" lon="-4.901783">
        <ele>1842.0</ele>
        <time>2013-06-30T12:22:21Z</time>
      </trkpt>
      <trkpt lat="40.242783" lon="-4.901733">
        <ele>1846.0</ele>
        <time>2013-06-30T12:22:22Z</time>
      </trkpt>
      <trkpt lat="40.242783" lon="-4.901683">
        <ele>1850.0</ele>
        <time>2013-06-30T12:22:23Z</time>
      </trkpt>
      <trkpt lat="40.242783" lon="-4.901617">
        <ele>1854.0</ele>
        <time>2013-06-30T12:22:24Z</time>
      </trkpt>
      <trkpt lat="40.242767" lon="-4.901550">
        <ele>1858.0</ele>
        <time>2013-06-30T12:22:25Z</time>
      </trkpt>
      <trkpt lat="40.242750" lon="-4.901483">
        <ele>1862.0</ele>
        <time>2013-06-30T12:22:26Z</time>
      </trkpt>
      <trkpt lat="40.242700" lon="-4.901417">
        <ele>1866.0</ele>
        <time>2013-06-30T12:22:27Z</time>
      </trkpt>
      <trkpt lat="40.242650" lon="-4.901367">
        <ele>1869.0</ele>
        <time>2013-06-30T12:22:28Z</time>
      </trkpt>
      <trkpt lat="40.242567" lon="-4.901350">
        <ele>1873.0</ele>
        <time>2013-06-30T12:22:29Z</time>
      </trkpt>
      <trkpt lat="40.242483" lon="-4.901367">
        <ele>1875.0</ele>
        <time>2013-06-30T12:22:30Z</time>
      </trkpt>
      <trkpt lat="40.242400" lon="-4.901400">
        <ele>1876.0</ele>
        <time>2013-06-30T12:22:31Z</time>
      </trkpt>
      <trkpt lat="40.242317" lon="-4.901467">
        <ele>1878.0</ele>
        <time>2013-06-30T12:22:32Z</time>
      </trkpt>
      <trkpt lat="40.242250" lon="-4.901550">
        <ele>1880.0</ele>
        <time>2013-06-30T12:22:33Z</time>
      </trkpt>
      <trkpt lat="40.242217" lon="-4.901667">
        <ele>1882.0</ele>
        <time>2013-06-30T12:22:34Z</time>
      </trkpt>
      <trkpt lat="40.242200" lon="-4.901783">
        <ele>1884.0</ele>
        <time>2013-06-30T12:22:35Z</time>
      </trkpt>
      <trkpt lat="40.242217" lon="-4.901900">
        <ele>1886.0</ele>
        <time>2013-06-30T12:22:36Z</time>
      </trkpt>
      <trkpt lat="40.242233" lon="-4.902000">
        <ele>1889.0</ele>
        <time>2013-06-30T12:22:37Z</time>
      </trkpt>
      <trkpt lat="40.242250" lon="-4.902083">
        <ele>1892.0</ele>
        <time>2013-06-30T12:22:38Z</time>
      </trkpt>
      <trkpt lat="40.242267" lon="-4.902183">
        <ele>1894.0</ele>
        <time>2013-06-30T12:22:39Z</time>
      </trkpt>
      <trkpt lat="40.242283" lon="-4.902267">
        <ele>1897.0</ele>
        <time>2013-06-30T12:22:40Z</time>
      </trkpt>
      <trkpt lat="40.242333" lon="-4.902350">
        <ele>1900.0</ele>
        <time>2013-06-30T12:22:41Z</time>
      </trkpt>
      <trkpt lat="40.242367" lon="-4.902417">
        <ele>1902.0</ele>
        <time>2013-06-30T12:22:42Z</time>
      </trkpt>
      <trkpt lat="40.242433" lon="-4.902467">
        <ele>1905.0</ele>
        <time>2013-06-30T12:22:43Z</time>
      </trkpt>
      <trkpt lat="40.242483" lon="-4.902517">
        <ele>1908.0</ele>
        <time>2013-06-30T12:22:44Z</time>
      </trkpt>
      <trkpt lat="40.242533" lon="-4.902550">
        <ele>1911.0</ele>
        <time>2013-06-30T12:22:45Z</time>
      </trkpt>
      <trkpt lat="40.242617" lon="-4.902583">
        <ele>1914.0</ele>
        <time>2013-06-30T12:22:46Z</time>
      </trkpt>
      <trkpt lat="40.242683" lon="-4.902600">
        <ele>1918.0</ele>
        <time>2013-06-30T12:22:47Z</time>
      </trkpt>
      <trkpt lat="40.242750" lon="-4.902600">
        <ele>1922.0</ele>
        <time>2013-06-30T12:22:48Z</time>
      </trkpt>
      <trkpt lat="40.242800" lon="-4.902567">
        <ele>1925.0</ele>
        <time>2013-06-30T12:22:49Z</time>
      </trkpt>
      <trkpt lat="40.242833" lon="-4.902517">
        <ele>1927.0</ele>
        <time>2013-06-30T12:22:50Z</time>
      </trkpt>
      <trkpt lat="40.242867" lon="-4.902467">
        <ele>1930.0</ele>
        <time>2013-06-30T12:22:51Z</time>
      </trkpt>
      <trkpt lat="40.242883" lon="-4.902400">
        <ele>1932.0</ele>
        <time>2013-06-30T12:22:52Z</time>
      </trkpt>
      <trkpt lat="40.242883" lon="-4.902317">
        <ele>1934.0</ele>
        <time>2013-06-30T12:22:53Z</time>
      </trkpt>
      <trkpt lat="40.242833" lon="-4.902233">
        <ele>1937.0</ele>
        <time>2013-06-30T12:22:54Z</time>
      </trkpt>
      <trkpt lat="40.242767" lon="-4.902183">
        <ele>1941.0</ele>
        <time>2013-06-30T12:22:55Z</time>
      </trkpt>
      <trkpt lat="40.242667" lon="-4.902167">
        <ele>1945.0</ele>
        <time>2013-06-30T12:22:56Z</time>
      </trkpt>
      <trkpt lat="40.242583" lon="-4.902183">
        <ele>1949.0</ele>
        <time>2013-06-30T12:22:57Z</time>
      </trkpt>
      <trkpt lat="40.242500" lon="-4.902233">
        <ele>1954.0</ele>
        <time>2013-06-30T12:22:58Z</time>
      </trkpt>
      <trkpt lat="40.242450" lon="-4.902300">
        <ele>1958.0</ele>
        <time>2013-06-30T12:22:59Z</time>
      </trkpt>
      <trkpt lat="40.242383" lon="-4.902383">
        <ele>1962.0</ele>
        <time>2013-06-30T12:23:00Z</time>
      </trkpt>
      <trkpt lat="40.242350" lon="-4.902467">
        <ele>1965.0</ele>
        <time>2013-06-30T12:23:01Z</time>
      </trkpt>
      <trkpt lat="40.242317" lon="-4.902583">
        <ele>1968.0</ele>
        <time>2013-06-30T12:23:02Z</time>
      </trkpt>
      <trkpt lat="40.242317" lon="-4.902700">
        <ele>1971.0</ele>
        <time>2013-06-30T12:23:03Z</time>
      </trkpt>
      <trkpt lat="40.242333" lon="-4.902817">
        <ele>1974.0</ele>
        <time>2013-06-30T12:23:04Z</time>
      </trkpt>
      <trkpt lat="40.242367" lon="-4.902917">
        <ele>1977.0</ele>
        <time>2013-06-30T12:23:05Z</time>
      </trkpt>
      <trkpt lat="40.242400" lon="-4.902983">
        <ele>1981.0</ele>
        <time>2013-06-30T12:23:06Z</time>
      </trkpt>
      <trkpt lat="40.242450" lon="-4.903033">
        <ele>1985.0</ele>
        <time>2013-06-30T12:23:07Z</time>
      </trkpt>
      <trkpt lat="40.242483" lon="-4.903067">
        <ele>1988.0</ele>
        <time>2013-06-30T12:23:08Z</time>
      </trkpt>
      <trkpt lat="40.242517" lon="-4.903100">
        <ele>1990.0</ele>
        <time>2013-06-30T12:23:09Z</time>
      </trkpt>
      <trkpt lat="40.242583" lon="-4.903133">
        <ele>1991.0</ele>
        <time>2013-06-30T12:23:10Z</time>
      </trkpt>
      <trkpt lat="40.242650" lon="-4.903150">
        <ele>1992.0</ele>
        <time>2013-06-30T12:23:11Z</time>
      </trkpt>
      <trkpt lat="40.242700" lon="-4.903133">
        <ele>1994.0</ele>
        <time>2013-06-30T12:23:12Z</time>
      </trkpt>
      <trkpt lat="40.242733" lon="-4.903117">
        <ele>1997.0</ele>
        <time>2013-06-30T12:23:13Z</time>
      </trkpt>
      <trkpt lat="40.242767" lon="-4.903083">
        <ele>2000.0</ele>
        <time>2013-06-30T12:23:14Z</time>
      </trkpt>
      <trkpt lat="40.242767" lon="-4.903033">
        <ele>2001.0</ele>
        <time>2013-06-30T12:23:15Z</time>
      </trkpt>
      <trkpt lat="40.242800" lon="-4.902983">
        <ele>2003.0</ele>
        <time>2013-06-30T12:23:16Z</time>
      </trkpt>
      <trkpt lat="40.242817" lon="-4.902933">
        <ele>2004.0</ele>
        <time>2013-06-30T12:23:17Z</time>
      </trkpt>
      <trkpt lat="40.242850" lon="-4.902867">
        <ele>2006.0</ele>
        <time>2013-06-30T12:23:18Z</time>
      </trkpt>
      <trkpt lat="40.242850" lon="-4.902783">
        <ele>2007.0</ele>
        <time>2013-06-30T12:23:19Z</time>
      </trkpt>
      <trkpt lat="40.242833" lon="-4.902700">
        <ele>2009.0</ele>
        <time>2013-06-30T12:23:20Z</time>
      </trkpt>
      <trkpt lat="40.242783" lon="-4.902617">
        <ele>2011.0</ele>
        <time>2013-06-30T12:23:21Z</time>
      </trkpt>
      <trkpt lat="40.242717" lon="-4.902583">
        <ele>2013.0</ele>
        <time>2013-06-30T12:23:22Z</time>
      </trkpt>
      <trkpt lat="40.242650" lon="-4.902550">
        <ele>2015.0</ele>
        <time>2013-06-30T12:23:23Z</time>
      </trkpt>
      <trkpt lat="40.242583" lon="-4.902567">
        <ele>2016.0</ele>
        <time>2013-06-30T12:23:24Z</time>
      </trkpt>
      <trkpt lat="40.242517" lon="-4.902567">
        <ele>2016.0</ele>
        <time>2013-06-30T12:23:25Z</time>
      </trkpt>
      <trkpt lat="40.242450" lon="-4.902600">
        <ele>2016.0</ele>
        <time>2013-06-30T12:23:26Z</time>
      </trkpt>
      <trkpt lat="40.242350" lon="-4.902650">
        <ele>2016.0</ele>
        <time>2013-06-30T12:23:27Z</time>
      </trkpt>
      <trkpt lat="40.242267" lon="-4.902733">
        <ele>2017.0</ele>
        <time>2013-06-30T12:23:28Z</time>
      </trkpt>
      <trkpt lat="40.242233" lon="-4.902883">
        <ele>2018.0</ele>
        <time>2013-06-30T12:23:29Z</time>
      </trkpt>
      <trkpt lat="40.242217" lon="-4.903017">
        <ele>2019.0</ele>
        <time>2013-06-30T12:23:30Z</time>
      </trkpt>
      <trkpt lat="40.242250" lon="-4.903150">
        <ele>2021.0</ele>
        <time>2013-06-30T12:23:31Z</time>
      </trkpt>
      <trkpt lat="40.242283" lon="-4.903250">
        <ele>2025.0</ele>
        <time>2013-06-30T12:23:32Z</time>
      </trkpt>
      <trkpt lat="40.242283" lon="-4.903333">
        <ele>2029.0</ele>
        <time>2013-06-30T12:23:33Z</time>
      </trkpt>
      <trkpt lat="40.242283" lon="-4.903417">
        <ele>2032.0</ele>
        <time>2013-06-30T12:23:34Z</time>
      </trkpt>
      <trkpt lat="40.242283" lon="-4.903500">
        <ele>2033.0</ele>
        <time>2013-06-30T12:23:35Z</time>
      </trkpt>
      <trkpt lat="40.242300" lon="-4.903583">
        <ele>2034.0</ele>
        <time>2013-06-30T12:23:36Z</time>
      </trkpt>
      <trkpt lat="40.242333" lon="-4.903683">
        <ele>2034.0</ele>
        <time>2013-06-30T12:23:37Z</time>
      </trkpt>
      <trkpt lat="40.242383" lon="-4.903750">
        <ele>2034.0</ele>
        <time>2013-06-30T12:23:38Z</time>
      </trkpt>
      <trkpt lat="40.242433" lon="-4.903800">
        <ele>2036.0</ele>
        <time>2013-06-30T12:23:39Z</time>
      </trkpt>
      <trkpt lat="40.242500" lon="-4.903800">
        <ele>2037.0</ele>
        <time>2013-06-30T12:23:40Z</time>
      </trkpt>
      <trkpt lat="40.242567" lon="-4.903800">
        <ele>2039.0</ele>
        <time>2013-06-30T12:23:41Z</time>
      </trkpt>
      <trkpt lat="40.242617" lon="-4.903783">
        <ele>2042.0</ele>
        <time>2013-06-30T12:23:42Z</time>
      </trkpt>
      <trkpt lat="40.242683" lon="-4.903750">
        <ele>2046.0</ele>
        <time>2013-06-30T12:23:43Z</time>
      </trkpt>
      <trkpt lat="40.242733" lon="-4.903717">
        <ele>2050.0</ele>
        <time>2013-06-30T12:23:44Z</time>
      </trkpt>
      <trkpt lat="40.242750" lon="-4.903650">
        <ele>2054.0</ele>
        <time>2013-06-30T12:23:45Z</time>
      </trkpt>
      <trkpt lat="40.242767" lon="-4.903600">
        <ele>2056.0</ele>
        <time>2013-06-30T12:23:46Z</time>
      </trkpt>
      <trkpt lat="40.242767" lon="-4.903533">
        <ele>2059.0</ele>
        <time>2013-06-30T12:23:47Z</time>
      </trkpt>
      <trkpt lat="40.242733" lon="-4.903467">
        <ele>2060.0</ele>
        <time>2013-06-30T12:23:48Z</time>
      </trkpt>
      <trkpt lat="40.242667" lon="-4.903417">
        <ele>2061.0</ele>
        <time>2013-06-30T12:23:49Z</time>
      </trkpt>
      <trkpt lat="40.242583" lon="-4.903383">
        <ele>2061.0</ele>
        <time>2013-06-30T12:23:50Z</time>
      </trkpt>
      <trkpt lat="40.242500" lon="-4.903417">
        <ele>2061.0</ele>
        <time>2013-06-30T12:23:51Z</time>
      </trkpt>
      <trkpt lat="40.242417" lon="-4.903467">
        <ele>2060.0</ele>
        <time>2013-06-30T12:23:52Z</time>
      </trkpt>
      <trkpt lat="40.242333" lon="-4.903550">
        <ele>2061.0</ele>
        <time>2013-06-30T12:23:53Z</time>
      </trkpt>
      <trkpt lat="40.242267" lon="-4.903650">
        <ele>2061.0</ele>
        <time>2013-06-30T12:23:54Z</time>
      </trkpt>
      <trkpt lat="40.242217" lon="-4.903767">
        <ele>2061.0</ele>
        <time>2013-06-30T12:23:55Z</time>
      </trkpt>
      <trkpt lat="40.242183" lon="-4.903900">
        <ele>2062.0</ele>
        <time>2013-06-30T12:23:56Z</time>
      </trkpt>
      <trkpt lat="40.242167" lon="-4.904033">
        <ele>2063.0</ele>
        <time>2013-06-30T12:23:57Z</time>
      </trkpt>
      <trkpt lat="40.242150" lon="-4.904183">
        <ele>2064.0</ele>
        <time>2013-06-30T12:23:58Z</time>
      </trkpt>
      <trkpt lat="40.242150" lon="-4.904317">
        <ele>2066.0</ele>
        <time>2013-06-30T12:23:59Z</time>
      </trkpt>
      <trkpt lat="40.242133" lon="-4.904450">
        <ele>2068.0</ele>
        <time>2013-06-30T12:24:00Z</time>
      </trkpt>
      <trkpt lat="40.242150" lon="-4.904583">
        <ele>2070.0</ele>
        <time>2013-06-30T12:24:01Z</time>
      </trkpt>
      <trkpt lat="40.242167" lon="-4.904717">
        <ele>2071.0</ele>
        <time>2013-06-30T12:24:02Z</time>
      </trkpt>
      <trkpt lat="40.242183" lon="-4.904850">
        <ele>2073.0</ele>
        <time>2013-06-30T12:24:03Z</time>
      </trkpt>
      <trkpt lat="40.242233" lon="-4.904967">
        <ele>2076.0</ele>
        <time>2013-06-30T12:24:04Z</time>
      </trkpt>
      <trkpt lat="40.242267" lon="-4.905067">
        <ele>2080.0</ele>
        <time>2013-06-30T12:24:05Z</time>
      </trkpt>
      <trkpt lat="40.242300" lon="-4.905167">
        <ele>2084.0</ele>
        <time>2013-06-30T12:24:06Z</time>
      </trkpt>
      <trkpt lat="40.242333" lon="-4.905250">
        <ele>2088.0</ele>
        <time>2013-06-30T12:24:07Z</time>
      </trkpt>
      <trkpt lat="40.242367" lon="-4.905333">
        <ele>2092.0</ele>
        <time>2013-06-30T12:24:08Z</time>
      </trkpt>
      <trkpt lat="40.242400" lon="-4.905417">
        <ele>2096.0</ele>
        <time>2013-06-30T12:24:09Z</time>
      </trkpt>
      <trkpt lat="40.242450" lon="-4.905483">
        <ele>2100.0</ele>
        <time>2013-06-30T12:24:10Z</time>
      </trkpt>
      <trkpt lat="40.242500" lon="-4.905500">
        <ele>2105.0</ele>
        <time>2013-06-30T12:24:11Z</time>
      </trkpt>
      <trkpt lat="40.242550" lon="-4.905500">
        <ele>2110.0</ele>
        <time>2013-06-30T12:24:12Z</time>
      </trkpt>
      <trkpt lat="40.242583" lon="-4.905467">
        <ele>2114.0</ele>
        <time>2013-06-30T12:24:13Z</time>
      </trkpt>
      <trkpt lat="40.242617" lon="-4.905417">
        <ele>2118.0</ele>
        <time>2013-06-30T12:24:14Z</time>
      </trkpt>
      <trkpt lat="40.242650" lon="-4.905367">
        <ele>2122.0</ele>
        <time>2013-06-30T12:24:15Z</time>
      </trkpt>
      <trkpt lat="40.242667" lon="-4.905283">
        <ele>2125.0</ele>
        <time>2013-06-30T12:24:16Z</time>
      </trkpt>
      <trkpt lat="40.242650" lon="-4.905200">
        <ele>2129.0</ele>
        <time>2013-06-30T12:24:17Z</time>
      </trkpt>
      <trkpt lat="40.242600" lon="-4.905117">
        <ele>2132.0</ele>
        <time>2013-06-30T12:24:18Z</time>
      </trkpt>
      <trkpt lat="40.242533" lon="-4.905050">
        <ele>2135.0</ele>
        <time>2013-06-30T12:24:19Z</time>
      </trkpt>
      <trkpt lat="40.242433" lon="-4.905033">
        <ele>2139.0</ele>
        <time>2013-06-30T12:24:20Z</time>
      </trkpt>
      <trkpt lat="40.242350" lon="-4.905067">
        <ele>2143.0</ele>
        <time>2013-06-30T12:24:21Z</time>
      </trkpt>
      <trkpt lat="40.242283" lon="-4.905167">
        <ele>2145.0</ele>
        <time>2013-06-30T12:24:22Z</time>
      </trkpt>
      <trkpt lat="40.242250" lon="-4.905300">
        <ele>2147.0</ele>
        <time>2013-06-30T12:24:23Z</time>
      </trkpt>
      <trkpt lat="40.242233" lon="-4.905467">
        <ele>2149.0</ele>
        <time>2013-06-30T12:24:24Z</time>
      </trkpt>
      <trkpt lat="40.242250" lon="-4.905600">
        <ele>2152.0</ele>
        <time>2013-06-30T12:24:25Z</time>
      </trkpt>
      <trkpt lat="40.242250" lon="-4.905733">
        <ele>2156.0</ele>
        <time>2013-06-30T12:24:26Z</time>
      </trkpt>
      <trkpt lat="40.242267" lon="-4.905833">
        <ele>2162.0</ele>
        <time>2013-06-30T12:24:27Z</time>
      </trkpt>
      <trkpt lat="40.242267" lon="-4.905950">
        <ele>2166.0</ele>
        <time>2013-06-30T12:24:28Z</time>
      </trkpt>
      <trkpt lat="40.242283" lon="-4.906050">
        <ele>2169.0</ele>
        <time>2013-06-30T12:24:29Z</time>
      </trkpt>
      <trkpt lat="40.242333" lon="-4.906133">
        <ele>2172.0</ele>
        <time>2013-06-30T12:24:30Z</time>
      </trkpt>
      <trkpt lat="40.242400" lon="-4.906233">
        <ele>2175.0</ele>
        <time>2013-06-30T12:24:31Z</time>
      </trkpt>
      <trkpt lat="40.242467" lon="-4.906283">
        <ele>2179.0</ele>
        <time>2013-06-30T12:24:32Z</time>
      </trkpt>
      <trkpt lat="40.242533" lon="-4.906283">
        <ele>2183.0</ele>
        <time>2013-06-30T12:24:33Z</time>
      </trkpt>
      <trkpt lat="40.242583" lon="-4.906267">
        <ele>2186.0</ele>
        <time>2013-06-30T12:24:34Z</time>
      </trkpt>
      <trkpt lat="40.242633" lon="-4.906217">
        <ele>2190.0</ele>
        <time>2013-06-30T12:24:35Z</time>
      </trkpt>
      <trkpt lat="40.242650" lon="-4.906150">
        <ele>2193.0</ele>
        <time>2013-06-30T12:24:36Z</time>
      </trkpt>
      <trkpt lat="40.242633" lon="-4.906083">
        <ele>2197.0</ele>
        <time>2013-06-30T12:24:37Z</time>
      </trkpt>
      <trkpt lat="40.242583" lon="-4.906033">
        <ele>2199.0</ele>
        <time>2013-06-30T12:24:38Z</time>
      </trkpt>
      <trkpt lat="40.242517" lon="-4.905983">
        <ele>2200.0</ele>
        <time>2013-06-30T12:24:39Z</time>
      </trkpt>
      <trkpt lat="40.242417" lon="-4.905967">
        <ele>2203.0</ele>
        <time>2013-06-30T12:24:40Z</time>
      </trkpt>
      <trkpt lat="40.242333" lon="-4.905933">
        <ele>2206.0</ele>
        <time>2013-06-30T12:24:41Z</time>
      </trkpt>
      <trkpt lat="40.242250" lon="-4.905900">
        <ele>2211.0</ele>
        <time>2013-06-30T12:24:42Z</time>
      </trkpt>
      <trkpt lat="40.242183" lon="-4.905883">
        <ele>2215.0</ele>
        <time>2013-06-30T12:24:43Z</time>
      </trkpt>
      <trkpt lat="40.242117" lon="-4.905883">
        <ele>2218.0</ele>
        <time>2013-06-30T12:24:44Z</time>
      </trkpt>
      <trkpt lat="40.242033" lon="-4.905917">
        <ele>2220.0</ele>
        <time>2013-06-30T12:24:45Z</time>
      </trkpt>
      <trkpt lat="40.241950" lon="-4.905983">
        <ele>2222.0</ele>
        <time>2013-06-30T12:24:46Z</time>
      </trkpt>
      <trkpt lat="40.241867" lon="-4.906067">
        <ele>2224.0</ele>
        <time>2013-06-30T12:24:47Z</time>
      </trkpt>
      <trkpt lat="40.241817" lon="-4.906183">
        <ele>2228.0</ele>
        <time>2013-06-30T12:24:48Z</time>
      </trkpt>
      <trkpt lat="40.241767" lon="-4.906300">
        <ele>2231.0</ele>
        <time>2013-06-30T12:24:49Z</time>
      </trkpt>
      <trkpt lat="40.241750" lon="-4.906417">
        <ele>2234.0</ele>
        <time>2013-06-30T12:24:50Z</time>
      </trkpt>
      <trkpt lat="40.241750" lon="-4.906550">
        <ele>2237.0</ele>
        <time>2013-06-30T12:24:51Z</time>
      </trkpt>
      <trkpt lat="40.241750" lon="-4.906683">
        <ele>2240.0</ele>
        <time>2013-06-30T12:24:52Z</time>
      </trkpt>
      <trkpt lat="40.241767" lon="-4.906800">
        <ele>2245.0</ele>
        <time>2013-06-30T12:24:53Z</time>
      </trkpt>
      <trkpt lat="40.241800" lon="-4.906883">
        <ele>2249.0</ele>
        <time>2013-06-30T12:24:54Z</time>
      </trkpt>
      <trkpt lat="40.241833" lon="-4.906967">
        <ele>2252.0</ele>
        <time>2013-06-30T12:24:55Z</time>
      </trkpt>
      <trkpt lat="40.241867" lon="-4.907050">
        <ele>2254.0</ele>
        <time>2013-06-30T12:24:56Z</time>
      </trkpt>
      <trkpt lat="40.241900" lon="-4.907133">
        <ele>2255.0</ele>
        <time>2013-06-30T12:24:57Z</time>
      </trkpt>
      <trkpt lat="40.241950" lon="-4.907200">
        <ele>2257.0</ele>
        <time>2013-06-30T12:24:58Z</time>
      </trkpt>
      <trkpt lat="40.242017" lon="-4.907267">
        <ele>2260.0</ele>
        <time>2013-06-30T12:24:59Z</time>
      </trkpt>
      <trkpt lat="40.242083" lon="-4.907300">
        <ele>2263.0</ele>
        <time>2013-06-30T12:25:00Z</time>
      </trkpt>
      <trkpt lat="40.242150" lon="-4.907317">
        <ele>2266.0</ele>
        <time>2013-06-30T12:25:01Z</time>
      </trkpt>
      <trkpt lat="40.242217" lon="-4.907317">
        <ele>2268.0</ele>
        <time>2013-06-30T12:25:02Z</time>
      </trkpt>
      <trkpt lat="40.242267" lon="-4.907300">
        <ele>2271.0</ele>
        <time>2013-06-30T12:25:03Z</time>
      </trkpt>
      <trkpt lat="40.242300" lon="-4.907283">
        <ele>2273.0</ele>
        <time>2013-06-30T12:25:04Z</time>
      </trkpt>
      <trkpt lat="40.242333" lon="-4.907233">
        <ele>2274.0</ele>
        <time>2013-06-30T12:25:05Z</time>
      </trkpt>
      <trkpt lat="40.242350" lon="-4.907183">
        <ele>2276.0</ele>
        <time>2013-06-30T12:25:06Z</time>
      </trkpt>
      <trkpt lat="40.242350" lon="-4.907117">
        <ele>2278.0</ele>
        <time>2013-06-30T12:25:07Z</time>
      </trkpt>
      <trkpt lat="40.242333" lon="-4.907067">
        <ele>2280.0</ele>
        <time>2013-06-30T12:25:08Z</time>
      </trkpt>
      <trkpt lat="40.242300" lon="-4.907017">
        <ele>2282.0</ele>
        <time>2013-06-30T12:25:09Z</time>
      </trkpt>
      <trkpt lat="40.242283" lon="-4.906967">
        <ele>2284.0</ele>
        <time>2013-06-30T12:25:10Z</time>
      </trkpt>
      <trkpt lat="40.242267" lon="-4.906917">
        <ele>2287.0</ele>
        <time>2013-06-30T12:25:11Z</time>
      </trkpt>
      <trkpt lat="40.242233" lon="-4.906850">
        <ele>2289.0</ele>
        <time>2013-06-30T12:25:12Z</time>
      </trkpt>
      <trkpt lat="40.242183" lon="-4.906800">
        <ele>2292.0</ele>
        <time>2013-06-30T12:25:13Z</time>
      </trkpt>
      <trkpt lat="40.242133" lon="-4.906750">
        <ele>2295.0</ele>
        <time>2013-06-30T12:25:14Z</time>
      </trkpt>
      <trkpt lat="40.242067" lon="-4.906700">
        <ele>2297.0</ele>
        <time>2013-06-30T12:25:15Z</time>
      </trkpt>
      <trkpt lat="40.242000" lon="-4.906683">
        <ele>2299.0</ele>
        <time>2013-06-30T12:25:16Z</time>
      </trkpt>
      <trkpt lat="40.241917" lon="-4.906667">
        <ele>2302.0</ele>
        <time>2013-06-30T12:25:17Z</time>
      </trkpt>
      <trkpt lat="40.241833" lon="-4.906683">
        <ele>2304.0</ele>
        <time>2013-06-30T12:25:18Z</time>
      </trkpt>
      <trkpt lat="40.241750" lon="-4.906717">
        <ele>2306.0</ele>
        <time>2013-06-30T12:25:19Z</time>
      </trkpt>
      <trkpt lat="40.241667" lon="-4.906767">
        <ele>2309.0</ele>
        <time>2013-06-30T12:25:20Z</time>
      </trkpt>
      <trkpt lat="40.241583" lon="-4.906817">
        <ele>2312.0</ele>
        <time>2013-06-30T12:25:21Z</time>
      </trkpt>
      <trkpt lat="40.241517" lon="-4.906867">
        <ele>2313.0</ele>
        <time>2013-06-30T12:25:22Z</time>
      </trkpt>
      <trkpt lat="40.241450" lon="-4.906917">
        <ele>2315.0</ele>
        <time>2013-06-30T12:25:23Z</time>
      </trkpt>
      <trkpt lat="40.241383" lon="-4.907000">
        <ele>2315.0</ele>
        <time>2013-06-30T12:25:24Z</time>
      </trkpt>
      <trkpt lat="40.241333" lon="-4.907117">
        <ele>2315.0</ele>
        <time>2013-06-30T12:25:25Z</time>
      </trkpt>
      <trkpt lat="40.241283" lon="-4.907267">
        <ele>2315.0</ele>
        <time>2013-06-30T12:25:26Z</time>
      </trkpt>
      <trkpt lat="40.241283" lon="-4.907433">
        <ele>2315.0</ele>
        <time>2013-06-30T12:25:27Z</time>
      </trkpt>
      <trkpt lat="40.241300" lon="-4.907583">
        <ele>2317.0</ele>
        <time>2013-06-30T12:25:28Z</time>
      </trkpt>
      <trkpt lat="40.241333" lon="-4.907717">
        <ele>2322.0</ele>
        <time>2013-06-30T12:25:29Z</time>
      </trkpt>
      <trkpt lat="40.241383" lon="-4.907817">
        <ele>2326.0</ele>
        <time>2013-06-30T12:25:30Z</time>
      </trkpt>
      <trkpt lat="40.241417" lon="-4.907900">
        <ele>2330.0</ele>
        <time>2013-06-30T12:25:31Z</time>
      </trkpt>
      <trkpt lat="40.241450" lon="-4.907967">
        <ele>2332.0</ele>
        <time>2013-06-30T12:25:32Z</time>
      </trkpt>
      <trkpt lat="40.241483" lon="-4.908067">
        <ele>2333.0</ele>
        <time>2013-06-30T12:25:33Z</time>
      </trkpt>
      <trkpt lat="40.241533" lon="-4.908167">
        <ele>2333.0</ele>
        <time>2013-06-30T12:25:34Z</time>
      </trkpt>
      <trkpt lat="40.241583" lon="-4.908250">
        <ele>2334.0</ele>
        <time>2013-06-30T12:25:35Z</time>
      </trkpt>
      <trkpt lat="40.241650" lon="-4.908300">
        <ele>2336.0</ele>
        <time>2013-06-30T12:25:36Z</time>
      </trkpt>
      <trkpt lat="40.241700" lon="-4.908300">
        <ele>2337.0</ele>
        <time>2013-06-30T12:25:37Z</time>
      </trkpt>
      <trkpt lat="40.241733" lon="-4.908283">
        <ele>2339.0</ele>
        <time>2013-06-30T12:25:38Z</time>
      </trkpt>
      <trkpt lat="40.241767" lon="-4.908233">
        <ele>2341.0</ele>
        <time>2013-06-30T12:25:39Z</time>
      </trkpt>
      <trkpt lat="40.241800" lon="-4.908200">
        <ele>2344.0</ele>
        <time>2013-06-30T12:25:40Z</time>
      </trkpt>
      <trkpt lat="40.241850" lon="-4.908167">
        <ele>2347.0</ele>
        <time>2013-06-30T12:25:41Z</time>
      </trkpt>
      <trkpt lat="40.241867" lon="-4.908117">
        <ele>2350.0</ele>
        <time>2013-06-30T12:25:42Z</time>
      </trkpt>
      <trkpt lat="40.241867" lon="-4.908067">
        <ele>2352.0</ele>
        <time>2013-06-30T12:25:43Z</time>
      </trkpt>
      <trkpt lat="40.241850" lon="-4.908017">
        <ele>2354.0</ele>
        <time>2013-06-30T12:25:44Z</time>
      </trkpt>
      <trkpt lat="40.241783" lon="-4.907950">
        <ele>2355.0</ele>
        <time>2013-06-30T12:25:45Z</time>
      </trkpt>
      <trkpt lat="40.241717" lon="-4.907917">
        <ele>2357.0</ele>
        <time>2013-06-30T12:25:46Z</time>
      </trkpt>
      <trkpt lat="40.241633" lon="-4.907917">
        <ele>2359.0</ele>
        <time>2013-06-30T12:25:47Z</time>
      </trkpt>
      <trkpt lat="40.241550" lon="-4.907950">
        <ele>2361.0</ele>
        <time>2013-06-30T12:25:48Z</time>
      </trkpt>
      <trkpt lat="40.241450" lon="-4.908000">
        <ele>2363.0</ele>
        <time>2013-06-30T12:25:49Z</time>
      </trkpt>
      <trkpt lat="40.241367" lon="-4.908067">
        <ele>2365.0</ele>
        <time>2013-06-30T12:25:50Z</time>
      </trkpt>
      <trkpt lat="40.241283" lon="-4.908150">
        <ele>2367.0</ele>
        <time>2013-06-30T12:25:51Z</time>
      </trkpt>
      <trkpt lat="40.241217" lon="-4.908250">
        <ele>2370.0</ele>
        <time>2013-06-30T12:25:52Z</time>
      </trkpt>
      <trkpt lat="40.241150" lon="-4.908350">
        <ele>2372.0</ele>
        <time>2013-06-30T12:25:53Z</time>
      </trkpt>
      <trkpt lat="40.241100" lon="-4.908467">
        <ele>2373.0</ele>
        <time>2013-06-30T12:25:54Z</time>
      </trkpt>
      <trkpt lat="40.241050" lon="-4.908583">
        <ele>2375.0</ele>
        <time>2013-06-30T12:25:55Z</time>
      </trkpt>
      <trkpt lat="40.241000" lon="-4.908700">
        <ele>2376.0</ele>
        <time>2013-06-30T12:25:56Z</time>
      </trkpt>
      <trkpt lat="40.240967" lon="-4.908833">
        <ele>2378.0</ele>
        <time>2013-06-30T12:25:57Z</time>
      </trkpt>
      <trkpt lat="40.240950" lon="-4.908967">
        <ele>2380.0</ele>
        <time>2013-06-30T12:25:58Z</time>
      </trkpt>
      <trkpt lat="40.240950" lon="-4.909083">
        <ele>2381.0</ele>
        <time>2013-06-30T12:25:59Z</time>
      </trkpt>
      <trkpt lat="40.240967" lon="-4.909217">
        <ele>2382.0</ele>
        <time>2013-06-30T12:26:00Z</time>
      </trkpt>
      <trkpt lat="40.240983" lon="-4.909333">
        <ele>2382.0</ele>
        <time>2013-06-30T12:26:01Z</time>
      </trkpt>
      <trkpt lat="40.241017" lon="-4.909467">
        <ele>2382.0</ele>
        <time>2013-06-30T12:26:02Z</time>
      </trkpt>
      <trkpt lat="40.241050" lon="-4.909567">
        <ele>2382.0</ele>
        <time>2013-06-30T12:26:03Z</time>
      </trkpt>
      <trkpt lat="40.241117" lon="-4.909667">
        <ele>2383.0</ele>
        <time>2013-06-30T12:26:04Z</time>
      </trkpt>
      <trkpt lat="40.241167" lon="-4.909733">
        <ele>2384.0</ele>
        <time>2013-06-30T12:26:05Z</time>
      </trkpt>
      <trkpt lat="40.241217" lon="-4.909783">
        <ele>2384.0</ele>
        <time>2013-06-30T12:26:06Z</time>
      </trkpt>
      <trkpt lat="40.241283" lon="-4.909800">
        <ele>2384.0</ele>
        <time>2013-06-30T12:26:07Z</time>
      </trkpt>
      <trkpt lat="40.241333" lon="-4.909817">
        <ele>2382.0</ele>
        <time>2013-06-30T12:26:08Z</time>
      </trkpt>
      <trkpt lat="40.241383" lon="-4.909817">
        <ele>2381.0</ele>
        <time>2013-06-30T12:26:09Z</time>
      </trkpt>
      <trkpt lat="40.241450" lon="-4.909800">
        <ele>2380.0</ele>
        <time>2013-06-30T12:26:10Z</time>
      </trkpt>
      <trkpt lat="40.241483" lon="-4.909767">
        <ele>2379.0</ele>
        <time>2013-06-30T12:26:11Z</time>
      </trkpt>
      <trkpt lat="40.241500" lon="-4.909717">
        <ele>2378.0</ele>
        <time>2013-06-30T12:26:12Z</time>
      </trkpt>
      <trkpt lat="40.241500" lon="-4.909667">
        <ele>2375.0</ele>
        <time>2013-06-30T12:26:13Z</time>
      </trkpt>
      <trkpt lat="40.241500" lon="-4.909583">
        <ele>2373.0</ele>
        <time>2013-06-30T12:26:14Z</time>
      </trkpt>
      <trkpt lat="40.241483" lon="-4.909500">
        <ele>2372.0</ele>
        <time>2013-06-30T12:26:15Z</time>
      </trkpt>
      <trkpt lat="40.241450" lon="-4.909400">
        <ele>2372.0</ele>
        <time>2013-06-30T12:26:16Z</time>
      </trkpt>
      <trkpt lat="40.241417" lon="-4.909317">
        <ele>2373.0</ele>
        <time>2013-06-30T12:26:17Z</time>
      </trkpt>
      <trkpt lat="40.241350" lon="-4.909250">
        <ele>2374.0</ele>
        <time>2013-06-30T12:26:18Z</time>
      </trkpt>
      <trkpt lat="40.241300" lon="-4.909183">
        <ele>2375.0</ele>
        <time>2013-06-30T12:26:19Z</time>
      </trkpt>
      <trkpt lat="40.241250" lon="-4.909117">
        <ele>2376.0</ele>
        <time>2013-06-30T12:26:20Z</time>
      </trkpt>
      <trkpt lat="40.241200" lon="-4.909067">
        <ele>2377.0</ele>
        <time>2013-06-30T12:26:21Z</time>
      </trkpt>
      <trkpt lat="40.241150" lon="-4.909000">
        <ele>2378.0</ele>
        <time>2013-06-30T12:26:22Z</time>
      </trkpt>
      <trkpt lat="40.241083" lon="-4.908950">
        <ele>2379.0</ele>
        <time>2013-06-30T12:26:23Z</time>
      </trkpt>
      <trkpt lat="40.241017" lon="-4.908917">
        <ele>2379.0</ele>
        <time>2013-06-30T12:26:24Z</time>
      </trkpt>
      <trkpt lat="40.240917" lon="-4.908900">
        <ele>2378.0</ele>
        <time>2013-06-30T12:26:25Z</time>
      </trkpt>
      <trkpt lat="40.240833" lon="-4.908917">
        <ele>2378.0</ele>
        <time>2013-06-30T12:26:26Z</time>
      </trkpt>
      <trkpt lat="40.240750" lon="-4.908967">
        <ele>2377.0</ele>
        <time>2013-06-30T12:26:27Z</time>
      </trkpt>
      <trkpt lat="40.240650" lon="-4.909033">
        <ele>2376.0</ele>
        <time>2013-06-30T12:26:28Z</time>
      </trkpt>
      <trkpt lat="40.240533" lon="-4.909133">
        <ele>2376.0</ele>
        <time>2013-06-30T12:26:29Z</time>
      </trkpt>
      <trkpt lat="40.240417" lon="-4.909233">
        <ele>2376.0</ele>
        <time>2013-06-30T12:26:30Z</time>
      </trkpt>
      <trkpt lat="40.240333" lon="-4.909333">
        <ele>2377.0</ele>
        <time>2013-06-30T12:26:31Z</time>
      </trkpt>
      <trkpt lat="40.240250" lon="-4.909450">
        <ele>2378.0</ele>
        <time>2013-06-30T12:26:32Z</time>
      </trkpt>
      <trkpt lat="40.240183" lon="-4.909567">
        <ele>2378.0</ele>
        <time>2013-06-30T12:26:33Z</time>
      </trkpt>
      <trkpt lat="40.240117" lon="-4.909700">
        <ele>2378.0</ele>
        <time>2013-06-30T12:26:34Z</time>
      </trkpt>
      <trkpt lat="40.240050" lon="-4.909833">
        <ele>2377.0</ele>
        <time>2013-06-30T12:26:35Z</time>
      </trkpt>
      <trkpt lat="40.239967" lon="-4.909983">
        <ele>2376.0</ele>
        <time>2013-06-30T12:26:36Z</time>
      </trkpt>
      <trkpt lat="40.239917" lon="-4.910150">
        <ele>2376.0</ele>
        <time>2013-06-30T12:26:37Z</time>
      </trkpt>
      <trkpt lat="40.239850" lon="-4.910317">
        <ele>2378.0</ele>
        <time>2013-06-30T12:26:38Z</time>
      </trkpt>
      <trkpt lat="40.239800" lon="-4.910467">
        <ele>2381.0</ele>
        <time>2013-06-30T12:26:39Z</time>
      </trkpt>
      <trkpt lat="40.239750" lon="-4.910583">
        <ele>2384.0</ele>
        <time>2013-06-30T12:26:40Z</time>
      </trkpt>
      <trkpt lat="40.239683" lon="-4.910683">
        <ele>2385.0</ele>
        <time>2013-06-30T12:26:41Z</time>
      </trkpt>
      <trkpt lat="40.239617" lon="-4.910783">
        <ele>2385.0</ele>
        <time>2013-06-30T12:26:42Z</time>
      </trkpt>
      <trkpt lat="40.239533" lon="-4.910900">
        <ele>2385.0</ele>
        <time>2013-06-30T12:26:43Z</time>
      </trkpt>
      <trkpt lat="40.239450" lon="-4.911033">
        <ele>2385.0</ele>
        <time>2013-06-30T12:26:44Z</time>
      </trkpt>
      <trkpt lat="40.239367" lon="-4.911167">
        <ele>2386.0</ele>
        <time>2013-06-30T12:26:45Z</time>
      </trkpt>
      <trkpt lat="40.239283" lon="-4.911250">
        <ele>2388.0</ele>
        <time>2013-06-30T12:26:46Z</time>
      </trkpt>
      <trkpt lat="40.239200" lon="-4.911333">
        <ele>2389.0</ele>
        <time>2013-06-30T12:26:47Z</time>
      </trkpt>
      <trkpt lat="40.239100" lon="-4.911417">
        <ele>2389.0</ele>
        <time>2013-06-30T12:26:48Z</time>
      </trkpt>
      <trkpt lat="40.239017" lon="-4.911517">
        <ele>2388.0</ele>
        <time>2013-06-30T12:26:49Z</time>
      </trkpt>
      <trkpt lat="40.238933" lon="-4.911633">
        <ele>2387.0</ele>
        <time>2013-06-30T12:26:50Z</time>
      </trkpt>
      <trkpt lat="40.238867" lon="-4.911767">
        <ele>2386.0</ele>
        <time>2013-06-30T12:26:51Z</time>
      </trkpt>
      <trkpt lat="40.238833" lon="-4.911900">
        <ele>2386.0</ele>
        <time>2013-06-30T12:26:52Z</time>
      </trkpt>
      <trkpt lat="40.238800" lon="-4.912050">
        <ele>2386.0</ele>
        <time>2013-06-30T12:26:53Z</time>
      </trkpt>
      <trkpt lat="40.238783" lon="-4.912200">
        <ele>2386.0</ele>
        <time>2013-06-30T12:26:54Z</time>
      </trkpt>
      <trkpt lat="40.238783" lon="-4.912350">
        <ele>2386.0</ele>
        <time>2013-06-30T12:26:55Z</time>
      </trkpt>
      <trkpt lat="40.238783" lon="-4.912483">
        <ele>2386.0</ele>
        <time>2013-06-30T12:26:56Z</time>
      </trkpt>
      <trkpt lat="40.238800" lon="-4.912600">
        <ele>2385.0</ele>
        <time>2013-06-30T12:26:57Z</time>
      </trkpt>
      <trkpt lat="40.238800" lon="-4.912717">
        <ele>2385.0</ele>
        <time>2013-06-30T12:26:58Z</time>
      </trkpt>
      <trkpt lat="40.238817" lon="-4.912850">
        <ele>2385.0</ele>
        <time>2013-06-30T12:26:59Z</time>
      </trkpt>
      <trkpt lat="40.238833" lon="-4.912983">
        <ele>2386.0</ele>
        <time>2013-06-30T12:27:00Z</time>
      </trkpt>
      <trkpt lat="40.238833" lon="-4.913100">
        <ele>2387.0</ele>
        <time>2013-06-30T12:27:01Z</time>
      </trkpt>
      <trkpt lat="40.238850" lon="-4.913217">
        <ele>2388.0</ele>
        <time>2013-06-30T12:27:02Z</time>
      </trkpt>
      <trkpt lat="40.238883" lon="-4.913317">
        <ele>2388.0</ele>
        <time>2013-06-30T12:27:03Z</time>
      </trkpt>
      <trkpt lat="40.238917" lon="-4.913417">
        <ele>2388.0</ele>
        <time>2013-06-30T12:27:04Z</time>
      </trkpt>
      <trkpt lat="40.238950" lon="-4.913550">
        <ele>2388.0</ele>
        <time>2013-06-30T12:27:05Z</time>
      </trkpt>
      <trkpt lat="40.239000" lon="-4.913650">
        <ele>2389.0</ele>
        <time>2013-06-30T12:27:06Z</time>
      </trkpt>
      <trkpt lat="40.239067" lon="-4.913700">
        <ele>2390.0</ele>
        <time>2013-06-30T12:27:07Z</time>
      </trkpt>
      <trkpt lat="40.239133" lon="-4.913733">
        <ele>2390.0</ele>
        <time>2013-06-30T12:27:08Z</time>
      </trkpt>
      <trkpt lat="40.239200" lon="-4.913750">
        <ele>2391.0</ele>
        <time>2013-06-30T12:27:09Z</time>
      </trkpt>
      <trkpt lat="40.239233" lon="-4.913783">
        <ele>2391.0</ele>
        <time>2013-06-30T12:27:10Z</time>
      </trkpt>
      <trkpt lat="40.239267" lon="-4.913817">
        <ele>2391.0</ele>
        <time>2013-06-30T12:27:11Z</time>
      </trkpt>
      <trkpt lat="40.239333" lon="-4.913850">
        <ele>2389.0</ele>
        <time>2013-06-30T12:27:12Z</time>
      </trkpt>
      <trkpt lat="40.239417" lon="-4.913900">
        <ele>2388.0</ele>
        <time>2013-06-30T12:27:13Z</time>
      </trkpt>
      <trkpt lat="40.239483" lon="-4.913967">
        <ele>2389.0</ele>
        <time>2013-06-30T12:27:14Z</time>
      </trkpt>
      <trkpt lat="40.239550" lon="-4.914017">
        <ele>2391.0</ele>
        <time>2013-06-30T12:27:15Z</time>
      </trkpt>
      <trkpt lat="40.239583" lon="-4.914067">
        <ele>2393.0</ele>
        <time>2013-06-30T12:27:16Z</time>
      </trkpt>
      <trkpt lat="40.239617" lon="-4.914083">
        <ele>2394.0</ele>
        <time>2013-06-30T12:27:17Z</time>
      </trkpt>
      <trkpt lat="40.239667" lon="-4.914133">
        <ele>2392.0</ele>
        <time>2013-06-30T12:27:18Z</time>
      </trkpt>
      <trkpt lat="40.239717" lon="-4.914200">
        <ele>2390.0</ele>
        <time>2013-06-30T12:27:19Z</time>
      </trkpt>
      <trkpt lat="40.239800" lon="-4.914300">
        <ele>2388.0</ele>
        <time>2013-06-30T12:27:20Z</time>
      </trkpt>
      <trkpt lat="40.239850" lon="-4.914417">
        <ele>2388.0</ele>
        <time>2013-06-30T12:27:21Z</time>
      </trkpt>
      <trkpt lat="40.239867" lon="-4.914550">
        <ele>2389.0</ele>
        <time>2013-06-30T12:27:22Z</time>
      </trkpt>
      <trkpt lat="40.239883" lon="-4.914667">
        <ele>2390.0</ele>
        <time>2013-06-30T12:27:23Z</time>
      </trkpt>
      <trkpt lat="40.239917" lon="-4.914783">
        <ele>2389.0</ele>
        <time>2013-06-30T12:27:24Z</time>
      </trkpt>
      <trkpt lat="40.239950" lon="-4.914917">
        <ele>2387.0</ele>
        <time>2013-06-30T12:27:25Z</time>
      </trkpt>
      <trkpt lat="40.239983" lon="-4.915033">
        <ele>2385.0</ele>
        <time>2013-06-30T12:27:26Z</time>
      </trkpt>
      <trkpt lat="40.240017" lon="-4.915150">
        <ele>2384.0</ele>
        <time>2013-06-30T12:27:27Z</time>
      </trkpt>
      <trkpt lat="40.240067" lon="-4.915250">
        <ele>2382.0</ele>
        <time>2013-06-30T12:27:28Z</time>
      </trkpt>
      <trkpt lat="40.240117" lon="-4.915333">
        <ele>2381.0</ele>
        <time>2013-06-30T12:27:29Z</time>
      </trkpt>
      <trkpt lat="40.240150" lon="-4.915433">
        <ele>2379.0</ele>
        <time>2013-06-30T12:27:30Z</time>
      </trkpt>
      <trkpt lat="40.240167" lon="-4.915550">
        <ele>2378.0</ele>
        <time>2013-06-30T12:27:31Z</time>
      </trkpt>
      <trkpt lat="40.240200" lon="-4.915683">
        <ele>2377.0</ele>
        <time>2013-06-30T12:27:32Z</time>
      </trkpt>
      <trkpt lat="40.240217" lon="-4.915817">
        <ele>2377.0</ele>
        <time>2013-06-30T12:27:33Z</time>
      </trkpt>
      <trkpt lat="40.240233" lon="-4.915917">
        <ele>2378.0</ele>
        <time>2013-06-30T12:27:34Z</time>
      </trkpt>
      <trkpt lat="40.240250" lon="-4.916033">
        <ele>2378.0</ele>
        <time>2013-06-30T12:27:35Z</time>
      </trkpt>
      <trkpt lat="40.240250" lon="-4.916133">
        <ele>2377.0</ele>
        <time>2013-06-30T12:27:36Z</time>
      </trkpt>
      <trkpt lat="40.240267" lon="-4.916250">
        <ele>2375.0</ele>
        <time>2013-06-30T12:27:37Z</time>
      </trkpt>
      <trkpt lat="40.240283" lon="-4.916367">
        <ele>2373.0</ele>
        <time>2013-06-30T12:27:38Z</time>
      </trkpt>
      <trkpt lat="40.240300" lon="-4.916500">
        <ele>2371.0</ele>
        <time>2013-06-30T12:27:39Z</time>
      </trkpt>
      <trkpt lat="40.240300" lon="-4.916633">
        <ele>2370.0</ele>
        <time>2013-06-30T12:27:40Z</time>
      </trkpt>
      <trkpt lat="40.240317" lon="-4.916750">
        <ele>2370.0</ele>
        <time>2013-06-30T12:27:41Z</time>
      </trkpt>
      <trkpt lat="40.240317" lon="-4.916867">
        <ele>2369.0</ele>
        <time>2013-06-30T12:27:42Z</time>
      </trkpt>
      <trkpt lat="40.240317" lon="-4.916983">
        <ele>2367.0</ele>
        <time>2013-06-30T12:27:43Z</time>
      </trkpt>
      <trkpt lat="40.240317" lon="-4.917117">
        <ele>2365.0</ele>
        <time>2013-06-30T12:27:44Z</time>
      </trkpt>
      <trkpt lat="40.240300" lon="-4.917250">
        <ele>2363.0</ele>
        <time>2013-06-30T12:27:45Z</time>
      </trkpt>
      <trkpt lat="40.240283" lon="-4.917400">
        <ele>2362.0</ele>
        <time>2013-06-30T12:27:46Z</time>
      </trkpt>
      <trkpt lat="40.240283" lon="-4.917533">
        <ele>2360.0</ele>
        <time>2013-06-30T12:27:47Z</time>
      </trkpt>
      <trkpt lat="40.240267" lon="-4.917667">
        <ele>2359.0</ele>
        <time>2013-06-30T12:27:48Z</time>
      </trkpt>
      <trkpt lat="40.240250" lon="-4.917800">
        <ele>2357.0</ele>
        <time>2013-06-30T12:27:49Z</time>
      </trkpt>
      <trkpt lat="40.240200" lon="-4.917933">
        <ele>2354.0</ele>
        <time>2013-06-30T12:27:50Z</time>
      </trkpt>
      <trkpt lat="40.240133" lon="-4.918067">
        <ele>2350.0</ele>
        <time>2013-06-30T12:27:51Z</time>
      </trkpt>
      <trkpt lat="40.240033" lon="-4.918200">
        <ele>2347.0</ele>
        <time>2013-06-30T12:27:52Z</time>
      </trkpt>
      <trkpt lat="40.239933" lon="-4.918300">
        <ele>2345.0</ele>
        <time>2013-06-30T12:27:53Z</time>
      </trkpt>
      <trkpt lat="40.239817" lon="-4.918383">
        <ele>2344.0</ele>
        <time>2013-06-30T12:27:54Z</time>
      </trkpt>
      <trkpt lat="40.239717" lon="-4.918450">
        <ele>2341.0</ele>
        <time>2013-06-30T12:27:55Z</time>
      </trkpt>
      <trkpt lat="40.239617" lon="-4.918500">
        <ele>2337.0</ele>
        <time>2013-06-30T12:27:56Z</time>
      </trkpt>
      <trkpt lat="40.239500" lon="-4.918550">
        <ele>2333.0</ele>
        <time>2013-06-30T12:27:57Z</time>
      </trkpt>
      <trkpt lat="40.239383" lon="-4.918617">
        <ele>2331.0</ele>
        <time>2013-06-30T12:27:58Z</time>
      </trkpt>
      <trkpt lat="40.239283" lon="-4.918683">
        <ele>2330.0</ele>
        <time>2013-06-30T12:27:59Z</time>
      </trkpt>
      <trkpt lat="40.239183" lon="-4.918700">
        <ele>2328.0</ele>
        <time>2013-06-30T12:28:00Z</time>
      </trkpt>
      <trkpt lat="40.239100" lon="-4.918683">
        <ele>2326.0</ele>
        <time>2013-06-30T12:28:01Z</time>
      </trkpt>
      <trkpt lat="40.239000" lon="-4.918650">
        <ele>2323.0</ele>
        <time>2013-06-30T12:28:02Z</time>
      </trkpt>
      <trkpt lat="40.238900" lon="-4.918633">
        <ele>2321.0</ele>
        <time>2013-06-30T12:28:03Z</time>
      </trkpt>
      <trkpt lat="40.238783" lon="-4.918617">
        <ele>2319.0</ele>
        <time>2013-06-30T12:28:04Z</time>
      </trkpt>
      <trkpt lat="40.238667" lon="-4.918617">
        <ele>2318.0</ele>
        <time>2013-06-30T12:28:05Z</time>
      </trkpt>
      <trkpt lat="40.238550" lon="-4.918617">
        <ele>2317.0</ele>
        <time>2013-06-30T12:28:06Z</time>
      </trkpt>
      <trkpt lat="40.238450" lon="-4.918600">
        <ele>2317.0</ele>
        <time>2013-06-30T12:28:07Z</time>
      </trkpt>
      <trkpt lat="40.238350" lon="-4.918600">
        <ele>2316.0</ele>
        <time>2013-06-30T12:28:08Z</time>
      </trkpt>
      <trkpt lat="40.238233" lon="-4.918583">
        <ele>2314.0</ele>
        <time>2013-06-30T12:28:09Z</time>
      </trkpt>
      <trkpt lat="40.238133" lon="-4.918583">
        <ele>2312.0</ele>
        <time>2013-06-30T12:28:10Z</time>
      </trkpt>
      <trkpt lat="40.238017" lon="-4.918567">
        <ele>2311.0</ele>
        <time>2013-06-30T12:28:11Z</time>
      </trkpt>
      <trkpt lat="40.237900" lon="-4.918567">
        <ele>2310.0</ele>
        <time>2013-06-30T12:28:12Z</time>
      </trkpt>
      <trkpt lat="40.237800" lon="-4.918567">
        <ele>2310.0</ele>
        <time>2013-06-30T12:28:13Z</time>
      </trkpt>
      <trkpt lat="40.237700" lon="-4.918567">
        <ele>2309.0</ele>
        <time>2013-06-30T12:28:14Z</time>
      </trkpt>
      <trkpt lat="40.237600" lon="-4.918567">
        <ele>2309.0</ele>
        <time>2013-06-30T12:28:15Z</time>
      </trkpt>
      <trkpt lat="40.237517" lon="-4.918550">
        <ele>2310.0</ele>
        <time>2013-06-30T12:28:16Z</time>
      </trkpt>
      <trkpt lat="40.237433" lon="-4.918550">
        <ele>2311.0</ele>
        <time>2013-06-30T12:28:17Z</time>
      </trkpt>
      <trkpt lat="40.237367" lon="-4.918550">
        <ele>2312.0</ele>
        <time>2013-06-30T12:28:18Z</time>
      </trkpt>
      <trkpt lat="40.237300" lon="-4.918533">
        <ele>2312.0</ele>
        <time>2013-06-30T12:28:19Z</time>
      </trkpt>
      <trkpt lat="40.237233" lon="-4.918517">
        <ele>2310.0</ele>
        <time>2013-06-30T12:28:20Z</time>
      </trkpt>
      <trkpt lat="40.237167" lon="-4.918483">
        <ele>2308.0</ele>
        <time>2013-06-30T12:28:21Z</time>
      </trkpt>
      <trkpt lat="40.237083" lon="-4.918450">
        <ele>2306.0</ele>
        <time>2013-06-30T12:28:22Z</time>
      </trkpt>
      <trkpt lat="40.237000" lon="-4.918400">
        <ele>2304.0</ele>
        <time>2013-06-30T12:28:23Z</time>
      </trkpt>
      <trkpt lat="40.236900" lon="-4.918367">
        <ele>2303.0</ele>
        <time>2013-06-30T12:28:24Z</time>
      </trkpt>
      <trkpt lat="40.236800" lon="-4.918333">
        <ele>2301.0</ele>
        <time>2013-06-30T12:28:25Z</time>
      </trkpt>
      <trkpt lat="40.236700" lon="-4.918317">
        <ele>2300.0</ele>
        <time>2013-06-30T12:28:26Z</time>
      </trkpt>
      <trkpt lat="40.236583" lon="-4.918300">
        <ele>2300.0</ele>
        <time>2013-06-30T12:28:27Z</time>
      </trkpt>
      <trkpt lat="40.236483" lon="-4.918283">
        <ele>2299.0</ele>
        <time>2013-06-30T12:28:28Z</time>
      </trkpt>
      <trkpt lat="40.236383" lon="-4.918283">
        <ele>2299.0</ele>
        <time>2013-06-30T12:28:29Z</time>
      </trkpt>
      <trkpt lat="40.236300" lon="-4.918283">
        <ele>2298.0</ele>
        <time>2013-06-30T12:28:30Z</time>
      </trkpt>
      <trkpt lat="40.236200" lon="-4.918283">
        <ele>2297.0</ele>
        <time>2013-06-30T12:28:31Z</time>
      </trkpt>
      <trkpt lat="40.236083" lon="-4.918283">
        <ele>2295.0</ele>
        <time>2013-06-30T12:28:32Z</time>
      </trkpt>
      <trkpt lat="40.235967" lon="-4.918300">
        <ele>2295.0</ele>
        <time>2013-06-30T12:28:33Z</time>
      </trkpt>
      <trkpt lat="40.235867" lon="-4.918333">
        <ele>2296.0</ele>
        <time>2013-06-30T12:28:34Z</time>
      </trkpt>
      <trkpt lat="40.235767" lon="-4.918383">
        <ele>2296.0</ele>
        <time>2013-06-30T12:28:35Z</time>
      </trkpt>
      <trkpt lat="40.235667" lon="-4.918433">
        <ele>2296.0</ele>
        <time>2013-06-30T12:28:36Z</time>
      </trkpt>
      <trkpt lat="40.235567" lon="-4.918483">
        <ele>2295.0</ele>
        <time>2013-06-30T12:28:37Z</time>
      </trkpt>
      <trkpt lat="40.235467" lon="-4.918533">
        <ele>2293.0</ele>
        <time>2013-06-30T12:28:38Z</time>
      </trkpt>
      <trkpt lat="40.235350" lon="-4.918600">
        <ele>2291.0</ele>
        <time>2013-06-30T12:28:39Z</time>
      </trkpt>
      <trkpt lat="40.235233" lon="-4.918667">
        <ele>2291.0</ele>
        <time>2013-06-30T12:28:40Z</time>
      </trkpt>
      <trkpt lat="40.235133" lon="-4.918733">
        <ele>2291.0</ele>
        <time>2013-06-30T12:28:41Z</time>
      </trkpt>
      <trkpt lat="40.235050" lon="-4.918783">
        <ele>2290.0</ele>
        <time>2013-06-30T12:28:42Z</time>
      </trkpt>
      <trkpt lat="40.234967" lon="-4.918833">
        <ele>2289.0</ele>
        <time>2013-06-30T12:28:43Z</time>
      </trkpt>
      <trkpt lat="40.234867" lon="-4.918883">
        <ele>2286.0</ele>
        <time>2013-06-30T12:28:44Z</time>
      </trkpt>
      <trkpt lat="40.234767" lon="-4.918950">
        <ele>2282.0</ele>
        <time>2013-06-30T12:28:45Z</time>
      </trkpt>
      <trkpt lat="40.234633" lon="-4.919033">
        <ele>2280.0</ele>
        <time>2013-06-30T12:28:46Z</time>
      </trkpt>
      <trkpt lat="40.234517" lon="-4.919100">
        <ele>2280.0</ele>
        <time>2013-06-30T12:28:47Z</time>
      </trkpt>
      <trkpt lat="40.234417" lon="-4.919183">
        <ele>2282.0</ele>
        <time>2013-06-30T12:28:48Z</time>
      </trkpt>
      <trkpt lat="40.234350" lon="-4.919267">
        <ele>2283.0</ele>
        <time>2013-06-30T12:28:49Z</time>
      </trkpt>
      <trkpt lat="40.234283" lon="-4.919333">
        <ele>2283.0</ele>
        <time>2013-06-30T12:28:50Z</time>
      </trkpt>
      <trkpt lat="40.234200" lon="-4.919400">
        <ele>2282.0</ele>
        <time>2013-06-30T12:28:51Z</time>
      </trkpt>
      <trkpt lat="40.234117" lon="-4.919500">
        <ele>2281.0</ele>
        <time>2013-06-30T12:28:52Z</time>
      </trkpt>
      <trkpt lat="40.234033" lon="-4.919600">
        <ele>2280.0</ele>
        <time>2013-06-30T12:28:53Z</time>
      </trkpt>
      <trkpt lat="40.233950" lon="-4.919683">
        <ele>2278.0</ele>
        <time>2013-06-30T12:28:54Z</time>
      </trkpt>
      <trkpt lat="40.233867" lon="-4.919783">
        <ele>2277.0</ele>
        <time>2013-06-30T12:28:55Z</time>
      </trkpt>
      <trkpt lat="40.233783" lon="-4.919883">
        <ele>2276.0</ele>
        <time>2013-06-30T12:28:56Z</time>
      </trkpt>
      <trkpt lat="40.233700" lon="-4.919967">
        <ele>2274.0</ele>
        <time>2013-06-30T12:28:57Z</time>
      </trkpt>
      <trkpt lat="40.233617" lon="-4.920067">
        <ele>2273.0</ele>
        <time>2013-06-30T12:28:58Z</time>
      </trkpt>
      <trkpt lat="40.233550" lon="-4.920167">
        <ele>2272.0</ele>
        <time>2013-06-30T12:28:59Z</time>
      </trkpt>
      <trkpt lat="40.233483" lon="-4.920267">
        <ele>2270.0</ele>
        <time>2013-06-30T12:29:00Z</time>
      </trkpt>
      <trkpt lat="40.233417" lon="-4.920367">
        <ele>2268.0</ele>
        <time>2013-06-30T12:29:01Z</time>
      </trkpt>
      <trkpt lat="40.233350" lon="-4.920467">
        <ele>2266.0</ele>
        <time>2013-06-30T12:29:02Z</time>
      </trkpt>
      <trkpt lat="40.233283" lon="-4.920583">
        <ele>2264.0</ele>
        <time>2013-06-30T12:29:03Z</time>
      </trkpt>
      <trkpt lat="40.233200" lon="-4.920700">
        <ele>2262.0</ele>
        <time>2013-06-30T12:29:04Z</time>
      </trkpt>
      <trkpt lat="40.233133" lon="-4.920800">
        <ele>2261.0</ele>
        <time>2013-06-30T12:29:05Z</time>
      </trkpt>
      <trkpt lat="40.233067" lon="-4.920917">
        <ele>2261.0</ele>
        <time>2013-06-30T12:29:06Z</time>
      </trkpt>
      <trkpt lat="40.233017" lon="-4.921017">
        <ele>2261.0</ele>
        <time>2013-06-30T12:29:07Z</time>
      </trkpt>
      <trkpt lat="40.232950" lon="-4.921117">
        <ele>2259.0</ele>
        <time>2013-06-30T12:29:08Z</time>
      </trkpt>
      <trkpt lat="40.232900" lon="-4.921217">
        <ele>2257.0</ele>
        <time>2013-06-30T12:29:09Z</time>
      </trkpt>
      <trkpt lat="40.232833" lon="-4.921333">
        <ele>2255.0</ele>
        <time>2013-06-30T12:29:10Z</time>
      </trkpt>
      <trkpt lat="40.232767" lon="-4.921467">
        <ele>2254.0</ele>
        <time>2013-06-30T12:29:11Z</time>
      </trkpt>
      <trkpt lat="40.232700" lon="-4.921583">
        <ele>2253.0</ele>
        <time>2013-06-30T12:29:12Z</time>
      </trkpt>
      <trkpt lat="40.232633" lon="-4.921700">
        <ele>2253.0</ele>
        <time>2013-06-30T12:29:13Z</time>
      </trkpt>
      <trkpt lat="40.232583" lon="-4.921800">
        <ele>2253.0</ele>
        <time>2013-06-30T12:29:14Z</time>
      </trkpt>
      <trkpt lat="40.232517" lon="-4.921917">
        <ele>2252.0</ele>
        <time>2013-06-30T12:29:15Z</time>
      </trkpt>
      <trkpt lat="40.232450" lon="-4.922017">
        <ele>2250.0</ele>
        <time>2013-06-30T12:29:16Z</time>
      </trkpt>
      <trkpt lat="40.232383" lon="-4.922133">
        <ele>2249.0</ele>
        <time>2013-06-30T12:29:17Z</time>
      </trkpt>
      <trkpt lat="40.232333" lon="-4.922250">
        <ele>2248.0</ele>
        <time>2013-06-30T12:29:18Z</time>
      </trkpt>
      <trkpt lat="40.232267" lon="-4.922367">
        <ele>2248.0</ele>
        <time>2013-06-30T12:29:19Z</time>
      </trkpt>
      <trkpt lat="40.232200" lon="-4.922467">
        <ele>2247.0</ele>
        <time>2013-06-30T12:29:20Z</time>
      </trkpt>
      <trkpt lat="40.232150" lon="-4.922583">
        <ele>2246.0</ele>
        <time>2013-06-30T12:29:21Z</time>
      </trkpt>
      <trkpt lat="40.232100" lon="-4.922700">
        <ele>2245.0</ele>
        <time>2013-06-30T12:29:22Z</time>
      </trkpt>
      <trkpt lat="40.232083" lon="-4.922833">
        <ele>2243.0</ele>
        <time>2013-06-30T12:29:23Z</time>
      </trkpt>
      <trkpt lat="40.232067" lon="-4.922950">
        <ele>2242.0</ele>
        <time>2013-06-30T12:29:24Z</time>
      </trkpt>
      <trkpt lat="40.232083" lon="-4.923083">
        <ele>2240.0</ele>
        <time>2013-06-30T12:29:25Z</time>
      </trkpt>
      <trkpt lat="40.232100" lon="-4.923217">
        <ele>2238.0</ele>
        <time>2013-06-30T12:29:26Z</time>
      </trkpt>
      <trkpt lat="40.232117" lon="-4.923350">
        <ele>2237.0</ele>
        <time>2013-06-30T12:29:27Z</time>
      </trkpt>
      <trkpt lat="40.232117" lon="-4.923483">
        <ele>2236.0</ele>
        <time>2013-06-30T12:29:28Z</time>
      </trkpt>
      <trkpt lat="40.232100" lon="-4.923617">
        <ele>2235.0</ele>
        <time>2013-06-30T12:29:29Z</time>
      </trkpt>
      <trkpt lat="40.232083" lon="-4.923733">
        <ele>2234.0</ele>
        <time>2013-06-30T12:29:30Z</time>
      </trkpt>
      <trkpt lat="40.232050" lon="-4.923867">
        <ele>2233.0</ele>
        <time>2013-06-30T12:29:31Z</time>
      </trkpt>
      <trkpt lat="40.232017" lon="-4.924000">
        <ele>2232.0</ele>
        <time>2013-06-30T12:29:32Z</time>
      </trkpt>
      <trkpt lat="40.232000" lon="-4.924117">
        <ele>2231.0</ele>
        <time>2013-06-30T12:29:33Z</time>
      </trkpt>
      <trkpt lat="40.231967" lon="-4.924250">
        <ele>2231.0</ele>
        <time>2013-06-30T12:29:34Z</time>
      </trkpt>
      <trkpt lat="40.231933" lon="-4.924367">
        <ele>2230.0</ele>
        <time>2013-06-30T12:29:35Z</time>
      </trkpt>
      <trkpt lat="40.231883" lon="-4.924483">
        <ele>2229.0</ele>
        <time>2013-06-30T12:29:36Z</time>
      </trkpt>
      <trkpt lat="40.231833" lon="-4.924600">
        <ele>2228.0</ele>
        <time>2013-06-30T12:29:37Z</time>
      </trkpt>
      <trkpt lat="40.231767" lon="-4.924717">
        <ele>2227.0</ele>
        <time>2013-06-30T12:29:38Z</time>
      </trkpt>
      <trkpt lat="40.231717" lon="-4.924817">
        <ele>2226.0</ele>
        <time>2013-06-30T12:29:39Z</time>
      </trkpt>
      <trkpt lat="40.231667" lon="-4.924933">
        <ele>2225.0</ele>
        <time>2013-06-30T12:29:40Z</time>
      </trkpt>
      <trkpt lat="40.231600" lon="-4.925050">
        <ele>2224.0</ele>
        <time>2013-06-30T12:29:41Z</time>
      </trkpt>
      <trkpt lat="40.231550" lon="-4.925167">
        <ele>2223.0</ele>
        <time>2013-06-30T12:29:42Z</time>
      </trkpt>
      <trkpt lat="40.231500" lon="-4.925267">
        <ele>2222.0</ele>
        <time>2013-06-30T12:29:43Z</time>
      </trkpt>
      <trkpt lat="40.231450" lon="-4.925383">
        <ele>2221.0</ele>
        <time>2013-06-30T12:29:44Z</time>
      </trkpt>
      <trkpt lat="40.231400" lon="-4.925500">
        <ele>2220.0</ele>
        <time>2013-06-30T12:29:45Z</time>
      </trkpt>
      <trkpt lat="40.231350" lon="-4.925617">
        <ele>2218.0</ele>
        <time>2013-06-30T12:29:46Z</time>
      </trkpt>
      <trkpt lat="40.231300" lon="-4.925750">
        <ele>2217.0</ele>
        <time>2013-06-30T12:29:47Z</time>
      </trkpt>
      <trkpt lat="40.231267" lon="-4.925867">
        <ele>2215.0</ele>
        <time>2013-06-30T12:29:48Z</time>
      </trkpt>
      <trkpt lat="40.231217" lon="-4.926000">
        <ele>2214.0</ele>
        <time>2013-06-30T12:29:49Z</time>
      </trkpt>
      <trkpt lat="40.231167" lon="-4.926117">
        <ele>2213.0</ele>
        <time>2013-06-30T12:29:50Z</time>
      </trkpt>
      <trkpt lat="40.231133" lon="-4.926250">
        <ele>2211.0</ele>
        <time>2013-06-30T12:29:51Z</time>
      </trkpt>
      <trkpt lat="40.231100" lon="-4.926383">
        <ele>2210.0</ele>
        <time>2013-06-30T12:29:52Z</time>
      </trkpt>
      <trkpt lat="40.231050" lon="-4.926500">
        <ele>2208.0</ele>
        <time>2013-06-30T12:29:53Z</time>
      </trkpt>
      <trkpt lat="40.231017" lon="-4.926633">
        <ele>2207.0</ele>
        <time>2013-06-30T12:29:54Z</time>
      </trkpt>
      <trkpt lat="40.230967" lon="-4.926767">
        <ele>2205.0</ele>
        <time>2013-06-30T12:29:55Z</time>
      </trkpt>
      <trkpt lat="40.230933" lon="-4.926883">
        <ele>2204.0</ele>
        <time>2013-06-30T12:29:56Z</time>
      </trkpt>
      <trkpt lat="40.230883" lon="-4.927017">
        <ele>2203.0</ele>
        <time>2013-06-30T12:29:57Z</time>
      </trkpt>
      <trkpt lat="40.230833" lon="-4.927133">
        <ele>2202.0</ele>
        <time>2013-06-30T12:29:58Z</time>
      </trkpt>
      <trkpt lat="40.230800" lon="-4.927267">
        <ele>2200.0</ele>
        <time>2013-06-30T12:29:59Z</time>
      </trkpt>
      <trkpt lat="40.230767" lon="-4.927400">
        <ele>2199.0</ele>
        <time>2013-06-30T12:30:00Z</time>
      </trkpt>
      <trkpt lat="40.230717" lon="-4.927533">
        <ele>2198.0</ele>
        <time>2013-06-30T12:30:01Z</time>
      </trkpt>
      <trkpt lat="40.230683" lon="-4.927667">
        <ele>2196.0</ele>
        <time>2013-06-30T12:30:02Z</time>
      </trkpt>
      <trkpt lat="40.230650" lon="-4.927783">
        <ele>2195.0</ele>
        <time>2013-06-30T12:30:03Z</time>
      </trkpt>
      <trkpt lat="40.230617" lon="-4.927917">
        <ele>2193.0</ele>
        <time>2013-06-30T12:30:04Z</time>
      </trkpt>
      <trkpt lat="40.230583" lon="-4.928050">
        <ele>2191.0</ele>
        <time>2013-06-30T12:30:05Z</time>
      </trkpt>
      <trkpt lat="40.230567" lon="-4.928200">
        <ele>2189.0</ele>
        <time>2013-06-30T12:30:06Z</time>
      </trkpt>
      <trkpt lat="40.230533" lon="-4.928333">
        <ele>2188.0</ele>
        <time>2013-06-30T12:30:07Z</time>
      </trkpt>
      <trkpt lat="40.230517" lon="-4.928467">
        <ele>2187.0</ele>
        <time>2013-06-30T12:30:08Z</time>
      </trkpt>
      <trkpt lat="40.230483" lon="-4.928583">
        <ele>2185.0</ele>
        <time>2013-06-30T12:30:09Z</time>
      </trkpt>
      <trkpt lat="40.230450" lon="-4.928717">
        <ele>2183.0</ele>
        <time>2013-06-30T12:30:10Z</time>
      </trkpt>
      <trkpt lat="40.230433" lon="-4.928833">
        <ele>2182.0</ele>
        <time>2013-06-30T12:30:11Z</time>
      </trkpt>
      <trkpt lat="40.230400" lon="-4.928967">
        <ele>2180.0</ele>
        <time>2013-06-30T12:30:12Z</time>
      </trkpt>
      <trkpt lat="40.230367" lon="-4.929083">
        <ele>2179.0</ele>
        <time>2013-06-30T12:30:13Z</time>
      </trkpt>
      <trkpt lat="40.230350" lon="-4.929183">
        <ele>2177.0</ele>
        <time>2013-06-30T12:30:14Z</time>
      </trkpt>
      <trkpt lat="40.230317" lon="-4.929300">
        <ele>2174.0</ele>
        <time>2013-06-30T12:30:15Z</time>
      </trkpt>
      <trkpt lat="40.230283" lon="-4.929417">
        <ele>2171.0</ele>
        <time>2013-06-30T12:30:16Z</time>
      </trkpt>
      <trkpt lat="40.230233" lon="-4.929533">
        <ele>2168.0</ele>
        <time>2013-06-30T12:30:17Z</time>
      </trkpt>
      <trkpt lat="40.230200" lon="-4.929650">
        <ele>2166.0</ele>
        <time>2013-06-30T12:30:18Z</time>
      </trkpt>
      <trkpt lat="40.230167" lon="-4.929767">
        <ele>2164.0</ele>
        <time>2013-06-30T12:30:19Z</time>
      </trkpt>
      <trkpt lat="40.230133" lon="-4.929867">
        <ele>2162.0</ele>
        <time>2013-06-30T12:30:20Z</time>
      </trkpt>
      <trkpt lat="40.230083" lon="-4.929967">
        <ele>2161.0</ele>
        <time>2013-06-30T12:30:21Z</time>
      </trkpt>
      <trkpt lat="40.230050" lon="-4.930083">
        <ele>2158.0</ele>
        <time>2013-06-30T12:30:22Z</time>
      </trkpt>
      <trkpt lat="40.230017" lon="-4.930200">
        <ele>2156.0</ele>
        <time>2013-06-30T12:30:23Z</time>
      </trkpt>
      <trkpt lat="40.229983" lon="-4.930317">
        <ele>2153.0</ele>
        <time>2013-06-30T12:30:24Z</time>
      </trkpt>
      <trkpt lat="40.229967" lon="-4.930450">
        <ele>2151.0</ele>
        <time>2013-06-30T12:30:25Z</time>
      </trkpt>
      <trkpt lat="40.229950" lon="-4.930567">
        <ele>2149.0</ele>
        <time>2013-06-30T12:30:26Z</time>
      </trkpt>
      <trkpt lat="40.229917" lon="-4.930683">
        <ele>2147.0</ele>
        <time>2013-06-30T12:30:27Z</time>
      </trkpt>
      <trkpt lat="40.229883" lon="-4.930800">
        <ele>2145.0</ele>
        <time>2013-06-30T12:30:28Z</time>
      </trkpt>
      <trkpt lat="40.229850" lon="-4.930917">
        <ele>2143.0</ele>
        <time>2013-06-30T12:30:29Z</time>
      </trkpt>
      <trkpt lat="40.229817" lon="-4.931033">
        <ele>2141.0</ele>
        <time>2013-06-30T12:30:30Z</time>
      </trkpt>
      <trkpt lat="40.229783" lon="-4.931150">
        <ele>2139.0</ele>
        <time>2013-06-30T12:30:31Z</time>
      </trkpt>
      <trkpt lat="40.229733" lon="-4.931283">
        <ele>2137.0</ele>
        <time>2013-06-30T12:30:32Z</time>
      </trkpt>
      <trkpt lat="40.229667" lon="-4.931417">
        <ele>2136.0</ele>
        <time>2013-06-30T12:30:33Z</time>
      </trkpt>
      <trkpt lat="40.229617" lon="-4.931533">
        <ele>2136.0</ele>
        <time>2013-06-30T12:30:34Z</time>
      </trkpt>
      <trkpt lat="40.229567" lon="-4.931650">
        <ele>2136.0</ele>
        <time>2013-06-30T12:30:35Z</time>
      </trkpt>
      <trkpt lat="40.229517" lon="-4.931767">
        <ele>2136.0</ele>
        <time>2013-06-30T12:30:36Z</time>
      </trkpt>
      <trkpt lat="40.229467" lon="-4.931883">
        <ele>2136.0</ele>
        <time>2013-06-30T12:30:37Z</time>
      </trkpt>
      <trkpt lat="40.229433" lon="-4.932000">
        <ele>2134.0</ele>
        <time>2013-06-30T12:30:38Z</time>
      </trkpt>
      <trkpt lat="40.229383" lon="-4.932117">
        <ele>2134.0</ele>
        <time>2013-06-30T12:30:39Z</time>
      </trkpt>
      <trkpt lat="40.229333" lon="-4.932250">
        <ele>2133.0</ele>
        <time>2013-06-30T12:30:40Z</time>
      </trkpt>
      <trkpt lat="40.229283" lon="-4.932367">
        <ele>2134.0</ele>
        <time>2013-06-30T12:30:41Z</time>
      </trkpt>
      <trkpt lat="40.229233" lon="-4.932467">
        <ele>2136.0</ele>
        <time>2013-06-30T12:30:42Z</time>
      </trkpt>
      <trkpt lat="40.229183" lon="-4.932550">
        <ele>2137.0</ele>
        <time>2013-06-30T12:30:43Z</time>
      </trkpt>
      <trkpt lat="40.229133" lon="-4.932633">
        <ele>2138.0</ele>
        <time>2013-06-30T12:30:44Z</time>
      </trkpt>
      <trkpt lat="40.229083" lon="-4.932717">
        <ele>2139.0</ele>
        <time>2013-06-30T12:30:45Z</time>
      </trkpt>
      <trkpt lat="40.229050" lon="-4.932783">
        <ele>2138.0</ele>
        <time>2013-06-30T12:30:46Z</time>
      </trkpt>
      <trkpt lat="40.229017" lon="-4.932867">
        <ele>2138.0</ele>
        <time>2013-06-30T12:30:47Z</time>
      </trkpt>
      <trkpt lat="40.228967" lon="-4.932950">
        <ele>2137.0</ele>
        <time>2013-06-30T12:30:48Z</time>
      </trkpt>
      <trkpt lat="40.228933" lon="-4.933050">
        <ele>2136.0</ele>
        <time>2013-06-30T12:30:49Z</time>
      </trkpt>
      <trkpt lat="40.228883" lon="-4.933167">
        <ele>2134.0</ele>
        <time>2013-06-30T12:30:50Z</time>
      </trkpt>
      <trkpt lat="40.228833" lon="-4.933283">
        <ele>2133.0</ele>
        <time>2013-06-30T12:30:51Z</time>
      </trkpt>
      <trkpt lat="40.228783" lon="-4.933400">
        <ele>2132.0</ele>
        <time>2013-06-30T12:30:52Z</time>
      </trkpt>
      <trkpt lat="40.228733" lon="-4.933517">
        <ele>2132.0</ele>
        <time>2013-06-30T12:30:53Z</time>
      </trkpt>
      <trkpt lat="40.228683" lon="-4.933633">
        <ele>2132.0</ele>
        <time>2013-06-30T12:30:54Z</time>
      </trkpt>
      <trkpt lat="40.228633" lon="-4.933750">
        <ele>2131.0</ele>
        <time>2013-06-30T12:30:55Z</time>
      </trkpt>
      <trkpt lat="40.228600" lon="-4.933867">
        <ele>2131.0</ele>
        <time>2013-06-30T12:30:56Z</time>
      </trkpt>
      <trkpt lat="40.228550" lon="-4.933967">
        <ele>2131.0</ele>
        <time>2013-06-30T12:30:57Z</time>
      </trkpt>
      <trkpt lat="40.228500" lon="-4.934083">
        <ele>2129.0</ele>
        <time>2013-06-30T12:30:58Z</time>
      </trkpt>
      <trkpt lat="40.228450" lon="-4.934200">
        <ele>2128.0</ele>
        <time>2013-06-30T12:30:59Z</time>
      </trkpt>
      <trkpt lat="40.228400" lon="-4.934317">
        <ele>2128.0</ele>
        <time>2013-06-30T12:31:00Z</time>
      </trkpt>
      <trkpt lat="40.228333" lon="-4.934433">
        <ele>2127.0</ele>
        <time>2013-06-30T12:31:01Z</time>
      </trkpt>
      <trkpt lat="40.228283" lon="-4.934533">
        <ele>2127.0</ele>
        <time>2013-06-30T12:31:02Z</time>
      </trkpt>
      <trkpt lat="40.228233" lon="-4.934650">
        <ele>2126.0</ele>
        <time>2013-06-30T12:31:03Z</time>
      </trkpt>
      <trkpt lat="40.228183" lon="-4.934767">
        <ele>2126.0</ele>
        <time>2013-06-30T12:31:04Z</time>
      </trkpt>
      <trkpt lat="40.228133" lon="-4.934883">
        <ele>2124.0</ele>
        <time>2013-06-30T12:31:05Z</time>
      </trkpt>
      <trkpt lat="40.228067" lon="-4.935017">
        <ele>2123.0</ele>
        <time>2013-06-30T12:31:06Z</time>
      </trkpt>
      <trkpt lat="40.228000" lon="-4.935150">
        <ele>2123.0</ele>
        <time>2013-06-30T12:31:07Z</time>
      </trkpt>
      <trkpt lat="40.227933" lon="-4.935267">
        <ele>2124.0</ele>
        <time>2013-06-30T12:31:08Z</time>
      </trkpt>
      <trkpt lat="40.227883" lon="-4.935383">
        <ele>2125.0</ele>
        <time>2013-06-30T12:31:09Z</time>
      </trkpt>
      <trkpt lat="40.227850" lon="-4.935467">
        <ele>2126.0</ele>
        <time>2013-06-30T12:31:10Z</time>
      </trkpt>
      <trkpt lat="40.227800" lon="-4.935567">
        <ele>2127.0</ele>
        <time>2013-06-30T12:31:11Z</time>
      </trkpt>
      <trkpt lat="40.227783" lon="-4.935667">
        <ele>2128.0</ele>
        <time>2013-06-30T12:31:12Z</time>
      </trkpt>
      <trkpt lat="40.227750" lon="-4.935783">
        <ele>2129.0</ele>
        <time>2013-06-30T12:31:13Z</time>
      </trkpt>
      <trkpt lat="40.227733" lon="-4.935917">
        <ele>2131.0</ele>
        <time>2013-06-30T12:31:14Z</time>
      </trkpt>
      <trkpt lat="40.227733" lon="-4.936033">
        <ele>2134.0</ele>
        <time>2013-06-30T12:31:15Z</time>
      </trkpt>
      <trkpt lat="40.227767" lon="-4.936117">
        <ele>2136.0</ele>
        <time>2013-06-30T12:31:16Z</time>
      </trkpt>
      <trkpt lat="40.227767" lon="-4.936200">
        <ele>2138.0</ele>
        <time>2013-06-30T12:31:17Z</time>
      </trkpt>
      <trkpt lat="40.227783" lon="-4.936283">
        <ele>2138.0</ele>
        <time>2013-06-30T12:31:18Z</time>
      </trkpt>
      <trkpt lat="40.227783" lon="-4.936400">
        <ele>2138.0</ele>
        <time>2013-06-30T12:31:19Z</time>
      </trkpt>
      <trkpt lat="40.227783" lon="-4.936500">
        <ele>2139.0</ele>
        <time>2013-06-30T12:31:20Z</time>
      </trkpt>
      <trkpt lat="40.227817" lon="-4.936600">
        <ele>2140.0</ele>
        <time>2013-06-30T12:31:21Z</time>
      </trkpt>
      <trkpt lat="40.227833" lon="-4.936700">
        <ele>2141.0</ele>
        <time>2013-06-30T12:31:22Z</time>
      </trkpt>
      <trkpt lat="40.227850" lon="-4.936767">
        <ele>2141.0</ele>
        <time>2013-06-30T12:31:23Z</time>
      </trkpt>
      <trkpt lat="40.227883" lon="-4.936850">
        <ele>2140.0</ele>
        <time>2013-06-30T12:31:24Z</time>
      </trkpt>
      <trkpt lat="40.227900" lon="-4.936950">
        <ele>2138.0</ele>
        <time>2013-06-30T12:31:25Z</time>
      </trkpt>
      <trkpt lat="40.227950" lon="-4.937050">
        <ele>2137.0</ele>
        <time>2013-06-30T12:31:26Z</time>
      </trkpt>
      <trkpt lat="40.227983" lon="-4.937167">
        <ele>2137.0</ele>
        <time>2013-06-30T12:31:27Z</time>
      </trkpt>
      <trkpt lat="40.228033" lon="-4.937283">
        <ele>2137.0</ele>
        <time>2013-06-30T12:31:28Z</time>
      </trkpt>
      <trkpt lat="40.228050" lon="-4.937417">
        <ele>2138.0</ele>
        <time>2013-06-30T12:31:29Z</time>
      </trkpt>
      <trkpt lat="40.228067" lon="-4.937550">
        <ele>2140.0</ele>
        <time>2013-06-30T12:31:30Z</time>
      </trkpt>
      <trkpt lat="40.228067" lon="-4.937667">
        <ele>2142.0</ele>
        <time>2013-06-30T12:31:31Z</time>
      </trkpt>
      <trkpt lat="40.228083" lon="-4.937767">
        <ele>2144.0</ele>
        <time>2013-06-30T12:31:32Z</time>
      </trkpt>
      <trkpt lat="40.228100" lon="-4.937867">
        <ele>2146.0</ele>
        <time>2013-06-30T12:31:33Z</time>
      </trkpt>
      <trkpt lat="40.228117" lon="-4.937983">
        <ele>2147.0</ele>
        <time>2013-06-30T12:31:34Z</time>
      </trkpt>
      <trkpt lat="40.228117" lon="-4.938100">
        <ele>2148.0</ele>
        <time>2013-06-30T12:31:35Z</time>
      </trkpt>
      <trkpt lat="40.228117" lon="-4.938217">
        <ele>2149.0</ele>
        <time>2013-06-30T12:31:36Z</time>
      </trkpt>
      <trkpt lat="40.228100" lon="-4.938317">
        <ele>2150.0</ele>
        <time>2013-06-30T12:31:37Z</time>
      </trkpt>
      <trkpt lat="40.228083" lon="-4.938433">
        <ele>2150.0</ele>
        <time>2013-06-30T12:31:38Z</time>
      </trkpt>
      <trkpt lat="40.228050" lon="-4.938550">
        <ele>2151.0</ele>
        <time>2013-06-30T12:31:39Z</time>
      </trkpt>
      <trkpt lat="40.228017" lon="-4.938633">
        <ele>2152.0</ele>
        <time>2013-06-30T12:31:40Z</time>
      </trkpt>
      <trkpt lat="40.227950" lon="-4.938733">
        <ele>2153.0</ele>
        <time>2013-06-30T12:31:41Z</time>
      </trkpt>
      <trkpt lat="40.227867" lon="-4.938817">
        <ele>2154.0</ele>
        <time>2013-06-30T12:31:42Z</time>
      </trkpt>
      <trkpt lat="40.227783" lon="-4.938883">
        <ele>2155.0</ele>
        <time>2013-06-30T12:31:43Z</time>
      </trkpt>
      <trkpt lat="40.227700" lon="-4.938950">
        <ele>2158.0</ele>
        <time>2013-06-30T12:31:44Z</time>
      </trkpt>
      <trkpt lat="40.227633" lon="-4.939000">
        <ele>2160.0</ele>
        <time>2013-06-30T12:31:45Z</time>
      </trkpt>
      <trkpt lat="40.227550" lon="-4.939033">
        <ele>2161.0</ele>
        <time>2013-06-30T12:31:46Z</time>
      </trkpt>
      <trkpt lat="40.227467" lon="-4.939050">
        <ele>2161.0</ele>
        <time>2013-06-30T12:31:47Z</time>
      </trkpt>
      <trkpt lat="40.227367" lon="-4.939033">
        <ele>2160.0</ele>
        <time>2013-06-30T12:31:48Z</time>
      </trkpt>
      <trkpt lat="40.227267" lon="-4.939017">
        <ele>2160.0</ele>
        <time>2013-06-30T12:31:49Z</time>
      </trkpt>
      <trkpt lat="40.227183" lon="-4.939000">
        <ele>2161.0</ele>
        <time>2013-06-30T12:31:50Z</time>
      </trkpt>
      <trkpt lat="40.227100" lon="-4.938983">
        <ele>2162.0</ele>
        <time>2013-06-30T12:31:51Z</time>
      </trkpt>
      <trkpt lat="40.227017" lon="-4.938967">
        <ele>2163.0</ele>
        <time>2013-06-30T12:31:52Z</time>
      </trkpt>
      <trkpt lat="40.226950" lon="-4.938950">
        <ele>2163.0</ele>
        <time>2013-06-30T12:31:53Z</time>
      </trkpt>
      <trkpt lat="40.226883" lon="-4.938900">
        <ele>2163.0</ele>
        <time>2013-06-30T12:31:54Z</time>
      </trkpt>
      <trkpt lat="40.226817" lon="-4.938850">
        <ele>2162.0</ele>
        <time>2013-06-30T12:31:55Z</time>
      </trkpt>
      <trkpt lat="40.226767" lon="-4.938767">
        <ele>2161.0</ele>
        <time>2013-06-30T12:31:56Z</time>
      </trkpt>
      <trkpt lat="40.226750" lon="-4.938683">
        <ele>2160.0</ele>
        <time>2013-06-30T12:31:57Z</time>
      </trkpt>
      <trkpt lat="40.226750" lon="-4.938583">
        <ele>2159.0</ele>
        <time>2013-06-30T12:31:58Z</time>
      </trkpt>
      <trkpt lat="40.226783" lon="-4.938517">
        <ele>2159.0</ele>
        <time>2013-06-30T12:31:59Z</time>
      </trkpt>
      <trkpt lat="40.226817" lon="-4.938483">
        <ele>2159.0</ele>
        <time>2013-06-30T12:32:00Z</time>
      </trkpt>
      <trkpt lat="40.226883" lon="-4.938450">
        <ele>2158.0</ele>
        <time>2013-06-30T12:32:01Z</time>
      </trkpt>
      <trkpt lat="40.226933" lon="-4.938433">
        <ele>2159.0</ele>
        <time>2013-06-30T12:32:02Z</time>
      </trkpt>
      <trkpt lat="40.227000" lon="-4.938433">
        <ele>2159.0</ele>
        <time>2013-06-30T12:32:03Z</time>
      </trkpt>
      <trkpt lat="40.227067" lon="-4.938433">
        <ele>2159.0</ele>
        <time>2013-06-30T12:32:04Z</time>
      </trkpt>
      <trkpt lat="40.227133" lon="-4.938450">
        <ele>2159.0</ele>
        <time>2013-06-30T12:32:05Z</time>
      </trkpt>
      <trkpt lat="40.227183" lon="-4.938500">
        <ele>2160.0</ele>
        <time>2013-06-30T12:32:06Z</time>
      </trkpt>
      <trkpt lat="40.227233" lon="-4.938567">
        <ele>2159.0</ele>
        <time>2013-06-30T12:32:07Z</time>
      </trkpt>
      <trkpt lat="40.227300" lon="-4.938650">
        <ele>2158.0</ele>
        <time>2013-06-30T12:32:08Z</time>
      </trkpt>
      <trkpt lat="40.227367" lon="-4.938717">
        <ele>2158.0</ele>
        <time>2013-06-30T12:32:09Z</time>
      </trkpt>
      <trkpt lat="40.227450" lon="-4.938767">
        <ele>2158.0</ele>
        <time>2013-06-30T12:32:10Z</time>
      </trkpt>
      <trkpt lat="40.227517" lon="-4.938817">
        <ele>2158.0</ele>
        <time>2013-06-30T12:32:11Z</time>
      </trkpt>
      <trkpt lat="40.227600" lon="-4.938883">
        <ele>2159.0</ele>
        <time>2013-06-30T12:32:12Z</time>
      </trkpt>
      <trkpt lat="40.227650" lon="-4.938950">
        <ele>2160.0</ele>
        <time>2013-06-30T12:32:13Z</time>
      </trkpt>
      <trkpt lat="40.227717" lon="-4.939033">
        <ele>2163.0</ele>
        <time>2013-06-30T12:32:14Z</time>
      </trkpt>
      <trkpt lat="40.227767" lon="-4.939100">
        <ele>2166.0</ele>
        <time>2013-06-30T12:32:15Z</time>
      </trkpt>
      <trkpt lat="40.227800" lon="-4.939150">
        <ele>2168.0</ele>
        <time>2013-06-30T12:32:16Z</time>
      </trkpt>
      <trkpt lat="40.227833" lon="-4.939217">
        <ele>2169.0</ele>
        <time>2013-06-30T12:32:17Z</time>
      </trkpt>
      <trkpt lat="40.227883" lon="-4.939300">
        <ele>2170.0</ele>
        <time>2013-06-30T12:32:18Z</time>
      </trkpt>
      <trkpt lat="40.227900" lon="-4.939400">
        <ele>2171.0</ele>
        <time>2013-06-30T12:32:19Z</time>
      </trkpt>
      <trkpt lat="40.227917" lon="-4.939500">
        <ele>2172.0</ele>
        <time>2013-06-30T12:32:20Z</time>
      </trkpt>
      <trkpt lat="40.227883" lon="-4.939617">
        <ele>2172.0</ele>
        <time>2013-06-30T12:32:21Z</time>
      </trkpt>
      <trkpt lat="40.227833" lon="-4.939717">
        <ele>2173.0</ele>
        <time>2013-06-30T12:32:22Z</time>
      </trkpt>
      <trkpt lat="40.227767" lon="-4.939800">
        <ele>2173.0</ele>
        <time>2013-06-30T12:32:23Z</time>
      </trkpt>
      <trkpt lat="40.227683" lon="-4.939850">
        <ele>2175.0</ele>
        <time>2013-06-30T12:32:24Z</time>
      </trkpt>
      <trkpt lat="40.227600" lon="-4.939883">
        <ele>2177.0</ele>
        <time>2013-06-30T12:32:25Z</time>
      </trkpt>
      <trkpt lat="40.227533" lon="-4.939900">
        <ele>2177.0</ele>
        <time>2013-06-30T12:32:26Z</time>
      </trkpt>
      <trkpt lat="40.227450" lon="-4.939917">
        <ele>2178.0</ele>
        <time>2013-06-30T12:32:27Z</time>
      </trkpt>
      <trkpt lat="40.227350" lon="-4.939917">
        <ele>2178.0</ele>
        <time>2013-06-30T12:32:28Z</time>
      </trkpt>
      <trkpt lat="40.227250" lon="-4.939900">
        <ele>2178.0</ele>
        <time>2013-06-30T12:32:29Z</time>
      </trkpt>
      <trkpt lat="40.227167" lon="-4.939867">
        <ele>2180.0</ele>
        <time>2013-06-30T12:32:30Z</time>
      </trkpt>
      <trkpt lat="40.227083" lon="-4.939817">
        <ele>2182.0</ele>
        <time>2013-06-30T12:32:31Z</time>
      </trkpt>
      <trkpt lat="40.227033" lon="-4.939767">
        <ele>2183.0</ele>
        <time>2013-06-30T12:32:32Z</time>
      </trkpt>
      <trkpt lat="40.226983" lon="-4.939700">
        <ele>2184.0</ele>
        <time>2013-06-30T12:32:33Z</time>
      </trkpt>
      <trkpt lat="40.226950" lon="-4.939617">
        <ele>2184.0</ele>
        <time>2013-06-30T12:32:34Z</time>
      </trkpt>
      <trkpt lat="40.226950" lon="-4.939533">
        <ele>2183.0</ele>
        <time>2013-06-30T12:32:35Z</time>
      </trkpt>
      <trkpt lat="40.226983" lon="-4.939467">
        <ele>2182.0</ele>
        <time>2013-06-30T12:32:36Z</time>
      </trkpt>
      <trkpt lat="40.227017" lon="-4.939400">
        <ele>2181.0</ele>
        <time>2013-06-30T12:32:37Z</time>
      </trkpt>
      <trkpt lat="40.227083" lon="-4.939350">
        <ele>2181.0</ele>
        <time>2013-06-30T12:32:38Z</time>
      </trkpt>
      <trkpt lat="40.227150" lon="-4.939317">
        <ele>2181.0</ele>
        <time>2013-06-30T12:32:39Z</time>
      </trkpt>
      <trkpt lat="40.227233" lon="-4.939317">
        <ele>2182.0</ele>
        <time>2013-06-30T12:32:40Z</time>
      </trkpt>
      <trkpt lat="40.227300" lon="-4.939333">
        <ele>2183.0</ele>
        <time>2013-06-30T12:32:41Z</time>
      </trkpt>
      <trkpt lat="40.227367" lon="-4.939350">
        <ele>2185.0</ele>
        <time>2013-06-30T12:32:42Z</time>
      </trkpt>
      <trkpt lat="40.227433" lon="-4.939383">
        <ele>2187.0</ele>
        <time>2013-06-30T12:32:43Z</time>
      </trkpt>
      <trkpt lat="40.227483" lon="-4.939417">
        <ele>2189.0</ele>
        <time>2013-06-30T12:32:44Z</time>
      </trkpt>
      <trkpt lat="40.227533" lon="-4.939467">
        <ele>2191.0</ele>
        <time>2013-06-30T12:32:45Z</time>
      </trkpt>
      <trkpt lat="40.227567" lon="-4.939517">
        <ele>2192.0</ele>
        <time>2013-06-30T12:32:46Z</time>
      </trkpt>
      <trkpt lat="40.227600" lon="-4.939567">
        <ele>2192.0</ele>
        <time>2013-06-30T12:32:47Z</time>
      </trkpt>
      <trkpt lat="40.227617" lon="-4.939617">
        <ele>2192.0</ele>
        <time>2013-06-30T12:32:48Z</time>
      </trkpt>
      <trkpt lat="40.227650" lon="-4.939683">
        <ele>2192.0</ele>
        <time>2013-06-30T12:32:49Z</time>
      </trkpt>
      <trkpt lat="40.227683" lon="-4.939783">
        <ele>2191.0</ele>
        <time>2013-06-30T12:32:50Z</time>
      </trkpt>
      <trkpt lat="40.227667" lon="-4.939900">
        <ele>2191.0</ele>
        <time>2013-06-30T12:32:51Z</time>
      </trkpt>
      <trkpt lat="40.227633" lon="-4.940000">
        <ele>2192.0</ele>
        <time>2013-06-30T12:32:52Z</time>
      </trkpt>
      <trkpt lat="40.227583" lon="-4.940100">
        <ele>2193.0</ele>
        <time>2013-06-30T12:32:53Z</time>
      </trkpt>
      <trkpt lat="40.227517" lon="-4.940167">
        <ele>2194.0</ele>
        <time>2013-06-30T12:32:54Z</time>
      </trkpt>
      <trkpt lat="40.227433" lon="-4.940233">
        <ele>2195.0</ele>
        <time>2013-06-30T12:32:55Z</time>
      </trkpt>
      <trkpt lat="40.227367" lon="-4.940300">
        <ele>2196.0</ele>
        <time>2013-06-30T12:32:56Z</time>
      </trkpt>
      <trkpt lat="40.227317" lon="-4.940383">
        <ele>2196.0</ele>
        <time>2013-06-30T12:32:57Z</time>
      </trkpt>
      <trkpt lat="40.227250" lon="-4.940467">
        <ele>2196.0</ele>
        <time>2013-06-30T12:32:58Z</time>
      </trkpt>
      <trkpt lat="40.227167" lon="-4.940550">
        <ele>2196.0</ele>
        <time>2013-06-30T12:32:59Z</time>
      </trkpt>
      <trkpt lat="40.227083" lon="-4.940617">
        <ele>2197.0</ele>
        <time>2013-06-30T12:33:00Z</time>
      </trkpt>
      <trkpt lat="40.227000" lon="-4.940683">
        <ele>2198.0</ele>
        <time>2013-06-30T12:33:01Z</time>
      </trkpt>
      <trkpt lat="40.226917" lon="-4.940733">
        <ele>2199.0</ele>
        <time>2013-06-30T12:33:02Z</time>
      </trkpt>
      <trkpt lat="40.226833" lon="-4.940783">
        <ele>2199.0</ele>
        <time>2013-06-30T12:33:03Z</time>
      </trkpt>
      <trkpt lat="40.226733" lon="-4.940833">
        <ele>2199.0</ele>
        <time>2013-06-30T12:33:04Z</time>
      </trkpt>
      <trkpt lat="40.226633" lon="-4.940900">
        <ele>2200.0</ele>
        <time>2013-06-30T12:33:05Z</time>
      </trkpt>
      <trkpt lat="40.226533" lon="-4.940950">
        <ele>2200.0</ele>
        <time>2013-06-30T12:33:06Z</time>
      </trkpt>
      <trkpt lat="40.226433" lon="-4.941000">
        <ele>2201.0</ele>
        <time>2013-06-30T12:33:07Z</time>
      </trkpt>
      <trkpt lat="40.226333" lon="-4.941033">
        <ele>2202.0</ele>
        <time>2013-06-30T12:33:08Z</time>
      </trkpt>
      <trkpt lat="40.226233" lon="-4.941067">
        <ele>2203.0</ele>
        <time>2013-06-30T12:33:09Z</time>
      </trkpt>
      <trkpt lat="40.226133" lon="-4.941100">
        <ele>2204.0</ele>
        <time>2013-06-30T12:33:10Z</time>
      </trkpt>
      <trkpt lat="40.226033" lon="-4.941100">
        <ele>2205.0</ele>
        <time>2013-06-30T12:33:11Z</time>
      </trkpt>
      <trkpt lat="40.225933" lon="-4.941117">
        <ele>2205.0</ele>
        <time>2013-06-30T12:33:12Z</time>
      </trkpt>
      <trkpt lat="40.225867" lon="-4.941133">
        <ele>2205.0</ele>
        <time>2013-06-30T12:33:13Z</time>
      </trkpt>
      <trkpt lat="40.225783" lon="-4.941167">
        <ele>2204.0</ele>
        <time>2013-06-30T12:33:14Z</time>
      </trkpt>
      <trkpt lat="40.225700" lon="-4.941217">
        <ele>2202.0</ele>
        <time>2013-06-30T12:33:15Z</time>
      </trkpt>
      <trkpt lat="40.225600" lon="-4.941300">
        <ele>2199.0</ele>
        <time>2013-06-30T12:33:16Z</time>
      </trkpt>
      <trkpt lat="40.225517" lon="-4.941400">
        <ele>2197.0</ele>
        <time>2013-06-30T12:33:17Z</time>
      </trkpt>
      <trkpt lat="40.225450" lon="-4.941517">
        <ele>2196.0</ele>
        <time>2013-06-30T12:33:18Z</time>
      </trkpt>
      <trkpt lat="40.225367" lon="-4.941633">
        <ele>2195.0</ele>
        <time>2013-06-30T12:33:19Z</time>
      </trkpt>
      <trkpt lat="40.225283" lon="-4.941750">
        <ele>2195.0</ele>
        <time>2013-06-30T12:33:20Z</time>
      </trkpt>
      <trkpt lat="40.225217" lon="-4.941850">
        <ele>2195.0</ele>
        <time>2013-06-30T12:33:21Z</time>
      </trkpt>
      <trkpt lat="40.225150" lon="-4.941950">
        <ele>2194.0</ele>
        <time>2013-06-30T12:33:22Z</time>
      </trkpt>
      <trkpt lat="40.225100" lon="-4.942050">
        <ele>2192.0</ele>
        <time>2013-06-30T12:33:23Z</time>
      </trkpt>
      <trkpt lat="40.225033" lon="-4.942167">
        <ele>2190.0</ele>
        <time>2013-06-30T12:33:24Z</time>
      </trkpt>
      <trkpt lat="40.224983" lon="-4.942283">
        <ele>2188.0</ele>
        <time>2013-06-30T12:33:25Z</time>
      </trkpt>
      <trkpt lat="40.224917" lon="-4.942417">
        <ele>2187.0</ele>
        <time>2013-06-30T12:33:26Z</time>
      </trkpt>
      <trkpt lat="40.224867" lon="-4.942533">
        <ele>2187.0</ele>
        <time>2013-06-30T12:33:27Z</time>
      </trkpt>
      <trkpt lat="40.224817" lon="-4.942650">
        <ele>2187.0</ele>
        <time>2013-06-30T12:33:28Z</time>
      </trkpt>
      <trkpt lat="40.224767" lon="-4.942767">
        <ele>2185.0</ele>
        <time>2013-06-30T12:33:29Z</time>
      </trkpt>
      <trkpt lat="40.224733" lon="-4.942883">
        <ele>2183.0</ele>
        <time>2013-06-30T12:33:30Z</time>
      </trkpt>
      <trkpt lat="40.224700" lon="-4.943017">
        <ele>2181.0</ele>
        <time>2013-06-30T12:33:31Z</time>
      </trkpt>
      <trkpt lat="40.224667" lon="-4.943133">
        <ele>2179.0</ele>
        <time>2013-06-30T12:33:32Z</time>
      </trkpt>
      <trkpt lat="40.224633" lon="-4.943267">
        <ele>2176.0</ele>
        <time>2013-06-30T12:33:33Z</time>
      </trkpt>
      <trkpt lat="40.224600" lon="-4.943383">
        <ele>2174.0</ele>
        <time>2013-06-30T12:33:34Z</time>
      </trkpt>
      <trkpt lat="40.224583" lon="-4.943500">
        <ele>2171.0</ele>
        <time>2013-06-30T12:33:35Z</time>
      </trkpt>
      <trkpt lat="40.224567" lon="-4.943617">
        <ele>2168.0</ele>
        <time>2013-06-30T12:33:36Z</time>
      </trkpt>
      <trkpt lat="40.224550" lon="-4.943750">
        <ele>2166.0</ele>
        <time>2013-06-30T12:33:37Z</time>
      </trkpt>
      <trkpt lat="40.224517" lon="-4.943867">
        <ele>2163.0</ele>
        <time>2013-06-30T12:33:38Z</time>
      </trkpt>
      <trkpt lat="40.224483" lon="-4.943983">
        <ele>2161.0</ele>
        <time>2013-06-30T12:33:39Z</time>
      </trkpt>
      <trkpt lat="40.224450" lon="-4.944100">
        <ele>2159.0</ele>
        <time>2013-06-30T12:33:40Z</time>
      </trkpt>
      <trkpt lat="40.224417" lon="-4.944217">
        <ele>2157.0</ele>
        <time>2013-06-30T12:33:41Z</time>
      </trkpt>
      <trkpt lat="40.224383" lon="-4.944317">
        <ele>2155.0</ele>
        <time>2013-06-30T12:33:42Z</time>
      </trkpt>
      <trkpt lat="40.224350" lon="-4.944433">
        <ele>2152.0</ele>
        <time>2013-06-30T12:33:43Z</time>
      </trkpt>
      <trkpt lat="40.224300" lon="-4.944533">
        <ele>2149.0</ele>
        <time>2013-06-30T12:33:44Z</time>
      </trkpt>
      <trkpt lat="40.224250" lon="-4.944633">
        <ele>2146.0</ele>
        <time>2013-06-30T12:33:45Z</time>
      </trkpt>
      <trkpt lat="40.224200" lon="-4.944733">
        <ele>2143.0</ele>
        <time>2013-06-30T12:33:46Z</time>
      </trkpt>
      <trkpt lat="40.224167" lon="-4.944833">
        <ele>2139.0</ele>
        <time>2013-06-30T12:33:47Z</time>
      </trkpt>
      <trkpt lat="40.224133" lon="-4.944933">
        <ele>2135.0</ele>
        <time>2013-06-30T12:33:48Z</time>
      </trkpt>
      <trkpt lat="40.224117" lon="-4.945050">
        <ele>2131.0</ele>
        <time>2013-06-30T12:33:49Z</time>
      </trkpt>
      <trkpt lat="40.224100" lon="-4.945183">
        <ele>2128.0</ele>
        <time>2013-06-30T12:33:50Z</time>
      </trkpt>
      <trkpt lat="40.224083" lon="-4.945300">
        <ele>2125.0</ele>
        <time>2013-06-30T12:33:51Z</time>
      </trkpt>
      <trkpt lat="40.224083" lon="-4.945433">
        <ele>2122.0</ele>
        <time>2013-06-30T12:33:52Z</time>
      </trkpt>
      <trkpt lat="40.224083" lon="-4.945567">
        <ele>2120.0</ele>
        <time>2013-06-30T12:33:53Z</time>
      </trkpt>
      <trkpt lat="40.224083" lon="-4.945683">
        <ele>2117.0</ele>
        <time>2013-06-30T12:33:54Z</time>
      </trkpt>
      <trkpt lat="40.224083" lon="-4.945800">
        <ele>2116.0</ele>
        <time>2013-06-30T12:33:55Z</time>
      </trkpt>
      <trkpt lat="40.224083" lon="-4.945933">
        <ele>2114.0</ele>
        <time>2013-06-30T12:33:56Z</time>
      </trkpt>
      <trkpt lat="40.224083" lon="-4.946050">
        <ele>2111.0</ele>
        <time>2013-06-30T12:33:57Z</time>
      </trkpt>
      <trkpt lat="40.224100" lon="-4.946183">
        <ele>2109.0</ele>
        <time>2013-06-30T12:33:58Z</time>
      </trkpt>
      <trkpt lat="40.224117" lon="-4.946300">
        <ele>2107.0</ele>
        <time>2013-06-30T12:33:59Z</time>
      </trkpt>
      <trkpt lat="40.224117" lon="-4.946417">
        <ele>2105.0</ele>
        <time>2013-06-30T12:34:00Z</time>
      </trkpt>
      <trkpt lat="40.224117" lon="-4.946550">
        <ele>2104.0</ele>
        <time>2013-06-30T12:34:01Z</time>
      </trkpt>
      <trkpt lat="40.224100" lon="-4.946667">
        <ele>2102.0</ele>
        <time>2013-06-30T12:34:02Z</time>
      </trkpt>
      <trkpt lat="40.224100" lon="-4.946800">
        <ele>2100.0</ele>
        <time>2013-06-30T12:34:03Z</time>
      </trkpt>
      <trkpt lat="40.224083" lon="-4.946950">
        <ele>2098.0</ele>
        <time>2013-06-30T12:34:04Z</time>
      </trkpt>
      <trkpt lat="40.224067" lon="-4.947083">
        <ele>2097.0</ele>
        <time>2013-06-30T12:34:05Z</time>
      </trkpt>
      <trkpt lat="40.224050" lon="-4.947217">
        <ele>2096.0</ele>
        <time>2013-06-30T12:34:06Z</time>
      </trkpt>
      <trkpt lat="40.224033" lon="-4.947333">
        <ele>2095.0</ele>
        <time>2013-06-30T12:34:07Z</time>
      </trkpt>
      <trkpt lat="40.224017" lon="-4.947467">
        <ele>2093.0</ele>
        <time>2013-06-30T12:34:08Z</time>
      </trkpt>
      <trkpt lat="40.224000" lon="-4.947600">
        <ele>2090.0</ele>
        <time>2013-06-30T12:34:09Z</time>
      </trkpt>
      <trkpt lat="40.223967" lon="-4.947733">
        <ele>2087.0</ele>
        <time>2013-06-30T12:34:10Z</time>
      </trkpt>
      <trkpt lat="40.223917" lon="-4.947867">
        <ele>2086.0</ele>
        <time>2013-06-30T12:34:11Z</time>
      </trkpt>
      <trkpt lat="40.223883" lon="-4.947983">
        <ele>2085.0</ele>
        <time>2013-06-30T12:34:12Z</time>
      </trkpt>
      <trkpt lat="40.223850" lon="-4.948117">
        <ele>2084.0</ele>
        <time>2013-06-30T12:34:13Z</time>
      </trkpt>
      <trkpt lat="40.223833" lon="-4.948250">
        <ele>2082.0</ele>
        <time>2013-06-30T12:34:14Z</time>
      </trkpt>
      <trkpt lat="40.223817" lon="-4.948383">
        <ele>2080.0</ele>
        <time>2013-06-30T12:34:15Z</time>
      </trkpt>
      <trkpt lat="40.223800" lon="-4.948533">
        <ele>2078.0</ele>
        <time>2013-06-30T12:34:16Z</time>
      </trkpt>
      <trkpt lat="40.223750" lon="-4.948683">
        <ele>2076.0</ele>
        <time>2013-06-30T12:34:17Z</time>
      </trkpt>
      <trkpt lat="40.223700" lon="-4.948817">
        <ele>2075.0</ele>
        <time>2013-06-30T12:34:18Z</time>
      </trkpt>
      <trkpt lat="40.223650" lon="-4.948950">
        <ele>2074.0</ele>
        <time>2013-06-30T12:34:19Z</time>
      </trkpt>
      <trkpt lat="40.223600" lon="-4.949067">
        <ele>2072.0</ele>
        <time>2013-06-30T12:34:20Z</time>
      </trkpt>
      <trkpt lat="40.223550" lon="-4.949200">
        <ele>2070.0</ele>
        <time>2013-06-30T12:34:21Z</time>
      </trkpt>
      <trkpt lat="40.223517" lon="-4.949333">
        <ele>2067.0</ele>
        <time>2013-06-30T12:34:22Z</time>
      </trkpt>
      <trkpt lat="40.223467" lon="-4.949467">
        <ele>2063.0</ele>
        <time>2013-06-30T12:34:23Z</time>
      </trkpt>
      <trkpt lat="40.223400" lon="-4.949600">
        <ele>2060.0</ele>
        <time>2013-06-30T12:34:24Z</time>
      </trkpt>
      <trkpt lat="40.223333" lon="-4.949717">
        <ele>2057.0</ele>
        <time>2013-06-30T12:34:25Z</time>
      </trkpt>
      <trkpt lat="40.223267" lon="-4.949867">
        <ele>2055.0</ele>
        <time>2013-06-30T12:34:26Z</time>
      </trkpt>
      <trkpt lat="40.223217" lon="-4.950000">
        <ele>2054.0</ele>
        <time>2013-06-30T12:34:27Z</time>
      </trkpt>
      <trkpt lat="40.223183" lon="-4.950117">
        <ele>2053.0</ele>
        <time>2013-06-30T12:34:28Z</time>
      </trkpt>
      <trkpt lat="40.223150" lon="-4.950233">
        <ele>2052.0</ele>
        <time>2013-06-30T12:34:29Z</time>
      </trkpt>
      <trkpt lat="40.223133" lon="-4.950350">
        <ele>2050.0</ele>
        <time>2013-06-30T12:34:30Z</time>
      </trkpt>
      <trkpt lat="40.223100" lon="-4.950483">
        <ele>2048.0</ele>
        <time>2013-06-30T12:34:31Z</time>
      </trkpt>
      <trkpt lat="40.223067" lon="-4.950617">
        <ele>2044.0</ele>
        <time>2013-06-30T12:34:32Z</time>
      </trkpt>
      <trkpt lat="40.223033" lon="-4.950767">
        <ele>2042.0</ele>
        <time>2013-06-30T12:34:33Z</time>
      </trkpt>
      <trkpt lat="40.223000" lon="-4.950883">
        <ele>2041.0</ele>
        <time>2013-06-30T12:34:34Z</time>
      </trkpt>
      <trkpt lat="40.222967" lon="-4.951017">
        <ele>2041.0</ele>
        <time>2013-06-30T12:34:35Z</time>
      </trkpt>
      <trkpt lat="40.222933" lon="-4.951117">
        <ele>2040.0</ele>
        <time>2013-06-30T12:34:36Z</time>
      </trkpt>
      <trkpt lat="40.222900" lon="-4.951233">
        <ele>2039.0</ele>
        <time>2013-06-30T12:34:37Z</time>
      </trkpt>
      <trkpt lat="40.222867" lon="-4.951367">
        <ele>2037.0</ele>
        <time>2013-06-30T12:34:38Z</time>
      </trkpt>
      <trkpt lat="40.222833" lon="-4.951483">
        <ele>2036.0</ele>
        <time>2013-06-30T12:34:39Z</time>
      </trkpt>
      <trkpt lat="40.222800" lon="-4.951600">
        <ele>2035.0</ele>
        <time>2013-06-30T12:34:40Z</time>
      </trkpt>
      <trkpt lat="40.222767" lon="-4.951717">
        <ele>2035.0</ele>
        <time>2013-06-30T12:34:41Z</time>
      </trkpt>
      <trkpt lat="40.222750" lon="-4.951817">
        <ele>2033.0</ele>
        <time>2013-06-30T12:34:42Z</time>
      </trkpt>
      <trkpt lat="40.222733" lon="-4.951933">
        <ele>2032.0</ele>
        <time>2013-06-30T12:34:43Z</time>
      </trkpt>
      <trkpt lat="40.222700" lon="-4.952067">
        <ele>2030.0</ele>
        <time>2013-06-30T12:34:44Z</time>
      </trkpt>
      <trkpt lat="40.222683" lon="-4.952183">
        <ele>2028.0</ele>
        <time>2013-06-30T12:34:45Z</time>
      </trkpt>
      <trkpt lat="40.222650" lon="-4.952300">
        <ele>2027.0</ele>
        <time>2013-06-30T12:34:46Z</time>
      </trkpt>
      <trkpt lat="40.222633" lon="-4.952417">
        <ele>2026.0</ele>
        <time>2013-06-30T12:34:47Z</time>
      </trkpt>
      <trkpt lat="40.222600" lon="-4.952517">
        <ele>2024.0</ele>
        <time>2013-06-30T12:34:48Z</time>
      </trkpt>
      <trkpt lat="40.222567" lon="-4.952617">
        <ele>2023.0</ele>
        <time>2013-06-30T12:34:49Z</time>
      </trkpt>
      <trkpt lat="40.222533" lon="-4.952717">
        <ele>2020.0</ele>
        <time>2013-06-30T12:34:50Z</time>
      </trkpt>
      <trkpt lat="40.222500" lon="-4.952833">
        <ele>2018.0</ele>
        <time>2013-06-30T12:34:51Z</time>
      </trkpt>
      <trkpt lat="40.222450" lon="-4.952950">
        <ele>2016.0</ele>
        <time>2013-06-30T12:34:52Z</time>
      </trkpt>
      <trkpt lat="40.222400" lon="-4.953067">
        <ele>2016.0</ele>
        <time>2013-06-30T12:34:53Z</time>
      </trkpt>
      <trkpt lat="40.222367" lon="-4.953167">
        <ele>2016.0</ele>
        <time>2013-06-30T12:34:54Z</time>
      </trkpt>
      <trkpt lat="40.222317" lon="-4.953250">
        <ele>2016.0</ele>
        <time>2013-06-30T12:34:55Z</time>
      </trkpt>
      <trkpt lat="40.222267" lon="-4.953350">
        <ele>2014.0</ele>
        <time>2013-06-30T12:34:56Z</time>
      </trkpt>
      <trkpt lat="40.222217" lon="-4.953450">
        <ele>2011.0</ele>
        <time>2013-06-30T12:34:57Z</time>
      </trkpt>
      <trkpt lat="40.222167" lon="-4.953567">
        <ele>2008.0</ele>
        <time>2013-06-30T12:34:58Z</time>
      </trkpt>
      <trkpt lat="40.222100" lon="-4.953667">
        <ele>2006.0</ele>
        <time>2013-06-30T12:34:59Z</time>
      </trkpt>
      <trkpt lat="40.222017" lon="-4.953767">
        <ele>2004.0</ele>
        <time>2013-06-30T12:35:00Z</time>
      </trkpt>
      <trkpt lat="40.221950" lon="-4.953850">
        <ele>2001.0</ele>
        <time>2013-06-30T12:35:01Z</time>
      </trkpt>
      <trkpt lat="40.221883" lon="-4.953950">
        <ele>1999.0</ele>
        <time>2013-06-30T12:35:02Z</time>
      </trkpt>
      <trkpt lat="40.221817" lon="-4.954050">
        <ele>1995.0</ele>
        <time>2013-06-30T12:35:03Z</time>
      </trkpt>
      <trkpt lat="40.221733" lon="-4.954150">
        <ele>1991.0</ele>
        <time>2013-06-30T12:35:04Z</time>
      </trkpt>
      <trkpt lat="40.221650" lon="-4.954267">
        <ele>1988.0</ele>
        <time>2013-06-30T12:35:05Z</time>
      </trkpt>
      <trkpt lat="40.221567" lon="-4.954383">
        <ele>1985.0</ele>
        <time>2013-06-30T12:35:06Z</time>
      </trkpt>
      <trkpt lat="40.221500" lon="-4.954517">
        <ele>1983.0</ele>
        <time>2013-06-30T12:35:07Z</time>
      </trkpt>
      <trkpt lat="40.221417" lon="-4.954633">
        <ele>1983.0</ele>
        <time>2013-06-30T12:35:08Z</time>
      </trkpt>
      <trkpt lat="40.221350" lon="-4.954750">
        <ele>1983.0</ele>
        <time>2013-06-30T12:35:09Z</time>
      </trkpt>
      <trkpt lat="40.221283" lon="-4.954850">
        <ele>1983.0</ele>
        <time>2013-06-30T12:35:10Z</time>
      </trkpt>
      <trkpt lat="40.221217" lon="-4.954950">
        <ele>1982.0</ele>
        <time>2013-06-30T12:35:11Z</time>
      </trkpt>
      <trkpt lat="40.221133" lon="-4.955050">
        <ele>1982.0</ele>
        <time>2013-06-30T12:35:12Z</time>
      </trkpt>
      <trkpt lat="40.221050" lon="-4.955150">
        <ele>1981.0</ele>
        <time>2013-06-30T12:35:13Z</time>
      </trkpt>
      <trkpt lat="40.220967" lon="-4.955250">
        <ele>1980.0</ele>
        <time>2013-06-30T12:35:14Z</time>
      </trkpt>
      <trkpt lat="40.220900" lon="-4.955350">
        <ele>1979.0</ele>
        <time>2013-06-30T12:35:15Z</time>
      </trkpt>
      <trkpt lat="40.220833" lon="-4.955467">
        <ele>1978.0</ele>
        <time>2013-06-30T12:35:16Z</time>
      </trkpt>
      <trkpt lat="40.220767" lon="-4.955583">
        <ele>1976.0</ele>
        <time>2013-06-30T12:35:17Z</time>
      </trkpt>
      <trkpt lat="40.220700" lon="-4.955683">
        <ele>1976.0</ele>
        <time>2013-06-30T12:35:18Z</time>
      </trkpt>
      <trkpt lat="40.220633" lon="-4.955783">
        <ele>1975.0</ele>
        <time>2013-06-30T12:35:19Z</time>
      </trkpt>
      <trkpt lat="40.220550" lon="-4.955883">
        <ele>1974.0</ele>
        <time>2013-06-30T12:35:20Z</time>
      </trkpt>
      <trkpt lat="40.220483" lon="-4.955983">
        <ele>1974.0</ele>
        <time>2013-06-30T12:35:21Z</time>
      </trkpt>
      <trkpt lat="40.220417" lon="-4.956083">
        <ele>1973.0</ele>
        <time>2013-06-30T12:35:22Z</time>
      </trkpt>
      <trkpt lat="40.220350" lon="-4.956183">
        <ele>1971.0</ele>
        <time>2013-06-30T12:35:23Z</time>
      </trkpt>
      <trkpt lat="40.220283" lon="-4.956300">
        <ele>1969.0</ele>
        <time>2013-06-30T12:35:24Z</time>
      </trkpt>
      <trkpt lat="40.220217" lon="-4.956400">
        <ele>1966.0</ele>
        <time>2013-06-30T12:35:25Z</time>
      </trkpt>
      <trkpt lat="40.220133" lon="-4.956533">
        <ele>1964.0</ele>
        <time>2013-06-30T12:35:26Z</time>
      </trkpt>
      <trkpt lat="40.220067" lon="-4.956667">
        <ele>1962.0</ele>
        <time>2013-06-30T12:35:27Z</time>
      </trkpt>
      <trkpt lat="40.219983" lon="-4.956800">
        <ele>1961.0</ele>
        <time>2013-06-30T12:35:28Z</time>
      </trkpt>
      <trkpt lat="40.219900" lon="-4.956917">
        <ele>1961.0</ele>
        <time>2013-06-30T12:35:29Z</time>
      </trkpt>
      <trkpt lat="40.219833" lon="-4.957033">
        <ele>1961.0</ele>
        <time>2013-06-30T12:35:30Z</time>
      </trkpt>
      <trkpt lat="40.219767" lon="-4.957150">
        <ele>1960.0</ele>
        <time>2013-06-30T12:35:31Z</time>
      </trkpt>
      <trkpt lat="40.219700" lon="-4.957267">
        <ele>1960.0</ele>
        <time>2013-06-30T12:35:32Z</time>
      </trkpt>
      <trkpt lat="40.219633" lon="-4.957383">
        <ele>1959.0</ele>
        <time>2013-06-30T12:35:33Z</time>
      </trkpt>
      <trkpt lat="40.219567" lon="-4.957517">
        <ele>1957.0</ele>
        <time>2013-06-30T12:35:34Z</time>
      </trkpt>
      <trkpt lat="40.219483" lon="-4.957667">
        <ele>1956.0</ele>
        <time>2013-06-30T12:35:35Z</time>
      </trkpt>
      <trkpt lat="40.219417" lon="-4.957817">
        <ele>1956.0</ele>
        <time>2013-06-30T12:35:36Z</time>
      </trkpt>
      <trkpt lat="40.219333" lon="-4.957933">
        <ele>1959.0</ele>
        <time>2013-06-30T12:35:37Z</time>
      </trkpt>
      <trkpt lat="40.219267" lon="-4.958033">
        <ele>1961.0</ele>
        <time>2013-06-30T12:35:38Z</time>
      </trkpt>
      <trkpt lat="40.219183" lon="-4.958100">
        <ele>1962.0</ele>
        <time>2013-06-30T12:35:39Z</time>
      </trkpt>
      <trkpt lat="40.219117" lon="-4.958150">
        <ele>1961.0</ele>
        <time>2013-06-30T12:35:40Z</time>
      </trkpt>
      <trkpt lat="40.219050" lon="-4.958233">
        <ele>1961.0</ele>
        <time>2013-06-30T12:35:41Z</time>
      </trkpt>
      <trkpt lat="40.218983" lon="-4.958317">
        <ele>1960.0</ele>
        <time>2013-06-30T12:35:42Z</time>
      </trkpt>
      <trkpt lat="40.218933" lon="-4.958383">
        <ele>1960.0</ele>
        <time>2013-06-30T12:35:43Z</time>
      </trkpt>
      <trkpt lat="40.218900" lon="-4.958467">
        <ele>1959.0</ele>
        <time>2013-06-30T12:35:44Z</time>
      </trkpt>
      <trkpt lat="40.218883" lon="-4.958567">
        <ele>1958.0</ele>
        <time>2013-06-30T12:35:45Z</time>
      </trkpt>
      <trkpt lat="40.218900" lon="-4.958683">
        <ele>1954.0</ele>
        <time>2013-06-30T12:35:46Z</time>
      </trkpt>
      <trkpt lat="40.218917" lon="-4.958800">
        <ele>1950.0</ele>
        <time>2013-06-30T12:35:47Z</time>
      </trkpt>
      <trkpt lat="40.218950" lon="-4.958917">
        <ele>1948.0</ele>
        <time>2013-06-30T12:35:48Z</time>
      </trkpt>
      <trkpt lat="40.219000" lon="-4.959033">
        <ele>1946.0</ele>
        <time>2013-06-30T12:35:49Z</time>
      </trkpt>
      <trkpt lat="40.219050" lon="-4.959150">
        <ele>1945.0</ele>
        <time>2013-06-30T12:35:50Z</time>
      </trkpt>
      <trkpt lat="40.219083" lon="-4.959300">
        <ele>1944.0</ele>
        <time>2013-06-30T12:35:51Z</time>
      </trkpt>
      <trkpt lat="40.219117" lon="-4.959433">
        <ele>1942.0</ele>
        <time>2013-06-30T12:35:52Z</time>
      </trkpt>
      <trkpt lat="40.219150" lon="-4.959583">
        <ele>1941.0</ele>
        <time>2013-06-30T12:35:53Z</time>
      </trkpt>
      <trkpt lat="40.219200" lon="-4.959700">
        <ele>1940.0</ele>
        <time>2013-06-30T12:35:54Z</time>
      </trkpt>
      <trkpt lat="40.219283" lon="-4.959817">
        <ele>1940.0</ele>
        <time>2013-06-30T12:35:55Z</time>
      </trkpt>
      <trkpt lat="40.219333" lon="-4.959933">
        <ele>1940.0</ele>
        <time>2013-06-30T12:35:56Z</time>
      </trkpt>
      <trkpt lat="40.219400" lon="-4.960033">
        <ele>1942.0</ele>
        <time>2013-06-30T12:35:57Z</time>
      </trkpt>
      <trkpt lat="40.219450" lon="-4.960117">
        <ele>1943.0</ele>
        <time>2013-06-30T12:35:58Z</time>
      </trkpt>
      <trkpt lat="40.219500" lon="-4.960183">
        <ele>1944.0</ele>
        <time>2013-06-30T12:35:59Z</time>
      </trkpt>
      <trkpt lat="40.219533" lon="-4.960233">
        <ele>1944.0</ele>
        <time>2013-06-30T12:36:00Z</time>
      </trkpt>
      <trkpt lat="40.219583" lon="-4.960267">
        <ele>1944.0</ele>
        <time>2013-06-30T12:36:01Z</time>
      </trkpt>
      <trkpt lat="40.219633" lon="-4.960317">
        <ele>1942.0</ele>
        <time>2013-06-30T12:36:02Z</time>
      </trkpt>
      <trkpt lat="40.219717" lon="-4.960350">
        <ele>1941.0</ele>
        <time>2013-06-30T12:36:03Z</time>
      </trkpt>
      <trkpt lat="40.219783" lon="-4.960350">
        <ele>1940.0</ele>
        <time>2013-06-30T12:36:04Z</time>
      </trkpt>
      <trkpt lat="40.219833" lon="-4.960333">
        <ele>1939.0</ele>
        <time>2013-06-30T12:36:05Z</time>
      </trkpt>
      <trkpt lat="40.219883" lon="-4.960317">
        <ele>1937.0</ele>
        <time>2013-06-30T12:36:06Z</time>
      </trkpt>
      <trkpt lat="40.219950" lon="-4.960283">
        <ele>1935.0</ele>
        <time>2013-06-30T12:36:07Z</time>
      </trkpt>
      <trkpt lat="40.220000" lon="-4.960250">
        <ele>1933.0</ele>
        <time>2013-06-30T12:36:08Z</time>
      </trkpt>
      <trkpt lat="40.220067" lon="-4.960250">
        <ele>1931.0</ele>
        <time>2013-06-30T12:36:09Z</time>
      </trkpt>
      <trkpt lat="40.220133" lon="-4.960300">
        <ele>1929.0</ele>
        <time>2013-06-30T12:36:10Z</time>
      </trkpt>
      <trkpt lat="40.220183" lon="-4.960367">
        <ele>1927.0</ele>
        <time>2013-06-30T12:36:11Z</time>
      </trkpt>
      <trkpt lat="40.220217" lon="-4.960450">
        <ele>1924.0</ele>
        <time>2013-06-30T12:36:12Z</time>
      </trkpt>
      <trkpt lat="40.220233" lon="-4.960550">
        <ele>1922.0</ele>
        <time>2013-06-30T12:36:13Z</time>
      </trkpt>
      <trkpt lat="40.220250" lon="-4.960667">
        <ele>1918.0</ele>
        <time>2013-06-30T12:36:14Z</time>
      </trkpt>
      <trkpt lat="40.220267" lon="-4.960817">
        <ele>1915.0</ele>
        <time>2013-06-30T12:36:15Z</time>
      </trkpt>
      <trkpt lat="40.220267" lon="-4.960983">
        <ele>1913.0</ele>
        <time>2013-06-30T12:36:16Z</time>
      </trkpt>
      <trkpt lat="40.220283" lon="-4.961150">
        <ele>1912.0</ele>
        <time>2013-06-30T12:36:17Z</time>
      </trkpt>
      <trkpt lat="40.220283" lon="-4.961300">
        <ele>1912.0</ele>
        <time>2013-06-30T12:36:18Z</time>
      </trkpt>
      <trkpt lat="40.220283" lon="-4.961433">
        <ele>1911.0</ele>
        <time>2013-06-30T12:36:19Z</time>
      </trkpt>
      <trkpt lat="40.220267" lon="-4.961567">
        <ele>1909.0</ele>
        <time>2013-06-30T12:36:20Z</time>
      </trkpt>
      <trkpt lat="40.220250" lon="-4.961700">
        <ele>1908.0</ele>
        <time>2013-06-30T12:36:21Z</time>
      </trkpt>
      <trkpt lat="40.220233" lon="-4.961833">
        <ele>1906.0</ele>
        <time>2013-06-30T12:36:22Z</time>
      </trkpt>
      <trkpt lat="40.220233" lon="-4.961983">
        <ele>1903.0</ele>
        <time>2013-06-30T12:36:23Z</time>
      </trkpt>
      <trkpt lat="40.220217" lon="-4.962133">
        <ele>1900.0</ele>
        <time>2013-06-30T12:36:24Z</time>
      </trkpt>
      <trkpt lat="40.220217" lon="-4.962300">
        <ele>1898.0</ele>
        <time>2013-06-30T12:36:25Z</time>
      </trkpt>
      <trkpt lat="40.220217" lon="-4.962467">
        <ele>1897.0</ele>
        <time>2013-06-30T12:36:26Z</time>
      </trkpt>
      <trkpt lat="40.220233" lon="-4.962633">
        <ele>1897.0</ele>
        <time>2013-06-30T12:36:27Z</time>
      </trkpt>
      <trkpt lat="40.220250" lon="-4.962800">
        <ele>1898.0</ele>
        <time>2013-06-30T12:36:28Z</time>
      </trkpt>
      <trkpt lat="40.220283" lon="-4.962967">
        <ele>1899.0</ele>
        <time>2013-06-30T12:36:29Z</time>
      </trkpt>
      <trkpt lat="40.220300" lon="-4.963133">
        <ele>1901.0</ele>
        <time>2013-06-30T12:36:30Z</time>
      </trkpt>
      <trkpt lat="40.220317" lon="-4.963283">
        <ele>1902.0</ele>
        <time>2013-06-30T12:36:31Z</time>
      </trkpt>
      <trkpt lat="40.220333" lon="-4.963417">
        <ele>1904.0</ele>
        <time>2013-06-30T12:36:32Z</time>
      </trkpt>
      <trkpt lat="40.220350" lon="-4.963533">
        <ele>1905.0</ele>
        <time>2013-06-30T12:36:33Z</time>
      </trkpt>
      <trkpt lat="40.220367" lon="-4.963667">
        <ele>1905.0</ele>
        <time>2013-06-30T12:36:34Z</time>
      </trkpt>
      <trkpt lat="40.220383" lon="-4.963783">
        <ele>1905.0</ele>
        <time>2013-06-30T12:36:35Z</time>
      </trkpt>
      <trkpt lat="40.220383" lon="-4.963933">
        <ele>1905.0</ele>
        <time>2013-06-30T12:36:36Z</time>
      </trkpt>
      <trkpt lat="40.220400" lon="-4.964083">
        <ele>1904.0</ele>
        <time>2013-06-30T12:36:37Z</time>
      </trkpt>
      <trkpt lat="40.220400" lon="-4.964233">
        <ele>1904.0</ele>
        <time>2013-06-30T12:36:38Z</time>
      </trkpt>
      <trkpt lat="40.220417" lon="-4.964400">
        <ele>1903.0</ele>
        <time>2013-06-30T12:36:39Z</time>
      </trkpt>
      <trkpt lat="40.220433" lon="-4.964567">
        <ele>1904.0</ele>
        <time>2013-06-30T12:36:40Z</time>
      </trkpt>
      <trkpt lat="40.220450" lon="-4.964717">
        <ele>1905.0</ele>
        <time>2013-06-30T12:36:41Z</time>
      </trkpt>
      <trkpt lat="40.220467" lon="-4.964867">
        <ele>1906.0</ele>
        <time>2013-06-30T12:36:42Z</time>
      </trkpt>
      <trkpt lat="40.220483" lon="-4.965017">
        <ele>1905.0</ele>
        <time>2013-06-30T12:36:43Z</time>
      </trkpt>
      <trkpt lat="40.220500" lon="-4.965167">
        <ele>1904.0</ele>
        <time>2013-06-30T12:36:44Z</time>
      </trkpt>
      <trkpt lat="40.220533" lon="-4.965317">
        <ele>1903.0</ele>
        <time>2013-06-30T12:36:45Z</time>
      </trkpt>
      <trkpt lat="40.220550" lon="-4.965483">
        <ele>1903.0</ele>
        <time>2013-06-30T12:36:46Z</time>
      </trkpt>
      <trkpt lat="40.220583" lon="-4.965633">
        <ele>1903.0</ele>
        <time>2013-06-30T12:36:47Z</time>
      </trkpt>
      <trkpt lat="40.220600" lon="-4.965783">
        <ele>1904.0</ele>
        <time>2013-06-30T12:36:48Z</time>
      </trkpt>
      <trkpt lat="40.220633" lon="-4.965917">
        <ele>1904.0</ele>
        <time>2013-06-30T12:36:49Z</time>
      </trkpt>
      <trkpt lat="40.220667" lon="-4.966050">
        <ele>1905.0</ele>
        <time>2013-06-30T12:36:50Z</time>
      </trkpt>
      <trkpt lat="40.220700" lon="-4.966200">
        <ele>1905.0</ele>
        <time>2013-06-30T12:36:51Z</time>
      </trkpt>
      <trkpt lat="40.220717" lon="-4.966350">
        <ele>1906.0</ele>
        <time>2013-06-30T12:36:52Z</time>
      </trkpt>
      <trkpt lat="40.220733" lon="-4.966500">
        <ele>1907.0</ele>
        <time>2013-06-30T12:36:53Z</time>
      </trkpt>
      <trkpt lat="40.220750" lon="-4.966633">
        <ele>1909.0</ele>
        <time>2013-06-30T12:36:54Z</time>
      </trkpt>
      <trkpt lat="40.220767" lon="-4.966783">
        <ele>1911.0</ele>
        <time>2013-06-30T12:36:55Z</time>
      </trkpt>
      <trkpt lat="40.220783" lon="-4.966917">
        <ele>1913.0</ele>
        <time>2013-06-30T12:36:56Z</time>
      </trkpt>
      <trkpt lat="40.220767" lon="-4.967033">
        <ele>1916.0</ele>
        <time>2013-06-30T12:36:57Z</time>
      </trkpt>
      <trkpt lat="40.220767" lon="-4.967133">
        <ele>1918.0</ele>
        <time>2013-06-30T12:36:58Z</time>
      </trkpt>
      <trkpt lat="40.220750" lon="-4.967217">
        <ele>1920.0</ele>
        <time>2013-06-30T12:36:59Z</time>
      </trkpt>
      <trkpt lat="40.220733" lon="-4.967300">
        <ele>1921.0</ele>
        <time>2013-06-30T12:37:00Z</time>
      </trkpt>
      <trkpt lat="40.220717" lon="-4.967400">
        <ele>1921.0</ele>
        <time>2013-06-30T12:37:01Z</time>
      </trkpt>
      <trkpt lat="40.220667" lon="-4.967500">
        <ele>1920.0</ele>
        <time>2013-06-30T12:37:02Z</time>
      </trkpt>
      <trkpt lat="40.220617" lon="-4.967600">
        <ele>1921.0</ele>
        <time>2013-06-30T12:37:03Z</time>
      </trkpt>
      <trkpt lat="40.220567" lon="-4.967683">
        <ele>1921.0</ele>
        <time>2013-06-30T12:37:04Z</time>
      </trkpt>
      <trkpt lat="40.220500" lon="-4.967767">
        <ele>1922.0</ele>
        <time>2013-06-30T12:37:05Z</time>
      </trkpt>
      <trkpt lat="40.220433" lon="-4.967850">
        <ele>1923.0</ele>
        <time>2013-06-30T12:37:06Z</time>
      </trkpt>
      <trkpt lat="40.220367" lon="-4.967950">
        <ele>1925.0</ele>
        <time>2013-06-30T12:37:07Z</time>
      </trkpt>
      <trkpt lat="40.220333" lon="-4.968050">
        <ele>1926.0</ele>
        <time>2013-06-30T12:37:08Z</time>
      </trkpt>
      <trkpt lat="40.220300" lon="-4.968133">
        <ele>1928.0</ele>
        <time>2013-06-30T12:37:09Z</time>
      </trkpt>
      <trkpt lat="40.220283" lon="-4.968200">
        <ele>1928.0</ele>
        <time>2013-06-30T12:37:10Z</time>
      </trkpt>
      <trkpt lat="40.220250" lon="-4.968300">
        <ele>1928.0</ele>
        <time>2013-06-30T12:37:11Z</time>
      </trkpt>
      <trkpt lat="40.220217" lon="-4.968400">
        <ele>1927.0</ele>
        <time>2013-06-30T12:37:12Z</time>
      </trkpt>
      <trkpt lat="40.220200" lon="-4.968533">
        <ele>1925.0</ele>
        <time>2013-06-30T12:37:13Z</time>
      </trkpt>
      <trkpt lat="40.220183" lon="-4.968683">
        <ele>1924.0</ele>
        <time>2013-06-30T12:37:14Z</time>
      </trkpt>
      <trkpt lat="40.220167" lon="-4.968833">
        <ele>1922.0</ele>
        <time>2013-06-30T12:37:15Z</time>
      </trkpt>
      <trkpt lat="40.220150" lon="-4.969000">
        <ele>1922.0</ele>
        <time>2013-06-30T12:37:16Z</time>
      </trkpt>
      <trkpt lat="40.220133" lon="-4.969150">
        <ele>1923.0</ele>
        <time>2013-06-30T12:37:17Z</time>
      </trkpt>
      <trkpt lat="40.220133" lon="-4.969283">
        <ele>1924.0</ele>
        <time>2013-06-30T12:37:18Z</time>
      </trkpt>
      <trkpt lat="40.220117" lon="-4.969433">
        <ele>1924.0</ele>
        <time>2013-06-30T12:37:19Z</time>
      </trkpt>
      <trkpt lat="40.220133" lon="-4.969583">
        <ele>1924.0</ele>
        <time>2013-06-30T12:37:20Z</time>
      </trkpt>
      <trkpt lat="40.220133" lon="-4.969733">
        <ele>1924.0</ele>
        <time>2013-06-30T12:37:21Z</time>
      </trkpt>
      <trkpt lat="40.220150" lon="-4.969900">
        <ele>1926.0</ele>
        <time>2013-06-30T12:37:22Z</time>
      </trkpt>
      <trkpt lat="40.220167" lon="-4.970067">
        <ele>1928.0</ele>
        <time>2013-06-30T12:37:23Z</time>
      </trkpt>
      <trkpt lat="40.220183" lon="-4.970217">
        <ele>1930.0</ele>
        <time>2013-06-30T12:37:24Z</time>
      </trkpt>
      <trkpt lat="40.220167" lon="-4.970367">
        <ele>1933.0</ele>
        <time>2013-06-30T12:37:25Z</time>
      </trkpt>
      <trkpt lat="40.220150" lon="-4.970483">
        <ele>1936.0</ele>
        <time>2013-06-30T12:37:26Z</time>
      </trkpt>
      <trkpt lat="40.220117" lon="-4.970600">
        <ele>1938.0</ele>
        <time>2013-06-30T12:37:27Z</time>
      </trkpt>
      <trkpt lat="40.220067" lon="-4.970700">
        <ele>1939.0</ele>
        <time>2013-06-30T12:37:28Z</time>
      </trkpt>
      <trkpt lat="40.220000" lon="-4.970750">
        <ele>1940.0</ele>
        <time>2013-06-30T12:37:29Z</time>
      </trkpt>
      <trkpt lat="40.219933" lon="-4.970767">
        <ele>1941.0</ele>
        <time>2013-06-30T12:37:30Z</time>
      </trkpt>
      <trkpt lat="40.219867" lon="-4.970733">
        <ele>1943.0</ele>
        <time>2013-06-30T12:37:31Z</time>
      </trkpt>
      <trkpt lat="40.219833" lon="-4.970700">
        <ele>1946.0</ele>
        <time>2013-06-30T12:37:32Z</time>
      </trkpt>
      <trkpt lat="40.219800" lon="-4.970667">
        <ele>1948.0</ele>
        <time>2013-06-30T12:37:33Z</time>
      </trkpt>
      <trkpt lat="40.219783" lon="-4.970650">
        <ele>1950.0</ele>
        <time>2013-06-30T12:37:34Z</time>
      </trkpt>
      <trkpt lat="40.219767" lon="-4.970633">
        <ele>1950.0</ele>
        <time>2013-06-30T12:37:35Z</time>
      </trkpt>
      <trkpt lat="40.219750" lon="-4.970600">
        <ele>1950.0</ele>
        <time>2013-06-30T12:37:36Z</time>
      </trkpt>
      <trkpt lat="40.219717" lon="-4.970533">
        <ele>1949.0</ele>
        <time>2013-06-30T12:37:37Z</time>
      </trkpt>
      <trkpt lat="40.219717" lon="-4.970467">
        <ele>1950.0</ele>
        <time>2013-06-30T12:37:38Z</time>
      </trkpt>
      <trkpt lat="40.219717" lon="-4.970400">
        <ele>1952.0</ele>
        <time>2013-06-30T12:37:39Z</time>
      </trkpt>
      <trkpt lat="40.219750" lon="-4.970350">
        <ele>1954.0</ele>
        <time>2013-06-30T12:37:40Z</time>
      </trkpt>
      <trkpt lat="40.219783" lon="-4.970333">
        <ele>1955.0</ele>
        <time>2013-06-30T12:37:41Z</time>
      </trkpt>
      <trkpt lat="40.219817" lon="-4.970300">
        <ele>1955.0</ele>
        <time>2013-06-30T12:37:42Z</time>
      </trkpt>
      <trkpt lat="40.219850" lon="-4.970267">
        <ele>1955.0</ele>
        <time>2013-06-30T12:37:43Z</time>
      </trkpt>
      <trkpt lat="40.219900" lon="-4.970233">
        <ele>1954.0</ele>
        <time>2013-06-30T12:37:44Z</time>
      </trkpt>
      <trkpt lat="40.219950" lon="-4.970200">
        <ele>1955.0</ele>
        <time>2013-06-30T12:37:45Z</time>
      </trkpt>
      <trkpt lat="40.220000" lon="-4.970167">
        <ele>1955.0</ele>
        <time>2013-06-30T12:37:46Z</time>
      </trkpt>
      <trkpt lat="40.220067" lon="-4.970133">
        <ele>1956.0</ele>
        <time>2013-06-30T12:37:47Z</time>
      </trkpt>
      <trkpt lat="40.220117" lon="-4.970117">
        <ele>1956.0</ele>
        <time>2013-06-30T12:37:48Z</time>
      </trkpt>
      <trkpt lat="40.220167" lon="-4.970083">
        <ele>1957.0</ele>
        <time>2013-06-30T12:37:49Z</time>
      </trkpt>
      <trkpt lat="40.220200" lon="-4.970050">
        <ele>1958.0</ele>
        <time>2013-06-30T12:37:50Z</time>
      </trkpt>
      <trkpt lat="40.220250" lon="-4.970017">
        <ele>1959.0</ele>
        <time>2013-06-30T12:37:51Z</time>
      </trkpt>
      <trkpt lat="40.220317" lon="-4.969983">
        <ele>1959.0</ele>
        <time>2013-06-30T12:37:52Z</time>
      </trkpt>
      <trkpt lat="40.220367" lon="-4.969950">
        <ele>1959.0</ele>
        <time>2013-06-30T12:37:53Z</time>
      </trkpt>
      <trkpt lat="40.220417" lon="-4.969900">
        <ele>1959.0</ele>
        <time>2013-06-30T12:37:54Z</time>
      </trkpt>
      <trkpt lat="40.220467" lon="-4.969833">
        <ele>1958.0</ele>
        <time>2013-06-30T12:37:55Z</time>
      </trkpt>
      <trkpt lat="40.220517" lon="-4.969767">
        <ele>1957.0</ele>
        <time>2013-06-30T12:37:56Z</time>
      </trkpt>
      <trkpt lat="40.220583" lon="-4.969683">
        <ele>1958.0</ele>
        <time>2013-06-30T12:37:57Z</time>
      </trkpt>
      <trkpt lat="40.220633" lon="-4.969617">
        <ele>1958.0</ele>
        <time>2013-06-30T12:37:58Z</time>
      </trkpt>
      <trkpt lat="40.220700" lon="-4.969550">
        <ele>1959.0</ele>
        <time>2013-06-30T12:37:59Z</time>
      </trkpt>
      <trkpt lat="40.220750" lon="-4.969483">
        <ele>1960.0</ele>
        <time>2013-06-30T12:38:00Z</time>
      </trkpt>
      <trkpt lat="40.220800" lon="-4.969417">
        <ele>1960.0</ele>
        <time>2013-06-30T12:38:01Z</time>
      </trkpt>
      <trkpt lat="40.220850" lon="-4.969350">
        <ele>1961.0</ele>
        <time>2013-06-30T12:38:02Z</time>
      </trkpt>
      <trkpt lat="40.220883" lon="-4.969283">
        <ele>1962.0</ele>
        <time>2013-06-30T12:38:03Z</time>
      </trkpt>
      <trkpt lat="40.220917" lon="-4.969233">
        <ele>1963.0</ele>
        <time>2013-06-30T12:38:04Z</time>
      </trkpt>
      <trkpt lat="40.220950" lon="-4.969167">
        <ele>1962.0</ele>
        <time>2013-06-30T12:38:05Z</time>
      </trkpt>
      <trkpt lat="40.220967" lon="-4.969100">
        <ele>1962.0</ele>
        <time>2013-06-30T12:38:06Z</time>
      </trkpt>
      <trkpt lat="40.220983" lon="-4.969017">
        <ele>1961.0</ele>
        <time>2013-06-30T12:38:07Z</time>
      </trkpt>
      <trkpt lat="40.220967" lon="-4.968933">
        <ele>1961.0</ele>
        <time>2013-06-30T12:38:08Z</time>
      </trkpt>
      <trkpt lat="40.220917" lon="-4.968883">
        <ele>1961.0</ele>
        <time>2013-06-30T12:38:09Z</time>
      </trkpt>
      <trkpt lat="40.220850" lon="-4.968850">
        <ele>1961.0</ele>
        <time>2013-06-30T12:38:10Z</time>
      </trkpt>
      <trkpt lat="40.220800" lon="-4.968850">
        <ele>1961.0</ele>
        <time>2013-06-30T12:38:11Z</time>
      </trkpt>
      <trkpt lat="40.220733" lon="-4.968850">
        <ele>1962.0</ele>
        <time>2013-06-30T12:38:12Z</time>
      </trkpt>
      <trkpt lat="40.220667" lon="-4.968883">
        <ele>1963.0</ele>
        <time>2013-06-30T12:38:13Z</time>
      </trkpt>
      <trkpt lat="40.220617" lon="-4.968933">
        <ele>1963.0</ele>
        <time>2013-06-30T12:38:14Z</time>
      </trkpt>
      <trkpt lat="40.220550" lon="-4.968983">
        <ele>1961.0</ele>
        <time>2013-06-30T12:38:15Z</time>
      </trkpt>
      <trkpt lat="40.220500" lon="-4.969067">
        <ele>1960.0</ele>
        <time>2013-06-30T12:38:16Z</time>
      </trkpt>
      <trkpt lat="40.220433" lon="-4.969150">
        <ele>1958.0</ele>
        <time>2013-06-30T12:38:17Z</time>
      </trkpt>
      <trkpt lat="40.220350" lon="-4.969267">
        <ele>1955.0</ele>
        <time>2013-06-30T12:38:18Z</time>
      </trkpt>
      <trkpt lat="40.220250" lon="-4.969383">
        <ele>1954.0</ele>
        <time>2013-06-30T12:38:19Z</time>
      </trkpt>
      <trkpt lat="40.220150" lon="-4.969517">
        <ele>1955.0</ele>
        <time>2013-06-30T12:38:20Z</time>
      </trkpt>
      <trkpt lat="40.220083" lon="-4.969650">
        <ele>1958.0</ele>
        <time>2013-06-30T12:38:21Z</time>
      </trkpt>
      <trkpt lat="40.220017" lon="-4.969783">
        <ele>1962.0</ele>
        <time>2013-06-30T12:38:22Z</time>
      </trkpt>
      <trkpt lat="40.219983" lon="-4.969900">
        <ele>1967.0</ele>
        <time>2013-06-30T12:38:23Z</time>
      </trkpt>
      <trkpt lat="40.219950" lon="-4.969983">
        <ele>1971.0</ele>
        <time>2013-06-30T12:38:24Z</time>
      </trkpt>
      <trkpt lat="40.219917" lon="-4.970067">
        <ele>1974.0</ele>
        <time>2013-06-30T12:38:25Z</time>
      </trkpt>
      <trkpt lat="40.219900" lon="-4.970167">
        <ele>1977.0</ele>
        <time>2013-06-30T12:38:26Z</time>
      </trkpt>
      <trkpt lat="40.219867" lon="-4.970300">
        <ele>1978.0</ele>
        <time>2013-06-30T12:38:27Z</time>
      </trkpt>
      <trkpt lat="40.219867" lon="-4.970450">
        <ele>1980.0</ele>
        <time>2013-06-30T12:38:28Z</time>
      </trkpt>
      <trkpt lat="40.219900" lon="-4.970600">
        <ele>1980.0</ele>
        <time>2013-06-30T12:38:29Z</time>
      </trkpt>
      <trkpt lat="40.219950" lon="-4.970683">
        <ele>1980.0</ele>
        <time>2013-06-30T12:38:30Z</time>
      </trkpt>
      <trkpt lat="40.220033" lon="-4.970700">
        <ele>1979.0</ele>
        <time>2013-06-30T12:38:31Z</time>
      </trkpt>
      <trkpt lat="40.220083" lon="-4.970683">
        <ele>1979.0</ele>
        <time>2013-06-30T12:38:32Z</time>
      </trkpt>
      <trkpt lat="40.220133" lon="-4.970633">
        <ele>1979.0</ele>
        <time>2013-06-30T12:38:33Z</time>
      </trkpt>
      <trkpt lat="40.220150" lon="-4.970567">
        <ele>1980.0</ele>
        <time>2013-06-30T12:38:34Z</time>
      </trkpt>
      <trkpt lat="40.220133" lon="-4.970500">
        <ele>1982.0</ele>
        <time>2013-06-30T12:38:35Z</time>
      </trkpt>
      <trkpt lat="40.220083" lon="-4.970450">
        <ele>1984.0</ele>
        <time>2013-06-30T12:38:36Z</time>
      </trkpt>
      <trkpt lat="40.220033" lon="-4.970433">
        <ele>1988.0</ele>
        <time>2013-06-30T12:38:37Z</time>
      </trkpt>
      <trkpt lat="40.219983" lon="-4.970433">
        <ele>1991.0</ele>
        <time>2013-06-30T12:38:38Z</time>
      </trkpt>
      <trkpt lat="40.219933" lon="-4.970433">
        <ele>1994.0</ele>
        <time>2013-06-30T12:38:39Z</time>
      </trkpt>
      <trkpt lat="40.219867" lon="-4.970450">
        <ele>1996.0</ele>
        <time>2013-06-30T12:38:40Z</time>
      </trkpt>
      <trkpt lat="40.219817" lon="-4.970500">
        <ele>1997.0</ele>
        <time>2013-06-30T12:38:41Z</time>
      </trkpt>
      <trkpt lat="40.219733" lon="-4.970550">
        <ele>1998.0</ele>
        <time>2013-06-30T12:38:42Z</time>
      </trkpt>
      <trkpt lat="40.219667" lon="-4.970650">
        <ele>1999.0</ele>
        <time>2013-06-30T12:38:43Z</time>
      </trkpt>
      <trkpt lat="40.219633" lon="-4.970783">
        <ele>2000.0</ele>
        <time>2013-06-30T12:38:44Z</time>
      </trkpt>
      <trkpt lat="40.219650" lon="-4.970917">
        <ele>2002.0</ele>
        <time>2013-06-30T12:38:45Z</time>
      </trkpt>
      <trkpt lat="40.219683" lon="-4.971033">
        <ele>2003.0</ele>
        <time>2013-06-30T12:38:46Z</time>
      </trkpt>
      <trkpt lat="40.219733" lon="-4.971150">
        <ele>2005.0</ele>
        <time>2013-06-30T12:38:47Z</time>
      </trkpt>
      <trkpt lat="40.219783" lon="-4.971267">
        <ele>2008.0</ele>
        <time>2013-06-30T12:38:48Z</time>
      </trkpt>
      <trkpt lat="40.219833" lon="-4.971367">
        <ele>2011.0</ele>
        <time>2013-06-30T12:38:49Z</time>
      </trkpt>
      <trkpt lat="40.219883" lon="-4.971450">
        <ele>2013.0</ele>
        <time>2013-06-30T12:38:50Z</time>
      </trkpt>
      <trkpt lat="40.219933" lon="-4.971517">
        <ele>2014.0</ele>
        <time>2013-06-30T12:38:51Z</time>
      </trkpt>
      <trkpt lat="40.219983" lon="-4.971567">
        <ele>2016.0</ele>
        <time>2013-06-30T12:38:52Z</time>
      </trkpt>
      <trkpt lat="40.220050" lon="-4.971583">
        <ele>2018.0</ele>
        <time>2013-06-30T12:38:53Z</time>
      </trkpt>
      <trkpt lat="40.220100" lon="-4.971567">
        <ele>2019.0</ele>
        <time>2013-06-30T12:38:54Z</time>
      </trkpt>
      <trkpt lat="40.220133" lon="-4.971533">
        <ele>2019.0</ele>
        <time>2013-06-30T12:38:55Z</time>
      </trkpt>
      <trkpt lat="40.220133" lon="-4.971483">
        <ele>2020.0</ele>
        <time>2013-06-30T12:38:56Z</time>
      </trkpt>
      <trkpt lat="40.220117" lon="-4.971433">
        <ele>2020.0</ele>
        <time>2013-06-30T12:38:57Z</time>
      </trkpt>
      <trkpt lat="40.220100" lon="-4.971350">
        <ele>2021.0</ele>
        <time>2013-06-30T12:38:58Z</time>
      </trkpt>
      <trkpt lat="40.220067" lon="-4.971300">
        <ele>2023.0</ele>
        <time>2013-06-30T12:38:59Z</time>
      </trkpt>
      <trkpt lat="40.220017" lon="-4.971250">
        <ele>2026.0</ele>
        <time>2013-06-30T12:39:00Z</time>
      </trkpt>
      <trkpt lat="40.219950" lon="-4.971233">
        <ele>2030.0</ele>
        <time>2013-06-30T12:39:01Z</time>
      </trkpt>
      <trkpt lat="40.219883" lon="-4.971250">
        <ele>2034.0</ele>
        <time>2013-06-30T12:39:02Z</time>
      </trkpt>
      <trkpt lat="40.219850" lon="-4.971267">
        <ele>2038.0</ele>
        <time>2013-06-30T12:39:03Z</time>
      </trkpt>
      <trkpt lat="40.219800" lon="-4.971300">
        <ele>2041.0</ele>
        <time>2013-06-30T12:39:04Z</time>
      </trkpt>
      <trkpt lat="40.219750" lon="-4.971333">
        <ele>2042.0</ele>
        <time>2013-06-30T12:39:05Z</time>
      </trkpt>
      <trkpt lat="40.219683" lon="-4.971367">
        <ele>2043.0</ele>
        <time>2013-06-30T12:39:06Z</time>
      </trkpt>
      <trkpt lat="40.219617" lon="-4.971433">
        <ele>2044.0</ele>
        <time>2013-06-30T12:39:07Z</time>
      </trkpt>
      <trkpt lat="40.219550" lon="-4.971533">
        <ele>2046.0</ele>
        <time>2013-06-30T12:39:08Z</time>
      </trkpt>
      <trkpt lat="40.219517" lon="-4.971700">
        <ele>2047.0</ele>
        <time>2013-06-30T12:39:09Z</time>
      </trkpt>
      <trkpt lat="40.219533" lon="-4.971867">
        <ele>2049.0</ele>
        <time>2013-06-30T12:39:10Z</time>
      </trkpt>
      <trkpt lat="40.219567" lon="-4.972017">
        <ele>2050.0</ele>
        <time>2013-06-30T12:39:11Z</time>
      </trkpt>
      <trkpt lat="40.219633" lon="-4.972150">
        <ele>2052.0</ele>
        <time>2013-06-30T12:39:12Z</time>
      </trkpt>
      <trkpt lat="40.219700" lon="-4.972250">
        <ele>2055.0</ele>
        <time>2013-06-30T12:39:13Z</time>
      </trkpt>
      <trkpt lat="40.219767" lon="-4.972300">
        <ele>2057.0</ele>
        <time>2013-06-30T12:39:14Z</time>
      </trkpt>
      <trkpt lat="40.219817" lon="-4.972350">
        <ele>2060.0</ele>
        <time>2013-06-30T12:39:15Z</time>
      </trkpt>
      <trkpt lat="40.219867" lon="-4.972417">
        <ele>2062.0</ele>
        <time>2013-06-30T12:39:16Z</time>
      </trkpt>
      <trkpt lat="40.219900" lon="-4.972483">
        <ele>2063.0</ele>
        <time>2013-06-30T12:39:17Z</time>
      </trkpt>
      <trkpt lat="40.219933" lon="-4.972533">
        <ele>2062.0</ele>
        <time>2013-06-30T12:39:18Z</time>
      </trkpt>
      <trkpt lat="40.219983" lon="-4.972533">
        <ele>2061.0</ele>
        <time>2013-06-30T12:39:19Z</time>
      </trkpt>
      <trkpt lat="40.220017" lon="-4.972483">
        <ele>2059.0</ele>
        <time>2013-06-30T12:39:20Z</time>
      </trkpt>
      <trkpt lat="40.220033" lon="-4.972400">
        <ele>2057.0</ele>
        <time>2013-06-30T12:39:21Z</time>
      </trkpt>
      <trkpt lat="40.220000" lon="-4.972317">
        <ele>2057.0</ele>
        <time>2013-06-30T12:39:22Z</time>
      </trkpt>
      <trkpt lat="40.219967" lon="-4.972267">
        <ele>2059.0</ele>
        <time>2013-06-30T12:39:23Z</time>
      </trkpt>
      <trkpt lat="40.219933" lon="-4.972217">
        <ele>2060.0</ele>
        <time>2013-06-30T12:39:24Z</time>
      </trkpt>
      <trkpt lat="40.219883" lon="-4.972167">
        <ele>2062.0</ele>
        <time>2013-06-30T12:39:25Z</time>
      </trkpt>
      <trkpt lat="40.219850" lon="-4.972133">
        <ele>2064.0</ele>
        <time>2013-06-30T12:39:26Z</time>
      </trkpt>
      <trkpt lat="40.219800" lon="-4.972083">
        <ele>2066.0</ele>
        <time>2013-06-30T12:39:27Z</time>
      </trkpt>
      <trkpt lat="40.219733" lon="-4.972067">
        <ele>2069.0</ele>
        <time>2013-06-30T12:39:28Z</time>
      </trkpt>
      <trkpt lat="40.219683" lon="-4.972050">
        <ele>2072.0</ele>
        <time>2013-06-30T12:39:29Z</time>
      </trkpt>
      <trkpt lat="40.219617" lon="-4.972050">
        <ele>2074.0</ele>
        <time>2013-06-30T12:39:30Z</time>
      </trkpt>
      <trkpt lat="40.219550" lon="-4.972067">
        <ele>2076.0</ele>
        <time>2013-06-30T12:39:31Z</time>
      </trkpt>
      <trkpt lat="40.219467" lon="-4.972083">
        <ele>2077.0</ele>
        <time>2013-06-30T12:39:32Z</time>
      </trkpt>
      <trkpt lat="40.219383" lon="-4.972133">
        <ele>2080.0</ele>
        <time>2013-06-30T12:39:33Z</time>
      </trkpt>
      <trkpt lat="40.219300" lon="-4.972217">
        <ele>2082.0</ele>
        <time>2013-06-30T12:39:34Z</time>
      </trkpt>
      <trkpt lat="40.219233" lon="-4.972333">
        <ele>2085.0</ele>
        <time>2013-06-30T12:39:35Z</time>
      </trkpt>
      <trkpt lat="40.219183" lon="-4.972467">
        <ele>2088.0</ele>
        <time>2013-06-30T12:39:36Z</time>
      </trkpt>
      <trkpt lat="40.219167" lon="-4.972617">
        <ele>2089.0</ele>
        <time>2013-06-30T12:39:37Z</time>
      </trkpt>
      <trkpt lat="40.219150" lon="-4.972783">
        <ele>2092.0</ele>
        <time>2013-06-30T12:39:38Z</time>
      </trkpt>
      <trkpt lat="40.219150" lon="-4.972933">
        <ele>2094.0</ele>
        <time>2013-06-30T12:39:39Z</time>
      </trkpt>
      <trkpt lat="40.219167" lon="-4.973100">
        <ele>2096.0</ele>
        <time>2013-06-30T12:39:40Z</time>
      </trkpt>
      <trkpt lat="40.219200" lon="-4.973233">
        <ele>2099.0</ele>
        <time>2013-06-30T12:39:41Z</time>
      </trkpt>
      <trkpt lat="40.219250" lon="-4.973350">
        <ele>2102.0</ele>
        <time>2013-06-30T12:39:42Z</time>
      </trkpt>
      <trkpt lat="40.219317" lon="-4.973433">
        <ele>2102.0</ele>
        <time>2013-06-30T12:39:43Z</time>
      </trkpt>
      <trkpt lat="40.219383" lon="-4.973467">
        <ele>2104.0</ele>
        <time>2013-06-30T12:39:44Z</time>
      </trkpt>
      <trkpt lat="40.219433" lon="-4.973483">
        <ele>2105.0</ele>
        <time>2013-06-30T12:39:45Z</time>
      </trkpt>
      <trkpt lat="40.219483" lon="-4.973467">
        <ele>2106.0</ele>
        <time>2013-06-30T12:39:46Z</time>
      </trkpt>
      <trkpt lat="40.219500" lon="-4.973467">
        <ele>2107.0</ele>
        <time>2013-06-30T12:39:47Z</time>
      </trkpt>
      <trkpt lat="40.219533" lon="-4.973433">
        <ele>2108.0</ele>
        <time>2013-06-30T12:39:48Z</time>
      </trkpt>
      <trkpt lat="40.219567" lon="-4.973400">
        <ele>2108.0</ele>
        <time>2013-06-30T12:39:49Z</time>
      </trkpt>
      <trkpt lat="40.219600" lon="-4.973350">
        <ele>2108.0</ele>
        <time>2013-06-30T12:39:50Z</time>
      </trkpt>
      <trkpt lat="40.219583" lon="-4.973300">
        <ele>2109.0</ele>
        <time>2013-06-30T12:39:51Z</time>
      </trkpt>
      <trkpt lat="40.219550" lon="-4.973250">
        <ele>2111.0</ele>
        <time>2013-06-30T12:39:52Z</time>
      </trkpt>
      <trkpt lat="40.219500" lon="-4.973217">
        <ele>2113.0</ele>
        <time>2013-06-30T12:39:53Z</time>
      </trkpt>
      <trkpt lat="40.219433" lon="-4.973217">
        <ele>2116.0</ele>
        <time>2013-06-30T12:39:54Z</time>
      </trkpt>
      <trkpt lat="40.219367" lon="-4.973233">
        <ele>2119.0</ele>
        <time>2013-06-30T12:39:55Z</time>
      </trkpt>
      <trkpt lat="40.219300" lon="-4.973267">
        <ele>2120.0</ele>
        <time>2013-06-30T12:39:56Z</time>
      </trkpt>
      <trkpt lat="40.219217" lon="-4.973317">
        <ele>2121.0</ele>
        <time>2013-06-30T12:39:57Z</time>
      </trkpt>
      <trkpt lat="40.219133" lon="-4.973367">
        <ele>2122.0</ele>
        <time>2013-06-30T12:39:58Z</time>
      </trkpt>
      <trkpt lat="40.219067" lon="-4.973433">
        <ele>2124.0</ele>
        <time>2013-06-30T12:39:59Z</time>
      </trkpt>
      <trkpt lat="40.219000" lon="-4.973517">
        <ele>2126.0</ele>
        <time>2013-06-30T12:40:00Z</time>
      </trkpt>
      <trkpt lat="40.218933" lon="-4.973617">
        <ele>2128.0</ele>
        <time>2013-06-30T12:40:01Z</time>
      </trkpt>
      <trkpt lat="40.218883" lon="-4.973733">
        <ele>2130.0</ele>
        <time>2013-06-30T12:40:02Z</time>
      </trkpt>
      <trkpt lat="40.218850" lon="-4.973850">
        <ele>2132.0</ele>
        <time>2013-06-30T12:40:03Z</time>
      </trkpt>
      <trkpt lat="40.218800" lon="-4.973983">
        <ele>2134.0</ele>
        <time>2013-06-30T12:40:04Z</time>
      </trkpt>
      <trkpt lat="40.218783" lon="-4.974100">
        <ele>2136.0</ele>
        <time>2013-06-30T12:40:05Z</time>
      </trkpt>
      <trkpt lat="40.218783" lon="-4.974250">
        <ele>2136.0</ele>
        <time>2013-06-30T12:40:06Z</time>
      </trkpt>
      <trkpt lat="40.218800" lon="-4.974383">
        <ele>2137.0</ele>
        <time>2013-06-30T12:40:07Z</time>
      </trkpt>
      <trkpt lat="40.218850" lon="-4.974517">
        <ele>2138.0</ele>
        <time>2013-06-30T12:40:08Z</time>
      </trkpt>
      <trkpt lat="40.218917" lon="-4.974617">
        <ele>2140.0</ele>
        <time>2013-06-30T12:40:09Z</time>
      </trkpt>
      <trkpt lat="40.218967" lon="-4.974683">
        <ele>2142.0</ele>
        <time>2013-06-30T12:40:10Z</time>
      </trkpt>
      <trkpt lat="40.219017" lon="-4.974733">
        <ele>2144.0</ele>
        <time>2013-06-30T12:40:11Z</time>
      </trkpt>
      <trkpt lat="40.219050" lon="-4.974800">
        <ele>2144.0</ele>
        <time>2013-06-30T12:40:12Z</time>
      </trkpt>
      <trkpt lat="40.219083" lon="-4.974867">
        <ele>2144.0</ele>
        <time>2013-06-30T12:40:13Z</time>
      </trkpt>
      <trkpt lat="40.219133" lon="-4.974917">
        <ele>2143.0</ele>
        <time>2013-06-30T12:40:14Z</time>
      </trkpt>
      <trkpt lat="40.219183" lon="-4.974967">
        <ele>2143.0</ele>
        <time>2013-06-30T12:40:15Z</time>
      </trkpt>
      <trkpt lat="40.219233" lon="-4.974967">
        <ele>2143.0</ele>
        <time>2013-06-30T12:40:16Z</time>
      </trkpt>
      <trkpt lat="40.219250" lon="-4.974917">
        <ele>2141.0</ele>
        <time>2013-06-30T12:40:17Z</time>
      </trkpt>
      <trkpt lat="40.219233" lon="-4.974833">
        <ele>2140.0</ele>
        <time>2013-06-30T12:40:18Z</time>
      </trkpt>
      <trkpt lat="40.219217" lon="-4.974767">
        <ele>2140.0</ele>
        <time>2013-06-30T12:40:19Z</time>
      </trkpt>
      <trkpt lat="40.219183" lon="-4.974717">
        <ele>2142.0</ele>
        <time>2013-06-30T12:40:20Z</time>
      </trkpt>
      <trkpt lat="40.219150" lon="-4.974700">
        <ele>2145.0</ele>
        <time>2013-06-30T12:40:21Z</time>
      </trkpt>
      <trkpt lat="40.219133" lon="-4.974683">
        <ele>2144.0</ele>
        <time>2013-06-30T12:40:22Z</time>
      </trkpt>
      <trkpt lat="40.219100" lon="-4.974667">
        <ele>2145.0</ele>
        <time>2013-06-30T12:40:23Z</time>
      </trkpt>
      <trkpt lat="40.219050" lon="-4.974650">
        <ele>2146.0</ele>
        <time>2013-06-30T12:40:24Z</time>
      </trkpt>
      <trkpt lat="40.219000" lon="-4.974633">
        <ele>2146.0</ele>
        <time>2013-06-30T12:40:25Z</time>
      </trkpt>
      <trkpt lat="40.218917" lon="-4.974633">
        <ele>2146.0</ele>
        <time>2013-06-30T12:40:26Z</time>
      </trkpt>
      <trkpt lat="40.218833" lon="-4.974667">
        <ele>2147.0</ele>
        <time>2013-06-30T12:40:27Z</time>
      </trkpt>
      <trkpt lat="40.218750" lon="-4.974767">
        <ele>2147.0</ele>
        <time>2013-06-30T12:40:28Z</time>
      </trkpt>
      <trkpt lat="40.218683" lon="-4.974883">
        <ele>2147.0</ele>
        <time>2013-06-30T12:40:29Z</time>
      </trkpt>
      <trkpt lat="40.218650" lon="-4.975033">
        <ele>2147.0</ele>
        <time>2013-06-30T12:40:30Z</time>
      </trkpt>
      <trkpt lat="40.218650" lon="-4.975200">
        <ele>2148.0</ele>
        <time>2013-06-30T12:40:31Z</time>
      </trkpt>
      <trkpt lat="40.218650" lon="-4.975350">
        <ele>2149.0</ele>
        <time>2013-06-30T12:40:32Z</time>
      </trkpt>
      <trkpt lat="40.218683" lon="-4.975500">
        <ele>2150.0</ele>
        <time>2013-06-30T12:40:33Z</time>
      </trkpt>
      <trkpt lat="40.218717" lon="-4.975633">
        <ele>2152.0</ele>
        <time>2013-06-30T12:40:34Z</time>
      </trkpt>
      <trkpt lat="40.218750" lon="-4.975750">
        <ele>2153.0</ele>
        <time>2013-06-30T12:40:35Z</time>
      </trkpt>
      <trkpt lat="40.218783" lon="-4.975850">
        <ele>2155.0</ele>
        <time>2013-06-30T12:40:36Z</time>
      </trkpt>
      <trkpt lat="40.218833" lon="-4.975950">
        <ele>2156.0</ele>
        <time>2013-06-30T12:40:37Z</time>
      </trkpt>
      <trkpt lat="40.218883" lon="-4.976067">
        <ele>2157.0</ele>
        <time>2013-06-30T12:40:38Z</time>
      </trkpt>
      <trkpt lat="40.218950" lon="-4.976150">
        <ele>2159.0</ele>
        <time>2013-06-30T12:40:39Z</time>
      </trkpt>
      <trkpt lat="40.219000" lon="-4.976200">
        <ele>2162.0</ele>
        <time>2013-06-30T12:40:40Z</time>
      </trkpt>
      <trkpt lat="40.219033" lon="-4.976217">
        <ele>2164.0</ele>
        <time>2013-06-30T12:40:41Z</time>
      </trkpt>
      <trkpt lat="40.219067" lon="-4.976233">
        <ele>2165.0</ele>
        <time>2013-06-30T12:40:42Z</time>
      </trkpt>
      <trkpt lat="40.219100" lon="-4.976233">
        <ele>2165.0</ele>
        <time>2013-06-30T12:40:43Z</time>
      </trkpt>
      <trkpt lat="40.219150" lon="-4.976233">
        <ele>2164.0</ele>
        <time>2013-06-30T12:40:44Z</time>
      </trkpt>
      <trkpt lat="40.219183" lon="-4.976200">
        <ele>2164.0</ele>
        <time>2013-06-30T12:40:45Z</time>
      </trkpt>
      <trkpt lat="40.219200" lon="-4.976150">
        <ele>2164.0</ele>
        <time>2013-06-30T12:40:46Z</time>
      </trkpt>
      <trkpt lat="40.219183" lon="-4.976083">
        <ele>2164.0</ele>
        <time>2013-06-30T12:40:47Z</time>
      </trkpt>
      <trkpt lat="40.219167" lon="-4.976017">
        <ele>2165.0</ele>
        <time>2013-06-30T12:40:48Z</time>
      </trkpt>
      <trkpt lat="40.219133" lon="-4.975967">
        <ele>2167.0</ele>
        <time>2013-06-30T12:40:49Z</time>
      </trkpt>
      <trkpt lat="40.219100" lon="-4.975950">
        <ele>2169.0</ele>
        <time>2013-06-30T12:40:50Z</time>
      </trkpt>
      <trkpt lat="40.219050" lon="-4.975933">
        <ele>2169.0</ele>
        <time>2013-06-30T12:40:51Z</time>
      </trkpt>
      <trkpt lat="40.218983" lon="-4.975933">
        <ele>2170.0</ele>
        <time>2013-06-30T12:40:52Z</time>
      </trkpt>
      <trkpt lat="40.218917" lon="-4.975933">
        <ele>2170.0</ele>
        <time>2013-06-30T12:40:53Z</time>
      </trkpt>
      <trkpt lat="40.218833" lon="-4.975950">
        <ele>2171.0</ele>
        <time>2013-06-30T12:40:54Z</time>
      </trkpt>
      <trkpt lat="40.218750" lon="-4.976000">
        <ele>2171.0</ele>
        <time>2013-06-30T12:40:55Z</time>
      </trkpt>
      <trkpt lat="40.218667" lon="-4.976100">
        <ele>2171.0</ele>
        <time>2013-06-30T12:40:56Z</time>
      </trkpt>
      <trkpt lat="40.218583" lon="-4.976200">
        <ele>2171.0</ele>
        <time>2013-06-30T12:40:57Z</time>
      </trkpt>
      <trkpt lat="40.218483" lon="-4.976300">
        <ele>2170.0</ele>
        <time>2013-06-30T12:40:58Z</time>
      </trkpt>
      <trkpt lat="40.218400" lon="-4.976417">
        <ele>2170.0</ele>
        <time>2013-06-30T12:40:59Z</time>
      </trkpt>
      <trkpt lat="40.218300" lon="-4.976517">
        <ele>2171.0</ele>
        <time>2013-06-30T12:41:00Z</time>
      </trkpt>
      <trkpt lat="40.218200" lon="-4.976633">
        <ele>2171.0</ele>
        <time>2013-06-30T12:41:01Z</time>
      </trkpt>
      <trkpt lat="40.218100" lon="-4.976750">
        <ele>2171.0</ele>
        <time>2013-06-30T12:41:02Z</time>
      </trkpt>
      <trkpt lat="40.218017" lon="-4.976883">
        <ele>2172.0</ele>
        <time>2013-06-30T12:41:03Z</time>
      </trkpt>
      <trkpt lat="40.217933" lon="-4.977000">
        <ele>2171.0</ele>
        <time>2013-06-30T12:41:04Z</time>
      </trkpt>
      <trkpt lat="40.217850" lon="-4.977117">
        <ele>2171.0</ele>
        <time>2013-06-30T12:41:05Z</time>
      </trkpt>
      <trkpt lat="40.217767" lon="-4.977217">
        <ele>2171.0</ele>
        <time>2013-06-30T12:41:06Z</time>
      </trkpt>
      <trkpt lat="40.217667" lon="-4.977317">
        <ele>2171.0</ele>
        <time>2013-06-30T12:41:07Z</time>
      </trkpt>
      <trkpt lat="40.217583" lon="-4.977417">
        <ele>2171.0</ele>
        <time>2013-06-30T12:41:08Z</time>
      </trkpt>
      <trkpt lat="40.217500" lon="-4.977533">
        <ele>2170.0</ele>
        <time>2013-06-30T12:41:09Z</time>
      </trkpt>
      <trkpt lat="40.217417" lon="-4.977667">
        <ele>2170.0</ele>
        <time>2013-06-30T12:41:10Z</time>
      </trkpt>
      <trkpt lat="40.217333" lon="-4.977783">
        <ele>2172.0</ele>
        <time>2013-06-30T12:41:11Z</time>
      </trkpt>
      <trkpt lat="40.217250" lon="-4.977900">
        <ele>2171.0</ele>
        <time>2013-06-30T12:41:12Z</time>
      </trkpt>
      <trkpt lat="40.217183" lon="-4.978033">
        <ele>2171.0</ele>
        <time>2013-06-30T12:41:13Z</time>
      </trkpt>
      <trkpt lat="40.217100" lon="-4.978167">
        <ele>2170.0</ele>
        <time>2013-06-30T12:41:14Z</time>
      </trkpt>
      <trkpt lat="40.217017" lon="-4.978300">
        <ele>2169.0</ele>
        <time>2013-06-30T12:41:15Z</time>
      </trkpt>
      <trkpt lat="40.216933" lon="-4.978450">
        <ele>2169.0</ele>
        <time>2013-06-30T12:41:16Z</time>
      </trkpt>
      <trkpt lat="40.216867" lon="-4.978600">
        <ele>2168.0</ele>
        <time>2013-06-30T12:41:17Z</time>
      </trkpt>
      <trkpt lat="40.216800" lon="-4.978750">
        <ele>2168.0</ele>
        <time>2013-06-30T12:41:18Z</time>
      </trkpt>
      <trkpt lat="40.216733" lon="-4.978883">
        <ele>2168.0</ele>
        <time>2013-06-30T12:41:19Z</time>
      </trkpt>
      <trkpt lat="40.216667" lon="-4.979017">
        <ele>2170.0</ele>
        <time>2013-06-30T12:41:20Z</time>
      </trkpt>
      <trkpt lat="40.216600" lon="-4.979133">
        <ele>2171.0</ele>
        <time>2013-06-30T12:41:21Z</time>
      </trkpt>
      <trkpt lat="40.216550" lon="-4.979250">
        <ele>2171.0</ele>
        <time>2013-06-30T12:41:22Z</time>
      </trkpt>
      <trkpt lat="40.216483" lon="-4.979383">
        <ele>2172.0</ele>
        <time>2013-06-30T12:41:23Z</time>
      </trkpt>
      <trkpt lat="40.216417" lon="-4.979500">
        <ele>2172.0</ele>
        <time>2013-06-30T12:41:24Z</time>
      </trkpt>
      <trkpt lat="40.216367" lon="-4.979617">
        <ele>2172.0</ele>
        <time>2013-06-30T12:41:25Z</time>
      </trkpt>
      <trkpt lat="40.216317" lon="-4.979733">
        <ele>2172.0</ele>
        <time>2013-06-30T12:41:26Z</time>
      </trkpt>
      <trkpt lat="40.216250" lon="-4.979850">
        <ele>2173.0</ele>
        <time>2013-06-30T12:41:27Z</time>
      </trkpt>
      <trkpt lat="40.216167" lon="-4.979933">
        <ele>2173.0</ele>
        <time>2013-06-30T12:41:28Z</time>
      </trkpt>
      <trkpt lat="40.216083" lon="-4.980017">
        <ele>2172.0</ele>
        <time>2013-06-30T12:41:29Z</time>
      </trkpt>
      <trkpt lat="40.215983" lon="-4.980067">
        <ele>2172.0</ele>
        <time>2013-06-30T12:41:30Z</time>
      </trkpt>
      <trkpt lat="40.215900" lon="-4.980100">
        <ele>2172.0</ele>
        <time>2013-06-30T12:41:31Z</time>
      </trkpt>
      <trkpt lat="40.215817" lon="-4.980117">
        <ele>2171.0</ele>
        <time>2013-06-30T12:41:32Z</time>
      </trkpt>
      <trkpt lat="40.215733" lon="-4.980117">
        <ele>2170.0</ele>
        <time>2013-06-30T12:41:33Z</time>
      </trkpt>
      <trkpt lat="40.215650" lon="-4.980067">
        <ele>2168.0</ele>
        <time>2013-06-30T12:41:34Z</time>
      </trkpt>
      <trkpt lat="40.215583" lon="-4.980017">
        <ele>2168.0</ele>
        <time>2013-06-30T12:41:35Z</time>
      </trkpt>
      <trkpt lat="40.215533" lon="-4.979967">
        <ele>2168.0</ele>
        <time>2013-06-30T12:41:36Z</time>
      </trkpt>
      <trkpt lat="40.215483" lon="-4.979933">
        <ele>2168.0</ele>
        <time>2013-06-30T12:41:37Z</time>
      </trkpt>
      <trkpt lat="40.215450" lon="-4.979917">
        <ele>2166.0</ele>
        <time>2013-06-30T12:41:38Z</time>
      </trkpt>
      <trkpt lat="40.215400" lon="-4.979883">
        <ele>2165.0</ele>
        <time>2013-06-30T12:41:39Z</time>
      </trkpt>
      <trkpt lat="40.215350" lon="-4.979850">
        <ele>2163.0</ele>
        <time>2013-06-30T12:41:40Z</time>
      </trkpt>
      <trkpt lat="40.215283" lon="-4.979800">
        <ele>2161.0</ele>
        <time>2013-06-30T12:41:41Z</time>
      </trkpt>
      <trkpt lat="40.215200" lon="-4.979767">
        <ele>2159.0</ele>
        <time>2013-06-30T12:41:42Z</time>
      </trkpt>
      <trkpt lat="40.215083" lon="-4.979783">
        <ele>2157.0</ele>
        <time>2013-06-30T12:41:43Z</time>
      </trkpt>
      <trkpt lat="40.214967" lon="-4.979850">
        <ele>2156.0</ele>
        <time>2013-06-30T12:41:44Z</time>
      </trkpt>
      <trkpt lat="40.214867" lon="-4.979933">
        <ele>2155.0</ele>
        <time>2013-06-30T12:41:45Z</time>
      </trkpt>
      <trkpt lat="40.214767" lon="-4.980033">
        <ele>2154.0</ele>
        <time>2013-06-30T12:41:46Z</time>
      </trkpt>
      <trkpt lat="40.214667" lon="-4.980133">
        <ele>2153.0</ele>
        <time>2013-06-30T12:41:47Z</time>
      </trkpt>
      <trkpt lat="40.214567" lon="-4.980217">
        <ele>2151.0</ele>
        <time>2013-06-30T12:41:48Z</time>
      </trkpt>
      <trkpt lat="40.214467" lon="-4.980317">
        <ele>2148.0</ele>
        <time>2013-06-30T12:41:49Z</time>
      </trkpt>
      <trkpt lat="40.214350" lon="-4.980433">
        <ele>2146.0</ele>
        <time>2013-06-30T12:41:50Z</time>
      </trkpt>
      <trkpt lat="40.214233" lon="-4.980550">
        <ele>2144.0</ele>
        <time>2013-06-30T12:41:51Z</time>
      </trkpt>
      <trkpt lat="40.214133" lon="-4.980683">
        <ele>2143.0</ele>
        <time>2013-06-30T12:41:52Z</time>
      </trkpt>
      <trkpt lat="40.214033" lon="-4.980817">
        <ele>2141.0</ele>
        <time>2013-06-30T12:41:53Z</time>
      </trkpt>
      <trkpt lat="40.213933" lon="-4.980933">
        <ele>2141.0</ele>
        <time>2013-06-30T12:41:54Z</time>
      </trkpt>
      <trkpt lat="40.213833" lon="-4.981050">
        <ele>2140.0</ele>
        <time>2013-06-30T12:41:55Z</time>
      </trkpt>
      <trkpt lat="40.213750" lon="-4.981167">
        <ele>2139.0</ele>
        <time>2013-06-30T12:41:56Z</time>
      </trkpt>
      <trkpt lat="40.213683" lon="-4.981267">
        <ele>2137.0</ele>
        <time>2013-06-30T12:41:57Z</time>
      </trkpt>
      <trkpt lat="40.213600" lon="-4.981383">
        <ele>2135.0</ele>
        <time>2013-06-30T12:41:58Z</time>
      </trkpt>
      <trkpt lat="40.213517" lon="-4.981500">
        <ele>2133.0</ele>
        <time>2013-06-30T12:41:59Z</time>
      </trkpt>
      <trkpt lat="40.213433" lon="-4.981633">
        <ele>2130.0</ele>
        <time>2013-06-30T12:42:00Z</time>
      </trkpt>
      <trkpt lat="40.213350" lon="-4.981800">
        <ele>2128.0</ele>
        <time>2013-06-30T12:42:01Z</time>
      </trkpt>
      <trkpt lat="40.213267" lon="-4.981950">
        <ele>2126.0</ele>
        <time>2013-06-30T12:42:02Z</time>
      </trkpt>
      <trkpt lat="40.213217" lon="-4.982100">
        <ele>2124.0</ele>
        <time>2013-06-30T12:42:03Z</time>
      </trkpt>
      <trkpt lat="40.213167" lon="-4.982233">
        <ele>2123.0</ele>
        <time>2013-06-30T12:42:04Z</time>
      </trkpt>
      <trkpt lat="40.213117" lon="-4.982383">
        <ele>2120.0</ele>
        <time>2013-06-30T12:42:05Z</time>
      </trkpt>
      <trkpt lat="40.213067" lon="-4.982533">
        <ele>2116.0</ele>
        <time>2013-06-30T12:42:06Z</time>
      </trkpt>
      <trkpt lat="40.213000" lon="-4.982700">
        <ele>2113.0</ele>
        <time>2013-06-30T12:42:07Z</time>
      </trkpt>
      <trkpt lat="40.212933" lon="-4.982867">
        <ele>2111.0</ele>
        <time>2013-06-30T12:42:08Z</time>
      </trkpt>
      <trkpt lat="40.212883" lon="-4.983050">
        <ele>2110.0</ele>
        <time>2013-06-30T12:42:09Z</time>
      </trkpt>
      <trkpt lat="40.212833" lon="-4.983200">
        <ele>2109.0</ele>
        <time>2013-06-30T12:42:10Z</time>
      </trkpt>
      <trkpt lat="40.212800" lon="-4.983367">
        <ele>2108.0</ele>
        <time>2013-06-30T12:42:11Z</time>
      </trkpt>
      <trkpt lat="40.212733" lon="-4.983517">
        <ele>2106.0</ele>
        <time>2013-06-30T12:42:12Z</time>
      </trkpt>
      <trkpt lat="40.212683" lon="-4.983683">
        <ele>2104.0</ele>
        <time>2013-06-30T12:42:13Z</time>
      </trkpt>
      <trkpt lat="40.212650" lon="-4.983850">
        <ele>2102.0</ele>
        <time>2013-06-30T12:42:14Z</time>
      </trkpt>
      <trkpt lat="40.212600" lon="-4.984017">
        <ele>2100.0</ele>
        <time>2013-06-30T12:42:15Z</time>
      </trkpt>
      <trkpt lat="40.212567" lon="-4.984183">
        <ele>2098.0</ele>
        <time>2013-06-30T12:42:16Z</time>
      </trkpt>
      <trkpt lat="40.212517" lon="-4.984333">
        <ele>2097.0</ele>
        <time>2013-06-30T12:42:17Z</time>
      </trkpt>
      <trkpt lat="40.212450" lon="-4.984483">
        <ele>2095.0</ele>
        <time>2013-06-30T12:42:18Z</time>
      </trkpt>
      <trkpt lat="40.212383" lon="-4.984633">
        <ele>2093.0</ele>
        <time>2013-06-30T12:42:19Z</time>
      </trkpt>
      <trkpt lat="40.212317" lon="-4.984767">
        <ele>2091.0</ele>
        <time>2013-06-30T12:42:20Z</time>
      </trkpt>
      <trkpt lat="40.212250" lon="-4.984917">
        <ele>2089.0</ele>
        <time>2013-06-30T12:42:21Z</time>
      </trkpt>
      <trkpt lat="40.212167" lon="-4.985067">
        <ele>2087.0</ele>
        <time>2013-06-30T12:42:22Z</time>
      </trkpt>
      <trkpt lat="40.212083" lon="-4.985217">
        <ele>2085.0</ele>
        <time>2013-06-30T12:42:23Z</time>
      </trkpt>
      <trkpt lat="40.212000" lon="-4.985367">
        <ele>2084.0</ele>
        <time>2013-06-30T12:42:24Z</time>
      </trkpt>
      <trkpt lat="40.211933" lon="-4.985500">
        <ele>2082.0</ele>
        <time>2013-06-30T12:42:25Z</time>
      </trkpt>
      <trkpt lat="40.211867" lon="-4.985633">
        <ele>2079.0</ele>
        <time>2013-06-30T12:42:26Z</time>
      </trkpt>
      <trkpt lat="40.211800" lon="-4.985767">
        <ele>2076.0</ele>
        <time>2013-06-30T12:42:27Z</time>
      </trkpt>
      <trkpt lat="40.211733" lon="-4.985900">
        <ele>2071.0</ele>
        <time>2013-06-30T12:42:28Z</time>
      </trkpt>
      <trkpt lat="40.211650" lon="-4.986050">
        <ele>2066.0</ele>
        <time>2013-06-30T12:42:29Z</time>
      </trkpt>
      <trkpt lat="40.211567" lon="-4.986217">
        <ele>2063.0</ele>
        <time>2013-06-30T12:42:30Z</time>
      </trkpt>
      <trkpt lat="40.211500" lon="-4.986383">
        <ele>2060.0</ele>
        <time>2013-06-30T12:42:31Z</time>
      </trkpt>
      <trkpt lat="40.211433" lon="-4.986517">
        <ele>2057.0</ele>
        <time>2013-06-30T12:42:32Z</time>
      </trkpt>
      <trkpt lat="40.211367" lon="-4.986650">
        <ele>2054.0</ele>
        <time>2013-06-30T12:42:33Z</time>
      </trkpt>
      <trkpt lat="40.211283" lon="-4.986783">
        <ele>2049.0</ele>
        <time>2013-06-30T12:42:34Z</time>
      </trkpt>
      <trkpt lat="40.211217" lon="-4.986933">
        <ele>2045.0</ele>
        <time>2013-06-30T12:42:35Z</time>
      </trkpt>
      <trkpt lat="40.211150" lon="-4.987100">
        <ele>2039.0</ele>
        <time>2013-06-30T12:42:36Z</time>
      </trkpt>
      <trkpt lat="40.211100" lon="-4.987283">
        <ele>2035.0</ele>
        <time>2013-06-30T12:42:37Z</time>
      </trkpt>
      <trkpt lat="40.211033" lon="-4.987450">
        <ele>2031.0</ele>
        <time>2013-06-30T12:42:38Z</time>
      </trkpt>
      <trkpt lat="40.210967" lon="-4.987583">
        <ele>2029.0</ele>
        <time>2013-06-30T12:42:39Z</time>
      </trkpt>
      <trkpt lat="40.210900" lon="-4.987733">
        <ele>2026.0</ele>
        <time>2013-06-30T12:42:40Z</time>
      </trkpt>
      <trkpt lat="40.210850" lon="-4.987883">
        <ele>2022.0</ele>
        <time>2013-06-30T12:42:41Z</time>
      </trkpt>
      <trkpt lat="40.210800" lon="-4.988033">
        <ele>2018.0</ele>
        <time>2013-06-30T12:42:42Z</time>
      </trkpt>
      <trkpt lat="40.210733" lon="-4.988183">
        <ele>2013.0</ele>
        <time>2013-06-30T12:42:43Z</time>
      </trkpt>
      <trkpt lat="40.210650" lon="-4.988333">
        <ele>2010.0</ele>
        <time>2013-06-30T12:42:44Z</time>
      </trkpt>
      <trkpt lat="40.210567" lon="-4.988467">
        <ele>2007.0</ele>
        <time>2013-06-30T12:42:45Z</time>
      </trkpt>
      <trkpt lat="40.210500" lon="-4.988600">
        <ele>2004.0</ele>
        <time>2013-06-30T12:42:46Z</time>
      </trkpt>
      <trkpt lat="40.210433" lon="-4.988733">
        <ele>2001.0</ele>
        <time>2013-06-30T12:42:47Z</time>
      </trkpt>
      <trkpt lat="40.210367" lon="-4.988850">
        <ele>1996.0</ele>
        <time>2013-06-30T12:42:48Z</time>
      </trkpt>
      <trkpt lat="40.210300" lon="-4.989000">
        <ele>1992.0</ele>
        <time>2013-06-30T12:42:49Z</time>
      </trkpt>
      <trkpt lat="40.210250" lon="-4.989133">
        <ele>1988.0</ele>
        <time>2013-06-30T12:42:50Z</time>
      </trkpt>
      <trkpt lat="40.210183" lon="-4.989300">
        <ele>1985.0</ele>
        <time>2013-06-30T12:42:51Z</time>
      </trkpt>
      <trkpt lat="40.210133" lon="-4.989433">
        <ele>1981.0</ele>
        <time>2013-06-30T12:42:52Z</time>
      </trkpt>
      <trkpt lat="40.210067" lon="-4.989583">
        <ele>1977.0</ele>
        <time>2013-06-30T12:42:53Z</time>
      </trkpt>
      <trkpt lat="40.210017" lon="-4.989733">
        <ele>1973.0</ele>
        <time>2013-06-30T12:42:54Z</time>
      </trkpt>
      <trkpt lat="40.209950" lon="-4.989900">
        <ele>1970.0</ele>
        <time>2013-06-30T12:42:55Z</time>
      </trkpt>
      <trkpt lat="40.209883" lon="-4.990067">
        <ele>1967.0</ele>
        <time>2013-06-30T12:42:56Z</time>
      </trkpt>
      <trkpt lat="40.209833" lon="-4.990217">
        <ele>1965.0</ele>
        <time>2013-06-30T12:42:57Z</time>
      </trkpt>
      <trkpt lat="40.209800" lon="-4.990367">
        <ele>1963.0</ele>
        <time>2013-06-30T12:42:58Z</time>
      </trkpt>
      <trkpt lat="40.209750" lon="-4.990500">
        <ele>1961.0</ele>
        <time>2013-06-30T12:42:59Z</time>
      </trkpt>
      <trkpt lat="40.209717" lon="-4.990633">
        <ele>1958.0</ele>
        <time>2013-06-30T12:43:00Z</time>
      </trkpt>
      <trkpt lat="40.209667" lon="-4.990783">
        <ele>1953.0</ele>
        <time>2013-06-30T12:43:01Z</time>
      </trkpt>
      <trkpt lat="40.209600" lon="-4.990950">
        <ele>1949.0</ele>
        <time>2013-06-30T12:43:02Z</time>
      </trkpt>
      <trkpt lat="40.209533" lon="-4.991100">
        <ele>1946.0</ele>
        <time>2013-06-30T12:43:03Z</time>
      </trkpt>
      <trkpt lat="40.209450" lon="-4.991250">
        <ele>1942.0</ele>
        <time>2013-06-30T12:43:04Z</time>
      </trkpt>
      <trkpt lat="40.209350" lon="-4.991383">
        <ele>1940.0</ele>
        <time>2013-06-30T12:43:05Z</time>
      </trkpt>
      <trkpt lat="40.209267" lon="-4.991500">
        <ele>1937.0</ele>
        <time>2013-06-30T12:43:06Z</time>
      </trkpt>
      <trkpt lat="40.209200" lon="-4.991633">
        <ele>1934.0</ele>
        <time>2013-06-30T12:43:07Z</time>
      </trkpt>
      <trkpt lat="40.209133" lon="-4.991783">
        <ele>1931.0</ele>
        <time>2013-06-30T12:43:08Z</time>
      </trkpt>
      <trkpt lat="40.209050" lon="-4.991917">
        <ele>1928.0</ele>
        <time>2013-06-30T12:43:09Z</time>
      </trkpt>
      <trkpt lat="40.208967" lon="-4.992050">
        <ele>1926.0</ele>
        <time>2013-06-30T12:43:10Z</time>
      </trkpt>
      <trkpt lat="40.208900" lon="-4.992183">
        <ele>1925.0</ele>
        <time>2013-06-30T12:43:11Z</time>
      </trkpt>
      <trkpt lat="40.208833" lon="-4.992300">
        <ele>1924.0</ele>
        <time>2013-06-30T12:43:12Z</time>
      </trkpt>
      <trkpt lat="40.208750" lon="-4.992400">
        <ele>1922.0</ele>
        <time>2013-06-30T12:43:13Z</time>
      </trkpt>
      <trkpt lat="40.208683" lon="-4.992517">
        <ele>1920.0</ele>
        <time>2013-06-30T12:43:14Z</time>
      </trkpt>
      <trkpt lat="40.208600" lon="-4.992633">
        <ele>1917.0</ele>
        <time>2013-06-30T12:43:15Z</time>
      </trkpt>
      <trkpt lat="40.208517" lon="-4.992783">
        <ele>1914.0</ele>
        <time>2013-06-30T12:43:16Z</time>
      </trkpt>
      <trkpt lat="40.208450" lon="-4.992933">
        <ele>1911.0</ele>
        <time>2013-06-30T12:43:17Z</time>
      </trkpt>
      <trkpt lat="40.208367" lon="-4.993067">
        <ele>1909.0</ele>
        <time>2013-06-30T12:43:18Z</time>
      </trkpt>
      <trkpt lat="40.208283" lon="-4.993183">
        <ele>1907.0</ele>
        <time>2013-06-30T12:43:19Z</time>
      </trkpt>
      <trkpt lat="40.208217" lon="-4.993300">
        <ele>1905.0</ele>
        <time>2013-06-30T12:43:20Z</time>
      </trkpt>
      <trkpt lat="40.208150" lon="-4.993417">
        <ele>1903.0</ele>
        <time>2013-06-30T12:43:21Z</time>
      </trkpt>
      <trkpt lat="40.208083" lon="-4.993533">
        <ele>1900.0</ele>
        <time>2013-06-30T12:43:22Z</time>
      </trkpt>
      <trkpt lat="40.208000" lon="-4.993667">
        <ele>1897.0</ele>
        <time>2013-06-30T12:43:23Z</time>
      </trkpt>
      <trkpt lat="40.207933" lon="-4.993783">
        <ele>1895.0</ele>
        <time>2013-06-30T12:43:24Z</time>
      </trkpt>
      <trkpt lat="40.207867" lon="-4.993917">
        <ele>1893.0</ele>
        <time>2013-06-30T12:43:25Z</time>
      </trkpt>
      <trkpt lat="40.207783" lon="-4.994033">
        <ele>1891.0</ele>
        <time>2013-06-30T12:43:26Z</time>
      </trkpt>
      <trkpt lat="40.207700" lon="-4.994133">
        <ele>1890.0</ele>
        <time>2013-06-30T12:43:27Z</time>
      </trkpt>
      <trkpt lat="40.207617" lon="-4.994250">
        <ele>1888.0</ele>
        <time>2013-06-30T12:43:28Z</time>
      </trkpt>
      <trkpt lat="40.207517" lon="-4.994350">
        <ele>1888.0</ele>
        <time>2013-06-30T12:43:29Z</time>
      </trkpt>
      <trkpt lat="40.207450" lon="-4.994467">
        <ele>1889.0</ele>
        <time>2013-06-30T12:43:30Z</time>
      </trkpt>
      <trkpt lat="40.207383" lon="-4.994567">
        <ele>1890.0</ele>
        <time>2013-06-30T12:43:31Z</time>
      </trkpt>
      <trkpt lat="40.207317" lon="-4.994667">
        <ele>1890.0</ele>
        <time>2013-06-30T12:43:32Z</time>
      </trkpt>
      <trkpt lat="40.207250" lon="-4.994767">
        <ele>1890.0</ele>
        <time>2013-06-30T12:43:33Z</time>
      </trkpt>
      <trkpt lat="40.207167" lon="-4.994850">
        <ele>1891.0</ele>
        <time>2013-06-30T12:43:34Z</time>
      </trkpt>
      <trkpt lat="40.207100" lon="-4.994933">
        <ele>1891.0</ele>
        <time>2013-06-30T12:43:35Z</time>
      </trkpt>
      <trkpt lat="40.207050" lon="-4.995017">
        <ele>1888.0</ele>
        <time>2013-06-30T12:43:36Z</time>
      </trkpt>
      <trkpt lat="40.206983" lon="-4.995133">
        <ele>1886.0</ele>
        <time>2013-06-30T12:43:37Z</time>
      </trkpt>
      <trkpt lat="40.206900" lon="-4.995233">
        <ele>1884.0</ele>
        <time>2013-06-30T12:43:38Z</time>
      </trkpt>
      <trkpt lat="40.206833" lon="-4.995350">
        <ele>1885.0</ele>
        <time>2013-06-30T12:43:39Z</time>
      </trkpt>
      <trkpt lat="40.206783" lon="-4.995450">
        <ele>1885.0</ele>
        <time>2013-06-30T12:43:40Z</time>
      </trkpt>
      <trkpt lat="40.206733" lon="-4.995550">
        <ele>1885.0</ele>
        <time>2013-06-30T12:43:41Z</time>
      </trkpt>
      <trkpt lat="40.206683" lon="-4.995650">
        <ele>1885.0</ele>
        <time>2013-06-30T12:43:42Z</time>
      </trkpt>
      <trkpt lat="40.206633" lon="-4.995750">
        <ele>1883.0</ele>
        <time>2013-06-30T12:43:43Z</time>
      </trkpt>
      <trkpt lat="40.206567" lon="-4.995883">
        <ele>1880.0</ele>
        <time>2013-06-30T12:43:44Z</time>
      </trkpt>
      <trkpt lat="40.206517" lon="-4.996017">
        <ele>1878.0</ele>
        <time>2013-06-30T12:43:45Z</time>
      </trkpt>
      <trkpt lat="40.206450" lon="-4.996167">
        <ele>1878.0</ele>
        <time>2013-06-30T12:43:46Z</time>
      </trkpt>
      <trkpt lat="40.206417" lon="-4.996300">
        <ele>1880.0</ele>
        <time>2013-06-30T12:43:47Z</time>
      </trkpt>
      <trkpt lat="40.206383" lon="-4.996433">
        <ele>1882.0</ele>
        <time>2013-06-30T12:43:48Z</time>
      </trkpt>
      <trkpt lat="40.206350" lon="-4.996533">
        <ele>1883.0</ele>
        <time>2013-06-30T12:43:49Z</time>
      </trkpt>
      <trkpt lat="40.206317" lon="-4.996633">
        <ele>1883.0</ele>
        <time>2013-06-30T12:43:50Z</time>
      </trkpt>
      <trkpt lat="40.206267" lon="-4.996717">
        <ele>1883.0</ele>
        <time>2013-06-30T12:43:51Z</time>
      </trkpt>
      <trkpt lat="40.206233" lon="-4.996817">
        <ele>1883.0</ele>
        <time>2013-06-30T12:43:52Z</time>
      </trkpt>
      <trkpt lat="40.206200" lon="-4.996900">
        <ele>1882.0</ele>
        <time>2013-06-30T12:43:53Z</time>
      </trkpt>
      <trkpt lat="40.206150" lon="-4.997000">
        <ele>1880.0</ele>
        <time>2013-06-30T12:43:54Z</time>
      </trkpt>
      <trkpt lat="40.206100" lon="-4.997100">
        <ele>1879.0</ele>
        <time>2013-06-30T12:43:55Z</time>
      </trkpt>
      <trkpt lat="40.206050" lon="-4.997233">
        <ele>1878.0</ele>
        <time>2013-06-30T12:43:56Z</time>
      </trkpt>
      <trkpt lat="40.205983" lon="-4.997350">
        <ele>1876.0</ele>
        <time>2013-06-30T12:43:57Z</time>
      </trkpt>
      <trkpt lat="40.205917" lon="-4.997483">
        <ele>1877.0</ele>
        <time>2013-06-30T12:43:58Z</time>
      </trkpt>
      <trkpt lat="40.205867" lon="-4.997600">
        <ele>1877.0</ele>
        <time>2013-06-30T12:43:59Z</time>
      </trkpt>
      <trkpt lat="40.205833" lon="-4.997700">
        <ele>1877.0</ele>
        <time>2013-06-30T12:44:00Z</time>
      </trkpt>
      <trkpt lat="40.205800" lon="-4.997817">
        <ele>1876.0</ele>
        <time>2013-06-30T12:44:01Z</time>
      </trkpt>
      <trkpt lat="40.205750" lon="-4.997950">
        <ele>1875.0</ele>
        <time>2013-06-30T12:44:02Z</time>
      </trkpt>
      <trkpt lat="40.205717" lon="-4.998067">
        <ele>1873.0</ele>
        <time>2013-06-30T12:44:03Z</time>
      </trkpt>
      <trkpt lat="40.205667" lon="-4.998200">
        <ele>1872.0</ele>
        <time>2013-06-30T12:44:04Z</time>
      </trkpt>
      <trkpt lat="40.205617" lon="-4.998333">
        <ele>1872.0</ele>
        <time>2013-06-30T12:44:05Z</time>
      </trkpt>
      <trkpt lat="40.205583" lon="-4.998450">
        <ele>1871.0</ele>
        <time>2013-06-30T12:44:06Z</time>
      </trkpt>
      <trkpt lat="40.205533" lon="-4.998567">
        <ele>1869.0</ele>
        <time>2013-06-30T12:44:07Z</time>
      </trkpt>
      <trkpt lat="40.205483" lon="-4.998683">
        <ele>1867.0</ele>
        <time>2013-06-30T12:44:08Z</time>
      </trkpt>
      <trkpt lat="40.205450" lon="-4.998817">
        <ele>1865.0</ele>
        <time>2013-06-30T12:44:09Z</time>
      </trkpt>
      <trkpt lat="40.205400" lon="-4.998950">
        <ele>1863.0</ele>
        <time>2013-06-30T12:44:10Z</time>
      </trkpt>
      <trkpt lat="40.205333" lon="-4.999100">
        <ele>1861.0</ele>
        <time>2013-06-30T12:44:11Z</time>
      </trkpt>
      <trkpt lat="40.205283" lon="-4.999233">
        <ele>1859.0</ele>
        <time>2013-06-30T12:44:12Z</time>
      </trkpt>
      <trkpt lat="40.205233" lon="-4.999367">
        <ele>1858.0</ele>
        <time>2013-06-30T12:44:13Z</time>
      </trkpt>
      <trkpt lat="40.205183" lon="-4.999500">
        <ele>1858.0</ele>
        <time>2013-06-30T12:44:14Z</time>
      </trkpt>
      <trkpt lat="40.205133" lon="-4.999633">
        <ele>1857.0</ele>
        <time>2013-06-30T12:44:15Z</time>
      </trkpt>
      <trkpt lat="40.205083" lon="-4.999767">
        <ele>1855.0</ele>
        <time>2013-06-30T12:44:16Z</time>
      </trkpt>
      <trkpt lat="40.205017" lon="-4.999917">
        <ele>1853.0</ele>
        <time>2013-06-30T12:44:17Z</time>
      </trkpt>
      <trkpt lat="40.204950" lon="-5.000050">
        <ele>1853.0</ele>
        <time>2013-06-30T12:44:18Z</time>
      </trkpt>
      <trkpt lat="40.204900" lon="-5.000167">
        <ele>1852.0</ele>
        <time>2013-06-30T12:44:19Z</time>
      </trkpt>
      <trkpt lat="40.204850" lon="-5.000283">
        <ele>1850.0</ele>
        <time>2013-06-30T12:44:20Z</time>
      </trkpt>
      <trkpt lat="40.204800" lon="-5.000417">
        <ele>1848.0</ele>
        <time>2013-06-30T12:44:21Z</time>
      </trkpt>
      <trkpt lat="40.204733" lon="-5.000567">
        <ele>1846.0</ele>
        <time>2013-06-30T12:44:22Z</time>
      </trkpt>
      <trkpt lat="40.204667" lon="-5.000700">
        <ele>1844.0</ele>
        <time>2013-06-30T12:44:23Z</time>
      </trkpt>
      <trkpt lat="40.204617" lon="-5.000850">
        <ele>1842.0</ele>
        <time>2013-06-30T12:44:24Z</time>
      </trkpt>
      <trkpt lat="40.204567" lon="-5.001000">
        <ele>1841.0</ele>
        <time>2013-06-30T12:44:25Z</time>
      </trkpt>
      <trkpt lat="40.204533" lon="-5.001133">
        <ele>1840.0</ele>
        <time>2013-06-30T12:44:26Z</time>
      </trkpt>
      <trkpt lat="40.204500" lon="-5.001267">
        <ele>1838.0</ele>
        <time>2013-06-30T12:44:27Z</time>
      </trkpt>
      <trkpt lat="40.204450" lon="-5.001400">
        <ele>1836.0</ele>
        <time>2013-06-30T12:44:28Z</time>
      </trkpt>
      <trkpt lat="40.204417" lon="-5.001550">
        <ele>1833.0</ele>
        <time>2013-06-30T12:44:29Z</time>
      </trkpt>
      <trkpt lat="40.204367" lon="-5.001717">
        <ele>1830.0</ele>
        <time>2013-06-30T12:44:30Z</time>
      </trkpt>
      <trkpt lat="40.204333" lon="-5.001867">
        <ele>1828.0</ele>
        <time>2013-06-30T12:44:31Z</time>
      </trkpt>
      <trkpt lat="40.204300" lon="-5.002033">
        <ele>1826.0</ele>
        <time>2013-06-30T12:44:32Z</time>
      </trkpt>
      <trkpt lat="40.204267" lon="-5.002183">
        <ele>1824.0</ele>
        <time>2013-06-30T12:44:33Z</time>
      </trkpt>
      <trkpt lat="40.204217" lon="-5.002333">
        <ele>1822.0</ele>
        <time>2013-06-30T12:44:34Z</time>
      </trkpt>
      <trkpt lat="40.204167" lon="-5.002483">
        <ele>1820.0</ele>
        <time>2013-06-30T12:44:35Z</time>
      </trkpt>
      <trkpt lat="40.204133" lon="-5.002633">
        <ele>1819.0</ele>
        <time>2013-06-30T12:44:36Z</time>
      </trkpt>
      <trkpt lat="40.204100" lon="-5.002800">
        <ele>1818.0</ele>
        <time>2013-06-30T12:44:37Z</time>
      </trkpt>
      <trkpt lat="40.204050" lon="-5.002950">
        <ele>1817.0</ele>
        <time>2013-06-30T12:44:38Z</time>
      </trkpt>
      <trkpt lat="40.204033" lon="-5.003100">
        <ele>1817.0</ele>
        <time>2013-06-30T12:44:39Z</time>
      </trkpt>
      <trkpt lat="40.204000" lon="-5.003250">
        <ele>1816.0</ele>
        <time>2013-06-30T12:44:40Z</time>
      </trkpt>
      <trkpt lat="40.203967" lon="-5.003400">
        <ele>1816.0</ele>
        <time>2013-06-30T12:44:41Z</time>
      </trkpt>
      <trkpt lat="40.203950" lon="-5.003567">
        <ele>1815.0</ele>
        <time>2013-06-30T12:44:42Z</time>
      </trkpt>
      <trkpt lat="40.203933" lon="-5.003733">
        <ele>1814.0</ele>
        <time>2013-06-30T12:44:43Z</time>
      </trkpt>
      <trkpt lat="40.203900" lon="-5.003917">
        <ele>1815.0</ele>
        <time>2013-06-30T12:44:44Z</time>
      </trkpt>
      <trkpt lat="40.203867" lon="-5.004067">
        <ele>1818.0</ele>
        <time>2013-06-30T12:44:45Z</time>
      </trkpt>
      <trkpt lat="40.203817" lon="-5.004183">
        <ele>1822.0</ele>
        <time>2013-06-30T12:44:46Z</time>
      </trkpt>
      <trkpt lat="40.203783" lon="-5.004283">
        <ele>1826.0</ele>
        <time>2013-06-30T12:44:47Z</time>
      </trkpt>
      <trkpt lat="40.203767" lon="-5.004367">
        <ele>1829.0</ele>
        <time>2013-06-30T12:44:48Z</time>
      </trkpt>
      <trkpt lat="40.203733" lon="-5.004450">
        <ele>1831.0</ele>
        <time>2013-06-30T12:44:49Z</time>
      </trkpt>
      <trkpt lat="40.203700" lon="-5.004550">
        <ele>1832.0</ele>
        <time>2013-06-30T12:44:50Z</time>
      </trkpt>
      <trkpt lat="40.203633" lon="-5.004667">
        <ele>1834.0</ele>
        <time>2013-06-30T12:44:51Z</time>
      </trkpt>
      <trkpt lat="40.203583" lon="-5.004750">
        <ele>1836.0</ele>
        <time>2013-06-30T12:44:52Z</time>
      </trkpt>
      <trkpt lat="40.203517" lon="-5.004783">
        <ele>1838.0</ele>
        <time>2013-06-30T12:44:53Z</time>
      </trkpt>
      <trkpt lat="40.203467" lon="-5.004783">
        <ele>1839.0</ele>
        <time>2013-06-30T12:44:54Z</time>
      </trkpt>
      <trkpt lat="40.203417" lon="-5.004750">
        <ele>1840.0</ele>
        <time>2013-06-30T12:44:55Z</time>
      </trkpt>
      <trkpt lat="40.203400" lon="-5.004700">
        <ele>1840.0</ele>
        <time>2013-06-30T12:44:56Z</time>
      </trkpt>
      <trkpt lat="40.203383" lon="-5.004650">
        <ele>1842.0</ele>
        <time>2013-06-30T12:44:57Z</time>
      </trkpt>
      <trkpt lat="40.203400" lon="-5.004600">
        <ele>1843.0</ele>
        <time>2013-06-30T12:44:58Z</time>
      </trkpt>
      <trkpt lat="40.203433" lon="-5.004567">
        <ele>1844.0</ele>
        <time>2013-06-30T12:44:59Z</time>
      </trkpt>
      <trkpt lat="40.203483" lon="-5.004517">
        <ele>1845.0</ele>
        <time>2013-06-30T12:45:00Z</time>
      </trkpt>
      <trkpt lat="40.203533" lon="-5.004467">
        <ele>1846.0</ele>
        <time>2013-06-30T12:45:01Z</time>
      </trkpt>
      <trkpt lat="40.203600" lon="-5.004433">
        <ele>1848.0</ele>
        <time>2013-06-30T12:45:02Z</time>
      </trkpt>
      <trkpt lat="40.203667" lon="-5.004450">
        <ele>1850.0</ele>
        <time>2013-06-30T12:45:03Z</time>
      </trkpt>
      <trkpt lat="40.203750" lon="-5.004500">
        <ele>1850.0</ele>
        <time>2013-06-30T12:45:04Z</time>
      </trkpt>
      <trkpt lat="40.203817" lon="-5.004567">
        <ele>1851.0</ele>
        <time>2013-06-30T12:45:05Z</time>
      </trkpt>
      <trkpt lat="40.203900" lon="-5.004633">
        <ele>1851.0</ele>
        <time>2013-06-30T12:45:06Z</time>
      </trkpt>
      <trkpt lat="40.203967" lon="-5.004700">
        <ele>1853.0</ele>
        <time>2013-06-30T12:45:07Z</time>
      </trkpt>
      <trkpt lat="40.204033" lon="-5.004783">
        <ele>1854.0</ele>
        <time>2013-06-30T12:45:08Z</time>
      </trkpt>
      <trkpt lat="40.204100" lon="-5.004850">
        <ele>1855.0</ele>
        <time>2013-06-30T12:45:09Z</time>
      </trkpt>
      <trkpt lat="40.204167" lon="-5.004933">
        <ele>1856.0</ele>
        <time>2013-06-30T12:45:10Z</time>
      </trkpt>
      <trkpt lat="40.204217" lon="-5.005050">
        <ele>1856.0</ele>
        <time>2013-06-30T12:45:11Z</time>
      </trkpt>
      <trkpt lat="40.204250" lon="-5.005183">
        <ele>1857.0</ele>
        <time>2013-06-30T12:45:12Z</time>
      </trkpt>
      <trkpt lat="40.204267" lon="-5.005317">
        <ele>1857.0</ele>
        <time>2013-06-30T12:45:13Z</time>
      </trkpt>
      <trkpt lat="40.204267" lon="-5.005467">
        <ele>1858.0</ele>
        <time>2013-06-30T12:45:14Z</time>
      </trkpt>
      <trkpt lat="40.204283" lon="-5.005600">
        <ele>1862.0</ele>
        <time>2013-06-30T12:45:15Z</time>
      </trkpt>
      <trkpt lat="40.204267" lon="-5.005717">
        <ele>1865.0</ele>
        <time>2013-06-30T12:45:16Z</time>
      </trkpt>
      <trkpt lat="40.204250" lon="-5.005800">
        <ele>1868.0</ele>
        <time>2013-06-30T12:45:17Z</time>
      </trkpt>
      <trkpt lat="40.204250" lon="-5.005867">
        <ele>1871.0</ele>
        <time>2013-06-30T12:45:18Z</time>
      </trkpt>
      <trkpt lat="40.204233" lon="-5.005967">
        <ele>1872.0</ele>
        <time>2013-06-30T12:45:19Z</time>
      </trkpt>
      <trkpt lat="40.204217" lon="-5.006050">
        <ele>1874.0</ele>
        <time>2013-06-30T12:45:20Z</time>
      </trkpt>
      <trkpt lat="40.204183" lon="-5.006150">
        <ele>1876.0</ele>
        <time>2013-06-30T12:45:21Z</time>
      </trkpt>
      <trkpt lat="40.204150" lon="-5.006250">
        <ele>1879.0</ele>
        <time>2013-06-30T12:45:22Z</time>
      </trkpt>
      <trkpt lat="40.204133" lon="-5.006350">
        <ele>1882.0</ele>
        <time>2013-06-30T12:45:23Z</time>
      </trkpt>
      <trkpt lat="40.204133" lon="-5.006467">
        <ele>1884.0</ele>
        <time>2013-06-30T12:45:24Z</time>
      </trkpt>
      <trkpt lat="40.204167" lon="-5.006583">
        <ele>1886.0</ele>
        <time>2013-06-30T12:45:25Z</time>
      </trkpt>
      <trkpt lat="40.204217" lon="-5.006683">
        <ele>1887.0</ele>
        <time>2013-06-30T12:45:26Z</time>
      </trkpt>
      <trkpt lat="40.204283" lon="-5.006783">
        <ele>1890.0</ele>
        <time>2013-06-30T12:45:27Z</time>
      </trkpt>
      <trkpt lat="40.204350" lon="-5.006867">
        <ele>1892.0</ele>
        <time>2013-06-30T12:45:28Z</time>
      </trkpt>
      <trkpt lat="40.204433" lon="-5.006917">
        <ele>1894.0</ele>
        <time>2013-06-30T12:45:29Z</time>
      </trkpt>
      <trkpt lat="40.204533" lon="-5.006933">
        <ele>1896.0</ele>
        <time>2013-06-30T12:45:30Z</time>
      </trkpt>
      <trkpt lat="40.204617" lon="-5.006917">
        <ele>1898.0</ele>
        <time>2013-06-30T12:45:31Z</time>
      </trkpt>
      <trkpt lat="40.204667" lon="-5.006867">
        <ele>1901.0</ele>
        <time>2013-06-30T12:45:32Z</time>
      </trkpt>
      <trkpt lat="40.204683" lon="-5.006833">
        <ele>1904.0</ele>
        <time>2013-06-30T12:45:33Z</time>
      </trkpt>
      <trkpt lat="40.204700" lon="-5.006800">
        <ele>1907.0</ele>
        <time>2013-06-30T12:45:34Z</time>
      </trkpt>
      <trkpt lat="40.204700" lon="-5.006767">
        <ele>1910.0</ele>
        <time>2013-06-30T12:45:35Z</time>
      </trkpt>
      <trkpt lat="40.204700" lon="-5.006717">
        <ele>1912.0</ele>
        <time>2013-06-30T12:45:36Z</time>
      </trkpt>
      <trkpt lat="40.204700" lon="-5.006667">
        <ele>1913.0</ele>
        <time>2013-06-30T12:45:37Z</time>
      </trkpt>
      <trkpt lat="40.204667" lon="-5.006617">
        <ele>1914.0</ele>
        <time>2013-06-30T12:45:38Z</time>
      </trkpt>
      <trkpt lat="40.204600" lon="-5.006583">
        <ele>1916.0</ele>
        <time>2013-06-30T12:45:39Z</time>
      </trkpt>
      <trkpt lat="40.204517" lon="-5.006617">
        <ele>1916.0</ele>
        <time>2013-06-30T12:45:40Z</time>
      </trkpt>
      <trkpt lat="40.204450" lon="-5.006717">
        <ele>1916.0</ele>
        <time>2013-06-30T12:45:41Z</time>
      </trkpt>
      <trkpt lat="40.204417" lon="-5.006850">
        <ele>1918.0</ele>
        <time>2013-06-30T12:45:42Z</time>
      </trkpt>
      <trkpt lat="40.204400" lon="-5.006967">
        <ele>1923.0</ele>
        <time>2013-06-30T12:45:43Z</time>
      </trkpt>
      <trkpt lat="40.204400" lon="-5.007050">
        <ele>1927.0</ele>
        <time>2013-06-30T12:45:44Z</time>
      </trkpt>
      <trkpt lat="40.204400" lon="-5.007133">
        <ele>1930.0</ele>
        <time>2013-06-30T12:45:45Z</time>
      </trkpt>
      <trkpt lat="40.204383" lon="-5.007217">
        <ele>1932.0</ele>
        <time>2013-06-30T12:45:46Z</time>
      </trkpt>
      <trkpt lat="40.204350" lon="-5.007317">
        <ele>1932.0</ele>
        <time>2013-06-30T12:45:47Z</time>
      </trkpt>
      <trkpt lat="40.204333" lon="-5.007417">
        <ele>1933.0</ele>
        <time>2013-06-30T12:45:48Z</time>
      </trkpt>
      <trkpt lat="40.204333" lon="-5.007517">
        <ele>1933.0</ele>
        <time>2013-06-30T12:45:49Z</time>
      </trkpt>
      <trkpt lat="40.204350" lon="-5.007633">
        <ele>1933.0</ele>
        <time>2013-06-30T12:45:50Z</time>
      </trkpt>
      <trkpt lat="40.204383" lon="-5.007767">
        <ele>1933.0</ele>
        <time>2013-06-30T12:45:51Z</time>
      </trkpt>
      <trkpt lat="40.204450" lon="-5.007883">
        <ele>1935.0</ele>
        <time>2013-06-30T12:45:52Z</time>
      </trkpt>
      <trkpt lat="40.204517" lon="-5.007983">
        <ele>1937.0</ele>
        <time>2013-06-30T12:45:53Z</time>
      </trkpt>
      <trkpt lat="40.204600" lon="-5.008067">
        <ele>1939.0</ele>
        <time>2013-06-30T12:45:54Z</time>
      </trkpt>
      <trkpt lat="40.204667" lon="-5.008150">
        <ele>1941.0</ele>
        <time>2013-06-30T12:45:55Z</time>
      </trkpt>
      <trkpt lat="40.204717" lon="-5.008233">
        <ele>1943.0</ele>
        <time>2013-06-30T12:45:56Z</time>
      </trkpt>
      <trkpt lat="40.204783" lon="-5.008317">
        <ele>1944.0</ele>
        <time>2013-06-30T12:45:57Z</time>
      </trkpt>
      <trkpt lat="40.204867" lon="-5.008400">
        <ele>1945.0</ele>
        <time>2013-06-30T12:45:58Z</time>
      </trkpt>
      <trkpt lat="40.204933" lon="-5.008467">
        <ele>1947.0</ele>
        <time>2013-06-30T12:45:59Z</time>
      </trkpt>
      <trkpt lat="40.205017" lon="-5.008517">
        <ele>1948.0</ele>
        <time>2013-06-30T12:46:00Z</time>
      </trkpt>
      <trkpt lat="40.205100" lon="-5.008533">
        <ele>1949.0</ele>
        <time>2013-06-30T12:46:01Z</time>
      </trkpt>
      <trkpt lat="40.205167" lon="-5.008533">
        <ele>1950.0</ele>
        <time>2013-06-30T12:46:02Z</time>
      </trkpt>
      <trkpt lat="40.205233" lon="-5.008517">
        <ele>1952.0</ele>
        <time>2013-06-30T12:46:03Z</time>
      </trkpt>
      <trkpt lat="40.205267" lon="-5.008467">
        <ele>1953.0</ele>
        <time>2013-06-30T12:46:04Z</time>
      </trkpt>
      <trkpt lat="40.205250" lon="-5.008433">
        <ele>1954.0</ele>
        <time>2013-06-30T12:46:05Z</time>
      </trkpt>
      <trkpt lat="40.205217" lon="-5.008383">
        <ele>1954.0</ele>
        <time>2013-06-30T12:46:06Z</time>
      </trkpt>
      <trkpt lat="40.205167" lon="-5.008350">
        <ele>1956.0</ele>
        <time>2013-06-30T12:46:07Z</time>
      </trkpt>
      <trkpt lat="40.205117" lon="-5.008317">
        <ele>1957.0</ele>
        <time>2013-06-30T12:46:08Z</time>
      </trkpt>
      <trkpt lat="40.205050" lon="-5.008300">
        <ele>1959.0</ele>
        <time>2013-06-30T12:46:09Z</time>
      </trkpt>
      <trkpt lat="40.205000" lon="-5.008300">
        <ele>1961.0</ele>
        <time>2013-06-30T12:46:10Z</time>
      </trkpt>
      <trkpt lat="40.204950" lon="-5.008283">
        <ele>1962.0</ele>
        <time>2013-06-30T12:46:11Z</time>
      </trkpt>
      <trkpt lat="40.204900" lon="-5.008283">
        <ele>1964.0</ele>
        <time>2013-06-30T12:46:12Z</time>
      </trkpt>
      <trkpt lat="40.204833" lon="-5.008300">
        <ele>1963.0</ele>
        <time>2013-06-30T12:46:13Z</time>
      </trkpt>
      <trkpt lat="40.204783" lon="-5.008317">
        <ele>1964.0</ele>
        <time>2013-06-30T12:46:14Z</time>
      </trkpt>
      <trkpt lat="40.204700" lon="-5.008367">
        <ele>1965.0</ele>
        <time>2013-06-30T12:46:15Z</time>
      </trkpt>
      <trkpt lat="40.204650" lon="-5.008450">
        <ele>1966.0</ele>
        <time>2013-06-30T12:46:16Z</time>
      </trkpt>
      <trkpt lat="40.204617" lon="-5.008550">
        <ele>1969.0</ele>
        <time>2013-06-30T12:46:17Z</time>
      </trkpt>
      <trkpt lat="40.204617" lon="-5.008650">
        <ele>1971.0</ele>
        <time>2013-06-30T12:46:18Z</time>
      </trkpt>
      <trkpt lat="40.204600" lon="-5.008733">
        <ele>1973.0</ele>
        <time>2013-06-30T12:46:19Z</time>
      </trkpt>
      <trkpt lat="40.204583" lon="-5.008817">
        <ele>1974.0</ele>
        <time>2013-06-30T12:46:20Z</time>
      </trkpt>
      <trkpt lat="40.204550" lon="-5.008917">
        <ele>1975.0</ele>
        <time>2013-06-30T12:46:21Z</time>
      </trkpt>
      <trkpt lat="40.204517" lon="-5.009017">
        <ele>1976.0</ele>
        <time>2013-06-30T12:46:22Z</time>
      </trkpt>
      <trkpt lat="40.204500" lon="-5.009150">
        <ele>1977.0</ele>
        <time>2013-06-30T12:46:23Z</time>
      </trkpt>
      <trkpt lat="40.204517" lon="-5.009283">
        <ele>1978.0</ele>
        <time>2013-06-30T12:46:24Z</time>
      </trkpt>
      <trkpt lat="40.204550" lon="-5.009400">
        <ele>1978.0</ele>
        <time>2013-06-30T12:46:25Z</time>
      </trkpt>
      <trkpt lat="40.204600" lon="-5.009517">
        <ele>1978.0</ele>
        <time>2013-06-30T12:46:26Z</time>
      </trkpt>
      <trkpt lat="40.204667" lon="-5.009633">
        <ele>1979.0</ele>
        <time>2013-06-30T12:46:27Z</time>
      </trkpt>
      <trkpt lat="40.204717" lon="-5.009733">
        <ele>1980.0</ele>
        <time>2013-06-30T12:46:28Z</time>
      </trkpt>
      <trkpt lat="40.204783" lon="-5.009850">
        <ele>1980.0</ele>
        <time>2013-06-30T12:46:29Z</time>
      </trkpt>
      <trkpt lat="40.204833" lon="-5.009983">
        <ele>1981.0</ele>
        <time>2013-06-30T12:46:30Z</time>
      </trkpt>
      <trkpt lat="40.204883" lon="-5.010133">
        <ele>1983.0</ele>
        <time>2013-06-30T12:46:31Z</time>
      </trkpt>
      <trkpt lat="40.204900" lon="-5.010267">
        <ele>1984.0</ele>
        <time>2013-06-30T12:46:32Z</time>
      </trkpt>
      <trkpt lat="40.204900" lon="-5.010417">
        <ele>1985.0</ele>
        <time>2013-06-30T12:46:33Z</time>
      </trkpt>
      <trkpt lat="40.204883" lon="-5.010550">
        <ele>1985.0</ele>
        <time>2013-06-30T12:46:34Z</time>
      </trkpt>
      <trkpt lat="40.204867" lon="-5.010683">
        <ele>1986.0</ele>
        <time>2013-06-30T12:46:35Z</time>
      </trkpt>
      <trkpt lat="40.204850" lon="-5.010817">
        <ele>1987.0</ele>
        <time>2013-06-30T12:46:36Z</time>
      </trkpt>
      <trkpt lat="40.204850" lon="-5.010967">
        <ele>1987.0</ele>
        <time>2013-06-30T12:46:37Z</time>
      </trkpt>
      <trkpt lat="40.204833" lon="-5.011100">
        <ele>1987.0</ele>
        <time>2013-06-30T12:46:38Z</time>
      </trkpt>
      <trkpt lat="40.204817" lon="-5.011233">
        <ele>1986.0</ele>
        <time>2013-06-30T12:46:39Z</time>
      </trkpt>
      <trkpt lat="40.204767" lon="-5.011350">
        <ele>1986.0</ele>
        <time>2013-06-30T12:46:40Z</time>
      </trkpt>
      <trkpt lat="40.204717" lon="-5.011467">
        <ele>1986.0</ele>
        <time>2013-06-30T12:46:41Z</time>
      </trkpt>
      <trkpt lat="40.204650" lon="-5.011567">
        <ele>1987.0</ele>
        <time>2013-06-30T12:46:42Z</time>
      </trkpt>
      <trkpt lat="40.204600" lon="-5.011683">
        <ele>1987.0</ele>
        <time>2013-06-30T12:46:43Z</time>
      </trkpt>
      <trkpt lat="40.204567" lon="-5.011800">
        <ele>1988.0</ele>
        <time>2013-06-30T12:46:44Z</time>
      </trkpt>
      <trkpt lat="40.204533" lon="-5.011917">
        <ele>1988.0</ele>
        <time>2013-06-30T12:46:45Z</time>
      </trkpt>
      <trkpt lat="40.204500" lon="-5.012033">
        <ele>1989.0</ele>
        <time>2013-06-30T12:46:46Z</time>
      </trkpt>
      <trkpt lat="40.204467" lon="-5.012150">
        <ele>1989.0</ele>
        <time>2013-06-30T12:46:47Z</time>
      </trkpt>
      <trkpt lat="40.204433" lon="-5.012233">
        <ele>1989.0</ele>
        <time>2013-06-30T12:46:48Z</time>
      </trkpt>
      <trkpt lat="40.204383" lon="-5.012317">
        <ele>1988.0</ele>
        <time>2013-06-30T12:46:49Z</time>
      </trkpt>
      <trkpt lat="40.204333" lon="-5.012367">
        <ele>1987.0</ele>
        <time>2013-06-30T12:46:50Z</time>
      </trkpt>
      <trkpt lat="40.204283" lon="-5.012417">
        <ele>1985.0</ele>
        <time>2013-06-30T12:46:51Z</time>
      </trkpt>
      <trkpt lat="40.204217" lon="-5.012433">
        <ele>1982.0</ele>
        <time>2013-06-30T12:46:52Z</time>
      </trkpt>
      <trkpt lat="40.204150" lon="-5.012417">
        <ele>1981.0</ele>
        <time>2013-06-30T12:46:53Z</time>
      </trkpt>
      <trkpt lat="40.204083" lon="-5.012417">
        <ele>1979.0</ele>
        <time>2013-06-30T12:46:54Z</time>
      </trkpt>
      <trkpt lat="40.204000" lon="-5.012417">
        <ele>1978.0</ele>
        <time>2013-06-30T12:46:55Z</time>
      </trkpt>
      <trkpt lat="40.203917" lon="-5.012450">
        <ele>1977.0</ele>
        <time>2013-06-30T12:46:56Z</time>
      </trkpt>
      <trkpt lat="40.203833" lon="-5.012483">
        <ele>1976.0</ele>
        <time>2013-06-30T12:46:57Z</time>
      </trkpt>
      <trkpt lat="40.203750" lon="-5.012533">
        <ele>1976.0</ele>
        <time>2013-06-30T12:46:58Z</time>
      </trkpt>
      <trkpt lat="40.203667" lon="-5.012583">
        <ele>1975.0</ele>
        <time>2013-06-30T12:46:59Z</time>
      </trkpt>
      <trkpt lat="40.203583" lon="-5.012633">
        <ele>1975.0</ele>
        <time>2013-06-30T12:47:00Z</time>
      </trkpt>
      <trkpt lat="40.203500" lon="-5.012683">
        <ele>1974.0</ele>
        <time>2013-06-30T12:47:01Z</time>
      </trkpt>
      <trkpt lat="40.203417" lon="-5.012717">
        <ele>1974.0</ele>
        <time>2013-06-30T12:47:02Z</time>
      </trkpt>
      <trkpt lat="40.203350" lon="-5.012750">
        <ele>1973.0</ele>
        <time>2013-06-30T12:47:03Z</time>
      </trkpt>
      <trkpt lat="40.203267" lon="-5.012783">
        <ele>1971.0</ele>
        <time>2013-06-30T12:47:04Z</time>
      </trkpt>
      <trkpt lat="40.203183" lon="-5.012833">
        <ele>1971.0</ele>
        <time>2013-06-30T12:47:05Z</time>
      </trkpt>
      <trkpt lat="40.203117" lon="-5.012900">
        <ele>1970.0</ele>
        <time>2013-06-30T12:47:06Z</time>
      </trkpt>
      <trkpt lat="40.203083" lon="-5.013000">
        <ele>1969.0</ele>
        <time>2013-06-30T12:47:07Z</time>
      </trkpt>
      <trkpt lat="40.203050" lon="-5.013117">
        <ele>1966.0</ele>
        <time>2013-06-30T12:47:08Z</time>
      </trkpt>
      <trkpt lat="40.203050" lon="-5.013250">
        <ele>1963.0</ele>
        <time>2013-06-30T12:47:09Z</time>
      </trkpt>
      <trkpt lat="40.203050" lon="-5.013383">
        <ele>1961.0</ele>
        <time>2013-06-30T12:47:10Z</time>
      </trkpt>
      <trkpt lat="40.203083" lon="-5.013500">
        <ele>1959.0</ele>
        <time>2013-06-30T12:47:11Z</time>
      </trkpt>
      <trkpt lat="40.203133" lon="-5.013617">
        <ele>1957.0</ele>
        <time>2013-06-30T12:47:12Z</time>
      </trkpt>
      <trkpt lat="40.203183" lon="-5.013717">
        <ele>1954.0</ele>
        <time>2013-06-30T12:47:13Z</time>
      </trkpt>
      <trkpt lat="40.203233" lon="-5.013817">
        <ele>1951.0</ele>
        <time>2013-06-30T12:47:14Z</time>
      </trkpt>
      <trkpt lat="40.203300" lon="-5.013933">
        <ele>1948.0</ele>
        <time>2013-06-30T12:47:15Z</time>
      </trkpt>
      <trkpt lat="40.203367" lon="-5.014050">
        <ele>1946.0</ele>
        <time>2013-06-30T12:47:16Z</time>
      </trkpt>
      <trkpt lat="40.203433" lon="-5.014167">
        <ele>1944.0</ele>
        <time>2013-06-30T12:47:17Z</time>
      </trkpt>
      <trkpt lat="40.203517" lon="-5.014267">
        <ele>1942.0</ele>
        <time>2013-06-30T12:47:18Z</time>
      </trkpt>
      <trkpt lat="40.203583" lon="-5.014350">
        <ele>1940.0</ele>
        <time>2013-06-30T12:47:19Z</time>
      </trkpt>
      <trkpt lat="40.203650" lon="-5.014450">
        <ele>1937.0</ele>
        <time>2013-06-30T12:47:20Z</time>
      </trkpt>
      <trkpt lat="40.203717" lon="-5.014567">
        <ele>1935.0</ele>
        <time>2013-06-30T12:47:21Z</time>
      </trkpt>
      <trkpt lat="40.203767" lon="-5.014683">
        <ele>1933.0</ele>
        <time>2013-06-30T12:47:22Z</time>
      </trkpt>
      <trkpt lat="40.203783" lon="-5.014817">
        <ele>1932.0</ele>
        <time>2013-06-30T12:47:23Z</time>
      </trkpt>
      <trkpt lat="40.203800" lon="-5.014950">
        <ele>1929.0</ele>
        <time>2013-06-30T12:47:24Z</time>
      </trkpt>
      <trkpt lat="40.203817" lon="-5.015083">
        <ele>1927.0</ele>
        <time>2013-06-30T12:47:25Z</time>
      </trkpt>
      <trkpt lat="40.203850" lon="-5.015217">
        <ele>1924.0</ele>
        <time>2013-06-30T12:47:26Z</time>
      </trkpt>
      <trkpt lat="40.203883" lon="-5.015350">
        <ele>1922.0</ele>
        <time>2013-06-30T12:47:27Z</time>
      </trkpt>
      <trkpt lat="40.203917" lon="-5.015483">
        <ele>1921.0</ele>
        <time>2013-06-30T12:47:28Z</time>
      </trkpt>
      <trkpt lat="40.203967" lon="-5.015617">
        <ele>1919.0</ele>
        <time>2013-06-30T12:47:29Z</time>
      </trkpt>
      <trkpt lat="40.204000" lon="-5.015733">
        <ele>1917.0</ele>
        <time>2013-06-30T12:47:30Z</time>
      </trkpt>
      <trkpt lat="40.204033" lon="-5.015867">
        <ele>1914.0</ele>
        <time>2013-06-30T12:47:31Z</time>
      </trkpt>
      <trkpt lat="40.204067" lon="-5.016000">
        <ele>1912.0</ele>
        <time>2013-06-30T12:47:32Z</time>
      </trkpt>
      <trkpt lat="40.204083" lon="-5.016150">
        <ele>1910.0</ele>
        <time>2013-06-30T12:47:33Z</time>
      </trkpt>
      <trkpt lat="40.204083" lon="-5.016283">
        <ele>1908.0</ele>
        <time>2013-06-30T12:47:34Z</time>
      </trkpt>
      <trkpt lat="40.204100" lon="-5.016433">
        <ele>1906.0</ele>
        <time>2013-06-30T12:47:35Z</time>
      </trkpt>
      <trkpt lat="40.204100" lon="-5.016567">
        <ele>1906.0</ele>
        <time>2013-06-30T12:47:36Z</time>
      </trkpt>
      <trkpt lat="40.204100" lon="-5.016717">
        <ele>1905.0</ele>
        <time>2013-06-30T12:47:37Z</time>
      </trkpt>
      <trkpt lat="40.204100" lon="-5.016867">
        <ele>1903.0</ele>
        <time>2013-06-30T12:47:38Z</time>
      </trkpt>
      <trkpt lat="40.204083" lon="-5.017017">
        <ele>1902.0</ele>
        <time>2013-06-30T12:47:39Z</time>
      </trkpt>
      <trkpt lat="40.204067" lon="-5.017183">
        <ele>1902.0</ele>
        <time>2013-06-30T12:47:40Z</time>
      </trkpt>
      <trkpt lat="40.204050" lon="-5.017317">
        <ele>1903.0</ele>
        <time>2013-06-30T12:47:41Z</time>
      </trkpt>
      <trkpt lat="40.204050" lon="-5.017450">
        <ele>1902.0</ele>
        <time>2013-06-30T12:47:42Z</time>
      </trkpt>
      <trkpt lat="40.204033" lon="-5.017567">
        <ele>1902.0</ele>
        <time>2013-06-30T12:47:43Z</time>
      </trkpt>
      <trkpt lat="40.204033" lon="-5.017667">
        <ele>1901.0</ele>
        <time>2013-06-30T12:47:44Z</time>
      </trkpt>
      <trkpt lat="40.204033" lon="-5.017767">
        <ele>1900.0</ele>
        <time>2013-06-30T12:47:45Z</time>
      </trkpt>
      <trkpt lat="40.204017" lon="-5.017883">
        <ele>1897.0</ele>
        <time>2013-06-30T12:47:46Z</time>
      </trkpt>
      <trkpt lat="40.203983" lon="-5.018000">
        <ele>1893.0</ele>
        <time>2013-06-30T12:47:47Z</time>
      </trkpt>
      <trkpt lat="40.203950" lon="-5.018133">
        <ele>1890.0</ele>
        <time>2013-06-30T12:47:48Z</time>
      </trkpt>
      <trkpt lat="40.203917" lon="-5.018283">
        <ele>1888.0</ele>
        <time>2013-06-30T12:47:49Z</time>
      </trkpt>
      <trkpt lat="40.203900" lon="-5.018417">
        <ele>1886.0</ele>
        <time>2013-06-30T12:47:50Z</time>
      </trkpt>
      <trkpt lat="40.203867" lon="-5.018550">
        <ele>1886.0</ele>
        <time>2013-06-30T12:47:51Z</time>
      </trkpt>
      <trkpt lat="40.203850" lon="-5.018667">
        <ele>1884.0</ele>
        <time>2013-06-30T12:47:52Z</time>
      </trkpt>
      <trkpt lat="40.203817" lon="-5.018800">
        <ele>1882.0</ele>
        <time>2013-06-30T12:47:53Z</time>
      </trkpt>
      <trkpt lat="40.203783" lon="-5.018933">
        <ele>1879.0</ele>
        <time>2013-06-30T12:47:54Z</time>
      </trkpt>
      <trkpt lat="40.203750" lon="-5.019067">
        <ele>1877.0</ele>
        <time>2013-06-30T12:47:55Z</time>
      </trkpt>
      <trkpt lat="40.203717" lon="-5.019200">
        <ele>1875.0</ele>
        <time>2013-06-30T12:47:56Z</time>
      </trkpt>
      <trkpt lat="40.203667" lon="-5.019333">
        <ele>1874.0</ele>
        <time>2013-06-30T12:47:57Z</time>
      </trkpt>
      <trkpt lat="40.203633" lon="-5.019450">
        <ele>1873.0</ele>
        <time>2013-06-30T12:47:58Z</time>
      </trkpt>
      <trkpt lat="40.203600" lon="-5.019567">
        <ele>1873.0</ele>
        <time>2013-06-30T12:47:59Z</time>
      </trkpt>
      <trkpt lat="40.203567" lon="-5.019667">
        <ele>1871.0</ele>
        <time>2013-06-30T12:48:00Z</time>
      </trkpt>
      <trkpt lat="40.203550" lon="-5.019767">
        <ele>1868.0</ele>
        <time>2013-06-30T12:48:01Z</time>
      </trkpt>
      <trkpt lat="40.203517" lon="-5.019883">
        <ele>1864.0</ele>
        <time>2013-06-30T12:48:02Z</time>
      </trkpt>
      <trkpt lat="40.203467" lon="-5.020017">
        <ele>1861.0</ele>
        <time>2013-06-30T12:48:03Z</time>
      </trkpt>
      <trkpt lat="40.203433" lon="-5.020167">
        <ele>1858.0</ele>
        <time>2013-06-30T12:48:04Z</time>
      </trkpt>
      <trkpt lat="40.203400" lon="-5.020300">
        <ele>1856.0</ele>
        <time>2013-06-30T12:48:05Z</time>
      </trkpt>
      <trkpt lat="40.203367" lon="-5.020433">
        <ele>1855.0</ele>
        <time>2013-06-30T12:48:06Z</time>
      </trkpt>
      <trkpt lat="40.203317" lon="-5.020567">
        <ele>1854.0</ele>
        <time>2013-06-30T12:48:07Z</time>
      </trkpt>
      <trkpt lat="40.203267" lon="-5.020700">
        <ele>1853.0</ele>
        <time>2013-06-30T12:48:08Z</time>
      </trkpt>
      <trkpt lat="40.203200" lon="-5.020817">
        <ele>1852.0</ele>
        <time>2013-06-30T12:48:09Z</time>
      </trkpt>
      <trkpt lat="40.203133" lon="-5.020933">
        <ele>1851.0</ele>
        <time>2013-06-30T12:48:10Z</time>
      </trkpt>
      <trkpt lat="40.203067" lon="-5.021050">
        <ele>1849.0</ele>
        <time>2013-06-30T12:48:11Z</time>
      </trkpt>
      <trkpt lat="40.203000" lon="-5.021167">
        <ele>1848.0</ele>
        <time>2013-06-30T12:48:12Z</time>
      </trkpt>
      <trkpt lat="40.202933" lon="-5.021300">
        <ele>1846.0</ele>
        <time>2013-06-30T12:48:13Z</time>
      </trkpt>
      <trkpt lat="40.202867" lon="-5.021417">
        <ele>1845.0</ele>
        <time>2013-06-30T12:48:14Z</time>
      </trkpt>
      <trkpt lat="40.202800" lon="-5.021533">
        <ele>1844.0</ele>
        <time>2013-06-30T12:48:15Z</time>
      </trkpt>
      <trkpt lat="40.202733" lon="-5.021650">
        <ele>1843.0</ele>
        <time>2013-06-30T12:48:16Z</time>
      </trkpt>
      <trkpt lat="40.202650" lon="-5.021750">
        <ele>1841.0</ele>
        <time>2013-06-30T12:48:17Z</time>
      </trkpt>
      <trkpt lat="40.202583" lon="-5.021850">
        <ele>1839.0</ele>
        <time>2013-06-30T12:48:18Z</time>
      </trkpt>
      <trkpt lat="40.202500" lon="-5.021950">
        <ele>1837.0</ele>
        <time>2013-06-30T12:48:19Z</time>
      </trkpt>
      <trkpt lat="40.202417" lon="-5.022050">
        <ele>1835.0</ele>
        <time>2013-06-30T12:48:20Z</time>
      </trkpt>
      <trkpt lat="40.202333" lon="-5.022167">
        <ele>1833.0</ele>
        <time>2013-06-30T12:48:21Z</time>
      </trkpt>
      <trkpt lat="40.202267" lon="-5.022283">
        <ele>1832.0</ele>
        <time>2013-06-30T12:48:22Z</time>
      </trkpt>
      <trkpt lat="40.202200" lon="-5.022400">
        <ele>1832.0</ele>
        <time>2013-06-30T12:48:23Z</time>
      </trkpt>
      <trkpt lat="40.202133" lon="-5.022500">
        <ele>1830.0</ele>
        <time>2013-06-30T12:48:24Z</time>
      </trkpt>
      <trkpt lat="40.202050" lon="-5.022617">
        <ele>1827.0</ele>
        <time>2013-06-30T12:48:25Z</time>
      </trkpt>
      <trkpt lat="40.201983" lon="-5.022733">
        <ele>1825.0</ele>
        <time>2013-06-30T12:48:26Z</time>
      </trkpt>
      <trkpt lat="40.201917" lon="-5.022867">
        <ele>1823.0</ele>
        <time>2013-06-30T12:48:27Z</time>
      </trkpt>
      <trkpt lat="40.201850" lon="-5.022983">
        <ele>1822.0</ele>
        <time>2013-06-30T12:48:28Z</time>
      </trkpt>
      <trkpt lat="40.201783" lon="-5.023117">
        <ele>1820.0</ele>
        <time>2013-06-30T12:48:29Z</time>
      </trkpt>
      <trkpt lat="40.201733" lon="-5.023250">
        <ele>1818.0</ele>
        <time>2013-06-30T12:48:30Z</time>
      </trkpt>
      <trkpt lat="40.201667" lon="-5.023383">
        <ele>1816.0</ele>
        <time>2013-06-30T12:48:31Z</time>
      </trkpt>
      <trkpt lat="40.201617" lon="-5.023533">
        <ele>1813.0</ele>
        <time>2013-06-30T12:48:32Z</time>
      </trkpt>
      <trkpt lat="40.201550" lon="-5.023683">
        <ele>1811.0</ele>
        <time>2013-06-30T12:48:33Z</time>
      </trkpt>
      <trkpt lat="40.201483" lon="-5.023817">
        <ele>1809.0</ele>
        <time>2013-06-30T12:48:34Z</time>
      </trkpt>
      <trkpt lat="40.201417" lon="-5.023950">
        <ele>1808.0</ele>
        <time>2013-06-30T12:48:35Z</time>
      </trkpt>
      <trkpt lat="40.201350" lon="-5.024083">
        <ele>1807.0</ele>
        <time>2013-06-30T12:48:36Z</time>
      </trkpt>
      <trkpt lat="40.201283" lon="-5.024200">
        <ele>1806.0</ele>
        <time>2013-06-30T12:48:37Z</time>
      </trkpt>
      <trkpt lat="40.201233" lon="-5.024300">
        <ele>1805.0</ele>
        <time>2013-06-30T12:48:38Z</time>
      </trkpt>
      <trkpt lat="40.201167" lon="-5.024417">
        <ele>1803.0</ele>
        <time>2013-06-30T12:48:39Z</time>
      </trkpt>
      <trkpt lat="40.201100" lon="-5.024533">
        <ele>1802.0</ele>
        <time>2013-06-30T12:48:40Z</time>
      </trkpt>
      <trkpt lat="40.201033" lon="-5.024650">
        <ele>1800.0</ele>
        <time>2013-06-30T12:48:41Z</time>
      </trkpt>
      <trkpt lat="40.200967" lon="-5.024767">
        <ele>1799.0</ele>
        <time>2013-06-30T12:48:42Z</time>
      </trkpt>
      <trkpt lat="40.200900" lon="-5.024883">
        <ele>1798.0</ele>
        <time>2013-06-30T12:48:43Z</time>
      </trkpt>
      <trkpt lat="40.200833" lon="-5.025000">
        <ele>1800.0</ele>
        <time>2013-06-30T12:48:44Z</time>
      </trkpt>
      <trkpt lat="40.200783" lon="-5.025083">
        <ele>1802.0</ele>
        <time>2013-06-30T12:48:45Z</time>
      </trkpt>
      <trkpt lat="40.200733" lon="-5.025183">
        <ele>1804.0</ele>
        <time>2013-06-30T12:48:46Z</time>
      </trkpt>
      <trkpt lat="40.200700" lon="-5.025267">
        <ele>1804.0</ele>
        <time>2013-06-30T12:48:47Z</time>
      </trkpt>
      <trkpt lat="40.200667" lon="-5.025367">
        <ele>1804.0</ele>
        <time>2013-06-30T12:48:48Z</time>
      </trkpt>
      <trkpt lat="40.200617" lon="-5.025483">
        <ele>1802.0</ele>
        <time>2013-06-30T12:48:49Z</time>
      </trkpt>
      <trkpt lat="40.200550" lon="-5.025583">
        <ele>1801.0</ele>
        <time>2013-06-30T12:48:50Z</time>
      </trkpt>
      <trkpt lat="40.200483" lon="-5.025683">
        <ele>1801.0</ele>
        <time>2013-06-30T12:48:51Z</time>
      </trkpt>
      <trkpt lat="40.200433" lon="-5.025800">
        <ele>1802.0</ele>
        <time>2013-06-30T12:48:52Z</time>
      </trkpt>
      <trkpt lat="40.200383" lon="-5.025900">
        <ele>1802.0</ele>
        <time>2013-06-30T12:48:53Z</time>
      </trkpt>
      <trkpt lat="40.200333" lon="-5.025983">
        <ele>1802.0</ele>
        <time>2013-06-30T12:48:54Z</time>
      </trkpt>
      <trkpt lat="40.200283" lon="-5.026067">
        <ele>1801.0</ele>
        <time>2013-06-30T12:48:55Z</time>
      </trkpt>
      <trkpt lat="40.200200" lon="-5.026167">
        <ele>1800.0</ele>
        <time>2013-06-30T12:48:56Z</time>
      </trkpt>
      <trkpt lat="40.200133" lon="-5.026283">
        <ele>1799.0</ele>
        <time>2013-06-30T12:48:57Z</time>
      </trkpt>
      <trkpt lat="40.200050" lon="-5.026400">
        <ele>1799.0</ele>
        <time>2013-06-30T12:48:58Z</time>
      </trkpt>
      <trkpt lat="40.199983" lon="-5.026500">
        <ele>1799.0</ele>
        <time>2013-06-30T12:48:59Z</time>
      </trkpt>
      <trkpt lat="40.199917" lon="-5.026583">
        <ele>1799.0</ele>
        <time>2013-06-30T12:49:00Z</time>
      </trkpt>
      <trkpt lat="40.199833" lon="-5.026667">
        <ele>1797.0</ele>
        <time>2013-06-30T12:49:01Z</time>
      </trkpt>
      <trkpt lat="40.199767" lon="-5.026783">
        <ele>1796.0</ele>
        <time>2013-06-30T12:49:02Z</time>
      </trkpt>
      <trkpt lat="40.199683" lon="-5.026900">
        <ele>1795.0</ele>
        <time>2013-06-30T12:49:03Z</time>
      </trkpt>
      <trkpt lat="40.199600" lon="-5.027017">
        <ele>1795.0</ele>
        <time>2013-06-30T12:49:04Z</time>
      </trkpt>
      <trkpt lat="40.199517" lon="-5.027133">
        <ele>1796.0</ele>
        <time>2013-06-30T12:49:05Z</time>
      </trkpt>
      <trkpt lat="40.199450" lon="-5.027233">
        <ele>1797.0</ele>
        <time>2013-06-30T12:49:06Z</time>
      </trkpt>
      <trkpt lat="40.199400" lon="-5.027333">
        <ele>1798.0</ele>
        <time>2013-06-30T12:49:07Z</time>
      </trkpt>
      <trkpt lat="40.199333" lon="-5.027433">
        <ele>1798.0</ele>
        <time>2013-06-30T12:49:08Z</time>
      </trkpt>
      <trkpt lat="40.199283" lon="-5.027533">
        <ele>1798.0</ele>
        <time>2013-06-30T12:49:09Z</time>
      </trkpt>
      <trkpt lat="40.199233" lon="-5.027633">
        <ele>1798.0</ele>
        <time>2013-06-30T12:49:10Z</time>
      </trkpt>
      <trkpt lat="40.199183" lon="-5.027733">
        <ele>1797.0</ele>
        <time>2013-06-30T12:49:11Z</time>
      </trkpt>
      <trkpt lat="40.199117" lon="-5.027850">
        <ele>1797.0</ele>
        <time>2013-06-30T12:49:12Z</time>
      </trkpt>
      <trkpt lat="40.199050" lon="-5.027950">
        <ele>1797.0</ele>
        <time>2013-06-30T12:49:13Z</time>
      </trkpt>
      <trkpt lat="40.198967" lon="-5.028050">
        <ele>1797.0</ele>
        <time>2013-06-30T12:49:14Z</time>
      </trkpt>
      <trkpt lat="40.198883" lon="-5.028150">
        <ele>1796.0</ele>
        <time>2013-06-30T12:49:15Z</time>
      </trkpt>
      <trkpt lat="40.198817" lon="-5.028267">
        <ele>1796.0</ele>
        <time>2013-06-30T12:49:16Z</time>
      </trkpt>
      <trkpt lat="40.198733" lon="-5.028383">
        <ele>1796.0</ele>
        <time>2013-06-30T12:49:17Z</time>
      </trkpt>
      <trkpt lat="40.198667" lon="-5.028500">
        <ele>1796.0</ele>
        <time>2013-06-30T12:49:18Z</time>
      </trkpt>
      <trkpt lat="40.198617" lon="-5.028617">
        <ele>1795.0</ele>
        <time>2013-06-30T12:49:19Z</time>
      </trkpt>
      <trkpt lat="40.198550" lon="-5.028750">
        <ele>1795.0</ele>
        <time>2013-06-30T12:49:20Z</time>
      </trkpt>
      <trkpt lat="40.198483" lon="-5.028867">
        <ele>1795.0</ele>
        <time>2013-06-30T12:49:21Z</time>
      </trkpt>
      <trkpt lat="40.198417" lon="-5.028967">
        <ele>1794.0</ele>
        <time>2013-06-30T12:49:22Z</time>
      </trkpt>
      <trkpt lat="40.198350" lon="-5.029083">
        <ele>1793.0</ele>
        <time>2013-06-30T12:49:23Z</time>
      </trkpt>
      <trkpt lat="40.198283" lon="-5.029200">
        <ele>1792.0</ele>
        <time>2013-06-30T12:49:24Z</time>
      </trkpt>
      <trkpt lat="40.198233" lon="-5.029317">
        <ele>1791.0</ele>
        <time>2013-06-30T12:49:25Z</time>
      </trkpt>
      <trkpt lat="40.198167" lon="-5.029417">
        <ele>1790.0</ele>
        <time>2013-06-30T12:49:26Z</time>
      </trkpt>
      <trkpt lat="40.198100" lon="-5.029533">
        <ele>1789.0</ele>
        <time>2013-06-30T12:49:27Z</time>
      </trkpt>
      <trkpt lat="40.198033" lon="-5.029667">
        <ele>1788.0</ele>
        <time>2013-06-30T12:49:28Z</time>
      </trkpt>
      <trkpt lat="40.197983" lon="-5.029783">
        <ele>1788.0</ele>
        <time>2013-06-30T12:49:29Z</time>
      </trkpt>
      <trkpt lat="40.197933" lon="-5.029917">
        <ele>1792.0</ele>
        <time>2013-06-30T12:49:30Z</time>
      </trkpt>
      <trkpt lat="40.197900" lon="-5.030033">
        <ele>1793.0</ele>
        <time>2013-06-30T12:49:31Z</time>
      </trkpt>
      <trkpt lat="40.197867" lon="-5.030150">
        <ele>1794.0</ele>
        <time>2013-06-30T12:49:32Z</time>
      </trkpt>
      <trkpt lat="40.197850" lon="-5.030267">
        <ele>1795.0</ele>
        <time>2013-06-30T12:49:33Z</time>
      </trkpt>
      <trkpt lat="40.197833" lon="-5.030333">
        <ele>1796.0</ele>
        <time>2013-06-30T12:49:34Z</time>
      </trkpt>
      <trkpt lat="40.197817" lon="-5.030400">
        <ele>1797.0</ele>
        <time>2013-06-30T12:49:35Z</time>
      </trkpt>
      <trkpt lat="40.197783" lon="-5.030467">
        <ele>1797.0</ele>
        <time>2013-06-30T12:49:36Z</time>
      </trkpt>
      <trkpt lat="40.197733" lon="-5.030533">
        <ele>1797.0</ele>
        <time>2013-06-30T12:49:37Z</time>
      </trkpt>
      <trkpt lat="40.197667" lon="-5.030567">
        <ele>1797.0</ele>
        <time>2013-06-30T12:49:38Z</time>
      </trkpt>
      <trkpt lat="40.197600" lon="-5.030583">
        <ele>1796.0</ele>
        <time>2013-06-30T12:49:39Z</time>
      </trkpt>
      <trkpt lat="40.197533" lon="-5.030567">
        <ele>1796.0</ele>
        <time>2013-06-30T12:49:40Z</time>
      </trkpt>
      <trkpt lat="40.197500" lon="-5.030500">
        <ele>1796.0</ele>
        <time>2013-06-30T12:49:41Z</time>
      </trkpt>
      <trkpt lat="40.197467" lon="-5.030433">
        <ele>1795.0</ele>
        <time>2013-06-30T12:49:42Z</time>
      </trkpt>
      <trkpt lat="40.197433" lon="-5.030367">
        <ele>1794.0</ele>
        <time>2013-06-30T12:49:43Z</time>
      </trkpt>
      <trkpt lat="40.197433" lon="-5.030300">
        <ele>1793.0</ele>
        <time>2013-06-30T12:49:44Z</time>
      </trkpt>
      <trkpt lat="40.197417" lon="-5.030217">
        <ele>1791.0</ele>
        <time>2013-06-30T12:49:45Z</time>
      </trkpt>
      <trkpt lat="40.197417" lon="-5.030133">
        <ele>1791.0</ele>
        <time>2013-06-30T12:49:46Z</time>
      </trkpt>
      <trkpt lat="40.197417" lon="-5.030050">
        <ele>1791.0</ele>
        <time>2013-06-30T12:49:47Z</time>
      </trkpt>
      <trkpt lat="40.197450" lon="-5.029983">
        <ele>1791.0</ele>
        <time>2013-06-30T12:49:48Z</time>
      </trkpt>
      <trkpt lat="40.197500" lon="-5.029950">
        <ele>1791.0</ele>
        <time>2013-06-30T12:49:49Z</time>
      </trkpt>
      <trkpt lat="40.197533" lon="-5.029917">
        <ele>1790.0</ele>
        <time>2013-06-30T12:49:50Z</time>
      </trkpt>
      <trkpt lat="40.197583" lon="-5.029883">
        <ele>1789.0</ele>
        <time>2013-06-30T12:49:51Z</time>
      </trkpt>
      <trkpt lat="40.197633" lon="-5.029867">
        <ele>1786.0</ele>
        <time>2013-06-30T12:49:52Z</time>
      </trkpt>
      <trkpt lat="40.197700" lon="-5.029850">
        <ele>1784.0</ele>
        <time>2013-06-30T12:49:53Z</time>
      </trkpt>
      <trkpt lat="40.197783" lon="-5.029850">
        <ele>1781.0</ele>
        <time>2013-06-30T12:49:54Z</time>
      </trkpt>
      <trkpt lat="40.197867" lon="-5.029867">
        <ele>1779.0</ele>
        <time>2013-06-30T12:49:55Z</time>
      </trkpt>
      <trkpt lat="40.197950" lon="-5.029900">
        <ele>1777.0</ele>
        <time>2013-06-30T12:49:56Z</time>
      </trkpt>
      <trkpt lat="40.198050" lon="-5.029933">
        <ele>1776.0</ele>
        <time>2013-06-30T12:49:57Z</time>
      </trkpt>
      <trkpt lat="40.198133" lon="-5.030000">
        <ele>1774.0</ele>
        <time>2013-06-30T12:49:58Z</time>
      </trkpt>
      <trkpt lat="40.198217" lon="-5.030067">
        <ele>1772.0</ele>
        <time>2013-06-30T12:49:59Z</time>
      </trkpt>
      <trkpt lat="40.198283" lon="-5.030183">
        <ele>1770.0</ele>
        <time>2013-06-30T12:50:00Z</time>
      </trkpt>
      <trkpt lat="40.198317" lon="-5.030333">
        <ele>1768.0</ele>
        <time>2013-06-30T12:50:01Z</time>
      </trkpt>
      <trkpt lat="40.198350" lon="-5.030483">
        <ele>1766.0</ele>
        <time>2013-06-30T12:50:02Z</time>
      </trkpt>
      <trkpt lat="40.198367" lon="-5.030650">
        <ele>1765.0</ele>
        <time>2013-06-30T12:50:03Z</time>
      </trkpt>
      <trkpt lat="40.198383" lon="-5.030783">
        <ele>1765.0</ele>
        <time>2013-06-30T12:50:04Z</time>
      </trkpt>
      <trkpt lat="40.198383" lon="-5.030917">
        <ele>1764.0</ele>
        <time>2013-06-30T12:50:05Z</time>
      </trkpt>
      <trkpt lat="40.198383" lon="-5.031050">
        <ele>1763.0</ele>
        <time>2013-06-30T12:50:06Z</time>
      </trkpt>
      <trkpt lat="40.198367" lon="-5.031200">
        <ele>1761.0</ele>
        <time>2013-06-30T12:50:07Z</time>
      </trkpt>
      <trkpt lat="40.198350" lon="-5.031367">
        <ele>1760.0</ele>
        <time>2013-06-30T12:50:08Z</time>
      </trkpt>
      <trkpt lat="40.198350" lon="-5.031517">
        <ele>1761.0</ele>
        <time>2013-06-30T12:50:09Z</time>
      </trkpt>
      <trkpt lat="40.198333" lon="-5.031633">
        <ele>1762.0</ele>
        <time>2013-06-30T12:50:10Z</time>
      </trkpt>
      <trkpt lat="40.198333" lon="-5.031717">
        <ele>1763.0</ele>
        <time>2013-06-30T12:50:11Z</time>
      </trkpt>
      <trkpt lat="40.198317" lon="-5.031817">
        <ele>1762.0</ele>
        <time>2013-06-30T12:50:12Z</time>
      </trkpt>
      <trkpt lat="40.198283" lon="-5.031933">
        <ele>1760.0</ele>
        <time>2013-06-30T12:50:13Z</time>
      </trkpt>
      <trkpt lat="40.198267" lon="-5.032067">
        <ele>1758.0</ele>
        <time>2013-06-30T12:50:14Z</time>
      </trkpt>
      <trkpt lat="40.198250" lon="-5.032200">
        <ele>1757.0</ele>
        <time>2013-06-30T12:50:15Z</time>
      </trkpt>
      <trkpt lat="40.198217" lon="-5.032333">
        <ele>1758.0</ele>
        <time>2013-06-30T12:50:16Z</time>
      </trkpt>
      <trkpt lat="40.198183" lon="-5.032450">
        <ele>1758.0</ele>
        <time>2013-06-30T12:50:17Z</time>
      </trkpt>
      <trkpt lat="40.198150" lon="-5.032567">
        <ele>1759.0</ele>
        <time>2013-06-30T12:50:18Z</time>
      </trkpt>
      <trkpt lat="40.198117" lon="-5.032667">
        <ele>1760.0</ele>
        <time>2013-06-30T12:50:19Z</time>
      </trkpt>
      <trkpt lat="40.198100" lon="-5.032767">
        <ele>1760.0</ele>
        <time>2013-06-30T12:50:20Z</time>
      </trkpt>
      <trkpt lat="40.198067" lon="-5.032867">
        <ele>1759.0</ele>
        <time>2013-06-30T12:50:21Z</time>
      </trkpt>
      <trkpt lat="40.198033" lon="-5.032983">
        <ele>1759.0</ele>
        <time>2013-06-30T12:50:22Z</time>
      </trkpt>
      <trkpt lat="40.197983" lon="-5.033100">
        <ele>1758.0</ele>
        <time>2013-06-30T12:50:23Z</time>
      </trkpt>
      <trkpt lat="40.197933" lon="-5.033233">
        <ele>1760.0</ele>
        <time>2013-06-30T12:50:24Z</time>
      </trkpt>
      <trkpt lat="40.197883" lon="-5.033367">
        <ele>1761.0</ele>
        <time>2013-06-30T12:50:25Z</time>
      </trkpt>
      <trkpt lat="40.197850" lon="-5.033483">
        <ele>1763.0</ele>
        <time>2013-06-30T12:50:26Z</time>
      </trkpt>
      <trkpt lat="40.197800" lon="-5.033600">
        <ele>1764.0</ele>
        <time>2013-06-30T12:50:27Z</time>
      </trkpt>
      <trkpt lat="40.197767" lon="-5.033700">
        <ele>1767.0</ele>
        <time>2013-06-30T12:50:28Z</time>
      </trkpt>
      <trkpt lat="40.197733" lon="-5.033800">
        <ele>1769.0</ele>
        <time>2013-06-30T12:50:29Z</time>
      </trkpt>
      <trkpt lat="40.197717" lon="-5.033883">
        <ele>1770.0</ele>
        <time>2013-06-30T12:50:30Z</time>
      </trkpt>
      <trkpt lat="40.197700" lon="-5.033983">
        <ele>1771.0</ele>
        <time>2013-06-30T12:50:31Z</time>
      </trkpt>
      <trkpt lat="40.197667" lon="-5.034083">
        <ele>1771.0</ele>
        <time>2013-06-30T12:50:32Z</time>
      </trkpt>
      <trkpt lat="40.197617" lon="-5.034167">
        <ele>1771.0</ele>
        <time>2013-06-30T12:50:33Z</time>
      </trkpt>
      <trkpt lat="40.197583" lon="-5.034250">
        <ele>1771.0</ele>
        <time>2013-06-30T12:50:34Z</time>
      </trkpt>
      <trkpt lat="40.197533" lon="-5.034333">
        <ele>1771.0</ele>
        <time>2013-06-30T12:50:35Z</time>
      </trkpt>
      <trkpt lat="40.197467" lon="-5.034433">
        <ele>1771.0</ele>
        <time>2013-06-30T12:50:36Z</time>
      </trkpt>
      <trkpt lat="40.197400" lon="-5.034533">
        <ele>1770.0</ele>
        <time>2013-06-30T12:50:37Z</time>
      </trkpt>
      <trkpt lat="40.197333" lon="-5.034650">
        <ele>1769.0</ele>
        <time>2013-06-30T12:50:38Z</time>
      </trkpt>
      <trkpt lat="40.197283" lon="-5.034750">
        <ele>1770.0</ele>
        <time>2013-06-30T12:50:39Z</time>
      </trkpt>
      <trkpt lat="40.197217" lon="-5.034850">
        <ele>1770.0</ele>
        <time>2013-06-30T12:50:40Z</time>
      </trkpt>
      <trkpt lat="40.197183" lon="-5.034950">
        <ele>1771.0</ele>
        <time>2013-06-30T12:50:41Z</time>
      </trkpt>
      <trkpt lat="40.197133" lon="-5.035050">
        <ele>1773.0</ele>
        <time>2013-06-30T12:50:42Z</time>
      </trkpt>
      <trkpt lat="40.197083" lon="-5.035150">
        <ele>1775.0</ele>
        <time>2013-06-30T12:50:43Z</time>
      </trkpt>
      <trkpt lat="40.197050" lon="-5.035233">
        <ele>1776.0</ele>
        <time>2013-06-30T12:50:44Z</time>
      </trkpt>
      <trkpt lat="40.197017" lon="-5.035300">
        <ele>1777.0</ele>
        <time>2013-06-30T12:50:45Z</time>
      </trkpt>
      <trkpt lat="40.196950" lon="-5.035367">
        <ele>1778.0</ele>
        <time>2013-06-30T12:50:46Z</time>
      </trkpt>
      <trkpt lat="40.196900" lon="-5.035417">
        <ele>1778.0</ele>
        <time>2013-06-30T12:50:47Z</time>
      </trkpt>
      <trkpt lat="40.196833" lon="-5.035450">
        <ele>1779.0</ele>
        <time>2013-06-30T12:50:48Z</time>
      </trkpt>
      <trkpt lat="40.196783" lon="-5.035500">
        <ele>1777.0</ele>
        <time>2013-06-30T12:50:49Z</time>
      </trkpt>
      <trkpt lat="40.196717" lon="-5.035533">
        <ele>1777.0</ele>
        <time>2013-06-30T12:50:50Z</time>
      </trkpt>
      <trkpt lat="40.196650" lon="-5.035550">
        <ele>1777.0</ele>
        <time>2013-06-30T12:50:51Z</time>
      </trkpt>
      <trkpt lat="40.196583" lon="-5.035567">
        <ele>1777.0</ele>
        <time>2013-06-30T12:50:52Z</time>
      </trkpt>
      <trkpt lat="40.196517" lon="-5.035567">
        <ele>1778.0</ele>
        <time>2013-06-30T12:50:53Z</time>
      </trkpt>
      <trkpt lat="40.196467" lon="-5.035550">
        <ele>1779.0</ele>
        <time>2013-06-30T12:50:54Z</time>
      </trkpt>
      <trkpt lat="40.196417" lon="-5.035550">
        <ele>1780.0</ele>
        <time>2013-06-30T12:50:55Z</time>
      </trkpt>
      <trkpt lat="40.196367" lon="-5.035533">
        <ele>1781.0</ele>
        <time>2013-06-30T12:50:56Z</time>
      </trkpt>
      <trkpt lat="40.196333" lon="-5.035533">
        <ele>1782.0</ele>
        <time>2013-06-30T12:50:57Z</time>
      </trkpt>
      <trkpt lat="40.196283" lon="-5.035517">
        <ele>1782.0</ele>
        <time>2013-06-30T12:50:58Z</time>
      </trkpt>
      <trkpt lat="40.196250" lon="-5.035483">
        <ele>1782.0</ele>
        <time>2013-06-30T12:50:59Z</time>
      </trkpt>
      <trkpt lat="40.196200" lon="-5.035450">
        <ele>1782.0</ele>
        <time>2013-06-30T12:51:00Z</time>
      </trkpt>
      <trkpt lat="40.196167" lon="-5.035400">
        <ele>1782.0</ele>
        <time>2013-06-30T12:51:01Z</time>
      </trkpt>
      <trkpt lat="40.196150" lon="-5.035350">
        <ele>1782.0</ele>
        <time>2013-06-30T12:51:02Z</time>
      </trkpt>
      <trkpt lat="40.196133" lon="-5.035300">
        <ele>1783.0</ele>
        <time>2013-06-30T12:51:03Z</time>
      </trkpt>
      <trkpt lat="40.196117" lon="-5.035267">
        <ele>1783.0</ele>
        <time>2013-06-30T12:51:04Z</time>
      </trkpt>
      <trkpt lat="40.196100" lon="-5.035200">
        <ele>1782.0</ele>
        <time>2013-06-30T12:51:05Z</time>
      </trkpt>
      <trkpt lat="40.196083" lon="-5.035150">
        <ele>1782.0</ele>
        <time>2013-06-30T12:51:06Z</time>
      </trkpt>
      <trkpt lat="40.196083" lon="-5.035083">
        <ele>1781.0</ele>
        <time>2013-06-30T12:51:07Z</time>
      </trkpt>
      <trkpt lat="40.196083" lon="-5.035017">
        <ele>1780.0</ele>
        <time>2013-06-30T12:51:08Z</time>
      </trkpt>
      <trkpt lat="40.196083" lon="-5.034967">
        <ele>1780.0</ele>
        <time>2013-06-30T12:51:09Z</time>
      </trkpt>
      <trkpt lat="40.196083" lon="-5.034900">
        <ele>1778.0</ele>
        <time>2013-06-30T12:51:10Z</time>
      </trkpt>
      <trkpt lat="40.196083" lon="-5.034833">
        <ele>1776.0</ele>
        <time>2013-06-30T12:51:11Z</time>
      </trkpt>
      <trkpt lat="40.196083" lon="-5.034750">
        <ele>1773.0</ele>
        <time>2013-06-30T12:51:12Z</time>
      </trkpt>
      <trkpt lat="40.196083" lon="-5.034683">
        <ele>1771.0</ele>
        <time>2013-06-30T12:51:13Z</time>
      </trkpt>
      <trkpt lat="40.196083" lon="-5.034600">
        <ele>1769.0</ele>
        <time>2013-06-30T12:51:14Z</time>
      </trkpt>
      <trkpt lat="40.196067" lon="-5.034533">
        <ele>1767.0</ele>
        <time>2013-06-30T12:51:15Z</time>
      </trkpt>
      <trkpt lat="40.196033" lon="-5.034483">
        <ele>1766.0</ele>
        <time>2013-06-30T12:51:16Z</time>
      </trkpt>
      <trkpt lat="40.195983" lon="-5.034450">
        <ele>1764.0</ele>
        <time>2013-06-30T12:51:17Z</time>
      </trkpt>
      <trkpt lat="40.195900" lon="-5.034483">
        <ele>1762.0</ele>
        <time>2013-06-30T12:51:18Z</time>
      </trkpt>
      <trkpt lat="40.195833" lon="-5.034567">
        <ele>1759.0</ele>
        <time>2013-06-30T12:51:19Z</time>
      </trkpt>
      <trkpt lat="40.195783" lon="-5.034700">
        <ele>1757.0</ele>
        <time>2013-06-30T12:51:20Z</time>
      </trkpt>
      <trkpt lat="40.195733" lon="-5.034833">
        <ele>1757.0</ele>
        <time>2013-06-30T12:51:21Z</time>
      </trkpt>
      <trkpt lat="40.195717" lon="-5.034967">
        <ele>1757.0</ele>
        <time>2013-06-30T12:51:22Z</time>
      </trkpt>
      <trkpt lat="40.195683" lon="-5.035083">
        <ele>1756.0</ele>
        <time>2013-06-30T12:51:23Z</time>
      </trkpt>
      <trkpt lat="40.195633" lon="-5.035200">
        <ele>1756.0</ele>
        <time>2013-06-30T12:51:24Z</time>
      </trkpt>
      <trkpt lat="40.195600" lon="-5.035333">
        <ele>1755.0</ele>
        <time>2013-06-30T12:51:25Z</time>
      </trkpt>
      <trkpt lat="40.195567" lon="-5.035483">
        <ele>1754.0</ele>
        <time>2013-06-30T12:51:26Z</time>
      </trkpt>
      <trkpt lat="40.195533" lon="-5.035617">
        <ele>1755.0</ele>
        <time>2013-06-30T12:51:27Z</time>
      </trkpt>
      <trkpt lat="40.195500" lon="-5.035750">
        <ele>1755.0</ele>
        <time>2013-06-30T12:51:28Z</time>
      </trkpt>
      <trkpt lat="40.195500" lon="-5.035900">
        <ele>1755.0</ele>
        <time>2013-06-30T12:51:29Z</time>
      </trkpt>
      <trkpt lat="40.195483" lon="-5.036033">
        <ele>1754.0</ele>
        <time>2013-06-30T12:51:30Z</time>
      </trkpt>
      <trkpt lat="40.195467" lon="-5.036167">
        <ele>1753.0</ele>
        <time>2013-06-30T12:51:31Z</time>
      </trkpt>
      <trkpt lat="40.195450" lon="-5.036317">
        <ele>1752.0</ele>
        <time>2013-06-30T12:51:32Z</time>
      </trkpt>
      <trkpt lat="40.195433" lon="-5.036450">
        <ele>1752.0</ele>
        <time>2013-06-30T12:51:33Z</time>
      </trkpt>
      <trkpt lat="40.195400" lon="-5.036583">
        <ele>1751.0</ele>
        <time>2013-06-30T12:51:34Z</time>
      </trkpt>
      <trkpt lat="40.195367" lon="-5.036717">
        <ele>1751.0</ele>
        <time>2013-06-30T12:51:35Z</time>
      </trkpt>
      <trkpt lat="40.195333" lon="-5.036850">
        <ele>1750.0</ele>
        <time>2013-06-30T12:51:36Z</time>
      </trkpt>
      <trkpt lat="40.195317" lon="-5.037000">
        <ele>1749.0</ele>
        <time>2013-06-30T12:51:37Z</time>
      </trkpt>
      <trkpt lat="40.195283" lon="-5.037150">
        <ele>1748.0</ele>
        <time>2013-06-30T12:51:38Z</time>
      </trkpt>
      <trkpt lat="40.195267" lon="-5.037300">
        <ele>1747.0</ele>
        <time>2013-06-30T12:51:39Z</time>
      </trkpt>
      <trkpt lat="40.195250" lon="-5.037450">
        <ele>1747.0</ele>
        <time>2013-06-30T12:51:40Z</time>
      </trkpt>
      <trkpt lat="40.195233" lon="-5.037583">
        <ele>1746.0</ele>
        <time>2013-06-30T12:51:41Z</time>
      </trkpt>
      <trkpt lat="40.195217" lon="-5.037717">
        <ele>1745.0</ele>
        <time>2013-06-30T12:51:42Z</time>
      </trkpt>
      <trkpt lat="40.195200" lon="-5.037850">
        <ele>1743.0</ele>
        <time>2013-06-30T12:51:43Z</time>
      </trkpt>
      <trkpt lat="40.195167" lon="-5.038000">
        <ele>1742.0</ele>
        <time>2013-06-30T12:51:44Z</time>
      </trkpt>
      <trkpt lat="40.195150" lon="-5.038117">
        <ele>1742.0</ele>
        <time>2013-06-30T12:51:45Z</time>
      </trkpt>
      <trkpt lat="40.195117" lon="-5.038233">
        <ele>1742.0</ele>
        <time>2013-06-30T12:51:46Z</time>
      </trkpt>
      <trkpt lat="40.195100" lon="-5.038350">
        <ele>1740.0</ele>
        <time>2013-06-30T12:51:47Z</time>
      </trkpt>
      <trkpt lat="40.195083" lon="-5.038467">
        <ele>1738.0</ele>
        <time>2013-06-30T12:51:48Z</time>
      </trkpt>
      <trkpt lat="40.195067" lon="-5.038600">
        <ele>1736.0</ele>
        <time>2013-06-30T12:51:49Z</time>
      </trkpt>
      <trkpt lat="40.195033" lon="-5.038750">
        <ele>1735.0</ele>
        <time>2013-06-30T12:51:50Z</time>
      </trkpt>
      <trkpt lat="40.195017" lon="-5.038883">
        <ele>1734.0</ele>
        <time>2013-06-30T12:51:51Z</time>
      </trkpt>
      <trkpt lat="40.194983" lon="-5.039017">
        <ele>1733.0</ele>
        <time>2013-06-30T12:51:52Z</time>
      </trkpt>
      <trkpt lat="40.194967" lon="-5.039133">
        <ele>1732.0</ele>
        <time>2013-06-30T12:51:53Z</time>
      </trkpt>
      <trkpt lat="40.194933" lon="-5.039267">
        <ele>1730.0</ele>
        <time>2013-06-30T12:51:54Z</time>
      </trkpt>
      <trkpt lat="40.194917" lon="-5.039400">
        <ele>1729.0</ele>
        <time>2013-06-30T12:51:55Z</time>
      </trkpt>
      <trkpt lat="40.194917" lon="-5.039533">
        <ele>1727.0</ele>
        <time>2013-06-30T12:51:56Z</time>
      </trkpt>
      <trkpt lat="40.194917" lon="-5.039667">
        <ele>1726.0</ele>
        <time>2013-06-30T12:51:57Z</time>
      </trkpt>
      <trkpt lat="40.194933" lon="-5.039800">
        <ele>1725.0</ele>
        <time>2013-06-30T12:51:58Z</time>
      </trkpt>
      <trkpt lat="40.194950" lon="-5.039933">
        <ele>1724.0</ele>
        <time>2013-06-30T12:51:59Z</time>
      </trkpt>
      <trkpt lat="40.194950" lon="-5.040050">
        <ele>1722.0</ele>
        <time>2013-06-30T12:52:00Z</time>
      </trkpt>
      <trkpt lat="40.194950" lon="-5.040200">
        <ele>1720.0</ele>
        <time>2013-06-30T12:52:01Z</time>
      </trkpt>
      <trkpt lat="40.194950" lon="-5.040350">
        <ele>1718.0</ele>
        <time>2013-06-30T12:52:02Z</time>
      </trkpt>
      <trkpt lat="40.194950" lon="-5.040500">
        <ele>1717.0</ele>
        <time>2013-06-30T12:52:03Z</time>
      </trkpt>
      <trkpt lat="40.194933" lon="-5.040633">
        <ele>1716.0</ele>
        <time>2013-06-30T12:52:04Z</time>
      </trkpt>
      <trkpt lat="40.194933" lon="-5.040767">
        <ele>1715.0</ele>
        <time>2013-06-30T12:52:05Z</time>
      </trkpt>
      <trkpt lat="40.194933" lon="-5.040883">
        <ele>1714.0</ele>
        <time>2013-06-30T12:52:06Z</time>
      </trkpt>
      <trkpt lat="40.194933" lon="-5.041017">
        <ele>1712.0</ele>
        <time>2013-06-30T12:52:07Z</time>
      </trkpt>
      <trkpt lat="40.194917" lon="-5.041167">
        <ele>1709.0</ele>
        <time>2013-06-30T12:52:08Z</time>
      </trkpt>
      <trkpt lat="40.194917" lon="-5.041317">
        <ele>1707.0</ele>
        <time>2013-06-30T12:52:09Z</time>
      </trkpt>
      <trkpt lat="40.194900" lon="-5.041450">
        <ele>1706.0</ele>
        <time>2013-06-30T12:52:10Z</time>
      </trkpt>
      <trkpt lat="40.194883" lon="-5.041600">
        <ele>1705.0</ele>
        <time>2013-06-30T12:52:11Z</time>
      </trkpt>
      <trkpt lat="40.194867" lon="-5.041733">
        <ele>1703.0</ele>
        <time>2013-06-30T12:52:12Z</time>
      </trkpt>
      <trkpt lat="40.194850" lon="-5.041867">
        <ele>1700.0</ele>
        <time>2013-06-30T12:52:13Z</time>
      </trkpt>
      <trkpt lat="40.194850" lon="-5.042000">
        <ele>1697.0</ele>
        <time>2013-06-30T12:52:14Z</time>
      </trkpt>
      <trkpt lat="40.194833" lon="-5.042150">
        <ele>1694.0</ele>
        <time>2013-06-30T12:52:15Z</time>
      </trkpt>
      <trkpt lat="40.194800" lon="-5.042300">
        <ele>1692.0</ele>
        <time>2013-06-30T12:52:16Z</time>
      </trkpt>
      <trkpt lat="40.194783" lon="-5.042433">
        <ele>1689.0</ele>
        <time>2013-06-30T12:52:17Z</time>
      </trkpt>
      <trkpt lat="40.194750" lon="-5.042583">
        <ele>1687.0</ele>
        <time>2013-06-30T12:52:18Z</time>
      </trkpt>
      <trkpt lat="40.194717" lon="-5.042717">
        <ele>1686.0</ele>
        <time>2013-06-30T12:52:19Z</time>
      </trkpt>
      <trkpt lat="40.194700" lon="-5.042867">
        <ele>1684.0</ele>
        <time>2013-06-30T12:52:20Z</time>
      </trkpt>
      <trkpt lat="40.194667" lon="-5.043017">
        <ele>1682.0</ele>
        <time>2013-06-30T12:52:21Z</time>
      </trkpt>
      <trkpt lat="40.194617" lon="-5.043150">
        <ele>1681.0</ele>
        <time>2013-06-30T12:52:22Z</time>
      </trkpt>
      <trkpt lat="40.194583" lon="-5.043300">
        <ele>1681.0</ele>
        <time>2013-06-30T12:52:23Z</time>
      </trkpt>
      <trkpt lat="40.194550" lon="-5.043417">
        <ele>1681.0</ele>
        <time>2013-06-30T12:52:24Z</time>
      </trkpt>
      <trkpt lat="40.194517" lon="-5.043550">
        <ele>1680.0</ele>
        <time>2013-06-30T12:52:25Z</time>
      </trkpt>
      <trkpt lat="40.194483" lon="-5.043683">
        <ele>1679.0</ele>
        <time>2013-06-30T12:52:26Z</time>
      </trkpt>
      <trkpt lat="40.194433" lon="-5.043800">
        <ele>1679.0</ele>
        <time>2013-06-30T12:52:27Z</time>
      </trkpt>
      <trkpt lat="40.194383" lon="-5.043933">
        <ele>1678.0</ele>
        <time>2013-06-30T12:52:28Z</time>
      </trkpt>
      <trkpt lat="40.194333" lon="-5.044067">
        <ele>1677.0</ele>
        <time>2013-06-30T12:52:29Z</time>
      </trkpt>
      <trkpt lat="40.194283" lon="-5.044200">
        <ele>1677.0</ele>
        <time>2013-06-30T12:52:30Z</time>
      </trkpt>
      <trkpt lat="40.194233" lon="-5.044333">
        <ele>1677.0</ele>
        <time>2013-06-30T12:52:31Z</time>
      </trkpt>
      <trkpt lat="40.194183" lon="-5.044450">
        <ele>1676.0</ele>
        <time>2013-06-30T12:52:32Z</time>
      </trkpt>
      <trkpt lat="40.194117" lon="-5.044550">
        <ele>1676.0</ele>
        <time>2013-06-30T12:52:33Z</time>
      </trkpt>
      <trkpt lat="40.194067" lon="-5.044667">
        <ele>1675.0</ele>
        <time>2013-06-30T12:52:34Z</time>
      </trkpt>
      <trkpt lat="40.194017" lon="-5.044783">
        <ele>1673.0</ele>
        <time>2013-06-30T12:52:35Z</time>
      </trkpt>
      <trkpt lat="40.193967" lon="-5.044917">
        <ele>1670.0</ele>
        <time>2013-06-30T12:52:36Z</time>
      </trkpt>
      <trkpt lat="40.193917" lon="-5.045050">
        <ele>1669.0</ele>
        <time>2013-06-30T12:52:37Z</time>
      </trkpt>
      <trkpt lat="40.193867" lon="-5.045167">
        <ele>1667.0</ele>
        <time>2013-06-30T12:52:38Z</time>
      </trkpt>
      <trkpt lat="40.193817" lon="-5.045283">
        <ele>1666.0</ele>
        <time>2013-06-30T12:52:39Z</time>
      </trkpt>
      <trkpt lat="40.193767" lon="-5.045400">
        <ele>1664.0</ele>
        <time>2013-06-30T12:52:40Z</time>
      </trkpt>
      <trkpt lat="40.193717" lon="-5.045517">
        <ele>1663.0</ele>
        <time>2013-06-30T12:52:41Z</time>
      </trkpt>
      <trkpt lat="40.193683" lon="-5.045633">
        <ele>1662.0</ele>
        <time>2013-06-30T12:52:42Z</time>
      </trkpt>
      <trkpt lat="40.193633" lon="-5.045750">
        <ele>1661.0</ele>
        <time>2013-06-30T12:52:43Z</time>
      </trkpt>
      <trkpt lat="40.193583" lon="-5.045867">
        <ele>1660.0</ele>
        <time>2013-06-30T12:52:44Z</time>
      </trkpt>
      <trkpt lat="40.193533" lon="-5.045983">
        <ele>1659.0</ele>
        <time>2013-06-30T12:52:45Z</time>
      </trkpt>
      <trkpt lat="40.193483" lon="-5.046083">
        <ele>1657.0</ele>
        <time>2013-06-30T12:52:46Z</time>
      </trkpt>
      <trkpt lat="40.193433" lon="-5.046200">
        <ele>1656.0</ele>
        <time>2013-06-30T12:52:47Z</time>
      </trkpt>
      <trkpt lat="40.193400" lon="-5.046317">
        <ele>1655.0</ele>
        <time>2013-06-30T12:52:48Z</time>
      </trkpt>
      <trkpt lat="40.193350" lon="-5.046433">
        <ele>1654.0</ele>
        <time>2013-06-30T12:52:49Z</time>
      </trkpt>
      <trkpt lat="40.193317" lon="-5.046567">
        <ele>1652.0</ele>
        <time>2013-06-30T12:52:50Z</time>
      </trkpt>
      <trkpt lat="40.193300" lon="-5.046700">
        <ele>1651.0</ele>
        <time>2013-06-30T12:52:51Z</time>
      </trkpt>
      <trkpt lat="40.193267" lon="-5.046833">
        <ele>1650.0</ele>
        <time>2013-06-30T12:52:52Z</time>
      </trkpt>
      <trkpt lat="40.193250" lon="-5.046950">
        <ele>1648.0</ele>
        <time>2013-06-30T12:52:53Z</time>
      </trkpt>
      <trkpt lat="40.193217" lon="-5.047083">
        <ele>1645.0</ele>
        <time>2013-06-30T12:52:54Z</time>
      </trkpt>
      <trkpt lat="40.193183" lon="-5.047217">
        <ele>1642.0</ele>
        <time>2013-06-30T12:52:55Z</time>
      </trkpt>
      <trkpt lat="40.193167" lon="-5.047350">
        <ele>1638.0</ele>
        <time>2013-06-30T12:52:56Z</time>
      </trkpt>
      <trkpt lat="40.193167" lon="-5.047517">
        <ele>1635.0</ele>
        <time>2013-06-30T12:52:57Z</time>
      </trkpt>
      <trkpt lat="40.193150" lon="-5.047683">
        <ele>1632.0</ele>
        <time>2013-06-30T12:52:58Z</time>
      </trkpt>
      <trkpt lat="40.193133" lon="-5.047850">
        <ele>1630.0</ele>
        <time>2013-06-30T12:52:59Z</time>
      </trkpt>
      <trkpt lat="40.193117" lon="-5.048000">
        <ele>1628.0</ele>
        <time>2013-06-30T12:53:00Z</time>
      </trkpt>
      <trkpt lat="40.193100" lon="-5.048150">
        <ele>1627.0</ele>
        <time>2013-06-30T12:53:01Z</time>
      </trkpt>
      <trkpt lat="40.193083" lon="-5.048283">
        <ele>1625.0</ele>
        <time>2013-06-30T12:53:02Z</time>
      </trkpt>
      <trkpt lat="40.193083" lon="-5.048433">
        <ele>1623.0</ele>
        <time>2013-06-30T12:53:03Z</time>
      </trkpt>
      <trkpt lat="40.193067" lon="-5.048583">
        <ele>1620.0</ele>
        <time>2013-06-30T12:53:04Z</time>
      </trkpt>
      <trkpt lat="40.193050" lon="-5.048733">
        <ele>1618.0</ele>
        <time>2013-06-30T12:53:05Z</time>
      </trkpt>
      <trkpt lat="40.193033" lon="-5.048883">
        <ele>1617.0</ele>
        <time>2013-06-30T12:53:06Z</time>
      </trkpt>
      <trkpt lat="40.193017" lon="-5.049017">
        <ele>1616.0</ele>
        <time>2013-06-30T12:53:07Z</time>
      </trkpt>
      <trkpt lat="40.193000" lon="-5.049133">
        <ele>1615.0</ele>
        <time>2013-06-30T12:53:08Z</time>
      </trkpt>
      <trkpt lat="40.192983" lon="-5.049250">
        <ele>1612.0</ele>
        <time>2013-06-30T12:53:09Z</time>
      </trkpt>
      <trkpt lat="40.192983" lon="-5.049383">
        <ele>1609.0</ele>
        <time>2013-06-30T12:53:10Z</time>
      </trkpt>
      <trkpt lat="40.192967" lon="-5.049517">
        <ele>1606.0</ele>
        <time>2013-06-30T12:53:11Z</time>
      </trkpt>
      <trkpt lat="40.192967" lon="-5.049667">
        <ele>1603.0</ele>
        <time>2013-06-30T12:53:12Z</time>
      </trkpt>
      <trkpt lat="40.192933" lon="-5.049817">
        <ele>1601.0</ele>
        <time>2013-06-30T12:53:13Z</time>
      </trkpt>
      <trkpt lat="40.192917" lon="-5.049950">
        <ele>1599.0</ele>
        <time>2013-06-30T12:53:14Z</time>
      </trkpt>
      <trkpt lat="40.192900" lon="-5.050067">
        <ele>1597.0</ele>
        <time>2013-06-30T12:53:15Z</time>
      </trkpt>
      <trkpt lat="40.192900" lon="-5.050183">
        <ele>1595.0</ele>
        <time>2013-06-30T12:53:16Z</time>
      </trkpt>
      <trkpt lat="40.192883" lon="-5.050333">
        <ele>1591.0</ele>
        <time>2013-06-30T12:53:17Z</time>
      </trkpt>
      <trkpt lat="40.192867" lon="-5.050483">
        <ele>1588.0</ele>
        <time>2013-06-30T12:53:18Z</time>
      </trkpt>
      <trkpt lat="40.192850" lon="-5.050617">
        <ele>1586.0</ele>
        <time>2013-06-30T12:53:19Z</time>
      </trkpt>
      <trkpt lat="40.192833" lon="-5.050767">
        <ele>1584.0</ele>
        <time>2013-06-30T12:53:20Z</time>
      </trkpt>
      <trkpt lat="40.192817" lon="-5.050883">
        <ele>1582.0</ele>
        <time>2013-06-30T12:53:21Z</time>
      </trkpt>
      <trkpt lat="40.192783" lon="-5.051000">
        <ele>1579.0</ele>
        <time>2013-06-30T12:53:22Z</time>
      </trkpt>
      <trkpt lat="40.192750" lon="-5.051117">
        <ele>1577.0</ele>
        <time>2013-06-30T12:53:23Z</time>
      </trkpt>
      <trkpt lat="40.192717" lon="-5.051250">
        <ele>1574.0</ele>
        <time>2013-06-30T12:53:24Z</time>
      </trkpt>
      <trkpt lat="40.192683" lon="-5.051400">
        <ele>1572.0</ele>
        <time>2013-06-30T12:53:25Z</time>
      </trkpt>
      <trkpt lat="40.192667" lon="-5.051550">
        <ele>1572.0</ele>
        <time>2013-06-30T12:53:26Z</time>
      </trkpt>
      <trkpt lat="40.192667" lon="-5.051683">
        <ele>1573.0</ele>
        <time>2013-06-30T12:53:27Z</time>
      </trkpt>
      <trkpt lat="40.192650" lon="-5.051783">
        <ele>1573.0</ele>
        <time>2013-06-30T12:53:28Z</time>
      </trkpt>
      <trkpt lat="40.192650" lon="-5.051883">
        <ele>1572.0</ele>
        <time>2013-06-30T12:53:29Z</time>
      </trkpt>
      <trkpt lat="40.192633" lon="-5.052017">
        <ele>1570.0</ele>
        <time>2013-06-30T12:53:30Z</time>
      </trkpt>
      <trkpt lat="40.192633" lon="-5.052150">
        <ele>1567.0</ele>
        <time>2013-06-30T12:53:31Z</time>
      </trkpt>
      <trkpt lat="40.192617" lon="-5.052300">
        <ele>1565.0</ele>
        <time>2013-06-30T12:53:32Z</time>
      </trkpt>
      <trkpt lat="40.192617" lon="-5.052450">
        <ele>1566.0</ele>
        <time>2013-06-30T12:53:33Z</time>
      </trkpt>
      <trkpt lat="40.192617" lon="-5.052567">
        <ele>1567.0</ele>
        <time>2013-06-30T12:53:34Z</time>
      </trkpt>
      <trkpt lat="40.192600" lon="-5.052650">
        <ele>1567.0</ele>
        <time>2013-06-30T12:53:35Z</time>
      </trkpt>
      <trkpt lat="40.192600" lon="-5.052733">
        <ele>1566.0</ele>
        <time>2013-06-30T12:53:36Z</time>
      </trkpt>
      <trkpt lat="40.192600" lon="-5.052817">
        <ele>1565.0</ele>
        <time>2013-06-30T12:53:37Z</time>
      </trkpt>
      <trkpt lat="40.192600" lon="-5.052933">
        <ele>1562.0</ele>
        <time>2013-06-30T12:53:38Z</time>
      </trkpt>
      <trkpt lat="40.192583" lon="-5.053067">
        <ele>1559.0</ele>
        <time>2013-06-30T12:53:39Z</time>
      </trkpt>
      <trkpt lat="40.192567" lon="-5.053200">
        <ele>1559.0</ele>
        <time>2013-06-30T12:53:40Z</time>
      </trkpt>
      <trkpt lat="40.192567" lon="-5.053300">
        <ele>1559.0</ele>
        <time>2013-06-30T12:53:41Z</time>
      </trkpt>
      <trkpt lat="40.192567" lon="-5.053400">
        <ele>1559.0</ele>
        <time>2013-06-30T12:53:42Z</time>
      </trkpt>
      <trkpt lat="40.192567" lon="-5.053500">
        <ele>1558.0</ele>
        <time>2013-06-30T12:53:43Z</time>
      </trkpt>
      <trkpt lat="40.192550" lon="-5.053617">
        <ele>1556.0</ele>
        <time>2013-06-30T12:53:44Z</time>
      </trkpt>
      <trkpt lat="40.192533" lon="-5.053750">
        <ele>1552.0</ele>
        <time>2013-06-30T12:53:45Z</time>
      </trkpt>
      <trkpt lat="40.192517" lon="-5.053883">
        <ele>1550.0</ele>
        <time>2013-06-30T12:53:46Z</time>
      </trkpt>
      <trkpt lat="40.192483" lon="-5.054017">
        <ele>1550.0</ele>
        <time>2013-06-30T12:53:47Z</time>
      </trkpt>
      <trkpt lat="40.192483" lon="-5.054133">
        <ele>1550.0</ele>
        <time>2013-06-30T12:53:48Z</time>
      </trkpt>
      <trkpt lat="40.192467" lon="-5.054233">
        <ele>1550.0</ele>
        <time>2013-06-30T12:53:49Z</time>
      </trkpt>
      <trkpt lat="40.192450" lon="-5.054317">
        <ele>1548.0</ele>
        <time>2013-06-30T12:53:50Z</time>
      </trkpt>
      <trkpt lat="40.192433" lon="-5.054417">
        <ele>1546.0</ele>
        <time>2013-06-30T12:53:51Z</time>
      </trkpt>
      <trkpt lat="40.192417" lon="-5.054533">
        <ele>1544.0</ele>
        <time>2013-06-30T12:53:52Z</time>
      </trkpt>
      <trkpt lat="40.192400" lon="-5.054667">
        <ele>1541.0</ele>
        <time>2013-06-30T12:53:53Z</time>
      </trkpt>
      <trkpt lat="40.192400" lon="-5.054800">
        <ele>1540.0</ele>
        <time>2013-06-30T12:53:54Z</time>
      </trkpt>
      <trkpt lat="40.192400" lon="-5.054933">
        <ele>1539.0</ele>
        <time>2013-06-30T12:53:55Z</time>
      </trkpt>
      <trkpt lat="40.192400" lon="-5.055050">
        <ele>1538.0</ele>
        <time>2013-06-30T12:53:56Z</time>
      </trkpt>
      <trkpt lat="40.192400" lon="-5.055167">
        <ele>1537.0</ele>
        <time>2013-06-30T12:53:57Z</time>
      </trkpt>
      <trkpt lat="40.192383" lon="-5.055283">
        <ele>1535.0</ele>
        <time>2013-06-30T12:53:58Z</time>
      </trkpt>
      <trkpt lat="40.192367" lon="-5.055400">
        <ele>1533.0</ele>
        <time>2013-06-30T12:53:59Z</time>
      </trkpt>
      <trkpt lat="40.192333" lon="-5.055533">
        <ele>1531.0</ele>
        <time>2013-06-30T12:54:00Z</time>
      </trkpt>
      <trkpt lat="40.192300" lon="-5.055667">
        <ele>1529.0</ele>
        <time>2013-06-30T12:54:01Z</time>
      </trkpt>
      <trkpt lat="40.192267" lon="-5.055783">
        <ele>1528.0</ele>
        <time>2013-06-30T12:54:02Z</time>
      </trkpt>
      <trkpt lat="40.192233" lon="-5.055900">
        <ele>1527.0</ele>
        <time>2013-06-30T12:54:03Z</time>
      </trkpt>
      <trkpt lat="40.192200" lon="-5.056017">
        <ele>1525.0</ele>
        <time>2013-06-30T12:54:04Z</time>
      </trkpt>
      <trkpt lat="40.192167" lon="-5.056150">
        <ele>1523.0</ele>
        <time>2013-06-30T12:54:05Z</time>
      </trkpt>
      <trkpt lat="40.192117" lon="-5.056267">
        <ele>1520.0</ele>
        <time>2013-06-30T12:54:06Z</time>
      </trkpt>
      <trkpt lat="40.192067" lon="-5.056400">
        <ele>1518.0</ele>
        <time>2013-06-30T12:54:07Z</time>
      </trkpt>
      <trkpt lat="40.192017" lon="-5.056517">
        <ele>1516.0</ele>
        <time>2013-06-30T12:54:08Z</time>
      </trkpt>
      <trkpt lat="40.191967" lon="-5.056633">
        <ele>1515.0</ele>
        <time>2013-06-30T12:54:09Z</time>
      </trkpt>
      <trkpt lat="40.191917" lon="-5.056733">
        <ele>1513.0</ele>
        <time>2013-06-30T12:54:10Z</time>
      </trkpt>
      <trkpt lat="40.191867" lon="-5.056850">
        <ele>1510.0</ele>
        <time>2013-06-30T12:54:11Z</time>
      </trkpt>
      <trkpt lat="40.191817" lon="-5.056950">
        <ele>1508.0</ele>
        <time>2013-06-30T12:54:12Z</time>
      </trkpt>
      <trkpt lat="40.191767" lon="-5.057067">
        <ele>1505.0</ele>
        <time>2013-06-30T12:54:13Z</time>
      </trkpt>
      <trkpt lat="40.191700" lon="-5.057167">
        <ele>1503.0</ele>
        <time>2013-06-30T12:54:14Z</time>
      </trkpt>
      <trkpt lat="40.191650" lon="-5.057283">
        <ele>1500.0</ele>
        <time>2013-06-30T12:54:15Z</time>
      </trkpt>
      <trkpt lat="40.191600" lon="-5.057400">
        <ele>1498.0</ele>
        <time>2013-06-30T12:54:16Z</time>
      </trkpt>
      <trkpt lat="40.191533" lon="-5.057517">
        <ele>1497.0</ele>
        <time>2013-06-30T12:54:17Z</time>
      </trkpt>
      <trkpt lat="40.191483" lon="-5.057633">
        <ele>1496.0</ele>
        <time>2013-06-30T12:54:18Z</time>
      </trkpt>
      <trkpt lat="40.191433" lon="-5.057733">
        <ele>1494.0</ele>
        <time>2013-06-30T12:54:19Z</time>
      </trkpt>
      <trkpt lat="40.191367" lon="-5.057833">
        <ele>1493.0</ele>
        <time>2013-06-30T12:54:20Z</time>
      </trkpt>
      <trkpt lat="40.191300" lon="-5.057917">
        <ele>1492.0</ele>
        <time>2013-06-30T12:54:21Z</time>
      </trkpt>
      <trkpt lat="40.191250" lon="-5.058017">
        <ele>1490.0</ele>
        <time>2013-06-30T12:54:22Z</time>
      </trkpt>
      <trkpt lat="40.191200" lon="-5.058133">
        <ele>1488.0</ele>
        <time>2013-06-30T12:54:23Z</time>
      </trkpt>
      <trkpt lat="40.191133" lon="-5.058250">
        <ele>1487.0</ele>
        <time>2013-06-30T12:54:24Z</time>
      </trkpt>
      <trkpt lat="40.191067" lon="-5.058367">
        <ele>1486.0</ele>
        <time>2013-06-30T12:54:25Z</time>
      </trkpt>
      <trkpt lat="40.191017" lon="-5.058467">
        <ele>1486.0</ele>
        <time>2013-06-30T12:54:26Z</time>
      </trkpt>
      <trkpt lat="40.190983" lon="-5.058583">
        <ele>1485.0</ele>
        <time>2013-06-30T12:54:27Z</time>
      </trkpt>
      <trkpt lat="40.190950" lon="-5.058700">
        <ele>1484.0</ele>
        <time>2013-06-30T12:54:28Z</time>
      </trkpt>
      <trkpt lat="40.190917" lon="-5.058817">
        <ele>1481.0</ele>
        <time>2013-06-30T12:54:29Z</time>
      </trkpt>
      <trkpt lat="40.190867" lon="-5.058933">
        <ele>1479.0</ele>
        <time>2013-06-30T12:54:30Z</time>
      </trkpt>
      <trkpt lat="40.190817" lon="-5.059067">
        <ele>1477.0</ele>
        <time>2013-06-30T12:54:31Z</time>
      </trkpt>
      <trkpt lat="40.190767" lon="-5.059167">
        <ele>1475.0</ele>
        <time>2013-06-30T12:54:32Z</time>
      </trkpt>
      <trkpt lat="40.190717" lon="-5.059267">
        <ele>1474.0</ele>
        <time>2013-06-30T12:54:33Z</time>
      </trkpt>
      <trkpt lat="40.190667" lon="-5.059367">
        <ele>1475.0</ele>
        <time>2013-06-30T12:54:34Z</time>
      </trkpt>
      <trkpt lat="40.190633" lon="-5.059483">
        <ele>1473.0</ele>
        <time>2013-06-30T12:54:35Z</time>
      </trkpt>
      <trkpt lat="40.190567" lon="-5.059600">
        <ele>1471.0</ele>
        <time>2013-06-30T12:54:36Z</time>
      </trkpt>
      <trkpt lat="40.190517" lon="-5.059717">
        <ele>1469.0</ele>
        <time>2013-06-30T12:54:37Z</time>
      </trkpt>
      <trkpt lat="40.190450" lon="-5.059817">
        <ele>1468.0</ele>
        <time>2013-06-30T12:54:38Z</time>
      </trkpt>
      <trkpt lat="40.190383" lon="-5.059900">
        <ele>1467.0</ele>
        <time>2013-06-30T12:54:39Z</time>
      </trkpt>
      <trkpt lat="40.190317" lon="-5.060000">
        <ele>1465.0</ele>
        <time>2013-06-30T12:54:40Z</time>
      </trkpt>
      <trkpt lat="40.190267" lon="-5.060117">
        <ele>1463.0</ele>
        <time>2013-06-30T12:54:41Z</time>
      </trkpt>
      <trkpt lat="40.190217" lon="-5.060250">
        <ele>1460.0</ele>
        <time>2013-06-30T12:54:42Z</time>
      </trkpt>
      <trkpt lat="40.190167" lon="-5.060367">
        <ele>1459.0</ele>
        <time>2013-06-30T12:54:43Z</time>
      </trkpt>
      <trkpt lat="40.190117" lon="-5.060483">
        <ele>1457.0</ele>
        <time>2013-06-30T12:54:44Z</time>
      </trkpt>
      <trkpt lat="40.190083" lon="-5.060600">
        <ele>1456.0</ele>
        <time>2013-06-30T12:54:45Z</time>
      </trkpt>
      <trkpt lat="40.190050" lon="-5.060733">
        <ele>1454.0</ele>
        <time>2013-06-30T12:54:46Z</time>
      </trkpt>
      <trkpt lat="40.190017" lon="-5.060867">
        <ele>1451.0</ele>
        <time>2013-06-30T12:54:47Z</time>
      </trkpt>
      <trkpt lat="40.190000" lon="-5.061017">
        <ele>1449.0</ele>
        <time>2013-06-30T12:54:48Z</time>
      </trkpt>
      <trkpt lat="40.189983" lon="-5.061150">
        <ele>1447.0</ele>
        <time>2013-06-30T12:54:49Z</time>
      </trkpt>
      <trkpt lat="40.189983" lon="-5.061283">
        <ele>1444.0</ele>
        <time>2013-06-30T12:54:50Z</time>
      </trkpt>
      <trkpt lat="40.189967" lon="-5.061417">
        <ele>1441.0</ele>
        <time>2013-06-30T12:54:51Z</time>
      </trkpt>
      <trkpt lat="40.189950" lon="-5.061567">
        <ele>1439.0</ele>
        <time>2013-06-30T12:54:52Z</time>
      </trkpt>
      <trkpt lat="40.189933" lon="-5.061700">
        <ele>1436.0</ele>
        <time>2013-06-30T12:54:53Z</time>
      </trkpt>
      <trkpt lat="40.189900" lon="-5.061850">
        <ele>1434.0</ele>
        <time>2013-06-30T12:54:54Z</time>
      </trkpt>
      <trkpt lat="40.189850" lon="-5.061967">
        <ele>1432.0</ele>
        <time>2013-06-30T12:54:55Z</time>
      </trkpt>
      <trkpt lat="40.189817" lon="-5.062100">
        <ele>1431.0</ele>
        <time>2013-06-30T12:54:56Z</time>
      </trkpt>
      <trkpt lat="40.189767" lon="-5.062217">
        <ele>1429.0</ele>
        <time>2013-06-30T12:54:57Z</time>
      </trkpt>
      <trkpt lat="40.189733" lon="-5.062333">
        <ele>1427.0</ele>
        <time>2013-06-30T12:54:58Z</time>
      </trkpt>
      <trkpt lat="40.189683" lon="-5.062450">
        <ele>1425.0</ele>
        <time>2013-06-30T12:54:59Z</time>
      </trkpt>
      <trkpt lat="40.189633" lon="-5.062567">
        <ele>1423.0</ele>
        <time>2013-06-30T12:55:00Z</time>
      </trkpt>
      <trkpt lat="40.189583" lon="-5.062683">
        <ele>1422.0</ele>
        <time>2013-06-30T12:55:01Z</time>
      </trkpt>
      <trkpt lat="40.189550" lon="-5.062783">
        <ele>1420.0</ele>
        <time>2013-06-30T12:55:02Z</time>
      </trkpt>
      <trkpt lat="40.189517" lon="-5.062900">
        <ele>1418.0</ele>
        <time>2013-06-30T12:55:03Z</time>
      </trkpt>
      <trkpt lat="40.189483" lon="-5.063033">
        <ele>1416.0</ele>
        <time>2013-06-30T12:55:04Z</time>
      </trkpt>
      <trkpt lat="40.189450" lon="-5.063150">
        <ele>1414.0</ele>
        <time>2013-06-30T12:55:05Z</time>
      </trkpt>
      <trkpt lat="40.189400" lon="-5.063267">
        <ele>1412.0</ele>
        <time>2013-06-30T12:55:06Z</time>
      </trkpt>
      <trkpt lat="40.189350" lon="-5.063383">
        <ele>1410.0</ele>
        <time>2013-06-30T12:55:07Z</time>
      </trkpt>
      <trkpt lat="40.189317" lon="-5.063500">
        <ele>1407.0</ele>
        <time>2013-06-30T12:55:08Z</time>
      </trkpt>
      <trkpt lat="40.189267" lon="-5.063600">
        <ele>1405.0</ele>
        <time>2013-06-30T12:55:09Z</time>
      </trkpt>
      <trkpt lat="40.189233" lon="-5.063717">
        <ele>1403.0</ele>
        <time>2013-06-30T12:55:10Z</time>
      </trkpt>
      <trkpt lat="40.189183" lon="-5.063833">
        <ele>1401.0</ele>
        <time>2013-06-30T12:55:11Z</time>
      </trkpt>
      <trkpt lat="40.189133" lon="-5.063933">
        <ele>1400.0</ele>
        <time>2013-06-30T12:55:12Z</time>
      </trkpt>
      <trkpt lat="40.189083" lon="-5.064033">
        <ele>1398.0</ele>
        <time>2013-06-30T12:55:13Z</time>
      </trkpt>
      <trkpt lat="40.189033" lon="-5.064150">
        <ele>1397.0</ele>
        <time>2013-06-30T12:55:14Z</time>
      </trkpt>
      <trkpt lat="40.188983" lon="-5.064250">
        <ele>1395.0</ele>
        <time>2013-06-30T12:55:15Z</time>
      </trkpt>
      <trkpt lat="40.188950" lon="-5.064383">
        <ele>1393.0</ele>
        <time>2013-06-30T12:55:16Z</time>
      </trkpt>
      <trkpt lat="40.188917" lon="-5.064500">
        <ele>1391.0</ele>
        <time>2013-06-30T12:55:17Z</time>
      </trkpt>
      <trkpt lat="40.188883" lon="-5.064617">
        <ele>1389.0</ele>
        <time>2013-06-30T12:55:18Z</time>
      </trkpt>
      <trkpt lat="40.188850" lon="-5.064733">
        <ele>1387.0</ele>
        <time>2013-06-30T12:55:19Z</time>
      </trkpt>
      <trkpt lat="40.188817" lon="-5.064850">
        <ele>1385.0</ele>
        <time>2013-06-30T12:55:20Z</time>
      </trkpt>
      <trkpt lat="40.188783" lon="-5.064967">
        <ele>1383.0</ele>
        <time>2013-06-30T12:55:21Z</time>
      </trkpt>
      <trkpt lat="40.188733" lon="-5.065067">
        <ele>1382.0</ele>
        <time>2013-06-30T12:55:22Z</time>
      </trkpt>
      <trkpt lat="40.188683" lon="-5.065167">
        <ele>1380.0</ele>
        <time>2013-06-30T12:55:23Z</time>
      </trkpt>
      <trkpt lat="40.188633" lon="-5.065267">
        <ele>1378.0</ele>
        <time>2013-06-30T12:55:24Z</time>
      </trkpt>
      <trkpt lat="40.188583" lon="-5.065367">
        <ele>1376.0</ele>
        <time>2013-06-30T12:55:25Z</time>
      </trkpt>
      <trkpt lat="40.188533" lon="-5.065450">
        <ele>1374.0</ele>
        <time>2013-06-30T12:55:26Z</time>
      </trkpt>
      <trkpt lat="40.188467" lon="-5.065533">
        <ele>1372.0</ele>
        <time>2013-06-30T12:55:27Z</time>
      </trkpt>
      <trkpt lat="40.188400" lon="-5.065633">
        <ele>1370.0</ele>
        <time>2013-06-30T12:55:28Z</time>
      </trkpt>
      <trkpt lat="40.188350" lon="-5.065717">
        <ele>1368.0</ele>
        <time>2013-06-30T12:55:29Z</time>
      </trkpt>
      <trkpt lat="40.188283" lon="-5.065800">
        <ele>1366.0</ele>
        <time>2013-06-30T12:55:30Z</time>
      </trkpt>
      <trkpt lat="40.188233" lon="-5.065900">
        <ele>1363.0</ele>
        <time>2013-06-30T12:55:31Z</time>
      </trkpt>
      <trkpt lat="40.188183" lon="-5.065967">
        <ele>1361.0</ele>
        <time>2013-06-30T12:55:32Z</time>
      </trkpt>
      <trkpt lat="40.188117" lon="-5.066050">
        <ele>1359.0</ele>
        <time>2013-06-30T12:55:33Z</time>
      </trkpt>
      <trkpt lat="40.188050" lon="-5.066117">
        <ele>1357.0</ele>
        <time>2013-06-30T12:55:34Z</time>
      </trkpt>
      <trkpt lat="40.187983" lon="-5.066200">
        <ele>1355.0</ele>
        <time>2013-06-30T12:55:35Z</time>
      </trkpt>
      <trkpt lat="40.187917" lon="-5.066267">
        <ele>1356.0</ele>
        <time>2013-06-30T12:55:36Z</time>
      </trkpt>
      <trkpt lat="40.187850" lon="-5.066350">
        <ele>1356.0</ele>
        <time>2013-06-30T12:55:37Z</time>
      </trkpt>
      <trkpt lat="40.187783" lon="-5.066433">
        <ele>1355.0</ele>
        <time>2013-06-30T12:55:38Z</time>
      </trkpt>
      <trkpt lat="40.187700" lon="-5.066517">
        <ele>1353.0</ele>
        <time>2013-06-30T12:55:39Z</time>
      </trkpt>
      <trkpt lat="40.187633" lon="-5.066600">
        <ele>1352.0</ele>
        <time>2013-06-30T12:55:40Z</time>
      </trkpt>
      <trkpt lat="40.187567" lon="-5.066683">
        <ele>1350.0</ele>
        <time>2013-06-30T12:55:41Z</time>
      </trkpt>
      <trkpt lat="40.187500" lon="-5.066767">
        <ele>1348.0</ele>
        <time>2013-06-30T12:55:42Z</time>
      </trkpt>
      <trkpt lat="40.187433" lon="-5.066850">
        <ele>1345.0</ele>
        <time>2013-06-30T12:55:43Z</time>
      </trkpt>
      <trkpt lat="40.187367" lon="-5.066950">
        <ele>1343.0</ele>
        <time>2013-06-30T12:55:44Z</time>
      </trkpt>
      <trkpt lat="40.187283" lon="-5.067033">
        <ele>1340.0</ele>
        <time>2013-06-30T12:55:45Z</time>
      </trkpt>
      <trkpt lat="40.187200" lon="-5.067150">
        <ele>1338.0</ele>
        <time>2013-06-30T12:55:46Z</time>
      </trkpt>
      <trkpt lat="40.187133" lon="-5.067250">
        <ele>1335.0</ele>
        <time>2013-06-30T12:55:47Z</time>
      </trkpt>
      <trkpt lat="40.187067" lon="-5.067350">
        <ele>1333.0</ele>
        <time>2013-06-30T12:55:48Z</time>
      </trkpt>
      <trkpt lat="40.187017" lon="-5.067450">
        <ele>1330.0</ele>
        <time>2013-06-30T12:55:49Z</time>
      </trkpt>
      <trkpt lat="40.186950" lon="-5.067550">
        <ele>1327.0</ele>
        <time>2013-06-30T12:55:50Z</time>
      </trkpt>
      <trkpt lat="40.186883" lon="-5.067667">
        <ele>1324.0</ele>
        <time>2013-06-30T12:55:51Z</time>
      </trkpt>
      <trkpt lat="40.186817" lon="-5.067767">
        <ele>1321.0</ele>
        <time>2013-06-30T12:55:52Z</time>
      </trkpt>
      <trkpt lat="40.186767" lon="-5.067883">
        <ele>1318.0</ele>
        <time>2013-06-30T12:55:53Z</time>
      </trkpt>
      <trkpt lat="40.186700" lon="-5.068000">
        <ele>1316.0</ele>
        <time>2013-06-30T12:55:54Z</time>
      </trkpt>
      <trkpt lat="40.186650" lon="-5.068100">
        <ele>1313.0</ele>
        <time>2013-06-30T12:55:55Z</time>
      </trkpt>
      <trkpt lat="40.186583" lon="-5.068233">
        <ele>1310.0</ele>
        <time>2013-06-30T12:55:56Z</time>
      </trkpt>
      <trkpt lat="40.186533" lon="-5.068350">
        <ele>1307.0</ele>
        <time>2013-06-30T12:55:57Z</time>
      </trkpt>
      <trkpt lat="40.186500" lon="-5.068483">
        <ele>1304.0</ele>
        <time>2013-06-30T12:55:58Z</time>
      </trkpt>
      <trkpt lat="40.186450" lon="-5.068617">
        <ele>1301.0</ele>
        <time>2013-06-30T12:55:59Z</time>
      </trkpt>
      <trkpt lat="40.186400" lon="-5.068750">
        <ele>1299.0</ele>
        <time>2013-06-30T12:56:00Z</time>
      </trkpt>
      <trkpt lat="40.186350" lon="-5.068867">
        <ele>1296.0</ele>
        <time>2013-06-30T12:56:01Z</time>
      </trkpt>
      <trkpt lat="40.186283" lon="-5.068983">
        <ele>1294.0</ele>
        <time>2013-06-30T12:56:02Z</time>
      </trkpt>
      <trkpt lat="40.186233" lon="-5.069117">
        <ele>1292.0</ele>
        <time>2013-06-30T12:56:03Z</time>
      </trkpt>
      <trkpt lat="40.186183" lon="-5.069233">
        <ele>1290.0</ele>
        <time>2013-06-30T12:56:04Z</time>
      </trkpt>
      <trkpt lat="40.186133" lon="-5.069350">
        <ele>1288.0</ele>
        <time>2013-06-30T12:56:05Z</time>
      </trkpt>
      <trkpt lat="40.186083" lon="-5.069483">
        <ele>1286.0</ele>
        <time>2013-06-30T12:56:06Z</time>
      </trkpt>
      <trkpt lat="40.186033" lon="-5.069600">
        <ele>1284.0</ele>
        <time>2013-06-30T12:56:07Z</time>
      </trkpt>
      <trkpt lat="40.185983" lon="-5.069717">
        <ele>1281.0</ele>
        <time>2013-06-30T12:56:08Z</time>
      </trkpt>
      <trkpt lat="40.185933" lon="-5.069850">
        <ele>1279.0</ele>
        <time>2013-06-30T12:56:09Z</time>
      </trkpt>
      <trkpt lat="40.185883" lon="-5.069967">
        <ele>1276.0</ele>
        <time>2013-06-30T12:56:10Z</time>
      </trkpt>
      <trkpt lat="40.185833" lon="-5.070100">
        <ele>1274.0</ele>
        <time>2013-06-30T12:56:11Z</time>
      </trkpt>
      <trkpt lat="40.185783" lon="-5.070217">
        <ele>1271.0</ele>
        <time>2013-06-30T12:56:12Z</time>
      </trkpt>
      <trkpt lat="40.185717" lon="-5.070350">
        <ele>1268.0</ele>
        <time>2013-06-30T12:56:13Z</time>
      </trkpt>
      <trkpt lat="40.185650" lon="-5.070483">
        <ele>1264.0</ele>
        <time>2013-06-30T12:56:14Z</time>
      </trkpt>
      <trkpt lat="40.185600" lon="-5.070617">
        <ele>1260.0</ele>
        <time>2013-06-30T12:56:15Z</time>
      </trkpt>
      <trkpt lat="40.185533" lon="-5.070750">
        <ele>1257.0</ele>
        <time>2013-06-30T12:56:16Z</time>
      </trkpt>
      <trkpt lat="40.185467" lon="-5.070867">
        <ele>1253.0</ele>
        <time>2013-06-30T12:56:17Z</time>
      </trkpt>
      <trkpt lat="40.185417" lon="-5.071000">
        <ele>1250.0</ele>
        <time>2013-06-30T12:56:18Z</time>
      </trkpt>
      <trkpt lat="40.185350" lon="-5.071150">
        <ele>1247.0</ele>
        <time>2013-06-30T12:56:19Z</time>
      </trkpt>
      <trkpt lat="40.185283" lon="-5.071267">
        <ele>1245.0</ele>
        <time>2013-06-30T12:56:20Z</time>
      </trkpt>
      <trkpt lat="40.185233" lon="-5.071400">
        <ele>1242.0</ele>
        <time>2013-06-30T12:56:21Z</time>
      </trkpt>
      <trkpt lat="40.185183" lon="-5.071517">
        <ele>1240.0</ele>
        <time>2013-06-30T12:56:22Z</time>
      </trkpt>
      <trkpt lat="40.185117" lon="-5.071633">
        <ele>1238.0</ele>
        <time>2013-06-30T12:56:23Z</time>
      </trkpt>
      <trkpt lat="40.185067" lon="-5.071750">
        <ele>1236.0</ele>
        <time>2013-06-30T12:56:24Z</time>
      </trkpt>
      <trkpt lat="40.185000" lon="-5.071883">
        <ele>1233.0</ele>
        <time>2013-06-30T12:56:25Z</time>
      </trkpt>
      <trkpt lat="40.184950" lon="-5.072017">
        <ele>1230.0</ele>
        <time>2013-06-30T12:56:26Z</time>
      </trkpt>
      <trkpt lat="40.184900" lon="-5.072150">
        <ele>1228.0</ele>
        <time>2013-06-30T12:56:27Z</time>
      </trkpt>
      <trkpt lat="40.184833" lon="-5.072267">
        <ele>1226.0</ele>
        <time>2013-06-30T12:56:28Z</time>
      </trkpt>
      <trkpt lat="40.184767" lon="-5.072383">
        <ele>1223.0</ele>
        <time>2013-06-30T12:56:29Z</time>
      </trkpt>
      <trkpt lat="40.184700" lon="-5.072483">
        <ele>1221.0</ele>
        <time>2013-06-30T12:56:30Z</time>
      </trkpt>
      <trkpt lat="40.184633" lon="-5.072583">
        <ele>1218.0</ele>
        <time>2013-06-30T12:56:31Z</time>
      </trkpt>
      <trkpt lat="40.184567" lon="-5.072700">
        <ele>1215.0</ele>
        <time>2013-06-30T12:56:32Z</time>
      </trkpt>
      <trkpt lat="40.184517" lon="-5.072833">
        <ele>1212.0</ele>
        <time>2013-06-30T12:56:33Z</time>
      </trkpt>
      <trkpt lat="40.184450" lon="-5.072967">
        <ele>1209.0</ele>
        <time>2013-06-30T12:56:34Z</time>
      </trkpt>
      <trkpt lat="40.184383" lon="-5.073100">
        <ele>1205.0</ele>
        <time>2013-06-30T12:56:35Z</time>
      </trkpt>
      <trkpt lat="40.184317" lon="-5.073233">
        <ele>1203.0</ele>
        <time>2013-06-30T12:56:36Z</time>
      </trkpt>
      <trkpt lat="40.184250" lon="-5.073367">
        <ele>1200.0</ele>
        <time>2013-06-30T12:56:37Z</time>
      </trkpt>
      <trkpt lat="40.184183" lon="-5.073483">
        <ele>1198.0</ele>
        <time>2013-06-30T12:56:38Z</time>
      </trkpt>
      <trkpt lat="40.184100" lon="-5.073617">
        <ele>1195.0</ele>
        <time>2013-06-30T12:56:39Z</time>
      </trkpt>
      <trkpt lat="40.184033" lon="-5.073750">
        <ele>1193.0</ele>
        <time>2013-06-30T12:56:40Z</time>
      </trkpt>
      <trkpt lat="40.183967" lon="-5.073883">
        <ele>1190.0</ele>
        <time>2013-06-30T12:56:41Z</time>
      </trkpt>
      <trkpt lat="40.183900" lon="-5.074017">
        <ele>1187.0</ele>
        <time>2013-06-30T12:56:42Z</time>
      </trkpt>
      <trkpt lat="40.183817" lon="-5.074133">
        <ele>1184.0</ele>
        <time>2013-06-30T12:56:43Z</time>
      </trkpt>
      <trkpt lat="40.183733" lon="-5.074267">
        <ele>1182.0</ele>
        <time>2013-06-30T12:56:44Z</time>
      </trkpt>
      <trkpt lat="40.183650" lon="-5.074383">
        <ele>1179.0</ele>
        <time>2013-06-30T12:56:45Z</time>
      </trkpt>
      <trkpt lat="40.183583" lon="-5.074517">
        <ele>1176.0</ele>
        <time>2013-06-30T12:56:46Z</time>
      </trkpt>
      <trkpt lat="40.183500" lon="-5.074633">
        <ele>1173.0</ele>
        <time>2013-06-30T12:56:47Z</time>
      </trkpt>
      <trkpt lat="40.183417" lon="-5.074767">
        <ele>1170.0</ele>
        <time>2013-06-30T12:56:48Z</time>
      </trkpt>
      <trkpt lat="40.183333" lon="-5.074900">
        <ele>1166.0</ele>
        <time>2013-06-30T12:56:49Z</time>
      </trkpt>
      <trkpt lat="40.183233" lon="-5.075017">
        <ele>1164.0</ele>
        <time>2013-06-30T12:56:50Z</time>
      </trkpt>
      <trkpt lat="40.183150" lon="-5.075117">
        <ele>1162.0</ele>
        <time>2013-06-30T12:56:51Z</time>
      </trkpt>
      <trkpt lat="40.183067" lon="-5.075233">
        <ele>1160.0</ele>
        <time>2013-06-30T12:56:52Z</time>
      </trkpt>
      <trkpt lat="40.182983" lon="-5.075333">
        <ele>1158.0</ele>
        <time>2013-06-30T12:56:53Z</time>
      </trkpt>
      <trkpt lat="40.182900" lon="-5.075433">
        <ele>1156.0</ele>
        <time>2013-06-30T12:56:54Z</time>
      </trkpt>
      <trkpt lat="40.182833" lon="-5.075533">
        <ele>1152.0</ele>
        <time>2013-06-30T12:56:55Z</time>
      </trkpt>
      <trkpt lat="40.182733" lon="-5.075650">
        <ele>1149.0</ele>
        <time>2013-06-30T12:56:56Z</time>
      </trkpt>
      <trkpt lat="40.182650" lon="-5.075767">
        <ele>1146.0</ele>
        <time>2013-06-30T12:56:57Z</time>
      </trkpt>
      <trkpt lat="40.182567" lon="-5.075900">
        <ele>1144.0</ele>
        <time>2013-06-30T12:56:58Z</time>
      </trkpt>
      <trkpt lat="40.182500" lon="-5.076017">
        <ele>1142.0</ele>
        <time>2013-06-30T12:56:59Z</time>
      </trkpt>
      <trkpt lat="40.182433" lon="-5.076117">
        <ele>1140.0</ele>
        <time>2013-06-30T12:57:00Z</time>
      </trkpt>
      <trkpt lat="40.182350" lon="-5.076233">
        <ele>1137.0</ele>
        <time>2013-06-30T12:57:01Z</time>
      </trkpt>
      <trkpt lat="40.182283" lon="-5.076333">
        <ele>1135.0</ele>
        <time>2013-06-30T12:57:02Z</time>
      </trkpt>
      <trkpt lat="40.182217" lon="-5.076467">
        <ele>1131.0</ele>
        <time>2013-06-30T12:57:03Z</time>
      </trkpt>
      <trkpt lat="40.182150" lon="-5.076583">
        <ele>1129.0</ele>
        <time>2013-06-30T12:57:04Z</time>
      </trkpt>
      <trkpt lat="40.182083" lon="-5.076717">
        <ele>1126.0</ele>
        <time>2013-06-30T12:57:05Z</time>
      </trkpt>
      <trkpt lat="40.182017" lon="-5.076833">
        <ele>1124.0</ele>
        <time>2013-06-30T12:57:06Z</time>
      </trkpt>
      <trkpt lat="40.181950" lon="-5.076950">
        <ele>1121.0</ele>
        <time>2013-06-30T12:57:07Z</time>
      </trkpt>
      <trkpt lat="40.181883" lon="-5.077067">
        <ele>1118.0</ele>
        <time>2013-06-30T12:57:08Z</time>
      </trkpt>
      <trkpt lat="40.181817" lon="-5.077183">
        <ele>1115.0</ele>
        <time>2013-06-30T12:57:09Z</time>
      </trkpt>
      <trkpt lat="40.181750" lon="-5.077317">
        <ele>1111.0</ele>
        <time>2013-06-30T12:57:10Z</time>
      </trkpt>
      <trkpt lat="40.181700" lon="-5.077450">
        <ele>1109.0</ele>
        <time>2013-06-30T12:57:11Z</time>
      </trkpt>
      <trkpt lat="40.181650" lon="-5.077583">
        <ele>1106.0</ele>
        <time>2013-06-30T12:57:12Z</time>
      </trkpt>
      <trkpt lat="40.181583" lon="-5.077717">
        <ele>1103.0</ele>
        <time>2013-06-30T12:57:13Z</time>
      </trkpt>
      <trkpt lat="40.181533" lon="-5.077833">
        <ele>1101.0</ele>
        <time>2013-06-30T12:57:14Z</time>
      </trkpt>
      <trkpt lat="40.181467" lon="-5.077967">
        <ele>1098.0</ele>
        <time>2013-06-30T12:57:15Z</time>
      </trkpt>
      <trkpt lat="40.181417" lon="-5.078100">
        <ele>1096.0</ele>
        <time>2013-06-30T12:57:16Z</time>
      </trkpt>
      <trkpt lat="40.181350" lon="-5.078233">
        <ele>1093.0</ele>
        <time>2013-06-30T12:57:17Z</time>
      </trkpt>
      <trkpt lat="40.181300" lon="-5.078383">
        <ele>1091.0</ele>
        <time>2013-06-30T12:57:18Z</time>
      </trkpt>
      <trkpt lat="40.181233" lon="-5.078517">
        <ele>1088.0</ele>
        <time>2013-06-30T12:57:19Z</time>
      </trkpt>
      <trkpt lat="40.181183" lon="-5.078650">
        <ele>1086.0</ele>
        <time>2013-06-30T12:57:20Z</time>
      </trkpt>
      <trkpt lat="40.181133" lon="-5.078783">
        <ele>1084.0</ele>
        <time>2013-06-30T12:57:21Z</time>
      </trkpt>
      <trkpt lat="40.181083" lon="-5.078900">
        <ele>1081.0</ele>
        <time>2013-06-30T12:57:22Z</time>
      </trkpt>
      <trkpt lat="40.181033" lon="-5.079033">
        <ele>1078.0</ele>
        <time>2013-06-30T12:57:23Z</time>
      </trkpt>
      <trkpt lat="40.180983" lon="-5.079167">
        <ele>1075.0</ele>
        <time>2013-06-30T12:57:24Z</time>
      </trkpt>
      <trkpt lat="40.180933" lon="-5.079317">
        <ele>1072.0</ele>
        <time>2013-06-30T12:57:25Z</time>
      </trkpt>
      <trkpt lat="40.180883" lon="-5.079467">
        <ele>1069.0</ele>
        <time>2013-06-30T12:57:26Z</time>
      </trkpt>
      <trkpt lat="40.180850" lon="-5.079600">
        <ele>1066.0</ele>
        <time>2013-06-30T12:57:27Z</time>
      </trkpt>
      <trkpt lat="40.180800" lon="-5.079750">
        <ele>1064.0</ele>
        <time>2013-06-30T12:57:28Z</time>
      </trkpt>
      <trkpt lat="40.180750" lon="-5.079883">
        <ele>1060.0</ele>
        <time>2013-06-30T12:57:29Z</time>
      </trkpt>
      <trkpt lat="40.180717" lon="-5.080017">
        <ele>1056.0</ele>
        <time>2013-06-30T12:57:30Z</time>
      </trkpt>
      <trkpt lat="40.180667" lon="-5.080167">
        <ele>1053.0</ele>
        <time>2013-06-30T12:57:31Z</time>
      </trkpt>
      <trkpt lat="40.180617" lon="-5.080317">
        <ele>1049.0</ele>
        <time>2013-06-30T12:57:32Z</time>
      </trkpt>
      <trkpt lat="40.180567" lon="-5.080467">
        <ele>1045.0</ele>
        <time>2013-06-30T12:57:33Z</time>
      </trkpt>
      <trkpt lat="40.180533" lon="-5.080617">
        <ele>1042.0</ele>
        <time>2013-06-30T12:57:34Z</time>
      </trkpt>
      <trkpt lat="40.180483" lon="-5.080767">
        <ele>1038.0</ele>
        <time>2013-06-30T12:57:35Z</time>
      </trkpt>
      <trkpt lat="40.180433" lon="-5.080917">
        <ele>1035.0</ele>
        <time>2013-06-30T12:57:36Z</time>
      </trkpt>
      <trkpt lat="40.180400" lon="-5.081050">
        <ele>1031.0</ele>
        <time>2013-06-30T12:57:37Z</time>
      </trkpt>
      <trkpt lat="40.180350" lon="-5.081200">
        <ele>1027.0</ele>
        <time>2013-06-30T12:57:38Z</time>
      </trkpt>
      <trkpt lat="40.180300" lon="-5.081350">
        <ele>1024.0</ele>
        <time>2013-06-30T12:57:39Z</time>
      </trkpt>
      <trkpt lat="40.180250" lon="-5.081483">
        <ele>1021.0</ele>
        <time>2013-06-30T12:57:40Z</time>
      </trkpt>
      <trkpt lat="40.180217" lon="-5.081633">
        <ele>1018.0</ele>
        <time>2013-06-30T12:57:41Z</time>
      </trkpt>
      <trkpt lat="40.180150" lon="-5.081750">
        <ele>1015.0</ele>
        <time>2013-06-30T12:57:42Z</time>
      </trkpt>
      <trkpt lat="40.180083" lon="-5.081867">
        <ele>1012.0</ele>
        <time>2013-06-30T12:57:43Z</time>
      </trkpt>
      <trkpt lat="40.180017" lon="-5.081983">
        <ele>1009.0</ele>
        <time>2013-06-30T12:57:44Z</time>
      </trkpt>
      <trkpt lat="40.179967" lon="-5.082117">
        <ele>1005.0</ele>
        <time>2013-06-30T12:57:45Z</time>
      </trkpt>
      <trkpt lat="40.179900" lon="-5.082267">
        <ele>1001.0</ele>
        <time>2013-06-30T12:57:46Z</time>
      </trkpt>
      <trkpt lat="40.179850" lon="-5.082417">
        <ele>997.0</ele>
        <time>2013-06-30T12:57:47Z</time>
      </trkpt>
      <trkpt lat="40.179800" lon="-5.082550">
        <ele>993.0</ele>
        <time>2013-06-30T12:57:48Z</time>
      </trkpt>
      <trkpt lat="40.179733" lon="-5.082667">
        <ele>990.0</ele>
        <time>2013-06-30T12:57:49Z</time>
      </trkpt>
      <trkpt lat="40.179667" lon="-5.082800">
        <ele>986.0</ele>
        <time>2013-06-30T12:57:50Z</time>
      </trkpt>
      <trkpt lat="40.179600" lon="-5.082933">
        <ele>982.0</ele>
        <time>2013-06-30T12:57:51Z</time>
      </trkpt>
      <trkpt lat="40.179533" lon="-5.083083">
        <ele>979.0</ele>
        <time>2013-06-30T12:57:52Z</time>
      </trkpt>
      <trkpt lat="40.179450" lon="-5.083217">
        <ele>975.0</ele>
        <time>2013-06-30T12:57:53Z</time>
      </trkpt>
      <trkpt lat="40.179367" lon="-5.083350">
        <ele>971.0</ele>
        <time>2013-06-30T12:57:54Z</time>
      </trkpt>
      <trkpt lat="40.179300" lon="-5.083483">
        <ele>968.0</ele>
        <time>2013-06-30T12:57:55Z</time>
      </trkpt>
      <trkpt lat="40.179233" lon="-5.083617">
        <ele>965.0</ele>
        <time>2013-06-30T12:57:56Z</time>
      </trkpt>
      <trkpt lat="40.179167" lon="-5.083750">
        <ele>962.0</ele>
        <time>2013-06-30T12:57:57Z</time>
      </trkpt>
      <trkpt lat="40.179117" lon="-5.083883">
        <ele>959.0</ele>
        <time>2013-06-30T12:57:58Z</time>
      </trkpt>
      <trkpt lat="40.179033" lon="-5.084017">
        <ele>955.0</ele>
        <time>2013-06-30T12:57:59Z</time>
      </trkpt>
      <trkpt lat="40.178950" lon="-5.084150">
        <ele>952.0</ele>
        <time>2013-06-30T12:58:00Z</time>
      </trkpt>
      <trkpt lat="40.178883" lon="-5.084283">
        <ele>948.0</ele>
        <time>2013-06-30T12:58:01Z</time>
      </trkpt>
      <trkpt lat="40.178800" lon="-5.084433">
        <ele>945.0</ele>
        <time>2013-06-30T12:58:02Z</time>
      </trkpt>
      <trkpt lat="40.178717" lon="-5.084567">
        <ele>942.0</ele>
        <time>2013-06-30T12:58:03Z</time>
      </trkpt>
      <trkpt lat="40.178650" lon="-5.084700">
        <ele>939.0</ele>
        <time>2013-06-30T12:58:04Z</time>
      </trkpt>
      <trkpt lat="40.178567" lon="-5.084833">
        <ele>936.0</ele>
        <time>2013-06-30T12:58:05Z</time>
      </trkpt>
      <trkpt lat="40.178483" lon="-5.084950">
        <ele>932.0</ele>
        <time>2013-06-30T12:58:06Z</time>
      </trkpt>
      <trkpt lat="40.178400" lon="-5.085083">
        <ele>929.0</ele>
        <time>2013-06-30T12:58:07Z</time>
      </trkpt>
      <trkpt lat="40.178317" lon="-5.085217">
        <ele>926.0</ele>
        <time>2013-06-30T12:58:08Z</time>
      </trkpt>
      <trkpt lat="40.178233" lon="-5.085350">
        <ele>923.0</ele>
        <time>2013-06-30T12:58:09Z</time>
      </trkpt>
      <trkpt lat="40.178167" lon="-5.085483">
        <ele>920.0</ele>
        <time>2013-06-30T12:58:10Z</time>
      </trkpt>
      <trkpt lat="40.178083" lon="-5.085600">
        <ele>917.0</ele>
        <time>2013-06-30T12:58:11Z</time>
      </trkpt>
      <trkpt lat="40.178017" lon="-5.085733">
        <ele>914.0</ele>
        <time>2013-06-30T12:58:12Z</time>
      </trkpt>
      <trkpt lat="40.177933" lon="-5.085867">
        <ele>910.0</ele>
        <time>2013-06-30T12:58:13Z</time>
      </trkpt>
      <trkpt lat="40.177867" lon="-5.086000">
        <ele>906.0</ele>
        <time>2013-06-30T12:58:14Z</time>
      </trkpt>
      <trkpt lat="40.177783" lon="-5.086150">
        <ele>903.0</ele>
        <time>2013-06-30T12:58:15Z</time>
      </trkpt>
      <trkpt lat="40.177717" lon="-5.086283">
        <ele>900.0</ele>
        <time>2013-06-30T12:58:16Z</time>
      </trkpt>
      <trkpt lat="40.177633" lon="-5.086433">
        <ele>897.0</ele>
        <time>2013-06-30T12:58:17Z</time>
      </trkpt>
      <trkpt lat="40.177567" lon="-5.086567">
        <ele>895.0</ele>
        <time>2013-06-30T12:58:18Z</time>
      </trkpt>
      <trkpt lat="40.177517" lon="-5.086700">
        <ele>892.0</ele>
        <time>2013-06-30T12:58:19Z</time>
      </trkpt>
      <trkpt lat="40.177433" lon="-5.086850">
        <ele>890.0</ele>
        <time>2013-06-30T12:58:20Z</time>
      </trkpt>
      <trkpt lat="40.177367" lon="-5.086983">
        <ele>887.0</ele>
        <time>2013-06-30T12:58:21Z</time>
      </trkpt>
      <trkpt lat="40.177300" lon="-5.087117">
        <ele>884.0</ele>
        <time>2013-06-30T12:58:22Z</time>
      </trkpt>
      <trkpt lat="40.177217" lon="-5.087250">
        <ele>882.0</ele>
        <time>2013-06-30T12:58:23Z</time>
      </trkpt>
      <trkpt lat="40.177150" lon="-5.087367">
        <ele>880.0</ele>
        <time>2013-06-30T12:58:24Z</time>
      </trkpt>
      <trkpt lat="40.177067" lon="-5.087500">
        <ele>877.0</ele>
        <time>2013-06-30T12:58:25Z</time>
      </trkpt>
      <trkpt lat="40.176983" lon="-5.087633">
        <ele>875.0</ele>
        <time>2013-06-30T12:58:26Z</time>
      </trkpt>
      <trkpt lat="40.176917" lon="-5.087750">
        <ele>872.0</ele>
        <time>2013-06-30T12:58:27Z</time>
      </trkpt>
      <trkpt lat="40.176833" lon="-5.087883">
        <ele>869.0</ele>
        <time>2013-06-30T12:58:28Z</time>
      </trkpt>
      <trkpt lat="40.176767" lon="-5.088000">
        <ele>867.0</ele>
        <time>2013-06-30T12:58:29Z</time>
      </trkpt>
      <trkpt lat="40.176683" lon="-5.088133">
        <ele>865.0</ele>
        <time>2013-06-30T12:58:30Z</time>
      </trkpt>
      <trkpt lat="40.176617" lon="-5.088267">
        <ele>862.0</ele>
        <time>2013-06-30T12:58:31Z</time>
      </trkpt>
      <trkpt lat="40.176550" lon="-5.088383">
        <ele>859.0</ele>
        <time>2013-06-30T12:58:32Z</time>
      </trkpt>
      <trkpt lat="40.176467" lon="-5.088517">
        <ele>857.0</ele>
        <time>2013-06-30T12:58:33Z</time>
      </trkpt>
      <trkpt lat="40.176400" lon="-5.088633">
        <ele>854.0</ele>
        <time>2013-06-30T12:58:34Z</time>
      </trkpt>
      <trkpt lat="40.176333" lon="-5.088767">
        <ele>852.0</ele>
        <time>2013-06-30T12:58:35Z</time>
      </trkpt>
      <trkpt lat="40.176250" lon="-5.088883">
        <ele>850.0</ele>
        <time>2013-06-30T12:58:36Z</time>
      </trkpt>
      <trkpt lat="40.176183" lon="-5.089017">
        <ele>848.0</ele>
        <time>2013-06-30T12:58:37Z</time>
      </trkpt>
      <trkpt lat="40.176100" lon="-5.089150">
        <ele>846.0</ele>
        <time>2013-06-30T12:58:38Z</time>
      </trkpt>
      <trkpt lat="40.176033" lon="-5.089267">
        <ele>844.0</ele>
        <time>2013-06-30T12:58:39Z</time>
      </trkpt>
      <trkpt lat="40.175950" lon="-5.089383">
        <ele>843.0</ele>
        <time>2013-06-30T12:58:40Z</time>
      </trkpt>
      <trkpt lat="40.175867" lon="-5.089500">
        <ele>842.0</ele>
        <time>2013-06-30T12:58:41Z</time>
      </trkpt>
      <trkpt lat="40.175800" lon="-5.089617">
        <ele>840.0</ele>
        <time>2013-06-30T12:58:42Z</time>
      </trkpt>
      <trkpt lat="40.175717" lon="-5.089717">
        <ele>839.0</ele>
        <time>2013-06-30T12:58:43Z</time>
      </trkpt>
      <trkpt lat="40.175650" lon="-5.089817">
        <ele>837.0</ele>
        <time>2013-06-30T12:58:44Z</time>
      </trkpt>
      <trkpt lat="40.175583" lon="-5.089917">
        <ele>835.0</ele>
        <time>2013-06-30T12:58:45Z</time>
      </trkpt>
      <trkpt lat="40.175500" lon="-5.090033">
        <ele>833.0</ele>
        <time>2013-06-30T12:58:46Z</time>
      </trkpt>
      <trkpt lat="40.175417" lon="-5.090150">
        <ele>830.0</ele>
        <time>2013-06-30T12:58:47Z</time>
      </trkpt>
      <trkpt lat="40.175317" lon="-5.090267">
        <ele>828.0</ele>
        <time>2013-06-30T12:58:48Z</time>
      </trkpt>
      <trkpt lat="40.175233" lon="-5.090367">
        <ele>826.0</ele>
        <time>2013-06-30T12:58:49Z</time>
      </trkpt>
      <trkpt lat="40.175167" lon="-5.090467">
        <ele>824.0</ele>
        <time>2013-06-30T12:58:50Z</time>
      </trkpt>
      <trkpt lat="40.175083" lon="-5.090567">
        <ele>822.0</ele>
        <time>2013-06-30T12:58:51Z</time>
      </trkpt>
      <trkpt lat="40.175000" lon="-5.090683">
        <ele>820.0</ele>
        <time>2013-06-30T12:58:52Z</time>
      </trkpt>
      <trkpt lat="40.174933" lon="-5.090800">
        <ele>818.0</ele>
        <time>2013-06-30T12:58:53Z</time>
      </trkpt>
      <trkpt lat="40.174850" lon="-5.090900">
        <ele>817.0</ele>
        <time>2013-06-30T12:58:54Z</time>
      </trkpt>
      <trkpt lat="40.174767" lon="-5.090983">
        <ele>818.0</ele>
        <time>2013-06-30T12:58:55Z</time>
      </trkpt>
      <trkpt lat="40.174700" lon="-5.091050">
        <ele>817.0</ele>
        <time>2013-06-30T12:58:56Z</time>
      </trkpt>
      <trkpt lat="40.174633" lon="-5.091117">
        <ele>816.0</ele>
        <time>2013-06-30T12:58:57Z</time>
      </trkpt>
      <trkpt lat="40.174567" lon="-5.091183">
        <ele>813.0</ele>
        <time>2013-06-30T12:58:58Z</time>
      </trkpt>
      <trkpt lat="40.174467" lon="-5.091233">
        <ele>810.0</ele>
        <time>2013-06-30T12:58:59Z</time>
      </trkpt>
      <trkpt lat="40.174367" lon="-5.091300">
        <ele>809.0</ele>
        <time>2013-06-30T12:59:00Z</time>
      </trkpt>
      <trkpt lat="40.174283" lon="-5.091367">
        <ele>809.0</ele>
        <time>2013-06-30T12:59:01Z</time>
      </trkpt>
      <trkpt lat="40.174200" lon="-5.091433">
        <ele>809.0</ele>
        <time>2013-06-30T12:59:02Z</time>
      </trkpt>
      <trkpt lat="40.174150" lon="-5.091500">
        <ele>808.0</ele>
        <time>2013-06-30T12:59:03Z</time>
      </trkpt>
      <trkpt lat="40.174083" lon="-5.091550">
        <ele>806.0</ele>
        <time>2013-06-30T12:59:04Z</time>
      </trkpt>
      <trkpt lat="40.174017" lon="-5.091617">
        <ele>804.0</ele>
        <time>2013-06-30T12:59:05Z</time>
      </trkpt>
      <trkpt lat="40.173950" lon="-5.091683">
        <ele>801.0</ele>
        <time>2013-06-30T12:59:06Z</time>
      </trkpt>
      <trkpt lat="40.173867" lon="-5.091717">
        <ele>799.0</ele>
        <time>2013-06-30T12:59:07Z</time>
      </trkpt>
      <trkpt lat="40.173783" lon="-5.091750">
        <ele>796.0</ele>
        <time>2013-06-30T12:59:08Z</time>
      </trkpt>
      <trkpt lat="40.173700" lon="-5.091783">
        <ele>794.0</ele>
        <time>2013-06-30T12:59:09Z</time>
      </trkpt>
      <trkpt lat="40.173617" lon="-5.091850">
        <ele>792.0</ele>
        <time>2013-06-30T12:59:10Z</time>
      </trkpt>
      <trkpt lat="40.173533" lon="-5.091917">
        <ele>790.0</ele>
        <time>2013-06-30T12:59:11Z</time>
      </trkpt>
      <trkpt lat="40.173433" lon="-5.091983">
        <ele>788.0</ele>
        <time>2013-06-30T12:59:12Z</time>
      </trkpt>
      <trkpt lat="40.173367" lon="-5.092050">
        <ele>786.0</ele>
        <time>2013-06-30T12:59:13Z</time>
      </trkpt>
      <trkpt lat="40.173283" lon="-5.092117">
        <ele>784.0</ele>
        <time>2013-06-30T12:59:14Z</time>
      </trkpt>
      <trkpt lat="40.173217" lon="-5.092200">
        <ele>782.0</ele>
        <time>2013-06-30T12:59:15Z</time>
      </trkpt>
      <trkpt lat="40.173150" lon="-5.092283">
        <ele>780.0</ele>
        <time>2013-06-30T12:59:16Z</time>
      </trkpt>
      <trkpt lat="40.173083" lon="-5.092383">
        <ele>778.0</ele>
        <time>2013-06-30T12:59:17Z</time>
      </trkpt>
      <trkpt lat="40.173017" lon="-5.092500">
        <ele>776.0</ele>
        <time>2013-06-30T12:59:18Z</time>
      </trkpt>
      <trkpt lat="40.172967" lon="-5.092633">
        <ele>773.0</ele>
        <time>2013-06-30T12:59:19Z</time>
      </trkpt>
      <trkpt lat="40.172900" lon="-5.092767">
        <ele>771.0</ele>
        <time>2013-06-30T12:59:20Z</time>
      </trkpt>
      <trkpt lat="40.172833" lon="-5.092883">
        <ele>769.0</ele>
        <time>2013-06-30T12:59:21Z</time>
      </trkpt>
      <trkpt lat="40.172767" lon="-5.093017">
        <ele>767.0</ele>
        <time>2013-06-30T12:59:22Z</time>
      </trkpt>
      <trkpt lat="40.172717" lon="-5.093133">
        <ele>766.0</ele>
        <time>2013-06-30T12:59:23Z</time>
      </trkpt>
      <trkpt lat="40.172650" lon="-5.093250">
        <ele>764.0</ele>
        <time>2013-06-30T12:59:24Z</time>
      </trkpt>
      <trkpt lat="40.172600" lon="-5.093367">
        <ele>762.0</ele>
        <time>2013-06-30T12:59:25Z</time>
      </trkpt>
      <trkpt lat="40.172550" lon="-5.093483">
        <ele>760.0</ele>
        <time>2013-06-30T12:59:26Z</time>
      </trkpt>
      <trkpt lat="40.172483" lon="-5.093600">
        <ele>758.0</ele>
        <time>2013-06-30T12:59:27Z</time>
      </trkpt>
      <trkpt lat="40.172417" lon="-5.093717">
        <ele>757.0</ele>
        <time>2013-06-30T12:59:28Z</time>
      </trkpt>
      <trkpt lat="40.172350" lon="-5.093850">
        <ele>756.0</ele>
        <time>2013-06-30T12:59:29Z</time>
      </trkpt>
      <trkpt lat="40.172267" lon="-5.093950">
        <ele>755.0</ele>
        <time>2013-06-30T12:59:30Z</time>
      </trkpt>
      <trkpt lat="40.172200" lon="-5.094050">
        <ele>755.0</ele>
        <time>2013-06-30T12:59:31Z</time>
      </trkpt>
      <trkpt lat="40.172150" lon="-5.094150">
        <ele>755.0</ele>
        <time>2013-06-30T12:59:32Z</time>
      </trkpt>
      <trkpt lat="40.172083" lon="-5.094233">
        <ele>755.0</ele>
        <time>2013-06-30T12:59:33Z</time>
      </trkpt>
      <trkpt lat="40.172033" lon="-5.094333">
        <ele>755.0</ele>
        <time>2013-06-30T12:59:34Z</time>
      </trkpt>
      <trkpt lat="40.171983" lon="-5.094417">
        <ele>756.0</ele>
        <time>2013-06-30T12:59:35Z</time>
      </trkpt>
      <trkpt lat="40.171933" lon="-5.094500">
        <ele>757.0</ele>
        <time>2013-06-30T12:59:36Z</time>
      </trkpt>
      <trkpt lat="40.171883" lon="-5.094567">
        <ele>758.0</ele>
        <time>2013-06-30T12:59:37Z</time>
      </trkpt>
      <trkpt lat="40.171850" lon="-5.094633">
        <ele>759.0</ele>
        <time>2013-06-30T12:59:38Z</time>
      </trkpt>
      <trkpt lat="40.171800" lon="-5.094700">
        <ele>759.0</ele>
        <time>2013-06-30T12:59:39Z</time>
      </trkpt>
      <trkpt lat="40.171733" lon="-5.094767">
        <ele>760.0</ele>
        <time>2013-06-30T12:59:40Z</time>
      </trkpt>
      <trkpt lat="40.171683" lon="-5.094833">
        <ele>761.0</ele>
        <time>2013-06-30T12:59:41Z</time>
      </trkpt>
      <trkpt lat="40.171650" lon="-5.094900">
        <ele>762.0</ele>
        <time>2013-06-30T12:59:42Z</time>
      </trkpt>
      <trkpt lat="40.171600" lon="-5.094950">
        <ele>763.0</ele>
        <time>2013-06-30T12:59:43Z</time>
      </trkpt>
      <trkpt lat="40.171567" lon="-5.095017">
        <ele>763.0</ele>
        <time>2013-06-30T12:59:44Z</time>
      </trkpt>
      <trkpt lat="40.171517" lon="-5.095083">
        <ele>764.0</ele>
        <time>2013-06-30T12:59:45Z</time>
      </trkpt>
      <trkpt lat="40.171483" lon="-5.095150">
        <ele>764.0</ele>
        <time>2013-06-30T12:59:46Z</time>
      </trkpt>
      <trkpt lat="40.171433" lon="-5.095233">
        <ele>765.0</ele>
        <time>2013-06-30T12:59:47Z</time>
      </trkpt>
      <trkpt lat="40.171383" lon="-5.095333">
        <ele>767.0</ele>
        <time>2013-06-30T12:59:48Z</time>
      </trkpt>
      <trkpt lat="40.171333" lon="-5.095417">
        <ele>771.0</ele>
        <time>2013-06-30T12:59:49Z</time>
      </trkpt>
      <trkpt lat="40.171283" lon="-5.095500">
        <ele>774.0</ele>
        <time>2013-06-30T12:59:50Z</time>
      </trkpt>
      <trkpt lat="40.171250" lon="-5.095583">
        <ele>777.0</ele>
        <time>2013-06-30T12:59:51Z</time>
      </trkpt>
      <trkpt lat="40.171217" lon="-5.095683">
        <ele>781.0</ele>
        <time>2013-06-30T12:59:52Z</time>
      </trkpt>
      <trkpt lat="40.171183" lon="-5.095767">
        <ele>784.0</ele>
        <time>2013-06-30T12:59:53Z</time>
      </trkpt>
      <trkpt lat="40.171150" lon="-5.095833">
        <ele>788.0</ele>
        <time>2013-06-30T12:59:54Z</time>
      </trkpt>
      <trkpt lat="40.171100" lon="-5.095883">
        <ele>791.0</ele>
        <time>2013-06-30T12:59:55Z</time>
      </trkpt>
      <trkpt lat="40.171033" lon="-5.095950">
        <ele>795.0</ele>
        <time>2013-06-30T12:59:56Z</time>
      </trkpt>
      <trkpt lat="40.170983" lon="-5.096000">
        <ele>798.0</ele>
        <time>2013-06-30T12:59:57Z</time>
      </trkpt>
      <trkpt lat="40.170917" lon="-5.096067">
        <ele>802.0</ele>
        <time>2013-06-30T12:59:58Z</time>
      </trkpt>
      <trkpt lat="40.170850" lon="-5.096100">
        <ele>805.0</ele>
        <time>2013-06-30T12:59:59Z</time>
      </trkpt>
      <trkpt lat="40.170783" lon="-5.096117">
        <ele>808.0</ele>
        <time>2013-06-30T13:00:00Z</time>
      </trkpt>
      <trkpt lat="40.170717" lon="-5.096100">
        <ele>810.0</ele>
        <time>2013-06-30T13:00:01Z</time>
      </trkpt>
      <trkpt lat="40.170633" lon="-5.096083">
        <ele>811.0</ele>
        <time>2013-06-30T13:00:02Z</time>
      </trkpt>
      <trkpt lat="40.170550" lon="-5.096017">
        <ele>813.0</ele>
        <time>2013-06-30T13:00:03Z</time>
      </trkpt>
      <trkpt lat="40.170483" lon="-5.095950">
        <ele>817.0</ele>
        <time>2013-06-30T13:00:04Z</time>
      </trkpt>
      <trkpt lat="40.170483" lon="-5.095883">
        <ele>820.0</ele>
        <time>2013-06-30T13:00:05Z</time>
      </trkpt>
      <trkpt lat="40.170517" lon="-5.095850">
        <ele>820.0</ele>
        <time>2013-06-30T13:00:06Z</time>
      </trkpt>
      <trkpt lat="40.170583" lon="-5.095850">
        <ele>820.0</ele>
        <time>2013-06-30T13:00:07Z</time>
      </trkpt>
      <trkpt lat="40.170667" lon="-5.095917">
        <ele>822.0</ele>
        <time>2013-06-30T13:00:08Z</time>
      </trkpt>
      <trkpt lat="40.170700" lon="-5.096000">
        <ele>826.0</ele>
        <time>2013-06-30T13:00:09Z</time>
      </trkpt>
      <trkpt lat="40.170700" lon="-5.096100">
        <ele>829.0</ele>
        <time>2013-06-30T13:00:10Z</time>
      </trkpt>
      <trkpt lat="40.170683" lon="-5.096200">
        <ele>832.0</ele>
        <time>2013-06-30T13:00:11Z</time>
      </trkpt>
      <trkpt lat="40.170617" lon="-5.096283">
        <ele>835.0</ele>
        <time>2013-06-30T13:00:12Z</time>
      </trkpt>
      <trkpt lat="40.170567" lon="-5.096367">
        <ele>839.0</ele>
        <time>2013-06-30T13:00:13Z</time>
      </trkpt>
      <trkpt lat="40.170500" lon="-5.096417">
        <ele>842.0</ele>
        <time>2013-06-30T13:00:14Z</time>
      </trkpt>
      <trkpt lat="40.170433" lon="-5.096467">
        <ele>846.0</ele>
        <time>2013-06-30T13:00:15Z</time>
      </trkpt>
      <trkpt lat="40.170367" lon="-5.096500">
        <ele>851.0</ele>
        <time>2013-06-30T13:00:16Z</time>
      </trkpt>
      <trkpt lat="40.170283" lon="-5.096517">
        <ele>853.0</ele>
        <time>2013-06-30T13:00:17Z</time>
      </trkpt>
      <trkpt lat="40.170217" lon="-5.096517">
        <ele>856.0</ele>
        <time>2013-06-30T13:00:18Z</time>
      </trkpt>
      <trkpt lat="40.170150" lon="-5.096483">
        <ele>857.0</ele>
        <time>2013-06-30T13:00:19Z</time>
      </trkpt>
      <trkpt lat="40.170133" lon="-5.096450">
        <ele>859.0</ele>
        <time>2013-06-30T13:00:20Z</time>
      </trkpt>
      <trkpt lat="40.170117" lon="-5.096383">
        <ele>860.0</ele>
        <time>2013-06-30T13:00:21Z</time>
      </trkpt>
      <trkpt lat="40.170133" lon="-5.096317">
        <ele>862.0</ele>
        <time>2013-06-30T13:00:22Z</time>
      </trkpt>
      <trkpt lat="40.170167" lon="-5.096267">
        <ele>865.0</ele>
        <time>2013-06-30T13:00:23Z</time>
      </trkpt>
      <trkpt lat="40.170217" lon="-5.096233">
        <ele>868.0</ele>
        <time>2013-06-30T13:00:24Z</time>
      </trkpt>
      <trkpt lat="40.170267" lon="-5.096250">
        <ele>871.0</ele>
        <time>2013-06-30T13:00:25Z</time>
      </trkpt>
      <trkpt lat="40.170317" lon="-5.096300">
        <ele>874.0</ele>
        <time>2013-06-30T13:00:26Z</time>
      </trkpt>
      <trkpt lat="40.170350" lon="-5.096367">
        <ele>876.0</ele>
        <time>2013-06-30T13:00:27Z</time>
      </trkpt>
      <trkpt lat="40.170383" lon="-5.096450">
        <ele>879.0</ele>
        <time>2013-06-30T13:00:28Z</time>
      </trkpt>
      <trkpt lat="40.170400" lon="-5.096550">
        <ele>882.0</ele>
        <time>2013-06-30T13:00:29Z</time>
      </trkpt>
      <trkpt lat="40.170383" lon="-5.096667">
        <ele>885.0</ele>
        <time>2013-06-30T13:00:30Z</time>
      </trkpt>
      <trkpt lat="40.170350" lon="-5.096783">
        <ele>888.0</ele>
        <time>2013-06-30T13:00:31Z</time>
      </trkpt>
      <trkpt lat="40.170317" lon="-5.096883">
        <ele>891.0</ele>
        <time>2013-06-30T13:00:32Z</time>
      </trkpt>
      <trkpt lat="40.170267" lon="-5.096983">
        <ele>893.0</ele>
        <time>2013-06-30T13:00:33Z</time>
      </trkpt>
      <trkpt lat="40.170217" lon="-5.097067">
        <ele>896.0</ele>
        <time>2013-06-30T13:00:34Z</time>
      </trkpt>
      <trkpt lat="40.170167" lon="-5.097150">
        <ele>899.0</ele>
        <time>2013-06-30T13:00:35Z</time>
      </trkpt>
      <trkpt lat="40.170117" lon="-5.097233">
        <ele>900.0</ele>
        <time>2013-06-30T13:00:36Z</time>
      </trkpt>
      <trkpt lat="40.170050" lon="-5.097283">
        <ele>902.0</ele>
        <time>2013-06-30T13:00:37Z</time>
      </trkpt>
      <trkpt lat="40.169967" lon="-5.097317">
        <ele>904.0</ele>
        <time>2013-06-30T13:00:38Z</time>
      </trkpt>
      <trkpt lat="40.169883" lon="-5.097317">
        <ele>907.0</ele>
        <time>2013-06-30T13:00:39Z</time>
      </trkpt>
      <trkpt lat="40.169833" lon="-5.097283">
        <ele>910.0</ele>
        <time>2013-06-30T13:00:40Z</time>
      </trkpt>
      <trkpt lat="40.169783" lon="-5.097217">
        <ele>914.0</ele>
        <time>2013-06-30T13:00:41Z</time>
      </trkpt>
      <trkpt lat="40.169783" lon="-5.097167">
        <ele>918.0</ele>
        <time>2013-06-30T13:00:42Z</time>
      </trkpt>
      <trkpt lat="40.169783" lon="-5.097117">
        <ele>921.0</ele>
        <time>2013-06-30T13:00:43Z</time>
      </trkpt>
      <trkpt lat="40.169783" lon="-5.097067">
        <ele>924.0</ele>
        <time>2013-06-30T13:00:44Z</time>
      </trkpt>
      <trkpt lat="40.169800" lon="-5.097033">
        <ele>926.0</ele>
        <time>2013-06-30T13:00:45Z</time>
      </trkpt>
      <trkpt lat="40.169833" lon="-5.097017">
        <ele>926.0</ele>
        <time>2013-06-30T13:00:46Z</time>
      </trkpt>
      <trkpt lat="40.169867" lon="-5.097000">
        <ele>928.0</ele>
        <time>2013-06-30T13:00:47Z</time>
      </trkpt>
      <trkpt lat="40.169933" lon="-5.097017">
        <ele>929.0</ele>
        <time>2013-06-30T13:00:48Z</time>
      </trkpt>
      <trkpt lat="40.169983" lon="-5.097050">
        <ele>932.0</ele>
        <time>2013-06-30T13:00:49Z</time>
      </trkpt>
      <trkpt lat="40.170033" lon="-5.097117">
        <ele>935.0</ele>
        <time>2013-06-30T13:00:50Z</time>
      </trkpt>
      <trkpt lat="40.170067" lon="-5.097167">
        <ele>938.0</ele>
        <time>2013-06-30T13:00:51Z</time>
      </trkpt>
      <trkpt lat="40.170133" lon="-5.097217">
        <ele>940.0</ele>
        <time>2013-06-30T13:00:52Z</time>
      </trkpt>
      <trkpt lat="40.170183" lon="-5.097300">
        <ele>942.0</ele>
        <time>2013-06-30T13:00:53Z</time>
      </trkpt>
      <trkpt lat="40.170250" lon="-5.097383">
        <ele>946.0</ele>
        <time>2013-06-30T13:00:54Z</time>
      </trkpt>
      <trkpt lat="40.170283" lon="-5.097483">
        <ele>950.0</ele>
        <time>2013-06-30T13:00:55Z</time>
      </trkpt>
      <trkpt lat="40.170300" lon="-5.097600">
        <ele>954.0</ele>
        <time>2013-06-30T13:00:56Z</time>
      </trkpt>
      <trkpt lat="40.170300" lon="-5.097700">
        <ele>957.0</ele>
        <time>2013-06-30T13:00:57Z</time>
      </trkpt>
      <trkpt lat="40.170267" lon="-5.097817">
        <ele>961.0</ele>
        <time>2013-06-30T13:00:58Z</time>
      </trkpt>
      <trkpt lat="40.170233" lon="-5.097933">
        <ele>965.0</ele>
        <time>2013-06-30T13:00:59Z</time>
      </trkpt>
      <trkpt lat="40.170183" lon="-5.098017">
        <ele>969.0</ele>
        <time>2013-06-30T13:01:00Z</time>
      </trkpt>
      <trkpt lat="40.170117" lon="-5.098067">
        <ele>971.0</ele>
        <time>2013-06-30T13:01:01Z</time>
      </trkpt>
      <trkpt lat="40.170033" lon="-5.098050">
        <ele>974.0</ele>
        <time>2013-06-30T13:01:02Z</time>
      </trkpt>
      <trkpt lat="40.169983" lon="-5.098017">
        <ele>977.0</ele>
        <time>2013-06-30T13:01:03Z</time>
      </trkpt>
      <trkpt lat="40.169933" lon="-5.097933">
        <ele>981.0</ele>
        <time>2013-06-30T13:01:04Z</time>
      </trkpt>
      <trkpt lat="40.169933" lon="-5.097850">
        <ele>984.0</ele>
        <time>2013-06-30T13:01:05Z</time>
      </trkpt>
      <trkpt lat="40.169967" lon="-5.097783">
        <ele>988.0</ele>
        <time>2013-06-30T13:01:06Z</time>
      </trkpt>
      <trkpt lat="40.170017" lon="-5.097733">
        <ele>992.0</ele>
        <time>2013-06-30T13:01:07Z</time>
      </trkpt>
      <trkpt lat="40.170083" lon="-5.097717">
        <ele>996.0</ele>
        <time>2013-06-30T13:01:08Z</time>
      </trkpt>
      <trkpt lat="40.170150" lon="-5.097750">
        <ele>999.0</ele>
        <time>2013-06-30T13:01:09Z</time>
      </trkpt>
      <trkpt lat="40.170217" lon="-5.097800">
        <ele>1002.0</ele>
        <time>2013-06-30T13:01:10Z</time>
      </trkpt>
      <trkpt lat="40.170283" lon="-5.097867">
        <ele>1005.0</ele>
        <time>2013-06-30T13:01:11Z</time>
      </trkpt>
      <trkpt lat="40.170333" lon="-5.097933">
        <ele>1008.0</ele>
        <time>2013-06-30T13:01:12Z</time>
      </trkpt>
      <trkpt lat="40.170383" lon="-5.098033">
        <ele>1012.0</ele>
        <time>2013-06-30T13:01:13Z</time>
      </trkpt>
      <trkpt lat="40.170400" lon="-5.098150">
        <ele>1016.0</ele>
        <time>2013-06-30T13:01:14Z</time>
      </trkpt>
      <trkpt lat="40.170400" lon="-5.098267">
        <ele>1020.0</ele>
        <time>2013-06-30T13:01:15Z</time>
      </trkpt>
      <trkpt lat="40.170367" lon="-5.098383">
        <ele>1023.0</ele>
        <time>2013-06-30T13:01:16Z</time>
      </trkpt>
      <trkpt lat="40.170300" lon="-5.098483">
        <ele>1027.0</ele>
        <time>2013-06-30T13:01:17Z</time>
      </trkpt>
      <trkpt lat="40.170233" lon="-5.098533">
        <ele>1031.0</ele>
        <time>2013-06-30T13:01:18Z</time>
      </trkpt>
      <trkpt lat="40.170183" lon="-5.098550">
        <ele>1035.0</ele>
        <time>2013-06-30T13:01:19Z</time>
      </trkpt>
      <trkpt lat="40.170117" lon="-5.098550">
        <ele>1040.0</ele>
        <time>2013-06-30T13:01:20Z</time>
      </trkpt>
      <trkpt lat="40.170033" lon="-5.098550">
        <ele>1044.0</ele>
        <time>2013-06-30T13:01:21Z</time>
      </trkpt>
      <trkpt lat="40.169983" lon="-5.098517">
        <ele>1049.0</ele>
        <time>2013-06-30T13:01:22Z</time>
      </trkpt>
      <trkpt lat="40.169933" lon="-5.098483">
        <ele>1052.0</ele>
        <time>2013-06-30T13:01:23Z</time>
      </trkpt>
      <trkpt lat="40.169900" lon="-5.098417">
        <ele>1055.0</ele>
        <time>2013-06-30T13:01:24Z</time>
      </trkpt>
      <trkpt lat="40.169900" lon="-5.098350">
        <ele>1058.0</ele>
        <time>2013-06-30T13:01:25Z</time>
      </trkpt>
      <trkpt lat="40.169933" lon="-5.098300">
        <ele>1060.0</ele>
        <time>2013-06-30T13:01:26Z</time>
      </trkpt>
      <trkpt lat="40.169967" lon="-5.098283">
        <ele>1062.0</ele>
        <time>2013-06-30T13:01:27Z</time>
      </trkpt>
      <trkpt lat="40.170033" lon="-5.098267">
        <ele>1065.0</ele>
        <time>2013-06-30T13:01:28Z</time>
      </trkpt>
      <trkpt lat="40.170083" lon="-5.098300">
        <ele>1069.0</ele>
        <time>2013-06-30T13:01:29Z</time>
      </trkpt>
      <trkpt lat="40.170150" lon="-5.098350">
        <ele>1073.0</ele>
        <time>2013-06-30T13:01:30Z</time>
      </trkpt>
      <trkpt lat="40.170183" lon="-5.098417">
        <ele>1077.0</ele>
        <time>2013-06-30T13:01:31Z</time>
      </trkpt>
      <trkpt lat="40.170233" lon="-5.098500">
        <ele>1081.0</ele>
        <time>2013-06-30T13:01:32Z</time>
      </trkpt>
      <trkpt lat="40.170267" lon="-5.098600">
        <ele>1085.0</ele>
        <time>2013-06-30T13:01:33Z</time>
      </trkpt>
      <trkpt lat="40.170283" lon="-5.098700">
        <ele>1089.0</ele>
        <time>2013-06-30T13:01:34Z</time>
      </trkpt>
      <trkpt lat="40.170300" lon="-5.098817">
        <ele>1092.0</ele>
        <time>2013-06-30T13:01:35Z</time>
      </trkpt>
      <trkpt lat="40.170283" lon="-5.098950">
        <ele>1095.0</ele>
        <time>2013-06-30T13:01:36Z</time>
      </trkpt>
      <trkpt lat="40.170250" lon="-5.099067">
        <ele>1098.0</ele>
        <time>2013-06-30T13:01:37Z</time>
      </trkpt>
      <trkpt lat="40.170200" lon="-5.099167">
        <ele>1103.0</ele>
        <time>2013-06-30T13:01:38Z</time>
      </trkpt>
      <trkpt lat="40.170167" lon="-5.099233">
        <ele>1107.0</ele>
        <time>2013-06-30T13:01:39Z</time>
      </trkpt>
      <trkpt lat="40.170133" lon="-5.099300">
        <ele>1111.0</ele>
        <time>2013-06-30T13:01:40Z</time>
      </trkpt>
      <trkpt lat="40.170100" lon="-5.099367">
        <ele>1114.0</ele>
        <time>2013-06-30T13:01:41Z</time>
      </trkpt>
      <trkpt lat="40.170050" lon="-5.099417">
        <ele>1116.0</ele>
        <time>2013-06-30T13:01:42Z</time>
      </trkpt>
      <trkpt lat="40.169983" lon="-5.099450">
        <ele>1118.0</ele>
        <time>2013-06-30T13:01:43Z</time>
      </trkpt>
      <trkpt lat="40.169883" lon="-5.099417">
        <ele>1120.0</ele>
        <time>2013-06-30T13:01:44Z</time>
      </trkpt>
      <trkpt lat="40.169833" lon="-5.099367">
        <ele>1123.0</ele>
        <time>2013-06-30T13:01:45Z</time>
      </trkpt>
      <trkpt lat="40.169783" lon="-5.099300">
        <ele>1126.0</ele>
        <time>2013-06-30T13:01:46Z</time>
      </trkpt>
      <trkpt lat="40.169767" lon="-5.099250">
        <ele>1131.0</ele>
        <time>2013-06-30T13:01:47Z</time>
      </trkpt>
      <trkpt lat="40.169733" lon="-5.099200">
        <ele>1135.0</ele>
        <time>2013-06-30T13:01:48Z</time>
      </trkpt>
      <trkpt lat="40.169717" lon="-5.099167">
        <ele>1138.0</ele>
        <time>2013-06-30T13:01:49Z</time>
      </trkpt>
      <trkpt lat="40.169700" lon="-5.099117">
        <ele>1141.0</ele>
        <time>2013-06-30T13:01:50Z</time>
      </trkpt>
      <trkpt lat="40.169717" lon="-5.099067">
        <ele>1143.0</ele>
        <time>2013-06-30T13:01:51Z</time>
      </trkpt>
      <trkpt lat="40.169783" lon="-5.099050">
        <ele>1144.0</ele>
        <time>2013-06-30T13:01:52Z</time>
      </trkpt>
      <trkpt lat="40.169850" lon="-5.099083">
        <ele>1146.0</ele>
        <time>2013-06-30T13:01:53Z</time>
      </trkpt>
      <trkpt lat="40.169917" lon="-5.099133">
        <ele>1150.0</ele>
        <time>2013-06-30T13:01:54Z</time>
      </trkpt>
      <trkpt lat="40.169967" lon="-5.099200">
        <ele>1155.0</ele>
        <time>2013-06-30T13:01:55Z</time>
      </trkpt>
      <trkpt lat="40.170017" lon="-5.099250">
        <ele>1159.0</ele>
        <time>2013-06-30T13:01:56Z</time>
      </trkpt>
      <trkpt lat="40.170067" lon="-5.099333">
        <ele>1163.0</ele>
        <time>2013-06-30T13:01:57Z</time>
      </trkpt>
      <trkpt lat="40.170100" lon="-5.099417">
        <ele>1166.0</ele>
        <time>2013-06-30T13:01:58Z</time>
      </trkpt>
      <trkpt lat="40.170117" lon="-5.099550">
        <ele>1170.0</ele>
        <time>2013-06-30T13:01:59Z</time>
      </trkpt>
      <trkpt lat="40.170100" lon="-5.099700">
        <ele>1174.0</ele>
        <time>2013-06-30T13:02:00Z</time>
      </trkpt>
      <trkpt lat="40.170050" lon="-5.099800">
        <ele>1178.0</ele>
        <time>2013-06-30T13:02:01Z</time>
      </trkpt>
      <trkpt lat="40.170000" lon="-5.099867">
        <ele>1182.0</ele>
        <time>2013-06-30T13:02:02Z</time>
      </trkpt>
      <trkpt lat="40.169933" lon="-5.099883">
        <ele>1185.0</ele>
        <time>2013-06-30T13:02:03Z</time>
      </trkpt>
      <trkpt lat="40.169867" lon="-5.099883">
        <ele>1187.0</ele>
        <time>2013-06-30T13:02:04Z</time>
      </trkpt>
      <trkpt lat="40.169783" lon="-5.099867">
        <ele>1189.0</ele>
        <time>2013-06-30T13:02:05Z</time>
      </trkpt>
      <trkpt lat="40.169717" lon="-5.099833">
        <ele>1193.0</ele>
        <time>2013-06-30T13:02:06Z</time>
      </trkpt>
      <trkpt lat="40.169650" lon="-5.099817">
        <ele>1196.0</ele>
        <time>2013-06-30T13:02:07Z</time>
      </trkpt>
      <trkpt lat="40.169600" lon="-5.099783">
        <ele>1199.0</ele>
        <time>2013-06-30T13:02:08Z</time>
      </trkpt>
      <trkpt lat="40.169567" lon="-5.099750">
        <ele>1202.0</ele>
        <time>2013-06-30T13:02:09Z</time>
      </trkpt>
      <trkpt lat="40.169567" lon="-5.099717">
        <ele>1203.0</ele>
        <time>2013-06-30T13:02:10Z</time>
      </trkpt>
      <trkpt lat="40.169583" lon="-5.099683">
        <ele>1203.0</ele>
        <time>2013-06-30T13:02:11Z</time>
      </trkpt>
      <trkpt lat="40.169617" lon="-5.099650">
        <ele>1205.0</ele>
        <time>2013-06-30T13:02:12Z</time>
      </trkpt>
      <trkpt lat="40.169667" lon="-5.099633">
        <ele>1208.0</ele>
        <time>2013-06-30T13:02:13Z</time>
      </trkpt>
      <trkpt lat="40.169733" lon="-5.099650">
        <ele>1211.0</ele>
        <time>2013-06-30T13:02:14Z</time>
      </trkpt>
      <trkpt lat="40.169783" lon="-5.099700">
        <ele>1213.0</ele>
        <time>2013-06-30T13:02:15Z</time>
      </trkpt>
      <trkpt lat="40.169833" lon="-5.099750">
        <ele>1216.0</ele>
        <time>2013-06-30T13:02:16Z</time>
      </trkpt>
      <trkpt lat="40.169900" lon="-5.099800">
        <ele>1220.0</ele>
        <time>2013-06-30T13:02:17Z</time>
      </trkpt>
      <trkpt lat="40.169950" lon="-5.099867">
        <ele>1222.0</ele>
        <time>2013-06-30T13:02:18Z</time>
      </trkpt>
      <trkpt lat="40.170000" lon="-5.099950">
        <ele>1225.0</ele>
        <time>2013-06-30T13:02:19Z</time>
      </trkpt>
      <trkpt lat="40.170033" lon="-5.100067">
        <ele>1227.0</ele>
        <time>2013-06-30T13:02:20Z</time>
      </trkpt>
      <trkpt lat="40.170050" lon="-5.100200">
        <ele>1230.0</ele>
        <time>2013-06-30T13:02:21Z</time>
      </trkpt>
      <trkpt lat="40.170050" lon="-5.100333">
        <ele>1235.0</ele>
        <time>2013-06-30T13:02:22Z</time>
      </trkpt>
      <trkpt lat="40.170050" lon="-5.100433">
        <ele>1240.0</ele>
        <time>2013-06-30T13:02:23Z</time>
      </trkpt>
      <trkpt lat="40.170033" lon="-5.100517">
        <ele>1243.0</ele>
        <time>2013-06-30T13:02:24Z</time>
      </trkpt>
      <trkpt lat="40.170000" lon="-5.100600">
        <ele>1245.0</ele>
        <time>2013-06-30T13:02:25Z</time>
      </trkpt>
      <trkpt lat="40.169967" lon="-5.100700">
        <ele>1247.0</ele>
        <time>2013-06-30T13:02:26Z</time>
      </trkpt>
      <trkpt lat="40.169900" lon="-5.100783">
        <ele>1249.0</ele>
        <time>2013-06-30T13:02:27Z</time>
      </trkpt>
      <trkpt lat="40.169817" lon="-5.100850">
        <ele>1249.0</ele>
        <time>2013-06-30T13:02:28Z</time>
      </trkpt>
      <trkpt lat="40.169733" lon="-5.100850">
        <ele>1250.0</ele>
        <time>2013-06-30T13:02:29Z</time>
      </trkpt>
      <trkpt lat="40.169650" lon="-5.100817">
        <ele>1251.0</ele>
        <time>2013-06-30T13:02:30Z</time>
      </trkpt>
      <trkpt lat="40.169600" lon="-5.100733">
        <ele>1253.0</ele>
        <time>2013-06-30T13:02:31Z</time>
      </trkpt>
      <trkpt lat="40.169567" lon="-5.100683">
        <ele>1258.0</ele>
        <time>2013-06-30T13:02:32Z</time>
      </trkpt>
      <trkpt lat="40.169533" lon="-5.100667">
        <ele>1261.0</ele>
        <time>2013-06-30T13:02:33Z</time>
      </trkpt>
      <trkpt lat="40.169500" lon="-5.100667">
        <ele>1264.0</ele>
        <time>2013-06-30T13:02:34Z</time>
      </trkpt>
      <trkpt lat="40.169467" lon="-5.100667">
        <ele>1264.0</ele>
        <time>2013-06-30T13:02:35Z</time>
      </trkpt>
      <trkpt lat="40.169433" lon="-5.100650">
        <ele>1264.0</ele>
        <time>2013-06-30T13:02:36Z</time>
      </trkpt>
      <trkpt lat="40.169433" lon="-5.100583">
        <ele>1264.0</ele>
        <time>2013-06-30T13:02:37Z</time>
      </trkpt>
      <trkpt lat="40.169467" lon="-5.100533">
        <ele>1264.0</ele>
        <time>2013-06-30T13:02:38Z</time>
      </trkpt>
      <trkpt lat="40.169533" lon="-5.100500">
        <ele>1265.0</ele>
        <time>2013-06-30T13:02:39Z</time>
      </trkpt>
      <trkpt lat="40.169600" lon="-5.100517">
        <ele>1268.0</ele>
        <time>2013-06-30T13:02:40Z</time>
      </trkpt>
      <trkpt lat="40.169667" lon="-5.100550">
        <ele>1270.0</ele>
        <time>2013-06-30T13:02:41Z</time>
      </trkpt>
      <trkpt lat="40.169717" lon="-5.100583">
        <ele>1273.0</ele>
        <time>2013-06-30T13:02:42Z</time>
      </trkpt>
      <trkpt lat="40.169767" lon="-5.100600">
        <ele>1275.0</ele>
        <time>2013-06-30T13:02:43Z</time>
      </trkpt>
      <trkpt lat="40.169833" lon="-5.100633">
        <ele>1277.0</ele>
        <time>2013-06-30T13:02:44Z</time>
      </trkpt>
      <trkpt lat="40.169900" lon="-5.100700">
        <ele>1279.0</ele>
        <time>2013-06-30T13:02:45Z</time>
      </trkpt>
      <trkpt lat="40.169950" lon="-5.100800">
        <ele>1281.0</ele>
        <time>2013-06-30T13:02:46Z</time>
      </trkpt>
      <trkpt lat="40.170000" lon="-5.100900">
        <ele>1284.0</ele>
        <time>2013-06-30T13:02:47Z</time>
      </trkpt>
      <trkpt lat="40.170033" lon="-5.101017">
        <ele>1287.0</ele>
        <time>2013-06-30T13:02:48Z</time>
      </trkpt>
      <trkpt lat="40.170050" lon="-5.101133">
        <ele>1290.0</ele>
        <time>2013-06-30T13:02:49Z</time>
      </trkpt>
      <trkpt lat="40.170067" lon="-5.101250">
        <ele>1292.0</ele>
        <time>2013-06-30T13:02:50Z</time>
      </trkpt>
      <trkpt lat="40.170050" lon="-5.101383">
        <ele>1294.0</ele>
        <time>2013-06-30T13:02:51Z</time>
      </trkpt>
      <trkpt lat="40.170033" lon="-5.101517">
        <ele>1296.0</ele>
        <time>2013-06-30T13:02:52Z</time>
      </trkpt>
      <trkpt lat="40.170000" lon="-5.101633">
        <ele>1298.0</ele>
        <time>2013-06-30T13:02:53Z</time>
      </trkpt>
      <trkpt lat="40.169933" lon="-5.101700">
        <ele>1299.0</ele>
        <time>2013-06-30T13:02:54Z</time>
      </trkpt>
      <trkpt lat="40.169850" lon="-5.101733">
        <ele>1300.0</ele>
        <time>2013-06-30T13:02:55Z</time>
      </trkpt>
      <trkpt lat="40.169767" lon="-5.101733">
        <ele>1301.0</ele>
        <time>2013-06-30T13:02:56Z</time>
      </trkpt>
      <trkpt lat="40.169700" lon="-5.101733">
        <ele>1303.0</ele>
        <time>2013-06-30T13:02:57Z</time>
      </trkpt>
      <trkpt lat="40.169633" lon="-5.101700">
        <ele>1304.0</ele>
        <time>2013-06-30T13:02:58Z</time>
      </trkpt>
      <trkpt lat="40.169583" lon="-5.101650">
        <ele>1305.0</ele>
        <time>2013-06-30T13:02:59Z</time>
      </trkpt>
      <trkpt lat="40.169550" lon="-5.101583">
        <ele>1306.0</ele>
        <time>2013-06-30T13:03:00Z</time>
      </trkpt>
      <trkpt lat="40.169500" lon="-5.101533">
        <ele>1308.0</ele>
        <time>2013-06-30T13:03:01Z</time>
      </trkpt>
      <trkpt lat="40.169467" lon="-5.101500">
        <ele>1310.0</ele>
        <time>2013-06-30T13:03:02Z</time>
      </trkpt>
      <trkpt lat="40.169450" lon="-5.101450">
        <ele>1313.0</ele>
        <time>2013-06-30T13:03:03Z</time>
      </trkpt>
      <trkpt lat="40.169450" lon="-5.101433">
        <ele>1316.0</ele>
        <time>2013-06-30T13:03:04Z</time>
      </trkpt>
      <trkpt lat="40.169467" lon="-5.101400">
        <ele>1317.0</ele>
        <time>2013-06-30T13:03:05Z</time>
      </trkpt>
      <trkpt lat="40.169500" lon="-5.101383">
        <ele>1318.0</ele>
        <time>2013-06-30T13:03:06Z</time>
      </trkpt>
      <trkpt lat="40.169533" lon="-5.101350">
        <ele>1318.0</ele>
        <time>2013-06-30T13:03:07Z</time>
      </trkpt>
      <trkpt lat="40.169600" lon="-5.101333">
        <ele>1319.0</ele>
        <time>2013-06-30T13:03:08Z</time>
      </trkpt>
      <trkpt lat="40.169667" lon="-5.101333">
        <ele>1320.0</ele>
        <time>2013-06-30T13:03:09Z</time>
      </trkpt>
      <trkpt lat="40.169750" lon="-5.101367">
        <ele>1322.0</ele>
        <time>2013-06-30T13:03:10Z</time>
      </trkpt>
      <trkpt lat="40.169800" lon="-5.101433">
        <ele>1325.0</ele>
        <time>2013-06-30T13:03:11Z</time>
      </trkpt>
      <trkpt lat="40.169850" lon="-5.101517">
        <ele>1327.0</ele>
        <time>2013-06-30T13:03:12Z</time>
      </trkpt>
      <trkpt lat="40.169900" lon="-5.101600">
        <ele>1329.0</ele>
        <time>2013-06-30T13:03:13Z</time>
      </trkpt>
      <trkpt lat="40.169933" lon="-5.101700">
        <ele>1330.0</ele>
        <time>2013-06-30T13:03:14Z</time>
      </trkpt>
      <trkpt lat="40.169967" lon="-5.101817">
        <ele>1332.0</ele>
        <time>2013-06-30T13:03:15Z</time>
      </trkpt>
      <trkpt lat="40.169983" lon="-5.101950">
        <ele>1334.0</ele>
        <time>2013-06-30T13:03:16Z</time>
      </trkpt>
      <trkpt lat="40.169967" lon="-5.102100">
        <ele>1335.0</ele>
        <time>2013-06-30T13:03:17Z</time>
      </trkpt>
      <trkpt lat="40.169950" lon="-5.102233">
        <ele>1338.0</ele>
        <time>2013-06-30T13:03:18Z</time>
      </trkpt>
      <trkpt lat="40.169917" lon="-5.102333">
        <ele>1341.0</ele>
        <time>2013-06-30T13:03:19Z</time>
      </trkpt>
      <trkpt lat="40.169867" lon="-5.102400">
        <ele>1342.0</ele>
        <time>2013-06-30T13:03:20Z</time>
      </trkpt>
      <trkpt lat="40.169800" lon="-5.102450">
        <ele>1343.0</ele>
        <time>2013-06-30T13:03:21Z</time>
      </trkpt>
      <trkpt lat="40.169733" lon="-5.102500">
        <ele>1344.0</ele>
        <time>2013-06-30T13:03:22Z</time>
      </trkpt>
      <trkpt lat="40.169650" lon="-5.102517">
        <ele>1345.0</ele>
        <time>2013-06-30T13:03:23Z</time>
      </trkpt>
      <trkpt lat="40.169583" lon="-5.102517">
        <ele>1346.0</ele>
        <time>2013-06-30T13:03:24Z</time>
      </trkpt>
      <trkpt lat="40.169517" lon="-5.102500">
        <ele>1347.0</ele>
        <time>2013-06-30T13:03:25Z</time>
      </trkpt>
      <trkpt lat="40.169467" lon="-5.102467">
        <ele>1348.0</ele>
        <time>2013-06-30T13:03:26Z</time>
      </trkpt>
      <trkpt lat="40.169450" lon="-5.102450">
        <ele>1350.0</ele>
        <time>2013-06-30T13:03:27Z</time>
      </trkpt>
      <trkpt lat="40.169433" lon="-5.102433">
        <ele>1352.0</ele>
        <time>2013-06-30T13:03:28Z</time>
      </trkpt>
      <trkpt lat="40.169400" lon="-5.102417">
        <ele>1353.0</ele>
        <time>2013-06-30T13:03:29Z</time>
      </trkpt>
      <trkpt lat="40.169383" lon="-5.102383">
        <ele>1354.0</ele>
        <time>2013-06-30T13:03:30Z</time>
      </trkpt>
      <trkpt lat="40.169367" lon="-5.102350">
        <ele>1355.0</ele>
        <time>2013-06-30T13:03:31Z</time>
      </trkpt>
      <trkpt lat="40.169367" lon="-5.102300">
        <ele>1356.0</ele>
        <time>2013-06-30T13:03:32Z</time>
      </trkpt>
      <trkpt lat="40.169400" lon="-5.102267">
        <ele>1358.0</ele>
        <time>2013-06-30T13:03:33Z</time>
      </trkpt>
      <trkpt lat="40.169433" lon="-5.102233">
        <ele>1359.0</ele>
        <time>2013-06-30T13:03:34Z</time>
      </trkpt>
      <trkpt lat="40.169483" lon="-5.102217">
        <ele>1361.0</ele>
        <time>2013-06-30T13:03:35Z</time>
      </trkpt>
      <trkpt lat="40.169533" lon="-5.102183">
        <ele>1362.0</ele>
        <time>2013-06-30T13:03:36Z</time>
      </trkpt>
      <trkpt lat="40.169583" lon="-5.102167">
        <ele>1363.0</ele>
        <time>2013-06-30T13:03:37Z</time>
      </trkpt>
      <trkpt lat="40.169650" lon="-5.102150">
        <ele>1364.0</ele>
        <time>2013-06-30T13:03:38Z</time>
      </trkpt>
      <trkpt lat="40.169717" lon="-5.102150">
        <ele>1365.0</ele>
        <time>2013-06-30T13:03:39Z</time>
      </trkpt>
      <trkpt lat="40.169800" lon="-5.102183">
        <ele>1366.0</ele>
        <time>2013-06-30T13:03:40Z</time>
      </trkpt>
      <trkpt lat="40.169883" lon="-5.102233">
        <ele>1368.0</ele>
        <time>2013-06-30T13:03:41Z</time>
      </trkpt>
      <trkpt lat="40.169950" lon="-5.102283">
        <ele>1372.0</ele>
        <time>2013-06-30T13:03:42Z</time>
      </trkpt>
      <trkpt lat="40.170017" lon="-5.102333">
        <ele>1377.0</ele>
        <time>2013-06-30T13:03:43Z</time>
      </trkpt>
      <trkpt lat="40.170050" lon="-5.102367">
        <ele>1381.0</ele>
        <time>2013-06-30T13:03:44Z</time>
      </trkpt>
      <trkpt lat="40.170083" lon="-5.102417">
        <ele>1383.0</ele>
        <time>2013-06-30T13:03:45Z</time>
      </trkpt>
      <trkpt lat="40.170133" lon="-5.102467">
        <ele>1385.0</ele>
        <time>2013-06-30T13:03:46Z</time>
      </trkpt>
      <trkpt lat="40.170217" lon="-5.102567">
        <ele>1384.0</ele>
        <time>2013-06-30T13:03:47Z</time>
      </trkpt>
      <trkpt lat="40.170267" lon="-5.102683">
        <ele>1384.0</ele>
        <time>2013-06-30T13:03:48Z</time>
      </trkpt>
      <trkpt lat="40.170300" lon="-5.102817">
        <ele>1385.0</ele>
        <time>2013-06-30T13:03:49Z</time>
      </trkpt>
      <trkpt lat="40.170300" lon="-5.102950">
        <ele>1385.0</ele>
        <time>2013-06-30T13:03:50Z</time>
      </trkpt>
      <trkpt lat="40.170267" lon="-5.103067">
        <ele>1385.0</ele>
        <time>2013-06-30T13:03:51Z</time>
      </trkpt>
      <trkpt lat="40.170217" lon="-5.103167">
        <ele>1385.0</ele>
        <time>2013-06-30T13:03:52Z</time>
      </trkpt>
      <trkpt lat="40.170167" lon="-5.103267">
        <ele>1386.0</ele>
        <time>2013-06-30T13:03:53Z</time>
      </trkpt>
      <trkpt lat="40.170117" lon="-5.103333">
        <ele>1388.0</ele>
        <time>2013-06-30T13:03:54Z</time>
      </trkpt>
      <trkpt lat="40.170067" lon="-5.103400">
        <ele>1389.0</ele>
        <time>2013-06-30T13:03:55Z</time>
      </trkpt>
      <trkpt lat="40.170017" lon="-5.103433">
        <ele>1390.0</ele>
        <time>2013-06-30T13:03:56Z</time>
      </trkpt>
      <trkpt lat="40.169950" lon="-5.103467">
        <ele>1390.0</ele>
        <time>2013-06-30T13:03:57Z</time>
      </trkpt>
      <trkpt lat="40.169900" lon="-5.103517">
        <ele>1392.0</ele>
        <time>2013-06-30T13:03:58Z</time>
      </trkpt>
      <trkpt lat="40.169850" lon="-5.103550">
        <ele>1393.0</ele>
        <time>2013-06-30T13:03:59Z</time>
      </trkpt>
      <trkpt lat="40.169783" lon="-5.103567">
        <ele>1393.0</ele>
        <time>2013-06-30T13:04:00Z</time>
      </trkpt>
      <trkpt lat="40.169717" lon="-5.103583">
        <ele>1394.0</ele>
        <time>2013-06-30T13:04:01Z</time>
      </trkpt>
      <trkpt lat="40.169633" lon="-5.103600">
        <ele>1396.0</ele>
        <time>2013-06-30T13:04:02Z</time>
      </trkpt>
      <trkpt lat="40.169583" lon="-5.103617">
        <ele>1400.0</ele>
        <time>2013-06-30T13:04:03Z</time>
      </trkpt>
      <trkpt lat="40.169550" lon="-5.103650">
        <ele>1402.0</ele>
        <time>2013-06-30T13:04:04Z</time>
      </trkpt>
      <trkpt lat="40.169517" lon="-5.103683">
        <ele>1404.0</ele>
        <time>2013-06-30T13:04:05Z</time>
      </trkpt>
      <trkpt lat="40.169467" lon="-5.103683">
        <ele>1405.0</ele>
        <time>2013-06-30T13:04:06Z</time>
      </trkpt>
      <trkpt lat="40.169417" lon="-5.103683">
        <ele>1406.0</ele>
        <time>2013-06-30T13:04:07Z</time>
      </trkpt>
      <trkpt lat="40.169367" lon="-5.103650">
        <ele>1408.0</ele>
        <time>2013-06-30T13:04:08Z</time>
      </trkpt>
      <trkpt lat="40.169350" lon="-5.103617">
        <ele>1409.0</ele>
        <time>2013-06-30T13:04:09Z</time>
      </trkpt>
      <trkpt lat="40.169367" lon="-5.103567">
        <ele>1410.0</ele>
        <time>2013-06-30T13:04:10Z</time>
      </trkpt>
      <trkpt lat="40.169400" lon="-5.103533">
        <ele>1410.0</ele>
        <time>2013-06-30T13:04:11Z</time>
      </trkpt>
      <trkpt lat="40.169450" lon="-5.103483">
        <ele>1410.0</ele>
        <time>2013-06-30T13:04:12Z</time>
      </trkpt>
      <trkpt lat="40.169517" lon="-5.103467">
        <ele>1412.0</ele>
        <time>2013-06-30T13:04:13Z</time>
      </trkpt>
      <trkpt lat="40.169567" lon="-5.103450">
        <ele>1415.0</ele>
        <time>2013-06-30T13:04:14Z</time>
      </trkpt>
      <trkpt lat="40.169617" lon="-5.103450">
        <ele>1418.0</ele>
        <time>2013-06-30T13:04:15Z</time>
      </trkpt>
      <trkpt lat="40.169650" lon="-5.103433">
        <ele>1422.0</ele>
        <time>2013-06-30T13:04:16Z</time>
      </trkpt>
      <trkpt lat="40.169683" lon="-5.103417">
        <ele>1424.0</ele>
        <time>2013-06-30T13:04:17Z</time>
      </trkpt>
      <trkpt lat="40.169750" lon="-5.103433">
        <ele>1426.0</ele>
        <time>2013-06-30T13:04:18Z</time>
      </trkpt>
      <trkpt lat="40.169817" lon="-5.103450">
        <ele>1427.0</ele>
        <time>2013-06-30T13:04:19Z</time>
      </trkpt>
      <trkpt lat="40.169900" lon="-5.103517">
        <ele>1429.0</ele>
        <time>2013-06-30T13:04:20Z</time>
      </trkpt>
      <trkpt lat="40.169967" lon="-5.103600">
        <ele>1431.0</ele>
        <time>2013-06-30T13:04:21Z</time>
      </trkpt>
      <trkpt lat="40.170017" lon="-5.103733">
        <ele>1432.0</ele>
        <time>2013-06-30T13:04:22Z</time>
      </trkpt>
      <trkpt lat="40.170017" lon="-5.103883">
        <ele>1433.0</ele>
        <time>2013-06-30T13:04:23Z</time>
      </trkpt>
      <trkpt lat="40.169967" lon="-5.104033">
        <ele>1434.0</ele>
        <time>2013-06-30T13:04:24Z</time>
      </trkpt>
      <trkpt lat="40.169900" lon="-5.104133">
        <ele>1436.0</ele>
        <time>2013-06-30T13:04:25Z</time>
      </trkpt>
      <trkpt lat="40.169833" lon="-5.104217">
        <ele>1438.0</ele>
        <time>2013-06-30T13:04:26Z</time>
      </trkpt>
      <trkpt lat="40.169767" lon="-5.104267">
        <ele>1441.0</ele>
        <time>2013-06-30T13:04:27Z</time>
      </trkpt>
      <trkpt lat="40.169700" lon="-5.104283">
        <ele>1443.0</ele>
        <time>2013-06-30T13:04:28Z</time>
      </trkpt>
      <trkpt lat="40.169650" lon="-5.104267">
        <ele>1445.0</ele>
        <time>2013-06-30T13:04:29Z</time>
      </trkpt>
      <trkpt lat="40.169600" lon="-5.104250">
        <ele>1448.0</ele>
        <time>2013-06-30T13:04:30Z</time>
      </trkpt>
      <trkpt lat="40.169567" lon="-5.104200">
        <ele>1451.0</ele>
        <time>2013-06-30T13:04:31Z</time>
      </trkpt>
      <trkpt lat="40.169550" lon="-5.104150">
        <ele>1454.0</ele>
        <time>2013-06-30T13:04:32Z</time>
      </trkpt>
      <trkpt lat="40.169567" lon="-5.104100">
        <ele>1456.0</ele>
        <time>2013-06-30T13:04:33Z</time>
      </trkpt>
      <trkpt lat="40.169583" lon="-5.104017">
        <ele>1458.0</ele>
        <time>2013-06-30T13:04:34Z</time>
      </trkpt>
      <trkpt lat="40.169617" lon="-5.103967">
        <ele>1461.0</ele>
        <time>2013-06-30T13:04:35Z</time>
      </trkpt>
      <trkpt lat="40.169683" lon="-5.103933">
        <ele>1464.0</ele>
        <time>2013-06-30T13:04:36Z</time>
      </trkpt>
      <trkpt lat="40.169750" lon="-5.103967">
        <ele>1466.0</ele>
        <time>2013-06-30T13:04:37Z</time>
      </trkpt>
      <trkpt lat="40.169817" lon="-5.104033">
        <ele>1469.0</ele>
        <time>2013-06-30T13:04:38Z</time>
      </trkpt>
      <trkpt lat="40.169867" lon="-5.104117">
        <ele>1471.0</ele>
        <time>2013-06-30T13:04:39Z</time>
      </trkpt>
      <trkpt lat="40.169900" lon="-5.104233">
        <ele>1474.0</ele>
        <time>2013-06-30T13:04:40Z</time>
      </trkpt>
      <trkpt lat="40.169917" lon="-5.104350">
        <ele>1476.0</ele>
        <time>2013-06-30T13:04:41Z</time>
      </trkpt>
      <trkpt lat="40.169883" lon="-5.104483">
        <ele>1478.0</ele>
        <time>2013-06-30T13:04:42Z</time>
      </trkpt>
      <trkpt lat="40.169850" lon="-5.104617">
        <ele>1480.0</ele>
        <time>2013-06-30T13:04:43Z</time>
      </trkpt>
      <trkpt lat="40.169800" lon="-5.104733">
        <ele>1484.0</ele>
        <time>2013-06-30T13:04:44Z</time>
      </trkpt>
      <trkpt lat="40.169733" lon="-5.104850">
        <ele>1487.0</ele>
        <time>2013-06-30T13:04:45Z</time>
      </trkpt>
      <trkpt lat="40.169667" lon="-5.104933">
        <ele>1490.0</ele>
        <time>2013-06-30T13:04:46Z</time>
      </trkpt>
      <trkpt lat="40.169600" lon="-5.104983">
        <ele>1492.0</ele>
        <time>2013-06-30T13:04:47Z</time>
      </trkpt>
      <trkpt lat="40.169533" lon="-5.105017">
        <ele>1494.0</ele>
        <time>2013-06-30T13:04:48Z</time>
      </trkpt>
      <trkpt lat="40.169450" lon="-5.105033">
        <ele>1496.0</ele>
        <time>2013-06-30T13:04:49Z</time>
      </trkpt>
      <trkpt lat="40.169383" lon="-5.105033">
        <ele>1497.0</ele>
        <time>2013-06-30T13:04:50Z</time>
      </trkpt>
      <trkpt lat="40.169317" lon="-5.105050">
        <ele>1497.0</ele>
        <time>2013-06-30T13:04:51Z</time>
      </trkpt>
      <trkpt lat="40.169250" lon="-5.105050">
        <ele>1498.0</ele>
        <time>2013-06-30T13:04:52Z</time>
      </trkpt>
      <trkpt lat="40.169183" lon="-5.105000">
        <ele>1499.0</ele>
        <time>2013-06-30T13:04:53Z</time>
      </trkpt>
      <trkpt lat="40.169150" lon="-5.104967">
        <ele>1501.0</ele>
        <time>2013-06-30T13:04:54Z</time>
      </trkpt>
      <trkpt lat="40.169117" lon="-5.104917">
        <ele>1505.0</ele>
        <time>2013-06-30T13:04:55Z</time>
      </trkpt>
      <trkpt lat="40.169100" lon="-5.104883">
        <ele>1508.0</ele>
        <time>2013-06-30T13:04:56Z</time>
      </trkpt>
      <trkpt lat="40.169083" lon="-5.104867">
        <ele>1510.0</ele>
        <time>2013-06-30T13:04:57Z</time>
      </trkpt>
      <trkpt lat="40.169067" lon="-5.104850">
        <ele>1512.0</ele>
        <time>2013-06-30T13:04:58Z</time>
      </trkpt>
      <trkpt lat="40.169067" lon="-5.104817">
        <ele>1513.0</ele>
        <time>2013-06-30T13:04:59Z</time>
      </trkpt>
      <trkpt lat="40.169083" lon="-5.104767">
        <ele>1513.0</ele>
        <time>2013-06-30T13:05:00Z</time>
      </trkpt>
      <trkpt lat="40.169100" lon="-5.104717">
        <ele>1516.0</ele>
        <time>2013-06-30T13:05:01Z</time>
      </trkpt>
      <trkpt lat="40.169133" lon="-5.104717">
        <ele>1519.0</ele>
        <time>2013-06-30T13:05:02Z</time>
      </trkpt>
      <trkpt lat="40.169167" lon="-5.104733">
        <ele>1521.0</ele>
        <time>2013-06-30T13:05:03Z</time>
      </trkpt>
      <trkpt lat="40.169217" lon="-5.104767">
        <ele>1521.0</ele>
        <time>2013-06-30T13:05:04Z</time>
      </trkpt>
      <trkpt lat="40.169267" lon="-5.104800">
        <ele>1521.0</ele>
        <time>2013-06-30T13:05:05Z</time>
      </trkpt>
      <trkpt lat="40.169333" lon="-5.104833">
        <ele>1521.0</ele>
        <time>2013-06-30T13:05:06Z</time>
      </trkpt>
      <trkpt lat="40.169417" lon="-5.104867">
        <ele>1523.0</ele>
        <time>2013-06-30T13:05:07Z</time>
      </trkpt>
      <trkpt lat="40.169483" lon="-5.104917">
        <ele>1525.0</ele>
        <time>2013-06-30T13:05:08Z</time>
      </trkpt>
      <trkpt lat="40.169550" lon="-5.104967">
        <ele>1528.0</ele>
        <time>2013-06-30T13:05:09Z</time>
      </trkpt>
      <trkpt lat="40.169600" lon="-5.105033">
        <ele>1531.0</ele>
        <time>2013-06-30T13:05:10Z</time>
      </trkpt>
      <trkpt lat="40.169650" lon="-5.105117">
        <ele>1533.0</ele>
        <time>2013-06-30T13:05:11Z</time>
      </trkpt>
      <trkpt lat="40.169717" lon="-5.105200">
        <ele>1535.0</ele>
        <time>2013-06-30T13:05:12Z</time>
      </trkpt>
      <trkpt lat="40.169767" lon="-5.105300">
        <ele>1537.0</ele>
        <time>2013-06-30T13:05:13Z</time>
      </trkpt>
      <trkpt lat="40.169783" lon="-5.105417">
        <ele>1540.0</ele>
        <time>2013-06-30T13:05:14Z</time>
      </trkpt>
      <trkpt lat="40.169800" lon="-5.105533">
        <ele>1542.0</ele>
        <time>2013-06-30T13:05:15Z</time>
      </trkpt>
      <trkpt lat="40.169783" lon="-5.105650">
        <ele>1544.0</ele>
        <time>2013-06-30T13:05:16Z</time>
      </trkpt>
      <trkpt lat="40.169750" lon="-5.105767">
        <ele>1546.0</ele>
        <time>2013-06-30T13:05:17Z</time>
      </trkpt>
      <trkpt lat="40.169717" lon="-5.105867">
        <ele>1548.0</ele>
        <time>2013-06-30T13:05:18Z</time>
      </trkpt>
      <trkpt lat="40.169667" lon="-5.105967">
        <ele>1551.0</ele>
        <time>2013-06-30T13:05:19Z</time>
      </trkpt>
      <trkpt lat="40.169583" lon="-5.106033">
        <ele>1553.0</ele>
        <time>2013-06-30T13:05:20Z</time>
      </trkpt>
      <trkpt lat="40.169500" lon="-5.106100">
        <ele>1556.0</ele>
        <time>2013-06-30T13:05:21Z</time>
      </trkpt>
      <trkpt lat="40.169417" lon="-5.106133">
        <ele>1560.0</ele>
        <time>2013-06-30T13:05:22Z</time>
      </trkpt>
      <trkpt lat="40.169350" lon="-5.106133">
        <ele>1564.0</ele>
        <time>2013-06-30T13:05:23Z</time>
      </trkpt>
      <trkpt lat="40.169300" lon="-5.106117">
        <ele>1566.0</ele>
        <time>2013-06-30T13:05:24Z</time>
      </trkpt>
      <trkpt lat="40.169250" lon="-5.106100">
        <ele>1568.0</ele>
        <time>2013-06-30T13:05:25Z</time>
      </trkpt>
      <trkpt lat="40.169200" lon="-5.106083">
        <ele>1569.0</ele>
        <time>2013-06-30T13:05:26Z</time>
      </trkpt>
      <trkpt lat="40.169133" lon="-5.106067">
        <ele>1569.0</ele>
        <time>2013-06-30T13:05:27Z</time>
      </trkpt>
      <trkpt lat="40.169083" lon="-5.106017">
        <ele>1570.0</ele>
        <time>2013-06-30T13:05:28Z</time>
      </trkpt>
      <trkpt lat="40.169067" lon="-5.105967">
        <ele>1570.0</ele>
        <time>2013-06-30T13:05:29Z</time>
      </trkpt>
      <trkpt lat="40.169067" lon="-5.105900">
        <ele>1571.0</ele>
        <time>2013-06-30T13:05:30Z</time>
      </trkpt>
      <trkpt lat="40.169100" lon="-5.105850">
        <ele>1573.0</ele>
        <time>2013-06-30T13:05:31Z</time>
      </trkpt>
      <trkpt lat="40.169150" lon="-5.105833">
        <ele>1575.0</ele>
        <time>2013-06-30T13:05:32Z</time>
      </trkpt>
      <trkpt lat="40.169200" lon="-5.105817">
        <ele>1578.0</ele>
        <time>2013-06-30T13:05:33Z</time>
      </trkpt>
      <trkpt lat="40.169250" lon="-5.105817">
        <ele>1580.0</ele>
        <time>2013-06-30T13:05:34Z</time>
      </trkpt>
      <trkpt lat="40.169300" lon="-5.105833">
        <ele>1583.0</ele>
        <time>2013-06-30T13:05:35Z</time>
      </trkpt>
      <trkpt lat="40.169367" lon="-5.105850">
        <ele>1585.0</ele>
        <time>2013-06-30T13:05:36Z</time>
      </trkpt>
      <trkpt lat="40.169433" lon="-5.105900">
        <ele>1588.0</ele>
        <time>2013-06-30T13:05:37Z</time>
      </trkpt>
      <trkpt lat="40.169483" lon="-5.105967">
        <ele>1590.0</ele>
        <time>2013-06-30T13:05:38Z</time>
      </trkpt>
      <trkpt lat="40.169533" lon="-5.106050">
        <ele>1593.0</ele>
        <time>2013-06-30T13:05:39Z</time>
      </trkpt>
      <trkpt lat="40.169550" lon="-5.106150">
        <ele>1596.0</ele>
        <time>2013-06-30T13:05:40Z</time>
      </trkpt>
      <trkpt lat="40.169583" lon="-5.106233">
        <ele>1599.0</ele>
        <time>2013-06-30T13:05:41Z</time>
      </trkpt>
      <trkpt lat="40.169600" lon="-5.106317">
        <ele>1602.0</ele>
        <time>2013-06-30T13:05:42Z</time>
      </trkpt>
      <trkpt lat="40.169617" lon="-5.106417">
        <ele>1604.0</ele>
        <time>2013-06-30T13:05:43Z</time>
      </trkpt>
      <trkpt lat="40.169617" lon="-5.106533">
        <ele>1605.0</ele>
        <time>2013-06-30T13:05:44Z</time>
      </trkpt>
      <trkpt lat="40.169617" lon="-5.106650">
        <ele>1607.0</ele>
        <time>2013-06-30T13:05:45Z</time>
      </trkpt>
      <trkpt lat="40.169600" lon="-5.106783">
        <ele>1609.0</ele>
        <time>2013-06-30T13:05:46Z</time>
      </trkpt>
      <trkpt lat="40.169583" lon="-5.106900">
        <ele>1613.0</ele>
        <time>2013-06-30T13:05:47Z</time>
      </trkpt>
      <trkpt lat="40.169567" lon="-5.107000">
        <ele>1616.0</ele>
        <time>2013-06-30T13:05:48Z</time>
      </trkpt>
      <trkpt lat="40.169517" lon="-5.107100">
        <ele>1619.0</ele>
        <time>2013-06-30T13:05:49Z</time>
      </trkpt>
      <trkpt lat="40.169450" lon="-5.107183">
        <ele>1620.0</ele>
        <time>2013-06-30T13:05:50Z</time>
      </trkpt>
      <trkpt lat="40.169367" lon="-5.107233">
        <ele>1622.0</ele>
        <time>2013-06-30T13:05:51Z</time>
      </trkpt>
      <trkpt lat="40.169283" lon="-5.107267">
        <ele>1623.0</ele>
        <time>2013-06-30T13:05:52Z</time>
      </trkpt>
      <trkpt lat="40.169200" lon="-5.107283">
        <ele>1628.0</ele>
        <time>2013-06-30T13:05:53Z</time>
      </trkpt>
      <trkpt lat="40.169133" lon="-5.107300">
        <ele>1632.0</ele>
        <time>2013-06-30T13:05:54Z</time>
      </trkpt>
      <trkpt lat="40.169083" lon="-5.107317">
        <ele>1634.0</ele>
        <time>2013-06-30T13:05:55Z</time>
      </trkpt>
      <trkpt lat="40.169050" lon="-5.107317">
        <ele>1636.0</ele>
        <time>2013-06-30T13:05:56Z</time>
      </trkpt>
      <trkpt lat="40.169017" lon="-5.107300">
        <ele>1636.0</ele>
        <time>2013-06-30T13:05:57Z</time>
      </trkpt>
      <trkpt lat="40.169000" lon="-5.107267">
        <ele>1636.0</ele>
        <time>2013-06-30T13:05:58Z</time>
      </trkpt>
      <trkpt lat="40.169000" lon="-5.107200">
        <ele>1637.0</ele>
        <time>2013-06-30T13:05:59Z</time>
      </trkpt>
      <trkpt lat="40.169017" lon="-5.107167">
        <ele>1639.0</ele>
        <time>2013-06-30T13:06:00Z</time>
      </trkpt>
      <trkpt lat="40.169050" lon="-5.107150">
        <ele>1642.0</ele>
        <time>2013-06-30T13:06:01Z</time>
      </trkpt>
      <trkpt lat="40.169083" lon="-5.107150">
        <ele>1643.0</ele>
        <time>2013-06-30T13:06:02Z</time>
      </trkpt>
      <trkpt lat="40.169117" lon="-5.107150">
        <ele>1644.0</ele>
        <time>2013-06-30T13:06:03Z</time>
      </trkpt>
      <trkpt lat="40.169167" lon="-5.107150">
        <ele>1645.0</ele>
        <time>2013-06-30T13:06:04Z</time>
      </trkpt>
      <trkpt lat="40.169250" lon="-5.107183">
        <ele>1645.0</ele>
        <time>2013-06-30T13:06:05Z</time>
      </trkpt>
      <trkpt lat="40.169333" lon="-5.107250">
        <ele>1647.0</ele>
        <time>2013-06-30T13:06:06Z</time>
      </trkpt>
      <trkpt lat="40.169383" lon="-5.107350">
        <ele>1650.0</ele>
        <time>2013-06-30T13:06:07Z</time>
      </trkpt>
      <trkpt lat="40.169433" lon="-5.107433">
        <ele>1653.0</ele>
        <time>2013-06-30T13:06:08Z</time>
      </trkpt>
      <trkpt lat="40.169467" lon="-5.107517">
        <ele>1655.0</ele>
        <time>2013-06-30T13:06:09Z</time>
      </trkpt>
      <trkpt lat="40.169500" lon="-5.107600">
        <ele>1657.0</ele>
        <time>2013-06-30T13:06:10Z</time>
      </trkpt>
      <trkpt lat="40.169550" lon="-5.107717">
        <ele>1659.0</ele>
        <time>2013-06-30T13:06:11Z</time>
      </trkpt>
      <trkpt lat="40.169583" lon="-5.107833">
        <ele>1661.0</ele>
        <time>2013-06-30T13:06:12Z</time>
      </trkpt>
      <trkpt lat="40.169600" lon="-5.107967">
        <ele>1664.0</ele>
        <time>2013-06-30T13:06:13Z</time>
      </trkpt>
      <trkpt lat="40.169583" lon="-5.108083">
        <ele>1667.0</ele>
        <time>2013-06-30T13:06:14Z</time>
      </trkpt>
      <trkpt lat="40.169567" lon="-5.108183">
        <ele>1669.0</ele>
        <time>2013-06-30T13:06:15Z</time>
      </trkpt>
      <trkpt lat="40.169567" lon="-5.108283">
        <ele>1670.0</ele>
        <time>2013-06-30T13:06:16Z</time>
      </trkpt>
      <trkpt lat="40.169550" lon="-5.108417">
        <ele>1671.0</ele>
        <time>2013-06-30T13:06:17Z</time>
      </trkpt>
      <trkpt lat="40.169517" lon="-5.108567">
        <ele>1671.0</ele>
        <time>2013-06-30T13:06:18Z</time>
      </trkpt>
      <trkpt lat="40.169467" lon="-5.108700">
        <ele>1672.0</ele>
        <time>2013-06-30T13:06:19Z</time>
      </trkpt>
      <trkpt lat="40.169400" lon="-5.108800">
        <ele>1675.0</ele>
        <time>2013-06-30T13:06:20Z</time>
      </trkpt>
      <trkpt lat="40.169350" lon="-5.108867">
        <ele>1678.0</ele>
        <time>2013-06-30T13:06:21Z</time>
      </trkpt>
      <trkpt lat="40.169317" lon="-5.108933">
        <ele>1680.0</ele>
        <time>2013-06-30T13:06:22Z</time>
      </trkpt>
      <trkpt lat="40.169250" lon="-5.108983">
        <ele>1682.0</ele>
        <time>2013-06-30T13:06:23Z</time>
      </trkpt>
      <trkpt lat="40.169200" lon="-5.109017">
        <ele>1684.0</ele>
        <time>2013-06-30T13:06:24Z</time>
      </trkpt>
      <trkpt lat="40.169150" lon="-5.109050">
        <ele>1686.0</ele>
        <time>2013-06-30T13:06:25Z</time>
      </trkpt>
      <trkpt lat="40.169100" lon="-5.109050">
        <ele>1687.0</ele>
        <time>2013-06-30T13:06:26Z</time>
      </trkpt>
      <trkpt lat="40.169067" lon="-5.109017">
        <ele>1689.0</ele>
        <time>2013-06-30T13:06:27Z</time>
      </trkpt>
      <trkpt lat="40.169067" lon="-5.108983">
        <ele>1691.0</ele>
        <time>2013-06-30T13:06:28Z</time>
      </trkpt>
      <trkpt lat="40.169067" lon="-5.108967">
        <ele>1693.0</ele>
        <time>2013-06-30T13:06:29Z</time>
      </trkpt>
      <trkpt lat="40.169083" lon="-5.108950">
        <ele>1695.0</ele>
        <time>2013-06-30T13:06:30Z</time>
      </trkpt>
      <trkpt lat="40.169100" lon="-5.108933">
        <ele>1697.0</ele>
        <time>2013-06-30T13:06:31Z</time>
      </trkpt>
      <trkpt lat="40.169117" lon="-5.108917">
        <ele>1699.0</ele>
        <time>2013-06-30T13:06:32Z</time>
      </trkpt>
      <trkpt lat="40.169133" lon="-5.108900">
        <ele>1700.0</ele>
        <time>2013-06-30T13:06:33Z</time>
      </trkpt>
      <trkpt lat="40.169167" lon="-5.108900">
        <ele>1701.0</ele>
        <time>2013-06-30T13:06:34Z</time>
      </trkpt>
      <trkpt lat="40.169217" lon="-5.108883">
        <ele>1702.0</ele>
        <time>2013-06-30T13:06:35Z</time>
      </trkpt>
      <trkpt lat="40.169267" lon="-5.108883">
        <ele>1704.0</ele>
        <time>2013-06-30T13:06:36Z</time>
      </trkpt>
      <trkpt lat="40.169317" lon="-5.108867">
        <ele>1707.0</ele>
        <time>2013-06-30T13:06:37Z</time>
      </trkpt>
      <trkpt lat="40.169367" lon="-5.108883">
        <ele>1710.0</ele>
        <time>2013-06-30T13:06:38Z</time>
      </trkpt>
      <trkpt lat="40.169417" lon="-5.108917">
        <ele>1711.0</ele>
        <time>2013-06-30T13:06:39Z</time>
      </trkpt>
      <trkpt lat="40.169483" lon="-5.108967">
        <ele>1713.0</ele>
        <time>2013-06-30T13:06:40Z</time>
      </trkpt>
      <trkpt lat="40.169550" lon="-5.109017">
        <ele>1714.0</ele>
        <time>2013-06-30T13:06:41Z</time>
      </trkpt>
      <trkpt lat="40.169617" lon="-5.109100">
        <ele>1716.0</ele>
        <time>2013-06-30T13:06:42Z</time>
      </trkpt>
      <trkpt lat="40.169667" lon="-5.109200">
        <ele>1719.0</ele>
        <time>2013-06-30T13:06:43Z</time>
      </trkpt>
      <trkpt lat="40.169717" lon="-5.109317">
        <ele>1722.0</ele>
        <time>2013-06-30T13:06:44Z</time>
      </trkpt>
      <trkpt lat="40.169750" lon="-5.109417">
        <ele>1725.0</ele>
        <time>2013-06-30T13:06:45Z</time>
      </trkpt>
      <trkpt lat="40.169783" lon="-5.109517">
        <ele>1728.0</ele>
        <time>2013-06-30T13:06:46Z</time>
      </trkpt>
      <trkpt lat="40.169817" lon="-5.109617">
        <ele>1731.0</ele>
        <time>2013-06-30T13:06:47Z</time>
      </trkpt>
      <trkpt lat="40.169833" lon="-5.109750">
        <ele>1733.0</ele>
        <time>2013-06-30T13:06:48Z</time>
      </trkpt>
      <trkpt lat="40.169833" lon="-5.109883">
        <ele>1735.0</ele>
        <time>2013-06-30T13:06:49Z</time>
      </trkpt>
      <trkpt lat="40.169800" lon="-5.110017">
        <ele>1737.0</ele>
        <time>2013-06-30T13:06:50Z</time>
      </trkpt>
      <trkpt lat="40.169750" lon="-5.110117">
        <ele>1739.0</ele>
        <time>2013-06-30T13:06:51Z</time>
      </trkpt>
      <trkpt lat="40.169683" lon="-5.110200">
        <ele>1742.0</ele>
        <time>2013-06-30T13:06:52Z</time>
      </trkpt>
      <trkpt lat="40.169617" lon="-5.110267">
        <ele>1744.0</ele>
        <time>2013-06-30T13:06:53Z</time>
      </trkpt>
      <trkpt lat="40.169567" lon="-5.110317">
        <ele>1747.0</ele>
        <time>2013-06-30T13:06:54Z</time>
      </trkpt>
      <trkpt lat="40.169500" lon="-5.110350">
        <ele>1750.0</ele>
        <time>2013-06-30T13:06:55Z</time>
      </trkpt>
      <trkpt lat="40.169450" lon="-5.110383">
        <ele>1752.0</ele>
        <time>2013-06-30T13:06:56Z</time>
      </trkpt>
      <trkpt lat="40.169383" lon="-5.110383">
        <ele>1753.0</ele>
        <time>2013-06-30T13:06:57Z</time>
      </trkpt>
      <trkpt lat="40.169350" lon="-5.110367">
        <ele>1754.0</ele>
        <time>2013-06-30T13:06:58Z</time>
      </trkpt>
      <trkpt lat="40.169317" lon="-5.110333">
        <ele>1756.0</ele>
        <time>2013-06-30T13:06:59Z</time>
      </trkpt>
      <trkpt lat="40.169317" lon="-5.110300">
        <ele>1759.0</ele>
        <time>2013-06-30T13:07:00Z</time>
      </trkpt>
      <trkpt lat="40.169317" lon="-5.110283">
        <ele>1761.0</ele>
        <time>2013-06-30T13:07:01Z</time>
      </trkpt>
      <trkpt lat="40.169350" lon="-5.110267">
        <ele>1763.0</ele>
        <time>2013-06-30T13:07:02Z</time>
      </trkpt>
      <trkpt lat="40.169400" lon="-5.110267">
        <ele>1764.0</ele>
        <time>2013-06-30T13:07:03Z</time>
      </trkpt>
      <trkpt lat="40.169433" lon="-5.110250">
        <ele>1765.0</ele>
        <time>2013-06-30T13:07:04Z</time>
      </trkpt>
      <trkpt lat="40.169483" lon="-5.110250">
        <ele>1767.0</ele>
        <time>2013-06-30T13:07:05Z</time>
      </trkpt>
      <trkpt lat="40.169567" lon="-5.110267">
        <ele>1769.0</ele>
        <time>2013-06-30T13:07:06Z</time>
      </trkpt>
      <trkpt lat="40.169650" lon="-5.110317">
        <ele>1771.0</ele>
        <time>2013-06-30T13:07:07Z</time>
      </trkpt>
      <trkpt lat="40.169733" lon="-5.110367">
        <ele>1773.0</ele>
        <time>2013-06-30T13:07:08Z</time>
      </trkpt>
      <trkpt lat="40.169817" lon="-5.110417">
        <ele>1777.0</ele>
        <time>2013-06-30T13:07:09Z</time>
      </trkpt>
      <trkpt lat="40.169850" lon="-5.110500">
        <ele>1780.0</ele>
        <time>2013-06-30T13:07:10Z</time>
      </trkpt>
      <trkpt lat="40.169900" lon="-5.110583">
        <ele>1782.0</ele>
        <time>2013-06-30T13:07:11Z</time>
      </trkpt>
      <trkpt lat="40.169933" lon="-5.110700">
        <ele>1783.0</ele>
        <time>2013-06-30T13:07:12Z</time>
      </trkpt>
      <trkpt lat="40.169967" lon="-5.110817">
        <ele>1784.0</ele>
        <time>2013-06-30T13:07:13Z</time>
      </trkpt>
      <trkpt lat="40.170000" lon="-5.110950">
        <ele>1786.0</ele>
        <time>2013-06-30T13:07:14Z</time>
      </trkpt>
      <trkpt lat="40.170017" lon="-5.111083">
        <ele>1788.0</ele>
        <time>2013-06-30T13:07:15Z</time>
      </trkpt>
      <trkpt lat="40.170000" lon="-5.111200">
        <ele>1789.0</ele>
        <time>2013-06-30T13:07:16Z</time>
      </trkpt>
      <trkpt lat="40.169983" lon="-5.111300">
        <ele>1791.0</ele>
        <time>2013-06-30T13:07:17Z</time>
      </trkpt>
      <trkpt lat="40.169967" lon="-5.111417">
        <ele>1791.0</ele>
        <time>2013-06-30T13:07:18Z</time>
      </trkpt>
      <trkpt lat="40.169950" lon="-5.111533">
        <ele>1790.0</ele>
        <time>2013-06-30T13:07:19Z</time>
      </trkpt>
      <trkpt lat="40.169917" lon="-5.111633">
        <ele>1790.0</ele>
        <time>2013-06-30T13:07:20Z</time>
      </trkpt>
      <trkpt lat="40.169850" lon="-5.111733">
        <ele>1788.0</ele>
        <time>2013-06-30T13:07:21Z</time>
      </trkpt>
      <trkpt lat="40.169767" lon="-5.111800">
        <ele>1786.0</ele>
        <time>2013-06-30T13:07:22Z</time>
      </trkpt>
      <trkpt lat="40.169683" lon="-5.111817">
        <ele>1785.0</ele>
        <time>2013-06-30T13:07:23Z</time>
      </trkpt>
      <trkpt lat="40.169583" lon="-5.111800">
        <ele>1784.0</ele>
        <time>2013-06-30T13:07:24Z</time>
      </trkpt>
      <trkpt lat="40.169500" lon="-5.111750">
        <ele>1786.0</ele>
        <time>2013-06-30T13:07:25Z</time>
      </trkpt>
      <trkpt lat="40.169417" lon="-5.111733">
        <ele>1792.0</ele>
        <time>2013-06-30T13:07:26Z</time>
      </trkpt>
      <trkpt lat="40.169367" lon="-5.111717">
        <ele>1796.0</ele>
        <time>2013-06-30T13:07:27Z</time>
      </trkpt>
      <trkpt lat="40.169333" lon="-5.111717">
        <ele>1799.0</ele>
        <time>2013-06-30T13:07:28Z</time>
      </trkpt>
      <trkpt lat="40.169317" lon="-5.111733">
        <ele>1801.0</ele>
        <time>2013-06-30T13:07:29Z</time>
      </trkpt>
      <trkpt lat="40.169300" lon="-5.111733">
        <ele>1803.0</ele>
        <time>2013-06-30T13:07:30Z</time>
      </trkpt>
      <trkpt lat="40.169267" lon="-5.111717">
        <ele>1802.0</ele>
        <time>2013-06-30T13:07:31Z</time>
      </trkpt>
      <trkpt lat="40.169250" lon="-5.111667">
        <ele>1802.0</ele>
        <time>2013-06-30T13:07:32Z</time>
      </trkpt>
      <trkpt lat="40.169250" lon="-5.111617">
        <ele>1803.0</ele>
        <time>2013-06-30T13:07:33Z</time>
      </trkpt>
      <trkpt lat="40.169267" lon="-5.111567">
        <ele>1805.0</ele>
        <time>2013-06-30T13:07:34Z</time>
      </trkpt>
      <trkpt lat="40.169300" lon="-5.111533">
        <ele>1806.0</ele>
        <time>2013-06-30T13:07:35Z</time>
      </trkpt>
      <trkpt lat="40.169317" lon="-5.111500">
        <ele>1808.0</ele>
        <time>2013-06-30T13:07:36Z</time>
      </trkpt>
      <trkpt lat="40.169350" lon="-5.111467">
        <ele>1810.0</ele>
        <time>2013-06-30T13:07:37Z</time>
      </trkpt>
      <trkpt lat="40.169400" lon="-5.111450">
        <ele>1811.0</ele>
        <time>2013-06-30T13:07:38Z</time>
      </trkpt>
      <trkpt lat="40.169467" lon="-5.111433">
        <ele>1813.0</ele>
        <time>2013-06-30T13:07:39Z</time>
      </trkpt>
      <trkpt lat="40.169550" lon="-5.111433">
        <ele>1815.0</ele>
        <time>2013-06-30T13:07:40Z</time>
      </trkpt>
      <trkpt lat="40.169617" lon="-5.111467">
        <ele>1817.0</ele>
        <time>2013-06-30T13:07:41Z</time>
      </trkpt>
      <trkpt lat="40.169683" lon="-5.111500">
        <ele>1818.0</ele>
        <time>2013-06-30T13:07:42Z</time>
      </trkpt>
      <trkpt lat="40.169733" lon="-5.111533">
        <ele>1820.0</ele>
        <time>2013-06-30T13:07:43Z</time>
      </trkpt>
      <trkpt lat="40.169800" lon="-5.111583">
        <ele>1820.0</ele>
        <time>2013-06-30T13:07:44Z</time>
      </trkpt>
      <trkpt lat="40.169867" lon="-5.111600">
        <ele>1819.0</ele>
        <time>2013-06-30T13:07:45Z</time>
      </trkpt>
      <trkpt lat="40.169950" lon="-5.111633">
        <ele>1818.0</ele>
        <time>2013-06-30T13:07:46Z</time>
      </trkpt>
      <trkpt lat="40.170050" lon="-5.111700">
        <ele>1817.0</ele>
        <time>2013-06-30T13:07:47Z</time>
      </trkpt>
      <trkpt lat="40.170133" lon="-5.111783">
        <ele>1818.0</ele>
        <time>2013-06-30T13:07:48Z</time>
      </trkpt>
      <trkpt lat="40.170200" lon="-5.111900">
        <ele>1819.0</ele>
        <time>2013-06-30T13:07:49Z</time>
      </trkpt>
      <trkpt lat="40.170233" lon="-5.112017">
        <ele>1821.0</ele>
        <time>2013-06-30T13:07:50Z</time>
      </trkpt>
      <trkpt lat="40.170250" lon="-5.112100">
        <ele>1823.0</ele>
        <time>2013-06-30T13:07:51Z</time>
      </trkpt>
      <trkpt lat="40.170267" lon="-5.112167">
        <ele>1824.0</ele>
        <time>2013-06-30T13:07:52Z</time>
      </trkpt>
      <trkpt lat="40.170283" lon="-5.112250">
        <ele>1824.0</ele>
        <time>2013-06-30T13:07:53Z</time>
      </trkpt>
      <trkpt lat="40.170317" lon="-5.112350">
        <ele>1822.0</ele>
        <time>2013-06-30T13:07:54Z</time>
      </trkpt>
      <trkpt lat="40.170333" lon="-5.112483">
        <ele>1821.0</ele>
        <time>2013-06-30T13:07:55Z</time>
      </trkpt>
      <trkpt lat="40.170317" lon="-5.112617">
        <ele>1820.0</ele>
        <time>2013-06-30T13:07:56Z</time>
      </trkpt>
      <trkpt lat="40.170283" lon="-5.112733">
        <ele>1820.0</ele>
        <time>2013-06-30T13:07:57Z</time>
      </trkpt>
      <trkpt lat="40.170233" lon="-5.112833">
        <ele>1820.0</ele>
        <time>2013-06-30T13:07:58Z</time>
      </trkpt>
      <trkpt lat="40.170183" lon="-5.112900">
        <ele>1819.0</ele>
        <time>2013-06-30T13:07:59Z</time>
      </trkpt>
      <trkpt lat="40.170117" lon="-5.112950">
        <ele>1819.0</ele>
        <time>2013-06-30T13:08:00Z</time>
      </trkpt>
      <trkpt lat="40.170033" lon="-5.113000">
        <ele>1818.0</ele>
        <time>2013-06-30T13:08:01Z</time>
      </trkpt>
      <trkpt lat="40.169950" lon="-5.113017">
        <ele>1817.0</ele>
        <time>2013-06-30T13:08:02Z</time>
      </trkpt>
      <trkpt lat="40.169867" lon="-5.113017">
        <ele>1817.0</ele>
        <time>2013-06-30T13:08:03Z</time>
      </trkpt>
      <trkpt lat="40.169800" lon="-5.113000">
        <ele>1816.0</ele>
        <time>2013-06-30T13:08:04Z</time>
      </trkpt>
      <trkpt lat="40.169717" lon="-5.112950">
        <ele>1817.0</ele>
        <time>2013-06-30T13:08:05Z</time>
      </trkpt>
      <trkpt lat="40.169650" lon="-5.112917">
        <ele>1817.0</ele>
        <time>2013-06-30T13:08:06Z</time>
      </trkpt>
      <trkpt lat="40.169583" lon="-5.112867">
        <ele>1819.0</ele>
        <time>2013-06-30T13:08:07Z</time>
      </trkpt>
      <trkpt lat="40.169533" lon="-5.112833">
        <ele>1820.0</ele>
        <time>2013-06-30T13:08:08Z</time>
      </trkpt>
      <trkpt lat="40.169483" lon="-5.112817">
        <ele>1822.0</ele>
        <time>2013-06-30T13:08:09Z</time>
      </trkpt>
      <trkpt lat="40.169417" lon="-5.112800">
        <ele>1824.0</ele>
        <time>2013-06-30T13:08:10Z</time>
      </trkpt>
      <trkpt lat="40.169383" lon="-5.112783">
        <ele>1826.0</ele>
        <time>2013-06-30T13:08:11Z</time>
      </trkpt>
      <trkpt lat="40.169350" lon="-5.112750">
        <ele>1828.0</ele>
        <time>2013-06-30T13:08:12Z</time>
      </trkpt>
      <trkpt lat="40.169317" lon="-5.112733">
        <ele>1830.0</ele>
        <time>2013-06-30T13:08:13Z</time>
      </trkpt>
      <trkpt lat="40.169283" lon="-5.112700">
        <ele>1831.0</ele>
        <time>2013-06-30T13:08:14Z</time>
      </trkpt>
      <trkpt lat="40.169267" lon="-5.112667">
        <ele>1832.0</ele>
        <time>2013-06-30T13:08:15Z</time>
      </trkpt>
      <trkpt lat="40.169233" lon="-5.112633">
        <ele>1834.0</ele>
        <time>2013-06-30T13:08:16Z</time>
      </trkpt>
      <trkpt lat="40.169233" lon="-5.112600">
        <ele>1836.0</ele>
        <time>2013-06-30T13:08:17Z</time>
      </trkpt>
      <trkpt lat="40.169233" lon="-5.112567">
        <ele>1837.0</ele>
        <time>2013-06-30T13:08:18Z</time>
      </trkpt>
      <trkpt lat="40.169217" lon="-5.112533">
        <ele>1838.0</ele>
        <time>2013-06-30T13:08:19Z</time>
      </trkpt>
      <trkpt lat="40.169200" lon="-5.112500">
        <ele>1839.0</ele>
        <time>2013-06-30T13:08:20Z</time>
      </trkpt>
      <trkpt lat="40.169183" lon="-5.112450">
        <ele>1840.0</ele>
        <time>2013-06-30T13:08:21Z</time>
      </trkpt>
      <trkpt lat="40.169167" lon="-5.112400">
        <ele>1841.0</ele>
        <time>2013-06-30T13:08:22Z</time>
      </trkpt>
      <trkpt lat="40.169167" lon="-5.112333">
        <ele>1843.0</ele>
        <time>2013-06-30T13:08:23Z</time>
      </trkpt>
      <trkpt lat="40.169183" lon="-5.112267">
        <ele>1845.0</ele>
        <time>2013-06-30T13:08:24Z</time>
      </trkpt>
      <trkpt lat="40.169183" lon="-5.112200">
        <ele>1847.0</ele>
        <time>2013-06-30T13:08:25Z</time>
      </trkpt>
      <trkpt lat="40.169167" lon="-5.112150">
        <ele>1848.0</ele>
        <time>2013-06-30T13:08:26Z</time>
      </trkpt>
      <trkpt lat="40.169150" lon="-5.112117">
        <ele>1850.0</ele>
        <time>2013-06-30T13:08:27Z</time>
      </trkpt>
      <trkpt lat="40.169117" lon="-5.112067">
        <ele>1852.0</ele>
        <time>2013-06-30T13:08:28Z</time>
      </trkpt>
      <trkpt lat="40.169083" lon="-5.112017">
        <ele>1854.0</ele>
        <time>2013-06-30T13:08:29Z</time>
      </trkpt>
      <trkpt lat="40.169050" lon="-5.111950">
        <ele>1857.0</ele>
        <time>2013-06-30T13:08:30Z</time>
      </trkpt>
      <trkpt lat="40.169033" lon="-5.111917">
        <ele>1861.0</ele>
        <time>2013-06-30T13:08:31Z</time>
      </trkpt>
      <trkpt lat="40.169033" lon="-5.111867">
        <ele>1864.0</ele>
        <time>2013-06-30T13:08:32Z</time>
      </trkpt>
      <trkpt lat="40.169033" lon="-5.111833">
        <ele>1867.0</ele>
        <time>2013-06-30T13:08:33Z</time>
      </trkpt>
      <trkpt lat="40.169050" lon="-5.111783">
        <ele>1871.0</ele>
        <time>2013-06-30T13:08:34Z</time>
      </trkpt>
      <trkpt lat="40.169067" lon="-5.111733">
        <ele>1874.0</ele>
        <time>2013-06-30T13:08:35Z</time>
      </trkpt>
      <trkpt lat="40.169083" lon="-5.111683">
        <ele>1878.0</ele>
        <time>2013-06-30T13:08:36Z</time>
      </trkpt>
      <trkpt lat="40.169117" lon="-5.111650">
        <ele>1882.0</ele>
        <time>2013-06-30T13:08:37Z</time>
      </trkpt>
      <trkpt lat="40.169133" lon="-5.111633">
        <ele>1885.0</ele>
        <time>2013-06-30T13:08:38Z</time>
      </trkpt>
      <trkpt lat="40.169167" lon="-5.111617">
        <ele>1887.0</ele>
        <time>2013-06-30T13:08:39Z</time>
      </trkpt>
      <trkpt lat="40.169217" lon="-5.111583">
        <ele>1888.0</ele>
        <time>2013-06-30T13:08:40Z</time>
      </trkpt>
      <trkpt lat="40.169283" lon="-5.111567">
        <ele>1891.0</ele>
        <time>2013-06-30T13:08:41Z</time>
      </trkpt>
      <trkpt lat="40.169350" lon="-5.111583">
        <ele>1893.0</ele>
        <time>2013-06-30T13:08:42Z</time>
      </trkpt>
      <trkpt lat="40.169433" lon="-5.111633">
        <ele>1895.0</ele>
        <time>2013-06-30T13:08:43Z</time>
      </trkpt>
      <trkpt lat="40.169500" lon="-5.111733">
        <ele>1897.0</ele>
        <time>2013-06-30T13:08:44Z</time>
      </trkpt>
      <trkpt lat="40.169550" lon="-5.111850">
        <ele>1899.0</ele>
        <time>2013-06-30T13:08:45Z</time>
      </trkpt>
      <trkpt lat="40.169600" lon="-5.111967">
        <ele>1901.0</ele>
        <time>2013-06-30T13:08:46Z</time>
      </trkpt>
      <trkpt lat="40.169617" lon="-5.112100">
        <ele>1903.0</ele>
        <time>2013-06-30T13:08:47Z</time>
      </trkpt>
      <trkpt lat="40.169633" lon="-5.112250">
        <ele>1905.0</ele>
        <time>2013-06-30T13:08:48Z</time>
      </trkpt>
      <trkpt lat="40.169633" lon="-5.112400">
        <ele>1908.0</ele>
        <time>2013-06-30T13:08:49Z</time>
      </trkpt>
      <trkpt lat="40.169617" lon="-5.112550">
        <ele>1912.0</ele>
        <time>2013-06-30T13:08:50Z</time>
      </trkpt>
      <trkpt lat="40.169583" lon="-5.112650">
        <ele>1915.0</ele>
        <time>2013-06-30T13:08:51Z</time>
      </trkpt>
      <trkpt lat="40.169550" lon="-5.112750">
        <ele>1918.0</ele>
        <time>2013-06-30T13:08:52Z</time>
      </trkpt>
      <trkpt lat="40.169500" lon="-5.112817">
        <ele>1921.0</ele>
        <time>2013-06-30T13:08:53Z</time>
      </trkpt>
      <trkpt lat="40.169450" lon="-5.112867">
        <ele>1923.0</ele>
        <time>2013-06-30T13:08:54Z</time>
      </trkpt>
      <trkpt lat="40.169383" lon="-5.112917">
        <ele>1926.0</ele>
        <time>2013-06-30T13:08:55Z</time>
      </trkpt>
      <trkpt lat="40.169333" lon="-5.112933">
        <ele>1928.0</ele>
        <time>2013-06-30T13:08:56Z</time>
      </trkpt>
      <trkpt lat="40.169283" lon="-5.112900">
        <ele>1930.0</ele>
        <time>2013-06-30T13:08:57Z</time>
      </trkpt>
      <trkpt lat="40.169267" lon="-5.112850">
        <ele>1933.0</ele>
        <time>2013-06-30T13:08:58Z</time>
      </trkpt>
      <trkpt lat="40.169283" lon="-5.112783">
        <ele>1935.0</ele>
        <time>2013-06-30T13:08:59Z</time>
      </trkpt>
      <trkpt lat="40.169333" lon="-5.112733">
        <ele>1938.0</ele>
        <time>2013-06-30T13:09:00Z</time>
      </trkpt>
      <trkpt lat="40.169383" lon="-5.112733">
        <ele>1941.0</ele>
        <time>2013-06-30T13:09:01Z</time>
      </trkpt>
      <trkpt lat="40.169450" lon="-5.112750">
        <ele>1944.0</ele>
        <time>2013-06-30T13:09:02Z</time>
      </trkpt>
      <trkpt lat="40.169533" lon="-5.112783">
        <ele>1946.0</ele>
        <time>2013-06-30T13:09:03Z</time>
      </trkpt>
      <trkpt lat="40.169617" lon="-5.112833">
        <ele>1948.0</ele>
        <time>2013-06-30T13:09:04Z</time>
      </trkpt>
      <trkpt lat="40.169700" lon="-5.112917">
        <ele>1950.0</ele>
        <time>2013-06-30T13:09:05Z</time>
      </trkpt>
      <trkpt lat="40.169767" lon="-5.113067">
        <ele>1952.0</ele>
        <time>2013-06-30T13:09:06Z</time>
      </trkpt>
      <trkpt lat="40.169800" lon="-5.113217">
        <ele>1955.0</ele>
        <time>2013-06-30T13:09:07Z</time>
      </trkpt>
      <trkpt lat="40.169800" lon="-5.113367">
        <ele>1958.0</ele>
        <time>2013-06-30T13:09:08Z</time>
      </trkpt>
      <trkpt lat="40.169783" lon="-5.113500">
        <ele>1962.0</ele>
        <time>2013-06-30T13:09:09Z</time>
      </trkpt>
      <trkpt lat="40.169767" lon="-5.113617">
        <ele>1965.0</ele>
        <time>2013-06-30T13:09:10Z</time>
      </trkpt>
      <trkpt lat="40.169733" lon="-5.113717">
        <ele>1968.0</ele>
        <time>2013-06-30T13:09:11Z</time>
      </trkpt>
      <trkpt lat="40.169700" lon="-5.113833">
        <ele>1971.0</ele>
        <time>2013-06-30T13:09:12Z</time>
      </trkpt>
      <trkpt lat="40.169667" lon="-5.113950">
        <ele>1974.0</ele>
        <time>2013-06-30T13:09:13Z</time>
      </trkpt>
      <trkpt lat="40.169600" lon="-5.114033">
        <ele>1976.0</ele>
        <time>2013-06-30T13:09:14Z</time>
      </trkpt>
      <trkpt lat="40.169533" lon="-5.114067">
        <ele>1976.0</ele>
        <time>2013-06-30T13:09:15Z</time>
      </trkpt>
      <trkpt lat="40.169467" lon="-5.114067">
        <ele>1977.0</ele>
        <time>2013-06-30T13:09:16Z</time>
      </trkpt>
      <trkpt lat="40.169417" lon="-5.114017">
        <ele>1979.0</ele>
        <time>2013-06-30T13:09:17Z</time>
      </trkpt>
      <trkpt lat="40.169383" lon="-5.113950">
        <ele>1982.0</ele>
        <time>2013-06-30T13:09:18Z</time>
      </trkpt>
      <trkpt lat="40.169383" lon="-5.113900">
        <ele>1987.0</ele>
        <time>2013-06-30T13:09:19Z</time>
      </trkpt>
      <trkpt lat="40.169383" lon="-5.113883">
        <ele>1990.0</ele>
        <time>2013-06-30T13:09:20Z</time>
      </trkpt>
      <trkpt lat="40.169417" lon="-5.113850">
        <ele>1993.0</ele>
        <time>2013-06-30T13:09:21Z</time>
      </trkpt>
      <trkpt lat="40.169433" lon="-5.113817">
        <ele>1995.0</ele>
        <time>2013-06-30T13:09:22Z</time>
      </trkpt>
      <trkpt lat="40.169467" lon="-5.113783">
        <ele>1997.0</ele>
        <time>2013-06-30T13:09:23Z</time>
      </trkpt>
      <trkpt lat="40.169517" lon="-5.113767">
        <ele>1999.0</ele>
        <time>2013-06-30T13:09:24Z</time>
      </trkpt>
      <trkpt lat="40.169583" lon="-5.113767">
        <ele>2001.0</ele>
        <time>2013-06-30T13:09:25Z</time>
      </trkpt>
      <trkpt lat="40.169667" lon="-5.113783">
        <ele>2003.0</ele>
        <time>2013-06-30T13:09:26Z</time>
      </trkpt>
      <trkpt lat="40.169767" lon="-5.113850">
        <ele>2005.0</ele>
        <time>2013-06-30T13:09:27Z</time>
      </trkpt>
      <trkpt lat="40.169833" lon="-5.113933">
        <ele>2007.0</ele>
        <time>2013-06-30T13:09:28Z</time>
      </trkpt>
      <trkpt lat="40.169900" lon="-5.114050">
        <ele>2008.0</ele>
        <time>2013-06-30T13:09:29Z</time>
      </trkpt>
      <trkpt lat="40.169950" lon="-5.114183">
        <ele>2009.0</ele>
        <time>2013-06-30T13:09:30Z</time>
      </trkpt>
      <trkpt lat="40.169983" lon="-5.114350">
        <ele>2011.0</ele>
        <time>2013-06-30T13:09:31Z</time>
      </trkpt>
      <trkpt lat="40.169967" lon="-5.114500">
        <ele>2012.0</ele>
        <time>2013-06-30T13:09:32Z</time>
      </trkpt>
      <trkpt lat="40.169933" lon="-5.114633">
        <ele>2014.0</ele>
        <time>2013-06-30T13:09:33Z</time>
      </trkpt>
      <trkpt lat="40.169883" lon="-5.114733">
        <ele>2015.0</ele>
        <time>2013-06-30T13:09:34Z</time>
      </trkpt>
      <trkpt lat="40.169833" lon="-5.114817">
        <ele>2016.0</ele>
        <time>2013-06-30T13:09:35Z</time>
      </trkpt>
      <trkpt lat="40.169783" lon="-5.114850">
        <ele>2017.0</ele>
        <time>2013-06-30T13:09:36Z</time>
      </trkpt>
      <trkpt lat="40.169717" lon="-5.114883">
        <ele>2017.0</ele>
        <time>2013-06-30T13:09:37Z</time>
      </trkpt>
      <trkpt lat="40.169650" lon="-5.114883">
        <ele>2017.0</ele>
        <time>2013-06-30T13:09:38Z</time>
      </trkpt>
      <trkpt lat="40.169600" lon="-5.114850">
        <ele>2018.0</ele>
        <time>2013-06-30T13:09:39Z</time>
      </trkpt>
      <trkpt lat="40.169567" lon="-5.114800">
        <ele>2020.0</ele>
        <time>2013-06-30T13:09:40Z</time>
      </trkpt>
      <trkpt lat="40.169550" lon="-5.114767">
        <ele>2022.0</ele>
        <time>2013-06-30T13:09:41Z</time>
      </trkpt>
      <trkpt lat="40.169533" lon="-5.114750">
        <ele>2023.0</ele>
        <time>2013-06-30T13:09:42Z</time>
      </trkpt>
      <trkpt lat="40.169517" lon="-5.114717">
        <ele>2024.0</ele>
        <time>2013-06-30T13:09:43Z</time>
      </trkpt>
      <trkpt lat="40.169517" lon="-5.114667">
        <ele>2025.0</ele>
        <time>2013-06-30T13:09:44Z</time>
      </trkpt>
      <trkpt lat="40.169500" lon="-5.114583">
        <ele>2026.0</ele>
        <time>2013-06-30T13:09:45Z</time>
      </trkpt>
      <trkpt lat="40.169483" lon="-5.114517">
        <ele>2028.0</ele>
        <time>2013-06-30T13:09:46Z</time>
      </trkpt>
      <trkpt lat="40.169500" lon="-5.114450">
        <ele>2031.0</ele>
        <time>2013-06-30T13:09:47Z</time>
      </trkpt>
      <trkpt lat="40.169500" lon="-5.114400">
        <ele>2035.0</ele>
        <time>2013-06-30T13:09:48Z</time>
      </trkpt>
      <trkpt lat="40.169517" lon="-5.114350">
        <ele>2038.0</ele>
        <time>2013-06-30T13:09:49Z</time>
      </trkpt>
      <trkpt lat="40.169533" lon="-5.114300">
        <ele>2040.0</ele>
        <time>2013-06-30T13:09:50Z</time>
      </trkpt>
      <trkpt lat="40.169567" lon="-5.114233">
        <ele>2040.0</ele>
        <time>2013-06-30T13:09:51Z</time>
      </trkpt>
      <trkpt lat="40.169617" lon="-5.114167">
        <ele>2041.0</ele>
        <time>2013-06-30T13:09:52Z</time>
      </trkpt>
      <trkpt lat="40.169683" lon="-5.114100">
        <ele>2044.0</ele>
        <time>2013-06-30T13:09:53Z</time>
      </trkpt>
      <trkpt lat="40.169750" lon="-5.114067">
        <ele>2047.0</ele>
        <time>2013-06-30T13:09:54Z</time>
      </trkpt>
      <trkpt lat="40.169833" lon="-5.114083">
        <ele>2050.0</ele>
        <time>2013-06-30T13:09:55Z</time>
      </trkpt>
      <trkpt lat="40.169917" lon="-5.114117">
        <ele>2053.0</ele>
        <time>2013-06-30T13:09:56Z</time>
      </trkpt>
      <trkpt lat="40.170017" lon="-5.114167">
        <ele>2056.0</ele>
        <time>2013-06-30T13:09:57Z</time>
      </trkpt>
      <trkpt lat="40.170100" lon="-5.114217">
        <ele>2059.0</ele>
        <time>2013-06-30T13:09:58Z</time>
      </trkpt>
      <trkpt lat="40.170183" lon="-5.114300">
        <ele>2062.0</ele>
        <time>2013-06-30T13:09:59Z</time>
      </trkpt>
      <trkpt lat="40.170267" lon="-5.114400">
        <ele>2065.0</ele>
        <time>2013-06-30T13:10:00Z</time>
      </trkpt>
      <trkpt lat="40.170317" lon="-5.114533">
        <ele>2067.0</ele>
        <time>2013-06-30T13:10:01Z</time>
      </trkpt>
      <trkpt lat="40.170350" lon="-5.114667">
        <ele>2069.0</ele>
        <time>2013-06-30T13:10:02Z</time>
      </trkpt>
      <trkpt lat="40.170367" lon="-5.114817">
        <ele>2072.0</ele>
        <time>2013-06-30T13:10:03Z</time>
      </trkpt>
      <trkpt lat="40.170350" lon="-5.114950">
        <ele>2076.0</ele>
        <time>2013-06-30T13:10:04Z</time>
      </trkpt>
      <trkpt lat="40.170317" lon="-5.115033">
        <ele>2079.0</ele>
        <time>2013-06-30T13:10:05Z</time>
      </trkpt>
      <trkpt lat="40.170267" lon="-5.115100">
        <ele>2081.0</ele>
        <time>2013-06-30T13:10:06Z</time>
      </trkpt>
      <trkpt lat="40.170200" lon="-5.115117">
        <ele>2083.0</ele>
        <time>2013-06-30T13:10:07Z</time>
      </trkpt>
      <trkpt lat="40.170150" lon="-5.115117">
        <ele>2085.0</ele>
        <time>2013-06-30T13:10:08Z</time>
      </trkpt>
      <trkpt lat="40.170100" lon="-5.115067">
        <ele>2087.0</ele>
        <time>2013-06-30T13:10:09Z</time>
      </trkpt>
      <trkpt lat="40.170100" lon="-5.114983">
        <ele>2089.0</ele>
        <time>2013-06-30T13:10:10Z</time>
      </trkpt>
      <trkpt lat="40.170117" lon="-5.114917">
        <ele>2092.0</ele>
        <time>2013-06-30T13:10:11Z</time>
      </trkpt>
      <trkpt lat="40.170167" lon="-5.114867">
        <ele>2094.0</ele>
        <time>2013-06-30T13:10:12Z</time>
      </trkpt>
      <trkpt lat="40.170217" lon="-5.114833">
        <ele>2097.0</ele>
        <time>2013-06-30T13:10:13Z</time>
      </trkpt>
      <trkpt lat="40.170267" lon="-5.114800">
        <ele>2099.0</ele>
        <time>2013-06-30T13:10:14Z</time>
      </trkpt>
      <trkpt lat="40.170333" lon="-5.114767">
        <ele>2101.0</ele>
        <time>2013-06-30T13:10:15Z</time>
      </trkpt>
      <trkpt lat="40.170417" lon="-5.114750">
        <ele>2103.0</ele>
        <time>2013-06-30T13:10:16Z</time>
      </trkpt>
      <trkpt lat="40.170517" lon="-5.114750">
        <ele>2106.0</ele>
        <time>2013-06-30T13:10:17Z</time>
      </trkpt>
      <trkpt lat="40.170600" lon="-5.114783">
        <ele>2108.0</ele>
        <time>2013-06-30T13:10:18Z</time>
      </trkpt>
      <trkpt lat="40.170700" lon="-5.114850">
        <ele>2109.0</ele>
        <time>2013-06-30T13:10:19Z</time>
      </trkpt>
      <trkpt lat="40.170783" lon="-5.114950">
        <ele>2111.0</ele>
        <time>2013-06-30T13:10:20Z</time>
      </trkpt>
      <trkpt lat="40.170850" lon="-5.115050">
        <ele>2114.0</ele>
        <time>2013-06-30T13:10:21Z</time>
      </trkpt>
      <trkpt lat="40.170883" lon="-5.115167">
        <ele>2117.0</ele>
        <time>2013-06-30T13:10:22Z</time>
      </trkpt>
      <trkpt lat="40.170917" lon="-5.115283">
        <ele>2119.0</ele>
        <time>2013-06-30T13:10:23Z</time>
      </trkpt>
      <trkpt lat="40.170917" lon="-5.115400">
        <ele>2121.0</ele>
        <time>2013-06-30T13:10:24Z</time>
      </trkpt>
      <trkpt lat="40.170917" lon="-5.115517">
        <ele>2123.0</ele>
        <time>2013-06-30T13:10:25Z</time>
      </trkpt>
      <trkpt lat="40.170900" lon="-5.115633">
        <ele>2125.0</ele>
        <time>2013-06-30T13:10:26Z</time>
      </trkpt>
      <trkpt lat="40.170867" lon="-5.115733">
        <ele>2127.0</ele>
        <time>2013-06-30T13:10:27Z</time>
      </trkpt>
      <trkpt lat="40.170833" lon="-5.115817">
        <ele>2129.0</ele>
        <time>2013-06-30T13:10:28Z</time>
      </trkpt>
      <trkpt lat="40.170767" lon="-5.115867">
        <ele>2130.0</ele>
        <time>2013-06-30T13:10:29Z</time>
      </trkpt>
      <trkpt lat="40.170700" lon="-5.115883">
        <ele>2131.0</ele>
        <time>2013-06-30T13:10:30Z</time>
      </trkpt>
      <trkpt lat="40.170633" lon="-5.115850">
        <ele>2133.0</ele>
        <time>2013-06-30T13:10:31Z</time>
      </trkpt>
      <trkpt lat="40.170583" lon="-5.115833">
        <ele>2136.0</ele>
        <time>2013-06-30T13:10:32Z</time>
      </trkpt>
      <trkpt lat="40.170550" lon="-5.115800">
        <ele>2138.0</ele>
        <time>2013-06-30T13:10:33Z</time>
      </trkpt>
      <trkpt lat="40.170550" lon="-5.115767">
        <ele>2140.0</ele>
        <time>2013-06-30T13:10:34Z</time>
      </trkpt>
      <trkpt lat="40.170550" lon="-5.115700">
        <ele>2141.0</ele>
        <time>2013-06-30T13:10:35Z</time>
      </trkpt>
      <trkpt lat="40.170550" lon="-5.115633">
        <ele>2142.0</ele>
        <time>2013-06-30T13:10:36Z</time>
      </trkpt>
      <trkpt lat="40.170567" lon="-5.115550">
        <ele>2143.0</ele>
        <time>2013-06-30T13:10:37Z</time>
      </trkpt>
      <trkpt lat="40.170583" lon="-5.115483">
        <ele>2146.0</ele>
        <time>2013-06-30T13:10:38Z</time>
      </trkpt>
      <trkpt lat="40.170633" lon="-5.115433">
        <ele>2148.0</ele>
        <time>2013-06-30T13:10:39Z</time>
      </trkpt>
      <trkpt lat="40.170683" lon="-5.115383">
        <ele>2149.0</ele>
        <time>2013-06-30T13:10:40Z</time>
      </trkpt>
      <trkpt lat="40.170750" lon="-5.115350">
        <ele>2150.0</ele>
        <time>2013-06-30T13:10:41Z</time>
      </trkpt>
      <trkpt lat="40.170850" lon="-5.115317">
        <ele>2151.0</ele>
        <time>2013-06-30T13:10:42Z</time>
      </trkpt>
      <trkpt lat="40.170950" lon="-5.115300">
        <ele>2153.0</ele>
        <time>2013-06-30T13:10:43Z</time>
      </trkpt>
      <trkpt lat="40.171050" lon="-5.115300">
        <ele>2155.0</ele>
        <time>2013-06-30T13:10:44Z</time>
      </trkpt>
      <trkpt lat="40.171133" lon="-5.115317">
        <ele>2158.0</ele>
        <time>2013-06-30T13:10:45Z</time>
      </trkpt>
      <trkpt lat="40.171233" lon="-5.115333">
        <ele>2160.0</ele>
        <time>2013-06-30T13:10:46Z</time>
      </trkpt>
      <trkpt lat="40.171317" lon="-5.115367">
        <ele>2162.0</ele>
        <time>2013-06-30T13:10:47Z</time>
      </trkpt>
      <trkpt lat="40.171417" lon="-5.115417">
        <ele>2162.0</ele>
        <time>2013-06-30T13:10:48Z</time>
      </trkpt>
      <trkpt lat="40.171517" lon="-5.115500">
        <ele>2164.0</ele>
        <time>2013-06-30T13:10:49Z</time>
      </trkpt>
      <trkpt lat="40.171583" lon="-5.115583">
        <ele>2165.0</ele>
        <time>2013-06-30T13:10:50Z</time>
      </trkpt>
      <trkpt lat="40.171650" lon="-5.115700">
        <ele>2167.0</ele>
        <time>2013-06-30T13:10:51Z</time>
      </trkpt>
      <trkpt lat="40.171717" lon="-5.115800">
        <ele>2170.0</ele>
        <time>2013-06-30T13:10:52Z</time>
      </trkpt>
      <trkpt lat="40.171750" lon="-5.115933">
        <ele>2172.0</ele>
        <time>2013-06-30T13:10:53Z</time>
      </trkpt>
      <trkpt lat="40.171767" lon="-5.116050">
        <ele>2173.0</ele>
        <time>2013-06-30T13:10:54Z</time>
      </trkpt>
      <trkpt lat="40.171783" lon="-5.116167">
        <ele>2175.0</ele>
        <time>2013-06-30T13:10:55Z</time>
      </trkpt>
      <trkpt lat="40.171783" lon="-5.116300">
        <ele>2176.0</ele>
        <time>2013-06-30T13:10:56Z</time>
      </trkpt>
      <trkpt lat="40.171750" lon="-5.116417">
        <ele>2178.0</ele>
        <time>2013-06-30T13:10:57Z</time>
      </trkpt>
      <trkpt lat="40.171717" lon="-5.116517">
        <ele>2179.0</ele>
        <time>2013-06-30T13:10:58Z</time>
      </trkpt>
      <trkpt lat="40.171667" lon="-5.116600">
        <ele>2181.0</ele>
        <time>2013-06-30T13:10:59Z</time>
      </trkpt>
      <trkpt lat="40.171617" lon="-5.116633">
        <ele>2183.0</ele>
        <time>2013-06-30T13:11:00Z</time>
      </trkpt>
      <trkpt lat="40.171550" lon="-5.116633">
        <ele>2183.0</ele>
        <time>2013-06-30T13:11:01Z</time>
      </trkpt>
      <trkpt lat="40.171500" lon="-5.116617">
        <ele>2185.0</ele>
        <time>2013-06-30T13:11:02Z</time>
      </trkpt>
      <trkpt lat="40.171450" lon="-5.116583">
        <ele>2186.0</ele>
        <time>2013-06-30T13:11:03Z</time>
      </trkpt>
      <trkpt lat="40.171417" lon="-5.116550">
        <ele>2189.0</ele>
        <time>2013-06-30T13:11:04Z</time>
      </trkpt>
      <trkpt lat="40.171383" lon="-5.116500">
        <ele>2190.0</ele>
        <time>2013-06-30T13:11:05Z</time>
      </trkpt>
      <trkpt lat="40.171350" lon="-5.116450">
        <ele>2192.0</ele>
        <time>2013-06-30T13:11:06Z</time>
      </trkpt>
      <trkpt lat="40.171350" lon="-5.116367">
        <ele>2193.0</ele>
        <time>2013-06-30T13:11:07Z</time>
      </trkpt>
      <trkpt lat="40.171350" lon="-5.116300">
        <ele>2195.0</ele>
        <time>2013-06-30T13:11:08Z</time>
      </trkpt>
      <trkpt lat="40.171383" lon="-5.116217">
        <ele>2197.0</ele>
        <time>2013-06-30T13:11:09Z</time>
      </trkpt>
      <trkpt lat="40.171417" lon="-5.116167">
        <ele>2198.0</ele>
        <time>2013-06-30T13:11:10Z</time>
      </trkpt>
      <trkpt lat="40.171467" lon="-5.116100">
        <ele>2200.0</ele>
        <time>2013-06-30T13:11:11Z</time>
      </trkpt>
      <trkpt lat="40.171500" lon="-5.116033">
        <ele>2201.0</ele>
        <time>2013-06-30T13:11:12Z</time>
      </trkpt>
      <trkpt lat="40.171550" lon="-5.115983">
        <ele>2203.0</ele>
        <time>2013-06-30T13:11:13Z</time>
      </trkpt>
      <trkpt lat="40.171600" lon="-5.115950">
        <ele>2203.0</ele>
        <time>2013-06-30T13:11:14Z</time>
      </trkpt>
      <trkpt lat="40.171667" lon="-5.115900">
        <ele>2203.0</ele>
        <time>2013-06-30T13:11:15Z</time>
      </trkpt>
      <trkpt lat="40.171767" lon="-5.115883">
        <ele>2203.0</ele>
        <time>2013-06-30T13:11:16Z</time>
      </trkpt>
      <trkpt lat="40.171867" lon="-5.115900">
        <ele>2204.0</ele>
        <time>2013-06-30T13:11:17Z</time>
      </trkpt>
      <trkpt lat="40.171967" lon="-5.115950">
        <ele>2205.0</ele>
        <time>2013-06-30T13:11:18Z</time>
      </trkpt>
      <trkpt lat="40.172050" lon="-5.116000">
        <ele>2207.0</ele>
        <time>2013-06-30T13:11:19Z</time>
      </trkpt>
      <trkpt lat="40.172133" lon="-5.116067">
        <ele>2209.0</ele>
        <time>2013-06-30T13:11:20Z</time>
      </trkpt>
      <trkpt lat="40.172217" lon="-5.116150">
        <ele>2210.0</ele>
        <time>2013-06-30T13:11:21Z</time>
      </trkpt>
      <trkpt lat="40.172283" lon="-5.116267">
        <ele>2212.0</ele>
        <time>2013-06-30T13:11:22Z</time>
      </trkpt>
      <trkpt lat="40.172333" lon="-5.116400">
        <ele>2213.0</ele>
        <time>2013-06-30T13:11:23Z</time>
      </trkpt>
      <trkpt lat="40.172350" lon="-5.116517">
        <ele>2215.0</ele>
        <time>2013-06-30T13:11:24Z</time>
      </trkpt>
      <trkpt lat="40.172350" lon="-5.116650">
        <ele>2217.0</ele>
        <time>2013-06-30T13:11:25Z</time>
      </trkpt>
      <trkpt lat="40.172367" lon="-5.116767">
        <ele>2218.0</ele>
        <time>2013-06-30T13:11:26Z</time>
      </trkpt>
      <trkpt lat="40.172367" lon="-5.116883">
        <ele>2219.0</ele>
        <time>2013-06-30T13:11:27Z</time>
      </trkpt>
      <trkpt lat="40.172350" lon="-5.116983">
        <ele>2219.0</ele>
        <time>2013-06-30T13:11:28Z</time>
      </trkpt>
      <trkpt lat="40.172300" lon="-5.117100">
        <ele>2220.0</ele>
        <time>2013-06-30T13:11:29Z</time>
      </trkpt>
      <trkpt lat="40.172250" lon="-5.117183">
        <ele>2221.0</ele>
        <time>2013-06-30T13:11:30Z</time>
      </trkpt>
      <trkpt lat="40.172183" lon="-5.117250">
        <ele>2222.0</ele>
        <time>2013-06-30T13:11:31Z</time>
      </trkpt>
      <trkpt lat="40.172117" lon="-5.117317">
        <ele>2224.0</ele>
        <time>2013-06-30T13:11:32Z</time>
      </trkpt>
      <trkpt lat="40.172067" lon="-5.117350">
        <ele>2225.0</ele>
        <time>2013-06-30T13:11:33Z</time>
      </trkpt>
      <trkpt lat="40.172000" lon="-5.117367">
        <ele>2226.0</ele>
        <time>2013-06-30T13:11:34Z</time>
      </trkpt>
      <trkpt lat="40.171950" lon="-5.117367">
        <ele>2227.0</ele>
        <time>2013-06-30T13:11:35Z</time>
      </trkpt>
      <trkpt lat="40.171883" lon="-5.117350">
        <ele>2228.0</ele>
        <time>2013-06-30T13:11:36Z</time>
      </trkpt>
      <trkpt lat="40.171833" lon="-5.117317">
        <ele>2228.0</ele>
        <time>2013-06-30T13:11:37Z</time>
      </trkpt>
      <trkpt lat="40.171783" lon="-5.117283">
        <ele>2229.0</ele>
        <time>2013-06-30T13:11:38Z</time>
      </trkpt>
      <trkpt lat="40.171750" lon="-5.117233">
        <ele>2229.0</ele>
        <time>2013-06-30T13:11:39Z</time>
      </trkpt>
      <trkpt lat="40.171717" lon="-5.117183">
        <ele>2230.0</ele>
        <time>2013-06-30T13:11:40Z</time>
      </trkpt>
      <trkpt lat="40.171667" lon="-5.117117">
        <ele>2230.0</ele>
        <time>2013-06-30T13:11:41Z</time>
      </trkpt>
      <trkpt lat="40.171633" lon="-5.117050">
        <ele>2234.0</ele>
        <time>2013-06-30T13:11:42Z</time>
      </trkpt>
      <trkpt lat="40.171600" lon="-5.117000">
        <ele>2237.0</ele>
        <time>2013-06-30T13:11:43Z</time>
      </trkpt>
      <trkpt lat="40.171583" lon="-5.116967">
        <ele>2240.0</ele>
        <time>2013-06-30T13:11:44Z</time>
      </trkpt>
      <trkpt lat="40.171567" lon="-5.116933">
        <ele>2243.0</ele>
        <time>2013-06-30T13:11:45Z</time>
      </trkpt>
      <trkpt lat="40.171550" lon="-5.116883">
        <ele>2244.0</ele>
        <time>2013-06-30T13:11:46Z</time>
      </trkpt>
      <trkpt lat="40.171533" lon="-5.116817">
        <ele>2245.0</ele>
        <time>2013-06-30T13:11:47Z</time>
      </trkpt>
      <trkpt lat="40.171517" lon="-5.116733">
        <ele>2248.0</ele>
        <time>2013-06-30T13:11:48Z</time>
      </trkpt>
      <trkpt lat="40.171533" lon="-5.116650">
        <ele>2252.0</ele>
        <time>2013-06-30T13:11:49Z</time>
      </trkpt>
      <trkpt lat="40.171583" lon="-5.116567">
        <ele>2255.0</ele>
        <time>2013-06-30T13:11:50Z</time>
      </trkpt>
      <trkpt lat="40.171633" lon="-5.116517">
        <ele>2257.0</ele>
        <time>2013-06-30T13:11:51Z</time>
      </trkpt>
      <trkpt lat="40.171700" lon="-5.116467">
        <ele>2259.0</ele>
        <time>2013-06-30T13:11:52Z</time>
      </trkpt>
      <trkpt lat="40.171783" lon="-5.116400">
        <ele>2261.0</ele>
        <time>2013-06-30T13:11:53Z</time>
      </trkpt>
      <trkpt lat="40.171867" lon="-5.116350">
        <ele>2263.0</ele>
        <time>2013-06-30T13:11:54Z</time>
      </trkpt>
      <trkpt lat="40.171967" lon="-5.116350">
        <ele>2266.0</ele>
        <time>2013-06-30T13:11:55Z</time>
      </trkpt>
      <trkpt lat="40.172050" lon="-5.116400">
        <ele>2267.0</ele>
        <time>2013-06-30T13:11:56Z</time>
      </trkpt>
      <trkpt lat="40.172150" lon="-5.116483">
        <ele>2268.0</ele>
        <time>2013-06-30T13:11:57Z</time>
      </trkpt>
      <trkpt lat="40.172217" lon="-5.116617">
        <ele>2270.0</ele>
        <time>2013-06-30T13:11:58Z</time>
      </trkpt>
      <trkpt lat="40.172267" lon="-5.116733">
        <ele>2272.0</ele>
        <time>2013-06-30T13:11:59Z</time>
      </trkpt>
      <trkpt lat="40.172300" lon="-5.116867">
        <ele>2275.0</ele>
        <time>2013-06-30T13:12:00Z</time>
      </trkpt>
      <trkpt lat="40.172300" lon="-5.116983">
        <ele>2277.0</ele>
        <time>2013-06-30T13:12:01Z</time>
      </trkpt>
      <trkpt lat="40.172267" lon="-5.117100">
        <ele>2278.0</ele>
        <time>2013-06-30T13:12:02Z</time>
      </trkpt>
      <trkpt lat="40.172217" lon="-5.117200">
        <ele>2280.0</ele>
        <time>2013-06-30T13:12:03Z</time>
      </trkpt>
      <trkpt lat="40.172183" lon="-5.117283">
        <ele>2282.0</ele>
        <time>2013-06-30T13:12:04Z</time>
      </trkpt>
      <trkpt lat="40.172117" lon="-5.117350">
        <ele>2284.0</ele>
        <time>2013-06-30T13:12:05Z</time>
      </trkpt>
      <trkpt lat="40.172050" lon="-5.117383">
        <ele>2285.0</ele>
        <time>2013-06-30T13:12:06Z</time>
      </trkpt>
      <trkpt lat="40.171983" lon="-5.117400">
        <ele>2286.0</ele>
        <time>2013-06-30T13:12:07Z</time>
      </trkpt>
      <trkpt lat="40.171900" lon="-5.117367">
        <ele>2287.0</ele>
        <time>2013-06-30T13:12:08Z</time>
      </trkpt>
      <trkpt lat="40.171850" lon="-5.117267">
        <ele>2287.0</ele>
        <time>2013-06-30T13:12:09Z</time>
      </trkpt>
      <trkpt lat="40.171833" lon="-5.117167">
        <ele>2289.0</ele>
        <time>2013-06-30T13:12:10Z</time>
      </trkpt>
      <trkpt lat="40.171817" lon="-5.117067">
        <ele>2294.0</ele>
        <time>2013-06-30T13:12:11Z</time>
      </trkpt>
      <trkpt lat="40.171817" lon="-5.117000">
        <ele>2298.0</ele>
        <time>2013-06-30T13:12:12Z</time>
      </trkpt>
      <trkpt lat="40.171833" lon="-5.116967">
        <ele>2301.0</ele>
        <time>2013-06-30T13:12:13Z</time>
      </trkpt>
      <trkpt lat="40.171867" lon="-5.116917">
        <ele>2302.0</ele>
        <time>2013-06-30T13:12:14Z</time>
      </trkpt>
      <trkpt lat="40.171883" lon="-5.116867">
        <ele>2302.0</ele>
        <time>2013-06-30T13:12:15Z</time>
      </trkpt>
      <trkpt lat="40.171933" lon="-5.116800">
        <ele>2301.0</ele>
        <time>2013-06-30T13:12:16Z</time>
      </trkpt>
      <trkpt lat="40.171983" lon="-5.116733">
        <ele>2301.0</ele>
        <time>2013-06-30T13:12:17Z</time>
      </trkpt>
      <trkpt lat="40.172067" lon="-5.116700">
        <ele>2302.0</ele>
        <time>2013-06-30T13:12:18Z</time>
      </trkpt>
      <trkpt lat="40.172167" lon="-5.116717">
        <ele>2301.0</ele>
        <time>2013-06-30T13:12:19Z</time>
      </trkpt>
      <trkpt lat="40.172283" lon="-5.116767">
        <ele>2301.0</ele>
        <time>2013-06-30T13:12:20Z</time>
      </trkpt>
      <trkpt lat="40.172367" lon="-5.116850">
        <ele>2301.0</ele>
        <time>2013-06-30T13:12:21Z</time>
      </trkpt>
      <trkpt lat="40.172450" lon="-5.116967">
        <ele>2302.0</ele>
        <time>2013-06-30T13:12:22Z</time>
      </trkpt>
      <trkpt lat="40.172500" lon="-5.117083">
        <ele>2303.0</ele>
        <time>2013-06-30T13:12:23Z</time>
      </trkpt>
      <trkpt lat="40.172517" lon="-5.117183">
        <ele>2303.0</ele>
        <time>2013-06-30T13:12:24Z</time>
      </trkpt>
      <trkpt lat="40.172533" lon="-5.117300">
        <ele>2305.0</ele>
        <time>2013-06-30T13:12:25Z</time>
      </trkpt>
      <trkpt lat="40.172517" lon="-5.117417">
        <ele>2306.0</ele>
        <time>2013-06-30T13:12:26Z</time>
      </trkpt>
      <trkpt lat="40.172517" lon="-5.117533">
        <ele>2307.0</ele>
        <time>2013-06-30T13:12:27Z</time>
      </trkpt>
      <trkpt lat="40.172483" lon="-5.117633">
        <ele>2308.0</ele>
        <time>2013-06-30T13:12:28Z</time>
      </trkpt>
      <trkpt lat="40.172433" lon="-5.117717">
        <ele>2308.0</ele>
        <time>2013-06-30T13:12:29Z</time>
      </trkpt>
      <trkpt lat="40.172350" lon="-5.117733">
        <ele>2308.0</ele>
        <time>2013-06-30T13:12:30Z</time>
      </trkpt>
      <trkpt lat="40.172300" lon="-5.117717">
        <ele>2309.0</ele>
        <time>2013-06-30T13:12:31Z</time>
      </trkpt>
      <trkpt lat="40.172267" lon="-5.117650">
        <ele>2312.0</ele>
        <time>2013-06-30T13:12:32Z</time>
      </trkpt>
      <trkpt lat="40.172267" lon="-5.117567">
        <ele>2313.0</ele>
        <time>2013-06-30T13:12:33Z</time>
      </trkpt>
      <trkpt lat="40.172300" lon="-5.117483">
        <ele>2313.0</ele>
        <time>2013-06-30T13:12:34Z</time>
      </trkpt>
      <trkpt lat="40.172350" lon="-5.117417">
        <ele>2314.0</ele>
        <time>2013-06-30T13:12:35Z</time>
      </trkpt>
      <trkpt lat="40.172417" lon="-5.117367">
        <ele>2314.0</ele>
        <time>2013-06-30T13:12:36Z</time>
      </trkpt>
      <trkpt lat="40.172483" lon="-5.117333">
        <ele>2314.0</ele>
        <time>2013-06-30T13:12:37Z</time>
      </trkpt>
      <trkpt lat="40.172583" lon="-5.117333">
        <ele>2313.0</ele>
        <time>2013-06-30T13:12:38Z</time>
      </trkpt>
      <trkpt lat="40.172683" lon="-5.117350">
        <ele>2312.0</ele>
        <time>2013-06-30T13:12:39Z</time>
      </trkpt>
      <trkpt lat="40.172800" lon="-5.117417">
        <ele>2312.0</ele>
        <time>2013-06-30T13:12:40Z</time>
      </trkpt>
      <trkpt lat="40.172900" lon="-5.117517">
        <ele>2312.0</ele>
        <time>2013-06-30T13:12:41Z</time>
      </trkpt>
      <trkpt lat="40.172983" lon="-5.117617">
        <ele>2313.0</ele>
        <time>2013-06-30T13:12:42Z</time>
      </trkpt>
      <trkpt lat="40.173033" lon="-5.117733">
        <ele>2315.0</ele>
        <time>2013-06-30T13:12:43Z</time>
      </trkpt>
      <trkpt lat="40.173083" lon="-5.117833">
        <ele>2316.0</ele>
        <time>2013-06-30T13:12:44Z</time>
      </trkpt>
      <trkpt lat="40.173117" lon="-5.117950">
        <ele>2317.0</ele>
        <time>2013-06-30T13:12:45Z</time>
      </trkpt>
      <trkpt lat="40.173150" lon="-5.118083">
        <ele>2317.0</ele>
        <time>2013-06-30T13:12:46Z</time>
      </trkpt>
      <trkpt lat="40.173150" lon="-5.118217">
        <ele>2318.0</ele>
        <time>2013-06-30T13:12:47Z</time>
      </trkpt>
      <trkpt lat="40.173133" lon="-5.118333">
        <ele>2318.0</ele>
        <time>2013-06-30T13:12:48Z</time>
      </trkpt>
      <trkpt lat="40.173083" lon="-5.118417">
        <ele>2319.0</ele>
        <time>2013-06-30T13:12:49Z</time>
      </trkpt>
      <trkpt lat="40.173033" lon="-5.118483">
        <ele>2321.0</ele>
        <time>2013-06-30T13:12:50Z</time>
      </trkpt>
      <trkpt lat="40.172967" lon="-5.118500">
        <ele>2321.0</ele>
        <time>2013-06-30T13:12:51Z</time>
      </trkpt>
      <trkpt lat="40.172933" lon="-5.118500">
        <ele>2322.0</ele>
        <time>2013-06-30T13:12:52Z</time>
      </trkpt>
      <trkpt lat="40.172883" lon="-5.118483">
        <ele>2323.0</ele>
        <time>2013-06-30T13:12:53Z</time>
      </trkpt>
      <trkpt lat="40.172850" lon="-5.118467">
        <ele>2323.0</ele>
        <time>2013-06-30T13:12:54Z</time>
      </trkpt>
      <trkpt lat="40.172817" lon="-5.118433">
        <ele>2324.0</ele>
        <time>2013-06-30T13:12:55Z</time>
      </trkpt>
      <trkpt lat="40.172783" lon="-5.118400">
        <ele>2323.0</ele>
        <time>2013-06-30T13:12:56Z</time>
      </trkpt>
      <trkpt lat="40.172767" lon="-5.118350">
        <ele>2324.0</ele>
        <time>2013-06-30T13:12:57Z</time>
      </trkpt>
      <trkpt lat="40.172750" lon="-5.118283">
        <ele>2324.0</ele>
        <time>2013-06-30T13:12:58Z</time>
      </trkpt>
      <trkpt lat="40.172733" lon="-5.118233">
        <ele>2324.0</ele>
        <time>2013-06-30T13:12:59Z</time>
      </trkpt>
      <trkpt lat="40.172733" lon="-5.118183">
        <ele>2324.0</ele>
        <time>2013-06-30T13:13:00Z</time>
      </trkpt>
      <trkpt lat="40.172717" lon="-5.118133">
        <ele>2324.0</ele>
        <time>2013-06-30T13:13:01Z</time>
      </trkpt>
      <trkpt lat="40.172700" lon="-5.118067">
        <ele>2325.0</ele>
        <time>2013-06-30T13:13:02Z</time>
      </trkpt>
      <trkpt lat="40.172700" lon="-5.118017">
        <ele>2324.0</ele>
        <time>2013-06-30T13:13:03Z</time>
      </trkpt>
      <trkpt lat="40.172683" lon="-5.117967">
        <ele>2324.0</ele>
        <time>2013-06-30T13:13:04Z</time>
      </trkpt>
      <trkpt lat="40.172667" lon="-5.117900">
        <ele>2323.0</ele>
        <time>2013-06-30T13:13:05Z</time>
      </trkpt>
      <trkpt lat="40.172650" lon="-5.117850">
        <ele>2323.0</ele>
        <time>2013-06-30T13:13:06Z</time>
      </trkpt>
      <trkpt lat="40.172633" lon="-5.117783">
        <ele>2321.0</ele>
        <time>2013-06-30T13:13:07Z</time>
      </trkpt>
      <trkpt lat="40.172617" lon="-5.117733">
        <ele>2320.0</ele>
        <time>2013-06-30T13:13:08Z</time>
      </trkpt>
      <trkpt lat="40.172583" lon="-5.117667">
        <ele>2319.0</ele>
        <time>2013-06-30T13:13:09Z</time>
      </trkpt>
      <trkpt lat="40.172550" lon="-5.117617">
        <ele>2318.0</ele>
        <time>2013-06-30T13:13:10Z</time>
      </trkpt>
      <trkpt lat="40.172517" lon="-5.117567">
        <ele>2317.0</ele>
        <time>2013-06-30T13:13:11Z</time>
      </trkpt>
      <trkpt lat="40.172467" lon="-5.117550">
        <ele>2315.0</ele>
        <time>2013-06-30T13:13:12Z</time>
      </trkpt>
      <trkpt lat="40.172383" lon="-5.117550">
        <ele>2314.0</ele>
        <time>2013-06-30T13:13:13Z</time>
      </trkpt>
      <trkpt lat="40.172317" lon="-5.117567">
        <ele>2314.0</ele>
        <time>2013-06-30T13:13:14Z</time>
      </trkpt>
      <trkpt lat="40.172267" lon="-5.117583">
        <ele>2314.0</ele>
        <time>2013-06-30T13:13:15Z</time>
      </trkpt>
      <trkpt lat="40.172200" lon="-5.117600">
        <ele>2315.0</ele>
        <time>2013-06-30T13:13:16Z</time>
      </trkpt>
      <trkpt lat="40.172167" lon="-5.117600">
        <ele>2316.0</ele>
        <time>2013-06-30T13:13:17Z</time>
      </trkpt>
      <trkpt lat="40.172117" lon="-5.117600">
        <ele>2317.0</ele>
        <time>2013-06-30T13:13:18Z</time>
      </trkpt>
      <trkpt lat="40.172083" lon="-5.117617">
        <ele>2317.0</ele>
        <time>2013-06-30T13:13:19Z</time>
      </trkpt>
      <trkpt lat="40.172050" lon="-5.117633">
        <ele>2317.0</ele>
        <time>2013-06-30T13:13:20Z</time>
      </trkpt>
      <trkpt lat="40.172000" lon="-5.117667">
        <ele>2316.0</ele>
        <time>2013-06-30T13:13:21Z</time>
      </trkpt>
      <trkpt lat="40.171950" lon="-5.117700">
        <ele>2315.0</ele>
        <time>2013-06-30T13:13:22Z</time>
      </trkpt>
      <trkpt lat="40.171900" lon="-5.117733">
        <ele>2315.0</ele>
        <time>2013-06-30T13:13:23Z</time>
      </trkpt>
      <trkpt lat="40.171850" lon="-5.117783">
        <ele>2315.0</ele>
        <time>2013-06-30T13:13:24Z</time>
      </trkpt>
      <trkpt lat="40.171800" lon="-5.117817">
        <ele>2315.0</ele>
        <time>2013-06-30T13:13:25Z</time>
      </trkpt>
      <trkpt lat="40.171750" lon="-5.117833">
        <ele>2316.0</ele>
        <time>2013-06-30T13:13:26Z</time>
      </trkpt>
      <trkpt lat="40.171700" lon="-5.117867">
        <ele>2316.0</ele>
        <time>2013-06-30T13:13:27Z</time>
      </trkpt>
      <trkpt lat="40.171650" lon="-5.117900">
        <ele>2317.0</ele>
        <time>2013-06-30T13:13:28Z</time>
      </trkpt>
      <trkpt lat="40.171583" lon="-5.117933">
        <ele>2319.0</ele>
        <time>2013-06-30T13:13:29Z</time>
      </trkpt>
      <trkpt lat="40.171533" lon="-5.117983">
        <ele>2321.0</ele>
        <time>2013-06-30T13:13:30Z</time>
      </trkpt>
      <trkpt lat="40.171500" lon="-5.118017">
        <ele>2322.0</ele>
        <time>2013-06-30T13:13:31Z</time>
      </trkpt>
      <trkpt lat="40.171450" lon="-5.118067">
        <ele>2324.0</ele>
        <time>2013-06-30T13:13:32Z</time>
      </trkpt>
      <trkpt lat="40.171400" lon="-5.118117">
        <ele>2325.0</ele>
        <time>2013-06-30T13:13:33Z</time>
      </trkpt>
      <trkpt lat="40.171367" lon="-5.118183">
        <ele>2327.0</ele>
        <time>2013-06-30T13:13:34Z</time>
      </trkpt>
      <trkpt lat="40.171333" lon="-5.118233">
        <ele>2328.0</ele>
        <time>2013-06-30T13:13:35Z</time>
      </trkpt>
      <trkpt lat="40.171300" lon="-5.118300">
        <ele>2330.0</ele>
        <time>2013-06-30T13:13:36Z</time>
      </trkpt>
      <trkpt lat="40.171250" lon="-5.118383">
        <ele>2331.0</ele>
        <time>2013-06-30T13:13:37Z</time>
      </trkpt>
      <trkpt lat="40.171217" lon="-5.118467">
        <ele>2332.0</ele>
        <time>2013-06-30T13:13:38Z</time>
      </trkpt>
      <trkpt lat="40.171200" lon="-5.118550">
        <ele>2333.0</ele>
        <time>2013-06-30T13:13:39Z</time>
      </trkpt>
      <trkpt lat="40.171200" lon="-5.118667">
        <ele>2334.0</ele>
        <time>2013-06-30T13:13:40Z</time>
      </trkpt>
      <trkpt lat="40.171200" lon="-5.118767">
        <ele>2335.0</ele>
        <time>2013-06-30T13:13:41Z</time>
      </trkpt>
      <trkpt lat="40.171233" lon="-5.118883">
        <ele>2335.0</ele>
        <time>2013-06-30T13:13:42Z</time>
      </trkpt>
      <trkpt lat="40.171283" lon="-5.118967">
        <ele>2335.0</ele>
        <time>2013-06-30T13:13:43Z</time>
      </trkpt>
      <trkpt lat="40.171333" lon="-5.119067">
        <ele>2335.0</ele>
        <time>2013-06-30T13:13:44Z</time>
      </trkpt>
      <trkpt lat="40.171417" lon="-5.119133">
        <ele>2335.0</ele>
        <time>2013-06-30T13:13:45Z</time>
      </trkpt>
      <trkpt lat="40.171500" lon="-5.119167">
        <ele>2335.0</ele>
        <time>2013-06-30T13:13:46Z</time>
      </trkpt>
      <trkpt lat="40.171583" lon="-5.119183">
        <ele>2335.0</ele>
        <time>2013-06-30T13:13:47Z</time>
      </trkpt>
      <trkpt lat="40.171667" lon="-5.119167">
        <ele>2335.0</ele>
        <time>2013-06-30T13:13:48Z</time>
      </trkpt>
      <trkpt lat="40.171733" lon="-5.119117">
        <ele>2334.0</ele>
        <time>2013-06-30T13:13:49Z</time>
      </trkpt>
      <trkpt lat="40.171800" lon="-5.119067">
        <ele>2334.0</ele>
        <time>2013-06-30T13:13:50Z</time>
      </trkpt>
      <trkpt lat="40.171867" lon="-5.119000">
        <ele>2334.0</ele>
        <time>2013-06-30T13:13:51Z</time>
      </trkpt>
      <trkpt lat="40.171917" lon="-5.118933">
        <ele>2334.0</ele>
        <time>2013-06-30T13:13:52Z</time>
      </trkpt>
      <trkpt lat="40.171950" lon="-5.118867">
        <ele>2333.0</ele>
        <time>2013-06-30T13:13:53Z</time>
      </trkpt>
      <trkpt lat="40.171983" lon="-5.118783">
        <ele>2332.0</ele>
        <time>2013-06-30T13:13:54Z</time>
      </trkpt>
      <trkpt lat="40.172017" lon="-5.118700">
        <ele>2331.0</ele>
        <time>2013-06-30T13:13:55Z</time>
      </trkpt>
      <trkpt lat="40.172017" lon="-5.118583">
        <ele>2330.0</ele>
        <time>2013-06-30T13:13:56Z</time>
      </trkpt>
      <trkpt lat="40.171983" lon="-5.118483">
        <ele>2329.0</ele>
        <time>2013-06-30T13:13:57Z</time>
      </trkpt>
      <trkpt lat="40.171950" lon="-5.118383">
        <ele>2328.0</ele>
        <time>2013-06-30T13:13:58Z</time>
      </trkpt>
      <trkpt lat="40.171900" lon="-5.118300">
        <ele>2329.0</ele>
        <time>2013-06-30T13:13:59Z</time>
      </trkpt>
      <trkpt lat="40.171850" lon="-5.118217">
        <ele>2330.0</ele>
        <time>2013-06-30T13:14:00Z</time>
      </trkpt>
      <trkpt lat="40.171817" lon="-5.118133">
        <ele>2332.0</ele>
        <time>2013-06-30T13:14:01Z</time>
      </trkpt>
      <trkpt lat="40.171783" lon="-5.118067">
        <ele>2333.0</ele>
        <time>2013-06-30T13:14:02Z</time>
      </trkpt>
      <trkpt lat="40.171733" lon="-5.118017">
        <ele>2334.0</ele>
        <time>2013-06-30T13:14:03Z</time>
      </trkpt>
      <trkpt lat="40.171700" lon="-5.117933">
        <ele>2333.0</ele>
        <time>2013-06-30T13:14:04Z</time>
      </trkpt>
      <trkpt lat="40.171633" lon="-5.117867">
        <ele>2333.0</ele>
        <time>2013-06-30T13:14:05Z</time>
      </trkpt>
      <trkpt lat="40.171583" lon="-5.117800">
        <ele>2334.0</ele>
        <time>2013-06-30T13:14:06Z</time>
      </trkpt>
      <trkpt lat="40.171500" lon="-5.117767">
        <ele>2334.0</ele>
        <time>2013-06-30T13:14:07Z</time>
      </trkpt>
      <trkpt lat="40.171433" lon="-5.117733">
        <ele>2335.0</ele>
        <time>2013-06-30T13:14:08Z</time>
      </trkpt>
      <trkpt lat="40.171350" lon="-5.117700">
        <ele>2335.0</ele>
        <time>2013-06-30T13:14:09Z</time>
      </trkpt>
      <trkpt lat="40.171267" lon="-5.117683">
        <ele>2336.0</ele>
        <time>2013-06-30T13:14:10Z</time>
      </trkpt>
      <trkpt lat="40.171183" lon="-5.117683">
        <ele>2337.0</ele>
        <time>2013-06-30T13:14:11Z</time>
      </trkpt>
      <trkpt lat="40.171100" lon="-5.117667">
        <ele>2340.0</ele>
        <time>2013-06-30T13:14:12Z</time>
      </trkpt>
      <trkpt lat="40.171017" lon="-5.117667">
        <ele>2346.0</ele>
        <time>2013-06-30T13:14:13Z</time>
      </trkpt>
      <trkpt lat="40.170950" lon="-5.117700">
        <ele>2349.0</ele>
        <time>2013-06-30T13:14:14Z</time>
      </trkpt>
      <trkpt lat="40.170900" lon="-5.117750">
        <ele>2352.0</ele>
        <time>2013-06-30T13:14:15Z</time>
      </trkpt>
      <trkpt lat="40.170850" lon="-5.117800">
        <ele>2356.0</ele>
        <time>2013-06-30T13:14:16Z</time>
      </trkpt>
      <trkpt lat="40.170783" lon="-5.117850">
        <ele>2359.0</ele>
        <time>2013-06-30T13:14:17Z</time>
      </trkpt>
      <trkpt lat="40.170750" lon="-5.117900">
        <ele>2361.0</ele>
        <time>2013-06-30T13:14:18Z</time>
      </trkpt>
      <trkpt lat="40.170700" lon="-5.117983">
        <ele>2363.0</ele>
        <time>2013-06-30T13:14:19Z</time>
      </trkpt>
      <trkpt lat="40.170683" lon="-5.118083">
        <ele>2365.0</ele>
        <time>2013-06-30T13:14:20Z</time>
      </trkpt>
      <trkpt lat="40.170667" lon="-5.118200">
        <ele>2367.0</ele>
        <time>2013-06-30T13:14:21Z</time>
      </trkpt>
      <trkpt lat="40.170633" lon="-5.118283">
        <ele>2370.0</ele>
        <time>2013-06-30T13:14:22Z</time>
      </trkpt>
      <trkpt lat="40.170583" lon="-5.118333">
        <ele>2372.0</ele>
        <time>2013-06-30T13:14:23Z</time>
      </trkpt>
      <trkpt lat="40.170517" lon="-5.118367">
        <ele>2374.0</ele>
        <time>2013-06-30T13:14:24Z</time>
      </trkpt>
      <trkpt lat="40.170433" lon="-5.118383">
        <ele>2376.0</ele>
        <time>2013-06-30T13:14:25Z</time>
      </trkpt>
      <trkpt lat="40.170367" lon="-5.118400">
        <ele>2380.0</ele>
        <time>2013-06-30T13:14:26Z</time>
      </trkpt>
      <trkpt lat="40.170317" lon="-5.118383">
        <ele>2385.0</ele>
        <time>2013-06-30T13:14:27Z</time>
      </trkpt>
      <trkpt lat="40.170283" lon="-5.118350">
        <ele>2389.0</ele>
        <time>2013-06-30T13:14:28Z</time>
      </trkpt>
      <trkpt lat="40.170267" lon="-5.118283">
        <ele>2392.0</ele>
        <time>2013-06-30T13:14:29Z</time>
      </trkpt>
      <trkpt lat="40.170267" lon="-5.118200">
        <ele>2394.0</ele>
        <time>2013-06-30T13:14:30Z</time>
      </trkpt>
      <trkpt lat="40.170267" lon="-5.118100">
        <ele>2397.0</ele>
        <time>2013-06-30T13:14:31Z</time>
      </trkpt>
      <trkpt lat="40.170317" lon="-5.118017">
        <ele>2400.0</ele>
        <time>2013-06-30T13:14:32Z</time>
      </trkpt>
      <trkpt lat="40.170383" lon="-5.117950">
        <ele>2401.0</ele>
        <time>2013-06-30T13:14:33Z</time>
      </trkpt>
      <trkpt lat="40.170483" lon="-5.117900">
        <ele>2403.0</ele>
        <time>2013-06-30T13:14:34Z</time>
      </trkpt>
      <trkpt lat="40.170583" lon="-5.117883">
        <ele>2407.0</ele>
        <time>2013-06-30T13:14:35Z</time>
      </trkpt>
      <trkpt lat="40.170667" lon="-5.117883">
        <ele>2410.0</ele>
        <time>2013-06-30T13:14:36Z</time>
      </trkpt>
      <trkpt lat="40.170750" lon="-5.117933">
        <ele>2414.0</ele>
        <time>2013-06-30T13:14:37Z</time>
      </trkpt>
      <trkpt lat="40.170817" lon="-5.117983">
        <ele>2416.0</ele>
        <time>2013-06-30T13:14:38Z</time>
      </trkpt>
      <trkpt lat="40.170867" lon="-5.118067">
        <ele>2419.0</ele>
        <time>2013-06-30T13:14:39Z</time>
      </trkpt>
      <trkpt lat="40.170917" lon="-5.118133">
        <ele>2421.0</ele>
        <time>2013-06-30T13:14:40Z</time>
      </trkpt>
      <trkpt lat="40.170933" lon="-5.118233">
        <ele>2423.0</ele>
        <time>2013-06-30T13:14:41Z</time>
      </trkpt>
      <trkpt lat="40.170950" lon="-5.118350">
        <ele>2424.0</ele>
        <time>2013-06-30T13:14:42Z</time>
      </trkpt>
      <trkpt lat="40.170900" lon="-5.118450">
        <ele>2424.0</ele>
        <time>2013-06-30T13:14:43Z</time>
      </trkpt>
      <trkpt lat="40.170833" lon="-5.118533">
        <ele>2424.0</ele>
        <time>2013-06-30T13:14:44Z</time>
      </trkpt>
      <trkpt lat="40.170750" lon="-5.118567">
        <ele>2425.0</ele>
        <time>2013-06-30T13:14:45Z</time>
      </trkpt>
      <trkpt lat="40.170667" lon="-5.118567">
        <ele>2426.0</ele>
        <time>2013-06-30T13:14:46Z</time>
      </trkpt>
      <trkpt lat="40.170583" lon="-5.118533">
        <ele>2429.0</ele>
        <time>2013-06-30T13:14:47Z</time>
      </trkpt>
      <trkpt lat="40.170533" lon="-5.118500">
        <ele>2433.0</ele>
        <time>2013-06-30T13:14:48Z</time>
      </trkpt>
      <trkpt lat="40.170483" lon="-5.118450">
        <ele>2436.0</ele>
        <time>2013-06-30T13:14:49Z</time>
      </trkpt>
      <trkpt lat="40.170433" lon="-5.118383">
        <ele>2438.0</ele>
        <time>2013-06-30T13:14:50Z</time>
      </trkpt>
      <trkpt lat="40.170417" lon="-5.118283">
        <ele>2440.0</ele>
        <time>2013-06-30T13:14:51Z</time>
      </trkpt>
      <trkpt lat="40.170417" lon="-5.118183">
        <ele>2441.0</ele>
        <time>2013-06-30T13:14:52Z</time>
      </trkpt>
      <trkpt lat="40.170450" lon="-5.118083">
        <ele>2443.0</ele>
        <time>2013-06-30T13:14:53Z</time>
      </trkpt>
      <trkpt lat="40.170517" lon="-5.117983">
        <ele>2446.0</ele>
        <time>2013-06-30T13:14:54Z</time>
      </trkpt>
      <trkpt lat="40.170567" lon="-5.117917">
        <ele>2449.0</ele>
        <time>2013-06-30T13:14:55Z</time>
      </trkpt>
      <trkpt lat="40.170600" lon="-5.117867">
        <ele>2451.0</ele>
        <time>2013-06-30T13:14:56Z</time>
      </trkpt>
      <trkpt lat="40.170650" lon="-5.117833">
        <ele>2450.0</ele>
        <time>2013-06-30T13:14:57Z</time>
      </trkpt>
      <trkpt lat="40.170717" lon="-5.117800">
        <ele>2448.0</ele>
        <time>2013-06-30T13:14:58Z</time>
      </trkpt>
      <trkpt lat="40.170817" lon="-5.117767">
        <ele>2446.0</ele>
        <time>2013-06-30T13:14:59Z</time>
      </trkpt>
      <trkpt lat="40.170917" lon="-5.117767">
        <ele>2446.0</ele>
        <time>2013-06-30T13:15:00Z</time>
      </trkpt>
      <trkpt lat="40.171017" lon="-5.117800">
        <ele>2449.0</ele>
        <time>2013-06-30T13:15:01Z</time>
      </trkpt>
      <trkpt lat="40.171067" lon="-5.117867">
        <ele>2452.0</ele>
        <time>2013-06-30T13:15:02Z</time>
      </trkpt>
      <trkpt lat="40.171100" lon="-5.117967">
        <ele>2454.0</ele>
        <time>2013-06-30T13:15:03Z</time>
      </trkpt>
      <trkpt lat="40.171100" lon="-5.118067">
        <ele>2457.0</ele>
        <time>2013-06-30T13:15:04Z</time>
      </trkpt>
      <trkpt lat="40.171083" lon="-5.118167">
        <ele>2459.0</ele>
        <time>2013-06-30T13:15:05Z</time>
      </trkpt>
      <trkpt lat="40.171050" lon="-5.118250">
        <ele>2463.0</ele>
        <time>2013-06-30T13:15:06Z</time>
      </trkpt>
      <trkpt lat="40.171033" lon="-5.118317">
        <ele>2466.0</ele>
        <time>2013-06-30T13:15:07Z</time>
      </trkpt>
      <trkpt lat="40.170983" lon="-5.118367">
        <ele>2468.0</ele>
        <time>2013-06-30T13:15:08Z</time>
      </trkpt>
      <trkpt lat="40.170917" lon="-5.118417">
        <ele>2469.0</ele>
        <time>2013-06-30T13:15:09Z</time>
      </trkpt>
      <trkpt lat="40.170850" lon="-5.118417">
        <ele>2470.0</ele>
        <time>2013-06-30T13:15:10Z</time>
      </trkpt>
      <trkpt lat="40.170767" lon="-5.118400">
        <ele>2471.0</ele>
        <time>2013-06-30T13:15:11Z</time>
      </trkpt>
      <trkpt lat="40.170733" lon="-5.118350">
        <ele>2473.0</ele>
        <time>2013-06-30T13:15:12Z</time>
      </trkpt>
      <trkpt lat="40.170700" lon="-5.118283">
        <ele>2474.0</ele>
        <time>2013-06-30T13:15:13Z</time>
      </trkpt>
      <trkpt lat="40.170683" lon="-5.118200">
        <ele>2475.0</ele>
        <time>2013-06-30T13:15:14Z</time>
      </trkpt>
      <trkpt lat="40.170683" lon="-5.118117">
        <ele>2475.0</ele>
        <time>2013-06-30T13:15:15Z</time>
      </trkpt>
      <trkpt lat="40.170700" lon="-5.118033">
        <ele>2475.0</ele>
        <time>2013-06-30T13:15:16Z</time>
      </trkpt>
      <trkpt lat="40.170750" lon="-5.117950">
        <ele>2474.0</ele>
        <time>2013-06-30T13:15:17Z</time>
      </trkpt>
      <trkpt lat="40.170817" lon="-5.117900">
        <ele>2473.0</ele>
        <time>2013-06-30T13:15:18Z</time>
      </trkpt>
      <trkpt lat="40.170900" lon="-5.117900">
        <ele>2472.0</ele>
        <time>2013-06-30T13:15:19Z</time>
      </trkpt>
      <trkpt lat="40.171000" lon="-5.117933">
        <ele>2472.0</ele>
        <time>2013-06-30T13:15:20Z</time>
      </trkpt>
      <trkpt lat="40.171067" lon="-5.118000">
        <ele>2474.0</ele>
        <time>2013-06-30T13:15:21Z</time>
      </trkpt>
      <trkpt lat="40.171117" lon="-5.118100">
        <ele>2475.0</ele>
        <time>2013-06-30T13:15:22Z</time>
      </trkpt>
      <trkpt lat="40.171133" lon="-5.118183">
        <ele>2477.0</ele>
        <time>2013-06-30T13:15:23Z</time>
      </trkpt>
      <trkpt lat="40.171150" lon="-5.118267">
        <ele>2478.0</ele>
        <time>2013-06-30T13:15:24Z</time>
      </trkpt>
      <trkpt lat="40.171150" lon="-5.118350">
        <ele>2477.0</ele>
        <time>2013-06-30T13:15:25Z</time>
      </trkpt>
      <trkpt lat="40.171133" lon="-5.118433">
        <ele>2478.0</ele>
        <time>2013-06-30T13:15:26Z</time>
      </trkpt>
      <trkpt lat="40.171117" lon="-5.118517">
        <ele>2479.0</ele>
        <time>2013-06-30T13:15:27Z</time>
      </trkpt>
      <trkpt lat="40.171083" lon="-5.118583">
        <ele>2479.0</ele>
        <time>2013-06-30T13:15:28Z</time>
      </trkpt>
      <trkpt lat="40.171017" lon="-5.118650">
        <ele>2479.0</ele>
        <time>2013-06-30T13:15:29Z</time>
      </trkpt>
      <trkpt lat="40.170950" lon="-5.118700">
        <ele>2480.0</ele>
        <time>2013-06-30T13:15:30Z</time>
      </trkpt>
      <trkpt lat="40.170867" lon="-5.118733">
        <ele>2481.0</ele>
        <time>2013-06-30T13:15:31Z</time>
      </trkpt>
      <trkpt lat="40.170800" lon="-5.118750">
        <ele>2482.0</ele>
        <time>2013-06-30T13:15:32Z</time>
      </trkpt>
      <trkpt lat="40.170717" lon="-5.118750">
        <ele>2483.0</ele>
        <time>2013-06-30T13:15:33Z</time>
      </trkpt>
      <trkpt lat="40.170650" lon="-5.118733">
        <ele>2484.0</ele>
        <time>2013-06-30T13:15:34Z</time>
      </trkpt>
      <trkpt lat="40.170583" lon="-5.118717">
        <ele>2484.0</ele>
        <time>2013-06-30T13:15:35Z</time>
      </trkpt>
      <trkpt lat="40.170550" lon="-5.118683">
        <ele>2485.0</ele>
        <time>2013-06-30T13:15:36Z</time>
      </trkpt>
      <trkpt lat="40.170533" lon="-5.118650">
        <ele>2484.0</ele>
        <time>2013-06-30T13:15:37Z</time>
      </trkpt>
      <trkpt lat="40.170533" lon="-5.118583">
        <ele>2482.0</ele>
        <time>2013-06-30T13:15:38Z</time>
      </trkpt>
      <trkpt lat="40.170550" lon="-5.118517">
        <ele>2480.0</ele>
        <time>2013-06-30T13:15:39Z</time>
      </trkpt>
      <trkpt lat="40.170617" lon="-5.118433">
        <ele>2479.0</ele>
        <time>2013-06-30T13:15:40Z</time>
      </trkpt>
      <trkpt lat="40.170700" lon="-5.118367">
        <ele>2478.0</ele>
        <time>2013-06-30T13:15:41Z</time>
      </trkpt>
      <trkpt lat="40.170783" lon="-5.118350">
        <ele>2479.0</ele>
        <time>2013-06-30T13:15:42Z</time>
      </trkpt>
      <trkpt lat="40.170883" lon="-5.118383">
        <ele>2480.0</ele>
        <time>2013-06-30T13:15:43Z</time>
      </trkpt>
      <trkpt lat="40.170950" lon="-5.118433">
        <ele>2481.0</ele>
        <time>2013-06-30T13:15:44Z</time>
      </trkpt>
      <trkpt lat="40.171017" lon="-5.118500">
        <ele>2482.0</ele>
        <time>2013-06-30T13:15:45Z</time>
      </trkpt>
      <trkpt lat="40.171083" lon="-5.118567">
        <ele>2482.0</ele>
        <time>2013-06-30T13:15:46Z</time>
      </trkpt>
      <trkpt lat="40.171117" lon="-5.118617">
        <ele>2482.0</ele>
        <time>2013-06-30T13:15:47Z</time>
      </trkpt>
      <trkpt lat="40.171183" lon="-5.118700">
        <ele>2482.0</ele>
        <time>2013-06-30T13:15:48Z</time>
      </trkpt>
      <trkpt lat="40.171233" lon="-5.118800">
        <ele>2482.0</ele>
        <time>2013-06-30T13:15:49Z</time>
      </trkpt>
      <trkpt lat="40.171283" lon="-5.118900">
        <ele>2483.0</ele>
        <time>2013-06-30T13:15:50Z</time>
      </trkpt>
      <trkpt lat="40.171317" lon="-5.118983">
        <ele>2484.0</ele>
        <time>2013-06-30T13:15:51Z</time>
      </trkpt>
      <trkpt lat="40.171350" lon="-5.119083">
        <ele>2486.0</ele>
        <time>2013-06-30T13:15:52Z</time>
      </trkpt>
      <trkpt lat="40.171367" lon="-5.119167">
        <ele>2489.0</ele>
        <time>2013-06-30T13:15:53Z</time>
      </trkpt>
      <trkpt lat="40.171367" lon="-5.119250">
        <ele>2491.0</ele>
        <time>2013-06-30T13:15:54Z</time>
      </trkpt>
      <trkpt lat="40.171367" lon="-5.119333">
        <ele>2492.0</ele>
        <time>2013-06-30T13:15:55Z</time>
      </trkpt>
      <trkpt lat="40.171367" lon="-5.119433">
        <ele>2493.0</ele>
        <time>2013-06-30T13:15:56Z</time>
      </trkpt>
      <trkpt lat="40.171333" lon="-5.119517">
        <ele>2493.0</ele>
        <time>2013-06-30T13:15:57Z</time>
      </trkpt>
      <trkpt lat="40.171283" lon="-5.119583">
        <ele>2494.0</ele>
        <time>2013-06-30T13:15:58Z</time>
      </trkpt>
      <trkpt lat="40.171217" lon="-5.119617">
        <ele>2493.0</ele>
        <time>2013-06-30T13:15:59Z</time>
      </trkpt>
      <trkpt lat="40.171133" lon="-5.119600">
        <ele>2492.0</ele>
        <time>2013-06-30T13:16:00Z</time>
      </trkpt>
      <trkpt lat="40.171050" lon="-5.119583">
        <ele>2492.0</ele>
        <time>2013-06-30T13:16:01Z</time>
      </trkpt>
      <trkpt lat="40.170983" lon="-5.119550">
        <ele>2495.0</ele>
        <time>2013-06-30T13:16:02Z</time>
      </trkpt>
      <trkpt lat="40.170950" lon="-5.119533">
        <ele>2496.0</ele>
        <time>2013-06-30T13:16:03Z</time>
      </trkpt>
      <trkpt lat="40.170933" lon="-5.119500">
        <ele>2497.0</ele>
        <time>2013-06-30T13:16:04Z</time>
      </trkpt>
      <trkpt lat="40.170917" lon="-5.119433">
        <ele>2496.0</ele>
        <time>2013-06-30T13:16:05Z</time>
      </trkpt>
      <trkpt lat="40.170917" lon="-5.119367">
        <ele>2495.0</ele>
        <time>2013-06-30T13:16:06Z</time>
      </trkpt>
      <trkpt lat="40.170917" lon="-5.119283">
        <ele>2494.0</ele>
        <time>2013-06-30T13:16:07Z</time>
      </trkpt>
      <trkpt lat="40.170933" lon="-5.119200">
        <ele>2494.0</ele>
        <time>2013-06-30T13:16:08Z</time>
      </trkpt>
      <trkpt lat="40.170933" lon="-5.119133">
        <ele>2494.0</ele>
        <time>2013-06-30T13:16:09Z</time>
      </trkpt>
      <trkpt lat="40.170950" lon="-5.119083">
        <ele>2494.0</ele>
        <time>2013-06-30T13:16:10Z</time>
      </trkpt>
      <trkpt lat="40.170967" lon="-5.119017">
        <ele>2493.0</ele>
        <time>2013-06-30T13:16:11Z</time>
      </trkpt>
      <trkpt lat="40.170983" lon="-5.118950">
        <ele>2491.0</ele>
        <time>2013-06-30T13:16:12Z</time>
      </trkpt>
      <trkpt lat="40.171000" lon="-5.118867">
        <ele>2489.0</ele>
        <time>2013-06-30T13:16:13Z</time>
      </trkpt>
      <trkpt lat="40.171017" lon="-5.118800">
        <ele>2488.0</ele>
        <time>2013-06-30T13:16:14Z</time>
      </trkpt>
      <trkpt lat="40.171050" lon="-5.118717">
        <ele>2487.0</ele>
        <time>2013-06-30T13:16:15Z</time>
      </trkpt>
      <trkpt lat="40.171100" lon="-5.118650">
        <ele>2485.0</ele>
        <time>2013-06-30T13:16:16Z</time>
      </trkpt>
      <trkpt lat="40.171150" lon="-5.118600">
        <ele>2484.0</ele>
        <time>2013-06-30T13:16:17Z</time>
      </trkpt>
      <trkpt lat="40.171217" lon="-5.118550">
        <ele>2482.0</ele>
        <time>2013-06-30T13:16:18Z</time>
      </trkpt>
      <trkpt lat="40.171283" lon="-5.118500">
        <ele>2480.0</ele>
        <time>2013-06-30T13:16:19Z</time>
      </trkpt>
      <trkpt lat="40.171367" lon="-5.118483">
        <ele>2478.0</ele>
        <time>2013-06-30T13:16:20Z</time>
      </trkpt>
      <trkpt lat="40.171450" lon="-5.118500">
        <ele>2476.0</ele>
        <time>2013-06-30T13:16:21Z</time>
      </trkpt>
      <trkpt lat="40.171533" lon="-5.118550">
        <ele>2474.0</ele>
        <time>2013-06-30T13:16:22Z</time>
      </trkpt>
      <trkpt lat="40.171600" lon="-5.118650">
        <ele>2473.0</ele>
        <time>2013-06-30T13:16:23Z</time>
      </trkpt>
      <trkpt lat="40.171633" lon="-5.118750">
        <ele>2473.0</ele>
        <time>2013-06-30T13:16:24Z</time>
      </trkpt>
      <trkpt lat="40.171633" lon="-5.118867">
        <ele>2472.0</ele>
        <time>2013-06-30T13:16:25Z</time>
      </trkpt>
      <trkpt lat="40.171650" lon="-5.118967">
        <ele>2472.0</ele>
        <time>2013-06-30T13:16:26Z</time>
      </trkpt>
      <trkpt lat="40.171650" lon="-5.119067">
        <ele>2472.0</ele>
        <time>2013-06-30T13:16:27Z</time>
      </trkpt>
      <trkpt lat="40.171633" lon="-5.119167">
        <ele>2471.0</ele>
        <time>2013-06-30T13:16:28Z</time>
      </trkpt>
      <trkpt lat="40.171600" lon="-5.119267">
        <ele>2470.0</ele>
        <time>2013-06-30T13:16:29Z</time>
      </trkpt>
      <trkpt lat="40.171567" lon="-5.119367">
        <ele>2468.0</ele>
        <time>2013-06-30T13:16:30Z</time>
      </trkpt>
      <trkpt lat="40.171517" lon="-5.119483">
        <ele>2466.0</ele>
        <time>2013-06-30T13:16:31Z</time>
      </trkpt>
      <trkpt lat="40.171500" lon="-5.119600">
        <ele>2465.0</ele>
        <time>2013-06-30T13:16:32Z</time>
      </trkpt>
      <trkpt lat="40.171467" lon="-5.119717">
        <ele>2464.0</ele>
        <time>2013-06-30T13:16:33Z</time>
      </trkpt>
      <trkpt lat="40.171467" lon="-5.119833">
        <ele>2464.0</ele>
        <time>2013-06-30T13:16:34Z</time>
      </trkpt>
      <trkpt lat="40.171433" lon="-5.119950">
        <ele>2462.0</ele>
        <time>2013-06-30T13:16:35Z</time>
      </trkpt>
      <trkpt lat="40.171417" lon="-5.120067">
        <ele>2461.0</ele>
        <time>2013-06-30T13:16:36Z</time>
      </trkpt>
      <trkpt lat="40.171367" lon="-5.120200">
        <ele>2458.0</ele>
        <time>2013-06-30T13:16:37Z</time>
      </trkpt>
      <trkpt lat="40.171333" lon="-5.120333">
        <ele>2455.0</ele>
        <time>2013-06-30T13:16:38Z</time>
      </trkpt>
      <trkpt lat="40.171283" lon="-5.120467">
        <ele>2453.0</ele>
        <time>2013-06-30T13:16:39Z</time>
      </trkpt>
      <trkpt lat="40.171233" lon="-5.120583">
        <ele>2452.0</ele>
        <time>2013-06-30T13:16:40Z</time>
      </trkpt>
      <trkpt lat="40.171200" lon="-5.120700">
        <ele>2450.0</ele>
        <time>2013-06-30T13:16:41Z</time>
      </trkpt>
      <trkpt lat="40.171183" lon="-5.120817">
        <ele>2447.0</ele>
        <time>2013-06-30T13:16:42Z</time>
      </trkpt>
      <trkpt lat="40.171183" lon="-5.120950">
        <ele>2445.0</ele>
        <time>2013-06-30T13:16:43Z</time>
      </trkpt>
      <trkpt lat="40.171150" lon="-5.121083">
        <ele>2442.0</ele>
        <time>2013-06-30T13:16:44Z</time>
      </trkpt>
      <trkpt lat="40.171100" lon="-5.121217">
        <ele>2440.0</ele>
        <time>2013-06-30T13:16:45Z</time>
      </trkpt>
      <trkpt lat="40.171067" lon="-5.121333">
        <ele>2440.0</ele>
        <time>2013-06-30T13:16:46Z</time>
      </trkpt>
      <trkpt lat="40.171033" lon="-5.121467">
        <ele>2439.0</ele>
        <time>2013-06-30T13:16:47Z</time>
      </trkpt>
      <trkpt lat="40.171033" lon="-5.121583">
        <ele>2437.0</ele>
        <time>2013-06-30T13:16:48Z</time>
      </trkpt>
      <trkpt lat="40.171033" lon="-5.121700">
        <ele>2435.0</ele>
        <time>2013-06-30T13:16:49Z</time>
      </trkpt>
      <trkpt lat="40.171033" lon="-5.121833">
        <ele>2433.0</ele>
        <time>2013-06-30T13:16:50Z</time>
      </trkpt>
      <trkpt lat="40.171017" lon="-5.121983">
        <ele>2429.0</ele>
        <time>2013-06-30T13:16:51Z</time>
      </trkpt>
      <trkpt lat="40.170983" lon="-5.122150">
        <ele>2426.0</ele>
        <time>2013-06-30T13:16:52Z</time>
      </trkpt>
      <trkpt lat="40.170933" lon="-5.122300">
        <ele>2423.0</ele>
        <time>2013-06-30T13:16:53Z</time>
      </trkpt>
      <trkpt lat="40.170883" lon="-5.122433">
        <ele>2421.0</ele>
        <time>2013-06-30T13:16:54Z</time>
      </trkpt>
      <trkpt lat="40.170833" lon="-5.122550">
        <ele>2419.0</ele>
        <time>2013-06-30T13:16:55Z</time>
      </trkpt>
      <trkpt lat="40.170783" lon="-5.122667">
        <ele>2416.0</ele>
        <time>2013-06-30T13:16:56Z</time>
      </trkpt>
      <trkpt lat="40.170733" lon="-5.122783">
        <ele>2414.0</ele>
        <time>2013-06-30T13:16:57Z</time>
      </trkpt>
      <trkpt lat="40.170700" lon="-5.122917">
        <ele>2410.0</ele>
        <time>2013-06-30T13:16:58Z</time>
      </trkpt>
      <trkpt lat="40.170650" lon="-5.123050">
        <ele>2407.0</ele>
        <time>2013-06-30T13:16:59Z</time>
      </trkpt>
      <trkpt lat="40.170600" lon="-5.123200">
        <ele>2403.0</ele>
        <time>2013-06-30T13:17:00Z</time>
      </trkpt>
      <trkpt lat="40.170567" lon="-5.123350">
        <ele>2401.0</ele>
        <time>2013-06-30T13:17:01Z</time>
      </trkpt>
      <trkpt lat="40.170517" lon="-5.123483">
        <ele>2401.0</ele>
        <time>2013-06-30T13:17:02Z</time>
      </trkpt>
      <trkpt lat="40.170483" lon="-5.123583">
        <ele>2400.0</ele>
        <time>2013-06-30T13:17:03Z</time>
      </trkpt>
      <trkpt lat="40.170450" lon="-5.123683">
        <ele>2398.0</ele>
        <time>2013-06-30T13:17:04Z</time>
      </trkpt>
      <trkpt lat="40.170450" lon="-5.123800">
        <ele>2395.0</ele>
        <time>2013-06-30T13:17:05Z</time>
      </trkpt>
      <trkpt lat="40.170433" lon="-5.123917">
        <ele>2393.0</ele>
        <time>2013-06-30T13:17:06Z</time>
      </trkpt>
      <trkpt lat="40.170433" lon="-5.124033">
        <ele>2393.0</ele>
        <time>2013-06-30T13:17:07Z</time>
      </trkpt>
      <trkpt lat="40.170400" lon="-5.124150">
        <ele>2391.0</ele>
        <time>2013-06-30T13:17:08Z</time>
      </trkpt>
      <trkpt lat="40.170383" lon="-5.124267">
        <ele>2389.0</ele>
        <time>2013-06-30T13:17:09Z</time>
      </trkpt>
      <trkpt lat="40.170367" lon="-5.124400">
        <ele>2387.0</ele>
        <time>2013-06-30T13:17:10Z</time>
      </trkpt>
      <trkpt lat="40.170333" lon="-5.124533">
        <ele>2384.0</ele>
        <time>2013-06-30T13:17:11Z</time>
      </trkpt>
      <trkpt lat="40.170317" lon="-5.124700">
        <ele>2382.0</ele>
        <time>2013-06-30T13:17:12Z</time>
      </trkpt>
      <trkpt lat="40.170283" lon="-5.124867">
        <ele>2382.0</ele>
        <time>2013-06-30T13:17:13Z</time>
      </trkpt>
      <trkpt lat="40.170283" lon="-5.125017">
        <ele>2381.0</ele>
        <time>2013-06-30T13:17:14Z</time>
      </trkpt>
      <trkpt lat="40.170300" lon="-5.125150">
        <ele>2379.0</ele>
        <time>2013-06-30T13:17:15Z</time>
      </trkpt>
      <trkpt lat="40.170317" lon="-5.125267">
        <ele>2377.0</ele>
        <time>2013-06-30T13:17:16Z</time>
      </trkpt>
      <trkpt lat="40.170333" lon="-5.125417">
        <ele>2375.0</ele>
        <time>2013-06-30T13:17:17Z</time>
      </trkpt>
      <trkpt lat="40.170350" lon="-5.125583">
        <ele>2372.0</ele>
        <time>2013-06-30T13:17:18Z</time>
      </trkpt>
      <trkpt lat="40.170350" lon="-5.125750">
        <ele>2371.0</ele>
        <time>2013-06-30T13:17:19Z</time>
      </trkpt>
      <trkpt lat="40.170350" lon="-5.125900">
        <ele>2372.0</ele>
        <time>2013-06-30T13:17:20Z</time>
      </trkpt>
      <trkpt lat="40.170367" lon="-5.126017">
        <ele>2373.0</ele>
        <time>2013-06-30T13:17:21Z</time>
      </trkpt>
      <trkpt lat="40.170383" lon="-5.126117">
        <ele>2372.0</ele>
        <time>2013-06-30T13:17:22Z</time>
      </trkpt>
      <trkpt lat="40.170400" lon="-5.126233">
        <ele>2372.0</ele>
        <time>2013-06-30T13:17:23Z</time>
      </trkpt>
      <trkpt lat="40.170417" lon="-5.126350">
        <ele>2372.0</ele>
        <time>2013-06-30T13:17:24Z</time>
      </trkpt>
      <trkpt lat="40.170450" lon="-5.126517">
        <ele>2370.0</ele>
        <time>2013-06-30T13:17:25Z</time>
      </trkpt>
      <trkpt lat="40.170467" lon="-5.126683">
        <ele>2368.0</ele>
        <time>2013-06-30T13:17:26Z</time>
      </trkpt>
      <trkpt lat="40.170500" lon="-5.126850">
        <ele>2368.0</ele>
        <time>2013-06-30T13:17:27Z</time>
      </trkpt>
      <trkpt lat="40.170500" lon="-5.126983">
        <ele>2368.0</ele>
        <time>2013-06-30T13:17:28Z</time>
      </trkpt>
      <trkpt lat="40.170517" lon="-5.127117">
        <ele>2368.0</ele>
        <time>2013-06-30T13:17:29Z</time>
      </trkpt>
      <trkpt lat="40.170500" lon="-5.127233">
        <ele>2367.0</ele>
        <time>2013-06-30T13:17:30Z</time>
      </trkpt>
      <trkpt lat="40.170500" lon="-5.127350">
        <ele>2366.0</ele>
        <time>2013-06-30T13:17:31Z</time>
      </trkpt>
      <trkpt lat="40.170483" lon="-5.127483">
        <ele>2364.0</ele>
        <time>2013-06-30T13:17:32Z</time>
      </trkpt>
      <trkpt lat="40.170450" lon="-5.127650">
        <ele>2362.0</ele>
        <time>2013-06-30T13:17:33Z</time>
      </trkpt>
      <trkpt lat="40.170417" lon="-5.127800">
        <ele>2360.0</ele>
        <time>2013-06-30T13:17:34Z</time>
      </trkpt>
      <trkpt lat="40.170367" lon="-5.127933">
        <ele>2359.0</ele>
        <time>2013-06-30T13:17:35Z</time>
      </trkpt>
      <trkpt lat="40.170333" lon="-5.128050">
        <ele>2357.0</ele>
        <time>2013-06-30T13:17:36Z</time>
      </trkpt>
      <trkpt lat="40.170300" lon="-5.128167">
        <ele>2355.0</ele>
        <time>2013-06-30T13:17:37Z</time>
      </trkpt>
      <trkpt lat="40.170267" lon="-5.128300">
        <ele>2351.0</ele>
        <time>2013-06-30T13:17:38Z</time>
      </trkpt>
      <trkpt lat="40.170217" lon="-5.128433">
        <ele>2349.0</ele>
        <time>2013-06-30T13:17:39Z</time>
      </trkpt>
      <trkpt lat="40.170167" lon="-5.128567">
        <ele>2348.0</ele>
        <time>2013-06-30T13:17:40Z</time>
      </trkpt>
      <trkpt lat="40.170117" lon="-5.128683">
        <ele>2346.0</ele>
        <time>2013-06-30T13:17:41Z</time>
      </trkpt>
      <trkpt lat="40.170067" lon="-5.128783">
        <ele>2344.0</ele>
        <time>2013-06-30T13:17:42Z</time>
      </trkpt>
      <trkpt lat="40.170033" lon="-5.128867">
        <ele>2341.0</ele>
        <time>2013-06-30T13:17:43Z</time>
      </trkpt>
      <trkpt lat="40.169983" lon="-5.128983">
        <ele>2338.0</ele>
        <time>2013-06-30T13:17:44Z</time>
      </trkpt>
      <trkpt lat="40.169950" lon="-5.129133">
        <ele>2335.0</ele>
        <time>2013-06-30T13:17:45Z</time>
      </trkpt>
      <trkpt lat="40.169917" lon="-5.129283">
        <ele>2332.0</ele>
        <time>2013-06-30T13:17:46Z</time>
      </trkpt>
      <trkpt lat="40.169867" lon="-5.129467">
        <ele>2330.0</ele>
        <time>2013-06-30T13:17:47Z</time>
      </trkpt>
      <trkpt lat="40.169833" lon="-5.129617">
        <ele>2329.0</ele>
        <time>2013-06-30T13:17:48Z</time>
      </trkpt>
      <trkpt lat="40.169817" lon="-5.129767">
        <ele>2330.0</ele>
        <time>2013-06-30T13:17:49Z</time>
      </trkpt>
      <trkpt lat="40.169783" lon="-5.129900">
        <ele>2329.0</ele>
        <time>2013-06-30T13:17:50Z</time>
      </trkpt>
      <trkpt lat="40.169767" lon="-5.130050">
        <ele>2328.0</ele>
        <time>2013-06-30T13:17:51Z</time>
      </trkpt>
      <trkpt lat="40.169733" lon="-5.130183">
        <ele>2327.0</ele>
        <time>2013-06-30T13:17:52Z</time>
      </trkpt>
      <trkpt lat="40.169717" lon="-5.130317">
        <ele>2323.0</ele>
        <time>2013-06-30T13:17:53Z</time>
      </trkpt>
      <trkpt lat="40.169700" lon="-5.130450">
        <ele>2320.0</ele>
        <time>2013-06-30T13:17:54Z</time>
      </trkpt>
      <trkpt lat="40.169667" lon="-5.130600">
        <ele>2316.0</ele>
        <time>2013-06-30T13:17:55Z</time>
      </trkpt>
      <trkpt lat="40.169633" lon="-5.130783">
        <ele>2312.0</ele>
        <time>2013-06-30T13:17:56Z</time>
      </trkpt>
      <trkpt lat="40.169600" lon="-5.130983">
        <ele>2310.0</ele>
        <time>2013-06-30T13:17:57Z</time>
      </trkpt>
      <trkpt lat="40.169567" lon="-5.131150">
        <ele>2309.0</ele>
        <time>2013-06-30T13:17:58Z</time>
      </trkpt>
      <trkpt lat="40.169550" lon="-5.131317">
        <ele>2308.0</ele>
        <time>2013-06-30T13:17:59Z</time>
      </trkpt>
      <trkpt lat="40.169517" lon="-5.131467">
        <ele>2306.0</ele>
        <time>2013-06-30T13:18:00Z</time>
      </trkpt>
      <trkpt lat="40.169500" lon="-5.131633">
        <ele>2304.0</ele>
        <time>2013-06-30T13:18:01Z</time>
      </trkpt>
      <trkpt lat="40.169467" lon="-5.131800">
        <ele>2302.0</ele>
        <time>2013-06-30T13:18:02Z</time>
      </trkpt>
      <trkpt lat="40.169450" lon="-5.131967">
        <ele>2299.0</ele>
        <time>2013-06-30T13:18:03Z</time>
      </trkpt>
      <trkpt lat="40.169433" lon="-5.132150">
        <ele>2297.0</ele>
        <time>2013-06-30T13:18:04Z</time>
      </trkpt>
      <trkpt lat="40.169400" lon="-5.132317">
        <ele>2295.0</ele>
        <time>2013-06-30T13:18:05Z</time>
      </trkpt>
      <trkpt lat="40.169350" lon="-5.132483">
        <ele>2293.0</ele>
        <time>2013-06-30T13:18:06Z</time>
      </trkpt>
      <trkpt lat="40.169317" lon="-5.132633">
        <ele>2291.0</ele>
        <time>2013-06-30T13:18:07Z</time>
      </trkpt>
      <trkpt lat="40.169283" lon="-5.132800">
        <ele>2289.0</ele>
        <time>2013-06-30T13:18:08Z</time>
      </trkpt>
      <trkpt lat="40.169250" lon="-5.132967">
        <ele>2286.0</ele>
        <time>2013-06-30T13:18:09Z</time>
      </trkpt>
      <trkpt lat="40.169217" lon="-5.133133">
        <ele>2283.0</ele>
        <time>2013-06-30T13:18:10Z</time>
      </trkpt>
      <trkpt lat="40.169183" lon="-5.133283">
        <ele>2281.0</ele>
        <time>2013-06-30T13:18:11Z</time>
      </trkpt>
      <trkpt lat="40.169133" lon="-5.133450">
        <ele>2278.0</ele>
        <time>2013-06-30T13:18:12Z</time>
      </trkpt>
      <trkpt lat="40.169083" lon="-5.133617">
        <ele>2275.0</ele>
        <time>2013-06-30T13:18:13Z</time>
      </trkpt>
      <trkpt lat="40.169033" lon="-5.133783">
        <ele>2272.0</ele>
        <time>2013-06-30T13:18:14Z</time>
      </trkpt>
      <trkpt lat="40.168983" lon="-5.133950">
        <ele>2270.0</ele>
        <time>2013-06-30T13:18:15Z</time>
      </trkpt>
      <trkpt lat="40.168933" lon="-5.134133">
        <ele>2268.0</ele>
        <time>2013-06-30T13:18:16Z</time>
      </trkpt>
      <trkpt lat="40.168900" lon="-5.134283">
        <ele>2267.0</ele>
        <time>2013-06-30T13:18:17Z</time>
      </trkpt>
      <trkpt lat="40.168867" lon="-5.134450">
        <ele>2266.0</ele>
        <time>2013-06-30T13:18:18Z</time>
      </trkpt>
      <trkpt lat="40.168817" lon="-5.134600">
        <ele>2264.0</ele>
        <time>2013-06-30T13:18:19Z</time>
      </trkpt>
      <trkpt lat="40.168767" lon="-5.134750">
        <ele>2261.0</ele>
        <time>2013-06-30T13:18:20Z</time>
      </trkpt>
      <trkpt lat="40.168717" lon="-5.134917">
        <ele>2260.0</ele>
        <time>2013-06-30T13:18:21Z</time>
      </trkpt>
      <trkpt lat="40.168667" lon="-5.135067">
        <ele>2259.0</ele>
        <time>2013-06-30T13:18:22Z</time>
      </trkpt>
      <trkpt lat="40.168633" lon="-5.135200">
        <ele>2257.0</ele>
        <time>2013-06-30T13:18:23Z</time>
      </trkpt>
      <trkpt lat="40.168583" lon="-5.135367">
        <ele>2254.0</ele>
        <time>2013-06-30T13:18:24Z</time>
      </trkpt>
      <trkpt lat="40.168533" lon="-5.135517">
        <ele>2252.0</ele>
        <time>2013-06-30T13:18:25Z</time>
      </trkpt>
      <trkpt lat="40.168467" lon="-5.135683">
        <ele>2250.0</ele>
        <time>2013-06-30T13:18:26Z</time>
      </trkpt>
      <trkpt lat="40.168433" lon="-5.135833">
        <ele>2249.0</ele>
        <time>2013-06-30T13:18:27Z</time>
      </trkpt>
      <trkpt lat="40.168383" lon="-5.135967">
        <ele>2248.0</ele>
        <time>2013-06-30T13:18:28Z</time>
      </trkpt>
      <trkpt lat="40.168350" lon="-5.136117">
        <ele>2246.0</ele>
        <time>2013-06-30T13:18:29Z</time>
      </trkpt>
      <trkpt lat="40.168317" lon="-5.136250">
        <ele>2244.0</ele>
        <time>2013-06-30T13:18:30Z</time>
      </trkpt>
      <trkpt lat="40.168267" lon="-5.136400">
        <ele>2241.0</ele>
        <time>2013-06-30T13:18:31Z</time>
      </trkpt>
      <trkpt lat="40.168217" lon="-5.136567">
        <ele>2238.0</ele>
        <time>2013-06-30T13:18:32Z</time>
      </trkpt>
      <trkpt lat="40.168167" lon="-5.136717">
        <ele>2237.0</ele>
        <time>2013-06-30T13:18:33Z</time>
      </trkpt>
      <trkpt lat="40.168117" lon="-5.136867">
        <ele>2235.0</ele>
        <time>2013-06-30T13:18:34Z</time>
      </trkpt>
      <trkpt lat="40.168067" lon="-5.137000">
        <ele>2234.0</ele>
        <time>2013-06-30T13:18:35Z</time>
      </trkpt>
      <trkpt lat="40.168017" lon="-5.137133">
        <ele>2233.0</ele>
        <time>2013-06-30T13:18:36Z</time>
      </trkpt>
      <trkpt lat="40.167967" lon="-5.137267">
        <ele>2231.0</ele>
        <time>2013-06-30T13:18:37Z</time>
      </trkpt>
      <trkpt lat="40.167933" lon="-5.137400">
        <ele>2228.0</ele>
        <time>2013-06-30T13:18:38Z</time>
      </trkpt>
      <trkpt lat="40.167883" lon="-5.137567">
        <ele>2225.0</ele>
        <time>2013-06-30T13:18:39Z</time>
      </trkpt>
      <trkpt lat="40.167833" lon="-5.137717">
        <ele>2223.0</ele>
        <time>2013-06-30T13:18:40Z</time>
      </trkpt>
      <trkpt lat="40.167767" lon="-5.137883">
        <ele>2222.0</ele>
        <time>2013-06-30T13:18:41Z</time>
      </trkpt>
      <trkpt lat="40.167717" lon="-5.138033">
        <ele>2221.0</ele>
        <time>2013-06-30T13:18:42Z</time>
      </trkpt>
      <trkpt lat="40.167667" lon="-5.138167">
        <ele>2220.0</ele>
        <time>2013-06-30T13:18:43Z</time>
      </trkpt>
      <trkpt lat="40.167633" lon="-5.138300">
        <ele>2219.0</ele>
        <time>2013-06-30T13:18:44Z</time>
      </trkpt>
      <trkpt lat="40.167583" lon="-5.138450">
        <ele>2218.0</ele>
        <time>2013-06-30T13:18:45Z</time>
      </trkpt>
      <trkpt lat="40.167550" lon="-5.138583">
        <ele>2216.0</ele>
        <time>2013-06-30T13:18:46Z</time>
      </trkpt>
      <trkpt lat="40.167500" lon="-5.138750">
        <ele>2214.0</ele>
        <time>2013-06-30T13:18:47Z</time>
      </trkpt>
      <trkpt lat="40.167433" lon="-5.138883">
        <ele>2212.0</ele>
        <time>2013-06-30T13:18:48Z</time>
      </trkpt>
      <trkpt lat="40.167367" lon="-5.139033">
        <ele>2211.0</ele>
        <time>2013-06-30T13:18:49Z</time>
      </trkpt>
      <trkpt lat="40.167300" lon="-5.139167">
        <ele>2211.0</ele>
        <time>2013-06-30T13:18:50Z</time>
      </trkpt>
      <trkpt lat="40.167233" lon="-5.139283">
        <ele>2211.0</ele>
        <time>2013-06-30T13:18:51Z</time>
      </trkpt>
      <trkpt lat="40.167183" lon="-5.139400">
        <ele>2210.0</ele>
        <time>2013-06-30T13:18:52Z</time>
      </trkpt>
      <trkpt lat="40.167117" lon="-5.139533">
        <ele>2209.0</ele>
        <time>2013-06-30T13:18:53Z</time>
      </trkpt>
      <trkpt lat="40.167050" lon="-5.139667">
        <ele>2207.0</ele>
        <time>2013-06-30T13:18:54Z</time>
      </trkpt>
      <trkpt lat="40.167000" lon="-5.139800">
        <ele>2206.0</ele>
        <time>2013-06-30T13:18:55Z</time>
      </trkpt>
      <trkpt lat="40.166917" lon="-5.139933">
        <ele>2205.0</ele>
        <time>2013-06-30T13:18:56Z</time>
      </trkpt>
      <trkpt lat="40.166850" lon="-5.140067">
        <ele>2204.0</ele>
        <time>2013-06-30T13:18:57Z</time>
      </trkpt>
      <trkpt lat="40.166783" lon="-5.140200">
        <ele>2203.0</ele>
        <time>2013-06-30T13:18:58Z</time>
      </trkpt>
      <trkpt lat="40.166717" lon="-5.140350">
        <ele>2202.0</ele>
        <time>2013-06-30T13:18:59Z</time>
      </trkpt>
      <trkpt lat="40.166633" lon="-5.140483">
        <ele>2201.0</ele>
        <time>2013-06-30T13:19:00Z</time>
      </trkpt>
      <trkpt lat="40.166567" lon="-5.140617">
        <ele>2200.0</ele>
        <time>2013-06-30T13:19:01Z</time>
      </trkpt>
      <trkpt lat="40.166483" lon="-5.140750">
        <ele>2198.0</ele>
        <time>2013-06-30T13:19:02Z</time>
      </trkpt>
      <trkpt lat="40.166400" lon="-5.140900">
        <ele>2197.0</ele>
        <time>2013-06-30T13:19:03Z</time>
      </trkpt>
      <trkpt lat="40.166333" lon="-5.141050">
        <ele>2195.0</ele>
        <time>2013-06-30T13:19:04Z</time>
      </trkpt>
      <trkpt lat="40.166250" lon="-5.141200">
        <ele>2194.0</ele>
        <time>2013-06-30T13:19:05Z</time>
      </trkpt>
      <trkpt lat="40.166183" lon="-5.141350">
        <ele>2194.0</ele>
        <time>2013-06-30T13:19:06Z</time>
      </trkpt>
      <trkpt lat="40.166100" lon="-5.141483">
        <ele>2193.0</ele>
        <time>2013-06-30T13:19:07Z</time>
      </trkpt>
      <trkpt lat="40.166017" lon="-5.141617">
        <ele>2191.0</ele>
        <time>2013-06-30T13:19:08Z</time>
      </trkpt>
      <trkpt lat="40.165950" lon="-5.141767">
        <ele>2189.0</ele>
        <time>2013-06-30T13:19:09Z</time>
      </trkpt>
      <trkpt lat="40.165867" lon="-5.141917">
        <ele>2188.0</ele>
        <time>2013-06-30T13:19:10Z</time>
      </trkpt>
      <trkpt lat="40.165783" lon="-5.142067">
        <ele>2187.0</ele>
        <time>2013-06-30T13:19:11Z</time>
      </trkpt>
      <trkpt lat="40.165717" lon="-5.142217">
        <ele>2185.0</ele>
        <time>2013-06-30T13:19:12Z</time>
      </trkpt>
      <trkpt lat="40.165633" lon="-5.142367">
        <ele>2184.0</ele>
        <time>2013-06-30T13:19:13Z</time>
      </trkpt>
      <trkpt lat="40.165567" lon="-5.142517">
        <ele>2183.0</ele>
        <time>2013-06-30T13:19:14Z</time>
      </trkpt>
      <trkpt lat="40.165500" lon="-5.142667">
        <ele>2183.0</ele>
        <time>2013-06-30T13:19:15Z</time>
      </trkpt>
      <trkpt lat="40.165417" lon="-5.142800">
        <ele>2182.0</ele>
        <time>2013-06-30T13:19:16Z</time>
      </trkpt>
      <trkpt lat="40.165350" lon="-5.142950">
        <ele>2180.0</ele>
        <time>2013-06-30T13:19:17Z</time>
      </trkpt>
      <trkpt lat="40.165283" lon="-5.143100">
        <ele>2179.0</ele>
        <time>2013-06-30T13:19:18Z</time>
      </trkpt>
      <trkpt lat="40.165217" lon="-5.143250">
        <ele>2177.0</ele>
        <time>2013-06-30T13:19:19Z</time>
      </trkpt>
      <trkpt lat="40.165150" lon="-5.143417">
        <ele>2175.0</ele>
        <time>2013-06-30T13:19:20Z</time>
      </trkpt>
      <trkpt lat="40.165083" lon="-5.143567">
        <ele>2174.0</ele>
        <time>2013-06-30T13:19:21Z</time>
      </trkpt>
      <trkpt lat="40.165017" lon="-5.143717">
        <ele>2173.0</ele>
        <time>2013-06-30T13:19:22Z</time>
      </trkpt>
      <trkpt lat="40.164950" lon="-5.143850">
        <ele>2172.0</ele>
        <time>2013-06-30T13:19:23Z</time>
      </trkpt>
      <trkpt lat="40.164883" lon="-5.144000">
        <ele>2170.0</ele>
        <time>2013-06-30T13:19:24Z</time>
      </trkpt>
      <trkpt lat="40.164817" lon="-5.144150">
        <ele>2169.0</ele>
        <time>2013-06-30T13:19:25Z</time>
      </trkpt>
      <trkpt lat="40.164750" lon="-5.144300">
        <ele>2167.0</ele>
        <time>2013-06-30T13:19:26Z</time>
      </trkpt>
      <trkpt lat="40.164683" lon="-5.144450">
        <ele>2166.0</ele>
        <time>2013-06-30T13:19:27Z</time>
      </trkpt>
      <trkpt lat="40.164633" lon="-5.144600">
        <ele>2164.0</ele>
        <time>2013-06-30T13:19:28Z</time>
      </trkpt>
      <trkpt lat="40.164567" lon="-5.144750">
        <ele>2163.0</ele>
        <time>2013-06-30T13:19:29Z</time>
      </trkpt>
      <trkpt lat="40.164500" lon="-5.144883">
        <ele>2162.0</ele>
        <time>2013-06-30T13:19:30Z</time>
      </trkpt>
      <trkpt lat="40.164433" lon="-5.145033">
        <ele>2161.0</ele>
        <time>2013-06-30T13:19:31Z</time>
      </trkpt>
      <trkpt lat="40.164367" lon="-5.145167">
        <ele>2159.0</ele>
        <time>2013-06-30T13:19:32Z</time>
      </trkpt>
      <trkpt lat="40.164283" lon="-5.145317">
        <ele>2158.0</ele>
        <time>2013-06-30T13:19:33Z</time>
      </trkpt>
      <trkpt lat="40.164217" lon="-5.145467">
        <ele>2157.0</ele>
        <time>2013-06-30T13:19:34Z</time>
      </trkpt>
      <trkpt lat="40.164150" lon="-5.145600">
        <ele>2155.0</ele>
        <time>2013-06-30T13:19:35Z</time>
      </trkpt>
      <trkpt lat="40.164083" lon="-5.145750">
        <ele>2154.0</ele>
        <time>2013-06-30T13:19:36Z</time>
      </trkpt>
      <trkpt lat="40.164017" lon="-5.145883">
        <ele>2153.0</ele>
        <time>2013-06-30T13:19:37Z</time>
      </trkpt>
      <trkpt lat="40.163967" lon="-5.146017">
        <ele>2152.0</ele>
        <time>2013-06-30T13:19:38Z</time>
      </trkpt>
      <trkpt lat="40.163917" lon="-5.146167">
        <ele>2150.0</ele>
        <time>2013-06-30T13:19:39Z</time>
      </trkpt>
      <trkpt lat="40.163867" lon="-5.146317">
        <ele>2148.0</ele>
        <time>2013-06-30T13:19:40Z</time>
      </trkpt>
      <trkpt lat="40.163817" lon="-5.146483">
        <ele>2147.0</ele>
        <time>2013-06-30T13:19:41Z</time>
      </trkpt>
      <trkpt lat="40.163767" lon="-5.146650">
        <ele>2145.0</ele>
        <time>2013-06-30T13:19:42Z</time>
      </trkpt>
      <trkpt lat="40.163700" lon="-5.146800">
        <ele>2145.0</ele>
        <time>2013-06-30T13:19:43Z</time>
      </trkpt>
      <trkpt lat="40.163650" lon="-5.146933">
        <ele>2144.0</ele>
        <time>2013-06-30T13:19:44Z</time>
      </trkpt>
      <trkpt lat="40.163583" lon="-5.147083">
        <ele>2144.0</ele>
        <time>2013-06-30T13:19:45Z</time>
      </trkpt>
      <trkpt lat="40.163533" lon="-5.147217">
        <ele>2143.0</ele>
        <time>2013-06-30T13:19:46Z</time>
      </trkpt>
      <trkpt lat="40.163467" lon="-5.147350">
        <ele>2141.0</ele>
        <time>2013-06-30T13:19:47Z</time>
      </trkpt>
      <trkpt lat="40.163417" lon="-5.147500">
        <ele>2139.0</ele>
        <time>2013-06-30T13:19:48Z</time>
      </trkpt>
      <trkpt lat="40.163350" lon="-5.147650">
        <ele>2138.0</ele>
        <time>2013-06-30T13:19:49Z</time>
      </trkpt>
      <trkpt lat="40.163300" lon="-5.147800">
        <ele>2137.0</ele>
        <time>2013-06-30T13:19:50Z</time>
      </trkpt>
      <trkpt lat="40.163233" lon="-5.147950">
        <ele>2137.0</ele>
        <time>2013-06-30T13:19:51Z</time>
      </trkpt>
      <trkpt lat="40.163183" lon="-5.148100">
        <ele>2136.0</ele>
        <time>2013-06-30T13:19:52Z</time>
      </trkpt>
      <trkpt lat="40.163133" lon="-5.148233">
        <ele>2136.0</ele>
        <time>2013-06-30T13:19:53Z</time>
      </trkpt>
      <trkpt lat="40.163067" lon="-5.148367">
        <ele>2135.0</ele>
        <time>2013-06-30T13:19:54Z</time>
      </trkpt>
      <trkpt lat="40.163000" lon="-5.148517">
        <ele>2134.0</ele>
        <time>2013-06-30T13:19:55Z</time>
      </trkpt>
      <trkpt lat="40.162950" lon="-5.148650">
        <ele>2133.0</ele>
        <time>2013-06-30T13:19:56Z</time>
      </trkpt>
      <trkpt lat="40.162883" lon="-5.148800">
        <ele>2132.0</ele>
        <time>2013-06-30T13:19:57Z</time>
      </trkpt>
      <trkpt lat="40.162833" lon="-5.148950">
        <ele>2131.0</ele>
        <time>2013-06-30T13:19:58Z</time>
      </trkpt>
      <trkpt lat="40.162767" lon="-5.149117">
        <ele>2131.0</ele>
        <time>2013-06-30T13:19:59Z</time>
      </trkpt>
      <trkpt lat="40.162717" lon="-5.149267">
        <ele>2130.0</ele>
        <time>2013-06-30T13:20:00Z</time>
      </trkpt>
      <trkpt lat="40.162650" lon="-5.149417">
        <ele>2130.0</ele>
        <time>2013-06-30T13:20:01Z</time>
      </trkpt>
      <trkpt lat="40.162583" lon="-5.149550">
        <ele>2131.0</ele>
        <time>2013-06-30T13:20:02Z</time>
      </trkpt>
      <trkpt lat="40.162517" lon="-5.149683">
        <ele>2131.0</ele>
        <time>2013-06-30T13:20:03Z</time>
      </trkpt>
      <trkpt lat="40.162450" lon="-5.149833">
        <ele>2131.0</ele>
        <time>2013-06-30T13:20:04Z</time>
      </trkpt>
      <trkpt lat="40.162383" lon="-5.149967">
        <ele>2131.0</ele>
        <time>2013-06-30T13:20:05Z</time>
      </trkpt>
      <trkpt lat="40.162317" lon="-5.150117">
        <ele>2130.0</ele>
        <time>2013-06-30T13:20:06Z</time>
      </trkpt>
      <trkpt lat="40.162250" lon="-5.150250">
        <ele>2130.0</ele>
        <time>2013-06-30T13:20:07Z</time>
      </trkpt>
      <trkpt lat="40.162167" lon="-5.150383">
        <ele>2129.0</ele>
        <time>2013-06-30T13:20:08Z</time>
      </trkpt>
      <trkpt lat="40.162100" lon="-5.150533">
        <ele>2129.0</ele>
        <time>2013-06-30T13:20:09Z</time>
      </trkpt>
      <trkpt lat="40.162017" lon="-5.150667">
        <ele>2129.0</ele>
        <time>2013-06-30T13:20:10Z</time>
      </trkpt>
      <trkpt lat="40.161950" lon="-5.150800">
        <ele>2129.0</ele>
        <time>2013-06-30T13:20:11Z</time>
      </trkpt>
      <trkpt lat="40.161867" lon="-5.150933">
        <ele>2130.0</ele>
        <time>2013-06-30T13:20:12Z</time>
      </trkpt>
      <trkpt lat="40.161800" lon="-5.151067">
        <ele>2129.0</ele>
        <time>2013-06-30T13:20:13Z</time>
      </trkpt>
      <trkpt lat="40.161733" lon="-5.151200">
        <ele>2129.0</ele>
        <time>2013-06-30T13:20:14Z</time>
      </trkpt>
      <trkpt lat="40.161650" lon="-5.151333">
        <ele>2128.0</ele>
        <time>2013-06-30T13:20:15Z</time>
      </trkpt>
      <trkpt lat="40.161600" lon="-5.151483">
        <ele>2128.0</ele>
        <time>2013-06-30T13:20:16Z</time>
      </trkpt>
      <trkpt lat="40.161533" lon="-5.151617">
        <ele>2128.0</ele>
        <time>2013-06-30T13:20:17Z</time>
      </trkpt>
      <trkpt lat="40.161467" lon="-5.151750">
        <ele>2128.0</ele>
        <time>2013-06-30T13:20:18Z</time>
      </trkpt>
      <trkpt lat="40.161400" lon="-5.151867">
        <ele>2127.0</ele>
        <time>2013-06-30T13:20:19Z</time>
      </trkpt>
      <trkpt lat="40.161333" lon="-5.152000">
        <ele>2126.0</ele>
        <time>2013-06-30T13:20:20Z</time>
      </trkpt>
      <trkpt lat="40.161267" lon="-5.152133">
        <ele>2126.0</ele>
        <time>2013-06-30T13:20:21Z</time>
      </trkpt>
      <trkpt lat="40.161200" lon="-5.152267">
        <ele>2126.0</ele>
        <time>2013-06-30T13:20:22Z</time>
      </trkpt>
      <trkpt lat="40.161133" lon="-5.152400">
        <ele>2125.0</ele>
        <time>2013-06-30T13:20:23Z</time>
      </trkpt>
      <trkpt lat="40.161067" lon="-5.152517">
        <ele>2124.0</ele>
        <time>2013-06-30T13:20:24Z</time>
      </trkpt>
      <trkpt lat="40.161000" lon="-5.152650">
        <ele>2123.0</ele>
        <time>2013-06-30T13:20:25Z</time>
      </trkpt>
      <trkpt lat="40.160950" lon="-5.152783">
        <ele>2122.0</ele>
        <time>2013-06-30T13:20:26Z</time>
      </trkpt>
      <trkpt lat="40.160883" lon="-5.152917">
        <ele>2121.0</ele>
        <time>2013-06-30T13:20:27Z</time>
      </trkpt>
      <trkpt lat="40.160800" lon="-5.153050">
        <ele>2120.0</ele>
        <time>2013-06-30T13:20:28Z</time>
      </trkpt>
      <trkpt lat="40.160733" lon="-5.153167">
        <ele>2119.0</ele>
        <time>2013-06-30T13:20:29Z</time>
      </trkpt>
      <trkpt lat="40.160667" lon="-5.153300">
        <ele>2118.0</ele>
        <time>2013-06-30T13:20:30Z</time>
      </trkpt>
      <trkpt lat="40.160600" lon="-5.153433">
        <ele>2117.0</ele>
        <time>2013-06-30T13:20:31Z</time>
      </trkpt>
      <trkpt lat="40.160533" lon="-5.153567">
        <ele>2116.0</ele>
        <time>2013-06-30T13:20:32Z</time>
      </trkpt>
      <trkpt lat="40.160450" lon="-5.153683">
        <ele>2114.0</ele>
        <time>2013-06-30T13:20:33Z</time>
      </trkpt>
      <trkpt lat="40.160367" lon="-5.153800">
        <ele>2113.0</ele>
        <time>2013-06-30T13:20:34Z</time>
      </trkpt>
      <trkpt lat="40.160300" lon="-5.153917">
        <ele>2112.0</ele>
        <time>2013-06-30T13:20:35Z</time>
      </trkpt>
      <trkpt lat="40.160217" lon="-5.154050">
        <ele>2110.0</ele>
        <time>2013-06-30T13:20:36Z</time>
      </trkpt>
      <trkpt lat="40.160150" lon="-5.154183">
        <ele>2108.0</ele>
        <time>2013-06-30T13:20:37Z</time>
      </trkpt>
      <trkpt lat="40.160083" lon="-5.154317">
        <ele>2107.0</ele>
        <time>2013-06-30T13:20:38Z</time>
      </trkpt>
      <trkpt lat="40.160017" lon="-5.154433">
        <ele>2106.0</ele>
        <time>2013-06-30T13:20:39Z</time>
      </trkpt>
      <trkpt lat="40.159950" lon="-5.154567">
        <ele>2105.0</ele>
        <time>2013-06-30T13:20:40Z</time>
      </trkpt>
      <trkpt lat="40.159883" lon="-5.154683">
        <ele>2104.0</ele>
        <time>2013-06-30T13:20:41Z</time>
      </trkpt>
      <trkpt lat="40.159817" lon="-5.154817">
        <ele>2103.0</ele>
        <time>2013-06-30T13:20:42Z</time>
      </trkpt>
      <trkpt lat="40.159733" lon="-5.154950">
        <ele>2102.0</ele>
        <time>2013-06-30T13:20:43Z</time>
      </trkpt>
      <trkpt lat="40.159667" lon="-5.155083">
        <ele>2102.0</ele>
        <time>2013-06-30T13:20:44Z</time>
      </trkpt>
      <trkpt lat="40.159600" lon="-5.155217">
        <ele>2101.0</ele>
        <time>2013-06-30T13:20:45Z</time>
      </trkpt>
      <trkpt lat="40.159517" lon="-5.155333">
        <ele>2099.0</ele>
        <time>2013-06-30T13:20:46Z</time>
      </trkpt>
      <trkpt lat="40.159433" lon="-5.155450">
        <ele>2098.0</ele>
        <time>2013-06-30T13:20:47Z</time>
      </trkpt>
      <trkpt lat="40.159367" lon="-5.155583">
        <ele>2097.0</ele>
        <time>2013-06-30T13:20:48Z</time>
      </trkpt>
      <trkpt lat="40.159283" lon="-5.155717">
        <ele>2095.0</ele>
        <time>2013-06-30T13:20:49Z</time>
      </trkpt>
      <trkpt lat="40.159200" lon="-5.155850">
        <ele>2094.0</ele>
        <time>2013-06-30T13:20:50Z</time>
      </trkpt>
      <trkpt lat="40.159117" lon="-5.155983">
        <ele>2093.0</ele>
        <time>2013-06-30T13:20:51Z</time>
      </trkpt>
      <trkpt lat="40.159017" lon="-5.156100">
        <ele>2093.0</ele>
        <time>2013-06-30T13:20:52Z</time>
      </trkpt>
      <trkpt lat="40.158950" lon="-5.156217">
        <ele>2093.0</ele>
        <time>2013-06-30T13:20:53Z</time>
      </trkpt>
      <trkpt lat="40.158883" lon="-5.156317">
        <ele>2093.0</ele>
        <time>2013-06-30T13:20:54Z</time>
      </trkpt>
      <trkpt lat="40.158817" lon="-5.156417">
        <ele>2092.0</ele>
        <time>2013-06-30T13:20:55Z</time>
      </trkpt>
      <trkpt lat="40.158767" lon="-5.156533">
        <ele>2091.0</ele>
        <time>2013-06-30T13:20:56Z</time>
      </trkpt>
      <trkpt lat="40.158717" lon="-5.156650">
        <ele>2089.0</ele>
        <time>2013-06-30T13:20:57Z</time>
      </trkpt>
      <trkpt lat="40.158650" lon="-5.156783">
        <ele>2088.0</ele>
        <time>2013-06-30T13:20:58Z</time>
      </trkpt>
      <trkpt lat="40.158600" lon="-5.156883">
        <ele>2086.0</ele>
        <time>2013-06-30T13:20:59Z</time>
      </trkpt>
      <trkpt lat="40.158567" lon="-5.157000">
        <ele>2084.0</ele>
        <time>2013-06-30T13:21:00Z</time>
      </trkpt>
      <trkpt lat="40.158517" lon="-5.157100">
        <ele>2082.0</ele>
        <time>2013-06-30T13:21:01Z</time>
      </trkpt>
      <trkpt lat="40.158483" lon="-5.157233">
        <ele>2080.0</ele>
        <time>2013-06-30T13:21:02Z</time>
      </trkpt>
      <trkpt lat="40.158433" lon="-5.157367">
        <ele>2077.0</ele>
        <time>2013-06-30T13:21:03Z</time>
      </trkpt>
      <trkpt lat="40.158383" lon="-5.157517">
        <ele>2075.0</ele>
        <time>2013-06-30T13:21:04Z</time>
      </trkpt>
      <trkpt lat="40.158333" lon="-5.157650">
        <ele>2073.0</ele>
        <time>2013-06-30T13:21:05Z</time>
      </trkpt>
      <trkpt lat="40.158283" lon="-5.157783">
        <ele>2071.0</ele>
        <time>2013-06-30T13:21:06Z</time>
      </trkpt>
      <trkpt lat="40.158233" lon="-5.157917">
        <ele>2070.0</ele>
        <time>2013-06-30T13:21:07Z</time>
      </trkpt>
      <trkpt lat="40.158183" lon="-5.158033">
        <ele>2069.0</ele>
        <time>2013-06-30T13:21:08Z</time>
      </trkpt>
      <trkpt lat="40.158150" lon="-5.158150">
        <ele>2068.0</ele>
        <time>2013-06-30T13:21:09Z</time>
      </trkpt>
      <trkpt lat="40.158100" lon="-5.158267">
        <ele>2066.0</ele>
        <time>2013-06-30T13:21:10Z</time>
      </trkpt>
      <trkpt lat="40.158067" lon="-5.158383">
        <ele>2064.0</ele>
        <time>2013-06-30T13:21:11Z</time>
      </trkpt>
      <trkpt lat="40.158017" lon="-5.158517">
        <ele>2062.0</ele>
        <time>2013-06-30T13:21:12Z</time>
      </trkpt>
      <trkpt lat="40.157950" lon="-5.158650">
        <ele>2058.0</ele>
        <time>2013-06-30T13:21:13Z</time>
      </trkpt>
      <trkpt lat="40.157900" lon="-5.158783">
        <ele>2054.0</ele>
        <time>2013-06-30T13:21:14Z</time>
      </trkpt>
      <trkpt lat="40.157817" lon="-5.158933">
        <ele>2051.0</ele>
        <time>2013-06-30T13:21:15Z</time>
      </trkpt>
      <trkpt lat="40.157767" lon="-5.159067">
        <ele>2048.0</ele>
        <time>2013-06-30T13:21:16Z</time>
      </trkpt>
      <trkpt lat="40.157717" lon="-5.159217">
        <ele>2047.0</ele>
        <time>2013-06-30T13:21:17Z</time>
      </trkpt>
      <trkpt lat="40.157667" lon="-5.159350">
        <ele>2045.0</ele>
        <time>2013-06-30T13:21:18Z</time>
      </trkpt>
      <trkpt lat="40.157617" lon="-5.159483">
        <ele>2044.0</ele>
        <time>2013-06-30T13:21:19Z</time>
      </trkpt>
      <trkpt lat="40.157583" lon="-5.159617">
        <ele>2042.0</ele>
        <time>2013-06-30T13:21:20Z</time>
      </trkpt>
      <trkpt lat="40.157533" lon="-5.159733">
        <ele>2041.0</ele>
        <time>2013-06-30T13:21:21Z</time>
      </trkpt>
      <trkpt lat="40.157500" lon="-5.159867">
        <ele>2040.0</ele>
        <time>2013-06-30T13:21:22Z</time>
      </trkpt>
      <trkpt lat="40.157467" lon="-5.160000">
        <ele>2040.0</ele>
        <time>2013-06-30T13:21:23Z</time>
      </trkpt>
      <trkpt lat="40.157433" lon="-5.160117">
        <ele>2040.0</ele>
        <time>2013-06-30T13:21:24Z</time>
      </trkpt>
      <trkpt lat="40.157400" lon="-5.160233">
        <ele>2039.0</ele>
        <time>2013-06-30T13:21:25Z</time>
      </trkpt>
      <trkpt lat="40.157367" lon="-5.160367">
        <ele>2038.0</ele>
        <time>2013-06-30T13:21:26Z</time>
      </trkpt>
      <trkpt lat="40.157333" lon="-5.160483">
        <ele>2037.0</ele>
        <time>2013-06-30T13:21:27Z</time>
      </trkpt>
      <trkpt lat="40.157300" lon="-5.160617">
        <ele>2035.0</ele>
        <time>2013-06-30T13:21:28Z</time>
      </trkpt>
      <trkpt lat="40.157267" lon="-5.160733">
        <ele>2034.0</ele>
        <time>2013-06-30T13:21:29Z</time>
      </trkpt>
      <trkpt lat="40.157217" lon="-5.160867">
        <ele>2033.0</ele>
        <time>2013-06-30T13:21:30Z</time>
      </trkpt>
      <trkpt lat="40.157183" lon="-5.161000">
        <ele>2032.0</ele>
        <time>2013-06-30T13:21:31Z</time>
      </trkpt>
      <trkpt lat="40.157150" lon="-5.161117">
        <ele>2030.0</ele>
        <time>2013-06-30T13:21:32Z</time>
      </trkpt>
      <trkpt lat="40.157117" lon="-5.161250">
        <ele>2029.0</ele>
        <time>2013-06-30T13:21:33Z</time>
      </trkpt>
      <trkpt lat="40.157083" lon="-5.161367">
        <ele>2028.0</ele>
        <time>2013-06-30T13:21:34Z</time>
      </trkpt>
      <trkpt lat="40.157033" lon="-5.161483">
        <ele>2026.0</ele>
        <time>2013-06-30T13:21:35Z</time>
      </trkpt>
      <trkpt lat="40.157000" lon="-5.161600">
        <ele>2025.0</ele>
        <time>2013-06-30T13:21:36Z</time>
      </trkpt>
      <trkpt lat="40.156967" lon="-5.161733">
        <ele>2023.0</ele>
        <time>2013-06-30T13:21:37Z</time>
      </trkpt>
      <trkpt lat="40.156917" lon="-5.161867">
        <ele>2022.0</ele>
        <time>2013-06-30T13:21:38Z</time>
      </trkpt>
      <trkpt lat="40.156883" lon="-5.161983">
        <ele>2021.0</ele>
        <time>2013-06-30T13:21:39Z</time>
      </trkpt>
      <trkpt lat="40.156850" lon="-5.162100">
        <ele>2020.0</ele>
        <time>2013-06-30T13:21:40Z</time>
      </trkpt>
      <trkpt lat="40.156817" lon="-5.162217">
        <ele>2018.0</ele>
        <time>2013-06-30T13:21:41Z</time>
      </trkpt>
      <trkpt lat="40.156783" lon="-5.162333">
        <ele>2016.0</ele>
        <time>2013-06-30T13:21:42Z</time>
      </trkpt>
      <trkpt lat="40.156750" lon="-5.162450">
        <ele>2014.0</ele>
        <time>2013-06-30T13:21:43Z</time>
      </trkpt>
      <trkpt lat="40.156717" lon="-5.162567">
        <ele>2012.0</ele>
        <time>2013-06-30T13:21:44Z</time>
      </trkpt>
      <trkpt lat="40.156683" lon="-5.162683">
        <ele>2011.0</ele>
        <time>2013-06-30T13:21:45Z</time>
      </trkpt>
      <trkpt lat="40.156633" lon="-5.162800">
        <ele>2009.0</ele>
        <time>2013-06-30T13:21:46Z</time>
      </trkpt>
      <trkpt lat="40.156600" lon="-5.162917">
        <ele>2007.0</ele>
        <time>2013-06-30T13:21:47Z</time>
      </trkpt>
      <trkpt lat="40.156550" lon="-5.163017">
        <ele>2005.0</ele>
        <time>2013-06-30T13:21:48Z</time>
      </trkpt>
      <trkpt lat="40.156500" lon="-5.163133">
        <ele>2004.0</ele>
        <time>2013-06-30T13:21:49Z</time>
      </trkpt>
      <trkpt lat="40.156467" lon="-5.163233">
        <ele>2002.0</ele>
        <time>2013-06-30T13:21:50Z</time>
      </trkpt>
      <trkpt lat="40.156417" lon="-5.163333">
        <ele>2000.0</ele>
        <time>2013-06-30T13:21:51Z</time>
      </trkpt>
      <trkpt lat="40.156367" lon="-5.163433">
        <ele>1998.0</ele>
        <time>2013-06-30T13:21:52Z</time>
      </trkpt>
      <trkpt lat="40.156333" lon="-5.163533">
        <ele>1996.0</ele>
        <time>2013-06-30T13:21:53Z</time>
      </trkpt>
      <trkpt lat="40.156300" lon="-5.163650">
        <ele>1994.0</ele>
        <time>2013-06-30T13:21:54Z</time>
      </trkpt>
      <trkpt lat="40.156250" lon="-5.163750">
        <ele>1992.0</ele>
        <time>2013-06-30T13:21:55Z</time>
      </trkpt>
      <trkpt lat="40.156200" lon="-5.163867">
        <ele>1990.0</ele>
        <time>2013-06-30T13:21:56Z</time>
      </trkpt>
      <trkpt lat="40.156167" lon="-5.163983">
        <ele>1989.0</ele>
        <time>2013-06-30T13:21:57Z</time>
      </trkpt>
      <trkpt lat="40.156117" lon="-5.164083">
        <ele>1988.0</ele>
        <time>2013-06-30T13:21:58Z</time>
      </trkpt>
      <trkpt lat="40.156083" lon="-5.164200">
        <ele>1987.0</ele>
        <time>2013-06-30T13:21:59Z</time>
      </trkpt>
      <trkpt lat="40.156050" lon="-5.164300">
        <ele>1987.0</ele>
        <time>2013-06-30T13:22:00Z</time>
      </trkpt>
      <trkpt lat="40.156017" lon="-5.164417">
        <ele>1986.0</ele>
        <time>2013-06-30T13:22:01Z</time>
      </trkpt>
      <trkpt lat="40.155983" lon="-5.164517">
        <ele>1985.0</ele>
        <time>2013-06-30T13:22:02Z</time>
      </trkpt>
      <trkpt lat="40.155950" lon="-5.164600">
        <ele>1984.0</ele>
        <time>2013-06-30T13:22:03Z</time>
      </trkpt>
      <trkpt lat="40.155900" lon="-5.164700">
        <ele>1984.0</ele>
        <time>2013-06-30T13:22:04Z</time>
      </trkpt>
      <trkpt lat="40.155867" lon="-5.164800">
        <ele>1983.0</ele>
        <time>2013-06-30T13:22:05Z</time>
      </trkpt>
      <trkpt lat="40.155850" lon="-5.164883">
        <ele>1983.0</ele>
        <time>2013-06-30T13:22:06Z</time>
      </trkpt>
      <trkpt lat="40.155850" lon="-5.164983">
        <ele>1983.0</ele>
        <time>2013-06-30T13:22:07Z</time>
      </trkpt>
      <trkpt lat="40.155833" lon="-5.165067">
        <ele>1981.0</ele>
        <time>2013-06-30T13:22:08Z</time>
      </trkpt>
      <trkpt lat="40.155817" lon="-5.165150">
        <ele>1979.0</ele>
        <time>2013-06-30T13:22:09Z</time>
      </trkpt>
      <trkpt lat="40.155783" lon="-5.165250">
        <ele>1976.0</ele>
        <time>2013-06-30T13:22:10Z</time>
      </trkpt>
      <trkpt lat="40.155767" lon="-5.165350">
        <ele>1973.0</ele>
        <time>2013-06-30T13:22:11Z</time>
      </trkpt>
      <trkpt lat="40.155717" lon="-5.165467">
        <ele>1971.0</ele>
        <time>2013-06-30T13:22:12Z</time>
      </trkpt>
      <trkpt lat="40.155683" lon="-5.165567">
        <ele>1970.0</ele>
        <time>2013-06-30T13:22:13Z</time>
      </trkpt>
      <trkpt lat="40.155650" lon="-5.165650">
        <ele>1968.0</ele>
        <time>2013-06-30T13:22:14Z</time>
      </trkpt>
      <trkpt lat="40.155617" lon="-5.165733">
        <ele>1966.0</ele>
        <time>2013-06-30T13:22:15Z</time>
      </trkpt>
      <trkpt lat="40.155583" lon="-5.165817">
        <ele>1963.0</ele>
        <time>2013-06-30T13:22:16Z</time>
      </trkpt>
      <trkpt lat="40.155533" lon="-5.165900">
        <ele>1960.0</ele>
        <time>2013-06-30T13:22:17Z</time>
      </trkpt>
      <trkpt lat="40.155500" lon="-5.166000">
        <ele>1957.0</ele>
        <time>2013-06-30T13:22:18Z</time>
      </trkpt>
      <trkpt lat="40.155483" lon="-5.166117">
        <ele>1954.0</ele>
        <time>2013-06-30T13:22:19Z</time>
      </trkpt>
      <trkpt lat="40.155450" lon="-5.166217">
        <ele>1952.0</ele>
        <time>2013-06-30T13:22:20Z</time>
      </trkpt>
      <trkpt lat="40.155417" lon="-5.166317">
        <ele>1950.0</ele>
        <time>2013-06-30T13:22:21Z</time>
      </trkpt>
      <trkpt lat="40.155400" lon="-5.166417">
        <ele>1947.0</ele>
        <time>2013-06-30T13:22:22Z</time>
      </trkpt>
      <trkpt lat="40.155367" lon="-5.166517">
        <ele>1945.0</ele>
        <time>2013-06-30T13:22:23Z</time>
      </trkpt>
      <trkpt lat="40.155333" lon="-5.166633">
        <ele>1942.0</ele>
        <time>2013-06-30T13:22:24Z</time>
      </trkpt>
      <trkpt lat="40.155300" lon="-5.166733">
        <ele>1939.0</ele>
        <time>2013-06-30T13:22:25Z</time>
      </trkpt>
      <trkpt lat="40.155250" lon="-5.166833">
        <ele>1937.0</ele>
        <time>2013-06-30T13:22:26Z</time>
      </trkpt>
      <trkpt lat="40.155217" lon="-5.166933">
        <ele>1937.0</ele>
        <time>2013-06-30T13:22:27Z</time>
      </trkpt>
      <trkpt lat="40.155183" lon="-5.167033">
        <ele>1935.0</ele>
        <time>2013-06-30T13:22:28Z</time>
      </trkpt>
      <trkpt lat="40.155133" lon="-5.167133">
        <ele>1932.0</ele>
        <time>2013-06-30T13:22:29Z</time>
      </trkpt>
      <trkpt lat="40.155100" lon="-5.167250">
        <ele>1930.0</ele>
        <time>2013-06-30T13:22:30Z</time>
      </trkpt>
      <trkpt lat="40.155083" lon="-5.167367">
        <ele>1928.0</ele>
        <time>2013-06-30T13:22:31Z</time>
      </trkpt>
      <trkpt lat="40.155067" lon="-5.167467">
        <ele>1926.0</ele>
        <time>2013-06-30T13:22:32Z</time>
      </trkpt>
      <trkpt lat="40.155050" lon="-5.167567">
        <ele>1924.0</ele>
        <time>2013-06-30T13:22:33Z</time>
      </trkpt>
      <trkpt lat="40.155033" lon="-5.167683">
        <ele>1922.0</ele>
        <time>2013-06-30T13:22:34Z</time>
      </trkpt>
      <trkpt lat="40.155017" lon="-5.167800">
        <ele>1920.0</ele>
        <time>2013-06-30T13:22:35Z</time>
      </trkpt>
      <trkpt lat="40.155000" lon="-5.167933">
        <ele>1918.0</ele>
        <time>2013-06-30T13:22:36Z</time>
      </trkpt>
      <trkpt lat="40.155000" lon="-5.168050">
        <ele>1916.0</ele>
        <time>2013-06-30T13:22:37Z</time>
      </trkpt>
      <trkpt lat="40.154983" lon="-5.168167">
        <ele>1914.0</ele>
        <time>2013-06-30T13:22:38Z</time>
      </trkpt>
      <trkpt lat="40.154983" lon="-5.168283">
        <ele>1912.0</ele>
        <time>2013-06-30T13:22:39Z</time>
      </trkpt>
      <trkpt lat="40.154967" lon="-5.168383">
        <ele>1914.0</ele>
        <time>2013-06-30T13:22:40Z</time>
      </trkpt>
      <trkpt lat="40.154967" lon="-5.168500">
        <ele>1914.0</ele>
        <time>2013-06-30T13:22:41Z</time>
      </trkpt>
      <trkpt lat="40.154950" lon="-5.168617">
        <ele>1912.0</ele>
        <time>2013-06-30T13:22:42Z</time>
      </trkpt>
      <trkpt lat="40.154933" lon="-5.168750">
        <ele>1910.0</ele>
        <time>2013-06-30T13:22:43Z</time>
      </trkpt>
      <trkpt lat="40.154917" lon="-5.168867">
        <ele>1908.0</ele>
        <time>2013-06-30T13:22:44Z</time>
      </trkpt>
      <trkpt lat="40.154900" lon="-5.169000">
        <ele>1906.0</ele>
        <time>2013-06-30T13:22:45Z</time>
      </trkpt>
      <trkpt lat="40.154883" lon="-5.169133">
        <ele>1902.0</ele>
        <time>2013-06-30T13:22:46Z</time>
      </trkpt>
      <trkpt lat="40.154867" lon="-5.169267">
        <ele>1898.0</ele>
        <time>2013-06-30T13:22:47Z</time>
      </trkpt>
      <trkpt lat="40.154850" lon="-5.169400">
        <ele>1895.0</ele>
        <time>2013-06-30T13:22:48Z</time>
      </trkpt>
      <trkpt lat="40.154833" lon="-5.169533">
        <ele>1892.0</ele>
        <time>2013-06-30T13:22:49Z</time>
      </trkpt>
      <trkpt lat="40.154817" lon="-5.169667">
        <ele>1889.0</ele>
        <time>2013-06-30T13:22:50Z</time>
      </trkpt>
      <trkpt lat="40.154800" lon="-5.169800">
        <ele>1885.0</ele>
        <time>2013-06-30T13:22:51Z</time>
      </trkpt>
      <trkpt lat="40.154767" lon="-5.169933">
        <ele>1882.0</ele>
        <time>2013-06-30T13:22:52Z</time>
      </trkpt>
      <trkpt lat="40.154733" lon="-5.170067">
        <ele>1879.0</ele>
        <time>2013-06-30T13:22:53Z</time>
      </trkpt>
      <trkpt lat="40.154700" lon="-5.170200">
        <ele>1876.0</ele>
        <time>2013-06-30T13:22:54Z</time>
      </trkpt>
      <trkpt lat="40.154683" lon="-5.170350">
        <ele>1874.0</ele>
        <time>2013-06-30T13:22:55Z</time>
      </trkpt>
      <trkpt lat="40.154667" lon="-5.170483">
        <ele>1871.0</ele>
        <time>2013-06-30T13:22:56Z</time>
      </trkpt>
      <trkpt lat="40.154650" lon="-5.170617">
        <ele>1868.0</ele>
        <time>2013-06-30T13:22:57Z</time>
      </trkpt>
      <trkpt lat="40.154633" lon="-5.170750">
        <ele>1866.0</ele>
        <time>2013-06-30T13:22:58Z</time>
      </trkpt>
      <trkpt lat="40.154633" lon="-5.170900">
        <ele>1863.0</ele>
        <time>2013-06-30T13:22:59Z</time>
      </trkpt>
      <trkpt lat="40.154617" lon="-5.171050">
        <ele>1860.0</ele>
        <time>2013-06-30T13:23:00Z</time>
      </trkpt>
      <trkpt lat="40.154600" lon="-5.171200">
        <ele>1857.0</ele>
        <time>2013-06-30T13:23:01Z</time>
      </trkpt>
      <trkpt lat="40.154583" lon="-5.171350">
        <ele>1854.0</ele>
        <time>2013-06-30T13:23:02Z</time>
      </trkpt>
      <trkpt lat="40.154567" lon="-5.171500">
        <ele>1853.0</ele>
        <time>2013-06-30T13:23:03Z</time>
      </trkpt>
      <trkpt lat="40.154550" lon="-5.171633">
        <ele>1851.0</ele>
        <time>2013-06-30T13:23:04Z</time>
      </trkpt>
      <trkpt lat="40.154567" lon="-5.171767">
        <ele>1848.0</ele>
        <time>2013-06-30T13:23:05Z</time>
      </trkpt>
      <trkpt lat="40.154583" lon="-5.171917">
        <ele>1847.0</ele>
        <time>2013-06-30T13:23:06Z</time>
      </trkpt>
      <trkpt lat="40.154583" lon="-5.172050">
        <ele>1845.0</ele>
        <time>2013-06-30T13:23:07Z</time>
      </trkpt>
      <trkpt lat="40.154583" lon="-5.172183">
        <ele>1844.0</ele>
        <time>2013-06-30T13:23:08Z</time>
      </trkpt>
      <trkpt lat="40.154567" lon="-5.172333">
        <ele>1842.0</ele>
        <time>2013-06-30T13:23:09Z</time>
      </trkpt>
      <trkpt lat="40.154550" lon="-5.172483">
        <ele>1840.0</ele>
        <time>2013-06-30T13:23:10Z</time>
      </trkpt>
      <trkpt lat="40.154550" lon="-5.172617">
        <ele>1838.0</ele>
        <time>2013-06-30T13:23:11Z</time>
      </trkpt>
      <trkpt lat="40.154550" lon="-5.172767">
        <ele>1837.0</ele>
        <time>2013-06-30T13:23:12Z</time>
      </trkpt>
      <trkpt lat="40.154550" lon="-5.172900">
        <ele>1835.0</ele>
        <time>2013-06-30T13:23:13Z</time>
      </trkpt>
      <trkpt lat="40.154550" lon="-5.173067">
        <ele>1834.0</ele>
        <time>2013-06-30T13:23:14Z</time>
      </trkpt>
      <trkpt lat="40.154550" lon="-5.173217">
        <ele>1832.0</ele>
        <time>2013-06-30T13:23:15Z</time>
      </trkpt>
      <trkpt lat="40.154550" lon="-5.173350">
        <ele>1831.0</ele>
        <time>2013-06-30T13:23:16Z</time>
      </trkpt>
      <trkpt lat="40.154550" lon="-5.173500">
        <ele>1830.0</ele>
        <time>2013-06-30T13:23:17Z</time>
      </trkpt>
      <trkpt lat="40.154533" lon="-5.173650">
        <ele>1828.0</ele>
        <time>2013-06-30T13:23:18Z</time>
      </trkpt>
      <trkpt lat="40.154533" lon="-5.173800">
        <ele>1826.0</ele>
        <time>2013-06-30T13:23:19Z</time>
      </trkpt>
      <trkpt lat="40.154517" lon="-5.173967">
        <ele>1823.0</ele>
        <time>2013-06-30T13:23:20Z</time>
      </trkpt>
      <trkpt lat="40.154517" lon="-5.174133">
        <ele>1821.0</ele>
        <time>2013-06-30T13:23:21Z</time>
      </trkpt>
      <trkpt lat="40.154517" lon="-5.174300">
        <ele>1821.0</ele>
        <time>2013-06-30T13:23:22Z</time>
      </trkpt>
      <trkpt lat="40.154500" lon="-5.174450">
        <ele>1820.0</ele>
        <time>2013-06-30T13:23:23Z</time>
      </trkpt>
      <trkpt lat="40.154483" lon="-5.174583">
        <ele>1818.0</ele>
        <time>2013-06-30T13:23:24Z</time>
      </trkpt>
      <trkpt lat="40.154467" lon="-5.174717">
        <ele>1816.0</ele>
        <time>2013-06-30T13:23:25Z</time>
      </trkpt>
      <trkpt lat="40.154467" lon="-5.174867">
        <ele>1814.0</ele>
        <time>2013-06-30T13:23:26Z</time>
      </trkpt>
      <trkpt lat="40.154467" lon="-5.175017">
        <ele>1811.0</ele>
        <time>2013-06-30T13:23:27Z</time>
      </trkpt>
      <trkpt lat="40.154433" lon="-5.175167">
        <ele>1808.0</ele>
        <time>2013-06-30T13:23:28Z</time>
      </trkpt>
      <trkpt lat="40.154400" lon="-5.175317">
        <ele>1805.0</ele>
        <time>2013-06-30T13:23:29Z</time>
      </trkpt>
      <trkpt lat="40.154367" lon="-5.175483">
        <ele>1803.0</ele>
        <time>2013-06-30T13:23:30Z</time>
      </trkpt>
      <trkpt lat="40.154350" lon="-5.175633">
        <ele>1802.0</ele>
        <time>2013-06-30T13:23:31Z</time>
      </trkpt>
      <trkpt lat="40.154333" lon="-5.175783">
        <ele>1801.0</ele>
        <time>2013-06-30T13:23:32Z</time>
      </trkpt>
      <trkpt lat="40.154333" lon="-5.175950">
        <ele>1800.0</ele>
        <time>2013-06-30T13:23:33Z</time>
      </trkpt>
      <trkpt lat="40.154317" lon="-5.176100">
        <ele>1798.0</ele>
        <time>2013-06-30T13:23:34Z</time>
      </trkpt>
      <trkpt lat="40.154317" lon="-5.176250">
        <ele>1797.0</ele>
        <time>2013-06-30T13:23:35Z</time>
      </trkpt>
      <trkpt lat="40.154317" lon="-5.176383">
        <ele>1796.0</ele>
        <time>2013-06-30T13:23:36Z</time>
      </trkpt>
      <trkpt lat="40.154317" lon="-5.176533">
        <ele>1794.0</ele>
        <time>2013-06-30T13:23:37Z</time>
      </trkpt>
      <trkpt lat="40.154317" lon="-5.176667">
        <ele>1793.0</ele>
        <time>2013-06-30T13:23:38Z</time>
      </trkpt>
      <trkpt lat="40.154300" lon="-5.176817">
        <ele>1791.0</ele>
        <time>2013-06-30T13:23:39Z</time>
      </trkpt>
      <trkpt lat="40.154300" lon="-5.176967">
        <ele>1788.0</ele>
        <time>2013-06-30T13:23:40Z</time>
      </trkpt>
      <trkpt lat="40.154300" lon="-5.177117">
        <ele>1785.0</ele>
        <time>2013-06-30T13:23:41Z</time>
      </trkpt>
      <trkpt lat="40.154300" lon="-5.177267">
        <ele>1783.0</ele>
        <time>2013-06-30T13:23:42Z</time>
      </trkpt>
      <trkpt lat="40.154300" lon="-5.177417">
        <ele>1781.0</ele>
        <time>2013-06-30T13:23:43Z</time>
      </trkpt>
      <trkpt lat="40.154300" lon="-5.177583">
        <ele>1777.0</ele>
        <time>2013-06-30T13:23:44Z</time>
      </trkpt>
      <trkpt lat="40.154283" lon="-5.177733">
        <ele>1773.0</ele>
        <time>2013-06-30T13:23:45Z</time>
      </trkpt>
      <trkpt lat="40.154283" lon="-5.177900">
        <ele>1770.0</ele>
        <time>2013-06-30T13:23:46Z</time>
      </trkpt>
      <trkpt lat="40.154283" lon="-5.178050">
        <ele>1767.0</ele>
        <time>2013-06-30T13:23:47Z</time>
      </trkpt>
      <trkpt lat="40.154300" lon="-5.178200">
        <ele>1764.0</ele>
        <time>2013-06-30T13:23:48Z</time>
      </trkpt>
      <trkpt lat="40.154317" lon="-5.178350">
        <ele>1761.0</ele>
        <time>2013-06-30T13:23:49Z</time>
      </trkpt>
      <trkpt lat="40.154317" lon="-5.178500">
        <ele>1757.0</ele>
        <time>2013-06-30T13:23:50Z</time>
      </trkpt>
      <trkpt lat="40.154317" lon="-5.178667">
        <ele>1754.0</ele>
        <time>2013-06-30T13:23:51Z</time>
      </trkpt>
      <trkpt lat="40.154333" lon="-5.178817">
        <ele>1751.0</ele>
        <time>2013-06-30T13:23:52Z</time>
      </trkpt>
      <trkpt lat="40.154333" lon="-5.178967">
        <ele>1748.0</ele>
        <time>2013-06-30T13:23:53Z</time>
      </trkpt>
      <trkpt lat="40.154333" lon="-5.179117">
        <ele>1746.0</ele>
        <time>2013-06-30T13:23:54Z</time>
      </trkpt>
      <trkpt lat="40.154333" lon="-5.179250">
        <ele>1742.0</ele>
        <time>2013-06-30T13:23:55Z</time>
      </trkpt>
      <trkpt lat="40.154333" lon="-5.179400">
        <ele>1738.0</ele>
        <time>2013-06-30T13:23:56Z</time>
      </trkpt>
      <trkpt lat="40.154350" lon="-5.179550">
        <ele>1733.0</ele>
        <time>2013-06-30T13:23:57Z</time>
      </trkpt>
      <trkpt lat="40.154350" lon="-5.179683">
        <ele>1729.0</ele>
        <time>2013-06-30T13:23:58Z</time>
      </trkpt>
      <trkpt lat="40.154333" lon="-5.179833">
        <ele>1725.0</ele>
        <time>2013-06-30T13:23:59Z</time>
      </trkpt>
      <trkpt lat="40.154333" lon="-5.179967">
        <ele>1721.0</ele>
        <time>2013-06-30T13:24:00Z</time>
      </trkpt>
      <trkpt lat="40.154300" lon="-5.180100">
        <ele>1718.0</ele>
        <time>2013-06-30T13:24:01Z</time>
      </trkpt>
      <trkpt lat="40.154300" lon="-5.180217">
        <ele>1714.0</ele>
        <time>2013-06-30T13:24:02Z</time>
      </trkpt>
      <trkpt lat="40.154283" lon="-5.180350">
        <ele>1710.0</ele>
        <time>2013-06-30T13:24:03Z</time>
      </trkpt>
      <trkpt lat="40.154283" lon="-5.180467">
        <ele>1706.0</ele>
        <time>2013-06-30T13:24:04Z</time>
      </trkpt>
      <trkpt lat="40.154283" lon="-5.180600">
        <ele>1701.0</ele>
        <time>2013-06-30T13:24:05Z</time>
      </trkpt>
      <trkpt lat="40.154250" lon="-5.180733">
        <ele>1696.0</ele>
        <time>2013-06-30T13:24:06Z</time>
      </trkpt>
      <trkpt lat="40.154233" lon="-5.180850">
        <ele>1691.0</ele>
        <time>2013-06-30T13:24:07Z</time>
      </trkpt>
      <trkpt lat="40.154217" lon="-5.180967">
        <ele>1686.0</ele>
        <time>2013-06-30T13:24:08Z</time>
      </trkpt>
      <trkpt lat="40.154200" lon="-5.181100">
        <ele>1681.0</ele>
        <time>2013-06-30T13:24:09Z</time>
      </trkpt>
      <trkpt lat="40.154200" lon="-5.181217">
        <ele>1676.0</ele>
        <time>2013-06-30T13:24:10Z</time>
      </trkpt>
      <trkpt lat="40.154183" lon="-5.181350">
        <ele>1671.0</ele>
        <time>2013-06-30T13:24:11Z</time>
      </trkpt>
      <trkpt lat="40.154167" lon="-5.181483">
        <ele>1666.0</ele>
        <time>2013-06-30T13:24:12Z</time>
      </trkpt>
      <trkpt lat="40.154167" lon="-5.181633">
        <ele>1660.0</ele>
        <time>2013-06-30T13:24:13Z</time>
      </trkpt>
      <trkpt lat="40.154150" lon="-5.181783">
        <ele>1656.0</ele>
        <time>2013-06-30T13:24:14Z</time>
      </trkpt>
      <trkpt lat="40.154150" lon="-5.181917">
        <ele>1652.0</ele>
        <time>2013-06-30T13:24:15Z</time>
      </trkpt>
      <trkpt lat="40.154150" lon="-5.182033">
        <ele>1648.0</ele>
        <time>2013-06-30T13:24:16Z</time>
      </trkpt>
      <trkpt lat="40.154150" lon="-5.182167">
        <ele>1643.0</ele>
        <time>2013-06-30T13:24:17Z</time>
      </trkpt>
      <trkpt lat="40.154150" lon="-5.182300">
        <ele>1639.0</ele>
        <time>2013-06-30T13:24:18Z</time>
      </trkpt>
      <trkpt lat="40.154133" lon="-5.182433">
        <ele>1636.0</ele>
        <time>2013-06-30T13:24:19Z</time>
      </trkpt>
      <trkpt lat="40.154100" lon="-5.182567">
        <ele>1633.0</ele>
        <time>2013-06-30T13:24:20Z</time>
      </trkpt>
      <trkpt lat="40.154067" lon="-5.182683">
        <ele>1631.0</ele>
        <time>2013-06-30T13:24:21Z</time>
      </trkpt>
      <trkpt lat="40.154033" lon="-5.182783">
        <ele>1630.0</ele>
        <time>2013-06-30T13:24:22Z</time>
      </trkpt>
      <trkpt lat="40.154000" lon="-5.182883">
        <ele>1629.0</ele>
        <time>2013-06-30T13:24:23Z</time>
      </trkpt>
      <trkpt lat="40.153967" lon="-5.182983">
        <ele>1626.0</ele>
        <time>2013-06-30T13:24:24Z</time>
      </trkpt>
      <trkpt lat="40.153933" lon="-5.183083">
        <ele>1623.0</ele>
        <time>2013-06-30T13:24:25Z</time>
      </trkpt>
      <trkpt lat="40.153900" lon="-5.183200">
        <ele>1619.0</ele>
        <time>2013-06-30T13:24:26Z</time>
      </trkpt>
      <trkpt lat="40.153850" lon="-5.183317">
        <ele>1616.0</ele>
        <time>2013-06-30T13:24:27Z</time>
      </trkpt>
      <trkpt lat="40.153800" lon="-5.183417">
        <ele>1614.0</ele>
        <time>2013-06-30T13:24:28Z</time>
      </trkpt>
      <trkpt lat="40.153750" lon="-5.183517">
        <ele>1612.0</ele>
        <time>2013-06-30T13:24:29Z</time>
      </trkpt>
      <trkpt lat="40.153717" lon="-5.183600">
        <ele>1610.0</ele>
        <time>2013-06-30T13:24:30Z</time>
      </trkpt>
      <trkpt lat="40.153683" lon="-5.183700">
        <ele>1607.0</ele>
        <time>2013-06-30T13:24:31Z</time>
      </trkpt>
      <trkpt lat="40.153617" lon="-5.183800">
        <ele>1604.0</ele>
        <time>2013-06-30T13:24:32Z</time>
      </trkpt>
      <trkpt lat="40.153567" lon="-5.183900">
        <ele>1601.0</ele>
        <time>2013-06-30T13:24:33Z</time>
      </trkpt>
      <trkpt lat="40.153517" lon="-5.184000">
        <ele>1597.0</ele>
        <time>2013-06-30T13:24:34Z</time>
      </trkpt>
      <trkpt lat="40.153483" lon="-5.184100">
        <ele>1594.0</ele>
        <time>2013-06-30T13:24:35Z</time>
      </trkpt>
      <trkpt lat="40.153433" lon="-5.184217">
        <ele>1590.0</ele>
        <time>2013-06-30T13:24:36Z</time>
      </trkpt>
      <trkpt lat="40.153383" lon="-5.184350">
        <ele>1586.0</ele>
        <time>2013-06-30T13:24:37Z</time>
      </trkpt>
      <trkpt lat="40.153333" lon="-5.184483">
        <ele>1581.0</ele>
        <time>2013-06-30T13:24:38Z</time>
      </trkpt>
      <trkpt lat="40.153267" lon="-5.184617">
        <ele>1578.0</ele>
        <time>2013-06-30T13:24:39Z</time>
      </trkpt>
      <trkpt lat="40.153217" lon="-5.184750">
        <ele>1575.0</ele>
        <time>2013-06-30T13:24:40Z</time>
      </trkpt>
      <trkpt lat="40.153183" lon="-5.184883">
        <ele>1571.0</ele>
        <time>2013-06-30T13:24:41Z</time>
      </trkpt>
      <trkpt lat="40.153133" lon="-5.185033">
        <ele>1568.0</ele>
        <time>2013-06-30T13:24:42Z</time>
      </trkpt>
      <trkpt lat="40.153083" lon="-5.185167">
        <ele>1564.0</ele>
        <time>2013-06-30T13:24:43Z</time>
      </trkpt>
      <trkpt lat="40.153050" lon="-5.185317">
        <ele>1560.0</ele>
        <time>2013-06-30T13:24:44Z</time>
      </trkpt>
      <trkpt lat="40.153000" lon="-5.185467">
        <ele>1556.0</ele>
        <time>2013-06-30T13:24:45Z</time>
      </trkpt>
      <trkpt lat="40.152950" lon="-5.185617">
        <ele>1553.0</ele>
        <time>2013-06-30T13:24:46Z</time>
      </trkpt>
      <trkpt lat="40.152883" lon="-5.185750">
        <ele>1550.0</ele>
        <time>2013-06-30T13:24:47Z</time>
      </trkpt>
      <trkpt lat="40.152833" lon="-5.185900">
        <ele>1548.0</ele>
        <time>2013-06-30T13:24:48Z</time>
      </trkpt>
      <trkpt lat="40.152800" lon="-5.186050">
        <ele>1545.0</ele>
        <time>2013-06-30T13:24:49Z</time>
      </trkpt>
      <trkpt lat="40.152767" lon="-5.186200">
        <ele>1543.0</ele>
        <time>2013-06-30T13:24:50Z</time>
      </trkpt>
      <trkpt lat="40.152717" lon="-5.186333">
        <ele>1542.0</ele>
        <time>2013-06-30T13:24:51Z</time>
      </trkpt>
      <trkpt lat="40.152667" lon="-5.186483">
        <ele>1540.0</ele>
        <time>2013-06-30T13:24:52Z</time>
      </trkpt>
      <trkpt lat="40.152600" lon="-5.186633">
        <ele>1539.0</ele>
        <time>2013-06-30T13:24:53Z</time>
      </trkpt>
      <trkpt lat="40.152567" lon="-5.186783">
        <ele>1537.0</ele>
        <time>2013-06-30T13:24:54Z</time>
      </trkpt>
      <trkpt lat="40.152533" lon="-5.186950">
        <ele>1537.0</ele>
        <time>2013-06-30T13:24:55Z</time>
      </trkpt>
      <trkpt lat="40.152500" lon="-5.187100">
        <ele>1536.0</ele>
        <time>2013-06-30T13:24:56Z</time>
      </trkpt>
      <trkpt lat="40.152450" lon="-5.187250">
        <ele>1536.0</ele>
        <time>2013-06-30T13:24:57Z</time>
      </trkpt>
      <trkpt lat="40.152417" lon="-5.187400">
        <ele>1536.0</ele>
        <time>2013-06-30T13:24:58Z</time>
      </trkpt>
      <trkpt lat="40.152383" lon="-5.187550">
        <ele>1535.0</ele>
        <time>2013-06-30T13:24:59Z</time>
      </trkpt>
      <trkpt lat="40.152367" lon="-5.187700">
        <ele>1534.0</ele>
        <time>2013-06-30T13:25:00Z</time>
      </trkpt>
      <trkpt lat="40.152333" lon="-5.187833">
        <ele>1533.0</ele>
        <time>2013-06-30T13:25:01Z</time>
      </trkpt>
      <trkpt lat="40.152283" lon="-5.187950">
        <ele>1531.0</ele>
        <time>2013-06-30T13:25:02Z</time>
      </trkpt>
      <trkpt lat="40.152217" lon="-5.188067">
        <ele>1529.0</ele>
        <time>2013-06-30T13:25:03Z</time>
      </trkpt>
      <trkpt lat="40.152150" lon="-5.188200">
        <ele>1527.0</ele>
        <time>2013-06-30T13:25:04Z</time>
      </trkpt>
      <trkpt lat="40.152100" lon="-5.188333">
        <ele>1525.0</ele>
        <time>2013-06-30T13:25:05Z</time>
      </trkpt>
      <trkpt lat="40.152050" lon="-5.188467">
        <ele>1524.0</ele>
        <time>2013-06-30T13:25:06Z</time>
      </trkpt>
      <trkpt lat="40.152000" lon="-5.188583">
        <ele>1522.0</ele>
        <time>2013-06-30T13:25:07Z</time>
      </trkpt>
      <trkpt lat="40.151950" lon="-5.188700">
        <ele>1520.0</ele>
        <time>2013-06-30T13:25:08Z</time>
      </trkpt>
      <trkpt lat="40.151900" lon="-5.188833">
        <ele>1519.0</ele>
        <time>2013-06-30T13:25:09Z</time>
      </trkpt>
      <trkpt lat="40.151850" lon="-5.189000">
        <ele>1517.0</ele>
        <time>2013-06-30T13:25:10Z</time>
      </trkpt>
      <trkpt lat="40.151800" lon="-5.189167">
        <ele>1516.0</ele>
        <time>2013-06-30T13:25:11Z</time>
      </trkpt>
      <trkpt lat="40.151767" lon="-5.189317">
        <ele>1516.0</ele>
        <time>2013-06-30T13:25:12Z</time>
      </trkpt>
      <trkpt lat="40.151717" lon="-5.189467">
        <ele>1516.0</ele>
        <time>2013-06-30T13:25:13Z</time>
      </trkpt>
      <trkpt lat="40.151667" lon="-5.189600">
        <ele>1516.0</ele>
        <time>2013-06-30T13:25:14Z</time>
      </trkpt>
      <trkpt lat="40.151633" lon="-5.189733">
        <ele>1515.0</ele>
        <time>2013-06-30T13:25:15Z</time>
      </trkpt>
      <trkpt lat="40.151583" lon="-5.189867">
        <ele>1515.0</ele>
        <time>2013-06-30T13:25:16Z</time>
      </trkpt>
      <trkpt lat="40.151550" lon="-5.190017">
        <ele>1514.0</ele>
        <time>2013-06-30T13:25:17Z</time>
      </trkpt>
      <trkpt lat="40.151500" lon="-5.190150">
        <ele>1517.0</ele>
        <time>2013-06-30T13:25:18Z</time>
      </trkpt>
      <trkpt lat="40.151467" lon="-5.190283">
        <ele>1519.0</ele>
        <time>2013-06-30T13:25:19Z</time>
      </trkpt>
      <trkpt lat="40.151450" lon="-5.190417">
        <ele>1520.0</ele>
        <time>2013-06-30T13:25:20Z</time>
      </trkpt>
      <trkpt lat="40.151433" lon="-5.190533">
        <ele>1519.0</ele>
        <time>2013-06-30T13:25:21Z</time>
      </trkpt>
      <trkpt lat="40.151417" lon="-5.190650">
        <ele>1519.0</ele>
        <time>2013-06-30T13:25:22Z</time>
      </trkpt>
      <trkpt lat="40.151417" lon="-5.190783">
        <ele>1518.0</ele>
        <time>2013-06-30T13:25:23Z</time>
      </trkpt>
      <trkpt lat="40.151400" lon="-5.190917">
        <ele>1517.0</ele>
        <time>2013-06-30T13:25:24Z</time>
      </trkpt>
      <trkpt lat="40.151383" lon="-5.191083">
        <ele>1516.0</ele>
        <time>2013-06-30T13:25:25Z</time>
      </trkpt>
      <trkpt lat="40.151350" lon="-5.191233">
        <ele>1514.0</ele>
        <time>2013-06-30T13:25:26Z</time>
      </trkpt>
      <trkpt lat="40.151317" lon="-5.191367">
        <ele>1512.0</ele>
        <time>2013-06-30T13:25:27Z</time>
      </trkpt>
      <trkpt lat="40.151283" lon="-5.191500">
        <ele>1511.0</ele>
        <time>2013-06-30T13:25:28Z</time>
      </trkpt>
      <trkpt lat="40.151250" lon="-5.191633">
        <ele>1510.0</ele>
        <time>2013-06-30T13:25:29Z</time>
      </trkpt>
      <trkpt lat="40.151217" lon="-5.191783">
        <ele>1507.0</ele>
        <time>2013-06-30T13:25:30Z</time>
      </trkpt>
      <trkpt lat="40.151183" lon="-5.191933">
        <ele>1505.0</ele>
        <time>2013-06-30T13:25:31Z</time>
      </trkpt>
      <trkpt lat="40.151150" lon="-5.192100">
        <ele>1502.0</ele>
        <time>2013-06-30T13:25:32Z</time>
      </trkpt>
      <trkpt lat="40.151117" lon="-5.192250">
        <ele>1502.0</ele>
        <time>2013-06-30T13:25:33Z</time>
      </trkpt>
      <trkpt lat="40.151100" lon="-5.192383">
        <ele>1500.0</ele>
        <time>2013-06-30T13:25:34Z</time>
      </trkpt>
      <trkpt lat="40.151083" lon="-5.192517">
        <ele>1499.0</ele>
        <time>2013-06-30T13:25:35Z</time>
      </trkpt>
      <trkpt lat="40.151067" lon="-5.192650">
        <ele>1498.0</ele>
        <time>2013-06-30T13:25:36Z</time>
      </trkpt>
      <trkpt lat="40.151017" lon="-5.192800">
        <ele>1495.0</ele>
        <time>2013-06-30T13:25:37Z</time>
      </trkpt>
      <trkpt lat="40.150967" lon="-5.192950">
        <ele>1492.0</ele>
        <time>2013-06-30T13:25:38Z</time>
      </trkpt>
      <trkpt lat="40.150900" lon="-5.193100">
        <ele>1490.0</ele>
        <time>2013-06-30T13:25:39Z</time>
      </trkpt>
      <trkpt lat="40.150850" lon="-5.193250">
        <ele>1490.0</ele>
        <time>2013-06-30T13:25:40Z</time>
      </trkpt>
      <trkpt lat="40.150833" lon="-5.193383">
        <ele>1489.0</ele>
        <time>2013-06-30T13:25:41Z</time>
      </trkpt>
      <trkpt lat="40.150800" lon="-5.193533">
        <ele>1488.0</ele>
        <time>2013-06-30T13:25:42Z</time>
      </trkpt>
      <trkpt lat="40.150783" lon="-5.193683">
        <ele>1487.0</ele>
        <time>2013-06-30T13:25:43Z</time>
      </trkpt>
      <trkpt lat="40.150733" lon="-5.193833">
        <ele>1485.0</ele>
        <time>2013-06-30T13:25:44Z</time>
      </trkpt>
      <trkpt lat="40.150683" lon="-5.193967">
        <ele>1483.0</ele>
        <time>2013-06-30T13:25:45Z</time>
      </trkpt>
      <trkpt lat="40.150633" lon="-5.194083">
        <ele>1483.0</ele>
        <time>2013-06-30T13:25:46Z</time>
      </trkpt>
      <trkpt lat="40.150583" lon="-5.194217">
        <ele>1481.0</ele>
        <time>2013-06-30T13:25:47Z</time>
      </trkpt>
      <trkpt lat="40.150533" lon="-5.194333">
        <ele>1480.0</ele>
        <time>2013-06-30T13:25:48Z</time>
      </trkpt>
      <trkpt lat="40.150500" lon="-5.194450">
        <ele>1479.0</ele>
        <time>2013-06-30T13:25:49Z</time>
      </trkpt>
      <trkpt lat="40.150450" lon="-5.194583">
        <ele>1478.0</ele>
        <time>2013-06-30T13:25:50Z</time>
      </trkpt>
      <trkpt lat="40.150400" lon="-5.194717">
        <ele>1478.0</ele>
        <time>2013-06-30T13:25:51Z</time>
      </trkpt>
      <trkpt lat="40.150350" lon="-5.194833">
        <ele>1481.0</ele>
        <time>2013-06-30T13:25:52Z</time>
      </trkpt>
      <trkpt lat="40.150317" lon="-5.194950">
        <ele>1482.0</ele>
        <time>2013-06-30T13:25:53Z</time>
      </trkpt>
      <trkpt lat="40.150283" lon="-5.195067">
        <ele>1483.0</ele>
        <time>2013-06-30T13:25:54Z</time>
      </trkpt>
      <trkpt lat="40.150250" lon="-5.195167">
        <ele>1485.0</ele>
        <time>2013-06-30T13:25:55Z</time>
      </trkpt>
      <trkpt lat="40.150217" lon="-5.195250">
        <ele>1484.0</ele>
        <time>2013-06-30T13:25:56Z</time>
      </trkpt>
      <trkpt lat="40.150183" lon="-5.195333">
        <ele>1484.0</ele>
        <time>2013-06-30T13:25:57Z</time>
      </trkpt>
      <trkpt lat="40.150117" lon="-5.195383">
        <ele>1481.0</ele>
        <time>2013-06-30T13:25:58Z</time>
      </trkpt>
      <trkpt lat="40.150067" lon="-5.195417">
        <ele>1480.0</ele>
        <time>2013-06-30T13:25:59Z</time>
      </trkpt>
      <trkpt lat="40.149983" lon="-5.195450">
        <ele>1478.0</ele>
        <time>2013-06-30T13:26:00Z</time>
      </trkpt>
      <trkpt lat="40.149933" lon="-5.195450">
        <ele>1476.0</ele>
        <time>2013-06-30T13:26:01Z</time>
      </trkpt>
      <trkpt lat="40.149867" lon="-5.195450">
        <ele>1475.0</ele>
        <time>2013-06-30T13:26:02Z</time>
      </trkpt>
      <trkpt lat="40.149817" lon="-5.195433">
        <ele>1473.0</ele>
        <time>2013-06-30T13:26:03Z</time>
      </trkpt>
      <trkpt lat="40.149750" lon="-5.195417">
        <ele>1471.0</ele>
        <time>2013-06-30T13:26:04Z</time>
      </trkpt>
      <trkpt lat="40.149683" lon="-5.195400">
        <ele>1469.0</ele>
        <time>2013-06-30T13:26:05Z</time>
      </trkpt>
      <trkpt lat="40.149600" lon="-5.195417">
        <ele>1467.0</ele>
        <time>2013-06-30T13:26:06Z</time>
      </trkpt>
      <trkpt lat="40.149517" lon="-5.195467">
        <ele>1465.0</ele>
        <time>2013-06-30T13:26:07Z</time>
      </trkpt>
      <trkpt lat="40.149450" lon="-5.195567">
        <ele>1463.0</ele>
        <time>2013-06-30T13:26:08Z</time>
      </trkpt>
      <trkpt lat="40.149383" lon="-5.195667">
        <ele>1462.0</ele>
        <time>2013-06-30T13:26:09Z</time>
      </trkpt>
      <trkpt lat="40.149333" lon="-5.195750">
        <ele>1462.0</ele>
        <time>2013-06-30T13:26:10Z</time>
      </trkpt>
      <trkpt lat="40.149300" lon="-5.195850">
        <ele>1461.0</ele>
        <time>2013-06-30T13:26:11Z</time>
      </trkpt>
      <trkpt lat="40.149250" lon="-5.195950">
        <ele>1459.0</ele>
        <time>2013-06-30T13:26:12Z</time>
      </trkpt>
      <trkpt lat="40.149217" lon="-5.196067">
        <ele>1457.0</ele>
        <time>2013-06-30T13:26:13Z</time>
      </trkpt>
      <trkpt lat="40.149183" lon="-5.196183">
        <ele>1454.0</ele>
        <time>2013-06-30T13:26:14Z</time>
      </trkpt>
      <trkpt lat="40.149150" lon="-5.196317">
        <ele>1451.0</ele>
        <time>2013-06-30T13:26:15Z</time>
      </trkpt>
      <trkpt lat="40.149117" lon="-5.196450">
        <ele>1449.0</ele>
        <time>2013-06-30T13:26:16Z</time>
      </trkpt>
      <trkpt lat="40.149100" lon="-5.196583">
        <ele>1447.0</ele>
        <time>2013-06-30T13:26:17Z</time>
      </trkpt>
      <trkpt lat="40.149067" lon="-5.196717">
        <ele>1444.0</ele>
        <time>2013-06-30T13:26:18Z</time>
      </trkpt>
      <trkpt lat="40.149050" lon="-5.196850">
        <ele>1440.0</ele>
        <time>2013-06-30T13:26:19Z</time>
      </trkpt>
      <trkpt lat="40.149033" lon="-5.197000">
        <ele>1436.0</ele>
        <time>2013-06-30T13:26:20Z</time>
      </trkpt>
      <trkpt lat="40.149017" lon="-5.197150">
        <ele>1432.0</ele>
        <time>2013-06-30T13:26:21Z</time>
      </trkpt>
      <trkpt lat="40.149000" lon="-5.197300">
        <ele>1428.0</ele>
        <time>2013-06-30T13:26:22Z</time>
      </trkpt>
      <trkpt lat="40.148983" lon="-5.197467">
        <ele>1424.0</ele>
        <time>2013-06-30T13:26:23Z</time>
      </trkpt>
      <trkpt lat="40.148967" lon="-5.197617">
        <ele>1421.0</ele>
        <time>2013-06-30T13:26:24Z</time>
      </trkpt>
      <trkpt lat="40.148950" lon="-5.197767">
        <ele>1417.0</ele>
        <time>2013-06-30T13:26:25Z</time>
      </trkpt>
      <trkpt lat="40.148950" lon="-5.197933">
        <ele>1414.0</ele>
        <time>2013-06-30T13:26:26Z</time>
      </trkpt>
      <trkpt lat="40.148917" lon="-5.198100">
        <ele>1411.0</ele>
        <time>2013-06-30T13:26:27Z</time>
      </trkpt>
      <trkpt lat="40.148883" lon="-5.198250">
        <ele>1408.0</ele>
        <time>2013-06-30T13:26:28Z</time>
      </trkpt>
      <trkpt lat="40.148833" lon="-5.198400">
        <ele>1405.0</ele>
        <time>2013-06-30T13:26:29Z</time>
      </trkpt>
      <trkpt lat="40.148800" lon="-5.198533">
        <ele>1403.0</ele>
        <time>2013-06-30T13:26:30Z</time>
      </trkpt>
      <trkpt lat="40.148783" lon="-5.198667">
        <ele>1400.0</ele>
        <time>2013-06-30T13:26:31Z</time>
      </trkpt>
      <trkpt lat="40.148767" lon="-5.198800">
        <ele>1398.0</ele>
        <time>2013-06-30T13:26:32Z</time>
      </trkpt>
      <trkpt lat="40.148750" lon="-5.198950">
        <ele>1395.0</ele>
        <time>2013-06-30T13:26:33Z</time>
      </trkpt>
      <trkpt lat="40.148733" lon="-5.199100">
        <ele>1393.0</ele>
        <time>2013-06-30T13:26:34Z</time>
      </trkpt>
      <trkpt lat="40.148717" lon="-5.199250">
        <ele>1390.0</ele>
        <time>2013-06-30T13:26:35Z</time>
      </trkpt>
      <trkpt lat="40.148717" lon="-5.199400">
        <ele>1390.0</ele>
        <time>2013-06-30T13:26:36Z</time>
      </trkpt>
      <trkpt lat="40.148717" lon="-5.199533">
        <ele>1389.0</ele>
        <time>2013-06-30T13:26:37Z</time>
      </trkpt>
      <trkpt lat="40.148733" lon="-5.199667">
        <ele>1388.0</ele>
        <time>2013-06-30T13:26:38Z</time>
      </trkpt>
      <trkpt lat="40.148750" lon="-5.199767">
        <ele>1388.0</ele>
        <time>2013-06-30T13:26:39Z</time>
      </trkpt>
      <trkpt lat="40.148750" lon="-5.199883">
        <ele>1387.0</ele>
        <time>2013-06-30T13:26:40Z</time>
      </trkpt>
      <trkpt lat="40.148767" lon="-5.199983">
        <ele>1386.0</ele>
        <time>2013-06-30T13:26:41Z</time>
      </trkpt>
      <trkpt lat="40.148783" lon="-5.200083">
        <ele>1385.0</ele>
        <time>2013-06-30T13:26:42Z</time>
      </trkpt>
      <trkpt lat="40.148817" lon="-5.200167">
        <ele>1382.0</ele>
        <time>2013-06-30T13:26:43Z</time>
      </trkpt>
      <trkpt lat="40.148883" lon="-5.200283">
        <ele>1378.0</ele>
        <time>2013-06-30T13:26:44Z</time>
      </trkpt>
      <trkpt lat="40.148950" lon="-5.200400">
        <ele>1375.0</ele>
        <time>2013-06-30T13:26:45Z</time>
      </trkpt>
      <trkpt lat="40.149000" lon="-5.200533">
        <ele>1371.0</ele>
        <time>2013-06-30T13:26:46Z</time>
      </trkpt>
      <trkpt lat="40.149050" lon="-5.200683">
        <ele>1367.0</ele>
        <time>2013-06-30T13:26:47Z</time>
      </trkpt>
      <trkpt lat="40.149100" lon="-5.200817">
        <ele>1364.0</ele>
        <time>2013-06-30T13:26:48Z</time>
      </trkpt>
      <trkpt lat="40.149167" lon="-5.200933">
        <ele>1361.0</ele>
        <time>2013-06-30T13:26:49Z</time>
      </trkpt>
      <trkpt lat="40.149217" lon="-5.201067">
        <ele>1357.0</ele>
        <time>2013-06-30T13:26:50Z</time>
      </trkpt>
      <trkpt lat="40.149250" lon="-5.201183">
        <ele>1354.0</ele>
        <time>2013-06-30T13:26:51Z</time>
      </trkpt>
      <trkpt lat="40.149300" lon="-5.201333">
        <ele>1351.0</ele>
        <time>2013-06-30T13:26:52Z</time>
      </trkpt>
      <trkpt lat="40.149350" lon="-5.201483">
        <ele>1348.0</ele>
        <time>2013-06-30T13:26:53Z</time>
      </trkpt>
      <trkpt lat="40.149400" lon="-5.201617">
        <ele>1347.0</ele>
        <time>2013-06-30T13:26:54Z</time>
      </trkpt>
      <trkpt lat="40.149433" lon="-5.201733">
        <ele>1345.0</ele>
        <time>2013-06-30T13:26:55Z</time>
      </trkpt>
      <trkpt lat="40.149467" lon="-5.201850">
        <ele>1343.0</ele>
        <time>2013-06-30T13:26:56Z</time>
      </trkpt>
      <trkpt lat="40.149517" lon="-5.201967">
        <ele>1341.0</ele>
        <time>2013-06-30T13:26:57Z</time>
      </trkpt>
      <trkpt lat="40.149533" lon="-5.202117">
        <ele>1339.0</ele>
        <time>2013-06-30T13:26:58Z</time>
      </trkpt>
      <trkpt lat="40.149567" lon="-5.202267">
        <ele>1336.0</ele>
        <time>2013-06-30T13:26:59Z</time>
      </trkpt>
      <trkpt lat="40.149600" lon="-5.202417">
        <ele>1333.0</ele>
        <time>2013-06-30T13:27:00Z</time>
      </trkpt>
      <trkpt lat="40.149633" lon="-5.202550">
        <ele>1331.0</ele>
        <time>2013-06-30T13:27:01Z</time>
      </trkpt>
      <trkpt lat="40.149650" lon="-5.202667">
        <ele>1329.0</ele>
        <time>2013-06-30T13:27:02Z</time>
      </trkpt>
      <trkpt lat="40.149683" lon="-5.202767">
        <ele>1326.0</ele>
        <time>2013-06-30T13:27:03Z</time>
      </trkpt>
      <trkpt lat="40.149717" lon="-5.202883">
        <ele>1323.0</ele>
        <time>2013-06-30T13:27:04Z</time>
      </trkpt>
      <trkpt lat="40.149750" lon="-5.203017">
        <ele>1320.0</ele>
        <time>2013-06-30T13:27:05Z</time>
      </trkpt>
      <trkpt lat="40.149767" lon="-5.203150">
        <ele>1318.0</ele>
        <time>2013-06-30T13:27:06Z</time>
      </trkpt>
      <trkpt lat="40.149783" lon="-5.203283">
        <ele>1315.0</ele>
        <time>2013-06-30T13:27:07Z</time>
      </trkpt>
      <trkpt lat="40.149783" lon="-5.203417">
        <ele>1312.0</ele>
        <time>2013-06-30T13:27:08Z</time>
      </trkpt>
      <trkpt lat="40.149783" lon="-5.203533">
        <ele>1309.0</ele>
        <time>2013-06-30T13:27:09Z</time>
      </trkpt>
      <trkpt lat="40.149800" lon="-5.203650">
        <ele>1306.0</ele>
        <time>2013-06-30T13:27:10Z</time>
      </trkpt>
      <trkpt lat="40.149817" lon="-5.203783">
        <ele>1303.0</ele>
        <time>2013-06-30T13:27:11Z</time>
      </trkpt>
      <trkpt lat="40.149833" lon="-5.203950">
        <ele>1299.0</ele>
        <time>2013-06-30T13:27:12Z</time>
      </trkpt>
      <trkpt lat="40.149833" lon="-5.204100">
        <ele>1297.0</ele>
        <time>2013-06-30T13:27:13Z</time>
      </trkpt>
      <trkpt lat="40.149850" lon="-5.204233">
        <ele>1294.0</ele>
        <time>2013-06-30T13:27:14Z</time>
      </trkpt>
      <trkpt lat="40.149867" lon="-5.204367">
        <ele>1292.0</ele>
        <time>2013-06-30T13:27:15Z</time>
      </trkpt>
      <trkpt lat="40.149883" lon="-5.204500">
        <ele>1289.0</ele>
        <time>2013-06-30T13:27:16Z</time>
      </trkpt>
      <trkpt lat="40.149883" lon="-5.204650">
        <ele>1287.0</ele>
        <time>2013-06-30T13:27:17Z</time>
      </trkpt>
      <trkpt lat="40.149900" lon="-5.204783">
        <ele>1285.0</ele>
        <time>2013-06-30T13:27:18Z</time>
      </trkpt>
      <trkpt lat="40.149917" lon="-5.204933">
        <ele>1282.0</ele>
        <time>2013-06-30T13:27:19Z</time>
      </trkpt>
      <trkpt lat="40.149933" lon="-5.205067">
        <ele>1280.0</ele>
        <time>2013-06-30T13:27:20Z</time>
      </trkpt>
      <trkpt lat="40.149950" lon="-5.205217">
        <ele>1277.0</ele>
        <time>2013-06-30T13:27:21Z</time>
      </trkpt>
      <trkpt lat="40.149950" lon="-5.205367">
        <ele>1275.0</ele>
        <time>2013-06-30T13:27:22Z</time>
      </trkpt>
      <trkpt lat="40.149967" lon="-5.205517">
        <ele>1273.0</ele>
        <time>2013-06-30T13:27:23Z</time>
      </trkpt>
      <trkpt lat="40.149983" lon="-5.205650">
        <ele>1271.0</ele>
        <time>2013-06-30T13:27:24Z</time>
      </trkpt>
      <trkpt lat="40.150000" lon="-5.205783">
        <ele>1270.0</ele>
        <time>2013-06-30T13:27:25Z</time>
      </trkpt>
      <trkpt lat="40.150017" lon="-5.205917">
        <ele>1268.0</ele>
        <time>2013-06-30T13:27:26Z</time>
      </trkpt>
      <trkpt lat="40.150033" lon="-5.206050">
        <ele>1266.0</ele>
        <time>2013-06-30T13:27:27Z</time>
      </trkpt>
      <trkpt lat="40.150050" lon="-5.206183">
        <ele>1264.0</ele>
        <time>2013-06-30T13:27:28Z</time>
      </trkpt>
      <trkpt lat="40.150050" lon="-5.206333">
        <ele>1262.0</ele>
        <time>2013-06-30T13:27:29Z</time>
      </trkpt>
      <trkpt lat="40.150067" lon="-5.206483">
        <ele>1260.0</ele>
        <time>2013-06-30T13:27:30Z</time>
      </trkpt>
      <trkpt lat="40.150083" lon="-5.206617">
        <ele>1258.0</ele>
        <time>2013-06-30T13:27:31Z</time>
      </trkpt>
      <trkpt lat="40.150100" lon="-5.206767">
        <ele>1256.0</ele>
        <time>2013-06-30T13:27:32Z</time>
      </trkpt>
      <trkpt lat="40.150133" lon="-5.206900">
        <ele>1254.0</ele>
        <time>2013-06-30T13:27:33Z</time>
      </trkpt>
      <trkpt lat="40.150150" lon="-5.207033">
        <ele>1252.0</ele>
        <time>2013-06-30T13:27:34Z</time>
      </trkpt>
      <trkpt lat="40.150150" lon="-5.207183">
        <ele>1250.0</ele>
        <time>2013-06-30T13:27:35Z</time>
      </trkpt>
      <trkpt lat="40.150167" lon="-5.207300">
        <ele>1248.0</ele>
        <time>2013-06-30T13:27:36Z</time>
      </trkpt>
      <trkpt lat="40.150167" lon="-5.207433">
        <ele>1245.0</ele>
        <time>2013-06-30T13:27:37Z</time>
      </trkpt>
      <trkpt lat="40.150183" lon="-5.207567">
        <ele>1242.0</ele>
        <time>2013-06-30T13:27:38Z</time>
      </trkpt>
      <trkpt lat="40.150200" lon="-5.207700">
        <ele>1239.0</ele>
        <time>2013-06-30T13:27:39Z</time>
      </trkpt>
      <trkpt lat="40.150233" lon="-5.207833">
        <ele>1236.0</ele>
        <time>2013-06-30T13:27:40Z</time>
      </trkpt>
      <trkpt lat="40.150250" lon="-5.207967">
        <ele>1234.0</ele>
        <time>2013-06-30T13:27:41Z</time>
      </trkpt>
      <trkpt lat="40.150267" lon="-5.208100">
        <ele>1232.0</ele>
        <time>2013-06-30T13:27:42Z</time>
      </trkpt>
      <trkpt lat="40.150267" lon="-5.208233">
        <ele>1229.0</ele>
        <time>2013-06-30T13:27:43Z</time>
      </trkpt>
      <trkpt lat="40.150283" lon="-5.208350">
        <ele>1226.0</ele>
        <time>2013-06-30T13:27:44Z</time>
      </trkpt>
      <trkpt lat="40.150317" lon="-5.208467">
        <ele>1223.0</ele>
        <time>2013-06-30T13:27:45Z</time>
      </trkpt>
      <trkpt lat="40.150333" lon="-5.208600">
        <ele>1220.0</ele>
        <time>2013-06-30T13:27:46Z</time>
      </trkpt>
      <trkpt lat="40.150350" lon="-5.208750">
        <ele>1216.0</ele>
        <time>2013-06-30T13:27:47Z</time>
      </trkpt>
      <trkpt lat="40.150367" lon="-5.208883">
        <ele>1213.0</ele>
        <time>2013-06-30T13:27:48Z</time>
      </trkpt>
      <trkpt lat="40.150383" lon="-5.209033">
        <ele>1210.0</ele>
        <time>2013-06-30T13:27:49Z</time>
      </trkpt>
      <trkpt lat="40.150400" lon="-5.209167">
        <ele>1207.0</ele>
        <time>2013-06-30T13:27:50Z</time>
      </trkpt>
      <trkpt lat="40.150400" lon="-5.209300">
        <ele>1205.0</ele>
        <time>2013-06-30T13:27:51Z</time>
      </trkpt>
      <trkpt lat="40.150417" lon="-5.209433">
        <ele>1202.0</ele>
        <time>2013-06-30T13:27:52Z</time>
      </trkpt>
      <trkpt lat="40.150417" lon="-5.209583">
        <ele>1198.0</ele>
        <time>2013-06-30T13:27:53Z</time>
      </trkpt>
      <trkpt lat="40.150450" lon="-5.209717">
        <ele>1195.0</ele>
        <time>2013-06-30T13:27:54Z</time>
      </trkpt>
      <trkpt lat="40.150467" lon="-5.209867">
        <ele>1192.0</ele>
        <time>2013-06-30T13:27:55Z</time>
      </trkpt>
      <trkpt lat="40.150500" lon="-5.210000">
        <ele>1190.0</ele>
        <time>2013-06-30T13:27:56Z</time>
      </trkpt>
      <trkpt lat="40.150533" lon="-5.210133">
        <ele>1187.0</ele>
        <time>2013-06-30T13:27:57Z</time>
      </trkpt>
      <trkpt lat="40.150550" lon="-5.210283">
        <ele>1185.0</ele>
        <time>2013-06-30T13:27:58Z</time>
      </trkpt>
      <trkpt lat="40.150567" lon="-5.210417">
        <ele>1183.0</ele>
        <time>2013-06-30T13:27:59Z</time>
      </trkpt>
      <trkpt lat="40.150583" lon="-5.210550">
        <ele>1180.0</ele>
        <time>2013-06-30T13:28:00Z</time>
      </trkpt>
      <trkpt lat="40.150617" lon="-5.210700">
        <ele>1178.0</ele>
        <time>2013-06-30T13:28:01Z</time>
      </trkpt>
      <trkpt lat="40.150633" lon="-5.210833">
        <ele>1176.0</ele>
        <time>2013-06-30T13:28:02Z</time>
      </trkpt>
      <trkpt lat="40.150633" lon="-5.210983">
        <ele>1174.0</ele>
        <time>2013-06-30T13:28:03Z</time>
      </trkpt>
      <trkpt lat="40.150650" lon="-5.211117">
        <ele>1172.0</ele>
        <time>2013-06-30T13:28:04Z</time>
      </trkpt>
      <trkpt lat="40.150650" lon="-5.211267">
        <ele>1170.0</ele>
        <time>2013-06-30T13:28:05Z</time>
      </trkpt>
      <trkpt lat="40.150667" lon="-5.211400">
        <ele>1168.0</ele>
        <time>2013-06-30T13:28:06Z</time>
      </trkpt>
      <trkpt lat="40.150683" lon="-5.211533">
        <ele>1166.0</ele>
        <time>2013-06-30T13:28:07Z</time>
      </trkpt>
      <trkpt lat="40.150683" lon="-5.211667">
        <ele>1164.0</ele>
        <time>2013-06-30T13:28:08Z</time>
      </trkpt>
      <trkpt lat="40.150683" lon="-5.211800">
        <ele>1161.0</ele>
        <time>2013-06-30T13:28:09Z</time>
      </trkpt>
      <trkpt lat="40.150683" lon="-5.211933">
        <ele>1159.0</ele>
        <time>2013-06-30T13:28:10Z</time>
      </trkpt>
      <trkpt lat="40.150683" lon="-5.212050">
        <ele>1156.0</ele>
        <time>2013-06-30T13:28:11Z</time>
      </trkpt>
      <trkpt lat="40.150683" lon="-5.212183">
        <ele>1153.0</ele>
        <time>2013-06-30T13:28:12Z</time>
      </trkpt>
      <trkpt lat="40.150683" lon="-5.212317">
        <ele>1150.0</ele>
        <time>2013-06-30T13:28:13Z</time>
      </trkpt>
      <trkpt lat="40.150667" lon="-5.212450">
        <ele>1146.0</ele>
        <time>2013-06-30T13:28:14Z</time>
      </trkpt>
      <trkpt lat="40.150650" lon="-5.212600">
        <ele>1143.0</ele>
        <time>2013-06-30T13:28:15Z</time>
      </trkpt>
      <trkpt lat="40.150650" lon="-5.212717">
        <ele>1141.0</ele>
        <time>2013-06-30T13:28:16Z</time>
      </trkpt>
      <trkpt lat="40.150633" lon="-5.212850">
        <ele>1138.0</ele>
        <time>2013-06-30T13:28:17Z</time>
      </trkpt>
      <trkpt lat="40.150617" lon="-5.212967">
        <ele>1134.0</ele>
        <time>2013-06-30T13:28:18Z</time>
      </trkpt>
      <trkpt lat="40.150617" lon="-5.213083">
        <ele>1131.0</ele>
        <time>2013-06-30T13:28:19Z</time>
      </trkpt>
      <trkpt lat="40.150617" lon="-5.213217">
        <ele>1128.0</ele>
        <time>2013-06-30T13:28:20Z</time>
      </trkpt>
      <trkpt lat="40.150600" lon="-5.213350">
        <ele>1124.0</ele>
        <time>2013-06-30T13:28:21Z</time>
      </trkpt>
      <trkpt lat="40.150600" lon="-5.213483">
        <ele>1121.0</ele>
        <time>2013-06-30T13:28:22Z</time>
      </trkpt>
      <trkpt lat="40.150600" lon="-5.213617">
        <ele>1118.0</ele>
        <time>2013-06-30T13:28:23Z</time>
      </trkpt>
      <trkpt lat="40.150600" lon="-5.213750">
        <ele>1115.0</ele>
        <time>2013-06-30T13:28:24Z</time>
      </trkpt>
      <trkpt lat="40.150600" lon="-5.213883">
        <ele>1112.0</ele>
        <time>2013-06-30T13:28:25Z</time>
      </trkpt>
      <trkpt lat="40.150600" lon="-5.214017">
        <ele>1108.0</ele>
        <time>2013-06-30T13:28:26Z</time>
      </trkpt>
      <trkpt lat="40.150600" lon="-5.214150">
        <ele>1104.0</ele>
        <time>2013-06-30T13:28:27Z</time>
      </trkpt>
      <trkpt lat="40.150583" lon="-5.214283">
        <ele>1101.0</ele>
        <time>2013-06-30T13:28:28Z</time>
      </trkpt>
      <trkpt lat="40.150583" lon="-5.214417">
        <ele>1097.0</ele>
        <time>2013-06-30T13:28:29Z</time>
      </trkpt>
      <trkpt lat="40.150583" lon="-5.214567">
        <ele>1093.0</ele>
        <time>2013-06-30T13:28:30Z</time>
      </trkpt>
      <trkpt lat="40.150583" lon="-5.214717">
        <ele>1089.0</ele>
        <time>2013-06-30T13:28:31Z</time>
      </trkpt>
      <trkpt lat="40.150600" lon="-5.214867">
        <ele>1084.0</ele>
        <time>2013-06-30T13:28:32Z</time>
      </trkpt>
      <trkpt lat="40.150600" lon="-5.215017">
        <ele>1080.0</ele>
        <time>2013-06-30T13:28:33Z</time>
      </trkpt>
      <trkpt lat="40.150617" lon="-5.215167">
        <ele>1075.0</ele>
        <time>2013-06-30T13:28:34Z</time>
      </trkpt>
      <trkpt lat="40.150617" lon="-5.215317">
        <ele>1072.0</ele>
        <time>2013-06-30T13:28:35Z</time>
      </trkpt>
      <trkpt lat="40.150650" lon="-5.215467">
        <ele>1068.0</ele>
        <time>2013-06-30T13:28:36Z</time>
      </trkpt>
      <trkpt lat="40.150683" lon="-5.215617">
        <ele>1065.0</ele>
        <time>2013-06-30T13:28:37Z</time>
      </trkpt>
      <trkpt lat="40.150733" lon="-5.215767">
        <ele>1065.0</ele>
        <time>2013-06-30T13:28:38Z</time>
      </trkpt>
      <trkpt lat="40.150767" lon="-5.215900">
        <ele>1064.0</ele>
        <time>2013-06-30T13:28:39Z</time>
      </trkpt>
      <trkpt lat="40.150783" lon="-5.216033">
        <ele>1061.0</ele>
        <time>2013-06-30T13:28:40Z</time>
      </trkpt>
      <trkpt lat="40.150817" lon="-5.216150">
        <ele>1058.0</ele>
        <time>2013-06-30T13:28:41Z</time>
      </trkpt>
      <trkpt lat="40.150833" lon="-5.216283">
        <ele>1053.0</ele>
        <time>2013-06-30T13:28:42Z</time>
      </trkpt>
      <trkpt lat="40.150867" lon="-5.216417">
        <ele>1048.0</ele>
        <time>2013-06-30T13:28:43Z</time>
      </trkpt>
      <trkpt lat="40.150883" lon="-5.216583">
        <ele>1044.0</ele>
        <time>2013-06-30T13:28:44Z</time>
      </trkpt>
      <trkpt lat="40.150900" lon="-5.216717">
        <ele>1040.0</ele>
        <time>2013-06-30T13:28:45Z</time>
      </trkpt>
      <trkpt lat="40.150917" lon="-5.216850">
        <ele>1037.0</ele>
        <time>2013-06-30T13:28:46Z</time>
      </trkpt>
      <trkpt lat="40.150933" lon="-5.216950">
        <ele>1033.0</ele>
        <time>2013-06-30T13:28:47Z</time>
      </trkpt>
      <trkpt lat="40.150933" lon="-5.217067">
        <ele>1030.0</ele>
        <time>2013-06-30T13:28:48Z</time>
      </trkpt>
      <trkpt lat="40.150933" lon="-5.217200">
        <ele>1025.0</ele>
        <time>2013-06-30T13:28:49Z</time>
      </trkpt>
      <trkpt lat="40.150933" lon="-5.217350">
        <ele>1020.0</ele>
        <time>2013-06-30T13:28:50Z</time>
      </trkpt>
      <trkpt lat="40.150933" lon="-5.217517">
        <ele>1017.0</ele>
        <time>2013-06-30T13:28:51Z</time>
      </trkpt>
      <trkpt lat="40.150933" lon="-5.217667">
        <ele>1014.0</ele>
        <time>2013-06-30T13:28:52Z</time>
      </trkpt>
      <trkpt lat="40.150933" lon="-5.217800">
        <ele>1011.0</ele>
        <time>2013-06-30T13:28:53Z</time>
      </trkpt>
      <trkpt lat="40.150950" lon="-5.217900">
        <ele>1011.0</ele>
        <time>2013-06-30T13:28:54Z</time>
      </trkpt>
      <trkpt lat="40.150950" lon="-5.218017">
        <ele>1008.0</ele>
        <time>2013-06-30T13:28:55Z</time>
      </trkpt>
      <trkpt lat="40.150967" lon="-5.218133">
        <ele>1004.0</ele>
        <time>2013-06-30T13:28:56Z</time>
      </trkpt>
      <trkpt lat="40.150967" lon="-5.218267">
        <ele>1000.0</ele>
        <time>2013-06-30T13:28:57Z</time>
      </trkpt>
      <trkpt lat="40.150950" lon="-5.218417">
        <ele>996.0</ele>
        <time>2013-06-30T13:28:58Z</time>
      </trkpt>
      <trkpt lat="40.150950" lon="-5.218550">
        <ele>994.0</ele>
        <time>2013-06-30T13:28:59Z</time>
      </trkpt>
      <trkpt lat="40.150933" lon="-5.218667">
        <ele>991.0</ele>
        <time>2013-06-30T13:29:00Z</time>
      </trkpt>
      <trkpt lat="40.150917" lon="-5.218783">
        <ele>988.0</ele>
        <time>2013-06-30T13:29:01Z</time>
      </trkpt>
      <trkpt lat="40.150917" lon="-5.218900">
        <ele>985.0</ele>
        <time>2013-06-30T13:29:02Z</time>
      </trkpt>
      <trkpt lat="40.150917" lon="-5.219033">
        <ele>982.0</ele>
        <time>2013-06-30T13:29:03Z</time>
      </trkpt>
      <trkpt lat="40.150917" lon="-5.219183">
        <ele>979.0</ele>
        <time>2013-06-30T13:29:04Z</time>
      </trkpt>
      <trkpt lat="40.150900" lon="-5.219333">
        <ele>976.0</ele>
        <time>2013-06-30T13:29:05Z</time>
      </trkpt>
      <trkpt lat="40.150900" lon="-5.219467">
        <ele>974.0</ele>
        <time>2013-06-30T13:29:06Z</time>
      </trkpt>
      <trkpt lat="40.150883" lon="-5.219600">
        <ele>971.0</ele>
        <time>2013-06-30T13:29:07Z</time>
      </trkpt>
      <trkpt lat="40.150883" lon="-5.219717">
        <ele>968.0</ele>
        <time>2013-06-30T13:29:08Z</time>
      </trkpt>
      <trkpt lat="40.150883" lon="-5.219867">
        <ele>965.0</ele>
        <time>2013-06-30T13:29:09Z</time>
      </trkpt>
      <trkpt lat="40.150883" lon="-5.220000">
        <ele>961.0</ele>
        <time>2013-06-30T13:29:10Z</time>
      </trkpt>
      <trkpt lat="40.150867" lon="-5.220133">
        <ele>958.0</ele>
        <time>2013-06-30T13:29:11Z</time>
      </trkpt>
      <trkpt lat="40.150867" lon="-5.220267">
        <ele>955.0</ele>
        <time>2013-06-30T13:29:12Z</time>
      </trkpt>
      <trkpt lat="40.150850" lon="-5.220383">
        <ele>952.0</ele>
        <time>2013-06-30T13:29:13Z</time>
      </trkpt>
      <trkpt lat="40.150850" lon="-5.220500">
        <ele>948.0</ele>
        <time>2013-06-30T13:29:14Z</time>
      </trkpt>
      <trkpt lat="40.150867" lon="-5.220633">
        <ele>944.0</ele>
        <time>2013-06-30T13:29:15Z</time>
      </trkpt>
      <trkpt lat="40.150867" lon="-5.220783">
        <ele>939.0</ele>
        <time>2013-06-30T13:29:16Z</time>
      </trkpt>
      <trkpt lat="40.150850" lon="-5.220933">
        <ele>934.0</ele>
        <time>2013-06-30T13:29:17Z</time>
      </trkpt>
      <trkpt lat="40.150850" lon="-5.221083">
        <ele>930.0</ele>
        <time>2013-06-30T13:29:18Z</time>
      </trkpt>
      <trkpt lat="40.150833" lon="-5.221217">
        <ele>926.0</ele>
        <time>2013-06-30T13:29:19Z</time>
      </trkpt>
      <trkpt lat="40.150817" lon="-5.221350">
        <ele>922.0</ele>
        <time>2013-06-30T13:29:20Z</time>
      </trkpt>
      <trkpt lat="40.150800" lon="-5.221483">
        <ele>917.0</ele>
        <time>2013-06-30T13:29:21Z</time>
      </trkpt>
      <trkpt lat="40.150783" lon="-5.221633">
        <ele>913.0</ele>
        <time>2013-06-30T13:29:22Z</time>
      </trkpt>
      <trkpt lat="40.150767" lon="-5.221783">
        <ele>909.0</ele>
        <time>2013-06-30T13:29:23Z</time>
      </trkpt>
      <trkpt lat="40.150733" lon="-5.221933">
        <ele>904.0</ele>
        <time>2013-06-30T13:29:24Z</time>
      </trkpt>
      <trkpt lat="40.150717" lon="-5.222100">
        <ele>901.0</ele>
        <time>2013-06-30T13:29:25Z</time>
      </trkpt>
      <trkpt lat="40.150717" lon="-5.222233">
        <ele>897.0</ele>
        <time>2013-06-30T13:29:26Z</time>
      </trkpt>
      <trkpt lat="40.150700" lon="-5.222367">
        <ele>895.0</ele>
        <time>2013-06-30T13:29:27Z</time>
      </trkpt>
      <trkpt lat="40.150700" lon="-5.222500">
        <ele>891.0</ele>
        <time>2013-06-30T13:29:28Z</time>
      </trkpt>
      <trkpt lat="40.150700" lon="-5.222633">
        <ele>887.0</ele>
        <time>2013-06-30T13:29:29Z</time>
      </trkpt>
      <trkpt lat="40.150700" lon="-5.222783">
        <ele>882.0</ele>
        <time>2013-06-30T13:29:30Z</time>
      </trkpt>
      <trkpt lat="40.150683" lon="-5.222950">
        <ele>877.0</ele>
        <time>2013-06-30T13:29:31Z</time>
      </trkpt>
      <trkpt lat="40.150683" lon="-5.223100">
        <ele>873.0</ele>
        <time>2013-06-30T13:29:32Z</time>
      </trkpt>
      <trkpt lat="40.150683" lon="-5.223250">
        <ele>869.0</ele>
        <time>2013-06-30T13:29:33Z</time>
      </trkpt>
      <trkpt lat="40.150683" lon="-5.223383">
        <ele>866.0</ele>
        <time>2013-06-30T13:29:34Z</time>
      </trkpt>
      <trkpt lat="40.150683" lon="-5.223533">
        <ele>863.0</ele>
        <time>2013-06-30T13:29:35Z</time>
      </trkpt>
      <trkpt lat="40.150683" lon="-5.223683">
        <ele>859.0</ele>
        <time>2013-06-30T13:29:36Z</time>
      </trkpt>
      <trkpt lat="40.150683" lon="-5.223850">
        <ele>855.0</ele>
        <time>2013-06-30T13:29:37Z</time>
      </trkpt>
      <trkpt lat="40.150700" lon="-5.224017">
        <ele>851.0</ele>
        <time>2013-06-30T13:29:38Z</time>
      </trkpt>
      <trkpt lat="40.150700" lon="-5.224200">
        <ele>849.0</ele>
        <time>2013-06-30T13:29:39Z</time>
      </trkpt>
      <trkpt lat="40.150700" lon="-5.224350">
        <ele>846.0</ele>
        <time>2013-06-30T13:29:40Z</time>
      </trkpt>
      <trkpt lat="40.150683" lon="-5.224500">
        <ele>844.0</ele>
        <time>2013-06-30T13:29:41Z</time>
      </trkpt>
      <trkpt lat="40.150667" lon="-5.224650">
        <ele>841.0</ele>
        <time>2013-06-30T13:29:42Z</time>
      </trkpt>
      <trkpt lat="40.150650" lon="-5.224800">
        <ele>838.0</ele>
        <time>2013-06-30T13:29:43Z</time>
      </trkpt>
      <trkpt lat="40.150633" lon="-5.224950">
        <ele>835.0</ele>
        <time>2013-06-30T13:29:44Z</time>
      </trkpt>
      <trkpt lat="40.150617" lon="-5.225117">
        <ele>832.0</ele>
        <time>2013-06-30T13:29:45Z</time>
      </trkpt>
      <trkpt lat="40.150600" lon="-5.225283">
        <ele>830.0</ele>
        <time>2013-06-30T13:29:46Z</time>
      </trkpt>
      <trkpt lat="40.150600" lon="-5.225450">
        <ele>828.0</ele>
        <time>2013-06-30T13:29:47Z</time>
      </trkpt>
      <trkpt lat="40.150600" lon="-5.225600">
        <ele>826.0</ele>
        <time>2013-06-30T13:29:48Z</time>
      </trkpt>
      <trkpt lat="40.150600" lon="-5.225750">
        <ele>828.0</ele>
        <time>2013-06-30T13:29:49Z</time>
      </trkpt>
      <trkpt lat="40.150583" lon="-5.225883">
        <ele>827.0</ele>
        <time>2013-06-30T13:29:50Z</time>
      </trkpt>
      <trkpt lat="40.150567" lon="-5.226017">
        <ele>827.0</ele>
        <time>2013-06-30T13:29:51Z</time>
      </trkpt>
      <trkpt lat="40.150567" lon="-5.226150">
        <ele>827.0</ele>
        <time>2013-06-30T13:29:52Z</time>
      </trkpt>
      <trkpt lat="40.150583" lon="-5.226267">
        <ele>829.0</ele>
        <time>2013-06-30T13:29:53Z</time>
      </trkpt>
      <trkpt lat="40.150583" lon="-5.226383">
        <ele>829.0</ele>
        <time>2013-06-30T13:29:54Z</time>
      </trkpt>
      <trkpt lat="40.150600" lon="-5.226500">
        <ele>830.0</ele>
        <time>2013-06-30T13:29:55Z</time>
      </trkpt>
      <trkpt lat="40.150617" lon="-5.226617">
        <ele>830.0</ele>
        <time>2013-06-30T13:29:56Z</time>
      </trkpt>
      <trkpt lat="40.150617" lon="-5.226733">
        <ele>832.0</ele>
        <time>2013-06-30T13:29:57Z</time>
      </trkpt>
      <trkpt lat="40.150633" lon="-5.226867">
        <ele>833.0</ele>
        <time>2013-06-30T13:29:58Z</time>
      </trkpt>
      <trkpt lat="40.150650" lon="-5.226983">
        <ele>835.0</ele>
        <time>2013-06-30T13:29:59Z</time>
      </trkpt>
      <trkpt lat="40.150650" lon="-5.227117">
        <ele>838.0</ele>
        <time>2013-06-30T13:30:00Z</time>
      </trkpt>
      <trkpt lat="40.150667" lon="-5.227233">
        <ele>840.0</ele>
        <time>2013-06-30T13:30:01Z</time>
      </trkpt>
      <trkpt lat="40.150683" lon="-5.227333">
        <ele>842.0</ele>
        <time>2013-06-30T13:30:02Z</time>
      </trkpt>
      <trkpt lat="40.150700" lon="-5.227450">
        <ele>844.0</ele>
        <time>2013-06-30T13:30:03Z</time>
      </trkpt>
      <trkpt lat="40.150717" lon="-5.227567">
        <ele>846.0</ele>
        <time>2013-06-30T13:30:04Z</time>
      </trkpt>
      <trkpt lat="40.150750" lon="-5.227700">
        <ele>848.0</ele>
        <time>2013-06-30T13:30:05Z</time>
      </trkpt>
      <trkpt lat="40.150783" lon="-5.227817">
        <ele>851.0</ele>
        <time>2013-06-30T13:30:06Z</time>
      </trkpt>
      <trkpt lat="40.150817" lon="-5.227917">
        <ele>854.0</ele>
        <time>2013-06-30T13:30:07Z</time>
      </trkpt>
      <trkpt lat="40.150850" lon="-5.228017">
        <ele>856.0</ele>
        <time>2013-06-30T13:30:08Z</time>
      </trkpt>
      <trkpt lat="40.150917" lon="-5.228117">
        <ele>858.0</ele>
        <time>2013-06-30T13:30:09Z</time>
      </trkpt>
      <trkpt lat="40.151000" lon="-5.228200">
        <ele>859.0</ele>
        <time>2013-06-30T13:30:10Z</time>
      </trkpt>
      <trkpt lat="40.151083" lon="-5.228267">
        <ele>861.0</ele>
        <time>2013-06-30T13:30:11Z</time>
      </trkpt>
      <trkpt lat="40.151167" lon="-5.228317">
        <ele>863.0</ele>
        <time>2013-06-30T13:30:12Z</time>
      </trkpt>
      <trkpt lat="40.151233" lon="-5.228333">
        <ele>865.0</ele>
        <time>2013-06-30T13:30:13Z</time>
      </trkpt>
      <trkpt lat="40.151300" lon="-5.228300">
        <ele>866.0</ele>
        <time>2013-06-30T13:30:14Z</time>
      </trkpt>
      <trkpt lat="40.151367" lon="-5.228250">
        <ele>867.0</ele>
        <time>2013-06-30T13:30:15Z</time>
      </trkpt>
      <trkpt lat="40.151433" lon="-5.228200">
        <ele>869.0</ele>
        <time>2013-06-30T13:30:16Z</time>
      </trkpt>
      <trkpt lat="40.151517" lon="-5.228167">
        <ele>872.0</ele>
        <time>2013-06-30T13:30:17Z</time>
      </trkpt>
      <trkpt lat="40.151550" lon="-5.228117">
        <ele>875.0</ele>
        <time>2013-06-30T13:30:18Z</time>
      </trkpt>
      <trkpt lat="40.151567" lon="-5.228067">
        <ele>877.0</ele>
        <time>2013-06-30T13:30:19Z</time>
      </trkpt>
      <trkpt lat="40.151550" lon="-5.228017">
        <ele>877.0</ele>
        <time>2013-06-30T13:30:20Z</time>
      </trkpt>
      <trkpt lat="40.151533" lon="-5.227967">
        <ele>876.0</ele>
        <time>2013-06-30T13:30:21Z</time>
      </trkpt>
      <trkpt lat="40.151500" lon="-5.227950">
        <ele>876.0</ele>
        <time>2013-06-30T13:30:22Z</time>
      </trkpt>
      <trkpt lat="40.151467" lon="-5.227933">
        <ele>876.0</ele>
        <time>2013-06-30T13:30:23Z</time>
      </trkpt>
      <trkpt lat="40.151417" lon="-5.227933">
        <ele>876.0</ele>
        <time>2013-06-30T13:30:24Z</time>
      </trkpt>
      <trkpt lat="40.151367" lon="-5.227983">
        <ele>876.0</ele>
        <time>2013-06-30T13:30:25Z</time>
      </trkpt>
      <trkpt lat="40.151333" lon="-5.228050">
        <ele>877.0</ele>
        <time>2013-06-30T13:30:26Z</time>
      </trkpt>
      <trkpt lat="40.151317" lon="-5.228167">
        <ele>877.0</ele>
        <time>2013-06-30T13:30:27Z</time>
      </trkpt>
      <trkpt lat="40.151333" lon="-5.228283">
        <ele>878.0</ele>
        <time>2013-06-30T13:30:28Z</time>
      </trkpt>
      <trkpt lat="40.151367" lon="-5.228400">
        <ele>880.0</ele>
        <time>2013-06-30T13:30:29Z</time>
      </trkpt>
      <trkpt lat="40.151417" lon="-5.228483">
        <ele>882.0</ele>
        <time>2013-06-30T13:30:30Z</time>
      </trkpt>
      <trkpt lat="40.151433" lon="-5.228550">
        <ele>883.0</ele>
        <time>2013-06-30T13:30:31Z</time>
      </trkpt>
      <trkpt lat="40.151467" lon="-5.228633">
        <ele>882.0</ele>
        <time>2013-06-30T13:30:32Z</time>
      </trkpt>
      <trkpt lat="40.151467" lon="-5.228750">
        <ele>882.0</ele>
        <time>2013-06-30T13:30:33Z</time>
      </trkpt>
      <trkpt lat="40.151467" lon="-5.228867">
        <ele>883.0</ele>
        <time>2013-06-30T13:30:34Z</time>
      </trkpt>
      <trkpt lat="40.151433" lon="-5.228933">
        <ele>884.0</ele>
        <time>2013-06-30T13:30:35Z</time>
      </trkpt>
      <trkpt lat="40.151367" lon="-5.228967">
        <ele>884.0</ele>
        <time>2013-06-30T13:30:36Z</time>
      </trkpt>
      <trkpt lat="40.151317" lon="-5.228983">
        <ele>884.0</ele>
        <time>2013-06-30T13:30:37Z</time>
      </trkpt>
      <trkpt lat="40.151250" lon="-5.229000">
        <ele>886.0</ele>
        <time>2013-06-30T13:30:38Z</time>
      </trkpt>
      <trkpt lat="40.151217" lon="-5.229033">
        <ele>888.0</ele>
        <time>2013-06-30T13:30:39Z</time>
      </trkpt>
      <trkpt lat="40.151183" lon="-5.229033">
        <ele>890.0</ele>
        <time>2013-06-30T13:30:40Z</time>
      </trkpt>
      <trkpt lat="40.151150" lon="-5.229033">
        <ele>891.0</ele>
        <time>2013-06-30T13:30:41Z</time>
      </trkpt>
      <trkpt lat="40.151100" lon="-5.228983">
        <ele>891.0</ele>
        <time>2013-06-30T13:30:42Z</time>
      </trkpt>
      <trkpt lat="40.151050" lon="-5.228933">
        <ele>894.0</ele>
        <time>2013-06-30T13:30:43Z</time>
      </trkpt>
      <trkpt lat="40.151033" lon="-5.228883">
        <ele>896.0</ele>
        <time>2013-06-30T13:30:44Z</time>
      </trkpt>
      <trkpt lat="40.151033" lon="-5.228833">
        <ele>899.0</ele>
        <time>2013-06-30T13:30:45Z</time>
      </trkpt>
      <trkpt lat="40.151050" lon="-5.228783">
        <ele>901.0</ele>
        <time>2013-06-30T13:30:46Z</time>
      </trkpt>
      <trkpt lat="40.151067" lon="-5.228717">
        <ele>901.0</ele>
        <time>2013-06-30T13:30:47Z</time>
      </trkpt>
      <trkpt lat="40.151117" lon="-5.228633">
        <ele>902.0</ele>
        <time>2013-06-30T13:30:48Z</time>
      </trkpt>
      <trkpt lat="40.151167" lon="-5.228550">
        <ele>904.0</ele>
        <time>2013-06-30T13:30:49Z</time>
      </trkpt>
      <trkpt lat="40.151233" lon="-5.228517">
        <ele>905.0</ele>
        <time>2013-06-30T13:30:50Z</time>
      </trkpt>
      <trkpt lat="40.151317" lon="-5.228500">
        <ele>906.0</ele>
        <time>2013-06-30T13:30:51Z</time>
      </trkpt>
      <trkpt lat="40.151400" lon="-5.228500">
        <ele>908.0</ele>
        <time>2013-06-30T13:30:52Z</time>
      </trkpt>
      <trkpt lat="40.151483" lon="-5.228550">
        <ele>910.0</ele>
        <time>2013-06-30T13:30:53Z</time>
      </trkpt>
      <trkpt lat="40.151567" lon="-5.228600">
        <ele>911.0</ele>
        <time>2013-06-30T13:30:54Z</time>
      </trkpt>
      <trkpt lat="40.151650" lon="-5.228683">
        <ele>912.0</ele>
        <time>2013-06-30T13:30:55Z</time>
      </trkpt>
      <trkpt lat="40.151700" lon="-5.228783">
        <ele>913.0</ele>
        <time>2013-06-30T13:30:56Z</time>
      </trkpt>
      <trkpt lat="40.151717" lon="-5.228900">
        <ele>914.0</ele>
        <time>2013-06-30T13:30:57Z</time>
      </trkpt>
      <trkpt lat="40.151717" lon="-5.229017">
        <ele>915.0</ele>
        <time>2013-06-30T13:30:58Z</time>
      </trkpt>
      <trkpt lat="40.151700" lon="-5.229100">
        <ele>916.0</ele>
        <time>2013-06-30T13:30:59Z</time>
      </trkpt>
      <trkpt lat="40.151683" lon="-5.229167">
        <ele>918.0</ele>
        <time>2013-06-30T13:31:00Z</time>
      </trkpt>
      <trkpt lat="40.151650" lon="-5.229233">
        <ele>921.0</ele>
        <time>2013-06-30T13:31:01Z</time>
      </trkpt>
      <trkpt lat="40.151633" lon="-5.229300">
        <ele>923.0</ele>
        <time>2013-06-30T13:31:02Z</time>
      </trkpt>
      <trkpt lat="40.151600" lon="-5.229350">
        <ele>925.0</ele>
        <time>2013-06-30T13:31:03Z</time>
      </trkpt>
      <trkpt lat="40.151583" lon="-5.229383">
        <ele>927.0</ele>
        <time>2013-06-30T13:31:04Z</time>
      </trkpt>
      <trkpt lat="40.151533" lon="-5.229400">
        <ele>928.0</ele>
        <time>2013-06-30T13:31:05Z</time>
      </trkpt>
      <trkpt lat="40.151483" lon="-5.229400">
        <ele>930.0</ele>
        <time>2013-06-30T13:31:06Z</time>
      </trkpt>
      <trkpt lat="40.151433" lon="-5.229367">
        <ele>932.0</ele>
        <time>2013-06-30T13:31:07Z</time>
      </trkpt>
      <trkpt lat="40.151400" lon="-5.229317">
        <ele>934.0</ele>
        <time>2013-06-30T13:31:08Z</time>
      </trkpt>
      <trkpt lat="40.151383" lon="-5.229250">
        <ele>935.0</ele>
        <time>2013-06-30T13:31:09Z</time>
      </trkpt>
      <trkpt lat="40.151383" lon="-5.229167">
        <ele>935.0</ele>
        <time>2013-06-30T13:31:10Z</time>
      </trkpt>
      <trkpt lat="40.151417" lon="-5.229067">
        <ele>936.0</ele>
        <time>2013-06-30T13:31:11Z</time>
      </trkpt>
      <trkpt lat="40.151467" lon="-5.228983">
        <ele>937.0</ele>
        <time>2013-06-30T13:31:12Z</time>
      </trkpt>
      <trkpt lat="40.151517" lon="-5.228900">
        <ele>938.0</ele>
        <time>2013-06-30T13:31:13Z</time>
      </trkpt>
      <trkpt lat="40.151583" lon="-5.228850">
        <ele>940.0</ele>
        <time>2013-06-30T13:31:14Z</time>
      </trkpt>
      <trkpt lat="40.151667" lon="-5.228817">
        <ele>942.0</ele>
        <time>2013-06-30T13:31:15Z</time>
      </trkpt>
      <trkpt lat="40.151750" lon="-5.228833">
        <ele>944.0</ele>
        <time>2013-06-30T13:31:16Z</time>
      </trkpt>
      <trkpt lat="40.151833" lon="-5.228867">
        <ele>945.0</ele>
        <time>2013-06-30T13:31:17Z</time>
      </trkpt>
      <trkpt lat="40.151900" lon="-5.228933">
        <ele>946.0</ele>
        <time>2013-06-30T13:31:18Z</time>
      </trkpt>
      <trkpt lat="40.151983" lon="-5.229017">
        <ele>947.0</ele>
        <time>2013-06-30T13:31:19Z</time>
      </trkpt>
      <trkpt lat="40.152050" lon="-5.229117">
        <ele>948.0</ele>
        <time>2013-06-30T13:31:20Z</time>
      </trkpt>
      <trkpt lat="40.152117" lon="-5.229233">
        <ele>950.0</ele>
        <time>2013-06-30T13:31:21Z</time>
      </trkpt>
      <trkpt lat="40.152167" lon="-5.229333">
        <ele>951.0</ele>
        <time>2013-06-30T13:31:22Z</time>
      </trkpt>
      <trkpt lat="40.152200" lon="-5.229467">
        <ele>952.0</ele>
        <time>2013-06-30T13:31:23Z</time>
      </trkpt>
      <trkpt lat="40.152233" lon="-5.229583">
        <ele>953.0</ele>
        <time>2013-06-30T13:31:24Z</time>
      </trkpt>
      <trkpt lat="40.152250" lon="-5.229717">
        <ele>955.0</ele>
        <time>2013-06-30T13:31:25Z</time>
      </trkpt>
      <trkpt lat="40.152233" lon="-5.229833">
        <ele>954.0</ele>
        <time>2013-06-30T13:31:26Z</time>
      </trkpt>
      <trkpt lat="40.152183" lon="-5.229950">
        <ele>953.0</ele>
        <time>2013-06-30T13:31:27Z</time>
      </trkpt>
      <trkpt lat="40.152117" lon="-5.230033">
        <ele>954.0</ele>
        <time>2013-06-30T13:31:28Z</time>
      </trkpt>
      <trkpt lat="40.152050" lon="-5.230100">
        <ele>956.0</ele>
        <time>2013-06-30T13:31:29Z</time>
      </trkpt>
      <trkpt lat="40.152000" lon="-5.230133">
        <ele>959.0</ele>
        <time>2013-06-30T13:31:30Z</time>
      </trkpt>
      <trkpt lat="40.151967" lon="-5.230183">
        <ele>960.0</ele>
        <time>2013-06-30T13:31:31Z</time>
      </trkpt>
      <trkpt lat="40.151933" lon="-5.230217">
        <ele>962.0</ele>
        <time>2013-06-30T13:31:32Z</time>
      </trkpt>
      <trkpt lat="40.151900" lon="-5.230217">
        <ele>963.0</ele>
        <time>2013-06-30T13:31:33Z</time>
      </trkpt>
      <trkpt lat="40.151850" lon="-5.230200">
        <ele>964.0</ele>
        <time>2013-06-30T13:31:34Z</time>
      </trkpt>
      <trkpt lat="40.151800" lon="-5.230150">
        <ele>962.0</ele>
        <time>2013-06-30T13:31:35Z</time>
      </trkpt>
      <trkpt lat="40.151783" lon="-5.230100">
        <ele>962.0</ele>
        <time>2013-06-30T13:31:36Z</time>
      </trkpt>
      <trkpt lat="40.151767" lon="-5.230017">
        <ele>963.0</ele>
        <time>2013-06-30T13:31:37Z</time>
      </trkpt>
      <trkpt lat="40.151783" lon="-5.229933">
        <ele>963.0</ele>
        <time>2013-06-30T13:31:38Z</time>
      </trkpt>
      <trkpt lat="40.151817" lon="-5.229850">
        <ele>962.0</ele>
        <time>2013-06-30T13:31:39Z</time>
      </trkpt>
      <trkpt lat="40.151900" lon="-5.229767">
        <ele>961.0</ele>
        <time>2013-06-30T13:31:40Z</time>
      </trkpt>
      <trkpt lat="40.151983" lon="-5.229733">
        <ele>961.0</ele>
        <time>2013-06-30T13:31:41Z</time>
      </trkpt>
      <trkpt lat="40.152083" lon="-5.229733">
        <ele>961.0</ele>
        <time>2013-06-30T13:31:42Z</time>
      </trkpt>
      <trkpt lat="40.152183" lon="-5.229783">
        <ele>962.0</ele>
        <time>2013-06-30T13:31:43Z</time>
      </trkpt>
      <trkpt lat="40.152267" lon="-5.229867">
        <ele>963.0</ele>
        <time>2013-06-30T13:31:44Z</time>
      </trkpt>
      <trkpt lat="40.152333" lon="-5.229967">
        <ele>965.0</ele>
        <time>2013-06-30T13:31:45Z</time>
      </trkpt>
      <trkpt lat="40.152383" lon="-5.230067">
        <ele>967.0</ele>
        <time>2013-06-30T13:31:46Z</time>
      </trkpt>
      <trkpt lat="40.152433" lon="-5.230183">
        <ele>968.0</ele>
        <time>2013-06-30T13:31:47Z</time>
      </trkpt>
      <trkpt lat="40.152500" lon="-5.230300">
        <ele>969.0</ele>
        <time>2013-06-30T13:31:48Z</time>
      </trkpt>
      <trkpt lat="40.152550" lon="-5.230433">
        <ele>970.0</ele>
        <time>2013-06-30T13:31:49Z</time>
      </trkpt>
      <trkpt lat="40.152600" lon="-5.230550">
        <ele>972.0</ele>
        <time>2013-06-30T13:31:50Z</time>
      </trkpt>
      <trkpt lat="40.152617" lon="-5.230683">
        <ele>973.0</ele>
        <time>2013-06-30T13:31:51Z</time>
      </trkpt>
      <trkpt lat="40.152617" lon="-5.230800">
        <ele>974.0</ele>
        <time>2013-06-30T13:31:52Z</time>
      </trkpt>
      <trkpt lat="40.152583" lon="-5.230900">
        <ele>975.0</ele>
        <time>2013-06-30T13:31:53Z</time>
      </trkpt>
      <trkpt lat="40.152550" lon="-5.231000">
        <ele>976.0</ele>
        <time>2013-06-30T13:31:54Z</time>
      </trkpt>
      <trkpt lat="40.152500" lon="-5.231083">
        <ele>977.0</ele>
        <time>2013-06-30T13:31:55Z</time>
      </trkpt>
      <trkpt lat="40.152467" lon="-5.231150">
        <ele>978.0</ele>
        <time>2013-06-30T13:31:56Z</time>
      </trkpt>
      <trkpt lat="40.152417" lon="-5.231233">
        <ele>979.0</ele>
        <time>2013-06-30T13:31:57Z</time>
      </trkpt>
      <trkpt lat="40.152383" lon="-5.231300">
        <ele>981.0</ele>
        <time>2013-06-30T13:31:58Z</time>
      </trkpt>
      <trkpt lat="40.152350" lon="-5.231367">
        <ele>982.0</ele>
        <time>2013-06-30T13:31:59Z</time>
      </trkpt>
      <trkpt lat="40.152333" lon="-5.231433">
        <ele>984.0</ele>
        <time>2013-06-30T13:32:00Z</time>
      </trkpt>
      <trkpt lat="40.152300" lon="-5.231483">
        <ele>986.0</ele>
        <time>2013-06-30T13:32:01Z</time>
      </trkpt>
      <trkpt lat="40.152250" lon="-5.231550">
        <ele>988.0</ele>
        <time>2013-06-30T13:32:02Z</time>
      </trkpt>
      <trkpt lat="40.152217" lon="-5.231600">
        <ele>989.0</ele>
        <time>2013-06-30T13:32:03Z</time>
      </trkpt>
      <trkpt lat="40.152167" lon="-5.231633">
        <ele>991.0</ele>
        <time>2013-06-30T13:32:04Z</time>
      </trkpt>
      <trkpt lat="40.152133" lon="-5.231667">
        <ele>993.0</ele>
        <time>2013-06-30T13:32:05Z</time>
      </trkpt>
      <trkpt lat="40.152100" lon="-5.231683">
        <ele>994.0</ele>
        <time>2013-06-30T13:32:06Z</time>
      </trkpt>
      <trkpt lat="40.152050" lon="-5.231683">
        <ele>996.0</ele>
        <time>2013-06-30T13:32:07Z</time>
      </trkpt>
      <trkpt lat="40.151983" lon="-5.231667">
        <ele>997.0</ele>
        <time>2013-06-30T13:32:08Z</time>
      </trkpt>
      <trkpt lat="40.151950" lon="-5.231650">
        <ele>1000.0</ele>
        <time>2013-06-30T13:32:09Z</time>
      </trkpt>
      <trkpt lat="40.151917" lon="-5.231617">
        <ele>1002.0</ele>
        <time>2013-06-30T13:32:10Z</time>
      </trkpt>
      <trkpt lat="40.151900" lon="-5.231567">
        <ele>1003.0</ele>
        <time>2013-06-30T13:32:11Z</time>
      </trkpt>
      <trkpt lat="40.151883" lon="-5.231517">
        <ele>1003.0</ele>
        <time>2013-06-30T13:32:12Z</time>
      </trkpt>
      <trkpt lat="40.151883" lon="-5.231433">
        <ele>1003.0</ele>
        <time>2013-06-30T13:32:13Z</time>
      </trkpt>
      <trkpt lat="40.151900" lon="-5.231350">
        <ele>1004.0</ele>
        <time>2013-06-30T13:32:14Z</time>
      </trkpt>
      <trkpt lat="40.151933" lon="-5.231267">
        <ele>1005.0</ele>
        <time>2013-06-30T13:32:15Z</time>
      </trkpt>
      <trkpt lat="40.151983" lon="-5.231200">
        <ele>1006.0</ele>
        <time>2013-06-30T13:32:16Z</time>
      </trkpt>
      <trkpt lat="40.152050" lon="-5.231133">
        <ele>1008.0</ele>
        <time>2013-06-30T13:32:17Z</time>
      </trkpt>
      <trkpt lat="40.152133" lon="-5.231083">
        <ele>1009.0</ele>
        <time>2013-06-30T13:32:18Z</time>
      </trkpt>
      <trkpt lat="40.152233" lon="-5.231050">
        <ele>1011.0</ele>
        <time>2013-06-30T13:32:19Z</time>
      </trkpt>
      <trkpt lat="40.152317" lon="-5.231050">
        <ele>1013.0</ele>
        <time>2013-06-30T13:32:20Z</time>
      </trkpt>
      <trkpt lat="40.152400" lon="-5.231083">
        <ele>1014.0</ele>
        <time>2013-06-30T13:32:21Z</time>
      </trkpt>
      <trkpt lat="40.152467" lon="-5.231133">
        <ele>1015.0</ele>
        <time>2013-06-30T13:32:22Z</time>
      </trkpt>
      <trkpt lat="40.152517" lon="-5.231217">
        <ele>1015.0</ele>
        <time>2013-06-30T13:32:23Z</time>
      </trkpt>
      <trkpt lat="40.152550" lon="-5.231300">
        <ele>1016.0</ele>
        <time>2013-06-30T13:32:24Z</time>
      </trkpt>
      <trkpt lat="40.152550" lon="-5.231417">
        <ele>1017.0</ele>
        <time>2013-06-30T13:32:25Z</time>
      </trkpt>
      <trkpt lat="40.152567" lon="-5.231533">
        <ele>1018.0</ele>
        <time>2013-06-30T13:32:26Z</time>
      </trkpt>
      <trkpt lat="40.152567" lon="-5.231633">
        <ele>1020.0</ele>
        <time>2013-06-30T13:32:27Z</time>
      </trkpt>
      <trkpt lat="40.152583" lon="-5.231733">
        <ele>1021.0</ele>
        <time>2013-06-30T13:32:28Z</time>
      </trkpt>
      <trkpt lat="40.152583" lon="-5.231817">
        <ele>1022.0</ele>
        <time>2013-06-30T13:32:29Z</time>
      </trkpt>
      <trkpt lat="40.152583" lon="-5.231917">
        <ele>1023.0</ele>
        <time>2013-06-30T13:32:30Z</time>
      </trkpt>
      <trkpt lat="40.152550" lon="-5.232017">
        <ele>1023.0</ele>
        <time>2013-06-30T13:32:31Z</time>
      </trkpt>
      <trkpt lat="40.152500" lon="-5.232083">
        <ele>1023.0</ele>
        <time>2013-06-30T13:32:32Z</time>
      </trkpt>
      <trkpt lat="40.152433" lon="-5.232117">
        <ele>1023.0</ele>
        <time>2013-06-30T13:32:33Z</time>
      </trkpt>
      <trkpt lat="40.152383" lon="-5.232117">
        <ele>1023.0</ele>
        <time>2013-06-30T13:32:34Z</time>
      </trkpt>
      <trkpt lat="40.152350" lon="-5.232100">
        <ele>1024.0</ele>
        <time>2013-06-30T13:32:35Z</time>
      </trkpt>
      <trkpt lat="40.152300" lon="-5.232067">
        <ele>1024.0</ele>
        <time>2013-06-30T13:32:36Z</time>
      </trkpt>
      <trkpt lat="40.152267" lon="-5.232050">
        <ele>1024.0</ele>
        <time>2013-06-30T13:32:37Z</time>
      </trkpt>
      <trkpt lat="40.152233" lon="-5.232000">
        <ele>1024.0</ele>
        <time>2013-06-30T13:32:38Z</time>
      </trkpt>
      <trkpt lat="40.152183" lon="-5.231933">
        <ele>1023.0</ele>
        <time>2013-06-30T13:32:39Z</time>
      </trkpt>
      <trkpt lat="40.152150" lon="-5.231850">
        <ele>1024.0</ele>
        <time>2013-06-30T13:32:40Z</time>
      </trkpt>
      <trkpt lat="40.152133" lon="-5.231783">
        <ele>1025.0</ele>
        <time>2013-06-30T13:32:41Z</time>
      </trkpt>
      <trkpt lat="40.152133" lon="-5.231700">
        <ele>1026.0</ele>
        <time>2013-06-30T13:32:42Z</time>
      </trkpt>
      <trkpt lat="40.152133" lon="-5.231617">
        <ele>1026.0</ele>
        <time>2013-06-30T13:32:43Z</time>
      </trkpt>
      <trkpt lat="40.152150" lon="-5.231533">
        <ele>1026.0</ele>
        <time>2013-06-30T13:32:44Z</time>
      </trkpt>
      <trkpt lat="40.152183" lon="-5.231450">
        <ele>1027.0</ele>
        <time>2013-06-30T13:32:45Z</time>
      </trkpt>
      <trkpt lat="40.152250" lon="-5.231367">
        <ele>1027.0</ele>
        <time>2013-06-30T13:32:46Z</time>
      </trkpt>
      <trkpt lat="40.152333" lon="-5.231317">
        <ele>1028.0</ele>
        <time>2013-06-30T13:32:47Z</time>
      </trkpt>
      <trkpt lat="40.152450" lon="-5.231283">
        <ele>1030.0</ele>
        <time>2013-06-30T13:32:48Z</time>
      </trkpt>
      <trkpt lat="40.152550" lon="-5.231300">
        <ele>1033.0</ele>
        <time>2013-06-30T13:32:49Z</time>
      </trkpt>
      <trkpt lat="40.152633" lon="-5.231333">
        <ele>1035.0</ele>
        <time>2013-06-30T13:32:50Z</time>
      </trkpt>
      <trkpt lat="40.152717" lon="-5.231367">
        <ele>1038.0</ele>
        <time>2013-06-30T13:32:51Z</time>
      </trkpt>
      <trkpt lat="40.152800" lon="-5.231417">
        <ele>1040.0</ele>
        <time>2013-06-30T13:32:52Z</time>
      </trkpt>
      <trkpt lat="40.152867" lon="-5.231467">
        <ele>1042.0</ele>
        <time>2013-06-30T13:32:53Z</time>
      </trkpt>
      <trkpt lat="40.152933" lon="-5.231500">
        <ele>1043.0</ele>
        <time>2013-06-30T13:32:54Z</time>
      </trkpt>
      <trkpt lat="40.153000" lon="-5.231567">
        <ele>1043.0</ele>
        <time>2013-06-30T13:32:55Z</time>
      </trkpt>
      <trkpt lat="40.153067" lon="-5.231633">
        <ele>1043.0</ele>
        <time>2013-06-30T13:32:56Z</time>
      </trkpt>
      <trkpt lat="40.153133" lon="-5.231717">
        <ele>1042.0</ele>
        <time>2013-06-30T13:32:57Z</time>
      </trkpt>
      <trkpt lat="40.153183" lon="-5.231833">
        <ele>1042.0</ele>
        <time>2013-06-30T13:32:58Z</time>
      </trkpt>
      <trkpt lat="40.153233" lon="-5.231933">
        <ele>1042.0</ele>
        <time>2013-06-30T13:32:59Z</time>
      </trkpt>
      <trkpt lat="40.153233" lon="-5.232050">
        <ele>1042.0</ele>
        <time>2013-06-30T13:33:00Z</time>
      </trkpt>
      <trkpt lat="40.153233" lon="-5.232167">
        <ele>1043.0</ele>
        <time>2013-06-30T13:33:01Z</time>
      </trkpt>
      <trkpt lat="40.153217" lon="-5.232250">
        <ele>1043.0</ele>
        <time>2013-06-30T13:33:02Z</time>
      </trkpt>
      <trkpt lat="40.153217" lon="-5.232333">
        <ele>1045.0</ele>
        <time>2013-06-30T13:33:03Z</time>
      </trkpt>
      <trkpt lat="40.153183" lon="-5.232417">
        <ele>1046.0</ele>
        <time>2013-06-30T13:33:04Z</time>
      </trkpt>
      <trkpt lat="40.153150" lon="-5.232483">
        <ele>1047.0</ele>
        <time>2013-06-30T13:33:05Z</time>
      </trkpt>
      <trkpt lat="40.153117" lon="-5.232550">
        <ele>1048.0</ele>
        <time>2013-06-30T13:33:06Z</time>
      </trkpt>
      <trkpt lat="40.153067" lon="-5.232583">
        <ele>1049.0</ele>
        <time>2013-06-30T13:33:07Z</time>
      </trkpt>
      <trkpt lat="40.153017" lon="-5.232617">
        <ele>1050.0</ele>
        <time>2013-06-30T13:33:08Z</time>
      </trkpt>
      <trkpt lat="40.152967" lon="-5.232633">
        <ele>1050.0</ele>
        <time>2013-06-30T13:33:09Z</time>
      </trkpt>
      <trkpt lat="40.152900" lon="-5.232650">
        <ele>1050.0</ele>
        <time>2013-06-30T13:33:10Z</time>
      </trkpt>
      <trkpt lat="40.152833" lon="-5.232633">
        <ele>1050.0</ele>
        <time>2013-06-30T13:33:11Z</time>
      </trkpt>
      <trkpt lat="40.152800" lon="-5.232583">
        <ele>1048.0</ele>
        <time>2013-06-30T13:33:12Z</time>
      </trkpt>
      <trkpt lat="40.152783" lon="-5.232517">
        <ele>1047.0</ele>
        <time>2013-06-30T13:33:13Z</time>
      </trkpt>
      <trkpt lat="40.152767" lon="-5.232417">
        <ele>1045.0</ele>
        <time>2013-06-30T13:33:14Z</time>
      </trkpt>
      <trkpt lat="40.152767" lon="-5.232317">
        <ele>1045.0</ele>
        <time>2013-06-30T13:33:15Z</time>
      </trkpt>
      <trkpt lat="40.152783" lon="-5.232233">
        <ele>1045.0</ele>
        <time>2013-06-30T13:33:16Z</time>
      </trkpt>
      <trkpt lat="40.152817" lon="-5.232150">
        <ele>1044.0</ele>
        <time>2013-06-30T13:33:17Z</time>
      </trkpt>
      <trkpt lat="40.152867" lon="-5.232067">
        <ele>1043.0</ele>
        <time>2013-06-30T13:33:18Z</time>
      </trkpt>
      <trkpt lat="40.152933" lon="-5.231983">
        <ele>1042.0</ele>
        <time>2013-06-30T13:33:19Z</time>
      </trkpt>
      <trkpt lat="40.153017" lon="-5.231900">
        <ele>1042.0</ele>
        <time>2013-06-30T13:33:20Z</time>
      </trkpt>
      <trkpt lat="40.153083" lon="-5.231833">
        <ele>1042.0</ele>
        <time>2013-06-30T13:33:21Z</time>
      </trkpt>
      <trkpt lat="40.153167" lon="-5.231767">
        <ele>1043.0</ele>
        <time>2013-06-30T13:33:22Z</time>
      </trkpt>
      <trkpt lat="40.153250" lon="-5.231717">
        <ele>1044.0</ele>
        <time>2013-06-30T13:33:23Z</time>
      </trkpt>
      <trkpt lat="40.153333" lon="-5.231683">
        <ele>1043.0</ele>
        <time>2013-06-30T13:33:24Z</time>
      </trkpt>
      <trkpt lat="40.153433" lon="-5.231667">
        <ele>1043.0</ele>
        <time>2013-06-30T13:33:25Z</time>
      </trkpt>
      <trkpt lat="40.153550" lon="-5.231633">
        <ele>1043.0</ele>
        <time>2013-06-30T13:33:26Z</time>
      </trkpt>
      <trkpt lat="40.153650" lon="-5.231617">
        <ele>1044.0</ele>
        <time>2013-06-30T13:33:27Z</time>
      </trkpt>
      <trkpt lat="40.153733" lon="-5.231617">
        <ele>1046.0</ele>
        <time>2013-06-30T13:33:28Z</time>
      </trkpt>
      <trkpt lat="40.153833" lon="-5.231617">
        <ele>1048.0</ele>
        <time>2013-06-30T13:33:29Z</time>
      </trkpt>
      <trkpt lat="40.153917" lon="-5.231633">
        <ele>1049.0</ele>
        <time>2013-06-30T13:33:30Z</time>
      </trkpt>
      <trkpt lat="40.154000" lon="-5.231667">
        <ele>1049.0</ele>
        <time>2013-06-30T13:33:31Z</time>
      </trkpt>
      <trkpt lat="40.154083" lon="-5.231717">
        <ele>1050.0</ele>
        <time>2013-06-30T13:33:32Z</time>
      </trkpt>
      <trkpt lat="40.154167" lon="-5.231783">
        <ele>1052.0</ele>
        <time>2013-06-30T13:33:33Z</time>
      </trkpt>
      <trkpt lat="40.154233" lon="-5.231850">
        <ele>1053.0</ele>
        <time>2013-06-30T13:33:34Z</time>
      </trkpt>
      <trkpt lat="40.154300" lon="-5.231900">
        <ele>1055.0</ele>
        <time>2013-06-30T13:33:35Z</time>
      </trkpt>
      <trkpt lat="40.154367" lon="-5.231967">
        <ele>1056.0</ele>
        <time>2013-06-30T13:33:36Z</time>
      </trkpt>
      <trkpt lat="40.154433" lon="-5.232033">
        <ele>1057.0</ele>
        <time>2013-06-30T13:33:37Z</time>
      </trkpt>
      <trkpt lat="40.154483" lon="-5.232117">
        <ele>1058.0</ele>
        <time>2013-06-30T13:33:38Z</time>
      </trkpt>
      <trkpt lat="40.154533" lon="-5.232200">
        <ele>1058.0</ele>
        <time>2013-06-30T13:33:39Z</time>
      </trkpt>
      <trkpt lat="40.154583" lon="-5.232300">
        <ele>1059.0</ele>
        <time>2013-06-30T13:33:40Z</time>
      </trkpt>
      <trkpt lat="40.154633" lon="-5.232367">
        <ele>1059.0</ele>
        <time>2013-06-30T13:33:41Z</time>
      </trkpt>
      <trkpt lat="40.154667" lon="-5.232467">
        <ele>1059.0</ele>
        <time>2013-06-30T13:33:42Z</time>
      </trkpt>
      <trkpt lat="40.154667" lon="-5.232567">
        <ele>1059.0</ele>
        <time>2013-06-30T13:33:43Z</time>
      </trkpt>
      <trkpt lat="40.154667" lon="-5.232667">
        <ele>1059.0</ele>
        <time>2013-06-30T13:33:44Z</time>
      </trkpt>
      <trkpt lat="40.154667" lon="-5.232783">
        <ele>1058.0</ele>
        <time>2013-06-30T13:33:45Z</time>
      </trkpt>
      <trkpt lat="40.154633" lon="-5.232883">
        <ele>1058.0</ele>
        <time>2013-06-30T13:33:46Z</time>
      </trkpt>
      <trkpt lat="40.154600" lon="-5.232983">
        <ele>1058.0</ele>
        <time>2013-06-30T13:33:47Z</time>
      </trkpt>
      <trkpt lat="40.154567" lon="-5.233100">
        <ele>1059.0</ele>
        <time>2013-06-30T13:33:48Z</time>
      </trkpt>
      <trkpt lat="40.154550" lon="-5.233183">
        <ele>1060.0</ele>
        <time>2013-06-30T13:33:49Z</time>
      </trkpt>
      <trkpt lat="40.154517" lon="-5.233267">
        <ele>1061.0</ele>
        <time>2013-06-30T13:33:50Z</time>
      </trkpt>
      <trkpt lat="40.154467" lon="-5.233350">
        <ele>1062.0</ele>
        <time>2013-06-30T13:33:51Z</time>
      </trkpt>
      <trkpt lat="40.154417" lon="-5.233417">
        <ele>1061.0</ele>
        <time>2013-06-30T13:33:52Z</time>
      </trkpt>
      <trkpt lat="40.154367" lon="-5.233467">
        <ele>1061.0</ele>
        <time>2013-06-30T13:33:53Z</time>
      </trkpt>
      <trkpt lat="40.154300" lon="-5.233500">
        <ele>1062.0</ele>
        <time>2013-06-30T13:33:54Z</time>
      </trkpt>
      <trkpt lat="40.154233" lon="-5.233500">
        <ele>1063.0</ele>
        <time>2013-06-30T13:33:55Z</time>
      </trkpt>
      <trkpt lat="40.154183" lon="-5.233483">
        <ele>1064.0</ele>
        <time>2013-06-30T13:33:56Z</time>
      </trkpt>
      <trkpt lat="40.154117" lon="-5.233450">
        <ele>1064.0</ele>
        <time>2013-06-30T13:33:57Z</time>
      </trkpt>
      <trkpt lat="40.154067" lon="-5.233417">
        <ele>1065.0</ele>
        <time>2013-06-30T13:33:58Z</time>
      </trkpt>
      <trkpt lat="40.154033" lon="-5.233367">
        <ele>1066.0</ele>
        <time>2013-06-30T13:33:59Z</time>
      </trkpt>
      <trkpt lat="40.154017" lon="-5.233317">
        <ele>1067.0</ele>
        <time>2013-06-30T13:34:00Z</time>
      </trkpt>
      <trkpt lat="40.154000" lon="-5.233250">
        <ele>1067.0</ele>
        <time>2013-06-30T13:34:01Z</time>
      </trkpt>
      <trkpt lat="40.153983" lon="-5.233167">
        <ele>1067.0</ele>
        <time>2013-06-30T13:34:02Z</time>
      </trkpt>
      <trkpt lat="40.153983" lon="-5.233067">
        <ele>1066.0</ele>
        <time>2013-06-30T13:34:03Z</time>
      </trkpt>
      <trkpt lat="40.154000" lon="-5.232967">
        <ele>1065.0</ele>
        <time>2013-06-30T13:34:04Z</time>
      </trkpt>
      <trkpt lat="40.154033" lon="-5.232867">
        <ele>1066.0</ele>
        <time>2013-06-30T13:34:05Z</time>
      </trkpt>
      <trkpt lat="40.154067" lon="-5.232783">
        <ele>1066.0</ele>
        <time>2013-06-30T13:34:06Z</time>
      </trkpt>
      <trkpt lat="40.154100" lon="-5.232700">
        <ele>1067.0</ele>
        <time>2013-06-30T13:34:07Z</time>
      </trkpt>
      <trkpt lat="40.154167" lon="-5.232617">
        <ele>1067.0</ele>
        <time>2013-06-30T13:34:08Z</time>
      </trkpt>
      <trkpt lat="40.154217" lon="-5.232550">
        <ele>1067.0</ele>
        <time>2013-06-30T13:34:09Z</time>
      </trkpt>
      <trkpt lat="40.154300" lon="-5.232500">
        <ele>1067.0</ele>
        <time>2013-06-30T13:34:10Z</time>
      </trkpt>
      <trkpt lat="40.154383" lon="-5.232467">
        <ele>1068.0</ele>
        <time>2013-06-30T13:34:11Z</time>
      </trkpt>
      <trkpt lat="40.154483" lon="-5.232450">
        <ele>1068.0</ele>
        <time>2013-06-30T13:34:12Z</time>
      </trkpt>
      <trkpt lat="40.154567" lon="-5.232483">
        <ele>1069.0</ele>
        <time>2013-06-30T13:34:13Z</time>
      </trkpt>
      <trkpt lat="40.154650" lon="-5.232533">
        <ele>1071.0</ele>
        <time>2013-06-30T13:34:14Z</time>
      </trkpt>
      <trkpt lat="40.154733" lon="-5.232583">
        <ele>1073.0</ele>
        <time>2013-06-30T13:34:15Z</time>
      </trkpt>
      <trkpt lat="40.154800" lon="-5.232650">
        <ele>1076.0</ele>
        <time>2013-06-30T13:34:16Z</time>
      </trkpt>
      <trkpt lat="40.154867" lon="-5.232717">
        <ele>1079.0</ele>
        <time>2013-06-30T13:34:17Z</time>
      </trkpt>
      <trkpt lat="40.154917" lon="-5.232767">
        <ele>1080.0</ele>
        <time>2013-06-30T13:34:18Z</time>
      </trkpt>
      <trkpt lat="40.154983" lon="-5.232833">
        <ele>1082.0</ele>
        <time>2013-06-30T13:34:19Z</time>
      </trkpt>
      <trkpt lat="40.155050" lon="-5.232883">
        <ele>1082.0</ele>
        <time>2013-06-30T13:34:20Z</time>
      </trkpt>
      <trkpt lat="40.155133" lon="-5.232950">
        <ele>1082.0</ele>
        <time>2013-06-30T13:34:21Z</time>
      </trkpt>
      <trkpt lat="40.155233" lon="-5.233000">
        <ele>1084.0</ele>
        <time>2013-06-30T13:34:22Z</time>
      </trkpt>
      <trkpt lat="40.155300" lon="-5.233050">
        <ele>1085.0</ele>
        <time>2013-06-30T13:34:23Z</time>
      </trkpt>
      <trkpt lat="40.155367" lon="-5.233133">
        <ele>1087.0</ele>
        <time>2013-06-30T13:34:24Z</time>
      </trkpt>
      <trkpt lat="40.155417" lon="-5.233217">
        <ele>1087.0</ele>
        <time>2013-06-30T13:34:25Z</time>
      </trkpt>
      <trkpt lat="40.155433" lon="-5.233317">
        <ele>1088.0</ele>
        <time>2013-06-30T13:34:26Z</time>
      </trkpt>
      <trkpt lat="40.155450" lon="-5.233450">
        <ele>1087.0</ele>
        <time>2013-06-30T13:34:27Z</time>
      </trkpt>
      <trkpt lat="40.155433" lon="-5.233567">
        <ele>1087.0</ele>
        <time>2013-06-30T13:34:28Z</time>
      </trkpt>
      <trkpt lat="40.155400" lon="-5.233683">
        <ele>1088.0</ele>
        <time>2013-06-30T13:34:29Z</time>
      </trkpt>
      <trkpt lat="40.155333" lon="-5.233750">
        <ele>1087.0</ele>
        <time>2013-06-30T13:34:30Z</time>
      </trkpt>
      <trkpt lat="40.155267" lon="-5.233783">
        <ele>1086.0</ele>
        <time>2013-06-30T13:34:31Z</time>
      </trkpt>
      <trkpt lat="40.155200" lon="-5.233800">
        <ele>1086.0</ele>
        <time>2013-06-30T13:34:32Z</time>
      </trkpt>
      <trkpt lat="40.155133" lon="-5.233833">
        <ele>1087.0</ele>
        <time>2013-06-30T13:34:33Z</time>
      </trkpt>
      <trkpt lat="40.155083" lon="-5.233867">
        <ele>1087.0</ele>
        <time>2013-06-30T13:34:34Z</time>
      </trkpt>
      <trkpt lat="40.155017" lon="-5.233883">
        <ele>1086.0</ele>
        <time>2013-06-30T13:34:35Z</time>
      </trkpt>
      <trkpt lat="40.154967" lon="-5.233867">
        <ele>1086.0</ele>
        <time>2013-06-30T13:34:36Z</time>
      </trkpt>
      <trkpt lat="40.154917" lon="-5.233800">
        <ele>1084.0</ele>
        <time>2013-06-30T13:34:37Z</time>
      </trkpt>
      <trkpt lat="40.154867" lon="-5.233683">
        <ele>1083.0</ele>
        <time>2013-06-30T13:34:38Z</time>
      </trkpt>
      <trkpt lat="40.154867" lon="-5.233567">
        <ele>1084.0</ele>
        <time>2013-06-30T13:34:39Z</time>
      </trkpt>
      <trkpt lat="40.154900" lon="-5.233450">
        <ele>1085.0</ele>
        <time>2013-06-30T13:34:40Z</time>
      </trkpt>
      <trkpt lat="40.154933" lon="-5.233350">
        <ele>1086.0</ele>
        <time>2013-06-30T13:34:41Z</time>
      </trkpt>
      <trkpt lat="40.154983" lon="-5.233283">
        <ele>1086.0</ele>
        <time>2013-06-30T13:34:42Z</time>
      </trkpt>
      <trkpt lat="40.155050" lon="-5.233217">
        <ele>1086.0</ele>
        <time>2013-06-30T13:34:43Z</time>
      </trkpt>
      <trkpt lat="40.155133" lon="-5.233167">
        <ele>1086.0</ele>
        <time>2013-06-30T13:34:44Z</time>
      </trkpt>
      <trkpt lat="40.155233" lon="-5.233133">
        <ele>1086.0</ele>
        <time>2013-06-30T13:34:45Z</time>
      </trkpt>
      <trkpt lat="40.155317" lon="-5.233133">
        <ele>1086.0</ele>
        <time>2013-06-30T13:34:46Z</time>
      </trkpt>
      <trkpt lat="40.155400" lon="-5.233150">
        <ele>1087.0</ele>
        <time>2013-06-30T13:34:47Z</time>
      </trkpt>
      <trkpt lat="40.155483" lon="-5.233183">
        <ele>1086.0</ele>
        <time>2013-06-30T13:34:48Z</time>
      </trkpt>
      <trkpt lat="40.155550" lon="-5.233217">
        <ele>1086.0</ele>
        <time>2013-06-30T13:34:49Z</time>
      </trkpt>
      <trkpt lat="40.155617" lon="-5.233283">
        <ele>1084.0</ele>
        <time>2013-06-30T13:34:50Z</time>
      </trkpt>
      <trkpt lat="40.155683" lon="-5.233367">
        <ele>1083.0</ele>
        <time>2013-06-30T13:34:51Z</time>
      </trkpt>
      <trkpt lat="40.155750" lon="-5.233450">
        <ele>1081.0</ele>
        <time>2013-06-30T13:34:52Z</time>
      </trkpt>
      <trkpt lat="40.155833" lon="-5.233533">
        <ele>1081.0</ele>
        <time>2013-06-30T13:34:53Z</time>
      </trkpt>
      <trkpt lat="40.155917" lon="-5.233633">
        <ele>1081.0</ele>
        <time>2013-06-30T13:34:54Z</time>
      </trkpt>
      <trkpt lat="40.156000" lon="-5.233700">
        <ele>1081.0</ele>
        <time>2013-06-30T13:34:55Z</time>
      </trkpt>
      <trkpt lat="40.156067" lon="-5.233767">
        <ele>1081.0</ele>
        <time>2013-06-30T13:34:56Z</time>
      </trkpt>
      <trkpt lat="40.156133" lon="-5.233833">
        <ele>1081.0</ele>
        <time>2013-06-30T13:34:57Z</time>
      </trkpt>
      <trkpt lat="40.156183" lon="-5.233933">
        <ele>1082.0</ele>
        <time>2013-06-30T13:34:58Z</time>
      </trkpt>
      <trkpt lat="40.156200" lon="-5.234050">
        <ele>1082.0</ele>
        <time>2013-06-30T13:34:59Z</time>
      </trkpt>
      <trkpt lat="40.156200" lon="-5.234150">
        <ele>1083.0</ele>
        <time>2013-06-30T13:35:00Z</time>
      </trkpt>
      <trkpt lat="40.156200" lon="-5.234233">
        <ele>1084.0</ele>
        <time>2013-06-30T13:35:01Z</time>
      </trkpt>
      <trkpt lat="40.156183" lon="-5.234317">
        <ele>1085.0</ele>
        <time>2013-06-30T13:35:02Z</time>
      </trkpt>
      <trkpt lat="40.156183" lon="-5.234417">
        <ele>1085.0</ele>
        <time>2013-06-30T13:35:03Z</time>
      </trkpt>
      <trkpt lat="40.156150" lon="-5.234500">
        <ele>1085.0</ele>
        <time>2013-06-30T13:35:04Z</time>
      </trkpt>
      <trkpt lat="40.156117" lon="-5.234567">
        <ele>1084.0</ele>
        <time>2013-06-30T13:35:05Z</time>
      </trkpt>
      <trkpt lat="40.156050" lon="-5.234633">
        <ele>1084.0</ele>
        <time>2013-06-30T13:35:06Z</time>
      </trkpt>
      <trkpt lat="40.155983" lon="-5.234633">
        <ele>1083.0</ele>
        <time>2013-06-30T13:35:07Z</time>
      </trkpt>
      <trkpt lat="40.155917" lon="-5.234583">
        <ele>1083.0</ele>
        <time>2013-06-30T13:35:08Z</time>
      </trkpt>
      <trkpt lat="40.155883" lon="-5.234517">
        <ele>1083.0</ele>
        <time>2013-06-30T13:35:09Z</time>
      </trkpt>
      <trkpt lat="40.155867" lon="-5.234433">
        <ele>1085.0</ele>
        <time>2013-06-30T13:35:10Z</time>
      </trkpt>
      <trkpt lat="40.155850" lon="-5.234350">
        <ele>1085.0</ele>
        <time>2013-06-30T13:35:11Z</time>
      </trkpt>
      <trkpt lat="40.155850" lon="-5.234267">
        <ele>1086.0</ele>
        <time>2013-06-30T13:35:12Z</time>
      </trkpt>
      <trkpt lat="40.155850" lon="-5.234183">
        <ele>1085.0</ele>
        <time>2013-06-30T13:35:13Z</time>
      </trkpt>
      <trkpt lat="40.155850" lon="-5.234100">
        <ele>1085.0</ele>
        <time>2013-06-30T13:35:14Z</time>
      </trkpt>
      <trkpt lat="40.155883" lon="-5.234000">
        <ele>1084.0</ele>
        <time>2013-06-30T13:35:15Z</time>
      </trkpt>
      <trkpt lat="40.155933" lon="-5.233933">
        <ele>1083.0</ele>
        <time>2013-06-30T13:35:16Z</time>
      </trkpt>
      <trkpt lat="40.156017" lon="-5.233883">
        <ele>1081.0</ele>
        <time>2013-06-30T13:35:17Z</time>
      </trkpt>
      <trkpt lat="40.156100" lon="-5.233850">
        <ele>1080.0</ele>
        <time>2013-06-30T13:35:18Z</time>
      </trkpt>
      <trkpt lat="40.156200" lon="-5.233850">
        <ele>1078.0</ele>
        <time>2013-06-30T13:35:19Z</time>
      </trkpt>
      <trkpt lat="40.156300" lon="-5.233867">
        <ele>1077.0</ele>
        <time>2013-06-30T13:35:20Z</time>
      </trkpt>
      <trkpt lat="40.156417" lon="-5.233933">
        <ele>1077.0</ele>
        <time>2013-06-30T13:35:21Z</time>
      </trkpt>
      <trkpt lat="40.156517" lon="-5.234000">
        <ele>1078.0</ele>
        <time>2013-06-30T13:35:22Z</time>
      </trkpt>
      <trkpt lat="40.156600" lon="-5.234067">
        <ele>1079.0</ele>
        <time>2013-06-30T13:35:23Z</time>
      </trkpt>
      <trkpt lat="40.156667" lon="-5.234150">
        <ele>1080.0</ele>
        <time>2013-06-30T13:35:24Z</time>
      </trkpt>
      <trkpt lat="40.156733" lon="-5.234217">
        <ele>1082.0</ele>
        <time>2013-06-30T13:35:25Z</time>
      </trkpt>
      <trkpt lat="40.156783" lon="-5.234283">
        <ele>1084.0</ele>
        <time>2013-06-30T13:35:26Z</time>
      </trkpt>
      <trkpt lat="40.156850" lon="-5.234333">
        <ele>1085.0</ele>
        <time>2013-06-30T13:35:27Z</time>
      </trkpt>
      <trkpt lat="40.156917" lon="-5.234400">
        <ele>1086.0</ele>
        <time>2013-06-30T13:35:28Z</time>
      </trkpt>
      <trkpt lat="40.156967" lon="-5.234450">
        <ele>1087.0</ele>
        <time>2013-06-30T13:35:29Z</time>
      </trkpt>
      <trkpt lat="40.157033" lon="-5.234550">
        <ele>1088.0</ele>
        <time>2013-06-30T13:35:30Z</time>
      </trkpt>
      <trkpt lat="40.157067" lon="-5.234667">
        <ele>1089.0</ele>
        <time>2013-06-30T13:35:31Z</time>
      </trkpt>
      <trkpt lat="40.157067" lon="-5.234783">
        <ele>1090.0</ele>
        <time>2013-06-30T13:35:32Z</time>
      </trkpt>
      <trkpt lat="40.157050" lon="-5.234900">
        <ele>1092.0</ele>
        <time>2013-06-30T13:35:33Z</time>
      </trkpt>
      <trkpt lat="40.157050" lon="-5.235000">
        <ele>1094.0</ele>
        <time>2013-06-30T13:35:34Z</time>
      </trkpt>
      <trkpt lat="40.157033" lon="-5.235083">
        <ele>1096.0</ele>
        <time>2013-06-30T13:35:35Z</time>
      </trkpt>
      <trkpt lat="40.157033" lon="-5.235167">
        <ele>1097.0</ele>
        <time>2013-06-30T13:35:36Z</time>
      </trkpt>
      <trkpt lat="40.157017" lon="-5.235233">
        <ele>1097.0</ele>
        <time>2013-06-30T13:35:37Z</time>
      </trkpt>
      <trkpt lat="40.156967" lon="-5.235300">
        <ele>1096.0</ele>
        <time>2013-06-30T13:35:38Z</time>
      </trkpt>
      <trkpt lat="40.156917" lon="-5.235350">
        <ele>1096.0</ele>
        <time>2013-06-30T13:35:39Z</time>
      </trkpt>
      <trkpt lat="40.156850" lon="-5.235400">
        <ele>1096.0</ele>
        <time>2013-06-30T13:35:40Z</time>
      </trkpt>
      <trkpt lat="40.156783" lon="-5.235433">
        <ele>1096.0</ele>
        <time>2013-06-30T13:35:41Z</time>
      </trkpt>
      <trkpt lat="40.156717" lon="-5.235450">
        <ele>1097.0</ele>
        <time>2013-06-30T13:35:42Z</time>
      </trkpt>
      <trkpt lat="40.156650" lon="-5.235467">
        <ele>1098.0</ele>
        <time>2013-06-30T13:35:43Z</time>
      </trkpt>
      <trkpt lat="40.156600" lon="-5.235467">
        <ele>1099.0</ele>
        <time>2013-06-30T13:35:44Z</time>
      </trkpt>
      <trkpt lat="40.156567" lon="-5.235450">
        <ele>1099.0</ele>
        <time>2013-06-30T13:35:45Z</time>
      </trkpt>
      <trkpt lat="40.156517" lon="-5.235433">
        <ele>1099.0</ele>
        <time>2013-06-30T13:35:46Z</time>
      </trkpt>
      <trkpt lat="40.156483" lon="-5.235383">
        <ele>1098.0</ele>
        <time>2013-06-30T13:35:47Z</time>
      </trkpt>
      <trkpt lat="40.156433" lon="-5.235317">
        <ele>1096.0</ele>
        <time>2013-06-30T13:35:48Z</time>
      </trkpt>
      <trkpt lat="40.156433" lon="-5.235217">
        <ele>1096.0</ele>
        <time>2013-06-30T13:35:49Z</time>
      </trkpt>
      <trkpt lat="40.156450" lon="-5.235117">
        <ele>1096.0</ele>
        <time>2013-06-30T13:35:50Z</time>
      </trkpt>
      <trkpt lat="40.156483" lon="-5.235017">
        <ele>1096.0</ele>
        <time>2013-06-30T13:35:51Z</time>
      </trkpt>
      <trkpt lat="40.156550" lon="-5.234950">
        <ele>1096.0</ele>
        <time>2013-06-30T13:35:52Z</time>
      </trkpt>
      <trkpt lat="40.156600" lon="-5.234883">
        <ele>1097.0</ele>
        <time>2013-06-30T13:35:53Z</time>
      </trkpt>
      <trkpt lat="40.156667" lon="-5.234833">
        <ele>1099.0</ele>
        <time>2013-06-30T13:35:54Z</time>
      </trkpt>
      <trkpt lat="40.156717" lon="-5.234800">
        <ele>1100.0</ele>
        <time>2013-06-30T13:35:55Z</time>
      </trkpt>
      <trkpt lat="40.156783" lon="-5.234783">
        <ele>1100.0</ele>
        <time>2013-06-30T13:35:56Z</time>
      </trkpt>
      <trkpt lat="40.156867" lon="-5.234783">
        <ele>1099.0</ele>
        <time>2013-06-30T13:35:57Z</time>
      </trkpt>
      <trkpt lat="40.156950" lon="-5.234783">
        <ele>1098.0</ele>
        <time>2013-06-30T13:35:58Z</time>
      </trkpt>
      <trkpt lat="40.157033" lon="-5.234817">
        <ele>1098.0</ele>
        <time>2013-06-30T13:35:59Z</time>
      </trkpt>
      <trkpt lat="40.157133" lon="-5.234850">
        <ele>1098.0</ele>
        <time>2013-06-30T13:36:00Z</time>
      </trkpt>
      <trkpt lat="40.157200" lon="-5.234900">
        <ele>1098.0</ele>
        <time>2013-06-30T13:36:01Z</time>
      </trkpt>
      <trkpt lat="40.157283" lon="-5.234950">
        <ele>1098.0</ele>
        <time>2013-06-30T13:36:02Z</time>
      </trkpt>
      <trkpt lat="40.157333" lon="-5.235017">
        <ele>1099.0</ele>
        <time>2013-06-30T13:36:03Z</time>
      </trkpt>
      <trkpt lat="40.157400" lon="-5.235083">
        <ele>1099.0</ele>
        <time>2013-06-30T13:36:04Z</time>
      </trkpt>
      <trkpt lat="40.157433" lon="-5.235183">
        <ele>1100.0</ele>
        <time>2013-06-30T13:36:05Z</time>
      </trkpt>
      <trkpt lat="40.157467" lon="-5.235283">
        <ele>1101.0</ele>
        <time>2013-06-30T13:36:06Z</time>
      </trkpt>
      <trkpt lat="40.157483" lon="-5.235400">
        <ele>1102.0</ele>
        <time>2013-06-30T13:36:07Z</time>
      </trkpt>
      <trkpt lat="40.157483" lon="-5.235500">
        <ele>1103.0</ele>
        <time>2013-06-30T13:36:08Z</time>
      </trkpt>
      <trkpt lat="40.157467" lon="-5.235600">
        <ele>1104.0</ele>
        <time>2013-06-30T13:36:09Z</time>
      </trkpt>
      <trkpt lat="40.157450" lon="-5.235683">
        <ele>1105.0</ele>
        <time>2013-06-30T13:36:10Z</time>
      </trkpt>
      <trkpt lat="40.157417" lon="-5.235767">
        <ele>1105.0</ele>
        <time>2013-06-30T13:36:11Z</time>
      </trkpt>
      <trkpt lat="40.157367" lon="-5.235850">
        <ele>1105.0</ele>
        <time>2013-06-30T13:36:12Z</time>
      </trkpt>
      <trkpt lat="40.157333" lon="-5.235933">
        <ele>1106.0</ele>
        <time>2013-06-30T13:36:13Z</time>
      </trkpt>
      <trkpt lat="40.157283" lon="-5.236000">
        <ele>1106.0</ele>
        <time>2013-06-30T13:36:14Z</time>
      </trkpt>
      <trkpt lat="40.157233" lon="-5.236067">
        <ele>1107.0</ele>
        <time>2013-06-30T13:36:15Z</time>
      </trkpt>
      <trkpt lat="40.157183" lon="-5.236100">
        <ele>1107.0</ele>
        <time>2013-06-30T13:36:16Z</time>
      </trkpt>
      <trkpt lat="40.157117" lon="-5.236117">
        <ele>1107.0</ele>
        <time>2013-06-30T13:36:17Z</time>
      </trkpt>
      <trkpt lat="40.157050" lon="-5.236133">
        <ele>1106.0</ele>
        <time>2013-06-30T13:36:18Z</time>
      </trkpt>
      <trkpt lat="40.156983" lon="-5.236117">
        <ele>1104.0</ele>
        <time>2013-06-30T13:36:19Z</time>
      </trkpt>
      <trkpt lat="40.156917" lon="-5.236083">
        <ele>1101.0</ele>
        <time>2013-06-30T13:36:20Z</time>
      </trkpt>
      <trkpt lat="40.156867" lon="-5.236033">
        <ele>1098.0</ele>
        <time>2013-06-30T13:36:21Z</time>
      </trkpt>
      <trkpt lat="40.156833" lon="-5.235950">
        <ele>1096.0</ele>
        <time>2013-06-30T13:36:22Z</time>
      </trkpt>
      <trkpt lat="40.156800" lon="-5.235850">
        <ele>1094.0</ele>
        <time>2013-06-30T13:36:23Z</time>
      </trkpt>
      <trkpt lat="40.156800" lon="-5.235750">
        <ele>1091.0</ele>
        <time>2013-06-30T13:36:24Z</time>
      </trkpt>
      <trkpt lat="40.156817" lon="-5.235650">
        <ele>1089.0</ele>
        <time>2013-06-30T13:36:25Z</time>
      </trkpt>
      <trkpt lat="40.156850" lon="-5.235550">
        <ele>1088.0</ele>
        <time>2013-06-30T13:36:26Z</time>
      </trkpt>
      <trkpt lat="40.156900" lon="-5.235450">
        <ele>1087.0</ele>
        <time>2013-06-30T13:36:27Z</time>
      </trkpt>
      <trkpt lat="40.156967" lon="-5.235383">
        <ele>1086.0</ele>
        <time>2013-06-30T13:36:28Z</time>
      </trkpt>
      <trkpt lat="40.157050" lon="-5.235317">
        <ele>1085.0</ele>
        <time>2013-06-30T13:36:29Z</time>
      </trkpt>
      <trkpt lat="40.157133" lon="-5.235250">
        <ele>1085.0</ele>
        <time>2013-06-30T13:36:30Z</time>
      </trkpt>
      <trkpt lat="40.157200" lon="-5.235200">
        <ele>1086.0</ele>
        <time>2013-06-30T13:36:31Z</time>
      </trkpt>
      <trkpt lat="40.157283" lon="-5.235150">
        <ele>1088.0</ele>
        <time>2013-06-30T13:36:32Z</time>
      </trkpt>
      <trkpt lat="40.157350" lon="-5.235133">
        <ele>1089.0</ele>
        <time>2013-06-30T13:36:33Z</time>
      </trkpt>
      <trkpt lat="40.157417" lon="-5.235117">
        <ele>1091.0</ele>
        <time>2013-06-30T13:36:34Z</time>
      </trkpt>
      <trkpt lat="40.157483" lon="-5.235117">
        <ele>1092.0</ele>
        <time>2013-06-30T13:36:35Z</time>
      </trkpt>
      <trkpt lat="40.157550" lon="-5.235133">
        <ele>1093.0</ele>
        <time>2013-06-30T13:36:36Z</time>
      </trkpt>
      <trkpt lat="40.157633" lon="-5.235167">
        <ele>1094.0</ele>
        <time>2013-06-30T13:36:37Z</time>
      </trkpt>
      <trkpt lat="40.157700" lon="-5.235217">
        <ele>1095.0</ele>
        <time>2013-06-30T13:36:38Z</time>
      </trkpt>
      <trkpt lat="40.157783" lon="-5.235250">
        <ele>1097.0</ele>
        <time>2013-06-30T13:36:39Z</time>
      </trkpt>
      <trkpt lat="40.157850" lon="-5.235300">
        <ele>1100.0</ele>
        <time>2013-06-30T13:36:40Z</time>
      </trkpt>
      <trkpt lat="40.157900" lon="-5.235367">
        <ele>1103.0</ele>
        <time>2013-06-30T13:36:41Z</time>
      </trkpt>
      <trkpt lat="40.157950" lon="-5.235433">
        <ele>1105.0</ele>
        <time>2013-06-30T13:36:42Z</time>
      </trkpt>
      <trkpt lat="40.158000" lon="-5.235533">
        <ele>1107.0</ele>
        <time>2013-06-30T13:36:43Z</time>
      </trkpt>
      <trkpt lat="40.158033" lon="-5.235617">
        <ele>1108.0</ele>
        <time>2013-06-30T13:36:44Z</time>
      </trkpt>
      <trkpt lat="40.158050" lon="-5.235717">
        <ele>1110.0</ele>
        <time>2013-06-30T13:36:45Z</time>
      </trkpt>
      <trkpt lat="40.158067" lon="-5.235817">
        <ele>1111.0</ele>
        <time>2013-06-30T13:36:46Z</time>
      </trkpt>
      <trkpt lat="40.158050" lon="-5.235917">
        <ele>1111.0</ele>
        <time>2013-06-30T13:36:47Z</time>
      </trkpt>
      <trkpt lat="40.158017" lon="-5.236000">
        <ele>1112.0</ele>
        <time>2013-06-30T13:36:48Z</time>
      </trkpt>
      <trkpt lat="40.157967" lon="-5.236050">
        <ele>1112.0</ele>
        <time>2013-06-30T13:36:49Z</time>
      </trkpt>
      <trkpt lat="40.157900" lon="-5.236067">
        <ele>1111.0</ele>
        <time>2013-06-30T13:36:50Z</time>
      </trkpt>
      <trkpt lat="40.157850" lon="-5.236050">
        <ele>1111.0</ele>
        <time>2013-06-30T13:36:51Z</time>
      </trkpt>
      <trkpt lat="40.157817" lon="-5.235983">
        <ele>1110.0</ele>
        <time>2013-06-30T13:36:52Z</time>
      </trkpt>
      <trkpt lat="40.157783" lon="-5.235883">
        <ele>1110.0</ele>
        <time>2013-06-30T13:36:53Z</time>
      </trkpt>
      <trkpt lat="40.157783" lon="-5.235783">
        <ele>1110.0</ele>
        <time>2013-06-30T13:36:54Z</time>
      </trkpt>
      <trkpt lat="40.157817" lon="-5.235683">
        <ele>1110.0</ele>
        <time>2013-06-30T13:36:55Z</time>
      </trkpt>
      <trkpt lat="40.157850" lon="-5.235600">
        <ele>1110.0</ele>
        <time>2013-06-30T13:36:56Z</time>
      </trkpt>
      <trkpt lat="40.157917" lon="-5.235517">
        <ele>1110.0</ele>
        <time>2013-06-30T13:36:57Z</time>
      </trkpt>
      <trkpt lat="40.158017" lon="-5.235450">
        <ele>1110.0</ele>
        <time>2013-06-30T13:36:58Z</time>
      </trkpt>
      <trkpt lat="40.158100" lon="-5.235383">
        <ele>1112.0</ele>
        <time>2013-06-30T13:36:59Z</time>
      </trkpt>
      <trkpt lat="40.158167" lon="-5.235333">
        <ele>1115.0</ele>
        <time>2013-06-30T13:37:00Z</time>
      </trkpt>
      <trkpt lat="40.158217" lon="-5.235300">
        <ele>1119.0</ele>
        <time>2013-06-30T13:37:01Z</time>
      </trkpt>
      <trkpt lat="40.158267" lon="-5.235283">
        <ele>1121.0</ele>
        <time>2013-06-30T13:37:02Z</time>
      </trkpt>
      <trkpt lat="40.158317" lon="-5.235300">
        <ele>1122.0</ele>
        <time>2013-06-30T13:37:03Z</time>
      </trkpt>
      <trkpt lat="40.158383" lon="-5.235300">
        <ele>1122.0</ele>
        <time>2013-06-30T13:37:04Z</time>
      </trkpt>
      <trkpt lat="40.158467" lon="-5.235300">
        <ele>1123.0</ele>
        <time>2013-06-30T13:37:05Z</time>
      </trkpt>
      <trkpt lat="40.158550" lon="-5.235317">
        <ele>1124.0</ele>
        <time>2013-06-30T13:37:06Z</time>
      </trkpt>
      <trkpt lat="40.158617" lon="-5.235400">
        <ele>1125.0</ele>
        <time>2013-06-30T13:37:07Z</time>
      </trkpt>
      <trkpt lat="40.158633" lon="-5.235500">
        <ele>1124.0</ele>
        <time>2013-06-30T13:37:08Z</time>
      </trkpt>
      <trkpt lat="40.158617" lon="-5.235633">
        <ele>1124.0</ele>
        <time>2013-06-30T13:37:09Z</time>
      </trkpt>
      <trkpt lat="40.158567" lon="-5.235733">
        <ele>1125.0</ele>
        <time>2013-06-30T13:37:10Z</time>
      </trkpt>
      <trkpt lat="40.158517" lon="-5.235850">
        <ele>1126.0</ele>
        <time>2013-06-30T13:37:11Z</time>
      </trkpt>
      <trkpt lat="40.158483" lon="-5.235950">
        <ele>1127.0</ele>
        <time>2013-06-30T13:37:12Z</time>
      </trkpt>
      <trkpt lat="40.158450" lon="-5.236033">
        <ele>1128.0</ele>
        <time>2013-06-30T13:37:13Z</time>
      </trkpt>
      <trkpt lat="40.158417" lon="-5.236100">
        <ele>1130.0</ele>
        <time>2013-06-30T13:37:14Z</time>
      </trkpt>
      <trkpt lat="40.158367" lon="-5.236150">
        <ele>1131.0</ele>
        <time>2013-06-30T13:37:15Z</time>
      </trkpt>
      <trkpt lat="40.158317" lon="-5.236183">
        <ele>1132.0</ele>
        <time>2013-06-30T13:37:16Z</time>
      </trkpt>
      <trkpt lat="40.158250" lon="-5.236200">
        <ele>1132.0</ele>
        <time>2013-06-30T13:37:17Z</time>
      </trkpt>
      <trkpt lat="40.158200" lon="-5.236183">
        <ele>1133.0</ele>
        <time>2013-06-30T13:37:18Z</time>
      </trkpt>
      <trkpt lat="40.158150" lon="-5.236133">
        <ele>1132.0</ele>
        <time>2013-06-30T13:37:19Z</time>
      </trkpt>
      <trkpt lat="40.158100" lon="-5.236083">
        <ele>1132.0</ele>
        <time>2013-06-30T13:37:20Z</time>
      </trkpt>
      <trkpt lat="40.158067" lon="-5.236017">
        <ele>1130.0</ele>
        <time>2013-06-30T13:37:21Z</time>
      </trkpt>
      <trkpt lat="40.158050" lon="-5.235917">
        <ele>1130.0</ele>
        <time>2013-06-30T13:37:22Z</time>
      </trkpt>
      <trkpt lat="40.158050" lon="-5.235817">
        <ele>1130.0</ele>
        <time>2013-06-30T13:37:23Z</time>
      </trkpt>
      <trkpt lat="40.158100" lon="-5.235717">
        <ele>1129.0</ele>
        <time>2013-06-30T13:37:24Z</time>
      </trkpt>
      <trkpt lat="40.158167" lon="-5.235633">
        <ele>1129.0</ele>
        <time>2013-06-30T13:37:25Z</time>
      </trkpt>
      <trkpt lat="40.158267" lon="-5.235600">
        <ele>1130.0</ele>
        <time>2013-06-30T13:37:26Z</time>
      </trkpt>
      <trkpt lat="40.158367" lon="-5.235583">
        <ele>1132.0</ele>
        <time>2013-06-30T13:37:27Z</time>
      </trkpt>
      <trkpt lat="40.158450" lon="-5.235600">
        <ele>1135.0</ele>
        <time>2013-06-30T13:37:28Z</time>
      </trkpt>
      <trkpt lat="40.158517" lon="-5.235617">
        <ele>1137.0</ele>
        <time>2013-06-30T13:37:29Z</time>
      </trkpt>
      <trkpt lat="40.158567" lon="-5.235633">
        <ele>1139.0</ele>
        <time>2013-06-30T13:37:30Z</time>
      </trkpt>
      <trkpt lat="40.158633" lon="-5.235683">
        <ele>1140.0</ele>
        <time>2013-06-30T13:37:31Z</time>
      </trkpt>
      <trkpt lat="40.158683" lon="-5.235750">
        <ele>1140.0</ele>
        <time>2013-06-30T13:37:32Z</time>
      </trkpt>
      <trkpt lat="40.158733" lon="-5.235850">
        <ele>1141.0</ele>
        <time>2013-06-30T13:37:33Z</time>
      </trkpt>
      <trkpt lat="40.158783" lon="-5.235967">
        <ele>1142.0</ele>
        <time>2013-06-30T13:37:34Z</time>
      </trkpt>
      <trkpt lat="40.158783" lon="-5.236067">
        <ele>1144.0</ele>
        <time>2013-06-30T13:37:35Z</time>
      </trkpt>
      <trkpt lat="40.158783" lon="-5.236167">
        <ele>1145.0</ele>
        <time>2013-06-30T13:37:36Z</time>
      </trkpt>
      <trkpt lat="40.158783" lon="-5.236250">
        <ele>1147.0</ele>
        <time>2013-06-30T13:37:37Z</time>
      </trkpt>
      <trkpt lat="40.158767" lon="-5.236333">
        <ele>1148.0</ele>
        <time>2013-06-30T13:37:38Z</time>
      </trkpt>
      <trkpt lat="40.158750" lon="-5.236400">
        <ele>1148.0</ele>
        <time>2013-06-30T13:37:39Z</time>
      </trkpt>
      <trkpt lat="40.158717" lon="-5.236450">
        <ele>1147.0</ele>
        <time>2013-06-30T13:37:40Z</time>
      </trkpt>
      <trkpt lat="40.158650" lon="-5.236500">
        <ele>1147.0</ele>
        <time>2013-06-30T13:37:41Z</time>
      </trkpt>
      <trkpt lat="40.158600" lon="-5.236517">
        <ele>1147.0</ele>
        <time>2013-06-30T13:37:42Z</time>
      </trkpt>
      <trkpt lat="40.158533" lon="-5.236517">
        <ele>1147.0</ele>
        <time>2013-06-30T13:37:43Z</time>
      </trkpt>
      <trkpt lat="40.158483" lon="-5.236483">
        <ele>1147.0</ele>
        <time>2013-06-30T13:37:44Z</time>
      </trkpt>
      <trkpt lat="40.158433" lon="-5.236450">
        <ele>1147.0</ele>
        <time>2013-06-30T13:37:45Z</time>
      </trkpt>
      <trkpt lat="40.158383" lon="-5.236417">
        <ele>1146.0</ele>
        <time>2013-06-30T13:37:46Z</time>
      </trkpt>
      <trkpt lat="40.158333" lon="-5.236350">
        <ele>1145.0</ele>
        <time>2013-06-30T13:37:47Z</time>
      </trkpt>
      <trkpt lat="40.158300" lon="-5.236283">
        <ele>1144.0</ele>
        <time>2013-06-30T13:37:48Z</time>
      </trkpt>
      <trkpt lat="40.158267" lon="-5.236183">
        <ele>1143.0</ele>
        <time>2013-06-30T13:37:49Z</time>
      </trkpt>
      <trkpt lat="40.158250" lon="-5.236100">
        <ele>1143.0</ele>
        <time>2013-06-30T13:37:50Z</time>
      </trkpt>
      <trkpt lat="40.158250" lon="-5.236017">
        <ele>1143.0</ele>
        <time>2013-06-30T13:37:51Z</time>
      </trkpt>
      <trkpt lat="40.158283" lon="-5.235933">
        <ele>1142.0</ele>
        <time>2013-06-30T13:37:52Z</time>
      </trkpt>
      <trkpt lat="40.158317" lon="-5.235850">
        <ele>1141.0</ele>
        <time>2013-06-30T13:37:53Z</time>
      </trkpt>
      <trkpt lat="40.158367" lon="-5.235767">
        <ele>1140.0</ele>
        <time>2013-06-30T13:37:54Z</time>
      </trkpt>
      <trkpt lat="40.158450" lon="-5.235700">
        <ele>1139.0</ele>
        <time>2013-06-30T13:37:55Z</time>
      </trkpt>
      <trkpt lat="40.158550" lon="-5.235650">
        <ele>1138.0</ele>
        <time>2013-06-30T13:37:56Z</time>
      </trkpt>
      <trkpt lat="40.158633" lon="-5.235600">
        <ele>1138.0</ele>
        <time>2013-06-30T13:37:57Z</time>
      </trkpt>
      <trkpt lat="40.158717" lon="-5.235550">
        <ele>1140.0</ele>
        <time>2013-06-30T13:37:58Z</time>
      </trkpt>
      <trkpt lat="40.158800" lon="-5.235517">
        <ele>1141.0</ele>
        <time>2013-06-30T13:37:59Z</time>
      </trkpt>
      <trkpt lat="40.158867" lon="-5.235467">
        <ele>1142.0</ele>
        <time>2013-06-30T13:38:00Z</time>
      </trkpt>
      <trkpt lat="40.158933" lon="-5.235467">
        <ele>1143.0</ele>
        <time>2013-06-30T13:38:01Z</time>
      </trkpt>
      <trkpt lat="40.159017" lon="-5.235467">
        <ele>1143.0</ele>
        <time>2013-06-30T13:38:02Z</time>
      </trkpt>
      <trkpt lat="40.159083" lon="-5.235500">
        <ele>1142.0</ele>
        <time>2013-06-30T13:38:03Z</time>
      </trkpt>
      <trkpt lat="40.159167" lon="-5.235533">
        <ele>1142.0</ele>
        <time>2013-06-30T13:38:04Z</time>
      </trkpt>
      <trkpt lat="40.159233" lon="-5.235567">
        <ele>1142.0</ele>
        <time>2013-06-30T13:38:05Z</time>
      </trkpt>
      <trkpt lat="40.159300" lon="-5.235617">
        <ele>1141.0</ele>
        <time>2013-06-30T13:38:06Z</time>
      </trkpt>
      <trkpt lat="40.159383" lon="-5.235683">
        <ele>1140.0</ele>
        <time>2013-06-30T13:38:07Z</time>
      </trkpt>
      <trkpt lat="40.159433" lon="-5.235767">
        <ele>1140.0</ele>
        <time>2013-06-30T13:38:08Z</time>
      </trkpt>
      <trkpt lat="40.159500" lon="-5.235867">
        <ele>1139.0</ele>
        <time>2013-06-30T13:38:09Z</time>
      </trkpt>
      <trkpt lat="40.159550" lon="-5.235967">
        <ele>1140.0</ele>
        <time>2013-06-30T13:38:10Z</time>
      </trkpt>
      <trkpt lat="40.159600" lon="-5.236083">
        <ele>1140.0</ele>
        <time>2013-06-30T13:38:11Z</time>
      </trkpt>
      <trkpt lat="40.159633" lon="-5.236183">
        <ele>1140.0</ele>
        <time>2013-06-30T13:38:12Z</time>
      </trkpt>
      <trkpt lat="40.159667" lon="-5.236283">
        <ele>1140.0</ele>
        <time>2013-06-30T13:38:13Z</time>
      </trkpt>
      <trkpt lat="40.159717" lon="-5.236383">
        <ele>1140.0</ele>
        <time>2013-06-30T13:38:14Z</time>
      </trkpt>
      <trkpt lat="40.159750" lon="-5.236467">
        <ele>1140.0</ele>
        <time>2013-06-30T13:38:15Z</time>
      </trkpt>
      <trkpt lat="40.159783" lon="-5.236567">
        <ele>1139.0</ele>
        <time>2013-06-30T13:38:16Z</time>
      </trkpt>
      <trkpt lat="40.159817" lon="-5.236667">
        <ele>1139.0</ele>
        <time>2013-06-30T13:38:17Z</time>
      </trkpt>
      <trkpt lat="40.159833" lon="-5.236800">
        <ele>1138.0</ele>
        <time>2013-06-30T13:38:18Z</time>
      </trkpt>
      <trkpt lat="40.159833" lon="-5.236917">
        <ele>1138.0</ele>
        <time>2013-06-30T13:38:19Z</time>
      </trkpt>
      <trkpt lat="40.159833" lon="-5.237050">
        <ele>1139.0</ele>
        <time>2013-06-30T13:38:20Z</time>
      </trkpt>
      <trkpt lat="40.159817" lon="-5.237183">
        <ele>1141.0</ele>
        <time>2013-06-30T13:38:21Z</time>
      </trkpt>
      <trkpt lat="40.159800" lon="-5.237283">
        <ele>1143.0</ele>
        <time>2013-06-30T13:38:22Z</time>
      </trkpt>
      <trkpt lat="40.159800" lon="-5.237350">
        <ele>1145.0</ele>
        <time>2013-06-30T13:38:23Z</time>
      </trkpt>
      <trkpt lat="40.159800" lon="-5.237417">
        <ele>1146.0</ele>
        <time>2013-06-30T13:38:24Z</time>
      </trkpt>
      <trkpt lat="40.159800" lon="-5.237500">
        <ele>1147.0</ele>
        <time>2013-06-30T13:38:25Z</time>
      </trkpt>
      <trkpt lat="40.159800" lon="-5.237583">
        <ele>1146.0</ele>
        <time>2013-06-30T13:38:26Z</time>
      </trkpt>
      <trkpt lat="40.159767" lon="-5.237650">
        <ele>1147.0</ele>
        <time>2013-06-30T13:38:27Z</time>
      </trkpt>
      <trkpt lat="40.159717" lon="-5.237700">
        <ele>1145.0</ele>
        <time>2013-06-30T13:38:28Z</time>
      </trkpt>
      <trkpt lat="40.159650" lon="-5.237733">
        <ele>1143.0</ele>
        <time>2013-06-30T13:38:29Z</time>
      </trkpt>
      <trkpt lat="40.159583" lon="-5.237750">
        <ele>1143.0</ele>
        <time>2013-06-30T13:38:30Z</time>
      </trkpt>
      <trkpt lat="40.159533" lon="-5.237733">
        <ele>1144.0</ele>
        <time>2013-06-30T13:38:31Z</time>
      </trkpt>
      <trkpt lat="40.159500" lon="-5.237733">
        <ele>1143.0</ele>
        <time>2013-06-30T13:38:32Z</time>
      </trkpt>
      <trkpt lat="40.159467" lon="-5.237700">
        <ele>1141.0</ele>
        <time>2013-06-30T13:38:33Z</time>
      </trkpt>
      <trkpt lat="40.159417" lon="-5.237683">
        <ele>1139.0</ele>
        <time>2013-06-30T13:38:34Z</time>
      </trkpt>
      <trkpt lat="40.159383" lon="-5.237650">
        <ele>1137.0</ele>
        <time>2013-06-30T13:38:35Z</time>
      </trkpt>
      <trkpt lat="40.159333" lon="-5.237600">
        <ele>1135.0</ele>
        <time>2013-06-30T13:38:36Z</time>
      </trkpt>
      <trkpt lat="40.159283" lon="-5.237517">
        <ele>1132.0</ele>
        <time>2013-06-30T13:38:37Z</time>
      </trkpt>
      <trkpt lat="40.159250" lon="-5.237433">
        <ele>1130.0</ele>
        <time>2013-06-30T13:38:38Z</time>
      </trkpt>
      <trkpt lat="40.159233" lon="-5.237333">
        <ele>1129.0</ele>
        <time>2013-06-30T13:38:39Z</time>
      </trkpt>
      <trkpt lat="40.159233" lon="-5.237233">
        <ele>1128.0</ele>
        <time>2013-06-30T13:38:40Z</time>
      </trkpt>
      <trkpt lat="40.159250" lon="-5.237133">
        <ele>1127.0</ele>
        <time>2013-06-30T13:38:41Z</time>
      </trkpt>
      <trkpt lat="40.159300" lon="-5.237050">
        <ele>1125.0</ele>
        <time>2013-06-30T13:38:42Z</time>
      </trkpt>
      <trkpt lat="40.159383" lon="-5.236983">
        <ele>1123.0</ele>
        <time>2013-06-30T13:38:43Z</time>
      </trkpt>
      <trkpt lat="40.159483" lon="-5.236950">
        <ele>1122.0</ele>
        <time>2013-06-30T13:38:44Z</time>
      </trkpt>
      <trkpt lat="40.159583" lon="-5.236950">
        <ele>1122.0</ele>
        <time>2013-06-30T13:38:45Z</time>
      </trkpt>
      <trkpt lat="40.159667" lon="-5.236967">
        <ele>1122.0</ele>
        <time>2013-06-30T13:38:46Z</time>
      </trkpt>
      <trkpt lat="40.159767" lon="-5.236967">
        <ele>1121.0</ele>
        <time>2013-06-30T13:38:47Z</time>
      </trkpt>
      <trkpt lat="40.159867" lon="-5.236983">
        <ele>1121.0</ele>
        <time>2013-06-30T13:38:48Z</time>
      </trkpt>
      <trkpt lat="40.159983" lon="-5.237000">
        <ele>1120.0</ele>
        <time>2013-06-30T13:38:49Z</time>
      </trkpt>
      <trkpt lat="40.160083" lon="-5.237033">
        <ele>1120.0</ele>
        <time>2013-06-30T13:38:50Z</time>
      </trkpt>
      <trkpt lat="40.160200" lon="-5.237083">
        <ele>1120.0</ele>
        <time>2013-06-30T13:38:51Z</time>
      </trkpt>
      <trkpt lat="40.160300" lon="-5.237133">
        <ele>1121.0</ele>
        <time>2013-06-30T13:38:52Z</time>
      </trkpt>
      <trkpt lat="40.160400" lon="-5.237217">
        <ele>1121.0</ele>
        <time>2013-06-30T13:38:53Z</time>
      </trkpt>
      <trkpt lat="40.160483" lon="-5.237283">
        <ele>1122.0</ele>
        <time>2013-06-30T13:38:54Z</time>
      </trkpt>
      <trkpt lat="40.160567" lon="-5.237350">
        <ele>1124.0</ele>
        <time>2013-06-30T13:38:55Z</time>
      </trkpt>
      <trkpt lat="40.160633" lon="-5.237400">
        <ele>1125.0</ele>
        <time>2013-06-30T13:38:56Z</time>
      </trkpt>
      <trkpt lat="40.160717" lon="-5.237467">
        <ele>1126.0</ele>
        <time>2013-06-30T13:38:57Z</time>
      </trkpt>
      <trkpt lat="40.160783" lon="-5.237533">
        <ele>1127.0</ele>
        <time>2013-06-30T13:38:58Z</time>
      </trkpt>
      <trkpt lat="40.160850" lon="-5.237600">
        <ele>1128.0</ele>
        <time>2013-06-30T13:38:59Z</time>
      </trkpt>
      <trkpt lat="40.160917" lon="-5.237683">
        <ele>1130.0</ele>
        <time>2013-06-30T13:39:00Z</time>
      </trkpt>
      <trkpt lat="40.160967" lon="-5.237767">
        <ele>1131.0</ele>
        <time>2013-06-30T13:39:01Z</time>
      </trkpt>
      <trkpt lat="40.161000" lon="-5.237833">
        <ele>1132.0</ele>
        <time>2013-06-30T13:39:02Z</time>
      </trkpt>
      <trkpt lat="40.161033" lon="-5.237917">
        <ele>1133.0</ele>
        <time>2013-06-30T13:39:03Z</time>
      </trkpt>
      <trkpt lat="40.161050" lon="-5.238017">
        <ele>1133.0</ele>
        <time>2013-06-30T13:39:04Z</time>
      </trkpt>
      <trkpt lat="40.161050" lon="-5.238117">
        <ele>1135.0</ele>
        <time>2013-06-30T13:39:05Z</time>
      </trkpt>
      <trkpt lat="40.161033" lon="-5.238217">
        <ele>1137.0</ele>
        <time>2013-06-30T13:39:06Z</time>
      </trkpt>
      <trkpt lat="40.161000" lon="-5.238283">
        <ele>1139.0</ele>
        <time>2013-06-30T13:39:07Z</time>
      </trkpt>
      <trkpt lat="40.160983" lon="-5.238350">
        <ele>1142.0</ele>
        <time>2013-06-30T13:39:08Z</time>
      </trkpt>
      <trkpt lat="40.160967" lon="-5.238417">
        <ele>1144.0</ele>
        <time>2013-06-30T13:39:09Z</time>
      </trkpt>
      <trkpt lat="40.160933" lon="-5.238483">
        <ele>1148.0</ele>
        <time>2013-06-30T13:39:10Z</time>
      </trkpt>
      <trkpt lat="40.160917" lon="-5.238550">
        <ele>1150.0</ele>
        <time>2013-06-30T13:39:11Z</time>
      </trkpt>
      <trkpt lat="40.160867" lon="-5.238583">
        <ele>1151.0</ele>
        <time>2013-06-30T13:39:12Z</time>
      </trkpt>
      <trkpt lat="40.160833" lon="-5.238583">
        <ele>1152.0</ele>
        <time>2013-06-30T13:39:13Z</time>
      </trkpt>
      <trkpt lat="40.160783" lon="-5.238533">
        <ele>1151.0</ele>
        <time>2013-06-30T13:39:14Z</time>
      </trkpt>
      <trkpt lat="40.160767" lon="-5.238450">
        <ele>1150.0</ele>
        <time>2013-06-30T13:39:15Z</time>
      </trkpt>
      <trkpt lat="40.160767" lon="-5.238350">
        <ele>1149.0</ele>
        <time>2013-06-30T13:39:16Z</time>
      </trkpt>
      <trkpt lat="40.160800" lon="-5.238233">
        <ele>1150.0</ele>
        <time>2013-06-30T13:39:17Z</time>
      </trkpt>
      <trkpt lat="40.160867" lon="-5.238150">
        <ele>1151.0</ele>
        <time>2013-06-30T13:39:18Z</time>
      </trkpt>
      <trkpt lat="40.160933" lon="-5.238083">
        <ele>1152.0</ele>
        <time>2013-06-30T13:39:19Z</time>
      </trkpt>
      <trkpt lat="40.161000" lon="-5.238017">
        <ele>1154.0</ele>
        <time>2013-06-30T13:39:20Z</time>
      </trkpt>
      <trkpt lat="40.161083" lon="-5.237950">
        <ele>1156.0</ele>
        <time>2013-06-30T13:39:21Z</time>
      </trkpt>
      <trkpt lat="40.161183" lon="-5.237883">
        <ele>1157.0</ele>
        <time>2013-06-30T13:39:22Z</time>
      </trkpt>
      <trkpt lat="40.161283" lon="-5.237833">
        <ele>1159.0</ele>
        <time>2013-06-30T13:39:23Z</time>
      </trkpt>
      <trkpt lat="40.161383" lon="-5.237800">
        <ele>1162.0</ele>
        <time>2013-06-30T13:39:24Z</time>
      </trkpt>
      <trkpt lat="40.161450" lon="-5.237800">
        <ele>1164.0</ele>
        <time>2013-06-30T13:39:25Z</time>
      </trkpt>
      <trkpt lat="40.161500" lon="-5.237833">
        <ele>1165.0</ele>
        <time>2013-06-30T13:39:26Z</time>
      </trkpt>
      <trkpt lat="40.161550" lon="-5.237883">
        <ele>1164.0</ele>
        <time>2013-06-30T13:39:27Z</time>
      </trkpt>
      <trkpt lat="40.161617" lon="-5.237950">
        <ele>1163.0</ele>
        <time>2013-06-30T13:39:28Z</time>
      </trkpt>
      <trkpt lat="40.161667" lon="-5.238033">
        <ele>1163.0</ele>
        <time>2013-06-30T13:39:29Z</time>
      </trkpt>
      <trkpt lat="40.161667" lon="-5.238150">
        <ele>1163.0</ele>
        <time>2013-06-30T13:39:30Z</time>
      </trkpt>
      <trkpt lat="40.161650" lon="-5.238250">
        <ele>1163.0</ele>
        <time>2013-06-30T13:39:31Z</time>
      </trkpt>
      <trkpt lat="40.161583" lon="-5.238333">
        <ele>1164.0</ele>
        <time>2013-06-30T13:39:32Z</time>
      </trkpt>
      <trkpt lat="40.161550" lon="-5.238383">
        <ele>1165.0</ele>
        <time>2013-06-30T13:39:33Z</time>
      </trkpt>
      <trkpt lat="40.161517" lon="-5.238450">
        <ele>1167.0</ele>
        <time>2013-06-30T13:39:34Z</time>
      </trkpt>
      <trkpt lat="40.161483" lon="-5.238517">
        <ele>1169.0</ele>
        <time>2013-06-30T13:39:35Z</time>
      </trkpt>
      <trkpt lat="40.161433" lon="-5.238583">
        <ele>1171.0</ele>
        <time>2013-06-30T13:39:36Z</time>
      </trkpt>
      <trkpt lat="40.161400" lon="-5.238633">
        <ele>1175.0</ele>
        <time>2013-06-30T13:39:37Z</time>
      </trkpt>
      <trkpt lat="40.161350" lon="-5.238667">
        <ele>1178.0</ele>
        <time>2013-06-30T13:39:38Z</time>
      </trkpt>
      <trkpt lat="40.161300" lon="-5.238650">
        <ele>1180.0</ele>
        <time>2013-06-30T13:39:39Z</time>
      </trkpt>
      <trkpt lat="40.161283" lon="-5.238583">
        <ele>1182.0</ele>
        <time>2013-06-30T13:39:40Z</time>
      </trkpt>
      <trkpt lat="40.161267" lon="-5.238517">
        <ele>1182.0</ele>
        <time>2013-06-30T13:39:41Z</time>
      </trkpt>
      <trkpt lat="40.161267" lon="-5.238433">
        <ele>1183.0</ele>
        <time>2013-06-30T13:39:42Z</time>
      </trkpt>
      <trkpt lat="40.161283" lon="-5.238333">
        <ele>1185.0</ele>
        <time>2013-06-30T13:39:43Z</time>
      </trkpt>
      <trkpt lat="40.161317" lon="-5.238233">
        <ele>1187.0</ele>
        <time>2013-06-30T13:39:44Z</time>
      </trkpt>
      <trkpt lat="40.161367" lon="-5.238133">
        <ele>1190.0</ele>
        <time>2013-06-30T13:39:45Z</time>
      </trkpt>
      <trkpt lat="40.161450" lon="-5.238083">
        <ele>1193.0</ele>
        <time>2013-06-30T13:39:46Z</time>
      </trkpt>
      <trkpt lat="40.161517" lon="-5.238083">
        <ele>1196.0</ele>
        <time>2013-06-30T13:39:47Z</time>
      </trkpt>
      <trkpt lat="40.161567" lon="-5.238133">
        <ele>1196.0</ele>
        <time>2013-06-30T13:39:48Z</time>
      </trkpt>
      <trkpt lat="40.161617" lon="-5.238217">
        <ele>1197.0</ele>
        <time>2013-06-30T13:39:49Z</time>
      </trkpt>
      <trkpt lat="40.161667" lon="-5.238300">
        <ele>1197.0</ele>
        <time>2013-06-30T13:39:50Z</time>
      </trkpt>
      <trkpt lat="40.161683" lon="-5.238417">
        <ele>1197.0</ele>
        <time>2013-06-30T13:39:51Z</time>
      </trkpt>
      <trkpt lat="40.161700" lon="-5.238533">
        <ele>1198.0</ele>
        <time>2013-06-30T13:39:52Z</time>
      </trkpt>
      <trkpt lat="40.161700" lon="-5.238650">
        <ele>1200.0</ele>
        <time>2013-06-30T13:39:53Z</time>
      </trkpt>
      <trkpt lat="40.161700" lon="-5.238733">
        <ele>1202.0</ele>
        <time>2013-06-30T13:39:54Z</time>
      </trkpt>
      <trkpt lat="40.161700" lon="-5.238833">
        <ele>1204.0</ele>
        <time>2013-06-30T13:39:55Z</time>
      </trkpt>
      <trkpt lat="40.161683" lon="-5.238917">
        <ele>1205.0</ele>
        <time>2013-06-30T13:39:56Z</time>
      </trkpt>
      <trkpt lat="40.161667" lon="-5.239017">
        <ele>1206.0</ele>
        <time>2013-06-30T13:39:57Z</time>
      </trkpt>
      <trkpt lat="40.161633" lon="-5.239133">
        <ele>1208.0</ele>
        <time>2013-06-30T13:39:58Z</time>
      </trkpt>
      <trkpt lat="40.161583" lon="-5.239183">
        <ele>1210.0</ele>
        <time>2013-06-30T13:39:59Z</time>
      </trkpt>
      <trkpt lat="40.161550" lon="-5.239200">
        <ele>1210.0</ele>
        <time>2013-06-30T13:40:00Z</time>
      </trkpt>
      <trkpt lat="40.161500" lon="-5.239167">
        <ele>1210.0</ele>
        <time>2013-06-30T13:40:01Z</time>
      </trkpt>
      <trkpt lat="40.161433" lon="-5.239100">
        <ele>1209.0</ele>
        <time>2013-06-30T13:40:02Z</time>
      </trkpt>
      <trkpt lat="40.161383" lon="-5.239033">
        <ele>1210.0</ele>
        <time>2013-06-30T13:40:03Z</time>
      </trkpt>
      <trkpt lat="40.161333" lon="-5.238967">
        <ele>1211.0</ele>
        <time>2013-06-30T13:40:04Z</time>
      </trkpt>
      <trkpt lat="40.161300" lon="-5.238883">
        <ele>1212.0</ele>
        <time>2013-06-30T13:40:05Z</time>
      </trkpt>
      <trkpt lat="40.161300" lon="-5.238800">
        <ele>1214.0</ele>
        <time>2013-06-30T13:40:06Z</time>
      </trkpt>
      <trkpt lat="40.161317" lon="-5.238717">
        <ele>1216.0</ele>
        <time>2013-06-30T13:40:07Z</time>
      </trkpt>
      <trkpt lat="40.161350" lon="-5.238667">
        <ele>1218.0</ele>
        <time>2013-06-30T13:40:08Z</time>
      </trkpt>
      <trkpt lat="40.161383" lon="-5.238600">
        <ele>1221.0</ele>
        <time>2013-06-30T13:40:09Z</time>
      </trkpt>
      <trkpt lat="40.161417" lon="-5.238533">
        <ele>1223.0</ele>
        <time>2013-06-30T13:40:10Z</time>
      </trkpt>
      <trkpt lat="40.161450" lon="-5.238483">
        <ele>1225.0</ele>
        <time>2013-06-30T13:40:11Z</time>
      </trkpt>
      <trkpt lat="40.161483" lon="-5.238467">
        <ele>1228.0</ele>
        <time>2013-06-30T13:40:12Z</time>
      </trkpt>
      <trkpt lat="40.161533" lon="-5.238467">
        <ele>1230.0</ele>
        <time>2013-06-30T13:40:13Z</time>
      </trkpt>
      <trkpt lat="40.161600" lon="-5.238483">
        <ele>1230.0</ele>
        <time>2013-06-30T13:40:14Z</time>
      </trkpt>
      <trkpt lat="40.161667" lon="-5.238517">
        <ele>1231.0</ele>
        <time>2013-06-30T13:40:15Z</time>
      </trkpt>
      <trkpt lat="40.161733" lon="-5.238567">
        <ele>1232.0</ele>
        <time>2013-06-30T13:40:16Z</time>
      </trkpt>
      <trkpt lat="40.161783" lon="-5.238633">
        <ele>1233.0</ele>
        <time>2013-06-30T13:40:17Z</time>
      </trkpt>
      <trkpt lat="40.161833" lon="-5.238733">
        <ele>1234.0</ele>
        <time>2013-06-30T13:40:18Z</time>
      </trkpt>
      <trkpt lat="40.161867" lon="-5.238833">
        <ele>1235.0</ele>
        <time>2013-06-30T13:40:19Z</time>
      </trkpt>
      <trkpt lat="40.161867" lon="-5.238950">
        <ele>1234.0</ele>
        <time>2013-06-30T13:40:20Z</time>
      </trkpt>
      <trkpt lat="40.161850" lon="-5.239083">
        <ele>1233.0</ele>
        <time>2013-06-30T13:40:21Z</time>
      </trkpt>
      <trkpt lat="40.161817" lon="-5.239183">
        <ele>1232.0</ele>
        <time>2013-06-30T13:40:22Z</time>
      </trkpt>
      <trkpt lat="40.161750" lon="-5.239283">
        <ele>1231.0</ele>
        <time>2013-06-30T13:40:23Z</time>
      </trkpt>
      <trkpt lat="40.161683" lon="-5.239350">
        <ele>1231.0</ele>
        <time>2013-06-30T13:40:24Z</time>
      </trkpt>
      <trkpt lat="40.161600" lon="-5.239400">
        <ele>1231.0</ele>
        <time>2013-06-30T13:40:25Z</time>
      </trkpt>
      <trkpt lat="40.161533" lon="-5.239433">
        <ele>1232.0</ele>
        <time>2013-06-30T13:40:26Z</time>
      </trkpt>
      <trkpt lat="40.161467" lon="-5.239450">
        <ele>1232.0</ele>
        <time>2013-06-30T13:40:27Z</time>
      </trkpt>
      <trkpt lat="40.161400" lon="-5.239417">
        <ele>1232.0</ele>
        <time>2013-06-30T13:40:28Z</time>
      </trkpt>
      <trkpt lat="40.161333" lon="-5.239367">
        <ele>1231.0</ele>
        <time>2013-06-30T13:40:29Z</time>
      </trkpt>
      <trkpt lat="40.161267" lon="-5.239300">
        <ele>1232.0</ele>
        <time>2013-06-30T13:40:30Z</time>
      </trkpt>
      <trkpt lat="40.161233" lon="-5.239217">
        <ele>1232.0</ele>
        <time>2013-06-30T13:40:31Z</time>
      </trkpt>
      <trkpt lat="40.161233" lon="-5.239133">
        <ele>1232.0</ele>
        <time>2013-06-30T13:40:32Z</time>
      </trkpt>
      <trkpt lat="40.161250" lon="-5.239067">
        <ele>1232.0</ele>
        <time>2013-06-30T13:40:33Z</time>
      </trkpt>
      <trkpt lat="40.161300" lon="-5.238983">
        <ele>1232.0</ele>
        <time>2013-06-30T13:40:34Z</time>
      </trkpt>
      <trkpt lat="40.161350" lon="-5.238900">
        <ele>1232.0</ele>
        <time>2013-06-30T13:40:35Z</time>
      </trkpt>
      <trkpt lat="40.161417" lon="-5.238850">
        <ele>1233.0</ele>
        <time>2013-06-30T13:40:36Z</time>
      </trkpt>
      <trkpt lat="40.161467" lon="-5.238800">
        <ele>1235.0</ele>
        <time>2013-06-30T13:40:37Z</time>
      </trkpt>
      <trkpt lat="40.161550" lon="-5.238783">
        <ele>1236.0</ele>
        <time>2013-06-30T13:40:38Z</time>
      </trkpt>
      <trkpt lat="40.161617" lon="-5.238783">
        <ele>1238.0</ele>
        <time>2013-06-30T13:40:39Z</time>
      </trkpt>
      <trkpt lat="40.161683" lon="-5.238800">
        <ele>1239.0</ele>
        <time>2013-06-30T13:40:40Z</time>
      </trkpt>
      <trkpt lat="40.161733" lon="-5.238833">
        <ele>1240.0</ele>
        <time>2013-06-30T13:40:41Z</time>
      </trkpt>
      <trkpt lat="40.161800" lon="-5.238883">
        <ele>1241.0</ele>
        <time>2013-06-30T13:40:42Z</time>
      </trkpt>
      <trkpt lat="40.161867" lon="-5.238933">
        <ele>1242.0</ele>
        <time>2013-06-30T13:40:43Z</time>
      </trkpt>
      <trkpt lat="40.161933" lon="-5.238983">
        <ele>1243.0</ele>
        <time>2013-06-30T13:40:44Z</time>
      </trkpt>
      <trkpt lat="40.162000" lon="-5.239050">
        <ele>1244.0</ele>
        <time>2013-06-30T13:40:45Z</time>
      </trkpt>
      <trkpt lat="40.162050" lon="-5.239133">
        <ele>1244.0</ele>
        <time>2013-06-30T13:40:46Z</time>
      </trkpt>
      <trkpt lat="40.162083" lon="-5.239233">
        <ele>1245.0</ele>
        <time>2013-06-30T13:40:47Z</time>
      </trkpt>
      <trkpt lat="40.162083" lon="-5.239350">
        <ele>1245.0</ele>
        <time>2013-06-30T13:40:48Z</time>
      </trkpt>
      <trkpt lat="40.162067" lon="-5.239450">
        <ele>1246.0</ele>
        <time>2013-06-30T13:40:49Z</time>
      </trkpt>
      <trkpt lat="40.162050" lon="-5.239550">
        <ele>1245.0</ele>
        <time>2013-06-30T13:40:50Z</time>
      </trkpt>
      <trkpt lat="40.162000" lon="-5.239650">
        <ele>1244.0</ele>
        <time>2013-06-30T13:40:51Z</time>
      </trkpt>
      <trkpt lat="40.161950" lon="-5.239717">
        <ele>1243.0</ele>
        <time>2013-06-30T13:40:52Z</time>
      </trkpt>
      <trkpt lat="40.161883" lon="-5.239800">
        <ele>1241.0</ele>
        <time>2013-06-30T13:40:53Z</time>
      </trkpt>
      <trkpt lat="40.161817" lon="-5.239850">
        <ele>1241.0</ele>
        <time>2013-06-30T13:40:54Z</time>
      </trkpt>
      <trkpt lat="40.161750" lon="-5.239883">
        <ele>1241.0</ele>
        <time>2013-06-30T13:40:55Z</time>
      </trkpt>
      <trkpt lat="40.161683" lon="-5.239900">
        <ele>1241.0</ele>
        <time>2013-06-30T13:40:56Z</time>
      </trkpt>
      <trkpt lat="40.161633" lon="-5.239900">
        <ele>1240.0</ele>
        <time>2013-06-30T13:40:57Z</time>
      </trkpt>
      <trkpt lat="40.161567" lon="-5.239900">
        <ele>1239.0</ele>
        <time>2013-06-30T13:40:58Z</time>
      </trkpt>
      <trkpt lat="40.161500" lon="-5.239883">
        <ele>1238.0</ele>
        <time>2013-06-30T13:40:59Z</time>
      </trkpt>
      <trkpt lat="40.161433" lon="-5.239867">
        <ele>1238.0</ele>
        <time>2013-06-30T13:41:00Z</time>
      </trkpt>
      <trkpt lat="40.161367" lon="-5.239833">
        <ele>1239.0</ele>
        <time>2013-06-30T13:41:01Z</time>
      </trkpt>
      <trkpt lat="40.161317" lon="-5.239783">
        <ele>1239.0</ele>
        <time>2013-06-30T13:41:02Z</time>
      </trkpt>
      <trkpt lat="40.161267" lon="-5.239733">
        <ele>1238.0</ele>
        <time>2013-06-30T13:41:03Z</time>
      </trkpt>
      <trkpt lat="40.161233" lon="-5.239667">
        <ele>1238.0</ele>
        <time>2013-06-30T13:41:04Z</time>
      </trkpt>
      <trkpt lat="40.161217" lon="-5.239583">
        <ele>1237.0</ele>
        <time>2013-06-30T13:41:05Z</time>
      </trkpt>
      <trkpt lat="40.161233" lon="-5.239517">
        <ele>1236.0</ele>
        <time>2013-06-30T13:41:06Z</time>
      </trkpt>
      <trkpt lat="40.161267" lon="-5.239433">
        <ele>1235.0</ele>
        <time>2013-06-30T13:41:07Z</time>
      </trkpt>
      <trkpt lat="40.161300" lon="-5.239367">
        <ele>1234.0</ele>
        <time>2013-06-30T13:41:08Z</time>
      </trkpt>
      <trkpt lat="40.161367" lon="-5.239300">
        <ele>1234.0</ele>
        <time>2013-06-30T13:41:09Z</time>
      </trkpt>
      <trkpt lat="40.161433" lon="-5.239267">
        <ele>1235.0</ele>
        <time>2013-06-30T13:41:10Z</time>
      </trkpt>
      <trkpt lat="40.161500" lon="-5.239267">
        <ele>1236.0</ele>
        <time>2013-06-30T13:41:11Z</time>
      </trkpt>
      <trkpt lat="40.161567" lon="-5.239267">
        <ele>1236.0</ele>
        <time>2013-06-30T13:41:12Z</time>
      </trkpt>
      <trkpt lat="40.161633" lon="-5.239267">
        <ele>1236.0</ele>
        <time>2013-06-30T13:41:13Z</time>
      </trkpt>
      <trkpt lat="40.161717" lon="-5.239283">
        <ele>1236.0</ele>
        <time>2013-06-30T13:41:14Z</time>
      </trkpt>
      <trkpt lat="40.161783" lon="-5.239317">
        <ele>1235.0</ele>
        <time>2013-06-30T13:41:15Z</time>
      </trkpt>
      <trkpt lat="40.161850" lon="-5.239367">
        <ele>1235.0</ele>
        <time>2013-06-30T13:41:16Z</time>
      </trkpt>
      <trkpt lat="40.161917" lon="-5.239417">
        <ele>1235.0</ele>
        <time>2013-06-30T13:41:17Z</time>
      </trkpt>
      <trkpt lat="40.161983" lon="-5.239500">
        <ele>1234.0</ele>
        <time>2013-06-30T13:41:18Z</time>
      </trkpt>
      <trkpt lat="40.162033" lon="-5.239600">
        <ele>1233.0</ele>
        <time>2013-06-30T13:41:19Z</time>
      </trkpt>
      <trkpt lat="40.162067" lon="-5.239733">
        <ele>1232.0</ele>
        <time>2013-06-30T13:41:20Z</time>
      </trkpt>
      <trkpt lat="40.162100" lon="-5.239867">
        <ele>1232.0</ele>
        <time>2013-06-30T13:41:21Z</time>
      </trkpt>
      <trkpt lat="40.162133" lon="-5.239983">
        <ele>1234.0</ele>
        <time>2013-06-30T13:41:22Z</time>
      </trkpt>
      <trkpt lat="40.162167" lon="-5.240067">
        <ele>1234.0</ele>
        <time>2013-06-30T13:41:23Z</time>
      </trkpt>
      <trkpt lat="40.162183" lon="-5.240133">
        <ele>1234.0</ele>
        <time>2013-06-30T13:41:24Z</time>
      </trkpt>
      <trkpt lat="40.162200" lon="-5.240200">
        <ele>1233.0</ele>
        <time>2013-06-30T13:41:25Z</time>
      </trkpt>
      <trkpt lat="40.162233" lon="-5.240300">
        <ele>1231.0</ele>
        <time>2013-06-30T13:41:26Z</time>
      </trkpt>
      <trkpt lat="40.162250" lon="-5.240400">
        <ele>1230.0</ele>
        <time>2013-06-30T13:41:27Z</time>
      </trkpt>
      <trkpt lat="40.162250" lon="-5.240517">
        <ele>1229.0</ele>
        <time>2013-06-30T13:41:28Z</time>
      </trkpt>
      <trkpt lat="40.162233" lon="-5.240600">
        <ele>1228.0</ele>
        <time>2013-06-30T13:41:29Z</time>
      </trkpt>
      <trkpt lat="40.162250" lon="-5.240683">
        <ele>1227.0</ele>
        <time>2013-06-30T13:41:30Z</time>
      </trkpt>
      <trkpt lat="40.162267" lon="-5.240783">
        <ele>1225.0</ele>
        <time>2013-06-30T13:41:31Z</time>
      </trkpt>
      <trkpt lat="40.162283" lon="-5.240867">
        <ele>1223.0</ele>
        <time>2013-06-30T13:41:32Z</time>
      </trkpt>
      <trkpt lat="40.162300" lon="-5.240983">
        <ele>1221.0</ele>
        <time>2013-06-30T13:41:33Z</time>
      </trkpt>
      <trkpt lat="40.162317" lon="-5.241083">
        <ele>1219.0</ele>
        <time>2013-06-30T13:41:34Z</time>
      </trkpt>
      <trkpt lat="40.162317" lon="-5.241183">
        <ele>1217.0</ele>
        <time>2013-06-30T13:41:35Z</time>
      </trkpt>
      <trkpt lat="40.162333" lon="-5.241283">
        <ele>1215.0</ele>
        <time>2013-06-30T13:41:36Z</time>
      </trkpt>
      <trkpt lat="40.162333" lon="-5.241383">
        <ele>1212.0</ele>
        <time>2013-06-30T13:41:37Z</time>
      </trkpt>
      <trkpt lat="40.162333" lon="-5.241467">
        <ele>1210.0</ele>
        <time>2013-06-30T13:41:38Z</time>
      </trkpt>
      <trkpt lat="40.162317" lon="-5.241550">
        <ele>1207.0</ele>
        <time>2013-06-30T13:41:39Z</time>
      </trkpt>
      <trkpt lat="40.162300" lon="-5.241617">
        <ele>1204.0</ele>
        <time>2013-06-30T13:41:40Z</time>
      </trkpt>
      <trkpt lat="40.162250" lon="-5.241683">
        <ele>1200.0</ele>
        <time>2013-06-30T13:41:41Z</time>
      </trkpt>
      <trkpt lat="40.162200" lon="-5.241733">
        <ele>1196.0</ele>
        <time>2013-06-30T13:41:42Z</time>
      </trkpt>
      <trkpt lat="40.162133" lon="-5.241750">
        <ele>1193.0</ele>
        <time>2013-06-30T13:41:43Z</time>
      </trkpt>
      <trkpt lat="40.162067" lon="-5.241750">
        <ele>1190.0</ele>
        <time>2013-06-30T13:41:44Z</time>
      </trkpt>
      <trkpt lat="40.162017" lon="-5.241717">
        <ele>1188.0</ele>
        <time>2013-06-30T13:41:45Z</time>
      </trkpt>
      <trkpt lat="40.161983" lon="-5.241667">
        <ele>1186.0</ele>
        <time>2013-06-30T13:41:46Z</time>
      </trkpt>
      <trkpt lat="40.161950" lon="-5.241600">
        <ele>1184.0</ele>
        <time>2013-06-30T13:41:47Z</time>
      </trkpt>
      <trkpt lat="40.161933" lon="-5.241533">
        <ele>1181.0</ele>
        <time>2013-06-30T13:41:48Z</time>
      </trkpt>
      <trkpt lat="40.161933" lon="-5.241433">
        <ele>1179.0</ele>
        <time>2013-06-30T13:41:49Z</time>
      </trkpt>
      <trkpt lat="40.161950" lon="-5.241350">
        <ele>1178.0</ele>
        <time>2013-06-30T13:41:50Z</time>
      </trkpt>
      <trkpt lat="40.162000" lon="-5.241267">
        <ele>1177.0</ele>
        <time>2013-06-30T13:41:51Z</time>
      </trkpt>
      <trkpt lat="40.162050" lon="-5.241200">
        <ele>1176.0</ele>
        <time>2013-06-30T13:41:52Z</time>
      </trkpt>
      <trkpt lat="40.162117" lon="-5.241150">
        <ele>1175.0</ele>
        <time>2013-06-30T13:41:53Z</time>
      </trkpt>
      <trkpt lat="40.162200" lon="-5.241133">
        <ele>1173.0</ele>
        <time>2013-06-30T13:41:54Z</time>
      </trkpt>
      <trkpt lat="40.162283" lon="-5.241133">
        <ele>1171.0</ele>
        <time>2013-06-30T13:41:55Z</time>
      </trkpt>
      <trkpt lat="40.162383" lon="-5.241150">
        <ele>1169.0</ele>
        <time>2013-06-30T13:41:56Z</time>
      </trkpt>
      <trkpt lat="40.162483" lon="-5.241217">
        <ele>1167.0</ele>
        <time>2013-06-30T13:41:57Z</time>
      </trkpt>
      <trkpt lat="40.162583" lon="-5.241300">
        <ele>1166.0</ele>
        <time>2013-06-30T13:41:58Z</time>
      </trkpt>
      <trkpt lat="40.162667" lon="-5.241383">
        <ele>1165.0</ele>
        <time>2013-06-30T13:41:59Z</time>
      </trkpt>
      <trkpt lat="40.162750" lon="-5.241467">
        <ele>1164.0</ele>
        <time>2013-06-30T13:42:00Z</time>
      </trkpt>
      <trkpt lat="40.162817" lon="-5.241533">
        <ele>1164.0</ele>
        <time>2013-06-30T13:42:01Z</time>
      </trkpt>
      <trkpt lat="40.162900" lon="-5.241600">
        <ele>1163.0</ele>
        <time>2013-06-30T13:42:02Z</time>
      </trkpt>
      <trkpt lat="40.162967" lon="-5.241683">
        <ele>1162.0</ele>
        <time>2013-06-30T13:42:03Z</time>
      </trkpt>
      <trkpt lat="40.163033" lon="-5.241767">
        <ele>1161.0</ele>
        <time>2013-06-30T13:42:04Z</time>
      </trkpt>
      <trkpt lat="40.163100" lon="-5.241867">
        <ele>1160.0</ele>
        <time>2013-06-30T13:42:05Z</time>
      </trkpt>
      <trkpt lat="40.163167" lon="-5.241967">
        <ele>1159.0</ele>
        <time>2013-06-30T13:42:06Z</time>
      </trkpt>
      <trkpt lat="40.163217" lon="-5.242083">
        <ele>1158.0</ele>
        <time>2013-06-30T13:42:07Z</time>
      </trkpt>
      <trkpt lat="40.163267" lon="-5.242183">
        <ele>1157.0</ele>
        <time>2013-06-30T13:42:08Z</time>
      </trkpt>
      <trkpt lat="40.163317" lon="-5.242300">
        <ele>1156.0</ele>
        <time>2013-06-30T13:42:09Z</time>
      </trkpt>
      <trkpt lat="40.163350" lon="-5.242400">
        <ele>1154.0</ele>
        <time>2013-06-30T13:42:10Z</time>
      </trkpt>
      <trkpt lat="40.163367" lon="-5.242500">
        <ele>1153.0</ele>
        <time>2013-06-30T13:42:11Z</time>
      </trkpt>
      <trkpt lat="40.163350" lon="-5.242650">
        <ele>1151.0</ele>
        <time>2013-06-30T13:42:12Z</time>
      </trkpt>
      <trkpt lat="40.163333" lon="-5.242783">
        <ele>1150.0</ele>
        <time>2013-06-30T13:42:13Z</time>
      </trkpt>
      <trkpt lat="40.163300" lon="-5.242933">
        <ele>1152.0</ele>
        <time>2013-06-30T13:42:14Z</time>
      </trkpt>
      <trkpt lat="40.163267" lon="-5.243050">
        <ele>1157.0</ele>
        <time>2013-06-30T13:42:15Z</time>
      </trkpt>
      <trkpt lat="40.163250" lon="-5.243117">
        <ele>1158.0</ele>
        <time>2013-06-30T13:42:16Z</time>
      </trkpt>
      <trkpt lat="40.163250" lon="-5.243183">
        <ele>1159.0</ele>
        <time>2013-06-30T13:42:17Z</time>
      </trkpt>
      <trkpt lat="40.163250" lon="-5.243267">
        <ele>1160.0</ele>
        <time>2013-06-30T13:42:18Z</time>
      </trkpt>
      <trkpt lat="40.163217" lon="-5.243350">
        <ele>1160.0</ele>
        <time>2013-06-30T13:42:19Z</time>
      </trkpt>
      <trkpt lat="40.163183" lon="-5.243467">
        <ele>1160.0</ele>
        <time>2013-06-30T13:42:20Z</time>
      </trkpt>
      <trkpt lat="40.163150" lon="-5.243567">
        <ele>1160.0</ele>
        <time>2013-06-30T13:42:21Z</time>
      </trkpt>
      <trkpt lat="40.163083" lon="-5.243617">
        <ele>1160.0</ele>
        <time>2013-06-30T13:42:22Z</time>
      </trkpt>
      <trkpt lat="40.163017" lon="-5.243633">
        <ele>1159.0</ele>
        <time>2013-06-30T13:42:23Z</time>
      </trkpt>
      <trkpt lat="40.162950" lon="-5.243617">
        <ele>1158.0</ele>
        <time>2013-06-30T13:42:24Z</time>
      </trkpt>
      <trkpt lat="40.162883" lon="-5.243567">
        <ele>1156.0</ele>
        <time>2013-06-30T13:42:25Z</time>
      </trkpt>
      <trkpt lat="40.162833" lon="-5.243517">
        <ele>1155.0</ele>
        <time>2013-06-30T13:42:26Z</time>
      </trkpt>
      <trkpt lat="40.162800" lon="-5.243450">
        <ele>1153.0</ele>
        <time>2013-06-30T13:42:27Z</time>
      </trkpt>
      <trkpt lat="40.162783" lon="-5.243383">
        <ele>1151.0</ele>
        <time>2013-06-30T13:42:28Z</time>
      </trkpt>
      <trkpt lat="40.162783" lon="-5.243300">
        <ele>1148.0</ele>
        <time>2013-06-30T13:42:29Z</time>
      </trkpt>
      <trkpt lat="40.162817" lon="-5.243233">
        <ele>1145.0</ele>
        <time>2013-06-30T13:42:30Z</time>
      </trkpt>
      <trkpt lat="40.162883" lon="-5.243167">
        <ele>1142.0</ele>
        <time>2013-06-30T13:42:31Z</time>
      </trkpt>
      <trkpt lat="40.162933" lon="-5.243117">
        <ele>1142.0</ele>
        <time>2013-06-30T13:42:32Z</time>
      </trkpt>
      <trkpt lat="40.163000" lon="-5.243067">
        <ele>1143.0</ele>
        <time>2013-06-30T13:42:33Z</time>
      </trkpt>
      <trkpt lat="40.163067" lon="-5.243017">
        <ele>1143.0</ele>
        <time>2013-06-30T13:42:34Z</time>
      </trkpt>
      <trkpt lat="40.163117" lon="-5.242967">
        <ele>1143.0</ele>
        <time>2013-06-30T13:42:35Z</time>
      </trkpt>
      <trkpt lat="40.163183" lon="-5.242950">
        <ele>1142.0</ele>
        <time>2013-06-30T13:42:36Z</time>
      </trkpt>
      <trkpt lat="40.163267" lon="-5.242950">
        <ele>1141.0</ele>
        <time>2013-06-30T13:42:37Z</time>
      </trkpt>
      <trkpt lat="40.163367" lon="-5.242967">
        <ele>1141.0</ele>
        <time>2013-06-30T13:42:38Z</time>
      </trkpt>
      <trkpt lat="40.163450" lon="-5.243000">
        <ele>1143.0</ele>
        <time>2013-06-30T13:42:39Z</time>
      </trkpt>
      <trkpt lat="40.163500" lon="-5.243050">
        <ele>1145.0</ele>
        <time>2013-06-30T13:42:40Z</time>
      </trkpt>
      <trkpt lat="40.163550" lon="-5.243100">
        <ele>1147.0</ele>
        <time>2013-06-30T13:42:41Z</time>
      </trkpt>
      <trkpt lat="40.163600" lon="-5.243133">
        <ele>1149.0</ele>
        <time>2013-06-30T13:42:42Z</time>
      </trkpt>
      <trkpt lat="40.163667" lon="-5.243183">
        <ele>1149.0</ele>
        <time>2013-06-30T13:42:43Z</time>
      </trkpt>
      <trkpt lat="40.163750" lon="-5.243250">
        <ele>1150.0</ele>
        <time>2013-06-30T13:42:44Z</time>
      </trkpt>
      <trkpt lat="40.163817" lon="-5.243350">
        <ele>1150.0</ele>
        <time>2013-06-30T13:42:45Z</time>
      </trkpt>
      <trkpt lat="40.163850" lon="-5.243483">
        <ele>1151.0</ele>
        <time>2013-06-30T13:42:46Z</time>
      </trkpt>
      <trkpt lat="40.163850" lon="-5.243600">
        <ele>1151.0</ele>
        <time>2013-06-30T13:42:47Z</time>
      </trkpt>
      <trkpt lat="40.163800" lon="-5.243700">
        <ele>1152.0</ele>
        <time>2013-06-30T13:42:48Z</time>
      </trkpt>
      <trkpt lat="40.163767" lon="-5.243783">
        <ele>1153.0</ele>
        <time>2013-06-30T13:42:49Z</time>
      </trkpt>
      <trkpt lat="40.163717" lon="-5.243833">
        <ele>1154.0</ele>
        <time>2013-06-30T13:42:50Z</time>
      </trkpt>
      <trkpt lat="40.163667" lon="-5.243883">
        <ele>1154.0</ele>
        <time>2013-06-30T13:42:51Z</time>
      </trkpt>
      <trkpt lat="40.163600" lon="-5.243900">
        <ele>1154.0</ele>
        <time>2013-06-30T13:42:52Z</time>
      </trkpt>
      <trkpt lat="40.163533" lon="-5.243900">
        <ele>1155.0</ele>
        <time>2013-06-30T13:42:53Z</time>
      </trkpt>
      <trkpt lat="40.163450" lon="-5.243867">
        <ele>1155.0</ele>
        <time>2013-06-30T13:42:54Z</time>
      </trkpt>
      <trkpt lat="40.163383" lon="-5.243817">
        <ele>1158.0</ele>
        <time>2013-06-30T13:42:55Z</time>
      </trkpt>
      <trkpt lat="40.163350" lon="-5.243767">
        <ele>1160.0</ele>
        <time>2013-06-30T13:42:56Z</time>
      </trkpt>
      <trkpt lat="40.163333" lon="-5.243700">
        <ele>1161.0</ele>
        <time>2013-06-30T13:42:57Z</time>
      </trkpt>
      <trkpt lat="40.163317" lon="-5.243650">
        <ele>1162.0</ele>
        <time>2013-06-30T13:42:58Z</time>
      </trkpt>
      <trkpt lat="40.163317" lon="-5.243567">
        <ele>1162.0</ele>
        <time>2013-06-30T13:42:59Z</time>
      </trkpt>
      <trkpt lat="40.163333" lon="-5.243483">
        <ele>1161.0</ele>
        <time>2013-06-30T13:43:00Z</time>
      </trkpt>
      <trkpt lat="40.163383" lon="-5.243417">
        <ele>1159.0</ele>
        <time>2013-06-30T13:43:01Z</time>
      </trkpt>
      <trkpt lat="40.163467" lon="-5.243383">
        <ele>1158.0</ele>
        <time>2013-06-30T13:43:02Z</time>
      </trkpt>
      <trkpt lat="40.163550" lon="-5.243383">
        <ele>1157.0</ele>
        <time>2013-06-30T13:43:03Z</time>
      </trkpt>
      <trkpt lat="40.163633" lon="-5.243433">
        <ele>1157.0</ele>
        <time>2013-06-30T13:43:04Z</time>
      </trkpt>
      <trkpt lat="40.163717" lon="-5.243500">
        <ele>1159.0</ele>
        <time>2013-06-30T13:43:05Z</time>
      </trkpt>
      <trkpt lat="40.163800" lon="-5.243567">
        <ele>1161.0</ele>
        <time>2013-06-30T13:43:06Z</time>
      </trkpt>
      <trkpt lat="40.163883" lon="-5.243617">
        <ele>1163.0</ele>
        <time>2013-06-30T13:43:07Z</time>
      </trkpt>
      <trkpt lat="40.163950" lon="-5.243683">
        <ele>1165.0</ele>
        <time>2013-06-30T13:43:08Z</time>
      </trkpt>
      <trkpt lat="40.164017" lon="-5.243733">
        <ele>1167.0</ele>
        <time>2013-06-30T13:43:09Z</time>
      </trkpt>
      <trkpt lat="40.164067" lon="-5.243817">
        <ele>1167.0</ele>
        <time>2013-06-30T13:43:10Z</time>
      </trkpt>
      <trkpt lat="40.164117" lon="-5.243900">
        <ele>1167.0</ele>
        <time>2013-06-30T13:43:11Z</time>
      </trkpt>
      <trkpt lat="40.164183" lon="-5.244000">
        <ele>1168.0</ele>
        <time>2013-06-30T13:43:12Z</time>
      </trkpt>
      <trkpt lat="40.164217" lon="-5.244117">
        <ele>1169.0</ele>
        <time>2013-06-30T13:43:13Z</time>
      </trkpt>
      <trkpt lat="40.164217" lon="-5.244233">
        <ele>1171.0</ele>
        <time>2013-06-30T13:43:14Z</time>
      </trkpt>
      <trkpt lat="40.164200" lon="-5.244350">
        <ele>1172.0</ele>
        <time>2013-06-30T13:43:15Z</time>
      </trkpt>
      <trkpt lat="40.164150" lon="-5.244450">
        <ele>1172.0</ele>
        <time>2013-06-30T13:43:16Z</time>
      </trkpt>
      <trkpt lat="40.164083" lon="-5.244533">
        <ele>1174.0</ele>
        <time>2013-06-30T13:43:17Z</time>
      </trkpt>
      <trkpt lat="40.164017" lon="-5.244600">
        <ele>1175.0</ele>
        <time>2013-06-30T13:43:18Z</time>
      </trkpt>
      <trkpt lat="40.163950" lon="-5.244650">
        <ele>1176.0</ele>
        <time>2013-06-30T13:43:19Z</time>
      </trkpt>
      <trkpt lat="40.163883" lon="-5.244633">
        <ele>1177.0</ele>
        <time>2013-06-30T13:43:20Z</time>
      </trkpt>
      <trkpt lat="40.163833" lon="-5.244600">
        <ele>1176.0</ele>
        <time>2013-06-30T13:43:21Z</time>
      </trkpt>
      <trkpt lat="40.163800" lon="-5.244517">
        <ele>1176.0</ele>
        <time>2013-06-30T13:43:22Z</time>
      </trkpt>
      <trkpt lat="40.163783" lon="-5.244450">
        <ele>1176.0</ele>
        <time>2013-06-30T13:43:23Z</time>
      </trkpt>
      <trkpt lat="40.163800" lon="-5.244383">
        <ele>1177.0</ele>
        <time>2013-06-30T13:43:24Z</time>
      </trkpt>
      <trkpt lat="40.163833" lon="-5.244333">
        <ele>1177.0</ele>
        <time>2013-06-30T13:43:25Z</time>
      </trkpt>
      <trkpt lat="40.163883" lon="-5.244283">
        <ele>1176.0</ele>
        <time>2013-06-30T13:43:26Z</time>
      </trkpt>
      <trkpt lat="40.163950" lon="-5.244250">
        <ele>1176.0</ele>
        <time>2013-06-30T13:43:27Z</time>
      </trkpt>
      <trkpt lat="40.164033" lon="-5.244233">
        <ele>1176.0</ele>
        <time>2013-06-30T13:43:28Z</time>
      </trkpt>
      <trkpt lat="40.164100" lon="-5.244250">
        <ele>1178.0</ele>
        <time>2013-06-30T13:43:29Z</time>
      </trkpt>
      <trkpt lat="40.164167" lon="-5.244267">
        <ele>1179.0</ele>
        <time>2013-06-30T13:43:30Z</time>
      </trkpt>
      <trkpt lat="40.164250" lon="-5.244317">
        <ele>1180.0</ele>
        <time>2013-06-30T13:43:31Z</time>
      </trkpt>
      <trkpt lat="40.164317" lon="-5.244350">
        <ele>1181.0</ele>
        <time>2013-06-30T13:43:32Z</time>
      </trkpt>
      <trkpt lat="40.164400" lon="-5.244417">
        <ele>1182.0</ele>
        <time>2013-06-30T13:43:33Z</time>
      </trkpt>
      <trkpt lat="40.164467" lon="-5.244500">
        <ele>1183.0</ele>
        <time>2013-06-30T13:43:34Z</time>
      </trkpt>
      <trkpt lat="40.164533" lon="-5.244583">
        <ele>1184.0</ele>
        <time>2013-06-30T13:43:35Z</time>
      </trkpt>
      <trkpt lat="40.164600" lon="-5.244683">
        <ele>1186.0</ele>
        <time>2013-06-30T13:43:36Z</time>
      </trkpt>
      <trkpt lat="40.164633" lon="-5.244783">
        <ele>1188.0</ele>
        <time>2013-06-30T13:43:37Z</time>
      </trkpt>
      <trkpt lat="40.164667" lon="-5.244883">
        <ele>1189.0</ele>
        <time>2013-06-30T13:43:38Z</time>
      </trkpt>
      <trkpt lat="40.164700" lon="-5.244983">
        <ele>1190.0</ele>
        <time>2013-06-30T13:43:39Z</time>
      </trkpt>
      <trkpt lat="40.164733" lon="-5.245083">
        <ele>1190.0</ele>
        <time>2013-06-30T13:43:40Z</time>
      </trkpt>
      <trkpt lat="40.164733" lon="-5.245200">
        <ele>1190.0</ele>
        <time>2013-06-30T13:43:41Z</time>
      </trkpt>
      <trkpt lat="40.164717" lon="-5.245317">
        <ele>1188.0</ele>
        <time>2013-06-30T13:43:42Z</time>
      </trkpt>
      <trkpt lat="40.164667" lon="-5.245417">
        <ele>1186.0</ele>
        <time>2013-06-30T13:43:43Z</time>
      </trkpt>
      <trkpt lat="40.164600" lon="-5.245500">
        <ele>1184.0</ele>
        <time>2013-06-30T13:43:44Z</time>
      </trkpt>
      <trkpt lat="40.164533" lon="-5.245550">
        <ele>1184.0</ele>
        <time>2013-06-30T13:43:45Z</time>
      </trkpt>
      <trkpt lat="40.164467" lon="-5.245617">
        <ele>1184.0</ele>
        <time>2013-06-30T13:43:46Z</time>
      </trkpt>
      <trkpt lat="40.164400" lon="-5.245667">
        <ele>1184.0</ele>
        <time>2013-06-30T13:43:47Z</time>
      </trkpt>
      <trkpt lat="40.164333" lon="-5.245700">
        <ele>1183.0</ele>
        <time>2013-06-30T13:43:48Z</time>
      </trkpt>
      <trkpt lat="40.164267" lon="-5.245717">
        <ele>1182.0</ele>
        <time>2013-06-30T13:43:49Z</time>
      </trkpt>
      <trkpt lat="40.164200" lon="-5.245700">
        <ele>1181.0</ele>
        <time>2013-06-30T13:43:50Z</time>
      </trkpt>
      <trkpt lat="40.164133" lon="-5.245667">
        <ele>1181.0</ele>
        <time>2013-06-30T13:43:51Z</time>
      </trkpt>
      <trkpt lat="40.164067" lon="-5.245617">
        <ele>1182.0</ele>
        <time>2013-06-30T13:43:52Z</time>
      </trkpt>
      <trkpt lat="40.164033" lon="-5.245583">
        <ele>1183.0</ele>
        <time>2013-06-30T13:43:53Z</time>
      </trkpt>
      <trkpt lat="40.164000" lon="-5.245550">
        <ele>1184.0</ele>
        <time>2013-06-30T13:43:54Z</time>
      </trkpt>
      <trkpt lat="40.163967" lon="-5.245517">
        <ele>1185.0</ele>
        <time>2013-06-30T13:43:55Z</time>
      </trkpt>
      <trkpt lat="40.163950" lon="-5.245467">
        <ele>1185.0</ele>
        <time>2013-06-30T13:43:56Z</time>
      </trkpt>
      <trkpt lat="40.163917" lon="-5.245400">
        <ele>1185.0</ele>
        <time>2013-06-30T13:43:57Z</time>
      </trkpt>
      <trkpt lat="40.163917" lon="-5.245333">
        <ele>1184.0</ele>
        <time>2013-06-30T13:43:58Z</time>
      </trkpt>
      <trkpt lat="40.163917" lon="-5.245267">
        <ele>1183.0</ele>
        <time>2013-06-30T13:43:59Z</time>
      </trkpt>
      <trkpt lat="40.163950" lon="-5.245183">
        <ele>1183.0</ele>
        <time>2013-06-30T13:44:00Z</time>
      </trkpt>
      <trkpt lat="40.163967" lon="-5.245133">
        <ele>1183.0</ele>
        <time>2013-06-30T13:44:01Z</time>
      </trkpt>
      <trkpt lat="40.164017" lon="-5.245067">
        <ele>1183.0</ele>
        <time>2013-06-30T13:44:02Z</time>
      </trkpt>
      <trkpt lat="40.164083" lon="-5.245050">
        <ele>1183.0</ele>
        <time>2013-06-30T13:44:03Z</time>
      </trkpt>
      <trkpt lat="40.164133" lon="-5.245033">
        <ele>1184.0</ele>
        <time>2013-06-30T13:44:04Z</time>
      </trkpt>
      <trkpt lat="40.164200" lon="-5.245017">
        <ele>1184.0</ele>
        <time>2013-06-30T13:44:05Z</time>
      </trkpt>
      <trkpt lat="40.164267" lon="-5.245000">
        <ele>1184.0</ele>
        <time>2013-06-30T13:44:06Z</time>
      </trkpt>
      <trkpt lat="40.164333" lon="-5.245000">
        <ele>1184.0</ele>
        <time>2013-06-30T13:44:07Z</time>
      </trkpt>
      <trkpt lat="40.164400" lon="-5.245000">
        <ele>1185.0</ele>
        <time>2013-06-30T13:44:08Z</time>
      </trkpt>
      <trkpt lat="40.164483" lon="-5.245017">
        <ele>1186.0</ele>
        <time>2013-06-30T13:44:09Z</time>
      </trkpt>
      <trkpt lat="40.164550" lon="-5.245033">
        <ele>1187.0</ele>
        <time>2013-06-30T13:44:10Z</time>
      </trkpt>
      <trkpt lat="40.164633" lon="-5.245067">
        <ele>1188.0</ele>
        <time>2013-06-30T13:44:11Z</time>
      </trkpt>
      <trkpt lat="40.164700" lon="-5.245100">
        <ele>1189.0</ele>
        <time>2013-06-30T13:44:12Z</time>
      </trkpt>
      <trkpt lat="40.164767" lon="-5.245133">
        <ele>1190.0</ele>
        <time>2013-06-30T13:44:13Z</time>
      </trkpt>
      <trkpt lat="40.164850" lon="-5.245183">
        <ele>1191.0</ele>
        <time>2013-06-30T13:44:14Z</time>
      </trkpt>
      <trkpt lat="40.164917" lon="-5.245233">
        <ele>1192.0</ele>
        <time>2013-06-30T13:44:15Z</time>
      </trkpt>
      <trkpt lat="40.164983" lon="-5.245283">
        <ele>1193.0</ele>
        <time>2013-06-30T13:44:16Z</time>
      </trkpt>
      <trkpt lat="40.165050" lon="-5.245333">
        <ele>1195.0</ele>
        <time>2013-06-30T13:44:17Z</time>
      </trkpt>
      <trkpt lat="40.165117" lon="-5.245400">
        <ele>1197.0</ele>
        <time>2013-06-30T13:44:18Z</time>
      </trkpt>
      <trkpt lat="40.165150" lon="-5.245467">
        <ele>1199.0</ele>
        <time>2013-06-30T13:44:19Z</time>
      </trkpt>
      <trkpt lat="40.165200" lon="-5.245533">
        <ele>1200.0</ele>
        <time>2013-06-30T13:44:20Z</time>
      </trkpt>
      <trkpt lat="40.165250" lon="-5.245633">
        <ele>1202.0</ele>
        <time>2013-06-30T13:44:21Z</time>
      </trkpt>
      <trkpt lat="40.165283" lon="-5.245717">
        <ele>1203.0</ele>
        <time>2013-06-30T13:44:22Z</time>
      </trkpt>
      <trkpt lat="40.165317" lon="-5.245800">
        <ele>1205.0</ele>
        <time>2013-06-30T13:44:23Z</time>
      </trkpt>
      <trkpt lat="40.165350" lon="-5.245867">
        <ele>1206.0</ele>
        <time>2013-06-30T13:44:24Z</time>
      </trkpt>
      <trkpt lat="40.165383" lon="-5.245950">
        <ele>1207.0</ele>
        <time>2013-06-30T13:44:25Z</time>
      </trkpt>
      <trkpt lat="40.165400" lon="-5.246050">
        <ele>1207.0</ele>
        <time>2013-06-30T13:44:26Z</time>
      </trkpt>
      <trkpt lat="40.165400" lon="-5.246167">
        <ele>1207.0</ele>
        <time>2013-06-30T13:44:27Z</time>
      </trkpt>
      <trkpt lat="40.165383" lon="-5.246267">
        <ele>1206.0</ele>
        <time>2013-06-30T13:44:28Z</time>
      </trkpt>
      <trkpt lat="40.165350" lon="-5.246350">
        <ele>1205.0</ele>
        <time>2013-06-30T13:44:29Z</time>
      </trkpt>
      <trkpt lat="40.165317" lon="-5.246433">
        <ele>1204.0</ele>
        <time>2013-06-30T13:44:30Z</time>
      </trkpt>
      <trkpt lat="40.165267" lon="-5.246500">
        <ele>1203.0</ele>
        <time>2013-06-30T13:44:31Z</time>
      </trkpt>
      <trkpt lat="40.165217" lon="-5.246567">
        <ele>1200.0</ele>
        <time>2013-06-30T13:44:32Z</time>
      </trkpt>
      <trkpt lat="40.165133" lon="-5.246633">
        <ele>1198.0</ele>
        <time>2013-06-30T13:44:33Z</time>
      </trkpt>
      <trkpt lat="40.165067" lon="-5.246700">
        <ele>1197.0</ele>
        <time>2013-06-30T13:44:34Z</time>
      </trkpt>
      <trkpt lat="40.164983" lon="-5.246733">
        <ele>1196.0</ele>
        <time>2013-06-30T13:44:35Z</time>
      </trkpt>
      <trkpt lat="40.164900" lon="-5.246783">
        <ele>1195.0</ele>
        <time>2013-06-30T13:44:36Z</time>
      </trkpt>
      <trkpt lat="40.164817" lon="-5.246817">
        <ele>1196.0</ele>
        <time>2013-06-30T13:44:37Z</time>
      </trkpt>
      <trkpt lat="40.164733" lon="-5.246867">
        <ele>1198.0</ele>
        <time>2013-06-30T13:44:38Z</time>
      </trkpt>
      <trkpt lat="40.164667" lon="-5.246917">
        <ele>1200.0</ele>
        <time>2013-06-30T13:44:39Z</time>
      </trkpt>
      <trkpt lat="40.164600" lon="-5.246967">
        <ele>1202.0</ele>
        <time>2013-06-30T13:44:40Z</time>
      </trkpt>
      <trkpt lat="40.164550" lon="-5.247017">
        <ele>1203.0</ele>
        <time>2013-06-30T13:44:41Z</time>
      </trkpt>
      <trkpt lat="40.164517" lon="-5.247083">
        <ele>1204.0</ele>
        <time>2013-06-30T13:44:42Z</time>
      </trkpt>
      <trkpt lat="40.164467" lon="-5.247167">
        <ele>1205.0</ele>
        <time>2013-06-30T13:44:43Z</time>
      </trkpt>
      <trkpt lat="40.164400" lon="-5.247233">
        <ele>1205.0</ele>
        <time>2013-06-30T13:44:44Z</time>
      </trkpt>
      <trkpt lat="40.164333" lon="-5.247300">
        <ele>1205.0</ele>
        <time>2013-06-30T13:44:45Z</time>
      </trkpt>
      <trkpt lat="40.164250" lon="-5.247333">
        <ele>1205.0</ele>
        <time>2013-06-30T13:44:46Z</time>
      </trkpt>
      <trkpt lat="40.164183" lon="-5.247333">
        <ele>1203.0</ele>
        <time>2013-06-30T13:44:47Z</time>
      </trkpt>
      <trkpt lat="40.164133" lon="-5.247317">
        <ele>1201.0</ele>
        <time>2013-06-30T13:44:48Z</time>
      </trkpt>
      <trkpt lat="40.164083" lon="-5.247267">
        <ele>1199.0</ele>
        <time>2013-06-30T13:44:49Z</time>
      </trkpt>
      <trkpt lat="40.164017" lon="-5.247183">
        <ele>1198.0</ele>
        <time>2013-06-30T13:44:50Z</time>
      </trkpt>
      <trkpt lat="40.163967" lon="-5.247117">
        <ele>1197.0</ele>
        <time>2013-06-30T13:44:51Z</time>
      </trkpt>
      <trkpt lat="40.163933" lon="-5.247033">
        <ele>1199.0</ele>
        <time>2013-06-30T13:44:52Z</time>
      </trkpt>
      <trkpt lat="40.163900" lon="-5.246967">
        <ele>1201.0</ele>
        <time>2013-06-30T13:44:53Z</time>
      </trkpt>
      <trkpt lat="40.163900" lon="-5.246917">
        <ele>1203.0</ele>
        <time>2013-06-30T13:44:54Z</time>
      </trkpt>
      <trkpt lat="40.163917" lon="-5.246883">
        <ele>1204.0</ele>
        <time>2013-06-30T13:44:55Z</time>
      </trkpt>
      <trkpt lat="40.163950" lon="-5.246850">
        <ele>1204.0</ele>
        <time>2013-06-30T13:44:56Z</time>
      </trkpt>
      <trkpt lat="40.163983" lon="-5.246800">
        <ele>1204.0</ele>
        <time>2013-06-30T13:44:57Z</time>
      </trkpt>
      <trkpt lat="40.164050" lon="-5.246733">
        <ele>1205.0</ele>
        <time>2013-06-30T13:44:58Z</time>
      </trkpt>
      <trkpt lat="40.164117" lon="-5.246700">
        <ele>1205.0</ele>
        <time>2013-06-30T13:44:59Z</time>
      </trkpt>
      <trkpt lat="40.164183" lon="-5.246700">
        <ele>1206.0</ele>
        <time>2013-06-30T13:45:00Z</time>
      </trkpt>
      <trkpt lat="40.164267" lon="-5.246733">
        <ele>1206.0</ele>
        <time>2013-06-30T13:45:01Z</time>
      </trkpt>
      <trkpt lat="40.164350" lon="-5.246783">
        <ele>1207.0</ele>
        <time>2013-06-30T13:45:02Z</time>
      </trkpt>
      <trkpt lat="40.164433" lon="-5.246883">
        <ele>1207.0</ele>
        <time>2013-06-30T13:45:03Z</time>
      </trkpt>
      <trkpt lat="40.164483" lon="-5.246983">
        <ele>1208.0</ele>
        <time>2013-06-30T13:45:04Z</time>
      </trkpt>
      <trkpt lat="40.164533" lon="-5.247100">
        <ele>1208.0</ele>
        <time>2013-06-30T13:45:05Z</time>
      </trkpt>
      <trkpt lat="40.164550" lon="-5.247233">
        <ele>1209.0</ele>
        <time>2013-06-30T13:45:06Z</time>
      </trkpt>
      <trkpt lat="40.164533" lon="-5.247367">
        <ele>1210.0</ele>
        <time>2013-06-30T13:45:07Z</time>
      </trkpt>
      <trkpt lat="40.164500" lon="-5.247450">
        <ele>1210.0</ele>
        <time>2013-06-30T13:45:08Z</time>
      </trkpt>
      <trkpt lat="40.164450" lon="-5.247533">
        <ele>1209.0</ele>
        <time>2013-06-30T13:45:09Z</time>
      </trkpt>
      <trkpt lat="40.164383" lon="-5.247567">
        <ele>1208.0</ele>
        <time>2013-06-30T13:45:10Z</time>
      </trkpt>
      <trkpt lat="40.164317" lon="-5.247583">
        <ele>1208.0</ele>
        <time>2013-06-30T13:45:11Z</time>
      </trkpt>
      <trkpt lat="40.164250" lon="-5.247583">
        <ele>1209.0</ele>
        <time>2013-06-30T13:45:12Z</time>
      </trkpt>
      <trkpt lat="40.164200" lon="-5.247550">
        <ele>1210.0</ele>
        <time>2013-06-30T13:45:13Z</time>
      </trkpt>
      <trkpt lat="40.164183" lon="-5.247483">
        <ele>1211.0</ele>
        <time>2013-06-30T13:45:14Z</time>
      </trkpt>
      <trkpt lat="40.164167" lon="-5.247433">
        <ele>1212.0</ele>
        <time>2013-06-30T13:45:15Z</time>
      </trkpt>
      <trkpt lat="40.164167" lon="-5.247367">
        <ele>1213.0</ele>
        <time>2013-06-30T13:45:16Z</time>
      </trkpt>
      <trkpt lat="40.164183" lon="-5.247317">
        <ele>1213.0</ele>
        <time>2013-06-30T13:45:17Z</time>
      </trkpt>
      <trkpt lat="40.164217" lon="-5.247250">
        <ele>1213.0</ele>
        <time>2013-06-30T13:45:18Z</time>
      </trkpt>
      <trkpt lat="40.164300" lon="-5.247200">
        <ele>1212.0</ele>
        <time>2013-06-30T13:45:19Z</time>
      </trkpt>
      <trkpt lat="40.164383" lon="-5.247183">
        <ele>1213.0</ele>
        <time>2013-06-30T13:45:20Z</time>
      </trkpt>
      <trkpt lat="40.164483" lon="-5.247200">
        <ele>1213.0</ele>
        <time>2013-06-30T13:45:21Z</time>
      </trkpt>
      <trkpt lat="40.164567" lon="-5.247233">
        <ele>1215.0</ele>
        <time>2013-06-30T13:45:22Z</time>
      </trkpt>
      <trkpt lat="40.164650" lon="-5.247283">
        <ele>1216.0</ele>
        <time>2013-06-30T13:45:23Z</time>
      </trkpt>
      <trkpt lat="40.164733" lon="-5.247333">
        <ele>1218.0</ele>
        <time>2013-06-30T13:45:24Z</time>
      </trkpt>
      <trkpt lat="40.164817" lon="-5.247400">
        <ele>1220.0</ele>
        <time>2013-06-30T13:45:25Z</time>
      </trkpt>
      <trkpt lat="40.164900" lon="-5.247483">
        <ele>1221.0</ele>
        <time>2013-06-30T13:45:26Z</time>
      </trkpt>
      <trkpt lat="40.164950" lon="-5.247583">
        <ele>1221.0</ele>
        <time>2013-06-30T13:45:27Z</time>
      </trkpt>
      <trkpt lat="40.164967" lon="-5.247700">
        <ele>1222.0</ele>
        <time>2013-06-30T13:45:28Z</time>
      </trkpt>
      <trkpt lat="40.164983" lon="-5.247833">
        <ele>1222.0</ele>
        <time>2013-06-30T13:45:29Z</time>
      </trkpt>
      <trkpt lat="40.164967" lon="-5.247967">
        <ele>1223.0</ele>
        <time>2013-06-30T13:45:30Z</time>
      </trkpt>
      <trkpt lat="40.164950" lon="-5.248083">
        <ele>1224.0</ele>
        <time>2013-06-30T13:45:31Z</time>
      </trkpt>
      <trkpt lat="40.164933" lon="-5.248183">
        <ele>1224.0</ele>
        <time>2013-06-30T13:45:32Z</time>
      </trkpt>
      <trkpt lat="40.164900" lon="-5.248250">
        <ele>1222.0</ele>
        <time>2013-06-30T13:45:33Z</time>
      </trkpt>
      <trkpt lat="40.164850" lon="-5.248317">
        <ele>1220.0</ele>
        <time>2013-06-30T13:45:34Z</time>
      </trkpt>
      <trkpt lat="40.164783" lon="-5.248350">
        <ele>1218.0</ele>
        <time>2013-06-30T13:45:35Z</time>
      </trkpt>
      <trkpt lat="40.164717" lon="-5.248333">
        <ele>1216.0</ele>
        <time>2013-06-30T13:45:36Z</time>
      </trkpt>
      <trkpt lat="40.164650" lon="-5.248267">
        <ele>1214.0</ele>
        <time>2013-06-30T13:45:37Z</time>
      </trkpt>
      <trkpt lat="40.164633" lon="-5.248183">
        <ele>1214.0</ele>
        <time>2013-06-30T13:45:38Z</time>
      </trkpt>
      <trkpt lat="40.164633" lon="-5.248100">
        <ele>1215.0</ele>
        <time>2013-06-30T13:45:39Z</time>
      </trkpt>
      <trkpt lat="40.164667" lon="-5.248017">
        <ele>1216.0</ele>
        <time>2013-06-30T13:45:40Z</time>
      </trkpt>
      <trkpt lat="40.164700" lon="-5.247950">
        <ele>1216.0</ele>
        <time>2013-06-30T13:45:41Z</time>
      </trkpt>
      <trkpt lat="40.164767" lon="-5.247883">
        <ele>1216.0</ele>
        <time>2013-06-30T13:45:42Z</time>
      </trkpt>
      <trkpt lat="40.164833" lon="-5.247833">
        <ele>1215.0</ele>
        <time>2013-06-30T13:45:43Z</time>
      </trkpt>
      <trkpt lat="40.164917" lon="-5.247800">
        <ele>1215.0</ele>
        <time>2013-06-30T13:45:44Z</time>
      </trkpt>
      <trkpt lat="40.165017" lon="-5.247800">
        <ele>1214.0</ele>
        <time>2013-06-30T13:45:45Z</time>
      </trkpt>
      <trkpt lat="40.165133" lon="-5.247800">
        <ele>1215.0</ele>
        <time>2013-06-30T13:45:46Z</time>
      </trkpt>
      <trkpt lat="40.165233" lon="-5.247817">
        <ele>1217.0</ele>
        <time>2013-06-30T13:45:47Z</time>
      </trkpt>
      <trkpt lat="40.165317" lon="-5.247850">
        <ele>1220.0</ele>
        <time>2013-06-30T13:45:48Z</time>
      </trkpt>
      <trkpt lat="40.165400" lon="-5.247917">
        <ele>1222.0</ele>
        <time>2013-06-30T13:45:49Z</time>
      </trkpt>
      <trkpt lat="40.165483" lon="-5.248000">
        <ele>1224.0</ele>
        <time>2013-06-30T13:45:50Z</time>
      </trkpt>
      <trkpt lat="40.165550" lon="-5.248100">
        <ele>1225.0</ele>
        <time>2013-06-30T13:45:51Z</time>
      </trkpt>
      <trkpt lat="40.165600" lon="-5.248217">
        <ele>1227.0</ele>
        <time>2013-06-30T13:45:52Z</time>
      </trkpt>
      <trkpt lat="40.165650" lon="-5.248333">
        <ele>1229.0</ele>
        <time>2013-06-30T13:45:53Z</time>
      </trkpt>
      <trkpt lat="40.165667" lon="-5.248467">
        <ele>1231.0</ele>
        <time>2013-06-30T13:45:54Z</time>
      </trkpt>
      <trkpt lat="40.165667" lon="-5.248583">
        <ele>1233.0</ele>
        <time>2013-06-30T13:45:55Z</time>
      </trkpt>
      <trkpt lat="40.165650" lon="-5.248700">
        <ele>1234.0</ele>
        <time>2013-06-30T13:45:56Z</time>
      </trkpt>
      <trkpt lat="40.165617" lon="-5.248783">
        <ele>1233.0</ele>
        <time>2013-06-30T13:45:57Z</time>
      </trkpt>
      <trkpt lat="40.165567" lon="-5.248833">
        <ele>1231.0</ele>
        <time>2013-06-30T13:45:58Z</time>
      </trkpt>
      <trkpt lat="40.165500" lon="-5.248867">
        <ele>1228.0</ele>
        <time>2013-06-30T13:45:59Z</time>
      </trkpt>
      <trkpt lat="40.165433" lon="-5.248883">
        <ele>1227.0</ele>
        <time>2013-06-30T13:46:00Z</time>
      </trkpt>
      <trkpt lat="40.165383" lon="-5.248867">
        <ele>1226.0</ele>
        <time>2013-06-30T13:46:01Z</time>
      </trkpt>
      <trkpt lat="40.165350" lon="-5.248833">
        <ele>1225.0</ele>
        <time>2013-06-30T13:46:02Z</time>
      </trkpt>
      <trkpt lat="40.165333" lon="-5.248750">
        <ele>1223.0</ele>
        <time>2013-06-30T13:46:03Z</time>
      </trkpt>
      <trkpt lat="40.165333" lon="-5.248683">
        <ele>1222.0</ele>
        <time>2013-06-30T13:46:04Z</time>
      </trkpt>
      <trkpt lat="40.165350" lon="-5.248583">
        <ele>1220.0</ele>
        <time>2013-06-30T13:46:05Z</time>
      </trkpt>
      <trkpt lat="40.165383" lon="-5.248483">
        <ele>1219.0</ele>
        <time>2013-06-30T13:46:06Z</time>
      </trkpt>
      <trkpt lat="40.165450" lon="-5.248383">
        <ele>1219.0</ele>
        <time>2013-06-30T13:46:07Z</time>
      </trkpt>
      <trkpt lat="40.165533" lon="-5.248300">
        <ele>1218.0</ele>
        <time>2013-06-30T13:46:08Z</time>
      </trkpt>
      <trkpt lat="40.165633" lon="-5.248233">
        <ele>1218.0</ele>
        <time>2013-06-30T13:46:09Z</time>
      </trkpt>
      <trkpt lat="40.165733" lon="-5.248167">
        <ele>1218.0</ele>
        <time>2013-06-30T13:46:10Z</time>
      </trkpt>
      <trkpt lat="40.165850" lon="-5.248133">
        <ele>1218.0</ele>
        <time>2013-06-30T13:46:11Z</time>
      </trkpt>
      <trkpt lat="40.165967" lon="-5.248100">
        <ele>1219.0</ele>
        <time>2013-06-30T13:46:12Z</time>
      </trkpt>
      <trkpt lat="40.166083" lon="-5.248117">
        <ele>1219.0</ele>
        <time>2013-06-30T13:46:13Z</time>
      </trkpt>
      <trkpt lat="40.166200" lon="-5.248150">
        <ele>1220.0</ele>
        <time>2013-06-30T13:46:14Z</time>
      </trkpt>
      <trkpt lat="40.166300" lon="-5.248217">
        <ele>1221.0</ele>
        <time>2013-06-30T13:46:15Z</time>
      </trkpt>
      <trkpt lat="40.166383" lon="-5.248300">
        <ele>1223.0</ele>
        <time>2013-06-30T13:46:16Z</time>
      </trkpt>
      <trkpt lat="40.166450" lon="-5.248400">
        <ele>1223.0</ele>
        <time>2013-06-30T13:46:17Z</time>
      </trkpt>
      <trkpt lat="40.166500" lon="-5.248517">
        <ele>1224.0</ele>
        <time>2013-06-30T13:46:18Z</time>
      </trkpt>
      <trkpt lat="40.166550" lon="-5.248617">
        <ele>1225.0</ele>
        <time>2013-06-30T13:46:19Z</time>
      </trkpt>
      <trkpt lat="40.166583" lon="-5.248733">
        <ele>1226.0</ele>
        <time>2013-06-30T13:46:20Z</time>
      </trkpt>
      <trkpt lat="40.166583" lon="-5.248850">
        <ele>1225.0</ele>
        <time>2013-06-30T13:46:21Z</time>
      </trkpt>
      <trkpt lat="40.166600" lon="-5.248950">
        <ele>1225.0</ele>
        <time>2013-06-30T13:46:22Z</time>
      </trkpt>
      <trkpt lat="40.166583" lon="-5.249067">
        <ele>1225.0</ele>
        <time>2013-06-30T13:46:23Z</time>
      </trkpt>
      <trkpt lat="40.166567" lon="-5.249167">
        <ele>1224.0</ele>
        <time>2013-06-30T13:46:24Z</time>
      </trkpt>
      <trkpt lat="40.166550" lon="-5.249250">
        <ele>1224.0</ele>
        <time>2013-06-30T13:46:25Z</time>
      </trkpt>
      <trkpt lat="40.166517" lon="-5.249333">
        <ele>1225.0</ele>
        <time>2013-06-30T13:46:26Z</time>
      </trkpt>
      <trkpt lat="40.166483" lon="-5.249383">
        <ele>1226.0</ele>
        <time>2013-06-30T13:46:27Z</time>
      </trkpt>
      <trkpt lat="40.166467" lon="-5.249417">
        <ele>1227.0</ele>
        <time>2013-06-30T13:46:28Z</time>
      </trkpt>
      <trkpt lat="40.166433" lon="-5.249433">
        <ele>1227.0</ele>
        <time>2013-06-30T13:46:29Z</time>
      </trkpt>
      <trkpt lat="40.166417" lon="-5.249433">
        <ele>1228.0</ele>
        <time>2013-06-30T13:46:30Z</time>
      </trkpt>
      <trkpt lat="40.166400" lon="-5.249417">
        <ele>1226.0</ele>
        <time>2013-06-30T13:46:31Z</time>
      </trkpt>
      <trkpt lat="40.166367" lon="-5.249367">
        <ele>1225.0</ele>
        <time>2013-06-30T13:46:32Z</time>
      </trkpt>
      <trkpt lat="40.166350" lon="-5.249300">
        <ele>1224.0</ele>
        <time>2013-06-30T13:46:33Z</time>
      </trkpt>
      <trkpt lat="40.166350" lon="-5.249217">
        <ele>1223.0</ele>
        <time>2013-06-30T13:46:34Z</time>
      </trkpt>
      <trkpt lat="40.166400" lon="-5.249133">
        <ele>1223.0</ele>
        <time>2013-06-30T13:46:35Z</time>
      </trkpt>
      <trkpt lat="40.166450" lon="-5.249050">
        <ele>1223.0</ele>
        <time>2013-06-30T13:46:36Z</time>
      </trkpt>
      <trkpt lat="40.166500" lon="-5.248967">
        <ele>1224.0</ele>
        <time>2013-06-30T13:46:37Z</time>
      </trkpt>
      <trkpt lat="40.166550" lon="-5.248900">
        <ele>1224.0</ele>
        <time>2013-06-30T13:46:38Z</time>
      </trkpt>
      <trkpt lat="40.166600" lon="-5.248833">
        <ele>1224.0</ele>
        <time>2013-06-30T13:46:39Z</time>
      </trkpt>
      <trkpt lat="40.166667" lon="-5.248783">
        <ele>1224.0</ele>
        <time>2013-06-30T13:46:40Z</time>
      </trkpt>
      <trkpt lat="40.166750" lon="-5.248733">
        <ele>1224.0</ele>
        <time>2013-06-30T13:46:41Z</time>
      </trkpt>
      <trkpt lat="40.166833" lon="-5.248717">
        <ele>1222.0</ele>
        <time>2013-06-30T13:46:42Z</time>
      </trkpt>
      <trkpt lat="40.166950" lon="-5.248717">
        <ele>1221.0</ele>
        <time>2013-06-30T13:46:43Z</time>
      </trkpt>
      <trkpt lat="40.167067" lon="-5.248717">
        <ele>1220.0</ele>
        <time>2013-06-30T13:46:44Z</time>
      </trkpt>
      <trkpt lat="40.167200" lon="-5.248767">
        <ele>1220.0</ele>
        <time>2013-06-30T13:46:45Z</time>
      </trkpt>
      <trkpt lat="40.167300" lon="-5.248833">
        <ele>1220.0</ele>
        <time>2013-06-30T13:46:46Z</time>
      </trkpt>
      <trkpt lat="40.167383" lon="-5.248917">
        <ele>1222.0</ele>
        <time>2013-06-30T13:46:47Z</time>
      </trkpt>
      <trkpt lat="40.167433" lon="-5.249017">
        <ele>1222.0</ele>
        <time>2013-06-30T13:46:48Z</time>
      </trkpt>
      <trkpt lat="40.167483" lon="-5.249100">
        <ele>1223.0</ele>
        <time>2013-06-30T13:46:49Z</time>
      </trkpt>
      <trkpt lat="40.167533" lon="-5.249200">
        <ele>1223.0</ele>
        <time>2013-06-30T13:46:50Z</time>
      </trkpt>
      <trkpt lat="40.167583" lon="-5.249317">
        <ele>1222.0</ele>
        <time>2013-06-30T13:46:51Z</time>
      </trkpt>
      <trkpt lat="40.167633" lon="-5.249450">
        <ele>1222.0</ele>
        <time>2013-06-30T13:46:52Z</time>
      </trkpt>
      <trkpt lat="40.167683" lon="-5.249583">
        <ele>1222.0</ele>
        <time>2013-06-30T13:46:53Z</time>
      </trkpt>
      <trkpt lat="40.167700" lon="-5.249700">
        <ele>1222.0</ele>
        <time>2013-06-30T13:46:54Z</time>
      </trkpt>
      <trkpt lat="40.167717" lon="-5.249817">
        <ele>1222.0</ele>
        <time>2013-06-30T13:46:55Z</time>
      </trkpt>
      <trkpt lat="40.167717" lon="-5.249933">
        <ele>1220.0</ele>
        <time>2013-06-30T13:46:56Z</time>
      </trkpt>
      <trkpt lat="40.167700" lon="-5.250050">
        <ele>1218.0</ele>
        <time>2013-06-30T13:46:57Z</time>
      </trkpt>
      <trkpt lat="40.167650" lon="-5.250133">
        <ele>1216.0</ele>
        <time>2013-06-30T13:46:58Z</time>
      </trkpt>
      <trkpt lat="40.167583" lon="-5.250217">
        <ele>1215.0</ele>
        <time>2013-06-30T13:46:59Z</time>
      </trkpt>
      <trkpt lat="40.167533" lon="-5.250267">
        <ele>1216.0</ele>
        <time>2013-06-30T13:47:00Z</time>
      </trkpt>
      <trkpt lat="40.167483" lon="-5.250300">
        <ele>1216.0</ele>
        <time>2013-06-30T13:47:01Z</time>
      </trkpt>
      <trkpt lat="40.167450" lon="-5.250317">
        <ele>1217.0</ele>
        <time>2013-06-30T13:47:02Z</time>
      </trkpt>
      <trkpt lat="40.167417" lon="-5.250317">
        <ele>1216.0</ele>
        <time>2013-06-30T13:47:03Z</time>
      </trkpt>
      <trkpt lat="40.167400" lon="-5.250300">
        <ele>1216.0</ele>
        <time>2013-06-30T13:47:04Z</time>
      </trkpt>
      <trkpt lat="40.167367" lon="-5.250283">
        <ele>1215.0</ele>
        <time>2013-06-30T13:47:05Z</time>
      </trkpt>
      <trkpt lat="40.167350" lon="-5.250250">
        <ele>1213.0</ele>
        <time>2013-06-30T13:47:06Z</time>
      </trkpt>
      <trkpt lat="40.167333" lon="-5.250200">
        <ele>1213.0</ele>
        <time>2013-06-30T13:47:07Z</time>
      </trkpt>
      <trkpt lat="40.167333" lon="-5.250133">
        <ele>1211.0</ele>
        <time>2013-06-30T13:47:08Z</time>
      </trkpt>
      <trkpt lat="40.167350" lon="-5.250050">
        <ele>1210.0</ele>
        <time>2013-06-30T13:47:09Z</time>
      </trkpt>
      <trkpt lat="40.167383" lon="-5.249950">
        <ele>1208.0</ele>
        <time>2013-06-30T13:47:10Z</time>
      </trkpt>
      <trkpt lat="40.167450" lon="-5.249867">
        <ele>1207.0</ele>
        <time>2013-06-30T13:47:11Z</time>
      </trkpt>
      <trkpt lat="40.167517" lon="-5.249800">
        <ele>1207.0</ele>
        <time>2013-06-30T13:47:12Z</time>
      </trkpt>
      <trkpt lat="40.167617" lon="-5.249767">
        <ele>1207.0</ele>
        <time>2013-06-30T13:47:13Z</time>
      </trkpt>
      <trkpt lat="40.167717" lon="-5.249783">
        <ele>1206.0</ele>
        <time>2013-06-30T13:47:14Z</time>
      </trkpt>
      <trkpt lat="40.167817" lon="-5.249833">
        <ele>1206.0</ele>
        <time>2013-06-30T13:47:15Z</time>
      </trkpt>
      <trkpt lat="40.167917" lon="-5.249900">
        <ele>1205.0</ele>
        <time>2013-06-30T13:47:16Z</time>
      </trkpt>
      <trkpt lat="40.168000" lon="-5.250000">
        <ele>1205.0</ele>
        <time>2013-06-30T13:47:17Z</time>
      </trkpt>
      <trkpt lat="40.168067" lon="-5.250117">
        <ele>1205.0</ele>
        <time>2013-06-30T13:47:18Z</time>
      </trkpt>
      <trkpt lat="40.168083" lon="-5.250250">
        <ele>1204.0</ele>
        <time>2013-06-30T13:47:19Z</time>
      </trkpt>
      <trkpt lat="40.168083" lon="-5.250383">
        <ele>1203.0</ele>
        <time>2013-06-30T13:47:20Z</time>
      </trkpt>
      <trkpt lat="40.168067" lon="-5.250500">
        <ele>1201.0</ele>
        <time>2013-06-30T13:47:21Z</time>
      </trkpt>
      <trkpt lat="40.168050" lon="-5.250633">
        <ele>1200.0</ele>
        <time>2013-06-30T13:47:22Z</time>
      </trkpt>
      <trkpt lat="40.168033" lon="-5.250783">
        <ele>1199.0</ele>
        <time>2013-06-30T13:47:23Z</time>
      </trkpt>
      <trkpt lat="40.168017" lon="-5.250917">
        <ele>1198.0</ele>
        <time>2013-06-30T13:47:24Z</time>
      </trkpt>
      <trkpt lat="40.168000" lon="-5.251050">
        <ele>1197.0</ele>
        <time>2013-06-30T13:47:25Z</time>
      </trkpt>
      <trkpt lat="40.167967" lon="-5.251183">
        <ele>1196.0</ele>
        <time>2013-06-30T13:47:26Z</time>
      </trkpt>
      <trkpt lat="40.167933" lon="-5.251300">
        <ele>1194.0</ele>
        <time>2013-06-30T13:47:27Z</time>
      </trkpt>
      <trkpt lat="40.167900" lon="-5.251433">
        <ele>1193.0</ele>
        <time>2013-06-30T13:47:28Z</time>
      </trkpt>
      <trkpt lat="40.167883" lon="-5.251567">
        <ele>1194.0</ele>
        <time>2013-06-30T13:47:29Z</time>
      </trkpt>
      <trkpt lat="40.167883" lon="-5.251683">
        <ele>1194.0</ele>
        <time>2013-06-30T13:47:30Z</time>
      </trkpt>
      <trkpt lat="40.167883" lon="-5.251800">
        <ele>1193.0</ele>
        <time>2013-06-30T13:47:31Z</time>
      </trkpt>
      <trkpt lat="40.167900" lon="-5.251933">
        <ele>1191.0</ele>
        <time>2013-06-30T13:47:32Z</time>
      </trkpt>
      <trkpt lat="40.167900" lon="-5.252067">
        <ele>1190.0</ele>
        <time>2013-06-30T13:47:33Z</time>
      </trkpt>
      <trkpt lat="40.167883" lon="-5.252200">
        <ele>1189.0</ele>
        <time>2013-06-30T13:47:34Z</time>
      </trkpt>
      <trkpt lat="40.167850" lon="-5.252333">
        <ele>1188.0</ele>
        <time>2013-06-30T13:47:35Z</time>
      </trkpt>
      <trkpt lat="40.167817" lon="-5.252450">
        <ele>1186.0</ele>
        <time>2013-06-30T13:47:36Z</time>
      </trkpt>
      <trkpt lat="40.167783" lon="-5.252550">
        <ele>1185.0</ele>
        <time>2013-06-30T13:47:37Z</time>
      </trkpt>
      <trkpt lat="40.167733" lon="-5.252650">
        <ele>1184.0</ele>
        <time>2013-06-30T13:47:38Z</time>
      </trkpt>
      <trkpt lat="40.167683" lon="-5.252750">
        <ele>1183.0</ele>
        <time>2013-06-30T13:47:39Z</time>
      </trkpt>
      <trkpt lat="40.167633" lon="-5.252850">
        <ele>1180.0</ele>
        <time>2013-06-30T13:47:40Z</time>
      </trkpt>
      <trkpt lat="40.167567" lon="-5.252950">
        <ele>1177.0</ele>
        <time>2013-06-30T13:47:41Z</time>
      </trkpt>
      <trkpt lat="40.167500" lon="-5.253033">
        <ele>1175.0</ele>
        <time>2013-06-30T13:47:42Z</time>
      </trkpt>
      <trkpt lat="40.167433" lon="-5.253117">
        <ele>1174.0</ele>
        <time>2013-06-30T13:47:43Z</time>
      </trkpt>
      <trkpt lat="40.167367" lon="-5.253183">
        <ele>1173.0</ele>
        <time>2013-06-30T13:47:44Z</time>
      </trkpt>
      <trkpt lat="40.167300" lon="-5.253267">
        <ele>1172.0</ele>
        <time>2013-06-30T13:47:45Z</time>
      </trkpt>
      <trkpt lat="40.167250" lon="-5.253333">
        <ele>1170.0</ele>
        <time>2013-06-30T13:47:46Z</time>
      </trkpt>
      <trkpt lat="40.167183" lon="-5.253417">
        <ele>1167.0</ele>
        <time>2013-06-30T13:47:47Z</time>
      </trkpt>
      <trkpt lat="40.167117" lon="-5.253533">
        <ele>1163.0</ele>
        <time>2013-06-30T13:47:48Z</time>
      </trkpt>
      <trkpt lat="40.167067" lon="-5.253650">
        <ele>1161.0</ele>
        <time>2013-06-30T13:47:49Z</time>
      </trkpt>
      <trkpt lat="40.167033" lon="-5.253750">
        <ele>1161.0</ele>
        <time>2013-06-30T13:47:50Z</time>
      </trkpt>
      <trkpt lat="40.166983" lon="-5.253850">
        <ele>1161.0</ele>
        <time>2013-06-30T13:47:51Z</time>
      </trkpt>
      <trkpt lat="40.166933" lon="-5.253933">
        <ele>1161.0</ele>
        <time>2013-06-30T13:47:52Z</time>
      </trkpt>
      <trkpt lat="40.166883" lon="-5.254033">
        <ele>1161.0</ele>
        <time>2013-06-30T13:47:53Z</time>
      </trkpt>
      <trkpt lat="40.166833" lon="-5.254117">
        <ele>1161.0</ele>
        <time>2013-06-30T13:47:54Z</time>
      </trkpt>
      <trkpt lat="40.166800" lon="-5.254183">
        <ele>1161.0</ele>
        <time>2013-06-30T13:47:55Z</time>
      </trkpt>
      <trkpt lat="40.166767" lon="-5.254233">
        <ele>1160.0</ele>
        <time>2013-06-30T13:47:56Z</time>
      </trkpt>
      <trkpt lat="40.166733" lon="-5.254300">
        <ele>1158.0</ele>
        <time>2013-06-30T13:47:57Z</time>
      </trkpt>
      <trkpt lat="40.166683" lon="-5.254367">
        <ele>1155.0</ele>
        <time>2013-06-30T13:47:58Z</time>
      </trkpt>
      <trkpt lat="40.166633" lon="-5.254450">
        <ele>1154.0</ele>
        <time>2013-06-30T13:47:59Z</time>
      </trkpt>
      <trkpt lat="40.166600" lon="-5.254550">
        <ele>1154.0</ele>
        <time>2013-06-30T13:48:00Z</time>
      </trkpt>
      <trkpt lat="40.166550" lon="-5.254633">
        <ele>1155.0</ele>
        <time>2013-06-30T13:48:01Z</time>
      </trkpt>
      <trkpt lat="40.166533" lon="-5.254717">
        <ele>1155.0</ele>
        <time>2013-06-30T13:48:02Z</time>
      </trkpt>
      <trkpt lat="40.166517" lon="-5.254800">
        <ele>1154.0</ele>
        <time>2013-06-30T13:48:03Z</time>
      </trkpt>
      <trkpt lat="40.166483" lon="-5.254883">
        <ele>1153.0</ele>
        <time>2013-06-30T13:48:04Z</time>
      </trkpt>
      <trkpt lat="40.166450" lon="-5.254967">
        <ele>1151.0</ele>
        <time>2013-06-30T13:48:05Z</time>
      </trkpt>
      <trkpt lat="40.166417" lon="-5.255083">
        <ele>1149.0</ele>
        <time>2013-06-30T13:48:06Z</time>
      </trkpt>
      <trkpt lat="40.166400" lon="-5.255183">
        <ele>1148.0</ele>
        <time>2013-06-30T13:48:07Z</time>
      </trkpt>
      <trkpt lat="40.166367" lon="-5.255267">
        <ele>1147.0</ele>
        <time>2013-06-30T13:48:08Z</time>
      </trkpt>
      <trkpt lat="40.166350" lon="-5.255350">
        <ele>1146.0</ele>
        <time>2013-06-30T13:48:09Z</time>
      </trkpt>
      <trkpt lat="40.166317" lon="-5.255433">
        <ele>1145.0</ele>
        <time>2013-06-30T13:48:10Z</time>
      </trkpt>
      <trkpt lat="40.166283" lon="-5.255500">
        <ele>1143.0</ele>
        <time>2013-06-30T13:48:11Z</time>
      </trkpt>
      <trkpt lat="40.166250" lon="-5.255583">
        <ele>1142.0</ele>
        <time>2013-06-30T13:48:12Z</time>
      </trkpt>
      <trkpt lat="40.166217" lon="-5.255667">
        <ele>1140.0</ele>
        <time>2013-06-30T13:48:13Z</time>
      </trkpt>
      <trkpt lat="40.166183" lon="-5.255733">
        <ele>1139.0</ele>
        <time>2013-06-30T13:48:14Z</time>
      </trkpt>
      <trkpt lat="40.166150" lon="-5.255783">
        <ele>1137.0</ele>
        <time>2013-06-30T13:48:15Z</time>
      </trkpt>
      <trkpt lat="40.166100" lon="-5.255850">
        <ele>1136.0</ele>
        <time>2013-06-30T13:48:16Z</time>
      </trkpt>
      <trkpt lat="40.166050" lon="-5.255900">
        <ele>1134.0</ele>
        <time>2013-06-30T13:48:17Z</time>
      </trkpt>
      <trkpt lat="40.166000" lon="-5.255967">
        <ele>1132.0</ele>
        <time>2013-06-30T13:48:18Z</time>
      </trkpt>
      <trkpt lat="40.165950" lon="-5.256033">
        <ele>1131.0</ele>
        <time>2013-06-30T13:48:19Z</time>
      </trkpt>
      <trkpt lat="40.165917" lon="-5.256100">
        <ele>1129.0</ele>
        <time>2013-06-30T13:48:20Z</time>
      </trkpt>
      <trkpt lat="40.165867" lon="-5.256167">
        <ele>1127.0</ele>
        <time>2013-06-30T13:48:21Z</time>
      </trkpt>
      <trkpt lat="40.165800" lon="-5.256233">
        <ele>1124.0</ele>
        <time>2013-06-30T13:48:22Z</time>
      </trkpt>
      <trkpt lat="40.165750" lon="-5.256300">
        <ele>1123.0</ele>
        <time>2013-06-30T13:48:23Z</time>
      </trkpt>
      <trkpt lat="40.165717" lon="-5.256383">
        <ele>1121.0</ele>
        <time>2013-06-30T13:48:24Z</time>
      </trkpt>
      <trkpt lat="40.165683" lon="-5.256450">
        <ele>1120.0</ele>
        <time>2013-06-30T13:48:25Z</time>
      </trkpt>
      <trkpt lat="40.165633" lon="-5.256500">
        <ele>1117.0</ele>
        <time>2013-06-30T13:48:26Z</time>
      </trkpt>
      <trkpt lat="40.165600" lon="-5.256550">
        <ele>1115.0</ele>
        <time>2013-06-30T13:48:27Z</time>
      </trkpt>
      <trkpt lat="40.165550" lon="-5.256617">
        <ele>1113.0</ele>
        <time>2013-06-30T13:48:28Z</time>
      </trkpt>
      <trkpt lat="40.165500" lon="-5.256683">
        <ele>1111.0</ele>
        <time>2013-06-30T13:48:29Z</time>
      </trkpt>
      <trkpt lat="40.165467" lon="-5.256750">
        <ele>1109.0</ele>
        <time>2013-06-30T13:48:30Z</time>
      </trkpt>
      <trkpt lat="40.165417" lon="-5.256817">
        <ele>1106.0</ele>
        <time>2013-06-30T13:48:31Z</time>
      </trkpt>
      <trkpt lat="40.165383" lon="-5.256900">
        <ele>1102.0</ele>
        <time>2013-06-30T13:48:32Z</time>
      </trkpt>
      <trkpt lat="40.165350" lon="-5.257000">
        <ele>1097.0</ele>
        <time>2013-06-30T13:48:33Z</time>
      </trkpt>
      <trkpt lat="40.165317" lon="-5.257100">
        <ele>1093.0</ele>
        <time>2013-06-30T13:48:34Z</time>
      </trkpt>
      <trkpt lat="40.165267" lon="-5.257183">
        <ele>1090.0</ele>
        <time>2013-06-30T13:48:35Z</time>
      </trkpt>
      <trkpt lat="40.165217" lon="-5.257267">
        <ele>1088.0</ele>
        <time>2013-06-30T13:48:36Z</time>
      </trkpt>
      <trkpt lat="40.165167" lon="-5.257333">
        <ele>1085.0</ele>
        <time>2013-06-30T13:48:37Z</time>
      </trkpt>
      <trkpt lat="40.165133" lon="-5.257417">
        <ele>1082.0</ele>
        <time>2013-06-30T13:48:38Z</time>
      </trkpt>
      <trkpt lat="40.165083" lon="-5.257500">
        <ele>1079.0</ele>
        <time>2013-06-30T13:48:39Z</time>
      </trkpt>
      <trkpt lat="40.165033" lon="-5.257567">
        <ele>1076.0</ele>
        <time>2013-06-30T13:48:40Z</time>
      </trkpt>
      <trkpt lat="40.164967" lon="-5.257633">
        <ele>1074.0</ele>
        <time>2013-06-30T13:48:41Z</time>
      </trkpt>
      <trkpt lat="40.164917" lon="-5.257683">
        <ele>1073.0</ele>
        <time>2013-06-30T13:48:42Z</time>
      </trkpt>
      <trkpt lat="40.164867" lon="-5.257733">
        <ele>1071.0</ele>
        <time>2013-06-30T13:48:43Z</time>
      </trkpt>
      <trkpt lat="40.164817" lon="-5.257783">
        <ele>1068.0</ele>
        <time>2013-06-30T13:48:44Z</time>
      </trkpt>
      <trkpt lat="40.164767" lon="-5.257833">
        <ele>1065.0</ele>
        <time>2013-06-30T13:48:45Z</time>
      </trkpt>
      <trkpt lat="40.164733" lon="-5.257900">
        <ele>1061.0</ele>
        <time>2013-06-30T13:48:46Z</time>
      </trkpt>
      <trkpt lat="40.164683" lon="-5.257983">
        <ele>1058.0</ele>
        <time>2013-06-30T13:48:47Z</time>
      </trkpt>
      <trkpt lat="40.164617" lon="-5.258083">
        <ele>1054.0</ele>
        <time>2013-06-30T13:48:48Z</time>
      </trkpt>
      <trkpt lat="40.164567" lon="-5.258200">
        <ele>1052.0</ele>
        <time>2013-06-30T13:48:49Z</time>
      </trkpt>
      <trkpt lat="40.164517" lon="-5.258300">
        <ele>1050.0</ele>
        <time>2013-06-30T13:48:50Z</time>
      </trkpt>
      <trkpt lat="40.164467" lon="-5.258417">
        <ele>1049.0</ele>
        <time>2013-06-30T13:48:51Z</time>
      </trkpt>
      <trkpt lat="40.164433" lon="-5.258533">
        <ele>1047.0</ele>
        <time>2013-06-30T13:48:52Z</time>
      </trkpt>
      <trkpt lat="40.164383" lon="-5.258667">
        <ele>1044.0</ele>
        <time>2013-06-30T13:48:53Z</time>
      </trkpt>
      <trkpt lat="40.164333" lon="-5.258783">
        <ele>1041.0</ele>
        <time>2013-06-30T13:48:54Z</time>
      </trkpt>
      <trkpt lat="40.164283" lon="-5.258900">
        <ele>1039.0</ele>
        <time>2013-06-30T13:48:55Z</time>
      </trkpt>
      <trkpt lat="40.164233" lon="-5.259017">
        <ele>1038.0</ele>
        <time>2013-06-30T13:48:56Z</time>
      </trkpt>
      <trkpt lat="40.164183" lon="-5.259133">
        <ele>1037.0</ele>
        <time>2013-06-30T13:48:57Z</time>
      </trkpt>
      <trkpt lat="40.164133" lon="-5.259267">
        <ele>1035.0</ele>
        <time>2013-06-30T13:48:58Z</time>
      </trkpt>
      <trkpt lat="40.164100" lon="-5.259383">
        <ele>1035.0</ele>
        <time>2013-06-30T13:48:59Z</time>
      </trkpt>
      <trkpt lat="40.164067" lon="-5.259500">
        <ele>1033.0</ele>
        <time>2013-06-30T13:49:00Z</time>
      </trkpt>
      <trkpt lat="40.164017" lon="-5.259633">
        <ele>1031.0</ele>
        <time>2013-06-30T13:49:01Z</time>
      </trkpt>
      <trkpt lat="40.163983" lon="-5.259767">
        <ele>1029.0</ele>
        <time>2013-06-30T13:49:02Z</time>
      </trkpt>
      <trkpt lat="40.163933" lon="-5.259917">
        <ele>1028.0</ele>
        <time>2013-06-30T13:49:03Z</time>
      </trkpt>
      <trkpt lat="40.163883" lon="-5.260050">
        <ele>1028.0</ele>
        <time>2013-06-30T13:49:04Z</time>
      </trkpt>
      <trkpt lat="40.163850" lon="-5.260183">
        <ele>1027.0</ele>
        <time>2013-06-30T13:49:05Z</time>
      </trkpt>
      <trkpt lat="40.163817" lon="-5.260317">
        <ele>1026.0</ele>
        <time>2013-06-30T13:49:06Z</time>
      </trkpt>
      <trkpt lat="40.163783" lon="-5.260450">
        <ele>1024.0</ele>
        <time>2013-06-30T13:49:07Z</time>
      </trkpt>
      <trkpt lat="40.163750" lon="-5.260600">
        <ele>1022.0</ele>
        <time>2013-06-30T13:49:08Z</time>
      </trkpt>
      <trkpt lat="40.163717" lon="-5.260750">
        <ele>1018.0</ele>
        <time>2013-06-30T13:49:09Z</time>
      </trkpt>
      <trkpt lat="40.163667" lon="-5.260883">
        <ele>1016.0</ele>
        <time>2013-06-30T13:49:10Z</time>
      </trkpt>
      <trkpt lat="40.163617" lon="-5.261017">
        <ele>1013.0</ele>
        <time>2013-06-30T13:49:11Z</time>
      </trkpt>
      <trkpt lat="40.163567" lon="-5.261133">
        <ele>1011.0</ele>
        <time>2013-06-30T13:49:12Z</time>
      </trkpt>
      <trkpt lat="40.163517" lon="-5.261233">
        <ele>1008.0</ele>
        <time>2013-06-30T13:49:13Z</time>
      </trkpt>
      <trkpt lat="40.163467" lon="-5.261350">
        <ele>1005.0</ele>
        <time>2013-06-30T13:49:14Z</time>
      </trkpt>
      <trkpt lat="40.163417" lon="-5.261467">
        <ele>1002.0</ele>
        <time>2013-06-30T13:49:15Z</time>
      </trkpt>
      <trkpt lat="40.163383" lon="-5.261600">
        <ele>1000.0</ele>
        <time>2013-06-30T13:49:16Z</time>
      </trkpt>
      <trkpt lat="40.163350" lon="-5.261700">
        <ele>999.0</ele>
        <time>2013-06-30T13:49:17Z</time>
      </trkpt>
      <trkpt lat="40.163317" lon="-5.261800">
        <ele>997.0</ele>
        <time>2013-06-30T13:49:18Z</time>
      </trkpt>
      <trkpt lat="40.163283" lon="-5.261917">
        <ele>995.0</ele>
        <time>2013-06-30T13:49:19Z</time>
      </trkpt>
      <trkpt lat="40.163233" lon="-5.262033">
        <ele>993.0</ele>
        <time>2013-06-30T13:49:20Z</time>
      </trkpt>
      <trkpt lat="40.163217" lon="-5.262150">
        <ele>993.0</ele>
        <time>2013-06-30T13:49:21Z</time>
      </trkpt>
      <trkpt lat="40.163183" lon="-5.262267">
        <ele>993.0</ele>
        <time>2013-06-30T13:49:22Z</time>
      </trkpt>
      <trkpt lat="40.163150" lon="-5.262350">
        <ele>993.0</ele>
        <time>2013-06-30T13:49:23Z</time>
      </trkpt>
      <trkpt lat="40.163117" lon="-5.262433">
        <ele>992.0</ele>
        <time>2013-06-30T13:49:24Z</time>
      </trkpt>
      <trkpt lat="40.163100" lon="-5.262533">
        <ele>990.0</ele>
        <time>2013-06-30T13:49:25Z</time>
      </trkpt>
      <trkpt lat="40.163083" lon="-5.262650">
        <ele>988.0</ele>
        <time>2013-06-30T13:49:26Z</time>
      </trkpt>
      <trkpt lat="40.163050" lon="-5.262767">
        <ele>987.0</ele>
        <time>2013-06-30T13:49:27Z</time>
      </trkpt>
      <trkpt lat="40.163000" lon="-5.262850">
        <ele>986.0</ele>
        <time>2013-06-30T13:49:28Z</time>
      </trkpt>
      <trkpt lat="40.162967" lon="-5.262933">
        <ele>985.0</ele>
        <time>2013-06-30T13:49:29Z</time>
      </trkpt>
      <trkpt lat="40.162933" lon="-5.263000">
        <ele>983.0</ele>
        <time>2013-06-30T13:49:30Z</time>
      </trkpt>
      <trkpt lat="40.162900" lon="-5.263067">
        <ele>980.0</ele>
        <time>2013-06-30T13:49:31Z</time>
      </trkpt>
      <trkpt lat="40.162867" lon="-5.263167">
        <ele>977.0</ele>
        <time>2013-06-30T13:49:32Z</time>
      </trkpt>
      <trkpt lat="40.162850" lon="-5.263267">
        <ele>974.0</ele>
        <time>2013-06-30T13:49:33Z</time>
      </trkpt>
      <trkpt lat="40.162833" lon="-5.263400">
        <ele>972.0</ele>
        <time>2013-06-30T13:49:34Z</time>
      </trkpt>
      <trkpt lat="40.162833" lon="-5.263500">
        <ele>970.0</ele>
        <time>2013-06-30T13:49:35Z</time>
      </trkpt>
      <trkpt lat="40.162833" lon="-5.263617">
        <ele>968.0</ele>
        <time>2013-06-30T13:49:36Z</time>
      </trkpt>
      <trkpt lat="40.162817" lon="-5.263717">
        <ele>965.0</ele>
        <time>2013-06-30T13:49:37Z</time>
      </trkpt>
      <trkpt lat="40.162800" lon="-5.263833">
        <ele>961.0</ele>
        <time>2013-06-30T13:49:38Z</time>
      </trkpt>
      <trkpt lat="40.162767" lon="-5.263950">
        <ele>958.0</ele>
        <time>2013-06-30T13:49:39Z</time>
      </trkpt>
      <trkpt lat="40.162733" lon="-5.264067">
        <ele>955.0</ele>
        <time>2013-06-30T13:49:40Z</time>
      </trkpt>
      <trkpt lat="40.162700" lon="-5.264183">
        <ele>953.0</ele>
        <time>2013-06-30T13:49:41Z</time>
      </trkpt>
      <trkpt lat="40.162667" lon="-5.264300">
        <ele>952.0</ele>
        <time>2013-06-30T13:49:42Z</time>
      </trkpt>
      <trkpt lat="40.162633" lon="-5.264400">
        <ele>951.0</ele>
        <time>2013-06-30T13:49:43Z</time>
      </trkpt>
      <trkpt lat="40.162617" lon="-5.264500">
        <ele>950.0</ele>
        <time>2013-06-30T13:49:44Z</time>
      </trkpt>
      <trkpt lat="40.162583" lon="-5.264600">
        <ele>948.0</ele>
        <time>2013-06-30T13:49:45Z</time>
      </trkpt>
      <trkpt lat="40.162550" lon="-5.264683">
        <ele>946.0</ele>
        <time>2013-06-30T13:49:46Z</time>
      </trkpt>
      <trkpt lat="40.162500" lon="-5.264783">
        <ele>944.0</ele>
        <time>2013-06-30T13:49:47Z</time>
      </trkpt>
      <trkpt lat="40.162450" lon="-5.264867">
        <ele>944.0</ele>
        <time>2013-06-30T13:49:48Z</time>
      </trkpt>
      <trkpt lat="40.162400" lon="-5.264950">
        <ele>943.0</ele>
        <time>2013-06-30T13:49:49Z</time>
      </trkpt>
      <trkpt lat="40.162350" lon="-5.265017">
        <ele>940.0</ele>
        <time>2013-06-30T13:49:50Z</time>
      </trkpt>
      <trkpt lat="40.162300" lon="-5.265117">
        <ele>938.0</ele>
        <time>2013-06-30T13:49:51Z</time>
      </trkpt>
      <trkpt lat="40.162267" lon="-5.265217">
        <ele>935.0</ele>
        <time>2013-06-30T13:49:52Z</time>
      </trkpt>
      <trkpt lat="40.162200" lon="-5.265317">
        <ele>932.0</ele>
        <time>2013-06-30T13:49:53Z</time>
      </trkpt>
      <trkpt lat="40.162150" lon="-5.265400">
        <ele>930.0</ele>
        <time>2013-06-30T13:49:54Z</time>
      </trkpt>
      <trkpt lat="40.162100" lon="-5.265467">
        <ele>929.0</ele>
        <time>2013-06-30T13:49:55Z</time>
      </trkpt>
      <trkpt lat="40.162050" lon="-5.265533">
        <ele>928.0</ele>
        <time>2013-06-30T13:49:56Z</time>
      </trkpt>
      <trkpt lat="40.162017" lon="-5.265617">
        <ele>927.0</ele>
        <time>2013-06-30T13:49:57Z</time>
      </trkpt>
      <trkpt lat="40.161967" lon="-5.265717">
        <ele>925.0</ele>
        <time>2013-06-30T13:49:58Z</time>
      </trkpt>
      <trkpt lat="40.161933" lon="-5.265817">
        <ele>922.0</ele>
        <time>2013-06-30T13:49:59Z</time>
      </trkpt>
      <trkpt lat="40.161867" lon="-5.265900">
        <ele>920.0</ele>
        <time>2013-06-30T13:50:00Z</time>
      </trkpt>
      <trkpt lat="40.161800" lon="-5.266000">
        <ele>919.0</ele>
        <time>2013-06-30T13:50:01Z</time>
      </trkpt>
      <trkpt lat="40.161750" lon="-5.266100">
        <ele>917.0</ele>
        <time>2013-06-30T13:50:02Z</time>
      </trkpt>
      <trkpt lat="40.161700" lon="-5.266200">
        <ele>915.0</ele>
        <time>2013-06-30T13:50:03Z</time>
      </trkpt>
      <trkpt lat="40.161667" lon="-5.266317">
        <ele>913.0</ele>
        <time>2013-06-30T13:50:04Z</time>
      </trkpt>
      <trkpt lat="40.161633" lon="-5.266433">
        <ele>911.0</ele>
        <time>2013-06-30T13:50:05Z</time>
      </trkpt>
      <trkpt lat="40.161600" lon="-5.266533">
        <ele>908.0</ele>
        <time>2013-06-30T13:50:06Z</time>
      </trkpt>
      <trkpt lat="40.161567" lon="-5.266650">
        <ele>906.0</ele>
        <time>2013-06-30T13:50:07Z</time>
      </trkpt>
      <trkpt lat="40.161533" lon="-5.266767">
        <ele>902.0</ele>
        <time>2013-06-30T13:50:08Z</time>
      </trkpt>
      <trkpt lat="40.161500" lon="-5.266883">
        <ele>899.0</ele>
        <time>2013-06-30T13:50:09Z</time>
      </trkpt>
      <trkpt lat="40.161450" lon="-5.267000">
        <ele>897.0</ele>
        <time>2013-06-30T13:50:10Z</time>
      </trkpt>
      <trkpt lat="40.161417" lon="-5.267117">
        <ele>897.0</ele>
        <time>2013-06-30T13:50:11Z</time>
      </trkpt>
      <trkpt lat="40.161383" lon="-5.267217">
        <ele>895.0</ele>
        <time>2013-06-30T13:50:12Z</time>
      </trkpt>
      <trkpt lat="40.161350" lon="-5.267300">
        <ele>892.0</ele>
        <time>2013-06-30T13:50:13Z</time>
      </trkpt>
      <trkpt lat="40.161283" lon="-5.267417">
        <ele>889.0</ele>
        <time>2013-06-30T13:50:14Z</time>
      </trkpt>
      <trkpt lat="40.161233" lon="-5.267533">
        <ele>886.0</ele>
        <time>2013-06-30T13:50:15Z</time>
      </trkpt>
      <trkpt lat="40.161183" lon="-5.267650">
        <ele>884.0</ele>
        <time>2013-06-30T13:50:16Z</time>
      </trkpt>
      <trkpt lat="40.161150" lon="-5.267783">
        <ele>882.0</ele>
        <time>2013-06-30T13:50:17Z</time>
      </trkpt>
      <trkpt lat="40.161133" lon="-5.267883">
        <ele>881.0</ele>
        <time>2013-06-30T13:50:18Z</time>
      </trkpt>
      <trkpt lat="40.161100" lon="-5.267983">
        <ele>880.0</ele>
        <time>2013-06-30T13:50:19Z</time>
      </trkpt>
      <trkpt lat="40.161067" lon="-5.268083">
        <ele>879.0</ele>
        <time>2013-06-30T13:50:20Z</time>
      </trkpt>
      <trkpt lat="40.161033" lon="-5.268167">
        <ele>877.0</ele>
        <time>2013-06-30T13:50:21Z</time>
      </trkpt>
      <trkpt lat="40.160983" lon="-5.268250">
        <ele>875.0</ele>
        <time>2013-06-30T13:50:22Z</time>
      </trkpt>
      <trkpt lat="40.160950" lon="-5.268350">
        <ele>873.0</ele>
        <time>2013-06-30T13:50:23Z</time>
      </trkpt>
      <trkpt lat="40.160900" lon="-5.268467">
        <ele>872.0</ele>
        <time>2013-06-30T13:50:24Z</time>
      </trkpt>
      <trkpt lat="40.160867" lon="-5.268600">
        <ele>870.0</ele>
        <time>2013-06-30T13:50:25Z</time>
      </trkpt>
      <trkpt lat="40.160833" lon="-5.268717">
        <ele>870.0</ele>
        <time>2013-06-30T13:50:26Z</time>
      </trkpt>
      <trkpt lat="40.160783" lon="-5.268817">
        <ele>869.0</ele>
        <time>2013-06-30T13:50:27Z</time>
      </trkpt>
      <trkpt lat="40.160750" lon="-5.268917">
        <ele>869.0</ele>
        <time>2013-06-30T13:50:28Z</time>
      </trkpt>
      <trkpt lat="40.160700" lon="-5.269017">
        <ele>868.0</ele>
        <time>2013-06-30T13:50:29Z</time>
      </trkpt>
      <trkpt lat="40.160667" lon="-5.269150">
        <ele>867.0</ele>
        <time>2013-06-30T13:50:30Z</time>
      </trkpt>
      <trkpt lat="40.160633" lon="-5.269267">
        <ele>867.0</ele>
        <time>2013-06-30T13:50:31Z</time>
      </trkpt>
      <trkpt lat="40.160600" lon="-5.269383">
        <ele>867.0</ele>
        <time>2013-06-30T13:50:32Z</time>
      </trkpt>
      <trkpt lat="40.160550" lon="-5.269483">
        <ele>867.0</ele>
        <time>2013-06-30T13:50:33Z</time>
      </trkpt>
      <trkpt lat="40.160517" lon="-5.269600">
        <ele>867.0</ele>
        <time>2013-06-30T13:50:34Z</time>
      </trkpt>
      <trkpt lat="40.160467" lon="-5.269733">
        <ele>866.0</ele>
        <time>2013-06-30T13:50:35Z</time>
      </trkpt>
      <trkpt lat="40.160417" lon="-5.269867">
        <ele>866.0</ele>
        <time>2013-06-30T13:50:36Z</time>
      </trkpt>
      <trkpt lat="40.160383" lon="-5.270000">
        <ele>868.0</ele>
        <time>2013-06-30T13:50:37Z</time>
      </trkpt>
      <trkpt lat="40.160367" lon="-5.270133">
        <ele>871.0</ele>
        <time>2013-06-30T13:50:38Z</time>
      </trkpt>
      <trkpt lat="40.160350" lon="-5.270250">
        <ele>874.0</ele>
        <time>2013-06-30T13:50:39Z</time>
      </trkpt>
      <trkpt lat="40.160350" lon="-5.270350">
        <ele>877.0</ele>
        <time>2013-06-30T13:50:40Z</time>
      </trkpt>
      <trkpt lat="40.160333" lon="-5.270433">
        <ele>879.0</ele>
        <time>2013-06-30T13:50:41Z</time>
      </trkpt>
      <trkpt lat="40.160333" lon="-5.270517">
        <ele>879.0</ele>
        <time>2013-06-30T13:50:42Z</time>
      </trkpt>
      <trkpt lat="40.160317" lon="-5.270617">
        <ele>879.0</ele>
        <time>2013-06-30T13:50:43Z</time>
      </trkpt>
      <trkpt lat="40.160300" lon="-5.270717">
        <ele>879.0</ele>
        <time>2013-06-30T13:50:44Z</time>
      </trkpt>
      <trkpt lat="40.160267" lon="-5.270817">
        <ele>879.0</ele>
        <time>2013-06-30T13:50:45Z</time>
      </trkpt>
      <trkpt lat="40.160233" lon="-5.270917">
        <ele>879.0</ele>
        <time>2013-06-30T13:50:46Z</time>
      </trkpt>
      <trkpt lat="40.160183" lon="-5.271000">
        <ele>879.0</ele>
        <time>2013-06-30T13:50:47Z</time>
      </trkpt>
      <trkpt lat="40.160133" lon="-5.271100">
        <ele>880.0</ele>
        <time>2013-06-30T13:50:48Z</time>
      </trkpt>
      <trkpt lat="40.160083" lon="-5.271200">
        <ele>882.0</ele>
        <time>2013-06-30T13:50:49Z</time>
      </trkpt>
      <trkpt lat="40.160067" lon="-5.271300">
        <ele>883.0</ele>
        <time>2013-06-30T13:50:50Z</time>
      </trkpt>
      <trkpt lat="40.160050" lon="-5.271400">
        <ele>884.0</ele>
        <time>2013-06-30T13:50:51Z</time>
      </trkpt>
      <trkpt lat="40.160050" lon="-5.271517">
        <ele>885.0</ele>
        <time>2013-06-30T13:50:52Z</time>
      </trkpt>
      <trkpt lat="40.160050" lon="-5.271633">
        <ele>885.0</ele>
        <time>2013-06-30T13:50:53Z</time>
      </trkpt>
      <trkpt lat="40.160050" lon="-5.271767">
        <ele>885.0</ele>
        <time>2013-06-30T13:50:54Z</time>
      </trkpt>
      <trkpt lat="40.160067" lon="-5.271900">
        <ele>886.0</ele>
        <time>2013-06-30T13:50:55Z</time>
      </trkpt>
      <trkpt lat="40.160100" lon="-5.272033">
        <ele>887.0</ele>
        <time>2013-06-30T13:50:56Z</time>
      </trkpt>
      <trkpt lat="40.160150" lon="-5.272150">
        <ele>889.0</ele>
        <time>2013-06-30T13:50:57Z</time>
      </trkpt>
      <trkpt lat="40.160200" lon="-5.272267">
        <ele>890.0</ele>
        <time>2013-06-30T13:50:58Z</time>
      </trkpt>
      <trkpt lat="40.160250" lon="-5.272367">
        <ele>892.0</ele>
        <time>2013-06-30T13:50:59Z</time>
      </trkpt>
      <trkpt lat="40.160300" lon="-5.272467">
        <ele>893.0</ele>
        <time>2013-06-30T13:51:00Z</time>
      </trkpt>
      <trkpt lat="40.160367" lon="-5.272567">
        <ele>894.0</ele>
        <time>2013-06-30T13:51:01Z</time>
      </trkpt>
      <trkpt lat="40.160433" lon="-5.272667">
        <ele>895.0</ele>
        <time>2013-06-30T13:51:02Z</time>
      </trkpt>
      <trkpt lat="40.160500" lon="-5.272767">
        <ele>896.0</ele>
        <time>2013-06-30T13:51:03Z</time>
      </trkpt>
      <trkpt lat="40.160550" lon="-5.272850">
        <ele>897.0</ele>
        <time>2013-06-30T13:51:04Z</time>
      </trkpt>
      <trkpt lat="40.160600" lon="-5.272950">
        <ele>899.0</ele>
        <time>2013-06-30T13:51:05Z</time>
      </trkpt>
      <trkpt lat="40.160633" lon="-5.273067">
        <ele>901.0</ele>
        <time>2013-06-30T13:51:06Z</time>
      </trkpt>
      <trkpt lat="40.160667" lon="-5.273200">
        <ele>902.0</ele>
        <time>2013-06-30T13:51:07Z</time>
      </trkpt>
      <trkpt lat="40.160683" lon="-5.273317">
        <ele>904.0</ele>
        <time>2013-06-30T13:51:08Z</time>
      </trkpt>
      <trkpt lat="40.160700" lon="-5.273433">
        <ele>906.0</ele>
        <time>2013-06-30T13:51:09Z</time>
      </trkpt>
      <trkpt lat="40.160700" lon="-5.273567">
        <ele>907.0</ele>
        <time>2013-06-30T13:51:10Z</time>
      </trkpt>
      <trkpt lat="40.160700" lon="-5.273717">
        <ele>908.0</ele>
        <time>2013-06-30T13:51:11Z</time>
      </trkpt>
      <trkpt lat="40.160683" lon="-5.273867">
        <ele>909.0</ele>
        <time>2013-06-30T13:51:12Z</time>
      </trkpt>
      <trkpt lat="40.160633" lon="-5.274017">
        <ele>912.0</ele>
        <time>2013-06-30T13:51:13Z</time>
      </trkpt>
      <trkpt lat="40.160600" lon="-5.274133">
        <ele>914.0</ele>
        <time>2013-06-30T13:51:14Z</time>
      </trkpt>
      <trkpt lat="40.160550" lon="-5.274233">
        <ele>916.0</ele>
        <time>2013-06-30T13:51:15Z</time>
      </trkpt>
      <trkpt lat="40.160500" lon="-5.274333">
        <ele>918.0</ele>
        <time>2013-06-30T13:51:16Z</time>
      </trkpt>
      <trkpt lat="40.160467" lon="-5.274417">
        <ele>920.0</ele>
        <time>2013-06-30T13:51:17Z</time>
      </trkpt>
      <trkpt lat="40.160417" lon="-5.274500">
        <ele>922.0</ele>
        <time>2013-06-30T13:51:18Z</time>
      </trkpt>
      <trkpt lat="40.160383" lon="-5.274533">
        <ele>924.0</ele>
        <time>2013-06-30T13:51:19Z</time>
      </trkpt>
      <trkpt lat="40.160333" lon="-5.274550">
        <ele>924.0</ele>
        <time>2013-06-30T13:51:20Z</time>
      </trkpt>
      <trkpt lat="40.160300" lon="-5.274533">
        <ele>925.0</ele>
        <time>2013-06-30T13:51:21Z</time>
      </trkpt>
      <trkpt lat="40.160250" lon="-5.274517">
        <ele>926.0</ele>
        <time>2013-06-30T13:51:22Z</time>
      </trkpt>
      <trkpt lat="40.160217" lon="-5.274483">
        <ele>928.0</ele>
        <time>2013-06-30T13:51:23Z</time>
      </trkpt>
      <trkpt lat="40.160183" lon="-5.274450">
        <ele>931.0</ele>
        <time>2013-06-30T13:51:24Z</time>
      </trkpt>
      <trkpt lat="40.160183" lon="-5.274417">
        <ele>933.0</ele>
        <time>2013-06-30T13:51:25Z</time>
      </trkpt>
      <trkpt lat="40.160200" lon="-5.274367">
        <ele>934.0</ele>
        <time>2013-06-30T13:51:26Z</time>
      </trkpt>
      <trkpt lat="40.160200" lon="-5.274317">
        <ele>936.0</ele>
        <time>2013-06-30T13:51:27Z</time>
      </trkpt>
      <trkpt lat="40.160233" lon="-5.274267">
        <ele>937.0</ele>
        <time>2013-06-30T13:51:28Z</time>
      </trkpt>
      <trkpt lat="40.160267" lon="-5.274200">
        <ele>938.0</ele>
        <time>2013-06-30T13:51:29Z</time>
      </trkpt>
      <trkpt lat="40.160317" lon="-5.274150">
        <ele>939.0</ele>
        <time>2013-06-30T13:51:30Z</time>
      </trkpt>
      <trkpt lat="40.160400" lon="-5.274117">
        <ele>940.0</ele>
        <time>2013-06-30T13:51:31Z</time>
      </trkpt>
      <trkpt lat="40.160467" lon="-5.274117">
        <ele>941.0</ele>
        <time>2013-06-30T13:51:32Z</time>
      </trkpt>
      <trkpt lat="40.160550" lon="-5.274133">
        <ele>943.0</ele>
        <time>2013-06-30T13:51:33Z</time>
      </trkpt>
      <trkpt lat="40.160617" lon="-5.274167">
        <ele>945.0</ele>
        <time>2013-06-30T13:51:34Z</time>
      </trkpt>
      <trkpt lat="40.160683" lon="-5.274200">
        <ele>947.0</ele>
        <time>2013-06-30T13:51:35Z</time>
      </trkpt>
      <trkpt lat="40.160750" lon="-5.274267">
        <ele>948.0</ele>
        <time>2013-06-30T13:51:36Z</time>
      </trkpt>
      <trkpt lat="40.160833" lon="-5.274317">
        <ele>949.0</ele>
        <time>2013-06-30T13:51:37Z</time>
      </trkpt>
      <trkpt lat="40.160900" lon="-5.274400">
        <ele>952.0</ele>
        <time>2013-06-30T13:51:38Z</time>
      </trkpt>
      <trkpt lat="40.160950" lon="-5.274500">
        <ele>954.0</ele>
        <time>2013-06-30T13:51:39Z</time>
      </trkpt>
      <trkpt lat="40.161000" lon="-5.274617">
        <ele>956.0</ele>
        <time>2013-06-30T13:51:40Z</time>
      </trkpt>
      <trkpt lat="40.161017" lon="-5.274733">
        <ele>958.0</ele>
        <time>2013-06-30T13:51:41Z</time>
      </trkpt>
      <trkpt lat="40.161000" lon="-5.274883">
        <ele>959.0</ele>
        <time>2013-06-30T13:51:42Z</time>
      </trkpt>
      <trkpt lat="40.160983" lon="-5.275017">
        <ele>960.0</ele>
        <time>2013-06-30T13:51:43Z</time>
      </trkpt>
      <trkpt lat="40.160933" lon="-5.275150">
        <ele>961.0</ele>
        <time>2013-06-30T13:51:44Z</time>
      </trkpt>
      <trkpt lat="40.160883" lon="-5.275267">
        <ele>963.0</ele>
        <time>2013-06-30T13:51:45Z</time>
      </trkpt>
      <trkpt lat="40.160817" lon="-5.275350">
        <ele>965.0</ele>
        <time>2013-06-30T13:51:46Z</time>
      </trkpt>
      <trkpt lat="40.160767" lon="-5.275417">
        <ele>967.0</ele>
        <time>2013-06-30T13:51:47Z</time>
      </trkpt>
      <trkpt lat="40.160717" lon="-5.275450">
        <ele>969.0</ele>
        <time>2013-06-30T13:51:48Z</time>
      </trkpt>
      <trkpt lat="40.160667" lon="-5.275483">
        <ele>970.0</ele>
        <time>2013-06-30T13:51:49Z</time>
      </trkpt>
      <trkpt lat="40.160617" lon="-5.275500">
        <ele>972.0</ele>
        <time>2013-06-30T13:51:50Z</time>
      </trkpt>
      <trkpt lat="40.160567" lon="-5.275483">
        <ele>974.0</ele>
        <time>2013-06-30T13:51:51Z</time>
      </trkpt>
      <trkpt lat="40.160517" lon="-5.275467">
        <ele>976.0</ele>
        <time>2013-06-30T13:51:52Z</time>
      </trkpt>
      <trkpt lat="40.160500" lon="-5.275417">
        <ele>978.0</ele>
        <time>2013-06-30T13:51:53Z</time>
      </trkpt>
      <trkpt lat="40.160483" lon="-5.275350">
        <ele>980.0</ele>
        <time>2013-06-30T13:51:54Z</time>
      </trkpt>
      <trkpt lat="40.160517" lon="-5.275283">
        <ele>983.0</ele>
        <time>2013-06-30T13:51:55Z</time>
      </trkpt>
      <trkpt lat="40.160550" lon="-5.275233">
        <ele>986.0</ele>
        <time>2013-06-30T13:51:56Z</time>
      </trkpt>
      <trkpt lat="40.160600" lon="-5.275200">
        <ele>989.0</ele>
        <time>2013-06-30T13:51:57Z</time>
      </trkpt>
      <trkpt lat="40.160650" lon="-5.275183">
        <ele>992.0</ele>
        <time>2013-06-30T13:51:58Z</time>
      </trkpt>
      <trkpt lat="40.160717" lon="-5.275200">
        <ele>993.0</ele>
        <time>2013-06-30T13:51:59Z</time>
      </trkpt>
      <trkpt lat="40.160783" lon="-5.275217">
        <ele>994.0</ele>
        <time>2013-06-30T13:52:00Z</time>
      </trkpt>
      <trkpt lat="40.160883" lon="-5.275250">
        <ele>996.0</ele>
        <time>2013-06-30T13:52:01Z</time>
      </trkpt>
      <trkpt lat="40.160967" lon="-5.275317">
        <ele>998.0</ele>
        <time>2013-06-30T13:52:02Z</time>
      </trkpt>
      <trkpt lat="40.161033" lon="-5.275417">
        <ele>1000.0</ele>
        <time>2013-06-30T13:52:03Z</time>
      </trkpt>
      <trkpt lat="40.161067" lon="-5.275533">
        <ele>1003.0</ele>
        <time>2013-06-30T13:52:04Z</time>
      </trkpt>
      <trkpt lat="40.161083" lon="-5.275683">
        <ele>1005.0</ele>
        <time>2013-06-30T13:52:05Z</time>
      </trkpt>
      <trkpt lat="40.161067" lon="-5.275833">
        <ele>1006.0</ele>
        <time>2013-06-30T13:52:06Z</time>
      </trkpt>
      <trkpt lat="40.161050" lon="-5.275983">
        <ele>1008.0</ele>
        <time>2013-06-30T13:52:07Z</time>
      </trkpt>
      <trkpt lat="40.161033" lon="-5.276117">
        <ele>1011.0</ele>
        <time>2013-06-30T13:52:08Z</time>
      </trkpt>
      <trkpt lat="40.161000" lon="-5.276233">
        <ele>1013.0</ele>
        <time>2013-06-30T13:52:09Z</time>
      </trkpt>
      <trkpt lat="40.160950" lon="-5.276350">
        <ele>1014.0</ele>
        <time>2013-06-30T13:52:10Z</time>
      </trkpt>
      <trkpt lat="40.160900" lon="-5.276450">
        <ele>1016.0</ele>
        <time>2013-06-30T13:52:11Z</time>
      </trkpt>
      <trkpt lat="40.160833" lon="-5.276550">
        <ele>1017.0</ele>
        <time>2013-06-30T13:52:12Z</time>
      </trkpt>
      <trkpt lat="40.160767" lon="-5.276617">
        <ele>1019.0</ele>
        <time>2013-06-30T13:52:13Z</time>
      </trkpt>
      <trkpt lat="40.160700" lon="-5.276667">
        <ele>1021.0</ele>
        <time>2013-06-30T13:52:14Z</time>
      </trkpt>
      <trkpt lat="40.160617" lon="-5.276700">
        <ele>1022.0</ele>
        <time>2013-06-30T13:52:15Z</time>
      </trkpt>
      <trkpt lat="40.160550" lon="-5.276700">
        <ele>1024.0</ele>
        <time>2013-06-30T13:52:16Z</time>
      </trkpt>
      <trkpt lat="40.160500" lon="-5.276667">
        <ele>1025.0</ele>
        <time>2013-06-30T13:52:17Z</time>
      </trkpt>
      <trkpt lat="40.160467" lon="-5.276600">
        <ele>1026.0</ele>
        <time>2013-06-30T13:52:18Z</time>
      </trkpt>
      <trkpt lat="40.160467" lon="-5.276517">
        <ele>1027.0</ele>
        <time>2013-06-30T13:52:19Z</time>
      </trkpt>
      <trkpt lat="40.160500" lon="-5.276450">
        <ele>1029.0</ele>
        <time>2013-06-30T13:52:20Z</time>
      </trkpt>
      <trkpt lat="40.160533" lon="-5.276400">
        <ele>1031.0</ele>
        <time>2013-06-30T13:52:21Z</time>
      </trkpt>
      <trkpt lat="40.160600" lon="-5.276383">
        <ele>1034.0</ele>
        <time>2013-06-30T13:52:22Z</time>
      </trkpt>
      <trkpt lat="40.160650" lon="-5.276367">
        <ele>1036.0</ele>
        <time>2013-06-30T13:52:23Z</time>
      </trkpt>
      <trkpt lat="40.160700" lon="-5.276367">
        <ele>1037.0</ele>
        <time>2013-06-30T13:52:24Z</time>
      </trkpt>
      <trkpt lat="40.160783" lon="-5.276367">
        <ele>1039.0</ele>
        <time>2013-06-30T13:52:25Z</time>
      </trkpt>
      <trkpt lat="40.160867" lon="-5.276400">
        <ele>1040.0</ele>
        <time>2013-06-30T13:52:26Z</time>
      </trkpt>
      <trkpt lat="40.160950" lon="-5.276450">
        <ele>1041.0</ele>
        <time>2013-06-30T13:52:27Z</time>
      </trkpt>
      <trkpt lat="40.161017" lon="-5.276533">
        <ele>1043.0</ele>
        <time>2013-06-30T13:52:28Z</time>
      </trkpt>
      <trkpt lat="40.161100" lon="-5.276633">
        <ele>1045.0</ele>
        <time>2013-06-30T13:52:29Z</time>
      </trkpt>
      <trkpt lat="40.161150" lon="-5.276750">
        <ele>1048.0</ele>
        <time>2013-06-30T13:52:30Z</time>
      </trkpt>
      <trkpt lat="40.161200" lon="-5.276867">
        <ele>1050.0</ele>
        <time>2013-06-30T13:52:31Z</time>
      </trkpt>
      <trkpt lat="40.161217" lon="-5.277017">
        <ele>1051.0</ele>
        <time>2013-06-30T13:52:32Z</time>
      </trkpt>
      <trkpt lat="40.161217" lon="-5.277183">
        <ele>1053.0</ele>
        <time>2013-06-30T13:52:33Z</time>
      </trkpt>
      <trkpt lat="40.161200" lon="-5.277333">
        <ele>1055.0</ele>
        <time>2013-06-30T13:52:34Z</time>
      </trkpt>
      <trkpt lat="40.161167" lon="-5.277483">
        <ele>1057.0</ele>
        <time>2013-06-30T13:52:35Z</time>
      </trkpt>
      <trkpt lat="40.161133" lon="-5.277600">
        <ele>1058.0</ele>
        <time>2013-06-30T13:52:36Z</time>
      </trkpt>
      <trkpt lat="40.161067" lon="-5.277700">
        <ele>1060.0</ele>
        <time>2013-06-30T13:52:37Z</time>
      </trkpt>
      <trkpt lat="40.161000" lon="-5.277800">
        <ele>1060.0</ele>
        <time>2013-06-30T13:52:38Z</time>
      </trkpt>
      <trkpt lat="40.160933" lon="-5.277867">
        <ele>1061.0</ele>
        <time>2013-06-30T13:52:39Z</time>
      </trkpt>
      <trkpt lat="40.160850" lon="-5.277933">
        <ele>1061.0</ele>
        <time>2013-06-30T13:52:40Z</time>
      </trkpt>
      <trkpt lat="40.160767" lon="-5.277967">
        <ele>1062.0</ele>
        <time>2013-06-30T13:52:41Z</time>
      </trkpt>
      <trkpt lat="40.160683" lon="-5.277983">
        <ele>1063.0</ele>
        <time>2013-06-30T13:52:42Z</time>
      </trkpt>
      <trkpt lat="40.160633" lon="-5.277967">
        <ele>1064.0</ele>
        <time>2013-06-30T13:52:43Z</time>
      </trkpt>
      <trkpt lat="40.160583" lon="-5.277933">
        <ele>1064.0</ele>
        <time>2013-06-30T13:52:44Z</time>
      </trkpt>
      <trkpt lat="40.160550" lon="-5.277900">
        <ele>1065.0</ele>
        <time>2013-06-30T13:52:45Z</time>
      </trkpt>
      <trkpt lat="40.160533" lon="-5.277833">
        <ele>1065.0</ele>
        <time>2013-06-30T13:52:46Z</time>
      </trkpt>
      <trkpt lat="40.160533" lon="-5.277767">
        <ele>1065.0</ele>
        <time>2013-06-30T13:52:47Z</time>
      </trkpt>
      <trkpt lat="40.160567" lon="-5.277700">
        <ele>1066.0</ele>
        <time>2013-06-30T13:52:48Z</time>
      </trkpt>
      <trkpt lat="40.160583" lon="-5.277650">
        <ele>1067.0</ele>
        <time>2013-06-30T13:52:49Z</time>
      </trkpt>
      <trkpt lat="40.160617" lon="-5.277617">
        <ele>1068.0</ele>
        <time>2013-06-30T13:52:50Z</time>
      </trkpt>
      <trkpt lat="40.160650" lon="-5.277583">
        <ele>1069.0</ele>
        <time>2013-06-30T13:52:51Z</time>
      </trkpt>
      <trkpt lat="40.160700" lon="-5.277567">
        <ele>1070.0</ele>
        <time>2013-06-30T13:52:52Z</time>
      </trkpt>
      <trkpt lat="40.160767" lon="-5.277550">
        <ele>1071.0</ele>
        <time>2013-06-30T13:52:53Z</time>
      </trkpt>
      <trkpt lat="40.160833" lon="-5.277533">
        <ele>1071.0</ele>
        <time>2013-06-30T13:52:54Z</time>
      </trkpt>
      <trkpt lat="40.160900" lon="-5.277550">
        <ele>1072.0</ele>
        <time>2013-06-30T13:52:55Z</time>
      </trkpt>
      <trkpt lat="40.160983" lon="-5.277583">
        <ele>1073.0</ele>
        <time>2013-06-30T13:52:56Z</time>
      </trkpt>
      <trkpt lat="40.161050" lon="-5.277600">
        <ele>1075.0</ele>
        <time>2013-06-30T13:52:57Z</time>
      </trkpt>
      <trkpt lat="40.161117" lon="-5.277650">
        <ele>1076.0</ele>
        <time>2013-06-30T13:52:58Z</time>
      </trkpt>
      <trkpt lat="40.161183" lon="-5.277700">
        <ele>1078.0</ele>
        <time>2013-06-30T13:52:59Z</time>
      </trkpt>
      <trkpt lat="40.161250" lon="-5.277767">
        <ele>1079.0</ele>
        <time>2013-06-30T13:53:00Z</time>
      </trkpt>
      <trkpt lat="40.161317" lon="-5.277850">
        <ele>1081.0</ele>
        <time>2013-06-30T13:53:01Z</time>
      </trkpt>
      <trkpt lat="40.161383" lon="-5.277950">
        <ele>1083.0</ele>
        <time>2013-06-30T13:53:02Z</time>
      </trkpt>
      <trkpt lat="40.161433" lon="-5.278033">
        <ele>1084.0</ele>
        <time>2013-06-30T13:53:03Z</time>
      </trkpt>
      <trkpt lat="40.161500" lon="-5.278133">
        <ele>1085.0</ele>
        <time>2013-06-30T13:53:04Z</time>
      </trkpt>
      <trkpt lat="40.161550" lon="-5.278233">
        <ele>1086.0</ele>
        <time>2013-06-30T13:53:05Z</time>
      </trkpt>
      <trkpt lat="40.161617" lon="-5.278350">
        <ele>1087.0</ele>
        <time>2013-06-30T13:53:06Z</time>
      </trkpt>
      <trkpt lat="40.161650" lon="-5.278467">
        <ele>1088.0</ele>
        <time>2013-06-30T13:53:07Z</time>
      </trkpt>
      <trkpt lat="40.161667" lon="-5.278600">
        <ele>1089.0</ele>
        <time>2013-06-30T13:53:08Z</time>
      </trkpt>
      <trkpt lat="40.161650" lon="-5.278733">
        <ele>1090.0</ele>
        <time>2013-06-30T13:53:09Z</time>
      </trkpt>
      <trkpt lat="40.161617" lon="-5.278867">
        <ele>1089.0</ele>
        <time>2013-06-30T13:53:10Z</time>
      </trkpt>
      <trkpt lat="40.161583" lon="-5.278983">
        <ele>1088.0</ele>
        <time>2013-06-30T13:53:11Z</time>
      </trkpt>
      <trkpt lat="40.161533" lon="-5.279117">
        <ele>1088.0</ele>
        <time>2013-06-30T13:53:12Z</time>
      </trkpt>
      <trkpt lat="40.161467" lon="-5.279200">
        <ele>1087.0</ele>
        <time>2013-06-30T13:53:13Z</time>
      </trkpt>
      <trkpt lat="40.161383" lon="-5.279250">
        <ele>1085.0</ele>
        <time>2013-06-30T13:53:14Z</time>
      </trkpt>
      <trkpt lat="40.161300" lon="-5.279250">
        <ele>1083.0</ele>
        <time>2013-06-30T13:53:15Z</time>
      </trkpt>
      <trkpt lat="40.161217" lon="-5.279217">
        <ele>1083.0</ele>
        <time>2013-06-30T13:53:16Z</time>
      </trkpt>
      <trkpt lat="40.161150" lon="-5.279183">
        <ele>1084.0</ele>
        <time>2013-06-30T13:53:17Z</time>
      </trkpt>
      <trkpt lat="40.161100" lon="-5.279150">
        <ele>1084.0</ele>
        <time>2013-06-30T13:53:18Z</time>
      </trkpt>
      <trkpt lat="40.161050" lon="-5.279117">
        <ele>1084.0</ele>
        <time>2013-06-30T13:53:19Z</time>
      </trkpt>
      <trkpt lat="40.161000" lon="-5.279067">
        <ele>1083.0</ele>
        <time>2013-06-30T13:53:20Z</time>
      </trkpt>
      <trkpt lat="40.160983" lon="-5.279000">
        <ele>1083.0</ele>
        <time>2013-06-30T13:53:21Z</time>
      </trkpt>
      <trkpt lat="40.160967" lon="-5.278933">
        <ele>1082.0</ele>
        <time>2013-06-30T13:53:22Z</time>
      </trkpt>
      <trkpt lat="40.160967" lon="-5.278850">
        <ele>1083.0</ele>
        <time>2013-06-30T13:53:23Z</time>
      </trkpt>
      <trkpt lat="40.160983" lon="-5.278767">
        <ele>1085.0</ele>
        <time>2013-06-30T13:53:24Z</time>
      </trkpt>
      <trkpt lat="40.161000" lon="-5.278717">
        <ele>1087.0</ele>
        <time>2013-06-30T13:53:25Z</time>
      </trkpt>
      <trkpt lat="40.161050" lon="-5.278700">
        <ele>1089.0</ele>
        <time>2013-06-30T13:53:26Z</time>
      </trkpt>
      <trkpt lat="40.161117" lon="-5.278700">
        <ele>1090.0</ele>
        <time>2013-06-30T13:53:27Z</time>
      </trkpt>
      <trkpt lat="40.161167" lon="-5.278683">
        <ele>1092.0</ele>
        <time>2013-06-30T13:53:28Z</time>
      </trkpt>
      <trkpt lat="40.161233" lon="-5.278683">
        <ele>1094.0</ele>
        <time>2013-06-30T13:53:29Z</time>
      </trkpt>
      <trkpt lat="40.161283" lon="-5.278667">
        <ele>1096.0</ele>
        <time>2013-06-30T13:53:30Z</time>
      </trkpt>
      <trkpt lat="40.161333" lon="-5.278633">
        <ele>1099.0</ele>
        <time>2013-06-30T13:53:31Z</time>
      </trkpt>
      <trkpt lat="40.161367" lon="-5.278600">
        <ele>1101.0</ele>
        <time>2013-06-30T13:53:32Z</time>
      </trkpt>
      <trkpt lat="40.161400" lon="-5.278550">
        <ele>1103.0</ele>
        <time>2013-06-30T13:53:33Z</time>
      </trkpt>
      <trkpt lat="40.161417" lon="-5.278500">
        <ele>1104.0</ele>
        <time>2013-06-30T13:53:34Z</time>
      </trkpt>
      <trkpt lat="40.161400" lon="-5.278450">
        <ele>1106.0</ele>
        <time>2013-06-30T13:53:35Z</time>
      </trkpt>
      <trkpt lat="40.161383" lon="-5.278433">
        <ele>1108.0</ele>
        <time>2013-06-30T13:53:36Z</time>
      </trkpt>
      <trkpt lat="40.161350" lon="-5.278400">
        <ele>1111.0</ele>
        <time>2013-06-30T13:53:37Z</time>
      </trkpt>
      <trkpt lat="40.161317" lon="-5.278400">
        <ele>1113.0</ele>
        <time>2013-06-30T13:53:38Z</time>
      </trkpt>
      <trkpt lat="40.161250" lon="-5.278400">
        <ele>1115.0</ele>
        <time>2013-06-30T13:53:39Z</time>
      </trkpt>
      <trkpt lat="40.161200" lon="-5.278417">
        <ele>1118.0</ele>
        <time>2013-06-30T13:53:40Z</time>
      </trkpt>
      <trkpt lat="40.161133" lon="-5.278417">
        <ele>1120.0</ele>
        <time>2013-06-30T13:53:41Z</time>
      </trkpt>
      <trkpt lat="40.161067" lon="-5.278433">
        <ele>1122.0</ele>
        <time>2013-06-30T13:53:42Z</time>
      </trkpt>
      <trkpt lat="40.161000" lon="-5.278433">
        <ele>1124.0</ele>
        <time>2013-06-30T13:53:43Z</time>
      </trkpt>
      <trkpt lat="40.160933" lon="-5.278467">
        <ele>1125.0</ele>
        <time>2013-06-30T13:53:44Z</time>
      </trkpt>
      <trkpt lat="40.160850" lon="-5.278517">
        <ele>1126.0</ele>
        <time>2013-06-30T13:53:45Z</time>
      </trkpt>
      <trkpt lat="40.160767" lon="-5.278600">
        <ele>1126.0</ele>
        <time>2013-06-30T13:53:46Z</time>
      </trkpt>
      <trkpt lat="40.160717" lon="-5.278717">
        <ele>1126.0</ele>
        <time>2013-06-30T13:53:47Z</time>
      </trkpt>
      <trkpt lat="40.160700" lon="-5.278850">
        <ele>1126.0</ele>
        <time>2013-06-30T13:53:48Z</time>
      </trkpt>
      <trkpt lat="40.160700" lon="-5.278967">
        <ele>1127.0</ele>
        <time>2013-06-30T13:53:49Z</time>
      </trkpt>
      <trkpt lat="40.160700" lon="-5.279083">
        <ele>1127.0</ele>
        <time>2013-06-30T13:53:50Z</time>
      </trkpt>
      <trkpt lat="40.160733" lon="-5.279183">
        <ele>1128.0</ele>
        <time>2013-06-30T13:53:51Z</time>
      </trkpt>
      <trkpt lat="40.160767" lon="-5.279283">
        <ele>1127.0</ele>
        <time>2013-06-30T13:53:52Z</time>
      </trkpt>
      <trkpt lat="40.160833" lon="-5.279367">
        <ele>1127.0</ele>
        <time>2013-06-30T13:53:53Z</time>
      </trkpt>
      <trkpt lat="40.160900" lon="-5.279450">
        <ele>1128.0</ele>
        <time>2013-06-30T13:53:54Z</time>
      </trkpt>
      <trkpt lat="40.160967" lon="-5.279517">
        <ele>1128.0</ele>
        <time>2013-06-30T13:53:55Z</time>
      </trkpt>
      <trkpt lat="40.161033" lon="-5.279533">
        <ele>1129.0</ele>
        <time>2013-06-30T13:53:56Z</time>
      </trkpt>
      <trkpt lat="40.161083" lon="-5.279533">
        <ele>1130.0</ele>
        <time>2013-06-30T13:53:57Z</time>
      </trkpt>
      <trkpt lat="40.161133" lon="-5.279500">
        <ele>1131.0</ele>
        <time>2013-06-30T13:53:58Z</time>
      </trkpt>
      <trkpt lat="40.161167" lon="-5.279467">
        <ele>1132.0</ele>
        <time>2013-06-30T13:53:59Z</time>
      </trkpt>
      <trkpt lat="40.161217" lon="-5.279433">
        <ele>1134.0</ele>
        <time>2013-06-30T13:54:00Z</time>
      </trkpt>
      <trkpt lat="40.161233" lon="-5.279400">
        <ele>1137.0</ele>
        <time>2013-06-30T13:54:01Z</time>
      </trkpt>
      <trkpt lat="40.161250" lon="-5.279367">
        <ele>1139.0</ele>
        <time>2013-06-30T13:54:02Z</time>
      </trkpt>
      <trkpt lat="40.161250" lon="-5.279317">
        <ele>1140.0</ele>
        <time>2013-06-30T13:54:03Z</time>
      </trkpt>
      <trkpt lat="40.161233" lon="-5.279267">
        <ele>1142.0</ele>
        <time>2013-06-30T13:54:04Z</time>
      </trkpt>
      <trkpt lat="40.161217" lon="-5.279233">
        <ele>1143.0</ele>
        <time>2013-06-30T13:54:05Z</time>
      </trkpt>
      <trkpt lat="40.161183" lon="-5.279183">
        <ele>1145.0</ele>
        <time>2013-06-30T13:54:06Z</time>
      </trkpt>
      <trkpt lat="40.161117" lon="-5.279167">
        <ele>1146.0</ele>
        <time>2013-06-30T13:54:07Z</time>
      </trkpt>
      <trkpt lat="40.161050" lon="-5.279167">
        <ele>1147.0</ele>
        <time>2013-06-30T13:54:08Z</time>
      </trkpt>
      <trkpt lat="40.160967" lon="-5.279183">
        <ele>1149.0</ele>
        <time>2013-06-30T13:54:09Z</time>
      </trkpt>
      <trkpt lat="40.160900" lon="-5.279200">
        <ele>1151.0</ele>
        <time>2013-06-30T13:54:10Z</time>
      </trkpt>
      <trkpt lat="40.160850" lon="-5.279217">
        <ele>1153.0</ele>
        <time>2013-06-30T13:54:11Z</time>
      </trkpt>
      <trkpt lat="40.160783" lon="-5.279233">
        <ele>1154.0</ele>
        <time>2013-06-30T13:54:12Z</time>
      </trkpt>
      <trkpt lat="40.160717" lon="-5.279267">
        <ele>1155.0</ele>
        <time>2013-06-30T13:54:13Z</time>
      </trkpt>
      <trkpt lat="40.160650" lon="-5.279317">
        <ele>1155.0</ele>
        <time>2013-06-30T13:54:14Z</time>
      </trkpt>
      <trkpt lat="40.160583" lon="-5.279400">
        <ele>1156.0</ele>
        <time>2013-06-30T13:54:15Z</time>
      </trkpt>
      <trkpt lat="40.160517" lon="-5.279500">
        <ele>1156.0</ele>
        <time>2013-06-30T13:54:16Z</time>
      </trkpt>
      <trkpt lat="40.160483" lon="-5.279617">
        <ele>1156.0</ele>
        <time>2013-06-30T13:54:17Z</time>
      </trkpt>
      <trkpt lat="40.160467" lon="-5.279733">
        <ele>1156.0</ele>
        <time>2013-06-30T13:54:18Z</time>
      </trkpt>
      <trkpt lat="40.160483" lon="-5.279850">
        <ele>1156.0</ele>
        <time>2013-06-30T13:54:19Z</time>
      </trkpt>
      <trkpt lat="40.160517" lon="-5.279950">
        <ele>1156.0</ele>
        <time>2013-06-30T13:54:20Z</time>
      </trkpt>
      <trkpt lat="40.160567" lon="-5.280067">
        <ele>1157.0</ele>
        <time>2013-06-30T13:54:21Z</time>
      </trkpt>
      <trkpt lat="40.160600" lon="-5.280167">
        <ele>1157.0</ele>
        <time>2013-06-30T13:54:22Z</time>
      </trkpt>
      <trkpt lat="40.160650" lon="-5.280250">
        <ele>1158.0</ele>
        <time>2013-06-30T13:54:23Z</time>
      </trkpt>
      <trkpt lat="40.160700" lon="-5.280317">
        <ele>1158.0</ele>
        <time>2013-06-30T13:54:24Z</time>
      </trkpt>
      <trkpt lat="40.160750" lon="-5.280367">
        <ele>1158.0</ele>
        <time>2013-06-30T13:54:25Z</time>
      </trkpt>
      <trkpt lat="40.160817" lon="-5.280400">
        <ele>1158.0</ele>
        <time>2013-06-30T13:54:26Z</time>
      </trkpt>
      <trkpt lat="40.160883" lon="-5.280417">
        <ele>1158.0</ele>
        <time>2013-06-30T13:54:27Z</time>
      </trkpt>
      <trkpt lat="40.160950" lon="-5.280417">
        <ele>1159.0</ele>
        <time>2013-06-30T13:54:28Z</time>
      </trkpt>
      <trkpt lat="40.161000" lon="-5.280383">
        <ele>1160.0</ele>
        <time>2013-06-30T13:54:29Z</time>
      </trkpt>
      <trkpt lat="40.161033" lon="-5.280333">
        <ele>1162.0</ele>
        <time>2013-06-30T13:54:30Z</time>
      </trkpt>
      <trkpt lat="40.161083" lon="-5.280283">
        <ele>1163.0</ele>
        <time>2013-06-30T13:54:31Z</time>
      </trkpt>
      <trkpt lat="40.161117" lon="-5.280233">
        <ele>1165.0</ele>
        <time>2013-06-30T13:54:32Z</time>
      </trkpt>
      <trkpt lat="40.161150" lon="-5.280167">
        <ele>1167.0</ele>
        <time>2013-06-30T13:54:33Z</time>
      </trkpt>
      <trkpt lat="40.161167" lon="-5.280083">
        <ele>1170.0</ele>
        <time>2013-06-30T13:54:34Z</time>
      </trkpt>
      <trkpt lat="40.161183" lon="-5.280000">
        <ele>1173.0</ele>
        <time>2013-06-30T13:54:35Z</time>
      </trkpt>
      <trkpt lat="40.161217" lon="-5.279950">
        <ele>1178.0</ele>
        <time>2013-06-30T13:54:36Z</time>
      </trkpt>
      <trkpt lat="40.161250" lon="-5.279900">
        <ele>1181.0</ele>
        <time>2013-06-30T13:54:37Z</time>
      </trkpt>
      <trkpt lat="40.161283" lon="-5.279867">
        <ele>1184.0</ele>
        <time>2013-06-30T13:54:38Z</time>
      </trkpt>
      <trkpt lat="40.161300" lon="-5.279833">
        <ele>1188.0</ele>
        <time>2013-06-30T13:54:39Z</time>
      </trkpt>
      <trkpt lat="40.161317" lon="-5.279800">
        <ele>1191.0</ele>
        <time>2013-06-30T13:54:40Z</time>
      </trkpt>
      <trkpt lat="40.161317" lon="-5.279750">
        <ele>1195.0</ele>
        <time>2013-06-30T13:54:41Z</time>
      </trkpt>
      <trkpt lat="40.161317" lon="-5.279717">
        <ele>1200.0</ele>
        <time>2013-06-30T13:54:42Z</time>
      </trkpt>
      <trkpt lat="40.161300" lon="-5.279683">
        <ele>1203.0</ele>
        <time>2013-06-30T13:54:43Z</time>
      </trkpt>
      <trkpt lat="40.161300" lon="-5.279650">
        <ele>1207.0</ele>
        <time>2013-06-30T13:54:44Z</time>
      </trkpt>
      <trkpt lat="40.161267" lon="-5.279600">
        <ele>1211.0</ele>
        <time>2013-06-30T13:54:45Z</time>
      </trkpt>
      <trkpt lat="40.161250" lon="-5.279550">
        <ele>1214.0</ele>
        <time>2013-06-30T13:54:46Z</time>
      </trkpt>
      <trkpt lat="40.161200" lon="-5.279517">
        <ele>1218.0</ele>
        <time>2013-06-30T13:54:47Z</time>
      </trkpt>
      <trkpt lat="40.161167" lon="-5.279500">
        <ele>1220.0</ele>
        <time>2013-06-30T13:54:48Z</time>
      </trkpt>
      <trkpt lat="40.161117" lon="-5.279467">
        <ele>1222.0</ele>
        <time>2013-06-30T13:54:49Z</time>
      </trkpt>
      <trkpt lat="40.161067" lon="-5.279433">
        <ele>1224.0</ele>
        <time>2013-06-30T13:54:50Z</time>
      </trkpt>
      <trkpt lat="40.161000" lon="-5.279417">
        <ele>1225.0</ele>
        <time>2013-06-30T13:54:51Z</time>
      </trkpt>
      <trkpt lat="40.160917" lon="-5.279450">
        <ele>1227.0</ele>
        <time>2013-06-30T13:54:52Z</time>
      </trkpt>
      <trkpt lat="40.160850" lon="-5.279550">
        <ele>1228.0</ele>
        <time>2013-06-30T13:54:53Z</time>
      </trkpt>
      <trkpt lat="40.160833" lon="-5.279667">
        <ele>1230.0</ele>
        <time>2013-06-30T13:54:54Z</time>
      </trkpt>
      <trkpt lat="40.160867" lon="-5.279783">
        <ele>1232.0</ele>
        <time>2013-06-30T13:54:55Z</time>
      </trkpt>
      <trkpt lat="40.160900" lon="-5.279883">
        <ele>1235.0</ele>
        <time>2013-06-30T13:54:56Z</time>
      </trkpt>
      <trkpt lat="40.160950" lon="-5.279950">
        <ele>1237.0</ele>
        <time>2013-06-30T13:54:57Z</time>
      </trkpt>
      <trkpt lat="40.161033" lon="-5.280000">
        <ele>1240.0</ele>
        <time>2013-06-30T13:54:58Z</time>
      </trkpt>
      <trkpt lat="40.161117" lon="-5.280017">
        <ele>1243.0</ele>
        <time>2013-06-30T13:54:59Z</time>
      </trkpt>
      <trkpt lat="40.161183" lon="-5.280017">
        <ele>1247.0</ele>
        <time>2013-06-30T13:55:00Z</time>
      </trkpt>
      <trkpt lat="40.161233" lon="-5.280000">
        <ele>1251.0</ele>
        <time>2013-06-30T13:55:01Z</time>
      </trkpt>
      <trkpt lat="40.161267" lon="-5.279967">
        <ele>1255.0</ele>
        <time>2013-06-30T13:55:02Z</time>
      </trkpt>
      <trkpt lat="40.161300" lon="-5.279933">
        <ele>1259.0</ele>
        <time>2013-06-30T13:55:03Z</time>
      </trkpt>
      <trkpt lat="40.161333" lon="-5.279883">
        <ele>1263.0</ele>
        <time>2013-06-30T13:55:04Z</time>
      </trkpt>
      <trkpt lat="40.161350" lon="-5.279850">
        <ele>1266.0</ele>
        <time>2013-06-30T13:55:05Z</time>
      </trkpt>
      <trkpt lat="40.161333" lon="-5.279800">
        <ele>1270.0</ele>
        <time>2013-06-30T13:55:06Z</time>
      </trkpt>
      <trkpt lat="40.161300" lon="-5.279767">
        <ele>1273.0</ele>
        <time>2013-06-30T13:55:07Z</time>
      </trkpt>
      <trkpt lat="40.161233" lon="-5.279750">
        <ele>1275.0</ele>
        <time>2013-06-30T13:55:08Z</time>
      </trkpt>
      <trkpt lat="40.161167" lon="-5.279783">
        <ele>1278.0</ele>
        <time>2013-06-30T13:55:09Z</time>
      </trkpt>
      <trkpt lat="40.161083" lon="-5.279850">
        <ele>1281.0</ele>
        <time>2013-06-30T13:55:10Z</time>
      </trkpt>
      <trkpt lat="40.161033" lon="-5.279950">
        <ele>1284.0</ele>
        <time>2013-06-30T13:55:11Z</time>
      </trkpt>
      <trkpt lat="40.161000" lon="-5.280067">
        <ele>1286.0</ele>
        <time>2013-06-30T13:55:12Z</time>
      </trkpt>
      <trkpt lat="40.161017" lon="-5.280200">
        <ele>1290.0</ele>
        <time>2013-06-30T13:55:13Z</time>
      </trkpt>
      <trkpt lat="40.161050" lon="-5.280317">
        <ele>1294.0</ele>
        <time>2013-06-30T13:55:14Z</time>
      </trkpt>
      <trkpt lat="40.161133" lon="-5.280383">
        <ele>1297.0</ele>
        <time>2013-06-30T13:55:15Z</time>
      </trkpt>
      <trkpt lat="40.161217" lon="-5.280400">
        <ele>1299.0</ele>
        <time>2013-06-30T13:55:16Z</time>
      </trkpt>
      <trkpt lat="40.161283" lon="-5.280383">
        <ele>1302.0</ele>
        <time>2013-06-30T13:55:17Z</time>
      </trkpt>
      <trkpt lat="40.161317" lon="-5.280333">
        <ele>1305.0</ele>
        <time>2013-06-30T13:55:18Z</time>
      </trkpt>
      <trkpt lat="40.161317" lon="-5.280283">
        <ele>1308.0</ele>
        <time>2013-06-30T13:55:19Z</time>
      </trkpt>
      <trkpt lat="40.161300" lon="-5.280233">
        <ele>1311.0</ele>
        <time>2013-06-30T13:55:20Z</time>
      </trkpt>
      <trkpt lat="40.161250" lon="-5.280200">
        <ele>1314.0</ele>
        <time>2013-06-30T13:55:21Z</time>
      </trkpt>
      <trkpt lat="40.161183" lon="-5.280183">
        <ele>1317.0</ele>
        <time>2013-06-30T13:55:22Z</time>
      </trkpt>
      <trkpt lat="40.161100" lon="-5.280217">
        <ele>1321.0</ele>
        <time>2013-06-30T13:55:23Z</time>
      </trkpt>
      <trkpt lat="40.161033" lon="-5.280283">
        <ele>1324.0</ele>
        <time>2013-06-30T13:55:24Z</time>
      </trkpt>
      <trkpt lat="40.160967" lon="-5.280350">
        <ele>1328.0</ele>
        <time>2013-06-30T13:55:25Z</time>
      </trkpt>
      <trkpt lat="40.160900" lon="-5.280450">
        <ele>1331.0</ele>
        <time>2013-06-30T13:55:26Z</time>
      </trkpt>
      <trkpt lat="40.160867" lon="-5.280567">
        <ele>1334.0</ele>
        <time>2013-06-30T13:55:27Z</time>
      </trkpt>
      <trkpt lat="40.160850" lon="-5.280683">
        <ele>1337.0</ele>
        <time>2013-06-30T13:55:28Z</time>
      </trkpt>
      <trkpt lat="40.160850" lon="-5.280783">
        <ele>1338.0</ele>
        <time>2013-06-30T13:55:29Z</time>
      </trkpt>
      <trkpt lat="40.160883" lon="-5.280883">
        <ele>1339.0</ele>
        <time>2013-06-30T13:55:30Z</time>
      </trkpt>
      <trkpt lat="40.160900" lon="-5.280967">
        <ele>1341.0</ele>
        <time>2013-06-30T13:55:31Z</time>
      </trkpt>
      <trkpt lat="40.160950" lon="-5.281050">
        <ele>1342.0</ele>
        <time>2013-06-30T13:55:32Z</time>
      </trkpt>
      <trkpt lat="40.160983" lon="-5.281117">
        <ele>1344.0</ele>
        <time>2013-06-30T13:55:33Z</time>
      </trkpt>
      <trkpt lat="40.161033" lon="-5.281167">
        <ele>1344.0</ele>
        <time>2013-06-30T13:55:34Z</time>
      </trkpt>
      <trkpt lat="40.161100" lon="-5.281167">
        <ele>1344.0</ele>
        <time>2013-06-30T13:55:35Z</time>
      </trkpt>
      <trkpt lat="40.161167" lon="-5.281117">
        <ele>1345.0</ele>
        <time>2013-06-30T13:55:36Z</time>
      </trkpt>
      <trkpt lat="40.161200" lon="-5.281050">
        <ele>1348.0</ele>
        <time>2013-06-30T13:55:37Z</time>
      </trkpt>
      <trkpt lat="40.161233" lon="-5.280983">
        <ele>1352.0</ele>
        <time>2013-06-30T13:55:38Z</time>
      </trkpt>
      <trkpt lat="40.161233" lon="-5.280917">
        <ele>1355.0</ele>
        <time>2013-06-30T13:55:39Z</time>
      </trkpt>
      <trkpt lat="40.161233" lon="-5.280867">
        <ele>1359.0</ele>
        <time>2013-06-30T13:55:40Z</time>
      </trkpt>
      <trkpt lat="40.161217" lon="-5.280817">
        <ele>1363.0</ele>
        <time>2013-06-30T13:55:41Z</time>
      </trkpt>
      <trkpt lat="40.161217" lon="-5.280767">
        <ele>1366.0</ele>
        <time>2013-06-30T13:55:42Z</time>
      </trkpt>
      <trkpt lat="40.161200" lon="-5.280700">
        <ele>1369.0</ele>
        <time>2013-06-30T13:55:43Z</time>
      </trkpt>
      <trkpt lat="40.161183" lon="-5.280617">
        <ele>1372.0</ele>
        <time>2013-06-30T13:55:44Z</time>
      </trkpt>
      <trkpt lat="40.161167" lon="-5.280567">
        <ele>1375.0</ele>
        <time>2013-06-30T13:55:45Z</time>
      </trkpt>
      <trkpt lat="40.161117" lon="-5.280533">
        <ele>1378.0</ele>
        <time>2013-06-30T13:55:46Z</time>
      </trkpt>
      <trkpt lat="40.161067" lon="-5.280500">
        <ele>1381.0</ele>
        <time>2013-06-30T13:55:47Z</time>
      </trkpt>
      <trkpt lat="40.161000" lon="-5.280467">
        <ele>1384.0</ele>
        <time>2013-06-30T13:55:48Z</time>
      </trkpt>
      <trkpt lat="40.160933" lon="-5.280450">
        <ele>1386.0</ele>
        <time>2013-06-30T13:55:49Z</time>
      </trkpt>
      <trkpt lat="40.160850" lon="-5.280467">
        <ele>1388.0</ele>
        <time>2013-06-30T13:55:50Z</time>
      </trkpt>
      <trkpt lat="40.160767" lon="-5.280533">
        <ele>1390.0</ele>
        <time>2013-06-30T13:55:51Z</time>
      </trkpt>
      <trkpt lat="40.160700" lon="-5.280633">
        <ele>1392.0</ele>
        <time>2013-06-30T13:55:52Z</time>
      </trkpt>
      <trkpt lat="40.160667" lon="-5.280767">
        <ele>1394.0</ele>
        <time>2013-06-30T13:55:53Z</time>
      </trkpt>
      <trkpt lat="40.160650" lon="-5.280867">
        <ele>1396.0</ele>
        <time>2013-06-30T13:55:54Z</time>
      </trkpt>
      <trkpt lat="40.160633" lon="-5.280967">
        <ele>1398.0</ele>
        <time>2013-06-30T13:55:55Z</time>
      </trkpt>
      <trkpt lat="40.160617" lon="-5.281067">
        <ele>1400.0</ele>
        <time>2013-06-30T13:55:56Z</time>
      </trkpt>
      <trkpt lat="40.160600" lon="-5.281150">
        <ele>1402.0</ele>
        <time>2013-06-30T13:55:57Z</time>
      </trkpt>
      <trkpt lat="40.160600" lon="-5.281233">
        <ele>1403.0</ele>
        <time>2013-06-30T13:55:58Z</time>
      </trkpt>
      <trkpt lat="40.160617" lon="-5.281300">
        <ele>1403.0</ele>
        <time>2013-06-30T13:55:59Z</time>
      </trkpt>
      <trkpt lat="40.160650" lon="-5.281367">
        <ele>1402.0</ele>
        <time>2013-06-30T13:56:00Z</time>
      </trkpt>
      <trkpt lat="40.160700" lon="-5.281417">
        <ele>1403.0</ele>
        <time>2013-06-30T13:56:01Z</time>
      </trkpt>
      <trkpt lat="40.160767" lon="-5.281467">
        <ele>1404.0</ele>
        <time>2013-06-30T13:56:02Z</time>
      </trkpt>
      <trkpt lat="40.160833" lon="-5.281483">
        <ele>1406.0</ele>
        <time>2013-06-30T13:56:03Z</time>
      </trkpt>
      <trkpt lat="40.160900" lon="-5.281450">
        <ele>1407.0</ele>
        <time>2013-06-30T13:56:04Z</time>
      </trkpt>
      <trkpt lat="40.160950" lon="-5.281383">
        <ele>1408.0</ele>
        <time>2013-06-30T13:56:05Z</time>
      </trkpt>
      <trkpt lat="40.160983" lon="-5.281300">
        <ele>1410.0</ele>
        <time>2013-06-30T13:56:06Z</time>
      </trkpt>
      <trkpt lat="40.161000" lon="-5.281217">
        <ele>1414.0</ele>
        <time>2013-06-30T13:56:07Z</time>
      </trkpt>
      <trkpt lat="40.161000" lon="-5.281150">
        <ele>1418.0</ele>
        <time>2013-06-30T13:56:08Z</time>
      </trkpt>
      <trkpt lat="40.161000" lon="-5.281100">
        <ele>1421.0</ele>
        <time>2013-06-30T13:56:09Z</time>
      </trkpt>
      <trkpt lat="40.160983" lon="-5.281050">
        <ele>1423.0</ele>
        <time>2013-06-30T13:56:10Z</time>
      </trkpt>
      <trkpt lat="40.160983" lon="-5.281000">
        <ele>1425.0</ele>
        <time>2013-06-30T13:56:11Z</time>
      </trkpt>
      <trkpt lat="40.160983" lon="-5.280933">
        <ele>1427.0</ele>
        <time>2013-06-30T13:56:12Z</time>
      </trkpt>
      <trkpt lat="40.160967" lon="-5.280850">
        <ele>1429.0</ele>
        <time>2013-06-30T13:56:13Z</time>
      </trkpt>
      <trkpt lat="40.160933" lon="-5.280767">
        <ele>1431.0</ele>
        <time>2013-06-30T13:56:14Z</time>
      </trkpt>
      <trkpt lat="40.160883" lon="-5.280700">
        <ele>1433.0</ele>
        <time>2013-06-30T13:56:15Z</time>
      </trkpt>
      <trkpt lat="40.160833" lon="-5.280633">
        <ele>1436.0</ele>
        <time>2013-06-30T13:56:16Z</time>
      </trkpt>
      <trkpt lat="40.160767" lon="-5.280583">
        <ele>1438.0</ele>
        <time>2013-06-30T13:56:17Z</time>
      </trkpt>
      <trkpt lat="40.160700" lon="-5.280550">
        <ele>1441.0</ele>
        <time>2013-06-30T13:56:18Z</time>
      </trkpt>
      <trkpt lat="40.160617" lon="-5.280517">
        <ele>1443.0</ele>
        <time>2013-06-30T13:56:19Z</time>
      </trkpt>
      <trkpt lat="40.160550" lon="-5.280517">
        <ele>1445.0</ele>
        <time>2013-06-30T13:56:20Z</time>
      </trkpt>
      <trkpt lat="40.160467" lon="-5.280550">
        <ele>1446.0</ele>
        <time>2013-06-30T13:56:21Z</time>
      </trkpt>
      <trkpt lat="40.160383" lon="-5.280617">
        <ele>1447.0</ele>
        <time>2013-06-30T13:56:22Z</time>
      </trkpt>
      <trkpt lat="40.160317" lon="-5.280700">
        <ele>1448.0</ele>
        <time>2013-06-30T13:56:23Z</time>
      </trkpt>
      <trkpt lat="40.160283" lon="-5.280817">
        <ele>1449.0</ele>
        <time>2013-06-30T13:56:24Z</time>
      </trkpt>
      <trkpt lat="40.160283" lon="-5.280933">
        <ele>1450.0</ele>
        <time>2013-06-30T13:56:25Z</time>
      </trkpt>
      <trkpt lat="40.160300" lon="-5.281033">
        <ele>1451.0</ele>
        <time>2013-06-30T13:56:26Z</time>
      </trkpt>
      <trkpt lat="40.160350" lon="-5.281133">
        <ele>1452.0</ele>
        <time>2013-06-30T13:56:27Z</time>
      </trkpt>
      <trkpt lat="40.160400" lon="-5.281217">
        <ele>1453.0</ele>
        <time>2013-06-30T13:56:28Z</time>
      </trkpt>
      <trkpt lat="40.160467" lon="-5.281283">
        <ele>1454.0</ele>
        <time>2013-06-30T13:56:29Z</time>
      </trkpt>
      <trkpt lat="40.160533" lon="-5.281317">
        <ele>1455.0</ele>
        <time>2013-06-30T13:56:30Z</time>
      </trkpt>
      <trkpt lat="40.160600" lon="-5.281333">
        <ele>1456.0</ele>
        <time>2013-06-30T13:56:31Z</time>
      </trkpt>
      <trkpt lat="40.160667" lon="-5.281317">
        <ele>1457.0</ele>
        <time>2013-06-30T13:56:32Z</time>
      </trkpt>
      <trkpt lat="40.160733" lon="-5.281283">
        <ele>1458.0</ele>
        <time>2013-06-30T13:56:33Z</time>
      </trkpt>
      <trkpt lat="40.160783" lon="-5.281233">
        <ele>1459.0</ele>
        <time>2013-06-30T13:56:34Z</time>
      </trkpt>
      <trkpt lat="40.160833" lon="-5.281150">
        <ele>1460.0</ele>
        <time>2013-06-30T13:56:35Z</time>
      </trkpt>
      <trkpt lat="40.160850" lon="-5.281067">
        <ele>1463.0</ele>
        <time>2013-06-30T13:56:36Z</time>
      </trkpt>
      <trkpt lat="40.160867" lon="-5.281000">
        <ele>1466.0</ele>
        <time>2013-06-30T13:56:37Z</time>
      </trkpt>
      <trkpt lat="40.160883" lon="-5.280950">
        <ele>1470.0</ele>
        <time>2013-06-30T13:56:38Z</time>
      </trkpt>
      <trkpt lat="40.160883" lon="-5.280900">
        <ele>1472.0</ele>
        <time>2013-06-30T13:56:39Z</time>
      </trkpt>
      <trkpt lat="40.160883" lon="-5.280833">
        <ele>1474.0</ele>
        <time>2013-06-30T13:56:40Z</time>
      </trkpt>
      <trkpt lat="40.160883" lon="-5.280767">
        <ele>1476.0</ele>
        <time>2013-06-30T13:56:41Z</time>
      </trkpt>
      <trkpt lat="40.160883" lon="-5.280683">
        <ele>1477.0</ele>
        <time>2013-06-30T13:56:42Z</time>
      </trkpt>
      <trkpt lat="40.160883" lon="-5.280600">
        <ele>1480.0</ele>
        <time>2013-06-30T13:56:43Z</time>
      </trkpt>
      <trkpt lat="40.160883" lon="-5.280533">
        <ele>1482.0</ele>
        <time>2013-06-30T13:56:44Z</time>
      </trkpt>
      <trkpt lat="40.160867" lon="-5.280483">
        <ele>1484.0</ele>
        <time>2013-06-30T13:56:45Z</time>
      </trkpt>
      <trkpt lat="40.160850" lon="-5.280433">
        <ele>1485.0</ele>
        <time>2013-06-30T13:56:46Z</time>
      </trkpt>
      <trkpt lat="40.160817" lon="-5.280383">
        <ele>1486.0</ele>
        <time>2013-06-30T13:56:47Z</time>
      </trkpt>
      <trkpt lat="40.160767" lon="-5.280317">
        <ele>1488.0</ele>
        <time>2013-06-30T13:56:48Z</time>
      </trkpt>
      <trkpt lat="40.160717" lon="-5.280250">
        <ele>1490.0</ele>
        <time>2013-06-30T13:56:49Z</time>
      </trkpt>
      <trkpt lat="40.160667" lon="-5.280233">
        <ele>1494.0</ele>
        <time>2013-06-30T13:56:50Z</time>
      </trkpt>
      <trkpt lat="40.160617" lon="-5.280233">
        <ele>1497.0</ele>
        <time>2013-06-30T13:56:51Z</time>
      </trkpt>
      <trkpt lat="40.160567" lon="-5.280267">
        <ele>1499.0</ele>
        <time>2013-06-30T13:56:52Z</time>
      </trkpt>
      <trkpt lat="40.160500" lon="-5.280333">
        <ele>1501.0</ele>
        <time>2013-06-30T13:56:53Z</time>
      </trkpt>
      <trkpt lat="40.160467" lon="-5.280400">
        <ele>1503.0</ele>
        <time>2013-06-30T13:56:54Z</time>
      </trkpt>
      <trkpt lat="40.160433" lon="-5.280500">
        <ele>1505.0</ele>
        <time>2013-06-30T13:56:55Z</time>
      </trkpt>
      <trkpt lat="40.160433" lon="-5.280617">
        <ele>1507.0</ele>
        <time>2013-06-30T13:56:56Z</time>
      </trkpt>
      <trkpt lat="40.160433" lon="-5.280733">
        <ele>1509.0</ele>
        <time>2013-06-30T13:56:57Z</time>
      </trkpt>
      <trkpt lat="40.160450" lon="-5.280850">
        <ele>1512.0</ele>
        <time>2013-06-30T13:56:58Z</time>
      </trkpt>
      <trkpt lat="40.160483" lon="-5.280967">
        <ele>1515.0</ele>
        <time>2013-06-30T13:56:59Z</time>
      </trkpt>
      <trkpt lat="40.160517" lon="-5.281050">
        <ele>1517.0</ele>
        <time>2013-06-30T13:57:00Z</time>
      </trkpt>
      <trkpt lat="40.160583" lon="-5.281117">
        <ele>1519.0</ele>
        <time>2013-06-30T13:57:01Z</time>
      </trkpt>
      <trkpt lat="40.160650" lon="-5.281183">
        <ele>1521.0</ele>
        <time>2013-06-30T13:57:02Z</time>
      </trkpt>
      <trkpt lat="40.160733" lon="-5.281233">
        <ele>1522.0</ele>
        <time>2013-06-30T13:57:03Z</time>
      </trkpt>
      <trkpt lat="40.160817" lon="-5.281250">
        <ele>1524.0</ele>
        <time>2013-06-30T13:57:04Z</time>
      </trkpt>
      <trkpt lat="40.160900" lon="-5.281233">
        <ele>1525.0</ele>
        <time>2013-06-30T13:57:05Z</time>
      </trkpt>
      <trkpt lat="40.160983" lon="-5.281200">
        <ele>1526.0</ele>
        <time>2013-06-30T13:57:06Z</time>
      </trkpt>
      <trkpt lat="40.161050" lon="-5.281117">
        <ele>1528.0</ele>
        <time>2013-06-30T13:57:07Z</time>
      </trkpt>
      <trkpt lat="40.161083" lon="-5.281033">
        <ele>1531.0</ele>
        <time>2013-06-30T13:57:08Z</time>
      </trkpt>
      <trkpt lat="40.161100" lon="-5.280950">
        <ele>1534.0</ele>
        <time>2013-06-30T13:57:09Z</time>
      </trkpt>
      <trkpt lat="40.161100" lon="-5.280867">
        <ele>1537.0</ele>
        <time>2013-06-30T13:57:10Z</time>
      </trkpt>
      <trkpt lat="40.161083" lon="-5.280800">
        <ele>1540.0</ele>
        <time>2013-06-30T13:57:11Z</time>
      </trkpt>
      <trkpt lat="40.161050" lon="-5.280750">
        <ele>1543.0</ele>
        <time>2013-06-30T13:57:12Z</time>
      </trkpt>
      <trkpt lat="40.161017" lon="-5.280717">
        <ele>1545.0</ele>
        <time>2013-06-30T13:57:13Z</time>
      </trkpt>
      <trkpt lat="40.160950" lon="-5.280700">
        <ele>1547.0</ele>
        <time>2013-06-30T13:57:14Z</time>
      </trkpt>
      <trkpt lat="40.160883" lon="-5.280733">
        <ele>1549.0</ele>
        <time>2013-06-30T13:57:15Z</time>
      </trkpt>
      <trkpt lat="40.160833" lon="-5.280783">
        <ele>1552.0</ele>
        <time>2013-06-30T13:57:16Z</time>
      </trkpt>
      <trkpt lat="40.160783" lon="-5.280883">
        <ele>1555.0</ele>
        <time>2013-06-30T13:57:17Z</time>
      </trkpt>
      <trkpt lat="40.160767" lon="-5.281000">
        <ele>1558.0</ele>
        <time>2013-06-30T13:57:18Z</time>
      </trkpt>
      <trkpt lat="40.160767" lon="-5.281133">
        <ele>1561.0</ele>
        <time>2013-06-30T13:57:19Z</time>
      </trkpt>
      <trkpt lat="40.160800" lon="-5.281250">
        <ele>1564.0</ele>
        <time>2013-06-30T13:57:20Z</time>
      </trkpt>
      <trkpt lat="40.160850" lon="-5.281350">
        <ele>1567.0</ele>
        <time>2013-06-30T13:57:21Z</time>
      </trkpt>
      <trkpt lat="40.160917" lon="-5.281433">
        <ele>1570.0</ele>
        <time>2013-06-30T13:57:22Z</time>
      </trkpt>
      <trkpt lat="40.161000" lon="-5.281483">
        <ele>1572.0</ele>
        <time>2013-06-30T13:57:23Z</time>
      </trkpt>
      <trkpt lat="40.161083" lon="-5.281500">
        <ele>1573.0</ele>
        <time>2013-06-30T13:57:24Z</time>
      </trkpt>
      <trkpt lat="40.161167" lon="-5.281533">
        <ele>1575.0</ele>
        <time>2013-06-30T13:57:25Z</time>
      </trkpt>
      <trkpt lat="40.161250" lon="-5.281567">
        <ele>1577.0</ele>
        <time>2013-06-30T13:57:26Z</time>
      </trkpt>
      <trkpt lat="40.161333" lon="-5.281567">
        <ele>1579.0</ele>
        <time>2013-06-30T13:57:27Z</time>
      </trkpt>
      <trkpt lat="40.161417" lon="-5.281533">
        <ele>1581.0</ele>
        <time>2013-06-30T13:57:28Z</time>
      </trkpt>
      <trkpt lat="40.161500" lon="-5.281483">
        <ele>1583.0</ele>
        <time>2013-06-30T13:57:29Z</time>
      </trkpt>
      <trkpt lat="40.161567" lon="-5.281400">
        <ele>1587.0</ele>
        <time>2013-06-30T13:57:30Z</time>
      </trkpt>
      <trkpt lat="40.161600" lon="-5.281300">
        <ele>1590.0</ele>
        <time>2013-06-30T13:57:31Z</time>
      </trkpt>
      <trkpt lat="40.161600" lon="-5.281233">
        <ele>1593.0</ele>
        <time>2013-06-30T13:57:32Z</time>
      </trkpt>
      <trkpt lat="40.161583" lon="-5.281167">
        <ele>1596.0</ele>
        <time>2013-06-30T13:57:33Z</time>
      </trkpt>
      <trkpt lat="40.161550" lon="-5.281100">
        <ele>1598.0</ele>
        <time>2013-06-30T13:57:34Z</time>
      </trkpt>
      <trkpt lat="40.161517" lon="-5.281050">
        <ele>1601.0</ele>
        <time>2013-06-30T13:57:35Z</time>
      </trkpt>
      <trkpt lat="40.161467" lon="-5.281017">
        <ele>1604.0</ele>
        <time>2013-06-30T13:57:36Z</time>
      </trkpt>
      <trkpt lat="40.161417" lon="-5.281000">
        <ele>1606.0</ele>
        <time>2013-06-30T13:57:37Z</time>
      </trkpt>
      <trkpt lat="40.161350" lon="-5.281033">
        <ele>1609.0</ele>
        <time>2013-06-30T13:57:38Z</time>
      </trkpt>
      <trkpt lat="40.161300" lon="-5.281117">
        <ele>1611.0</ele>
        <time>2013-06-30T13:57:39Z</time>
      </trkpt>
      <trkpt lat="40.161250" lon="-5.281200">
        <ele>1613.0</ele>
        <time>2013-06-30T13:57:40Z</time>
      </trkpt>
      <trkpt lat="40.161233" lon="-5.281317">
        <ele>1616.0</ele>
        <time>2013-06-30T13:57:41Z</time>
      </trkpt>
      <trkpt lat="40.161250" lon="-5.281433">
        <ele>1618.0</ele>
        <time>2013-06-30T13:57:42Z</time>
      </trkpt>
      <trkpt lat="40.161300" lon="-5.281567">
        <ele>1620.0</ele>
        <time>2013-06-30T13:57:43Z</time>
      </trkpt>
      <trkpt lat="40.161367" lon="-5.281667">
        <ele>1622.0</ele>
        <time>2013-06-30T13:57:44Z</time>
      </trkpt>
      <trkpt lat="40.161450" lon="-5.281733">
        <ele>1625.0</ele>
        <time>2013-06-30T13:57:45Z</time>
      </trkpt>
      <trkpt lat="40.161550" lon="-5.281783">
        <ele>1628.0</ele>
        <time>2013-06-30T13:57:46Z</time>
      </trkpt>
      <trkpt lat="40.161650" lon="-5.281800">
        <ele>1631.0</ele>
        <time>2013-06-30T13:57:47Z</time>
      </trkpt>
      <trkpt lat="40.161750" lon="-5.281800">
        <ele>1634.0</ele>
        <time>2013-06-30T13:57:48Z</time>
      </trkpt>
      <trkpt lat="40.161833" lon="-5.281767">
        <ele>1637.0</ele>
        <time>2013-06-30T13:57:49Z</time>
      </trkpt>
      <trkpt lat="40.161900" lon="-5.281733">
        <ele>1639.0</ele>
        <time>2013-06-30T13:57:50Z</time>
      </trkpt>
      <trkpt lat="40.161983" lon="-5.281683">
        <ele>1642.0</ele>
        <time>2013-06-30T13:57:51Z</time>
      </trkpt>
      <trkpt lat="40.162050" lon="-5.281617">
        <ele>1645.0</ele>
        <time>2013-06-30T13:57:52Z</time>
      </trkpt>
      <trkpt lat="40.162100" lon="-5.281550">
        <ele>1648.0</ele>
        <time>2013-06-30T13:57:53Z</time>
      </trkpt>
      <trkpt lat="40.162117" lon="-5.281483">
        <ele>1651.0</ele>
        <time>2013-06-30T13:57:54Z</time>
      </trkpt>
      <trkpt lat="40.162133" lon="-5.281400">
        <ele>1653.0</ele>
        <time>2013-06-30T13:57:55Z</time>
      </trkpt>
      <trkpt lat="40.162117" lon="-5.281317">
        <ele>1655.0</ele>
        <time>2013-06-30T13:57:56Z</time>
      </trkpt>
      <trkpt lat="40.162083" lon="-5.281250">
        <ele>1657.0</ele>
        <time>2013-06-30T13:57:57Z</time>
      </trkpt>
      <trkpt lat="40.162050" lon="-5.281200">
        <ele>1660.0</ele>
        <time>2013-06-30T13:57:58Z</time>
      </trkpt>
      <trkpt lat="40.162000" lon="-5.281183">
        <ele>1662.0</ele>
        <time>2013-06-30T13:57:59Z</time>
      </trkpt>
      <trkpt lat="40.161950" lon="-5.281183">
        <ele>1665.0</ele>
        <time>2013-06-30T13:58:00Z</time>
      </trkpt>
      <trkpt lat="40.161883" lon="-5.281217">
        <ele>1668.0</ele>
        <time>2013-06-30T13:58:01Z</time>
      </trkpt>
      <trkpt lat="40.161850" lon="-5.281267">
        <ele>1670.0</ele>
        <time>2013-06-30T13:58:02Z</time>
      </trkpt>
      <trkpt lat="40.161817" lon="-5.281333">
        <ele>1673.0</ele>
        <time>2013-06-30T13:58:03Z</time>
      </trkpt>
      <trkpt lat="40.161783" lon="-5.281417">
        <ele>1675.0</ele>
        <time>2013-06-30T13:58:04Z</time>
      </trkpt>
      <trkpt lat="40.161750" lon="-5.281517">
        <ele>1677.0</ele>
        <time>2013-06-30T13:58:05Z</time>
      </trkpt>
      <trkpt lat="40.161733" lon="-5.281633">
        <ele>1679.0</ele>
        <time>2013-06-30T13:58:06Z</time>
      </trkpt>
      <trkpt lat="40.161733" lon="-5.281767">
        <ele>1682.0</ele>
        <time>2013-06-30T13:58:07Z</time>
      </trkpt>
      <trkpt lat="40.161767" lon="-5.281883">
        <ele>1685.0</ele>
        <time>2013-06-30T13:58:08Z</time>
      </trkpt>
      <trkpt lat="40.161800" lon="-5.281983">
        <ele>1688.0</ele>
        <time>2013-06-30T13:58:09Z</time>
      </trkpt>
      <trkpt lat="40.161833" lon="-5.282083">
        <ele>1690.0</ele>
        <time>2013-06-30T13:58:10Z</time>
      </trkpt>
      <trkpt lat="40.161900" lon="-5.282200">
        <ele>1692.0</ele>
        <time>2013-06-30T13:58:11Z</time>
      </trkpt>
      <trkpt lat="40.161967" lon="-5.282300">
        <ele>1693.0</ele>
        <time>2013-06-30T13:58:12Z</time>
      </trkpt>
      <trkpt lat="40.162033" lon="-5.282400">
        <ele>1695.0</ele>
        <time>2013-06-30T13:58:13Z</time>
      </trkpt>
      <trkpt lat="40.162117" lon="-5.282483">
        <ele>1699.0</ele>
        <time>2013-06-30T13:58:14Z</time>
      </trkpt>
      <trkpt lat="40.162217" lon="-5.282517">
        <ele>1701.0</ele>
        <time>2013-06-30T13:58:15Z</time>
      </trkpt>
      <trkpt lat="40.162300" lon="-5.282533">
        <ele>1704.0</ele>
        <time>2013-06-30T13:58:16Z</time>
      </trkpt>
      <trkpt lat="40.162383" lon="-5.282533">
        <ele>1707.0</ele>
        <time>2013-06-30T13:58:17Z</time>
      </trkpt>
      <trkpt lat="40.162467" lon="-5.282517">
        <ele>1709.0</ele>
        <time>2013-06-30T13:58:18Z</time>
      </trkpt>
      <trkpt lat="40.162533" lon="-5.282500">
        <ele>1713.0</ele>
        <time>2013-06-30T13:58:19Z</time>
      </trkpt>
      <trkpt lat="40.162583" lon="-5.282450">
        <ele>1715.0</ele>
        <time>2013-06-30T13:58:20Z</time>
      </trkpt>
      <trkpt lat="40.162633" lon="-5.282400">
        <ele>1717.0</ele>
        <time>2013-06-30T13:58:21Z</time>
      </trkpt>
      <trkpt lat="40.162650" lon="-5.282317">
        <ele>1719.0</ele>
        <time>2013-06-30T13:58:22Z</time>
      </trkpt>
      <trkpt lat="40.162650" lon="-5.282233">
        <ele>1722.0</ele>
        <time>2013-06-30T13:58:23Z</time>
      </trkpt>
      <trkpt lat="40.162633" lon="-5.282167">
        <ele>1725.0</ele>
        <time>2013-06-30T13:58:24Z</time>
      </trkpt>
      <trkpt lat="40.162600" lon="-5.282117">
        <ele>1728.0</ele>
        <time>2013-06-30T13:58:25Z</time>
      </trkpt>
      <trkpt lat="40.162567" lon="-5.282067">
        <ele>1730.0</ele>
        <time>2013-06-30T13:58:26Z</time>
      </trkpt>
      <trkpt lat="40.162517" lon="-5.282033">
        <ele>1733.0</ele>
        <time>2013-06-30T13:58:27Z</time>
      </trkpt>
      <trkpt lat="40.162467" lon="-5.282017">
        <ele>1735.0</ele>
        <time>2013-06-30T13:58:28Z</time>
      </trkpt>
      <trkpt lat="40.162417" lon="-5.282017">
        <ele>1737.0</ele>
        <time>2013-06-30T13:58:29Z</time>
      </trkpt>
      <trkpt lat="40.162367" lon="-5.282050">
        <ele>1739.0</ele>
        <time>2013-06-30T13:58:30Z</time>
      </trkpt>
      <trkpt lat="40.162300" lon="-5.282083">
        <ele>1740.0</ele>
        <time>2013-06-30T13:58:31Z</time>
      </trkpt>
      <trkpt lat="40.162233" lon="-5.282133">
        <ele>1743.0</ele>
        <time>2013-06-30T13:58:32Z</time>
      </trkpt>
      <trkpt lat="40.162200" lon="-5.282217">
        <ele>1747.0</ele>
        <time>2013-06-30T13:58:33Z</time>
      </trkpt>
      <trkpt lat="40.162183" lon="-5.282300">
        <ele>1750.0</ele>
        <time>2013-06-30T13:58:34Z</time>
      </trkpt>
      <trkpt lat="40.162167" lon="-5.282383">
        <ele>1752.0</ele>
        <time>2013-06-30T13:58:35Z</time>
      </trkpt>
      <trkpt lat="40.162150" lon="-5.282483">
        <ele>1755.0</ele>
        <time>2013-06-30T13:58:36Z</time>
      </trkpt>
      <trkpt lat="40.162133" lon="-5.282583">
        <ele>1757.0</ele>
        <time>2013-06-30T13:58:37Z</time>
      </trkpt>
      <trkpt lat="40.162150" lon="-5.282700">
        <ele>1760.0</ele>
        <time>2013-06-30T13:58:38Z</time>
      </trkpt>
      <trkpt lat="40.162183" lon="-5.282817">
        <ele>1761.0</ele>
        <time>2013-06-30T13:58:39Z</time>
      </trkpt>
      <trkpt lat="40.162233" lon="-5.282933">
        <ele>1763.0</ele>
        <time>2013-06-30T13:58:40Z</time>
      </trkpt>
      <trkpt lat="40.162283" lon="-5.283033">
        <ele>1766.0</ele>
        <time>2013-06-30T13:58:41Z</time>
      </trkpt>
      <trkpt lat="40.162350" lon="-5.283133">
        <ele>1769.0</ele>
        <time>2013-06-30T13:58:42Z</time>
      </trkpt>
      <trkpt lat="40.162433" lon="-5.283217">
        <ele>1772.0</ele>
        <time>2013-06-30T13:58:43Z</time>
      </trkpt>
      <trkpt lat="40.162533" lon="-5.283283">
        <ele>1774.0</ele>
        <time>2013-06-30T13:58:44Z</time>
      </trkpt>
      <trkpt lat="40.162633" lon="-5.283350">
        <ele>1777.0</ele>
        <time>2013-06-30T13:58:45Z</time>
      </trkpt>
      <trkpt lat="40.162717" lon="-5.283383">
        <ele>1779.0</ele>
        <time>2013-06-30T13:58:46Z</time>
      </trkpt>
      <trkpt lat="40.162817" lon="-5.283400">
        <ele>1782.0</ele>
        <time>2013-06-30T13:58:47Z</time>
      </trkpt>
      <trkpt lat="40.162900" lon="-5.283417">
        <ele>1785.0</ele>
        <time>2013-06-30T13:58:48Z</time>
      </trkpt>
      <trkpt lat="40.162967" lon="-5.283400">
        <ele>1788.0</ele>
        <time>2013-06-30T13:58:49Z</time>
      </trkpt>
      <trkpt lat="40.163050" lon="-5.283383">
        <ele>1792.0</ele>
        <time>2013-06-30T13:58:50Z</time>
      </trkpt>
      <trkpt lat="40.163117" lon="-5.283350">
        <ele>1795.0</ele>
        <time>2013-06-30T13:58:51Z</time>
      </trkpt>
      <trkpt lat="40.163167" lon="-5.283300">
        <ele>1798.0</ele>
        <time>2013-06-30T13:58:52Z</time>
      </trkpt>
      <trkpt lat="40.163200" lon="-5.283250">
        <ele>1800.0</ele>
        <time>2013-06-30T13:58:53Z</time>
      </trkpt>
      <trkpt lat="40.163233" lon="-5.283183">
        <ele>1803.0</ele>
        <time>2013-06-30T13:58:54Z</time>
      </trkpt>
      <trkpt lat="40.163233" lon="-5.283133">
        <ele>1806.0</ele>
        <time>2013-06-30T13:58:55Z</time>
      </trkpt>
      <trkpt lat="40.163233" lon="-5.283067">
        <ele>1809.0</ele>
        <time>2013-06-30T13:58:56Z</time>
      </trkpt>
      <trkpt lat="40.163233" lon="-5.283000">
        <ele>1812.0</ele>
        <time>2013-06-30T13:58:57Z</time>
      </trkpt>
      <trkpt lat="40.163217" lon="-5.282950">
        <ele>1816.0</ele>
        <time>2013-06-30T13:58:58Z</time>
      </trkpt>
      <trkpt lat="40.163183" lon="-5.282917">
        <ele>1819.0</ele>
        <time>2013-06-30T13:58:59Z</time>
      </trkpt>
      <trkpt lat="40.163150" lon="-5.282883">
        <ele>1821.0</ele>
        <time>2013-06-30T13:59:00Z</time>
      </trkpt>
      <trkpt lat="40.163100" lon="-5.282867">
        <ele>1823.0</ele>
        <time>2013-06-30T13:59:01Z</time>
      </trkpt>
      <trkpt lat="40.163033" lon="-5.282850">
        <ele>1825.0</ele>
        <time>2013-06-30T13:59:02Z</time>
      </trkpt>
      <trkpt lat="40.162967" lon="-5.282850">
        <ele>1828.0</ele>
        <time>2013-06-30T13:59:03Z</time>
      </trkpt>
      <trkpt lat="40.162917" lon="-5.282900">
        <ele>1831.0</ele>
        <time>2013-06-30T13:59:04Z</time>
      </trkpt>
      <trkpt lat="40.162867" lon="-5.282967">
        <ele>1834.0</ele>
        <time>2013-06-30T13:59:05Z</time>
      </trkpt>
      <trkpt lat="40.162817" lon="-5.283067">
        <ele>1837.0</ele>
        <time>2013-06-30T13:59:06Z</time>
      </trkpt>
      <trkpt lat="40.162783" lon="-5.283167">
        <ele>1839.0</ele>
        <time>2013-06-30T13:59:07Z</time>
      </trkpt>
      <trkpt lat="40.162767" lon="-5.283267">
        <ele>1843.0</ele>
        <time>2013-06-30T13:59:08Z</time>
      </trkpt>
      <trkpt lat="40.162750" lon="-5.283383">
        <ele>1846.0</ele>
        <time>2013-06-30T13:59:09Z</time>
      </trkpt>
      <trkpt lat="40.162750" lon="-5.283517">
        <ele>1849.0</ele>
        <time>2013-06-30T13:59:10Z</time>
      </trkpt>
      <trkpt lat="40.162750" lon="-5.283633">
        <ele>1851.0</ele>
        <time>2013-06-30T13:59:11Z</time>
      </trkpt>
      <trkpt lat="40.162783" lon="-5.283767">
        <ele>1854.0</ele>
        <time>2013-06-30T13:59:12Z</time>
      </trkpt>
      <trkpt lat="40.162817" lon="-5.283900">
        <ele>1857.0</ele>
        <time>2013-06-30T13:59:13Z</time>
      </trkpt>
      <trkpt lat="40.162867" lon="-5.284017">
        <ele>1860.0</ele>
        <time>2013-06-30T13:59:14Z</time>
      </trkpt>
      <trkpt lat="40.162933" lon="-5.284117">
        <ele>1864.0</ele>
        <time>2013-06-30T13:59:15Z</time>
      </trkpt>
      <trkpt lat="40.163017" lon="-5.284200">
        <ele>1867.0</ele>
        <time>2013-06-30T13:59:16Z</time>
      </trkpt>
      <trkpt lat="40.163100" lon="-5.284250">
        <ele>1870.0</ele>
        <time>2013-06-30T13:59:17Z</time>
      </trkpt>
      <trkpt lat="40.163200" lon="-5.284283">
        <ele>1873.0</ele>
        <time>2013-06-30T13:59:18Z</time>
      </trkpt>
      <trkpt lat="40.163283" lon="-5.284300">
        <ele>1876.0</ele>
        <time>2013-06-30T13:59:19Z</time>
      </trkpt>
      <trkpt lat="40.163367" lon="-5.284317">
        <ele>1880.0</ele>
        <time>2013-06-30T13:59:20Z</time>
      </trkpt>
      <trkpt lat="40.163433" lon="-5.284300">
        <ele>1883.0</ele>
        <time>2013-06-30T13:59:21Z</time>
      </trkpt>
      <trkpt lat="40.163500" lon="-5.284267">
        <ele>1887.0</ele>
        <time>2013-06-30T13:59:22Z</time>
      </trkpt>
      <trkpt lat="40.163567" lon="-5.284233">
        <ele>1889.0</ele>
        <time>2013-06-30T13:59:23Z</time>
      </trkpt>
      <trkpt lat="40.163617" lon="-5.284167">
        <ele>1892.0</ele>
        <time>2013-06-30T13:59:24Z</time>
      </trkpt>
      <trkpt lat="40.163650" lon="-5.284117">
        <ele>1895.0</ele>
        <time>2013-06-30T13:59:25Z</time>
      </trkpt>
      <trkpt lat="40.163667" lon="-5.284050">
        <ele>1897.0</ele>
        <time>2013-06-30T13:59:26Z</time>
      </trkpt>
      <trkpt lat="40.163650" lon="-5.283967">
        <ele>1899.0</ele>
        <time>2013-06-30T13:59:27Z</time>
      </trkpt>
      <trkpt lat="40.163633" lon="-5.283917">
        <ele>1902.0</ele>
        <time>2013-06-30T13:59:28Z</time>
      </trkpt>
      <trkpt lat="40.163600" lon="-5.283867">
        <ele>1904.0</ele>
        <time>2013-06-30T13:59:29Z</time>
      </trkpt>
      <trkpt lat="40.163550" lon="-5.283833">
        <ele>1907.0</ele>
        <time>2013-06-30T13:59:30Z</time>
      </trkpt>
      <trkpt lat="40.163500" lon="-5.283817">
        <ele>1909.0</ele>
        <time>2013-06-30T13:59:31Z</time>
      </trkpt>
      <trkpt lat="40.163450" lon="-5.283817">
        <ele>1911.0</ele>
        <time>2013-06-30T13:59:32Z</time>
      </trkpt>
      <trkpt lat="40.163383" lon="-5.283817">
        <ele>1914.0</ele>
        <time>2013-06-30T13:59:33Z</time>
      </trkpt>
      <trkpt lat="40.163317" lon="-5.283833">
        <ele>1917.0</ele>
        <time>2013-06-30T13:59:34Z</time>
      </trkpt>
      <trkpt lat="40.163267" lon="-5.283867">
        <ele>1921.0</ele>
        <time>2013-06-30T13:59:35Z</time>
      </trkpt>
      <trkpt lat="40.163217" lon="-5.283950">
        <ele>1923.0</ele>
        <time>2013-06-30T13:59:36Z</time>
      </trkpt>
      <trkpt lat="40.163183" lon="-5.284017">
        <ele>1926.0</ele>
        <time>2013-06-30T13:59:37Z</time>
      </trkpt>
      <trkpt lat="40.163133" lon="-5.284083">
        <ele>1929.0</ele>
        <time>2013-06-30T13:59:38Z</time>
      </trkpt>
      <trkpt lat="40.163100" lon="-5.284167">
        <ele>1932.0</ele>
        <time>2013-06-30T13:59:39Z</time>
      </trkpt>
      <trkpt lat="40.163067" lon="-5.284267">
        <ele>1935.0</ele>
        <time>2013-06-30T13:59:40Z</time>
      </trkpt>
      <trkpt lat="40.163067" lon="-5.284350">
        <ele>1939.0</ele>
        <time>2013-06-30T13:59:41Z</time>
      </trkpt>
      <trkpt lat="40.163083" lon="-5.284467">
        <ele>1941.0</ele>
        <time>2013-06-30T13:59:42Z</time>
      </trkpt>
      <trkpt lat="40.163100" lon="-5.284567">
        <ele>1944.0</ele>
        <time>2013-06-30T13:59:43Z</time>
      </trkpt>
      <trkpt lat="40.163117" lon="-5.284667">
        <ele>1946.0</ele>
        <time>2013-06-30T13:59:44Z</time>
      </trkpt>
      <trkpt lat="40.163150" lon="-5.284783">
        <ele>1949.0</ele>
        <time>2013-06-30T13:59:45Z</time>
      </trkpt>
      <trkpt lat="40.163183" lon="-5.284883">
        <ele>1950.0</ele>
        <time>2013-06-30T13:59:46Z</time>
      </trkpt>
      <trkpt lat="40.163250" lon="-5.284983">
        <ele>1950.0</ele>
        <time>2013-06-30T13:59:47Z</time>
      </trkpt>
      <trkpt lat="40.163333" lon="-5.285050">
        <ele>1951.0</ele>
        <time>2013-06-30T13:59:48Z</time>
      </trkpt>
      <trkpt lat="40.163433" lon="-5.285117">
        <ele>1954.0</ele>
        <time>2013-06-30T13:59:49Z</time>
      </trkpt>
      <trkpt lat="40.163517" lon="-5.285150">
        <ele>1956.0</ele>
        <time>2013-06-30T13:59:50Z</time>
      </trkpt>
      <trkpt lat="40.163617" lon="-5.285167">
        <ele>1959.0</ele>
        <time>2013-06-30T13:59:51Z</time>
      </trkpt>
      <trkpt lat="40.163683" lon="-5.285167">
        <ele>1962.0</ele>
        <time>2013-06-30T13:59:52Z</time>
      </trkpt>
      <trkpt lat="40.163767" lon="-5.285167">
        <ele>1965.0</ele>
        <time>2013-06-30T13:59:53Z</time>
      </trkpt>
      <trkpt lat="40.163833" lon="-5.285150">
        <ele>1967.0</ele>
        <time>2013-06-30T13:59:54Z</time>
      </trkpt>
      <trkpt lat="40.163917" lon="-5.285117">
        <ele>1970.0</ele>
        <time>2013-06-30T13:59:55Z</time>
      </trkpt>
      <trkpt lat="40.163967" lon="-5.285083">
        <ele>1973.0</ele>
        <time>2013-06-30T13:59:56Z</time>
      </trkpt>
      <trkpt lat="40.164000" lon="-5.285017">
        <ele>1975.0</ele>
        <time>2013-06-30T13:59:57Z</time>
      </trkpt>
      <trkpt lat="40.164017" lon="-5.284950">
        <ele>1977.0</ele>
        <time>2013-06-30T13:59:58Z</time>
      </trkpt>
      <trkpt lat="40.164017" lon="-5.284867">
        <ele>1979.0</ele>
        <time>2013-06-30T13:59:59Z</time>
      </trkpt>
      <trkpt lat="40.164000" lon="-5.284800">
        <ele>1982.0</ele>
        <time>2013-06-30T14:00:00Z</time>
      </trkpt>
      <trkpt lat="40.163950" lon="-5.284750">
        <ele>1985.0</ele>
        <time>2013-06-30T14:00:01Z</time>
      </trkpt>
      <trkpt lat="40.163900" lon="-5.284717">
        <ele>1987.0</ele>
        <time>2013-06-30T14:00:02Z</time>
      </trkpt>
      <trkpt lat="40.163850" lon="-5.284667">
        <ele>1990.0</ele>
        <time>2013-06-30T14:00:03Z</time>
      </trkpt>
      <trkpt lat="40.163800" lon="-5.284633">
        <ele>1992.0</ele>
        <time>2013-06-30T14:00:04Z</time>
      </trkpt>
      <trkpt lat="40.163733" lon="-5.284633">
        <ele>1994.0</ele>
        <time>2013-06-30T14:00:05Z</time>
      </trkpt>
      <trkpt lat="40.163650" lon="-5.284633">
        <ele>1996.0</ele>
        <time>2013-06-30T14:00:06Z</time>
      </trkpt>
      <trkpt lat="40.163583" lon="-5.284667">
        <ele>1998.0</ele>
        <time>2013-06-30T14:00:07Z</time>
      </trkpt>
      <trkpt lat="40.163533" lon="-5.284717">
        <ele>2000.0</ele>
        <time>2013-06-30T14:00:08Z</time>
      </trkpt>
      <trkpt lat="40.163483" lon="-5.284800">
        <ele>2002.0</ele>
        <time>2013-06-30T14:00:09Z</time>
      </trkpt>
      <trkpt lat="40.163433" lon="-5.284883">
        <ele>2005.0</ele>
        <time>2013-06-30T14:00:10Z</time>
      </trkpt>
      <trkpt lat="40.163417" lon="-5.285000">
        <ele>2007.0</ele>
        <time>2013-06-30T14:00:11Z</time>
      </trkpt>
      <trkpt lat="40.163400" lon="-5.285100">
        <ele>2011.0</ele>
        <time>2013-06-30T14:00:12Z</time>
      </trkpt>
      <trkpt lat="40.163417" lon="-5.285183">
        <ele>2014.0</ele>
        <time>2013-06-30T14:00:13Z</time>
      </trkpt>
      <trkpt lat="40.163467" lon="-5.285267">
        <ele>2017.0</ele>
        <time>2013-06-30T14:00:14Z</time>
      </trkpt>
      <trkpt lat="40.163517" lon="-5.285350">
        <ele>2018.0</ele>
        <time>2013-06-30T14:00:15Z</time>
      </trkpt>
      <trkpt lat="40.163567" lon="-5.285450">
        <ele>2020.0</ele>
        <time>2013-06-30T14:00:16Z</time>
      </trkpt>
      <trkpt lat="40.163633" lon="-5.285533">
        <ele>2023.0</ele>
        <time>2013-06-30T14:00:17Z</time>
      </trkpt>
      <trkpt lat="40.163717" lon="-5.285583">
        <ele>2025.0</ele>
        <time>2013-06-30T14:00:18Z</time>
      </trkpt>
      <trkpt lat="40.163817" lon="-5.285617">
        <ele>2026.0</ele>
        <time>2013-06-30T14:00:19Z</time>
      </trkpt>
      <trkpt lat="40.163917" lon="-5.285633">
        <ele>2028.0</ele>
        <time>2013-06-30T14:00:20Z</time>
      </trkpt>
      <trkpt lat="40.164000" lon="-5.285633">
        <ele>2031.0</ele>
        <time>2013-06-30T14:00:21Z</time>
      </trkpt>
      <trkpt lat="40.164067" lon="-5.285600">
        <ele>2034.0</ele>
        <time>2013-06-30T14:00:22Z</time>
      </trkpt>
      <trkpt lat="40.164133" lon="-5.285533">
        <ele>2036.0</ele>
        <time>2013-06-30T14:00:23Z</time>
      </trkpt>
      <trkpt lat="40.164183" lon="-5.285467">
        <ele>2039.0</ele>
        <time>2013-06-30T14:00:24Z</time>
      </trkpt>
      <trkpt lat="40.164217" lon="-5.285383">
        <ele>2041.0</ele>
        <time>2013-06-30T14:00:25Z</time>
      </trkpt>
      <trkpt lat="40.164217" lon="-5.285300">
        <ele>2044.0</ele>
        <time>2013-06-30T14:00:26Z</time>
      </trkpt>
      <trkpt lat="40.164200" lon="-5.285217">
        <ele>2046.0</ele>
        <time>2013-06-30T14:00:27Z</time>
      </trkpt>
      <trkpt lat="40.164167" lon="-5.285150">
        <ele>2048.0</ele>
        <time>2013-06-30T14:00:28Z</time>
      </trkpt>
      <trkpt lat="40.164133" lon="-5.285100">
        <ele>2049.0</ele>
        <time>2013-06-30T14:00:29Z</time>
      </trkpt>
      <trkpt lat="40.164067" lon="-5.285067">
        <ele>2051.0</ele>
        <time>2013-06-30T14:00:30Z</time>
      </trkpt>
      <trkpt lat="40.164017" lon="-5.285050">
        <ele>2052.0</ele>
        <time>2013-06-30T14:00:31Z</time>
      </trkpt>
      <trkpt lat="40.163950" lon="-5.285067">
        <ele>2054.0</ele>
        <time>2013-06-30T14:00:32Z</time>
      </trkpt>
      <trkpt lat="40.163883" lon="-5.285100">
        <ele>2055.0</ele>
        <time>2013-06-30T14:00:33Z</time>
      </trkpt>
      <trkpt lat="40.163817" lon="-5.285150">
        <ele>2057.0</ele>
        <time>2013-06-30T14:00:34Z</time>
      </trkpt>
      <trkpt lat="40.163767" lon="-5.285217">
        <ele>2059.0</ele>
        <time>2013-06-30T14:00:35Z</time>
      </trkpt>
      <trkpt lat="40.163733" lon="-5.285283">
        <ele>2061.0</ele>
        <time>2013-06-30T14:00:36Z</time>
      </trkpt>
      <trkpt lat="40.163700" lon="-5.285350">
        <ele>2063.0</ele>
        <time>2013-06-30T14:00:37Z</time>
      </trkpt>
      <trkpt lat="40.163667" lon="-5.285417">
        <ele>2064.0</ele>
        <time>2013-06-30T14:00:38Z</time>
      </trkpt>
      <trkpt lat="40.163650" lon="-5.285517">
        <ele>2064.0</ele>
        <time>2013-06-30T14:00:39Z</time>
      </trkpt>
      <trkpt lat="40.163633" lon="-5.285617">
        <ele>2065.0</ele>
        <time>2013-06-30T14:00:40Z</time>
      </trkpt>
      <trkpt lat="40.163650" lon="-5.285750">
        <ele>2065.0</ele>
        <time>2013-06-30T14:00:41Z</time>
      </trkpt>
      <trkpt lat="40.163700" lon="-5.285867">
        <ele>2065.0</ele>
        <time>2013-06-30T14:00:42Z</time>
      </trkpt>
      <trkpt lat="40.163767" lon="-5.286000">
        <ele>2066.0</ele>
        <time>2013-06-30T14:00:43Z</time>
      </trkpt>
      <trkpt lat="40.163850" lon="-5.286100">
        <ele>2068.0</ele>
        <time>2013-06-30T14:00:44Z</time>
      </trkpt>
      <trkpt lat="40.163933" lon="-5.286183">
        <ele>2070.0</ele>
        <time>2013-06-30T14:00:45Z</time>
      </trkpt>
      <trkpt lat="40.164017" lon="-5.286250">
        <ele>2072.0</ele>
        <time>2013-06-30T14:00:46Z</time>
      </trkpt>
      <trkpt lat="40.164100" lon="-5.286317">
        <ele>2074.0</ele>
        <time>2013-06-30T14:00:47Z</time>
      </trkpt>
      <trkpt lat="40.164200" lon="-5.286350">
        <ele>2076.0</ele>
        <time>2013-06-30T14:00:48Z</time>
      </trkpt>
      <trkpt lat="40.164300" lon="-5.286383">
        <ele>2077.0</ele>
        <time>2013-06-30T14:00:49Z</time>
      </trkpt>
      <trkpt lat="40.164383" lon="-5.286383">
        <ele>2079.0</ele>
        <time>2013-06-30T14:00:50Z</time>
      </trkpt>
      <trkpt lat="40.164483" lon="-5.286350">
        <ele>2080.0</ele>
        <time>2013-06-30T14:00:51Z</time>
      </trkpt>
      <trkpt lat="40.164567" lon="-5.286317">
        <ele>2083.0</ele>
        <time>2013-06-30T14:00:52Z</time>
      </trkpt>
      <trkpt lat="40.164617" lon="-5.286283">
        <ele>2085.0</ele>
        <time>2013-06-30T14:00:53Z</time>
      </trkpt>
      <trkpt lat="40.164683" lon="-5.286250">
        <ele>2088.0</ele>
        <time>2013-06-30T14:00:54Z</time>
      </trkpt>
      <trkpt lat="40.164733" lon="-5.286200">
        <ele>2090.0</ele>
        <time>2013-06-30T14:00:55Z</time>
      </trkpt>
      <trkpt lat="40.164783" lon="-5.286150">
        <ele>2093.0</ele>
        <time>2013-06-30T14:00:56Z</time>
      </trkpt>
      <trkpt lat="40.164833" lon="-5.286100">
        <ele>2094.0</ele>
        <time>2013-06-30T14:00:57Z</time>
      </trkpt>
      <trkpt lat="40.164867" lon="-5.286017">
        <ele>2096.0</ele>
        <time>2013-06-30T14:00:58Z</time>
      </trkpt>
      <trkpt lat="40.164883" lon="-5.285950">
        <ele>2097.0</ele>
        <time>2013-06-30T14:00:59Z</time>
      </trkpt>
      <trkpt lat="40.164867" lon="-5.285867">
        <ele>2097.0</ele>
        <time>2013-06-30T14:01:00Z</time>
      </trkpt>
      <trkpt lat="40.164833" lon="-5.285800">
        <ele>2099.0</ele>
        <time>2013-06-30T14:01:01Z</time>
      </trkpt>
      <trkpt lat="40.164817" lon="-5.285733">
        <ele>2100.0</ele>
        <time>2013-06-30T14:01:02Z</time>
      </trkpt>
      <trkpt lat="40.164800" lon="-5.285667">
        <ele>2101.0</ele>
        <time>2013-06-30T14:01:03Z</time>
      </trkpt>
      <trkpt lat="40.164800" lon="-5.285583">
        <ele>2103.0</ele>
        <time>2013-06-30T14:01:04Z</time>
      </trkpt>
      <trkpt lat="40.164767" lon="-5.285500">
        <ele>2103.0</ele>
        <time>2013-06-30T14:01:05Z</time>
      </trkpt>
      <trkpt lat="40.164750" lon="-5.285417">
        <ele>2104.0</ele>
        <time>2013-06-30T14:01:06Z</time>
      </trkpt>
      <trkpt lat="40.164750" lon="-5.285333">
        <ele>2104.0</ele>
        <time>2013-06-30T14:01:07Z</time>
      </trkpt>
      <trkpt lat="40.164750" lon="-5.285233">
        <ele>2107.0</ele>
        <time>2013-06-30T14:01:08Z</time>
      </trkpt>
      <trkpt lat="40.164733" lon="-5.285183">
        <ele>2108.0</ele>
        <time>2013-06-30T14:01:09Z</time>
      </trkpt>
      <trkpt lat="40.164717" lon="-5.285133">
        <ele>2109.0</ele>
        <time>2013-06-30T14:01:10Z</time>
      </trkpt>
      <trkpt lat="40.164650" lon="-5.285100">
        <ele>2108.0</ele>
        <time>2013-06-30T14:01:11Z</time>
      </trkpt>
      <trkpt lat="40.164583" lon="-5.285083">
        <ele>2109.0</ele>
        <time>2013-06-30T14:01:12Z</time>
      </trkpt>
      <trkpt lat="40.164517" lon="-5.285083">
        <ele>2110.0</ele>
        <time>2013-06-30T14:01:13Z</time>
      </trkpt>
      <trkpt lat="40.164450" lon="-5.285100">
        <ele>2112.0</ele>
        <time>2013-06-30T14:01:14Z</time>
      </trkpt>
      <trkpt lat="40.164400" lon="-5.285150">
        <ele>2114.0</ele>
        <time>2013-06-30T14:01:15Z</time>
      </trkpt>
      <trkpt lat="40.164367" lon="-5.285183">
        <ele>2116.0</ele>
        <time>2013-06-30T14:01:16Z</time>
      </trkpt>
      <trkpt lat="40.164333" lon="-5.285233">
        <ele>2116.0</ele>
        <time>2013-06-30T14:01:17Z</time>
      </trkpt>
      <trkpt lat="40.164300" lon="-5.285300">
        <ele>2117.0</ele>
        <time>2013-06-30T14:01:18Z</time>
      </trkpt>
      <trkpt lat="40.164267" lon="-5.285383">
        <ele>2117.0</ele>
        <time>2013-06-30T14:01:19Z</time>
      </trkpt>
      <trkpt lat="40.164233" lon="-5.285500">
        <ele>2116.0</ele>
        <time>2013-06-30T14:01:20Z</time>
      </trkpt>
      <trkpt lat="40.164217" lon="-5.285617">
        <ele>2116.0</ele>
        <time>2013-06-30T14:01:21Z</time>
      </trkpt>
      <trkpt lat="40.164217" lon="-5.285733">
        <ele>2118.0</ele>
        <time>2013-06-30T14:01:22Z</time>
      </trkpt>
      <trkpt lat="40.164217" lon="-5.285850">
        <ele>2119.0</ele>
        <time>2013-06-30T14:01:23Z</time>
      </trkpt>
      <trkpt lat="40.164217" lon="-5.285950">
        <ele>2120.0</ele>
        <time>2013-06-30T14:01:24Z</time>
      </trkpt>
      <trkpt lat="40.164233" lon="-5.286067">
        <ele>2120.0</ele>
        <time>2013-06-30T14:01:25Z</time>
      </trkpt>
      <trkpt lat="40.164233" lon="-5.286200">
        <ele>2120.0</ele>
        <time>2013-06-30T14:01:26Z</time>
      </trkpt>
      <trkpt lat="40.164233" lon="-5.286333">
        <ele>2121.0</ele>
        <time>2013-06-30T14:01:27Z</time>
      </trkpt>
      <trkpt lat="40.164250" lon="-5.286467">
        <ele>2122.0</ele>
        <time>2013-06-30T14:01:28Z</time>
      </trkpt>
      <trkpt lat="40.164267" lon="-5.286583">
        <ele>2123.0</ele>
        <time>2013-06-30T14:01:29Z</time>
      </trkpt>
      <trkpt lat="40.164267" lon="-5.286700">
        <ele>2124.0</ele>
        <time>2013-06-30T14:01:30Z</time>
      </trkpt>
      <trkpt lat="40.164283" lon="-5.286833">
        <ele>2124.0</ele>
        <time>2013-06-30T14:01:31Z</time>
      </trkpt>
      <trkpt lat="40.164283" lon="-5.286950">
        <ele>2126.0</ele>
        <time>2013-06-30T14:01:32Z</time>
      </trkpt>
      <trkpt lat="40.164283" lon="-5.287083">
        <ele>2127.0</ele>
        <time>2013-06-30T14:01:33Z</time>
      </trkpt>
      <trkpt lat="40.164283" lon="-5.287200">
        <ele>2128.0</ele>
        <time>2013-06-30T14:01:34Z</time>
      </trkpt>
      <trkpt lat="40.164300" lon="-5.287317">
        <ele>2129.0</ele>
        <time>2013-06-30T14:01:35Z</time>
      </trkpt>
      <trkpt lat="40.164300" lon="-5.287450">
        <ele>2130.0</ele>
        <time>2013-06-30T14:01:36Z</time>
      </trkpt>
      <trkpt lat="40.164300" lon="-5.287583">
        <ele>2130.0</ele>
        <time>2013-06-30T14:01:37Z</time>
      </trkpt>
      <trkpt lat="40.164300" lon="-5.287717">
        <ele>2131.0</ele>
        <time>2013-06-30T14:01:38Z</time>
      </trkpt>
      <trkpt lat="40.164300" lon="-5.287833">
        <ele>2133.0</ele>
        <time>2013-06-30T14:01:39Z</time>
      </trkpt>
      <trkpt lat="40.164317" lon="-5.287950">
        <ele>2136.0</ele>
        <time>2013-06-30T14:01:40Z</time>
      </trkpt>
      <trkpt lat="40.164317" lon="-5.288033">
        <ele>2138.0</ele>
        <time>2013-06-30T14:01:41Z</time>
      </trkpt>
      <trkpt lat="40.164333" lon="-5.288100">
        <ele>2138.0</ele>
        <time>2013-06-30T14:01:42Z</time>
      </trkpt>
      <trkpt lat="40.164350" lon="-5.288167">
        <ele>2138.0</ele>
        <time>2013-06-30T14:01:43Z</time>
      </trkpt>
      <trkpt lat="40.164350" lon="-5.288267">
        <ele>2135.0</ele>
        <time>2013-06-30T14:01:44Z</time>
      </trkpt>
      <trkpt lat="40.164333" lon="-5.288350">
        <ele>2134.0</ele>
        <time>2013-06-30T14:01:45Z</time>
      </trkpt>
      <trkpt lat="40.164283" lon="-5.288433">
        <ele>2134.0</ele>
        <time>2013-06-30T14:01:46Z</time>
      </trkpt>
      <trkpt lat="40.164233" lon="-5.288483">
        <ele>2135.0</ele>
        <time>2013-06-30T14:01:47Z</time>
      </trkpt>
      <trkpt lat="40.164167" lon="-5.288517">
        <ele>2136.0</ele>
        <time>2013-06-30T14:01:48Z</time>
      </trkpt>
      <trkpt lat="40.164133" lon="-5.288533">
        <ele>2137.0</ele>
        <time>2013-06-30T14:01:49Z</time>
      </trkpt>
      <trkpt lat="40.164083" lon="-5.288567">
        <ele>2138.0</ele>
        <time>2013-06-30T14:01:50Z</time>
      </trkpt>
      <trkpt lat="40.164033" lon="-5.288600">
        <ele>2138.0</ele>
        <time>2013-06-30T14:01:51Z</time>
      </trkpt>
      <trkpt lat="40.163983" lon="-5.288633">
        <ele>2138.0</ele>
        <time>2013-06-30T14:01:52Z</time>
      </trkpt>
      <trkpt lat="40.163933" lon="-5.288667">
        <ele>2137.0</ele>
        <time>2013-06-30T14:01:53Z</time>
      </trkpt>
      <trkpt lat="40.163867" lon="-5.288700">
        <ele>2136.0</ele>
        <time>2013-06-30T14:01:54Z</time>
      </trkpt>
      <trkpt lat="40.163800" lon="-5.288733">
        <ele>2135.0</ele>
        <time>2013-06-30T14:01:55Z</time>
      </trkpt>
      <trkpt lat="40.163733" lon="-5.288767">
        <ele>2134.0</ele>
        <time>2013-06-30T14:01:56Z</time>
      </trkpt>
      <trkpt lat="40.163667" lon="-5.288800">
        <ele>2134.0</ele>
        <time>2013-06-30T14:01:57Z</time>
      </trkpt>
      <trkpt lat="40.163600" lon="-5.288817">
        <ele>2133.0</ele>
        <time>2013-06-30T14:01:58Z</time>
      </trkpt>
      <trkpt lat="40.163517" lon="-5.288833">
        <ele>2133.0</ele>
        <time>2013-06-30T14:01:59Z</time>
      </trkpt>
      <trkpt lat="40.163417" lon="-5.288883">
        <ele>2133.0</ele>
        <time>2013-06-30T14:02:00Z</time>
      </trkpt>
      <trkpt lat="40.163333" lon="-5.288967">
        <ele>2134.0</ele>
        <time>2013-06-30T14:02:01Z</time>
      </trkpt>
      <trkpt lat="40.163267" lon="-5.289067">
        <ele>2135.0</ele>
        <time>2013-06-30T14:02:02Z</time>
      </trkpt>
      <trkpt lat="40.163217" lon="-5.289150">
        <ele>2137.0</ele>
        <time>2013-06-30T14:02:03Z</time>
      </trkpt>
      <trkpt lat="40.163167" lon="-5.289217">
        <ele>2139.0</ele>
        <time>2013-06-30T14:02:04Z</time>
      </trkpt>
      <trkpt lat="40.163117" lon="-5.289283">
        <ele>2140.0</ele>
        <time>2013-06-30T14:02:05Z</time>
      </trkpt>
      <trkpt lat="40.163050" lon="-5.289317">
        <ele>2141.0</ele>
        <time>2013-06-30T14:02:06Z</time>
      </trkpt>
      <trkpt lat="40.162983" lon="-5.289350">
        <ele>2140.0</ele>
        <time>2013-06-30T14:02:07Z</time>
      </trkpt>
      <trkpt lat="40.162900" lon="-5.289350">
        <ele>2140.0</ele>
        <time>2013-06-30T14:02:08Z</time>
      </trkpt>
      <trkpt lat="40.162833" lon="-5.289333">
        <ele>2139.0</ele>
        <time>2013-06-30T14:02:09Z</time>
      </trkpt>
      <trkpt lat="40.162783" lon="-5.289283">
        <ele>2139.0</ele>
        <time>2013-06-30T14:02:10Z</time>
      </trkpt>
      <trkpt lat="40.162750" lon="-5.289217">
        <ele>2138.0</ele>
        <time>2013-06-30T14:02:11Z</time>
      </trkpt>
      <trkpt lat="40.162750" lon="-5.289133">
        <ele>2137.0</ele>
        <time>2013-06-30T14:02:12Z</time>
      </trkpt>
      <trkpt lat="40.162800" lon="-5.289050">
        <ele>2135.0</ele>
        <time>2013-06-30T14:02:13Z</time>
      </trkpt>
      <trkpt lat="40.162867" lon="-5.289000">
        <ele>2134.0</ele>
        <time>2013-06-30T14:02:14Z</time>
      </trkpt>
      <trkpt lat="40.162967" lon="-5.288983">
        <ele>2133.0</ele>
        <time>2013-06-30T14:02:15Z</time>
      </trkpt>
      <trkpt lat="40.163050" lon="-5.289017">
        <ele>2133.0</ele>
        <time>2013-06-30T14:02:16Z</time>
      </trkpt>
      <trkpt lat="40.163117" lon="-5.289067">
        <ele>2132.0</ele>
        <time>2013-06-30T14:02:17Z</time>
      </trkpt>
      <trkpt lat="40.163200" lon="-5.289150">
        <ele>2131.0</ele>
        <time>2013-06-30T14:02:18Z</time>
      </trkpt>
      <trkpt lat="40.163250" lon="-5.289250">
        <ele>2131.0</ele>
        <time>2013-06-30T14:02:19Z</time>
      </trkpt>
      <trkpt lat="40.163283" lon="-5.289367">
        <ele>2130.0</ele>
        <time>2013-06-30T14:02:20Z</time>
      </trkpt>
      <trkpt lat="40.163267" lon="-5.289500">
        <ele>2129.0</ele>
        <time>2013-06-30T14:02:21Z</time>
      </trkpt>
      <trkpt lat="40.163217" lon="-5.289633">
        <ele>2128.0</ele>
        <time>2013-06-30T14:02:22Z</time>
      </trkpt>
      <trkpt lat="40.163150" lon="-5.289750">
        <ele>2130.0</ele>
        <time>2013-06-30T14:02:23Z</time>
      </trkpt>
      <trkpt lat="40.163083" lon="-5.289867">
        <ele>2131.0</ele>
        <time>2013-06-30T14:02:24Z</time>
      </trkpt>
      <trkpt lat="40.163017" lon="-5.289950">
        <ele>2132.0</ele>
        <time>2013-06-30T14:02:25Z</time>
      </trkpt>
      <trkpt lat="40.162967" lon="-5.290050">
        <ele>2133.0</ele>
        <time>2013-06-30T14:02:26Z</time>
      </trkpt>
      <trkpt lat="40.162900" lon="-5.290150">
        <ele>2134.0</ele>
        <time>2013-06-30T14:02:27Z</time>
      </trkpt>
      <trkpt lat="40.162817" lon="-5.290267">
        <ele>2135.0</ele>
        <time>2013-06-30T14:02:28Z</time>
      </trkpt>
      <trkpt lat="40.162750" lon="-5.290350">
        <ele>2137.0</ele>
        <time>2013-06-30T14:02:29Z</time>
      </trkpt>
      <trkpt lat="40.162667" lon="-5.290450">
        <ele>2139.0</ele>
        <time>2013-06-30T14:02:30Z</time>
      </trkpt>
      <trkpt lat="40.162583" lon="-5.290517">
        <ele>2141.0</ele>
        <time>2013-06-30T14:02:31Z</time>
      </trkpt>
      <trkpt lat="40.162500" lon="-5.290617">
        <ele>2143.0</ele>
        <time>2013-06-30T14:02:32Z</time>
      </trkpt>
      <trkpt lat="40.162433" lon="-5.290700">
        <ele>2146.0</ele>
        <time>2013-06-30T14:02:33Z</time>
      </trkpt>
      <trkpt lat="40.162383" lon="-5.290767">
        <ele>2149.0</ele>
        <time>2013-06-30T14:02:34Z</time>
      </trkpt>
      <trkpt lat="40.162333" lon="-5.290833">
        <ele>2151.0</ele>
        <time>2013-06-30T14:02:35Z</time>
      </trkpt>
      <trkpt lat="40.162283" lon="-5.290883">
        <ele>2150.0</ele>
        <time>2013-06-30T14:02:36Z</time>
      </trkpt>
      <trkpt lat="40.162217" lon="-5.290933">
        <ele>2149.0</ele>
        <time>2013-06-30T14:02:37Z</time>
      </trkpt>
      <trkpt lat="40.162133" lon="-5.290967">
        <ele>2148.0</ele>
        <time>2013-06-30T14:02:38Z</time>
      </trkpt>
      <trkpt lat="40.162050" lon="-5.290983">
        <ele>2148.0</ele>
        <time>2013-06-30T14:02:39Z</time>
      </trkpt>
      <trkpt lat="40.161983" lon="-5.290983">
        <ele>2149.0</ele>
        <time>2013-06-30T14:02:40Z</time>
      </trkpt>
      <trkpt lat="40.161917" lon="-5.290967">
        <ele>2148.0</ele>
        <time>2013-06-30T14:02:41Z</time>
      </trkpt>
      <trkpt lat="40.161850" lon="-5.290967">
        <ele>2148.0</ele>
        <time>2013-06-30T14:02:42Z</time>
      </trkpt>
      <trkpt lat="40.161783" lon="-5.290967">
        <ele>2148.0</ele>
        <time>2013-06-30T14:02:43Z</time>
      </trkpt>
      <trkpt lat="40.161700" lon="-5.290967">
        <ele>2148.0</ele>
        <time>2013-06-30T14:02:44Z</time>
      </trkpt>
      <trkpt lat="40.161633" lon="-5.290983">
        <ele>2148.0</ele>
        <time>2013-06-30T14:02:45Z</time>
      </trkpt>
      <trkpt lat="40.161550" lon="-5.291033">
        <ele>2149.0</ele>
        <time>2013-06-30T14:02:46Z</time>
      </trkpt>
      <trkpt lat="40.161483" lon="-5.291083">
        <ele>2149.0</ele>
        <time>2013-06-30T14:02:47Z</time>
      </trkpt>
      <trkpt lat="40.161400" lon="-5.291167">
        <ele>2150.0</ele>
        <time>2013-06-30T14:02:48Z</time>
      </trkpt>
      <trkpt lat="40.161333" lon="-5.291250">
        <ele>2151.0</ele>
        <time>2013-06-30T14:02:49Z</time>
      </trkpt>
      <trkpt lat="40.161283" lon="-5.291317">
        <ele>2152.0</ele>
        <time>2013-06-30T14:02:50Z</time>
      </trkpt>
      <trkpt lat="40.161233" lon="-5.291400">
        <ele>2154.0</ele>
        <time>2013-06-30T14:02:51Z</time>
      </trkpt>
      <trkpt lat="40.161200" lon="-5.291500">
        <ele>2155.0</ele>
        <time>2013-06-30T14:02:52Z</time>
      </trkpt>
      <trkpt lat="40.161183" lon="-5.291633">
        <ele>2156.0</ele>
        <time>2013-06-30T14:02:53Z</time>
      </trkpt>
      <trkpt lat="40.161167" lon="-5.291767">
        <ele>2156.0</ele>
        <time>2013-06-30T14:02:54Z</time>
      </trkpt>
      <trkpt lat="40.161183" lon="-5.291900">
        <ele>2156.0</ele>
        <time>2013-06-30T14:02:55Z</time>
      </trkpt>
      <trkpt lat="40.161233" lon="-5.292017">
        <ele>2155.0</ele>
        <time>2013-06-30T14:02:56Z</time>
      </trkpt>
      <trkpt lat="40.161283" lon="-5.292133">
        <ele>2155.0</ele>
        <time>2013-06-30T14:02:57Z</time>
      </trkpt>
      <trkpt lat="40.161350" lon="-5.292233">
        <ele>2155.0</ele>
        <time>2013-06-30T14:02:58Z</time>
      </trkpt>
      <trkpt lat="40.161417" lon="-5.292317">
        <ele>2154.0</ele>
        <time>2013-06-30T14:02:59Z</time>
      </trkpt>
      <trkpt lat="40.161500" lon="-5.292400">
        <ele>2151.0</ele>
        <time>2013-06-30T14:03:00Z</time>
      </trkpt>
      <trkpt lat="40.161583" lon="-5.292450">
        <ele>2149.0</ele>
        <time>2013-06-30T14:03:01Z</time>
      </trkpt>
      <trkpt lat="40.161667" lon="-5.292500">
        <ele>2149.0</ele>
        <time>2013-06-30T14:03:02Z</time>
      </trkpt>
      <trkpt lat="40.161733" lon="-5.292517">
        <ele>2148.0</ele>
        <time>2013-06-30T14:03:03Z</time>
      </trkpt>
      <trkpt lat="40.161783" lon="-5.292483">
        <ele>2147.0</ele>
        <time>2013-06-30T14:03:04Z</time>
      </trkpt>
      <trkpt lat="40.161800" lon="-5.292417">
        <ele>2144.0</ele>
        <time>2013-06-30T14:03:05Z</time>
      </trkpt>
      <trkpt lat="40.161800" lon="-5.292350">
        <ele>2142.0</ele>
        <time>2013-06-30T14:03:06Z</time>
      </trkpt>
      <trkpt lat="40.161767" lon="-5.292283">
        <ele>2142.0</ele>
        <time>2013-06-30T14:03:07Z</time>
      </trkpt>
      <trkpt lat="40.161700" lon="-5.292233">
        <ele>2141.0</ele>
        <time>2013-06-30T14:03:08Z</time>
      </trkpt>
      <trkpt lat="40.161617" lon="-5.292233">
        <ele>2140.0</ele>
        <time>2013-06-30T14:03:09Z</time>
      </trkpt>
      <trkpt lat="40.161517" lon="-5.292267">
        <ele>2138.0</ele>
        <time>2013-06-30T14:03:10Z</time>
      </trkpt>
      <trkpt lat="40.161417" lon="-5.292317">
        <ele>2138.0</ele>
        <time>2013-06-30T14:03:11Z</time>
      </trkpt>
      <trkpt lat="40.161317" lon="-5.292367">
        <ele>2139.0</ele>
        <time>2013-06-30T14:03:12Z</time>
      </trkpt>
      <trkpt lat="40.161233" lon="-5.292417">
        <ele>2143.0</ele>
        <time>2013-06-30T14:03:13Z</time>
      </trkpt>
      <trkpt lat="40.161150" lon="-5.292450">
        <ele>2145.0</ele>
        <time>2013-06-30T14:03:14Z</time>
      </trkpt>
      <trkpt lat="40.161067" lon="-5.292500">
        <ele>2145.0</ele>
        <time>2013-06-30T14:03:15Z</time>
      </trkpt>
      <trkpt lat="40.160983" lon="-5.292550">
        <ele>2145.0</ele>
        <time>2013-06-30T14:03:16Z</time>
      </trkpt>
      <trkpt lat="40.160900" lon="-5.292600">
        <ele>2145.0</ele>
        <time>2013-06-30T14:03:17Z</time>
      </trkpt>
      <trkpt lat="40.160800" lon="-5.292667">
        <ele>2146.0</ele>
        <time>2013-06-30T14:03:18Z</time>
      </trkpt>
      <trkpt lat="40.160700" lon="-5.292717">
        <ele>2148.0</ele>
        <time>2013-06-30T14:03:19Z</time>
      </trkpt>
      <trkpt lat="40.160617" lon="-5.292783">
        <ele>2149.0</ele>
        <time>2013-06-30T14:03:20Z</time>
      </trkpt>
      <trkpt lat="40.160533" lon="-5.292883">
        <ele>2150.0</ele>
        <time>2013-06-30T14:03:21Z</time>
      </trkpt>
      <trkpt lat="40.160467" lon="-5.293000">
        <ele>2151.0</ele>
        <time>2013-06-30T14:03:22Z</time>
      </trkpt>
      <trkpt lat="40.160383" lon="-5.293117">
        <ele>2151.0</ele>
        <time>2013-06-30T14:03:23Z</time>
      </trkpt>
      <trkpt lat="40.160317" lon="-5.293217">
        <ele>2152.0</ele>
        <time>2013-06-30T14:03:24Z</time>
      </trkpt>
      <trkpt lat="40.160233" lon="-5.293317">
        <ele>2153.0</ele>
        <time>2013-06-30T14:03:25Z</time>
      </trkpt>
      <trkpt lat="40.160183" lon="-5.293400">
        <ele>2153.0</ele>
        <time>2013-06-30T14:03:26Z</time>
      </trkpt>
      <trkpt lat="40.160117" lon="-5.293500">
        <ele>2153.0</ele>
        <time>2013-06-30T14:03:27Z</time>
      </trkpt>
      <trkpt lat="40.160050" lon="-5.293600">
        <ele>2151.0</ele>
        <time>2013-06-30T14:03:28Z</time>
      </trkpt>
      <trkpt lat="40.159967" lon="-5.293700">
        <ele>2150.0</ele>
        <time>2013-06-30T14:03:29Z</time>
      </trkpt>
      <trkpt lat="40.159867" lon="-5.293800">
        <ele>2147.0</ele>
        <time>2013-06-30T14:03:30Z</time>
      </trkpt>
      <trkpt lat="40.159767" lon="-5.293917">
        <ele>2146.0</ele>
        <time>2013-06-30T14:03:31Z</time>
      </trkpt>
      <trkpt lat="40.159683" lon="-5.294033">
        <ele>2147.0</ele>
        <time>2013-06-30T14:03:32Z</time>
      </trkpt>
      <trkpt lat="40.159617" lon="-5.294133">
        <ele>2147.0</ele>
        <time>2013-06-30T14:03:33Z</time>
      </trkpt>
      <trkpt lat="40.159533" lon="-5.294233">
        <ele>2147.0</ele>
        <time>2013-06-30T14:03:34Z</time>
      </trkpt>
      <trkpt lat="40.159450" lon="-5.294333">
        <ele>2146.0</ele>
        <time>2013-06-30T14:03:35Z</time>
      </trkpt>
      <trkpt lat="40.159367" lon="-5.294417">
        <ele>2145.0</ele>
        <time>2013-06-30T14:03:36Z</time>
      </trkpt>
      <trkpt lat="40.159267" lon="-5.294517">
        <ele>2144.0</ele>
        <time>2013-06-30T14:03:37Z</time>
      </trkpt>
      <trkpt lat="40.159183" lon="-5.294633">
        <ele>2143.0</ele>
        <time>2013-06-30T14:03:38Z</time>
      </trkpt>
      <trkpt lat="40.159100" lon="-5.294750">
        <ele>2143.0</ele>
        <time>2013-06-30T14:03:39Z</time>
      </trkpt>
      <trkpt lat="40.159017" lon="-5.294867">
        <ele>2142.0</ele>
        <time>2013-06-30T14:03:40Z</time>
      </trkpt>
      <trkpt lat="40.158933" lon="-5.294967">
        <ele>2140.0</ele>
        <time>2013-06-30T14:03:41Z</time>
      </trkpt>
      <trkpt lat="40.158833" lon="-5.295083">
        <ele>2139.0</ele>
        <time>2013-06-30T14:03:42Z</time>
      </trkpt>
      <trkpt lat="40.158750" lon="-5.295200">
        <ele>2137.0</ele>
        <time>2013-06-30T14:03:43Z</time>
      </trkpt>
      <trkpt lat="40.158650" lon="-5.295317">
        <ele>2136.0</ele>
        <time>2013-06-30T14:03:44Z</time>
      </trkpt>
      <trkpt lat="40.158567" lon="-5.295433">
        <ele>2136.0</ele>
        <time>2013-06-30T14:03:45Z</time>
      </trkpt>
      <trkpt lat="40.158483" lon="-5.295550">
        <ele>2135.0</ele>
        <time>2013-06-30T14:03:46Z</time>
      </trkpt>
      <trkpt lat="40.158417" lon="-5.295650">
        <ele>2133.0</ele>
        <time>2013-06-30T14:03:47Z</time>
      </trkpt>
      <trkpt lat="40.158333" lon="-5.295767">
        <ele>2130.0</ele>
        <time>2013-06-30T14:03:48Z</time>
      </trkpt>
      <trkpt lat="40.158250" lon="-5.295883">
        <ele>2128.0</ele>
        <time>2013-06-30T14:03:49Z</time>
      </trkpt>
      <trkpt lat="40.158167" lon="-5.296000">
        <ele>2125.0</ele>
        <time>2013-06-30T14:03:50Z</time>
      </trkpt>
      <trkpt lat="40.158083" lon="-5.296133">
        <ele>2124.0</ele>
        <time>2013-06-30T14:03:51Z</time>
      </trkpt>
      <trkpt lat="40.158017" lon="-5.296267">
        <ele>2123.0</ele>
        <time>2013-06-30T14:03:52Z</time>
      </trkpt>
      <trkpt lat="40.157950" lon="-5.296400">
        <ele>2123.0</ele>
        <time>2013-06-30T14:03:53Z</time>
      </trkpt>
      <trkpt lat="40.157883" lon="-5.296533">
        <ele>2122.0</ele>
        <time>2013-06-30T14:03:54Z</time>
      </trkpt>
      <trkpt lat="40.157817" lon="-5.296650">
        <ele>2121.0</ele>
        <time>2013-06-30T14:03:55Z</time>
      </trkpt>
      <trkpt lat="40.157733" lon="-5.296783">
        <ele>2120.0</ele>
        <time>2013-06-30T14:03:56Z</time>
      </trkpt>
      <trkpt lat="40.157650" lon="-5.296883">
        <ele>2118.0</ele>
        <time>2013-06-30T14:03:57Z</time>
      </trkpt>
      <trkpt lat="40.157583" lon="-5.297000">
        <ele>2116.0</ele>
        <time>2013-06-30T14:03:58Z</time>
      </trkpt>
      <trkpt lat="40.157500" lon="-5.297133">
        <ele>2114.0</ele>
        <time>2013-06-30T14:03:59Z</time>
      </trkpt>
      <trkpt lat="40.157417" lon="-5.297267">
        <ele>2111.0</ele>
        <time>2013-06-30T14:04:00Z</time>
      </trkpt>
      <trkpt lat="40.157333" lon="-5.297383">
        <ele>2109.0</ele>
        <time>2013-06-30T14:04:01Z</time>
      </trkpt>
      <trkpt lat="40.157250" lon="-5.297483">
        <ele>2106.0</ele>
        <time>2013-06-30T14:04:02Z</time>
      </trkpt>
      <trkpt lat="40.157167" lon="-5.297567">
        <ele>2103.0</ele>
        <time>2013-06-30T14:04:03Z</time>
      </trkpt>
      <trkpt lat="40.157083" lon="-5.297683">
        <ele>2101.0</ele>
        <time>2013-06-30T14:04:04Z</time>
      </trkpt>
      <trkpt lat="40.157000" lon="-5.297800">
        <ele>2098.0</ele>
        <time>2013-06-30T14:04:05Z</time>
      </trkpt>
      <trkpt lat="40.156900" lon="-5.297917">
        <ele>2095.0</ele>
        <time>2013-06-30T14:04:06Z</time>
      </trkpt>
      <trkpt lat="40.156800" lon="-5.298017">
        <ele>2092.0</ele>
        <time>2013-06-30T14:04:07Z</time>
      </trkpt>
      <trkpt lat="40.156700" lon="-5.298133">
        <ele>2090.0</ele>
        <time>2013-06-30T14:04:08Z</time>
      </trkpt>
      <trkpt lat="40.156600" lon="-5.298233">
        <ele>2089.0</ele>
        <time>2013-06-30T14:04:09Z</time>
      </trkpt>
      <trkpt lat="40.156517" lon="-5.298333">
        <ele>2087.0</ele>
        <time>2013-06-30T14:04:10Z</time>
      </trkpt>
      <trkpt lat="40.156433" lon="-5.298433">
        <ele>2085.0</ele>
        <time>2013-06-30T14:04:11Z</time>
      </trkpt>
      <trkpt lat="40.156350" lon="-5.298533">
        <ele>2083.0</ele>
        <time>2013-06-30T14:04:12Z</time>
      </trkpt>
      <trkpt lat="40.156250" lon="-5.298633">
        <ele>2079.0</ele>
        <time>2013-06-30T14:04:13Z</time>
      </trkpt>
      <trkpt lat="40.156150" lon="-5.298750">
        <ele>2075.0</ele>
        <time>2013-06-30T14:04:14Z</time>
      </trkpt>
      <trkpt lat="40.156050" lon="-5.298833">
        <ele>2073.0</ele>
        <time>2013-06-30T14:04:15Z</time>
      </trkpt>
      <trkpt lat="40.155950" lon="-5.298917">
        <ele>2072.0</ele>
        <time>2013-06-30T14:04:16Z</time>
      </trkpt>
      <trkpt lat="40.155850" lon="-5.298983">
        <ele>2071.0</ele>
        <time>2013-06-30T14:04:17Z</time>
      </trkpt>
      <trkpt lat="40.155783" lon="-5.299050">
        <ele>2070.0</ele>
        <time>2013-06-30T14:04:18Z</time>
      </trkpt>
      <trkpt lat="40.155700" lon="-5.299117">
        <ele>2066.0</ele>
        <time>2013-06-30T14:04:19Z</time>
      </trkpt>
      <trkpt lat="40.155617" lon="-5.299183">
        <ele>2061.0</ele>
        <time>2013-06-30T14:04:20Z</time>
      </trkpt>
      <trkpt lat="40.155517" lon="-5.299283">
        <ele>2056.0</ele>
        <time>2013-06-30T14:04:21Z</time>
      </trkpt>
      <trkpt lat="40.155400" lon="-5.299383">
        <ele>2052.0</ele>
        <time>2013-06-30T14:04:22Z</time>
      </trkpt>
      <trkpt lat="40.155300" lon="-5.299500">
        <ele>2049.0</ele>
        <time>2013-06-30T14:04:23Z</time>
      </trkpt>
      <trkpt lat="40.155200" lon="-5.299600">
        <ele>2048.0</ele>
        <time>2013-06-30T14:04:24Z</time>
      </trkpt>
      <trkpt lat="40.155117" lon="-5.299700">
        <ele>2045.0</ele>
        <time>2013-06-30T14:04:25Z</time>
      </trkpt>
      <trkpt lat="40.155033" lon="-5.299800">
        <ele>2042.0</ele>
        <time>2013-06-30T14:04:26Z</time>
      </trkpt>
      <trkpt lat="40.154933" lon="-5.299917">
        <ele>2039.0</ele>
        <time>2013-06-30T14:04:27Z</time>
      </trkpt>
      <trkpt lat="40.154833" lon="-5.300033">
        <ele>2034.0</ele>
        <time>2013-06-30T14:04:28Z</time>
      </trkpt>
      <trkpt lat="40.154733" lon="-5.300167">
        <ele>2031.0</ele>
        <time>2013-06-30T14:04:29Z</time>
      </trkpt>
      <trkpt lat="40.154633" lon="-5.300300">
        <ele>2029.0</ele>
        <time>2013-06-30T14:04:30Z</time>
      </trkpt>
      <trkpt lat="40.154550" lon="-5.300433">
        <ele>2028.0</ele>
        <time>2013-06-30T14:04:31Z</time>
      </trkpt>
      <trkpt lat="40.154483" lon="-5.300550">
        <ele>2026.0</ele>
        <time>2013-06-30T14:04:32Z</time>
      </trkpt>
      <trkpt lat="40.154400" lon="-5.300667">
        <ele>2023.0</ele>
        <time>2013-06-30T14:04:33Z</time>
      </trkpt>
      <trkpt lat="40.154317" lon="-5.300767">
        <ele>2019.0</ele>
        <time>2013-06-30T14:04:34Z</time>
      </trkpt>
      <trkpt lat="40.154217" lon="-5.300900">
        <ele>2015.0</ele>
        <time>2013-06-30T14:04:35Z</time>
      </trkpt>
      <trkpt lat="40.154133" lon="-5.301033">
        <ele>2011.0</ele>
        <time>2013-06-30T14:04:36Z</time>
      </trkpt>
      <trkpt lat="40.154050" lon="-5.301183">
        <ele>2009.0</ele>
        <time>2013-06-30T14:04:37Z</time>
      </trkpt>
      <trkpt lat="40.153967" lon="-5.301317">
        <ele>2008.0</ele>
        <time>2013-06-30T14:04:38Z</time>
      </trkpt>
      <trkpt lat="40.153900" lon="-5.301433">
        <ele>2006.0</ele>
        <time>2013-06-30T14:04:39Z</time>
      </trkpt>
      <trkpt lat="40.153833" lon="-5.301533">
        <ele>2004.0</ele>
        <time>2013-06-30T14:04:40Z</time>
      </trkpt>
      <trkpt lat="40.153767" lon="-5.301650">
        <ele>2000.0</ele>
        <time>2013-06-30T14:04:41Z</time>
      </trkpt>
      <trkpt lat="40.153683" lon="-5.301783">
        <ele>1996.0</ele>
        <time>2013-06-30T14:04:42Z</time>
      </trkpt>
      <trkpt lat="40.153633" lon="-5.301950">
        <ele>1993.0</ele>
        <time>2013-06-30T14:04:43Z</time>
      </trkpt>
      <trkpt lat="40.153600" lon="-5.302117">
        <ele>1990.0</ele>
        <time>2013-06-30T14:04:44Z</time>
      </trkpt>
      <trkpt lat="40.153567" lon="-5.302283">
        <ele>1988.0</ele>
        <time>2013-06-30T14:04:45Z</time>
      </trkpt>
      <trkpt lat="40.153533" lon="-5.302467">
        <ele>1987.0</ele>
        <time>2013-06-30T14:04:46Z</time>
      </trkpt>
      <trkpt lat="40.153483" lon="-5.302617">
        <ele>1985.0</ele>
        <time>2013-06-30T14:04:47Z</time>
      </trkpt>
      <trkpt lat="40.153433" lon="-5.302767">
        <ele>1983.0</ele>
        <time>2013-06-30T14:04:48Z</time>
      </trkpt>
      <trkpt lat="40.153400" lon="-5.302917">
        <ele>1981.0</ele>
        <time>2013-06-30T14:04:49Z</time>
      </trkpt>
      <trkpt lat="40.153383" lon="-5.303083">
        <ele>1978.0</ele>
        <time>2013-06-30T14:04:50Z</time>
      </trkpt>
      <trkpt lat="40.153350" lon="-5.303250">
        <ele>1975.0</ele>
        <time>2013-06-30T14:04:51Z</time>
      </trkpt>
      <trkpt lat="40.153317" lon="-5.303400">
        <ele>1971.0</ele>
        <time>2013-06-30T14:04:52Z</time>
      </trkpt>
      <trkpt lat="40.153267" lon="-5.303550">
        <ele>1968.0</ele>
        <time>2013-06-30T14:04:53Z</time>
      </trkpt>
      <trkpt lat="40.153217" lon="-5.303683">
        <ele>1966.0</ele>
        <time>2013-06-30T14:04:54Z</time>
      </trkpt>
      <trkpt lat="40.153167" lon="-5.303817">
        <ele>1963.0</ele>
        <time>2013-06-30T14:04:55Z</time>
      </trkpt>
      <trkpt lat="40.153133" lon="-5.303967">
        <ele>1960.0</ele>
        <time>2013-06-30T14:04:56Z</time>
      </trkpt>
      <trkpt lat="40.153100" lon="-5.304100">
        <ele>1956.0</ele>
        <time>2013-06-30T14:04:57Z</time>
      </trkpt>
      <trkpt lat="40.153050" lon="-5.304267">
        <ele>1951.0</ele>
        <time>2013-06-30T14:04:58Z</time>
      </trkpt>
      <trkpt lat="40.152983" lon="-5.304417">
        <ele>1948.0</ele>
        <time>2013-06-30T14:04:59Z</time>
      </trkpt>
      <trkpt lat="40.152917" lon="-5.304583">
        <ele>1945.0</ele>
        <time>2013-06-30T14:05:00Z</time>
      </trkpt>
      <trkpt lat="40.152850" lon="-5.304733">
        <ele>1942.0</ele>
        <time>2013-06-30T14:05:01Z</time>
      </trkpt>
      <trkpt lat="40.152800" lon="-5.304883">
        <ele>1940.0</ele>
        <time>2013-06-30T14:05:02Z</time>
      </trkpt>
      <trkpt lat="40.152733" lon="-5.305017">
        <ele>1937.0</ele>
        <time>2013-06-30T14:05:03Z</time>
      </trkpt>
      <trkpt lat="40.152683" lon="-5.305167">
        <ele>1935.0</ele>
        <time>2013-06-30T14:05:04Z</time>
      </trkpt>
      <trkpt lat="40.152617" lon="-5.305300">
        <ele>1931.0</ele>
        <time>2013-06-30T14:05:05Z</time>
      </trkpt>
      <trkpt lat="40.152533" lon="-5.305433">
        <ele>1929.0</ele>
        <time>2013-06-30T14:05:06Z</time>
      </trkpt>
      <trkpt lat="40.152467" lon="-5.305567">
        <ele>1926.0</ele>
        <time>2013-06-30T14:05:07Z</time>
      </trkpt>
      <trkpt lat="40.152400" lon="-5.305700">
        <ele>1923.0</ele>
        <time>2013-06-30T14:05:08Z</time>
      </trkpt>
      <trkpt lat="40.152333" lon="-5.305833">
        <ele>1920.0</ele>
        <time>2013-06-30T14:05:09Z</time>
      </trkpt>
      <trkpt lat="40.152267" lon="-5.305967">
        <ele>1917.0</ele>
        <time>2013-06-30T14:05:10Z</time>
      </trkpt>
      <trkpt lat="40.152183" lon="-5.306083">
        <ele>1915.0</ele>
        <time>2013-06-30T14:05:11Z</time>
      </trkpt>
      <trkpt lat="40.152117" lon="-5.306183">
        <ele>1913.0</ele>
        <time>2013-06-30T14:05:12Z</time>
      </trkpt>
      <trkpt lat="40.152033" lon="-5.306300">
        <ele>1910.0</ele>
        <time>2013-06-30T14:05:13Z</time>
      </trkpt>
      <trkpt lat="40.151950" lon="-5.306433">
        <ele>1905.0</ele>
        <time>2013-06-30T14:05:14Z</time>
      </trkpt>
      <trkpt lat="40.151867" lon="-5.306567">
        <ele>1902.0</ele>
        <time>2013-06-30T14:05:15Z</time>
      </trkpt>
      <trkpt lat="40.151783" lon="-5.306700">
        <ele>1899.0</ele>
        <time>2013-06-30T14:05:16Z</time>
      </trkpt>
      <trkpt lat="40.151700" lon="-5.306833">
        <ele>1896.0</ele>
        <time>2013-06-30T14:05:17Z</time>
      </trkpt>
      <trkpt lat="40.151600" lon="-5.306950">
        <ele>1894.0</ele>
        <time>2013-06-30T14:05:18Z</time>
      </trkpt>
      <trkpt lat="40.151517" lon="-5.307050">
        <ele>1891.0</ele>
        <time>2013-06-30T14:05:19Z</time>
      </trkpt>
      <trkpt lat="40.151433" lon="-5.307183">
        <ele>1889.0</ele>
        <time>2013-06-30T14:05:20Z</time>
      </trkpt>
      <trkpt lat="40.151350" lon="-5.307317">
        <ele>1886.0</ele>
        <time>2013-06-30T14:05:21Z</time>
      </trkpt>
      <trkpt lat="40.151267" lon="-5.307450">
        <ele>1884.0</ele>
        <time>2013-06-30T14:05:22Z</time>
      </trkpt>
      <trkpt lat="40.151200" lon="-5.307567">
        <ele>1882.0</ele>
        <time>2013-06-30T14:05:23Z</time>
      </trkpt>
      <trkpt lat="40.151117" lon="-5.307700">
        <ele>1880.0</ele>
        <time>2013-06-30T14:05:24Z</time>
      </trkpt>
      <trkpt lat="40.151017" lon="-5.307800">
        <ele>1879.0</ele>
        <time>2013-06-30T14:05:25Z</time>
      </trkpt>
      <trkpt lat="40.150933" lon="-5.307917">
        <ele>1879.0</ele>
        <time>2013-06-30T14:05:26Z</time>
      </trkpt>
      <trkpt lat="40.150867" lon="-5.308033">
        <ele>1879.0</ele>
        <time>2013-06-30T14:05:27Z</time>
      </trkpt>
      <trkpt lat="40.150800" lon="-5.308150">
        <ele>1878.0</ele>
        <time>2013-06-30T14:05:28Z</time>
      </trkpt>
      <trkpt lat="40.150733" lon="-5.308267">
        <ele>1876.0</ele>
        <time>2013-06-30T14:05:29Z</time>
      </trkpt>
      <trkpt lat="40.150650" lon="-5.308383">
        <ele>1874.0</ele>
        <time>2013-06-30T14:05:30Z</time>
      </trkpt>
      <trkpt lat="40.150583" lon="-5.308500">
        <ele>1872.0</ele>
        <time>2013-06-30T14:05:31Z</time>
      </trkpt>
      <trkpt lat="40.150517" lon="-5.308633">
        <ele>1870.0</ele>
        <time>2013-06-30T14:05:32Z</time>
      </trkpt>
      <trkpt lat="40.150450" lon="-5.308783">
        <ele>1868.0</ele>
        <time>2013-06-30T14:05:33Z</time>
      </trkpt>
      <trkpt lat="40.150400" lon="-5.308950">
        <ele>1866.0</ele>
        <time>2013-06-30T14:05:34Z</time>
      </trkpt>
      <trkpt lat="40.150350" lon="-5.309117">
        <ele>1865.0</ele>
        <time>2013-06-30T14:05:35Z</time>
      </trkpt>
      <trkpt lat="40.150283" lon="-5.309250">
        <ele>1864.0</ele>
        <time>2013-06-30T14:05:36Z</time>
      </trkpt>
      <trkpt lat="40.150200" lon="-5.309383">
        <ele>1864.0</ele>
        <time>2013-06-30T14:05:37Z</time>
      </trkpt>
      <trkpt lat="40.150133" lon="-5.309500">
        <ele>1864.0</ele>
        <time>2013-06-30T14:05:38Z</time>
      </trkpt>
      <trkpt lat="40.150083" lon="-5.309617">
        <ele>1863.0</ele>
        <time>2013-06-30T14:05:39Z</time>
      </trkpt>
      <trkpt lat="40.150017" lon="-5.309750">
        <ele>1861.0</ele>
        <time>2013-06-30T14:05:40Z</time>
      </trkpt>
      <trkpt lat="40.149933" lon="-5.309883">
        <ele>1860.0</ele>
        <time>2013-06-30T14:05:41Z</time>
      </trkpt>
      <trkpt lat="40.149867" lon="-5.310017">
        <ele>1859.0</ele>
        <time>2013-06-30T14:05:42Z</time>
      </trkpt>
      <trkpt lat="40.149783" lon="-5.310133">
        <ele>1858.0</ele>
        <time>2013-06-30T14:05:43Z</time>
      </trkpt>
      <trkpt lat="40.149717" lon="-5.310250">
        <ele>1857.0</ele>
        <time>2013-06-30T14:05:44Z</time>
      </trkpt>
      <trkpt lat="40.149650" lon="-5.310367">
        <ele>1856.0</ele>
        <time>2013-06-30T14:05:45Z</time>
      </trkpt>
      <trkpt lat="40.149583" lon="-5.310467">
        <ele>1855.0</ele>
        <time>2013-06-30T14:05:46Z</time>
      </trkpt>
      <trkpt lat="40.149500" lon="-5.310600">
        <ele>1853.0</ele>
        <time>2013-06-30T14:05:47Z</time>
      </trkpt>
      <trkpt lat="40.149433" lon="-5.310717">
        <ele>1851.0</ele>
        <time>2013-06-30T14:05:48Z</time>
      </trkpt>
      <trkpt lat="40.149367" lon="-5.310833">
        <ele>1850.0</ele>
        <time>2013-06-30T14:05:49Z</time>
      </trkpt>
      <trkpt lat="40.149283" lon="-5.310933">
        <ele>1850.0</ele>
        <time>2013-06-30T14:05:50Z</time>
      </trkpt>
      <trkpt lat="40.149217" lon="-5.311050">
        <ele>1849.0</ele>
        <time>2013-06-30T14:05:51Z</time>
      </trkpt>
      <trkpt lat="40.149167" lon="-5.311150">
        <ele>1848.0</ele>
        <time>2013-06-30T14:05:52Z</time>
      </trkpt>
      <trkpt lat="40.149100" lon="-5.311250">
        <ele>1845.0</ele>
        <time>2013-06-30T14:05:53Z</time>
      </trkpt>
      <trkpt lat="40.149033" lon="-5.311367">
        <ele>1842.0</ele>
        <time>2013-06-30T14:05:54Z</time>
      </trkpt>
      <trkpt lat="40.148967" lon="-5.311500">
        <ele>1839.0</ele>
        <time>2013-06-30T14:05:55Z</time>
      </trkpt>
      <trkpt lat="40.148883" lon="-5.311633">
        <ele>1837.0</ele>
        <time>2013-06-30T14:05:56Z</time>
      </trkpt>
      <trkpt lat="40.148817" lon="-5.311750">
        <ele>1835.0</ele>
        <time>2013-06-30T14:05:57Z</time>
      </trkpt>
      <trkpt lat="40.148733" lon="-5.311850">
        <ele>1833.0</ele>
        <time>2013-06-30T14:05:58Z</time>
      </trkpt>
      <trkpt lat="40.148650" lon="-5.311983">
        <ele>1830.0</ele>
        <time>2013-06-30T14:05:59Z</time>
      </trkpt>
      <trkpt lat="40.148567" lon="-5.312133">
        <ele>1828.0</ele>
        <time>2013-06-30T14:06:00Z</time>
      </trkpt>
      <trkpt lat="40.148483" lon="-5.312267">
        <ele>1828.0</ele>
        <time>2013-06-30T14:06:01Z</time>
      </trkpt>
      <trkpt lat="40.148400" lon="-5.312383">
        <ele>1828.0</ele>
        <time>2013-06-30T14:06:02Z</time>
      </trkpt>
      <trkpt lat="40.148333" lon="-5.312500">
        <ele>1827.0</ele>
        <time>2013-06-30T14:06:03Z</time>
      </trkpt>
      <trkpt lat="40.148250" lon="-5.312617">
        <ele>1826.0</ele>
        <time>2013-06-30T14:06:04Z</time>
      </trkpt>
      <trkpt lat="40.148183" lon="-5.312733">
        <ele>1822.0</ele>
        <time>2013-06-30T14:06:05Z</time>
      </trkpt>
      <trkpt lat="40.148100" lon="-5.312883">
        <ele>1817.0</ele>
        <time>2013-06-30T14:06:06Z</time>
      </trkpt>
      <trkpt lat="40.148000" lon="-5.313017">
        <ele>1814.0</ele>
        <time>2013-06-30T14:06:07Z</time>
      </trkpt>
      <trkpt lat="40.147917" lon="-5.313167">
        <ele>1812.0</ele>
        <time>2013-06-30T14:06:08Z</time>
      </trkpt>
      <trkpt lat="40.147833" lon="-5.313317">
        <ele>1813.0</ele>
        <time>2013-06-30T14:06:09Z</time>
      </trkpt>
      <trkpt lat="40.147750" lon="-5.313433">
        <ele>1813.0</ele>
        <time>2013-06-30T14:06:10Z</time>
      </trkpt>
      <trkpt lat="40.147683" lon="-5.313550">
        <ele>1813.0</ele>
        <time>2013-06-30T14:06:11Z</time>
      </trkpt>
      <trkpt lat="40.147617" lon="-5.313667">
        <ele>1812.0</ele>
        <time>2013-06-30T14:06:12Z</time>
      </trkpt>
      <trkpt lat="40.147550" lon="-5.313783">
        <ele>1811.0</ele>
        <time>2013-06-30T14:06:13Z</time>
      </trkpt>
      <trkpt lat="40.147483" lon="-5.313917">
        <ele>1809.0</ele>
        <time>2013-06-30T14:06:14Z</time>
      </trkpt>
      <trkpt lat="40.147400" lon="-5.314050">
        <ele>1806.0</ele>
        <time>2013-06-30T14:06:15Z</time>
      </trkpt>
      <trkpt lat="40.147333" lon="-5.314183">
        <ele>1805.0</ele>
        <time>2013-06-30T14:06:16Z</time>
      </trkpt>
      <trkpt lat="40.147250" lon="-5.314317">
        <ele>1804.0</ele>
        <time>2013-06-30T14:06:17Z</time>
      </trkpt>
      <trkpt lat="40.147167" lon="-5.314450">
        <ele>1803.0</ele>
        <time>2013-06-30T14:06:18Z</time>
      </trkpt>
      <trkpt lat="40.147100" lon="-5.314567">
        <ele>1801.0</ele>
        <time>2013-06-30T14:06:19Z</time>
      </trkpt>
      <trkpt lat="40.147033" lon="-5.314700">
        <ele>1799.0</ele>
        <time>2013-06-30T14:06:20Z</time>
      </trkpt>
      <trkpt lat="40.146950" lon="-5.314833">
        <ele>1797.0</ele>
        <time>2013-06-30T14:06:21Z</time>
      </trkpt>
      <trkpt lat="40.146883" lon="-5.314967">
        <ele>1795.0</ele>
        <time>2013-06-30T14:06:22Z</time>
      </trkpt>
      <trkpt lat="40.146800" lon="-5.315083">
        <ele>1794.0</ele>
        <time>2013-06-30T14:06:23Z</time>
      </trkpt>
      <trkpt lat="40.146733" lon="-5.315200">
        <ele>1794.0</ele>
        <time>2013-06-30T14:06:24Z</time>
      </trkpt>
      <trkpt lat="40.146650" lon="-5.315333">
        <ele>1794.0</ele>
        <time>2013-06-30T14:06:25Z</time>
      </trkpt>
      <trkpt lat="40.146583" lon="-5.315450">
        <ele>1793.0</ele>
        <time>2013-06-30T14:06:26Z</time>
      </trkpt>
      <trkpt lat="40.146517" lon="-5.315567">
        <ele>1791.0</ele>
        <time>2013-06-30T14:06:27Z</time>
      </trkpt>
      <trkpt lat="40.146450" lon="-5.315700">
        <ele>1790.0</ele>
        <time>2013-06-30T14:06:28Z</time>
      </trkpt>
      <trkpt lat="40.146367" lon="-5.315833">
        <ele>1789.0</ele>
        <time>2013-06-30T14:06:29Z</time>
      </trkpt>
      <trkpt lat="40.146300" lon="-5.315967">
        <ele>1787.0</ele>
        <time>2013-06-30T14:06:30Z</time>
      </trkpt>
      <trkpt lat="40.146217" lon="-5.316117">
        <ele>1786.0</ele>
        <time>2013-06-30T14:06:31Z</time>
      </trkpt>
      <trkpt lat="40.146150" lon="-5.316250">
        <ele>1786.0</ele>
        <time>2013-06-30T14:06:32Z</time>
      </trkpt>
      <trkpt lat="40.146067" lon="-5.316367">
        <ele>1787.0</ele>
        <time>2013-06-30T14:06:33Z</time>
      </trkpt>
      <trkpt lat="40.146000" lon="-5.316500">
        <ele>1787.0</ele>
        <time>2013-06-30T14:06:34Z</time>
      </trkpt>
      <trkpt lat="40.145933" lon="-5.316617">
        <ele>1786.0</ele>
        <time>2013-06-30T14:06:35Z</time>
      </trkpt>
      <trkpt lat="40.145867" lon="-5.316750">
        <ele>1785.0</ele>
        <time>2013-06-30T14:06:36Z</time>
      </trkpt>
      <trkpt lat="40.145783" lon="-5.316900">
        <ele>1784.0</ele>
        <time>2013-06-30T14:06:37Z</time>
      </trkpt>
      <trkpt lat="40.145683" lon="-5.317033">
        <ele>1783.0</ele>
        <time>2013-06-30T14:06:38Z</time>
      </trkpt>
      <trkpt lat="40.145600" lon="-5.317150">
        <ele>1783.0</ele>
        <time>2013-06-30T14:06:39Z</time>
      </trkpt>
      <trkpt lat="40.145517" lon="-5.317267">
        <ele>1783.0</ele>
        <time>2013-06-30T14:06:40Z</time>
      </trkpt>
      <trkpt lat="40.145433" lon="-5.317383">
        <ele>1782.0</ele>
        <time>2013-06-30T14:06:41Z</time>
      </trkpt>
      <trkpt lat="40.145350" lon="-5.317500">
        <ele>1781.0</ele>
        <time>2013-06-30T14:06:42Z</time>
      </trkpt>
      <trkpt lat="40.145267" lon="-5.317617">
        <ele>1780.0</ele>
        <time>2013-06-30T14:06:43Z</time>
      </trkpt>
      <trkpt lat="40.145183" lon="-5.317750">
        <ele>1779.0</ele>
        <time>2013-06-30T14:06:44Z</time>
      </trkpt>
      <trkpt lat="40.145117" lon="-5.317867">
        <ele>1778.0</ele>
        <time>2013-06-30T14:06:45Z</time>
      </trkpt>
      <trkpt lat="40.145050" lon="-5.317983">
        <ele>1776.0</ele>
        <time>2013-06-30T14:06:46Z</time>
      </trkpt>
      <trkpt lat="40.144983" lon="-5.318117">
        <ele>1775.0</ele>
        <time>2013-06-30T14:06:47Z</time>
      </trkpt>
      <trkpt lat="40.144917" lon="-5.318250">
        <ele>1773.0</ele>
        <time>2013-06-30T14:06:48Z</time>
      </trkpt>
      <trkpt lat="40.144850" lon="-5.318383">
        <ele>1771.0</ele>
        <time>2013-06-30T14:06:49Z</time>
      </trkpt>
      <trkpt lat="40.144783" lon="-5.318517">
        <ele>1770.0</ele>
        <time>2013-06-30T14:06:50Z</time>
      </trkpt>
      <trkpt lat="40.144717" lon="-5.318650">
        <ele>1768.0</ele>
        <time>2013-06-30T14:06:51Z</time>
      </trkpt>
      <trkpt lat="40.144650" lon="-5.318783">
        <ele>1766.0</ele>
        <time>2013-06-30T14:06:52Z</time>
      </trkpt>
      <trkpt lat="40.144600" lon="-5.318933">
        <ele>1764.0</ele>
        <time>2013-06-30T14:06:53Z</time>
      </trkpt>
      <trkpt lat="40.144550" lon="-5.319067">
        <ele>1762.0</ele>
        <time>2013-06-30T14:06:54Z</time>
      </trkpt>
      <trkpt lat="40.144483" lon="-5.319217">
        <ele>1760.0</ele>
        <time>2013-06-30T14:06:55Z</time>
      </trkpt>
      <trkpt lat="40.144433" lon="-5.319367">
        <ele>1758.0</ele>
        <time>2013-06-30T14:06:56Z</time>
      </trkpt>
      <trkpt lat="40.144367" lon="-5.319517">
        <ele>1757.0</ele>
        <time>2013-06-30T14:06:57Z</time>
      </trkpt>
      <trkpt lat="40.144300" lon="-5.319667">
        <ele>1756.0</ele>
        <time>2013-06-30T14:06:58Z</time>
      </trkpt>
      <trkpt lat="40.144250" lon="-5.319800">
        <ele>1755.0</ele>
        <time>2013-06-30T14:06:59Z</time>
      </trkpt>
      <trkpt lat="40.144183" lon="-5.319933">
        <ele>1753.0</ele>
        <time>2013-06-30T14:07:00Z</time>
      </trkpt>
      <trkpt lat="40.144117" lon="-5.320067">
        <ele>1751.0</ele>
        <time>2013-06-30T14:07:01Z</time>
      </trkpt>
      <trkpt lat="40.144050" lon="-5.320217">
        <ele>1750.0</ele>
        <time>2013-06-30T14:07:02Z</time>
      </trkpt>
      <trkpt lat="40.143983" lon="-5.320350">
        <ele>1748.0</ele>
        <time>2013-06-30T14:07:03Z</time>
      </trkpt>
      <trkpt lat="40.143917" lon="-5.320483">
        <ele>1747.0</ele>
        <time>2013-06-30T14:07:04Z</time>
      </trkpt>
      <trkpt lat="40.143850" lon="-5.320617">
        <ele>1746.0</ele>
        <time>2013-06-30T14:07:05Z</time>
      </trkpt>
      <trkpt lat="40.143767" lon="-5.320750">
        <ele>1744.0</ele>
        <time>2013-06-30T14:07:06Z</time>
      </trkpt>
      <trkpt lat="40.143700" lon="-5.320900">
        <ele>1742.0</ele>
        <time>2013-06-30T14:07:07Z</time>
      </trkpt>
      <trkpt lat="40.143633" lon="-5.321033">
        <ele>1741.0</ele>
        <time>2013-06-30T14:07:08Z</time>
      </trkpt>
      <trkpt lat="40.143567" lon="-5.321183">
        <ele>1740.0</ele>
        <time>2013-06-30T14:07:09Z</time>
      </trkpt>
      <trkpt lat="40.143517" lon="-5.321317">
        <ele>1739.0</ele>
        <time>2013-06-30T14:07:10Z</time>
      </trkpt>
      <trkpt lat="40.143450" lon="-5.321450">
        <ele>1738.0</ele>
        <time>2013-06-30T14:07:11Z</time>
      </trkpt>
      <trkpt lat="40.143383" lon="-5.321583">
        <ele>1737.0</ele>
        <time>2013-06-30T14:07:12Z</time>
      </trkpt>
      <trkpt lat="40.143333" lon="-5.321733">
        <ele>1736.0</ele>
        <time>2013-06-30T14:07:13Z</time>
      </trkpt>
      <trkpt lat="40.143267" lon="-5.321883">
        <ele>1735.0</ele>
        <time>2013-06-30T14:07:14Z</time>
      </trkpt>
      <trkpt lat="40.143200" lon="-5.322017">
        <ele>1735.0</ele>
        <time>2013-06-30T14:07:15Z</time>
      </trkpt>
      <trkpt lat="40.143150" lon="-5.322150">
        <ele>1734.0</ele>
        <time>2013-06-30T14:07:16Z</time>
      </trkpt>
      <trkpt lat="40.143083" lon="-5.322283">
        <ele>1733.0</ele>
        <time>2013-06-30T14:07:17Z</time>
      </trkpt>
      <trkpt lat="40.143017" lon="-5.322417">
        <ele>1732.0</ele>
        <time>2013-06-30T14:07:18Z</time>
      </trkpt>
      <trkpt lat="40.142950" lon="-5.322550">
        <ele>1731.0</ele>
        <time>2013-06-30T14:07:19Z</time>
      </trkpt>
      <trkpt lat="40.142883" lon="-5.322683">
        <ele>1729.0</ele>
        <time>2013-06-30T14:07:20Z</time>
      </trkpt>
      <trkpt lat="40.142817" lon="-5.322817">
        <ele>1729.0</ele>
        <time>2013-06-30T14:07:21Z</time>
      </trkpt>
      <trkpt lat="40.142750" lon="-5.322950">
        <ele>1728.0</ele>
        <time>2013-06-30T14:07:22Z</time>
      </trkpt>
      <trkpt lat="40.142683" lon="-5.323067">
        <ele>1727.0</ele>
        <time>2013-06-30T14:07:23Z</time>
      </trkpt>
      <trkpt lat="40.142617" lon="-5.323183">
        <ele>1726.0</ele>
        <time>2013-06-30T14:07:24Z</time>
      </trkpt>
      <trkpt lat="40.142567" lon="-5.323317">
        <ele>1724.0</ele>
        <time>2013-06-30T14:07:25Z</time>
      </trkpt>
      <trkpt lat="40.142500" lon="-5.323450">
        <ele>1722.0</ele>
        <time>2013-06-30T14:07:26Z</time>
      </trkpt>
      <trkpt lat="40.142433" lon="-5.323583">
        <ele>1720.0</ele>
        <time>2013-06-30T14:07:27Z</time>
      </trkpt>
      <trkpt lat="40.142367" lon="-5.323733">
        <ele>1718.0</ele>
        <time>2013-06-30T14:07:28Z</time>
      </trkpt>
      <trkpt lat="40.142300" lon="-5.323883">
        <ele>1718.0</ele>
        <time>2013-06-30T14:07:29Z</time>
      </trkpt>
      <trkpt lat="40.142250" lon="-5.324033">
        <ele>1717.0</ele>
        <time>2013-06-30T14:07:30Z</time>
      </trkpt>
      <trkpt lat="40.142200" lon="-5.324183">
        <ele>1717.0</ele>
        <time>2013-06-30T14:07:31Z</time>
      </trkpt>
      <trkpt lat="40.142133" lon="-5.324300">
        <ele>1715.0</ele>
        <time>2013-06-30T14:07:32Z</time>
      </trkpt>
      <trkpt lat="40.142067" lon="-5.324433">
        <ele>1714.0</ele>
        <time>2013-06-30T14:07:33Z</time>
      </trkpt>
      <trkpt lat="40.142017" lon="-5.324567">
        <ele>1712.0</ele>
        <time>2013-06-30T14:07:34Z</time>
      </trkpt>
      <trkpt lat="40.141950" lon="-5.324700">
        <ele>1710.0</ele>
        <time>2013-06-30T14:07:35Z</time>
      </trkpt>
      <trkpt lat="40.141883" lon="-5.324833">
        <ele>1708.0</ele>
        <time>2013-06-30T14:07:36Z</time>
      </trkpt>
      <trkpt lat="40.141817" lon="-5.324950">
        <ele>1706.0</ele>
        <time>2013-06-30T14:07:37Z</time>
      </trkpt>
      <trkpt lat="40.141750" lon="-5.325067">
        <ele>1704.0</ele>
        <time>2013-06-30T14:07:38Z</time>
      </trkpt>
      <trkpt lat="40.141683" lon="-5.325183">
        <ele>1702.0</ele>
        <time>2013-06-30T14:07:39Z</time>
      </trkpt>
      <trkpt lat="40.141617" lon="-5.325300">
        <ele>1700.0</ele>
        <time>2013-06-30T14:07:40Z</time>
      </trkpt>
      <trkpt lat="40.141550" lon="-5.325433">
        <ele>1697.0</ele>
        <time>2013-06-30T14:07:41Z</time>
      </trkpt>
      <trkpt lat="40.141483" lon="-5.325550">
        <ele>1694.0</ele>
        <time>2013-06-30T14:07:42Z</time>
      </trkpt>
      <trkpt lat="40.141400" lon="-5.325683">
        <ele>1691.0</ele>
        <time>2013-06-30T14:07:43Z</time>
      </trkpt>
      <trkpt lat="40.141333" lon="-5.325817">
        <ele>1689.0</ele>
        <time>2013-06-30T14:07:44Z</time>
      </trkpt>
      <trkpt lat="40.141267" lon="-5.325950">
        <ele>1686.0</ele>
        <time>2013-06-30T14:07:45Z</time>
      </trkpt>
      <trkpt lat="40.141200" lon="-5.326083">
        <ele>1684.0</ele>
        <time>2013-06-30T14:07:46Z</time>
      </trkpt>
      <trkpt lat="40.141133" lon="-5.326217">
        <ele>1682.0</ele>
        <time>2013-06-30T14:07:47Z</time>
      </trkpt>
      <trkpt lat="40.141067" lon="-5.326333">
        <ele>1680.0</ele>
        <time>2013-06-30T14:07:48Z</time>
      </trkpt>
      <trkpt lat="40.141000" lon="-5.326483">
        <ele>1677.0</ele>
        <time>2013-06-30T14:07:49Z</time>
      </trkpt>
      <trkpt lat="40.140950" lon="-5.326633">
        <ele>1674.0</ele>
        <time>2013-06-30T14:07:50Z</time>
      </trkpt>
      <trkpt lat="40.140883" lon="-5.326783">
        <ele>1672.0</ele>
        <time>2013-06-30T14:07:51Z</time>
      </trkpt>
      <trkpt lat="40.140817" lon="-5.326933">
        <ele>1670.0</ele>
        <time>2013-06-30T14:07:52Z</time>
      </trkpt>
      <trkpt lat="40.140733" lon="-5.327083">
        <ele>1668.0</ele>
        <time>2013-06-30T14:07:53Z</time>
      </trkpt>
      <trkpt lat="40.140667" lon="-5.327233">
        <ele>1666.0</ele>
        <time>2013-06-30T14:07:54Z</time>
      </trkpt>
      <trkpt lat="40.140600" lon="-5.327367">
        <ele>1665.0</ele>
        <time>2013-06-30T14:07:55Z</time>
      </trkpt>
      <trkpt lat="40.140533" lon="-5.327517">
        <ele>1663.0</ele>
        <time>2013-06-30T14:07:56Z</time>
      </trkpt>
      <trkpt lat="40.140467" lon="-5.327650">
        <ele>1662.0</ele>
        <time>2013-06-30T14:07:57Z</time>
      </trkpt>
      <trkpt lat="40.140383" lon="-5.327800">
        <ele>1659.0</ele>
        <time>2013-06-30T14:07:58Z</time>
      </trkpt>
      <trkpt lat="40.140317" lon="-5.327933">
        <ele>1657.0</ele>
        <time>2013-06-30T14:07:59Z</time>
      </trkpt>
      <trkpt lat="40.140250" lon="-5.328083">
        <ele>1654.0</ele>
        <time>2013-06-30T14:08:00Z</time>
      </trkpt>
      <trkpt lat="40.140183" lon="-5.328233">
        <ele>1652.0</ele>
        <time>2013-06-30T14:08:01Z</time>
      </trkpt>
      <trkpt lat="40.140117" lon="-5.328400">
        <ele>1650.0</ele>
        <time>2013-06-30T14:08:02Z</time>
      </trkpt>
      <trkpt lat="40.140050" lon="-5.328550">
        <ele>1648.0</ele>
        <time>2013-06-30T14:08:03Z</time>
      </trkpt>
      <trkpt lat="40.139983" lon="-5.328700">
        <ele>1646.0</ele>
        <time>2013-06-30T14:08:04Z</time>
      </trkpt>
      <trkpt lat="40.139917" lon="-5.328833">
        <ele>1644.0</ele>
        <time>2013-06-30T14:08:05Z</time>
      </trkpt>
      <trkpt lat="40.139850" lon="-5.328983">
        <ele>1642.0</ele>
        <time>2013-06-30T14:08:06Z</time>
      </trkpt>
      <trkpt lat="40.139783" lon="-5.329133">
        <ele>1639.0</ele>
        <time>2013-06-30T14:08:07Z</time>
      </trkpt>
      <trkpt lat="40.139717" lon="-5.329283">
        <ele>1637.0</ele>
        <time>2013-06-30T14:08:08Z</time>
      </trkpt>
      <trkpt lat="40.139650" lon="-5.329433">
        <ele>1635.0</ele>
        <time>2013-06-30T14:08:09Z</time>
      </trkpt>
      <trkpt lat="40.139583" lon="-5.329600">
        <ele>1633.0</ele>
        <time>2013-06-30T14:08:10Z</time>
      </trkpt>
      <trkpt lat="40.139517" lon="-5.329750">
        <ele>1631.0</ele>
        <time>2013-06-30T14:08:11Z</time>
      </trkpt>
      <trkpt lat="40.139483" lon="-5.329917">
        <ele>1629.0</ele>
        <time>2013-06-30T14:08:12Z</time>
      </trkpt>
      <trkpt lat="40.139433" lon="-5.330083">
        <ele>1628.0</ele>
        <time>2013-06-30T14:08:13Z</time>
      </trkpt>
      <trkpt lat="40.139383" lon="-5.330233">
        <ele>1625.0</ele>
        <time>2013-06-30T14:08:14Z</time>
      </trkpt>
      <trkpt lat="40.139333" lon="-5.330383">
        <ele>1623.0</ele>
        <time>2013-06-30T14:08:15Z</time>
      </trkpt>
      <trkpt lat="40.139267" lon="-5.330533">
        <ele>1620.0</ele>
        <time>2013-06-30T14:08:16Z</time>
      </trkpt>
      <trkpt lat="40.139200" lon="-5.330700">
        <ele>1618.0</ele>
        <time>2013-06-30T14:08:17Z</time>
      </trkpt>
      <trkpt lat="40.139150" lon="-5.330850">
        <ele>1616.0</ele>
        <time>2013-06-30T14:08:18Z</time>
      </trkpt>
      <trkpt lat="40.139100" lon="-5.331000">
        <ele>1615.0</ele>
        <time>2013-06-30T14:08:19Z</time>
      </trkpt>
      <trkpt lat="40.139050" lon="-5.331150">
        <ele>1613.0</ele>
        <time>2013-06-30T14:08:20Z</time>
      </trkpt>
      <trkpt lat="40.139000" lon="-5.331283">
        <ele>1611.0</ele>
        <time>2013-06-30T14:08:21Z</time>
      </trkpt>
      <trkpt lat="40.138933" lon="-5.331433">
        <ele>1609.0</ele>
        <time>2013-06-30T14:08:22Z</time>
      </trkpt>
      <trkpt lat="40.138867" lon="-5.331567">
        <ele>1606.0</ele>
        <time>2013-06-30T14:08:23Z</time>
      </trkpt>
      <trkpt lat="40.138817" lon="-5.331717">
        <ele>1604.0</ele>
        <time>2013-06-30T14:08:24Z</time>
      </trkpt>
      <trkpt lat="40.138767" lon="-5.331867">
        <ele>1601.0</ele>
        <time>2013-06-30T14:08:25Z</time>
      </trkpt>
      <trkpt lat="40.138717" lon="-5.332017">
        <ele>1599.0</ele>
        <time>2013-06-30T14:08:26Z</time>
      </trkpt>
      <trkpt lat="40.138683" lon="-5.332167">
        <ele>1596.0</ele>
        <time>2013-06-30T14:08:27Z</time>
      </trkpt>
      <trkpt lat="40.138633" lon="-5.332317">
        <ele>1593.0</ele>
        <time>2013-06-30T14:08:28Z</time>
      </trkpt>
      <trkpt lat="40.138583" lon="-5.332467">
        <ele>1591.0</ele>
        <time>2013-06-30T14:08:29Z</time>
      </trkpt>
      <trkpt lat="40.138533" lon="-5.332617">
        <ele>1589.0</ele>
        <time>2013-06-30T14:08:30Z</time>
      </trkpt>
      <trkpt lat="40.138500" lon="-5.332750">
        <ele>1586.0</ele>
        <time>2013-06-30T14:08:31Z</time>
      </trkpt>
      <trkpt lat="40.138467" lon="-5.332883">
        <ele>1583.0</ele>
        <time>2013-06-30T14:08:32Z</time>
      </trkpt>
      <trkpt lat="40.138417" lon="-5.333017">
        <ele>1580.0</ele>
        <time>2013-06-30T14:08:33Z</time>
      </trkpt>
      <trkpt lat="40.138367" lon="-5.333167">
        <ele>1576.0</ele>
        <time>2013-06-30T14:08:34Z</time>
      </trkpt>
      <trkpt lat="40.138317" lon="-5.333300">
        <ele>1572.0</ele>
        <time>2013-06-30T14:08:35Z</time>
      </trkpt>
      <trkpt lat="40.138267" lon="-5.333450">
        <ele>1569.0</ele>
        <time>2013-06-30T14:08:36Z</time>
      </trkpt>
      <trkpt lat="40.138217" lon="-5.333600">
        <ele>1565.0</ele>
        <time>2013-06-30T14:08:37Z</time>
      </trkpt>
      <trkpt lat="40.138167" lon="-5.333733">
        <ele>1563.0</ele>
        <time>2013-06-30T14:08:38Z</time>
      </trkpt>
      <trkpt lat="40.138117" lon="-5.333850">
        <ele>1559.0</ele>
        <time>2013-06-30T14:08:39Z</time>
      </trkpt>
      <trkpt lat="40.138067" lon="-5.333983">
        <ele>1555.0</ele>
        <time>2013-06-30T14:08:40Z</time>
      </trkpt>
      <trkpt lat="40.138000" lon="-5.334133">
        <ele>1550.0</ele>
        <time>2013-06-30T14:08:41Z</time>
      </trkpt>
      <trkpt lat="40.137933" lon="-5.334283">
        <ele>1547.0</ele>
        <time>2013-06-30T14:08:42Z</time>
      </trkpt>
      <trkpt lat="40.137867" lon="-5.334450">
        <ele>1544.0</ele>
        <time>2013-06-30T14:08:43Z</time>
      </trkpt>
      <trkpt lat="40.137800" lon="-5.334600">
        <ele>1542.0</ele>
        <time>2013-06-30T14:08:44Z</time>
      </trkpt>
      <trkpt lat="40.137750" lon="-5.334733">
        <ele>1541.0</ele>
        <time>2013-06-30T14:08:45Z</time>
      </trkpt>
      <trkpt lat="40.137700" lon="-5.334867">
        <ele>1539.0</ele>
        <time>2013-06-30T14:08:46Z</time>
      </trkpt>
      <trkpt lat="40.137633" lon="-5.334983">
        <ele>1536.0</ele>
        <time>2013-06-30T14:08:47Z</time>
      </trkpt>
      <trkpt lat="40.137567" lon="-5.335117">
        <ele>1533.0</ele>
        <time>2013-06-30T14:08:48Z</time>
      </trkpt>
      <trkpt lat="40.137483" lon="-5.335250">
        <ele>1529.0</ele>
        <time>2013-06-30T14:08:49Z</time>
      </trkpt>
      <trkpt lat="40.137417" lon="-5.335400">
        <ele>1526.0</ele>
        <time>2013-06-30T14:08:50Z</time>
      </trkpt>
      <trkpt lat="40.137350" lon="-5.335533">
        <ele>1524.0</ele>
        <time>2013-06-30T14:08:51Z</time>
      </trkpt>
      <trkpt lat="40.137300" lon="-5.335667">
        <ele>1521.0</ele>
        <time>2013-06-30T14:08:52Z</time>
      </trkpt>
      <trkpt lat="40.137267" lon="-5.335833">
        <ele>1518.0</ele>
        <time>2013-06-30T14:08:53Z</time>
      </trkpt>
      <trkpt lat="40.137217" lon="-5.336000">
        <ele>1515.0</ele>
        <time>2013-06-30T14:08:54Z</time>
      </trkpt>
      <trkpt lat="40.137183" lon="-5.336150">
        <ele>1513.0</ele>
        <time>2013-06-30T14:08:55Z</time>
      </trkpt>
      <trkpt lat="40.137133" lon="-5.336300">
        <ele>1510.0</ele>
        <time>2013-06-30T14:08:56Z</time>
      </trkpt>
      <trkpt lat="40.137067" lon="-5.336450">
        <ele>1508.0</ele>
        <time>2013-06-30T14:08:57Z</time>
      </trkpt>
      <trkpt lat="40.137017" lon="-5.336600">
        <ele>1507.0</ele>
        <time>2013-06-30T14:08:58Z</time>
      </trkpt>
      <trkpt lat="40.136967" lon="-5.336733">
        <ele>1505.0</ele>
        <time>2013-06-30T14:08:59Z</time>
      </trkpt>
      <trkpt lat="40.136917" lon="-5.336883">
        <ele>1503.0</ele>
        <time>2013-06-30T14:09:00Z</time>
      </trkpt>
      <trkpt lat="40.136867" lon="-5.337017">
        <ele>1500.0</ele>
        <time>2013-06-30T14:09:01Z</time>
      </trkpt>
      <trkpt lat="40.136817" lon="-5.337167">
        <ele>1498.0</ele>
        <time>2013-06-30T14:09:02Z</time>
      </trkpt>
      <trkpt lat="40.136750" lon="-5.337300">
        <ele>1495.0</ele>
        <time>2013-06-30T14:09:03Z</time>
      </trkpt>
      <trkpt lat="40.136700" lon="-5.337450">
        <ele>1492.0</ele>
        <time>2013-06-30T14:09:04Z</time>
      </trkpt>
      <trkpt lat="40.136633" lon="-5.337600">
        <ele>1490.0</ele>
        <time>2013-06-30T14:09:05Z</time>
      </trkpt>
      <trkpt lat="40.136583" lon="-5.337750">
        <ele>1488.0</ele>
        <time>2013-06-30T14:09:06Z</time>
      </trkpt>
      <trkpt lat="40.136517" lon="-5.337883">
        <ele>1486.0</ele>
        <time>2013-06-30T14:09:07Z</time>
      </trkpt>
      <trkpt lat="40.136450" lon="-5.338033">
        <ele>1484.0</ele>
        <time>2013-06-30T14:09:08Z</time>
      </trkpt>
      <trkpt lat="40.136400" lon="-5.338200">
        <ele>1482.0</ele>
        <time>2013-06-30T14:09:09Z</time>
      </trkpt>
      <trkpt lat="40.136350" lon="-5.338350">
        <ele>1481.0</ele>
        <time>2013-06-30T14:09:10Z</time>
      </trkpt>
      <trkpt lat="40.136283" lon="-5.338500">
        <ele>1479.0</ele>
        <time>2013-06-30T14:09:11Z</time>
      </trkpt>
      <trkpt lat="40.136233" lon="-5.338650">
        <ele>1478.0</ele>
        <time>2013-06-30T14:09:12Z</time>
      </trkpt>
      <trkpt lat="40.136183" lon="-5.338800">
        <ele>1476.0</ele>
        <time>2013-06-30T14:09:13Z</time>
      </trkpt>
      <trkpt lat="40.136117" lon="-5.338950">
        <ele>1475.0</ele>
        <time>2013-06-30T14:09:14Z</time>
      </trkpt>
      <trkpt lat="40.136050" lon="-5.339100">
        <ele>1474.0</ele>
        <time>2013-06-30T14:09:15Z</time>
      </trkpt>
      <trkpt lat="40.135983" lon="-5.339250">
        <ele>1475.0</ele>
        <time>2013-06-30T14:09:16Z</time>
      </trkpt>
      <trkpt lat="40.135933" lon="-5.339367">
        <ele>1476.0</ele>
        <time>2013-06-30T14:09:17Z</time>
      </trkpt>
      <trkpt lat="40.135883" lon="-5.339467">
        <ele>1477.0</ele>
        <time>2013-06-30T14:09:18Z</time>
      </trkpt>
      <trkpt lat="40.135850" lon="-5.339567">
        <ele>1476.0</ele>
        <time>2013-06-30T14:09:19Z</time>
      </trkpt>
      <trkpt lat="40.135817" lon="-5.339667">
        <ele>1474.0</ele>
        <time>2013-06-30T14:09:20Z</time>
      </trkpt>
      <trkpt lat="40.135767" lon="-5.339767">
        <ele>1471.0</ele>
        <time>2013-06-30T14:09:21Z</time>
      </trkpt>
      <trkpt lat="40.135733" lon="-5.339883">
        <ele>1468.0</ele>
        <time>2013-06-30T14:09:22Z</time>
      </trkpt>
      <trkpt lat="40.135683" lon="-5.340000">
        <ele>1466.0</ele>
        <time>2013-06-30T14:09:23Z</time>
      </trkpt>
      <trkpt lat="40.135650" lon="-5.340117">
        <ele>1464.0</ele>
        <time>2013-06-30T14:09:24Z</time>
      </trkpt>
      <trkpt lat="40.135617" lon="-5.340217">
        <ele>1462.0</ele>
        <time>2013-06-30T14:09:25Z</time>
      </trkpt>
      <trkpt lat="40.135583" lon="-5.340317">
        <ele>1459.0</ele>
        <time>2013-06-30T14:09:26Z</time>
      </trkpt>
      <trkpt lat="40.135550" lon="-5.340417">
        <ele>1456.0</ele>
        <time>2013-06-30T14:09:27Z</time>
      </trkpt>
      <trkpt lat="40.135517" lon="-5.340533">
        <ele>1452.0</ele>
        <time>2013-06-30T14:09:28Z</time>
      </trkpt>
      <trkpt lat="40.135500" lon="-5.340667">
        <ele>1450.0</ele>
        <time>2013-06-30T14:09:29Z</time>
      </trkpt>
      <trkpt lat="40.135500" lon="-5.340783">
        <ele>1447.0</ele>
        <time>2013-06-30T14:09:30Z</time>
      </trkpt>
      <trkpt lat="40.135500" lon="-5.340917">
        <ele>1443.0</ele>
        <time>2013-06-30T14:09:31Z</time>
      </trkpt>
      <trkpt lat="40.135517" lon="-5.341050">
        <ele>1440.0</ele>
        <time>2013-06-30T14:09:32Z</time>
      </trkpt>
      <trkpt lat="40.135533" lon="-5.341200">
        <ele>1436.0</ele>
        <time>2013-06-30T14:09:33Z</time>
      </trkpt>
      <trkpt lat="40.135550" lon="-5.341350">
        <ele>1433.0</ele>
        <time>2013-06-30T14:09:34Z</time>
      </trkpt>
      <trkpt lat="40.135583" lon="-5.341483">
        <ele>1429.0</ele>
        <time>2013-06-30T14:09:35Z</time>
      </trkpt>
      <trkpt lat="40.135633" lon="-5.341617">
        <ele>1426.0</ele>
        <time>2013-06-30T14:09:36Z</time>
      </trkpt>
      <trkpt lat="40.135683" lon="-5.341733">
        <ele>1423.0</ele>
        <time>2013-06-30T14:09:37Z</time>
      </trkpt>
      <trkpt lat="40.135733" lon="-5.341850">
        <ele>1420.0</ele>
        <time>2013-06-30T14:09:38Z</time>
      </trkpt>
      <trkpt lat="40.135767" lon="-5.341967">
        <ele>1417.0</ele>
        <time>2013-06-30T14:09:39Z</time>
      </trkpt>
      <trkpt lat="40.135817" lon="-5.342083">
        <ele>1413.0</ele>
        <time>2013-06-30T14:09:40Z</time>
      </trkpt>
      <trkpt lat="40.135850" lon="-5.342183">
        <ele>1410.0</ele>
        <time>2013-06-30T14:09:41Z</time>
      </trkpt>
      <trkpt lat="40.135900" lon="-5.342283">
        <ele>1405.0</ele>
        <time>2013-06-30T14:09:42Z</time>
      </trkpt>
      <trkpt lat="40.135950" lon="-5.342383">
        <ele>1400.0</ele>
        <time>2013-06-30T14:09:43Z</time>
      </trkpt>
      <trkpt lat="40.136000" lon="-5.342483">
        <ele>1395.0</ele>
        <time>2013-06-30T14:09:44Z</time>
      </trkpt>
      <trkpt lat="40.136050" lon="-5.342567">
        <ele>1390.0</ele>
        <time>2013-06-30T14:09:45Z</time>
      </trkpt>
      <trkpt lat="40.136117" lon="-5.342667">
        <ele>1385.0</ele>
        <time>2013-06-30T14:09:46Z</time>
      </trkpt>
      <trkpt lat="40.136183" lon="-5.342733">
        <ele>1381.0</ele>
        <time>2013-06-30T14:09:47Z</time>
      </trkpt>
      <trkpt lat="40.136267" lon="-5.342817">
        <ele>1378.0</ele>
        <time>2013-06-30T14:09:48Z</time>
      </trkpt>
      <trkpt lat="40.136367" lon="-5.342867">
        <ele>1375.0</ele>
        <time>2013-06-30T14:09:49Z</time>
      </trkpt>
      <trkpt lat="40.136483" lon="-5.342917">
        <ele>1375.0</ele>
        <time>2013-06-30T14:09:50Z</time>
      </trkpt>
      <trkpt lat="40.136567" lon="-5.342967">
        <ele>1377.0</ele>
        <time>2013-06-30T14:09:51Z</time>
      </trkpt>
      <trkpt lat="40.136650" lon="-5.343000">
        <ele>1379.0</ele>
        <time>2013-06-30T14:09:52Z</time>
      </trkpt>
      <trkpt lat="40.136733" lon="-5.343017">
        <ele>1381.0</ele>
        <time>2013-06-30T14:09:53Z</time>
      </trkpt>
      <trkpt lat="40.136783" lon="-5.343050">
        <ele>1382.0</ele>
        <time>2013-06-30T14:09:54Z</time>
      </trkpt>
      <trkpt lat="40.136850" lon="-5.343067">
        <ele>1382.0</ele>
        <time>2013-06-30T14:09:55Z</time>
      </trkpt>
      <trkpt lat="40.136917" lon="-5.343100">
        <ele>1382.0</ele>
        <time>2013-06-30T14:09:56Z</time>
      </trkpt>
      <trkpt lat="40.137000" lon="-5.343100">
        <ele>1381.0</ele>
        <time>2013-06-30T14:09:57Z</time>
      </trkpt>
      <trkpt lat="40.137083" lon="-5.343117">
        <ele>1380.0</ele>
        <time>2013-06-30T14:09:58Z</time>
      </trkpt>
      <trkpt lat="40.137167" lon="-5.343100">
        <ele>1380.0</ele>
        <time>2013-06-30T14:09:59Z</time>
      </trkpt>
      <trkpt lat="40.137250" lon="-5.343117">
        <ele>1380.0</ele>
        <time>2013-06-30T14:10:00Z</time>
      </trkpt>
      <trkpt lat="40.137317" lon="-5.343117">
        <ele>1379.0</ele>
        <time>2013-06-30T14:10:01Z</time>
      </trkpt>
      <trkpt lat="40.137400" lon="-5.343117">
        <ele>1377.0</ele>
        <time>2013-06-30T14:10:02Z</time>
      </trkpt>
      <trkpt lat="40.137500" lon="-5.343117">
        <ele>1375.0</ele>
        <time>2013-06-30T14:10:03Z</time>
      </trkpt>
      <trkpt lat="40.137600" lon="-5.343117">
        <ele>1374.0</ele>
        <time>2013-06-30T14:10:04Z</time>
      </trkpt>
      <trkpt lat="40.137717" lon="-5.343067">
        <ele>1374.0</ele>
        <time>2013-06-30T14:10:05Z</time>
      </trkpt>
      <trkpt lat="40.137817" lon="-5.343017">
        <ele>1376.0</ele>
        <time>2013-06-30T14:10:06Z</time>
      </trkpt>
      <trkpt lat="40.137900" lon="-5.342950">
        <ele>1379.0</ele>
        <time>2013-06-30T14:10:07Z</time>
      </trkpt>
      <trkpt lat="40.137967" lon="-5.342917">
        <ele>1381.0</ele>
        <time>2013-06-30T14:10:08Z</time>
      </trkpt>
      <trkpt lat="40.138000" lon="-5.342883">
        <ele>1383.0</ele>
        <time>2013-06-30T14:10:09Z</time>
      </trkpt>
      <trkpt lat="40.138067" lon="-5.342850">
        <ele>1384.0</ele>
        <time>2013-06-30T14:10:10Z</time>
      </trkpt>
      <trkpt lat="40.138133" lon="-5.342833">
        <ele>1384.0</ele>
        <time>2013-06-30T14:10:11Z</time>
      </trkpt>
      <trkpt lat="40.138217" lon="-5.342817">
        <ele>1383.0</ele>
        <time>2013-06-30T14:10:12Z</time>
      </trkpt>
      <trkpt lat="40.138300" lon="-5.342833">
        <ele>1383.0</ele>
        <time>2013-06-30T14:10:13Z</time>
      </trkpt>
      <trkpt lat="40.138383" lon="-5.342883">
        <ele>1384.0</ele>
        <time>2013-06-30T14:10:14Z</time>
      </trkpt>
      <trkpt lat="40.138433" lon="-5.342950">
        <ele>1386.0</ele>
        <time>2013-06-30T14:10:15Z</time>
      </trkpt>
      <trkpt lat="40.138467" lon="-5.343050">
        <ele>1387.0</ele>
        <time>2013-06-30T14:10:16Z</time>
      </trkpt>
      <trkpt lat="40.138467" lon="-5.343150">
        <ele>1388.0</ele>
        <time>2013-06-30T14:10:17Z</time>
      </trkpt>
      <trkpt lat="40.138450" lon="-5.343217">
        <ele>1390.0</ele>
        <time>2013-06-30T14:10:18Z</time>
      </trkpt>
      <trkpt lat="40.138450" lon="-5.343300">
        <ele>1391.0</ele>
        <time>2013-06-30T14:10:19Z</time>
      </trkpt>
      <trkpt lat="40.138433" lon="-5.343383">
        <ele>1392.0</ele>
        <time>2013-06-30T14:10:20Z</time>
      </trkpt>
      <trkpt lat="40.138400" lon="-5.343467">
        <ele>1392.0</ele>
        <time>2013-06-30T14:10:21Z</time>
      </trkpt>
      <trkpt lat="40.138367" lon="-5.343550">
        <ele>1393.0</ele>
        <time>2013-06-30T14:10:22Z</time>
      </trkpt>
      <trkpt lat="40.138300" lon="-5.343583">
        <ele>1393.0</ele>
        <time>2013-06-30T14:10:23Z</time>
      </trkpt>
      <trkpt lat="40.138217" lon="-5.343567">
        <ele>1394.0</ele>
        <time>2013-06-30T14:10:24Z</time>
      </trkpt>
      <trkpt lat="40.138150" lon="-5.343533">
        <ele>1394.0</ele>
        <time>2013-06-30T14:10:25Z</time>
      </trkpt>
      <trkpt lat="40.138117" lon="-5.343450">
        <ele>1394.0</ele>
        <time>2013-06-30T14:10:26Z</time>
      </trkpt>
      <trkpt lat="40.138100" lon="-5.343367">
        <ele>1393.0</ele>
        <time>2013-06-30T14:10:27Z</time>
      </trkpt>
      <trkpt lat="40.138117" lon="-5.343267">
        <ele>1393.0</ele>
        <time>2013-06-30T14:10:28Z</time>
      </trkpt>
      <trkpt lat="40.138133" lon="-5.343150">
        <ele>1392.0</ele>
        <time>2013-06-30T14:10:29Z</time>
      </trkpt>
      <trkpt lat="40.138167" lon="-5.343067">
        <ele>1393.0</ele>
        <time>2013-06-30T14:10:30Z</time>
      </trkpt>
      <trkpt lat="40.138217" lon="-5.342967">
        <ele>1393.0</ele>
        <time>2013-06-30T14:10:31Z</time>
      </trkpt>
      <trkpt lat="40.138283" lon="-5.342917">
        <ele>1394.0</ele>
        <time>2013-06-30T14:10:32Z</time>
      </trkpt>
      <trkpt lat="40.138367" lon="-5.342883">
        <ele>1395.0</ele>
        <time>2013-06-30T14:10:33Z</time>
      </trkpt>
      <trkpt lat="40.138467" lon="-5.342900">
        <ele>1395.0</ele>
        <time>2013-06-30T14:10:34Z</time>
      </trkpt>
      <trkpt lat="40.138550" lon="-5.342933">
        <ele>1396.0</ele>
        <time>2013-06-30T14:10:35Z</time>
      </trkpt>
      <trkpt lat="40.138617" lon="-5.343000">
        <ele>1398.0</ele>
        <time>2013-06-30T14:10:36Z</time>
      </trkpt>
      <trkpt lat="40.138683" lon="-5.343050">
        <ele>1400.0</ele>
        <time>2013-06-30T14:10:37Z</time>
      </trkpt>
      <trkpt lat="40.138733" lon="-5.343117">
        <ele>1402.0</ele>
        <time>2013-06-30T14:10:38Z</time>
      </trkpt>
      <trkpt lat="40.138783" lon="-5.343167">
        <ele>1403.0</ele>
        <time>2013-06-30T14:10:39Z</time>
      </trkpt>
      <trkpt lat="40.138833" lon="-5.343217">
        <ele>1403.0</ele>
        <time>2013-06-30T14:10:40Z</time>
      </trkpt>
      <trkpt lat="40.138900" lon="-5.343283">
        <ele>1402.0</ele>
        <time>2013-06-30T14:10:41Z</time>
      </trkpt>
      <trkpt lat="40.138950" lon="-5.343367">
        <ele>1402.0</ele>
        <time>2013-06-30T14:10:42Z</time>
      </trkpt>
      <trkpt lat="40.139000" lon="-5.343467">
        <ele>1402.0</ele>
        <time>2013-06-30T14:10:43Z</time>
      </trkpt>
      <trkpt lat="40.139033" lon="-5.343583">
        <ele>1403.0</ele>
        <time>2013-06-30T14:10:44Z</time>
      </trkpt>
      <trkpt lat="40.139033" lon="-5.343700">
        <ele>1403.0</ele>
        <time>2013-06-30T14:10:45Z</time>
      </trkpt>
      <trkpt lat="40.139033" lon="-5.343800">
        <ele>1404.0</ele>
        <time>2013-06-30T14:10:46Z</time>
      </trkpt>
      <trkpt lat="40.139017" lon="-5.343883">
        <ele>1405.0</ele>
        <time>2013-06-30T14:10:47Z</time>
      </trkpt>
      <trkpt lat="40.139017" lon="-5.343983">
        <ele>1405.0</ele>
        <time>2013-06-30T14:10:48Z</time>
      </trkpt>
      <trkpt lat="40.139000" lon="-5.344083">
        <ele>1406.0</ele>
        <time>2013-06-30T14:10:49Z</time>
      </trkpt>
      <trkpt lat="40.138967" lon="-5.344183">
        <ele>1407.0</ele>
        <time>2013-06-30T14:10:50Z</time>
      </trkpt>
      <trkpt lat="40.138933" lon="-5.344250">
        <ele>1408.0</ele>
        <time>2013-06-30T14:10:51Z</time>
      </trkpt>
      <trkpt lat="40.138867" lon="-5.344300">
        <ele>1409.0</ele>
        <time>2013-06-30T14:10:52Z</time>
      </trkpt>
      <trkpt lat="40.138800" lon="-5.344333">
        <ele>1410.0</ele>
        <time>2013-06-30T14:10:53Z</time>
      </trkpt>
      <trkpt lat="40.138750" lon="-5.344367">
        <ele>1411.0</ele>
        <time>2013-06-30T14:10:54Z</time>
      </trkpt>
      <trkpt lat="40.138700" lon="-5.344350">
        <ele>1412.0</ele>
        <time>2013-06-30T14:10:55Z</time>
      </trkpt>
      <trkpt lat="40.138650" lon="-5.344333">
        <ele>1412.0</ele>
        <time>2013-06-30T14:10:56Z</time>
      </trkpt>
      <trkpt lat="40.138600" lon="-5.344283">
        <ele>1412.0</ele>
        <time>2013-06-30T14:10:57Z</time>
      </trkpt>
      <trkpt lat="40.138583" lon="-5.344217">
        <ele>1412.0</ele>
        <time>2013-06-30T14:10:58Z</time>
      </trkpt>
      <trkpt lat="40.138583" lon="-5.344133">
        <ele>1412.0</ele>
        <time>2013-06-30T14:10:59Z</time>
      </trkpt>
      <trkpt lat="40.138617" lon="-5.344067">
        <ele>1411.0</ele>
        <time>2013-06-30T14:11:00Z</time>
      </trkpt>
      <trkpt lat="40.138667" lon="-5.344000">
        <ele>1411.0</ele>
        <time>2013-06-30T14:11:01Z</time>
      </trkpt>
      <trkpt lat="40.138733" lon="-5.343967">
        <ele>1412.0</ele>
        <time>2013-06-30T14:11:02Z</time>
      </trkpt>
      <trkpt lat="40.138800" lon="-5.343950">
        <ele>1413.0</ele>
        <time>2013-06-30T14:11:03Z</time>
      </trkpt>
      <trkpt lat="40.138867" lon="-5.343950">
        <ele>1413.0</ele>
        <time>2013-06-30T14:11:04Z</time>
      </trkpt>
      <trkpt lat="40.138950" lon="-5.343967">
        <ele>1412.0</ele>
        <time>2013-06-30T14:11:05Z</time>
      </trkpt>
      <trkpt lat="40.139033" lon="-5.344000">
        <ele>1411.0</ele>
        <time>2013-06-30T14:11:06Z</time>
      </trkpt>
      <trkpt lat="40.139117" lon="-5.344050">
        <ele>1410.0</ele>
        <time>2013-06-30T14:11:07Z</time>
      </trkpt>
      <trkpt lat="40.139200" lon="-5.344117">
        <ele>1410.0</ele>
        <time>2013-06-30T14:11:08Z</time>
      </trkpt>
      <trkpt lat="40.139300" lon="-5.344200">
        <ele>1411.0</ele>
        <time>2013-06-30T14:11:09Z</time>
      </trkpt>
      <trkpt lat="40.139367" lon="-5.344283">
        <ele>1416.0</ele>
        <time>2013-06-30T14:11:10Z</time>
      </trkpt>
      <trkpt lat="40.139433" lon="-5.344350">
        <ele>1419.0</ele>
        <time>2013-06-30T14:11:11Z</time>
      </trkpt>
      <trkpt lat="40.139500" lon="-5.344417">
        <ele>1422.0</ele>
        <time>2013-06-30T14:11:12Z</time>
      </trkpt>
      <trkpt lat="40.139550" lon="-5.344467">
        <ele>1424.0</ele>
        <time>2013-06-30T14:11:13Z</time>
      </trkpt>
      <trkpt lat="40.139600" lon="-5.344533">
        <ele>1426.0</ele>
        <time>2013-06-30T14:11:14Z</time>
      </trkpt>
      <trkpt lat="40.139650" lon="-5.344617">
        <ele>1428.0</ele>
        <time>2013-06-30T14:11:15Z</time>
      </trkpt>
      <trkpt lat="40.139683" lon="-5.344717">
        <ele>1431.0</ele>
        <time>2013-06-30T14:11:16Z</time>
      </trkpt>
      <trkpt lat="40.139683" lon="-5.344817">
        <ele>1434.0</ele>
        <time>2013-06-30T14:11:17Z</time>
      </trkpt>
      <trkpt lat="40.139683" lon="-5.344900">
        <ele>1438.0</ele>
        <time>2013-06-30T14:11:18Z</time>
      </trkpt>
      <trkpt lat="40.139683" lon="-5.344983">
        <ele>1441.0</ele>
        <time>2013-06-30T14:11:19Z</time>
      </trkpt>
      <trkpt lat="40.139683" lon="-5.345067">
        <ele>1443.0</ele>
        <time>2013-06-30T14:11:20Z</time>
      </trkpt>
      <trkpt lat="40.139683" lon="-5.345150">
        <ele>1445.0</ele>
        <time>2013-06-30T14:11:21Z</time>
      </trkpt>
      <trkpt lat="40.139650" lon="-5.345217">
        <ele>1447.0</ele>
        <time>2013-06-30T14:11:22Z</time>
      </trkpt>
      <trkpt lat="40.139600" lon="-5.345283">
        <ele>1449.0</ele>
        <time>2013-06-30T14:11:23Z</time>
      </trkpt>
      <trkpt lat="40.139533" lon="-5.345300">
        <ele>1450.0</ele>
        <time>2013-06-30T14:11:24Z</time>
      </trkpt>
      <trkpt lat="40.139450" lon="-5.345283">
        <ele>1452.0</ele>
        <time>2013-06-30T14:11:25Z</time>
      </trkpt>
      <trkpt lat="40.139383" lon="-5.345233">
        <ele>1455.0</ele>
        <time>2013-06-30T14:11:26Z</time>
      </trkpt>
      <trkpt lat="40.139333" lon="-5.345167">
        <ele>1457.0</ele>
        <time>2013-06-30T14:11:27Z</time>
      </trkpt>
      <trkpt lat="40.139317" lon="-5.345067">
        <ele>1459.0</ele>
        <time>2013-06-30T14:11:28Z</time>
      </trkpt>
      <trkpt lat="40.139300" lon="-5.344967">
        <ele>1461.0</ele>
        <time>2013-06-30T14:11:29Z</time>
      </trkpt>
      <trkpt lat="40.139300" lon="-5.344867">
        <ele>1463.0</ele>
        <time>2013-06-30T14:11:30Z</time>
      </trkpt>
      <trkpt lat="40.139350" lon="-5.344783">
        <ele>1465.0</ele>
        <time>2013-06-30T14:11:31Z</time>
      </trkpt>
      <trkpt lat="40.139400" lon="-5.344717">
        <ele>1466.0</ele>
        <time>2013-06-30T14:11:32Z</time>
      </trkpt>
      <trkpt lat="40.139483" lon="-5.344683">
        <ele>1468.0</ele>
        <time>2013-06-30T14:11:33Z</time>
      </trkpt>
      <trkpt lat="40.139567" lon="-5.344683">
        <ele>1469.0</ele>
        <time>2013-06-30T14:11:34Z</time>
      </trkpt>
      <trkpt lat="40.139667" lon="-5.344700">
        <ele>1472.0</ele>
        <time>2013-06-30T14:11:35Z</time>
      </trkpt>
      <trkpt lat="40.139750" lon="-5.344733">
        <ele>1476.0</ele>
        <time>2013-06-30T14:11:36Z</time>
      </trkpt>
      <trkpt lat="40.139817" lon="-5.344767">
        <ele>1482.0</ele>
        <time>2013-06-30T14:11:37Z</time>
      </trkpt>
      <trkpt lat="40.139883" lon="-5.344817">
        <ele>1486.0</ele>
        <time>2013-06-30T14:11:38Z</time>
      </trkpt>
      <trkpt lat="40.139917" lon="-5.344867">
        <ele>1491.0</ele>
        <time>2013-06-30T14:11:39Z</time>
      </trkpt>
      <trkpt lat="40.139967" lon="-5.344950">
        <ele>1495.0</ele>
        <time>2013-06-30T14:11:40Z</time>
      </trkpt>
      <trkpt lat="40.140000" lon="-5.345033">
        <ele>1498.0</ele>
        <time>2013-06-30T14:11:41Z</time>
      </trkpt>
      <trkpt lat="40.140017" lon="-5.345150">
        <ele>1501.0</ele>
        <time>2013-06-30T14:11:42Z</time>
      </trkpt>
      <trkpt lat="40.140033" lon="-5.345250">
        <ele>1505.0</ele>
        <time>2013-06-30T14:11:43Z</time>
      </trkpt>
      <trkpt lat="40.140017" lon="-5.345367">
        <ele>1509.0</ele>
        <time>2013-06-30T14:11:44Z</time>
      </trkpt>
      <trkpt lat="40.140000" lon="-5.345450">
        <ele>1512.0</ele>
        <time>2013-06-30T14:11:45Z</time>
      </trkpt>
      <trkpt lat="40.139967" lon="-5.345533">
        <ele>1515.0</ele>
        <time>2013-06-30T14:11:46Z</time>
      </trkpt>
      <trkpt lat="40.139900" lon="-5.345583">
        <ele>1518.0</ele>
        <time>2013-06-30T14:11:47Z</time>
      </trkpt>
      <trkpt lat="40.139850" lon="-5.345617">
        <ele>1521.0</ele>
        <time>2013-06-30T14:11:48Z</time>
      </trkpt>
      <trkpt lat="40.139783" lon="-5.345617">
        <ele>1523.0</ele>
        <time>2013-06-30T14:11:49Z</time>
      </trkpt>
      <trkpt lat="40.139700" lon="-5.345600">
        <ele>1526.0</ele>
        <time>2013-06-30T14:11:50Z</time>
      </trkpt>
      <trkpt lat="40.139650" lon="-5.345550">
        <ele>1530.0</ele>
        <time>2013-06-30T14:11:51Z</time>
      </trkpt>
      <trkpt lat="40.139600" lon="-5.345500">
        <ele>1533.0</ele>
        <time>2013-06-30T14:11:52Z</time>
      </trkpt>
      <trkpt lat="40.139583" lon="-5.345417">
        <ele>1535.0</ele>
        <time>2013-06-30T14:11:53Z</time>
      </trkpt>
      <trkpt lat="40.139567" lon="-5.345333">
        <ele>1536.0</ele>
        <time>2013-06-30T14:11:54Z</time>
      </trkpt>
      <trkpt lat="40.139567" lon="-5.345233">
        <ele>1538.0</ele>
        <time>2013-06-30T14:11:55Z</time>
      </trkpt>
      <trkpt lat="40.139583" lon="-5.345117">
        <ele>1542.0</ele>
        <time>2013-06-30T14:11:56Z</time>
      </trkpt>
      <trkpt lat="40.139617" lon="-5.345033">
        <ele>1546.0</ele>
        <time>2013-06-30T14:11:57Z</time>
      </trkpt>
      <trkpt lat="40.139667" lon="-5.344967">
        <ele>1550.0</ele>
        <time>2013-06-30T14:11:58Z</time>
      </trkpt>
      <trkpt lat="40.139733" lon="-5.344917">
        <ele>1553.0</ele>
        <time>2013-06-30T14:11:59Z</time>
      </trkpt>
      <trkpt lat="40.139817" lon="-5.344900">
        <ele>1557.0</ele>
        <time>2013-06-30T14:12:00Z</time>
      </trkpt>
      <trkpt lat="40.139883" lon="-5.344900">
        <ele>1561.0</ele>
        <time>2013-06-30T14:12:01Z</time>
      </trkpt>
      <trkpt lat="40.139950" lon="-5.344917">
        <ele>1565.0</ele>
        <time>2013-06-30T14:12:02Z</time>
      </trkpt>
      <trkpt lat="40.140017" lon="-5.344933">
        <ele>1570.0</ele>
        <time>2013-06-30T14:12:03Z</time>
      </trkpt>
      <trkpt lat="40.140083" lon="-5.344967">
        <ele>1575.0</ele>
        <time>2013-06-30T14:12:04Z</time>
      </trkpt>
      <trkpt lat="40.140133" lon="-5.345000">
        <ele>1579.0</ele>
        <time>2013-06-30T14:12:05Z</time>
      </trkpt>
      <trkpt lat="40.140200" lon="-5.345033">
        <ele>1584.0</ele>
        <time>2013-06-30T14:12:06Z</time>
      </trkpt>
      <trkpt lat="40.140250" lon="-5.345083">
        <ele>1589.0</ele>
        <time>2013-06-30T14:12:07Z</time>
      </trkpt>
      <trkpt lat="40.140300" lon="-5.345133">
        <ele>1593.0</ele>
        <time>2013-06-30T14:12:08Z</time>
      </trkpt>
      <trkpt lat="40.140350" lon="-5.345200">
        <ele>1596.0</ele>
        <time>2013-06-30T14:12:09Z</time>
      </trkpt>
      <trkpt lat="40.140383" lon="-5.345283">
        <ele>1599.0</ele>
        <time>2013-06-30T14:12:10Z</time>
      </trkpt>
      <trkpt lat="40.140383" lon="-5.345367">
        <ele>1601.0</ele>
        <time>2013-06-30T14:12:11Z</time>
      </trkpt>
      <trkpt lat="40.140383" lon="-5.345467">
        <ele>1601.0</ele>
        <time>2013-06-30T14:12:12Z</time>
      </trkpt>
      <trkpt lat="40.140367" lon="-5.345567">
        <ele>1601.0</ele>
        <time>2013-06-30T14:12:13Z</time>
      </trkpt>
      <trkpt lat="40.140317" lon="-5.345650">
        <ele>1603.0</ele>
        <time>2013-06-30T14:12:14Z</time>
      </trkpt>
      <trkpt lat="40.140250" lon="-5.345700">
        <ele>1604.0</ele>
        <time>2013-06-30T14:12:15Z</time>
      </trkpt>
      <trkpt lat="40.140167" lon="-5.345700">
        <ele>1605.0</ele>
        <time>2013-06-30T14:12:16Z</time>
      </trkpt>
      <trkpt lat="40.140083" lon="-5.345650">
        <ele>1607.0</ele>
        <time>2013-06-30T14:12:17Z</time>
      </trkpt>
      <trkpt lat="40.140017" lon="-5.345567">
        <ele>1608.0</ele>
        <time>2013-06-30T14:12:18Z</time>
      </trkpt>
      <trkpt lat="40.139950" lon="-5.345483">
        <ele>1611.0</ele>
        <time>2013-06-30T14:12:19Z</time>
      </trkpt>
      <trkpt lat="40.139883" lon="-5.345383">
        <ele>1613.0</ele>
        <time>2013-06-30T14:12:20Z</time>
      </trkpt>
      <trkpt lat="40.139833" lon="-5.345267">
        <ele>1617.0</ele>
        <time>2013-06-30T14:12:21Z</time>
      </trkpt>
      <trkpt lat="40.139800" lon="-5.345167">
        <ele>1621.0</ele>
        <time>2013-06-30T14:12:22Z</time>
      </trkpt>
      <trkpt lat="40.139783" lon="-5.345067">
        <ele>1625.0</ele>
        <time>2013-06-30T14:12:23Z</time>
      </trkpt>
      <trkpt lat="40.139767" lon="-5.344950">
        <ele>1628.0</ele>
        <time>2013-06-30T14:12:24Z</time>
      </trkpt>
      <trkpt lat="40.139783" lon="-5.344850">
        <ele>1632.0</ele>
        <time>2013-06-30T14:12:25Z</time>
      </trkpt>
      <trkpt lat="40.139800" lon="-5.344767">
        <ele>1635.0</ele>
        <time>2013-06-30T14:12:26Z</time>
      </trkpt>
      <trkpt lat="40.139833" lon="-5.344700">
        <ele>1639.0</ele>
        <time>2013-06-30T14:12:27Z</time>
      </trkpt>
      <trkpt lat="40.139867" lon="-5.344617">
        <ele>1642.0</ele>
        <time>2013-06-30T14:12:28Z</time>
      </trkpt>
      <trkpt lat="40.139900" lon="-5.344550">
        <ele>1644.0</ele>
        <time>2013-06-30T14:12:29Z</time>
      </trkpt>
      <trkpt lat="40.139967" lon="-5.344517">
        <ele>1647.0</ele>
        <time>2013-06-30T14:12:30Z</time>
      </trkpt>
      <trkpt lat="40.140017" lon="-5.344483">
        <ele>1649.0</ele>
        <time>2013-06-30T14:12:31Z</time>
      </trkpt>
      <trkpt lat="40.140083" lon="-5.344500">
        <ele>1651.0</ele>
        <time>2013-06-30T14:12:32Z</time>
      </trkpt>
      <trkpt lat="40.140150" lon="-5.344517">
        <ele>1653.0</ele>
        <time>2013-06-30T14:12:33Z</time>
      </trkpt>
      <trkpt lat="40.140217" lon="-5.344567">
        <ele>1656.0</ele>
        <time>2013-06-30T14:12:34Z</time>
      </trkpt>
      <trkpt lat="40.140267" lon="-5.344650">
        <ele>1658.0</ele>
        <time>2013-06-30T14:12:35Z</time>
      </trkpt>
      <trkpt lat="40.140267" lon="-5.344767">
        <ele>1662.0</ele>
        <time>2013-06-30T14:12:36Z</time>
      </trkpt>
      <trkpt lat="40.140250" lon="-5.344867">
        <ele>1666.0</ele>
        <time>2013-06-30T14:12:37Z</time>
      </trkpt>
      <trkpt lat="40.140217" lon="-5.344933">
        <ele>1671.0</ele>
        <time>2013-06-30T14:12:38Z</time>
      </trkpt>
      <trkpt lat="40.140167" lon="-5.344983">
        <ele>1676.0</ele>
        <time>2013-06-30T14:12:39Z</time>
      </trkpt>
      <trkpt lat="40.140117" lon="-5.345000">
        <ele>1679.0</ele>
        <time>2013-06-30T14:12:40Z</time>
      </trkpt>
      <trkpt lat="40.140050" lon="-5.345017">
        <ele>1680.0</ele>
        <time>2013-06-30T14:12:41Z</time>
      </trkpt>
      <trkpt lat="40.139967" lon="-5.345017">
        <ele>1681.0</ele>
        <time>2013-06-30T14:12:42Z</time>
      </trkpt>
      <trkpt lat="40.139867" lon="-5.345017">
        <ele>1684.0</ele>
        <time>2013-06-30T14:12:43Z</time>
      </trkpt>
      <trkpt lat="40.139767" lon="-5.344983">
        <ele>1687.0</ele>
        <time>2013-06-30T14:12:44Z</time>
      </trkpt>
      <trkpt lat="40.139683" lon="-5.344917">
        <ele>1690.0</ele>
        <time>2013-06-30T14:12:45Z</time>
      </trkpt>
      <trkpt lat="40.139617" lon="-5.344817">
        <ele>1693.0</ele>
        <time>2013-06-30T14:12:46Z</time>
      </trkpt>
      <trkpt lat="40.139600" lon="-5.344700">
        <ele>1695.0</ele>
        <time>2013-06-30T14:12:47Z</time>
      </trkpt>
      <trkpt lat="40.139617" lon="-5.344600">
        <ele>1698.0</ele>
        <time>2013-06-30T14:12:48Z</time>
      </trkpt>
      <trkpt lat="40.139650" lon="-5.344517">
        <ele>1701.0</ele>
        <time>2013-06-30T14:12:49Z</time>
      </trkpt>
      <trkpt lat="40.139683" lon="-5.344467">
        <ele>1703.0</ele>
        <time>2013-06-30T14:12:50Z</time>
      </trkpt>
      <trkpt lat="40.139717" lon="-5.344417">
        <ele>1706.0</ele>
        <time>2013-06-30T14:12:51Z</time>
      </trkpt>
      <trkpt lat="40.139767" lon="-5.344350">
        <ele>1707.0</ele>
        <time>2013-06-30T14:12:52Z</time>
      </trkpt>
      <trkpt lat="40.139817" lon="-5.344317">
        <ele>1708.0</ele>
        <time>2013-06-30T14:12:53Z</time>
      </trkpt>
      <trkpt lat="40.139883" lon="-5.344300">
        <ele>1710.0</ele>
        <time>2013-06-30T14:12:54Z</time>
      </trkpt>
      <trkpt lat="40.139950" lon="-5.344317">
        <ele>1712.0</ele>
        <time>2013-06-30T14:12:55Z</time>
      </trkpt>
      <trkpt lat="40.140000" lon="-5.344367">
        <ele>1713.0</ele>
        <time>2013-06-30T14:12:56Z</time>
      </trkpt>
      <trkpt lat="40.140033" lon="-5.344450">
        <ele>1715.0</ele>
        <time>2013-06-30T14:12:57Z</time>
      </trkpt>
      <trkpt lat="40.140067" lon="-5.344533">
        <ele>1718.0</ele>
        <time>2013-06-30T14:12:58Z</time>
      </trkpt>
      <trkpt lat="40.140083" lon="-5.344617">
        <ele>1721.0</ele>
        <time>2013-06-30T14:12:59Z</time>
      </trkpt>
      <trkpt lat="40.140100" lon="-5.344700">
        <ele>1724.0</ele>
        <time>2013-06-30T14:13:00Z</time>
      </trkpt>
      <trkpt lat="40.140100" lon="-5.344800">
        <ele>1727.0</ele>
        <time>2013-06-30T14:13:01Z</time>
      </trkpt>
      <trkpt lat="40.140067" lon="-5.344883">
        <ele>1729.0</ele>
        <time>2013-06-30T14:13:02Z</time>
      </trkpt>
      <trkpt lat="40.140033" lon="-5.344967">
        <ele>1732.0</ele>
        <time>2013-06-30T14:13:03Z</time>
      </trkpt>
      <trkpt lat="40.139983" lon="-5.345050">
        <ele>1734.0</ele>
        <time>2013-06-30T14:13:04Z</time>
      </trkpt>
      <trkpt lat="40.139933" lon="-5.345100">
        <ele>1737.0</ele>
        <time>2013-06-30T14:13:05Z</time>
      </trkpt>
      <trkpt lat="40.139867" lon="-5.345150">
        <ele>1739.0</ele>
        <time>2013-06-30T14:13:06Z</time>
      </trkpt>
      <trkpt lat="40.139817" lon="-5.345183">
        <ele>1741.0</ele>
        <time>2013-06-30T14:13:07Z</time>
      </trkpt>
      <trkpt lat="40.139733" lon="-5.345200">
        <ele>1743.0</ele>
        <time>2013-06-30T14:13:08Z</time>
      </trkpt>
      <trkpt lat="40.139650" lon="-5.345217">
        <ele>1744.0</ele>
        <time>2013-06-30T14:13:09Z</time>
      </trkpt>
      <trkpt lat="40.139550" lon="-5.345233">
        <ele>1747.0</ele>
        <time>2013-06-30T14:13:10Z</time>
      </trkpt>
      <trkpt lat="40.139467" lon="-5.345217">
        <ele>1750.0</ele>
        <time>2013-06-30T14:13:11Z</time>
      </trkpt>
      <trkpt lat="40.139383" lon="-5.345150">
        <ele>1753.0</ele>
        <time>2013-06-30T14:13:12Z</time>
      </trkpt>
      <trkpt lat="40.139333" lon="-5.345083">
        <ele>1755.0</ele>
        <time>2013-06-30T14:13:13Z</time>
      </trkpt>
      <trkpt lat="40.139283" lon="-5.344983">
        <ele>1756.0</ele>
        <time>2013-06-30T14:13:14Z</time>
      </trkpt>
      <trkpt lat="40.139250" lon="-5.344883">
        <ele>1758.0</ele>
        <time>2013-06-30T14:13:15Z</time>
      </trkpt>
      <trkpt lat="40.139233" lon="-5.344783">
        <ele>1760.0</ele>
        <time>2013-06-30T14:13:16Z</time>
      </trkpt>
      <trkpt lat="40.139233" lon="-5.344700">
        <ele>1763.0</ele>
        <time>2013-06-30T14:13:17Z</time>
      </trkpt>
      <trkpt lat="40.139250" lon="-5.344633">
        <ele>1765.0</ele>
        <time>2013-06-30T14:13:18Z</time>
      </trkpt>
      <trkpt lat="40.139300" lon="-5.344583">
        <ele>1766.0</ele>
        <time>2013-06-30T14:13:19Z</time>
      </trkpt>
      <trkpt lat="40.139350" lon="-5.344550">
        <ele>1767.0</ele>
        <time>2013-06-30T14:13:20Z</time>
      </trkpt>
      <trkpt lat="40.139400" lon="-5.344550">
        <ele>1767.0</ele>
        <time>2013-06-30T14:13:21Z</time>
      </trkpt>
      <trkpt lat="40.139467" lon="-5.344550">
        <ele>1768.0</ele>
        <time>2013-06-30T14:13:22Z</time>
      </trkpt>
      <trkpt lat="40.139533" lon="-5.344600">
        <ele>1769.0</ele>
        <time>2013-06-30T14:13:23Z</time>
      </trkpt>
      <trkpt lat="40.139583" lon="-5.344667">
        <ele>1770.0</ele>
        <time>2013-06-30T14:13:24Z</time>
      </trkpt>
      <trkpt lat="40.139617" lon="-5.344750">
        <ele>1771.0</ele>
        <time>2013-06-30T14:13:25Z</time>
      </trkpt>
      <trkpt lat="40.139650" lon="-5.344833">
        <ele>1773.0</ele>
        <time>2013-06-30T14:13:26Z</time>
      </trkpt>
      <trkpt lat="40.139667" lon="-5.344917">
        <ele>1774.0</ele>
        <time>2013-06-30T14:13:27Z</time>
      </trkpt>
      <trkpt lat="40.139667" lon="-5.345000">
        <ele>1776.0</ele>
        <time>2013-06-30T14:13:28Z</time>
      </trkpt>
      <trkpt lat="40.139667" lon="-5.345083">
        <ele>1777.0</ele>
        <time>2013-06-30T14:13:29Z</time>
      </trkpt>
      <trkpt lat="40.139650" lon="-5.345167">
        <ele>1778.0</ele>
        <time>2013-06-30T14:13:30Z</time>
      </trkpt>
      <trkpt lat="40.139617" lon="-5.345250">
        <ele>1779.0</ele>
        <time>2013-06-30T14:13:31Z</time>
      </trkpt>
      <trkpt lat="40.139567" lon="-5.345333">
        <ele>1782.0</ele>
        <time>2013-06-30T14:13:32Z</time>
      </trkpt>
      <trkpt lat="40.139517" lon="-5.345417">
        <ele>1785.0</ele>
        <time>2013-06-30T14:13:33Z</time>
      </trkpt>
      <trkpt lat="40.139467" lon="-5.345483">
        <ele>1789.0</ele>
        <time>2013-06-30T14:13:34Z</time>
      </trkpt>
      <trkpt lat="40.139417" lon="-5.345550">
        <ele>1793.0</ele>
        <time>2013-06-30T14:13:35Z</time>
      </trkpt>
      <trkpt lat="40.139367" lon="-5.345583">
        <ele>1795.0</ele>
        <time>2013-06-30T14:13:36Z</time>
      </trkpt>
      <trkpt lat="40.139300" lon="-5.345650">
        <ele>1796.0</ele>
        <time>2013-06-30T14:13:37Z</time>
      </trkpt>
      <trkpt lat="40.139217" lon="-5.345717">
        <ele>1797.0</ele>
        <time>2013-06-30T14:13:38Z</time>
      </trkpt>
      <trkpt lat="40.139117" lon="-5.345767">
        <ele>1799.0</ele>
        <time>2013-06-30T14:13:39Z</time>
      </trkpt>
      <trkpt lat="40.139017" lon="-5.345767">
        <ele>1800.0</ele>
        <time>2013-06-30T14:13:40Z</time>
      </trkpt>
      <trkpt lat="40.138900" lon="-5.345700">
        <ele>1802.0</ele>
        <time>2013-06-30T14:13:41Z</time>
      </trkpt>
      <trkpt lat="40.138817" lon="-5.345617">
        <ele>1805.0</ele>
        <time>2013-06-30T14:13:42Z</time>
      </trkpt>
      <trkpt lat="40.138750" lon="-5.345517">
        <ele>1808.0</ele>
        <time>2013-06-30T14:13:43Z</time>
      </trkpt>
      <trkpt lat="40.138717" lon="-5.345433">
        <ele>1811.0</ele>
        <time>2013-06-30T14:13:44Z</time>
      </trkpt>
      <trkpt lat="40.138700" lon="-5.345333">
        <ele>1813.0</ele>
        <time>2013-06-30T14:13:45Z</time>
      </trkpt>
      <trkpt lat="40.138683" lon="-5.345250">
        <ele>1813.0</ele>
        <time>2013-06-30T14:13:46Z</time>
      </trkpt>
      <trkpt lat="40.138700" lon="-5.345150">
        <ele>1814.0</ele>
        <time>2013-06-30T14:13:47Z</time>
      </trkpt>
      <trkpt lat="40.138717" lon="-5.345083">
        <ele>1814.0</ele>
        <time>2013-06-30T14:13:48Z</time>
      </trkpt>
      <trkpt lat="40.138783" lon="-5.345033">
        <ele>1813.0</ele>
        <time>2013-06-30T14:13:49Z</time>
      </trkpt>
      <trkpt lat="40.138867" lon="-5.345033">
        <ele>1812.0</ele>
        <time>2013-06-30T14:13:50Z</time>
      </trkpt>
      <trkpt lat="40.138933" lon="-5.345100">
        <ele>1812.0</ele>
        <time>2013-06-30T14:13:51Z</time>
      </trkpt>
      <trkpt lat="40.138983" lon="-5.345183">
        <ele>1813.0</ele>
        <time>2013-06-30T14:13:52Z</time>
      </trkpt>
      <trkpt lat="40.139033" lon="-5.345267">
        <ele>1814.0</ele>
        <time>2013-06-30T14:13:53Z</time>
      </trkpt>
      <trkpt lat="40.139067" lon="-5.345333">
        <ele>1815.0</ele>
        <time>2013-06-30T14:13:54Z</time>
      </trkpt>
      <trkpt lat="40.139100" lon="-5.345417">
        <ele>1816.0</ele>
        <time>2013-06-30T14:13:55Z</time>
      </trkpt>
      <trkpt lat="40.139133" lon="-5.345533">
        <ele>1816.0</ele>
        <time>2013-06-30T14:13:56Z</time>
      </trkpt>
      <trkpt lat="40.139150" lon="-5.345650">
        <ele>1817.0</ele>
        <time>2013-06-30T14:13:57Z</time>
      </trkpt>
      <trkpt lat="40.139183" lon="-5.345783">
        <ele>1819.0</ele>
        <time>2013-06-30T14:13:58Z</time>
      </trkpt>
      <trkpt lat="40.139183" lon="-5.345900">
        <ele>1823.0</ele>
        <time>2013-06-30T14:13:59Z</time>
      </trkpt>
      <trkpt lat="40.139183" lon="-5.346017">
        <ele>1827.0</ele>
        <time>2013-06-30T14:14:00Z</time>
      </trkpt>
      <trkpt lat="40.139167" lon="-5.346100">
        <ele>1831.0</ele>
        <time>2013-06-30T14:14:01Z</time>
      </trkpt>
      <trkpt lat="40.139133" lon="-5.346183">
        <ele>1833.0</ele>
        <time>2013-06-30T14:14:02Z</time>
      </trkpt>
      <trkpt lat="40.139117" lon="-5.346267">
        <ele>1835.0</ele>
        <time>2013-06-30T14:14:03Z</time>
      </trkpt>
      <trkpt lat="40.139117" lon="-5.346367">
        <ele>1835.0</ele>
        <time>2013-06-30T14:14:04Z</time>
      </trkpt>
      <trkpt lat="40.139117" lon="-5.346483">
        <ele>1835.0</ele>
        <time>2013-06-30T14:14:05Z</time>
      </trkpt>
      <trkpt lat="40.139100" lon="-5.346600">
        <ele>1837.0</ele>
        <time>2013-06-30T14:14:06Z</time>
      </trkpt>
      <trkpt lat="40.139033" lon="-5.346700">
        <ele>1837.0</ele>
        <time>2013-06-30T14:14:07Z</time>
      </trkpt>
      <trkpt lat="40.138933" lon="-5.346783">
        <ele>1837.0</ele>
        <time>2013-06-30T14:14:08Z</time>
      </trkpt>
      <trkpt lat="40.138833" lon="-5.346833">
        <ele>1840.0</ele>
        <time>2013-06-30T14:14:09Z</time>
      </trkpt>
      <trkpt lat="40.138750" lon="-5.346850">
        <ele>1844.0</ele>
        <time>2013-06-30T14:14:10Z</time>
      </trkpt>
      <trkpt lat="40.138683" lon="-5.346883">
        <ele>1846.0</ele>
        <time>2013-06-30T14:14:11Z</time>
      </trkpt>
      <trkpt lat="40.138633" lon="-5.346933">
        <ele>1848.0</ele>
        <time>2013-06-30T14:14:12Z</time>
      </trkpt>
      <trkpt lat="40.138567" lon="-5.346967">
        <ele>1849.0</ele>
        <time>2013-06-30T14:14:13Z</time>
      </trkpt>
      <trkpt lat="40.138500" lon="-5.346983">
        <ele>1850.0</ele>
        <time>2013-06-30T14:14:14Z</time>
      </trkpt>
      <trkpt lat="40.138433" lon="-5.346967">
        <ele>1850.0</ele>
        <time>2013-06-30T14:14:15Z</time>
      </trkpt>
      <trkpt lat="40.138367" lon="-5.346933">
        <ele>1852.0</ele>
        <time>2013-06-30T14:14:16Z</time>
      </trkpt>
      <trkpt lat="40.138317" lon="-5.346883">
        <ele>1854.0</ele>
        <time>2013-06-30T14:14:17Z</time>
      </trkpt>
      <trkpt lat="40.138267" lon="-5.346817">
        <ele>1856.0</ele>
        <time>2013-06-30T14:14:18Z</time>
      </trkpt>
      <trkpt lat="40.138217" lon="-5.346750">
        <ele>1858.0</ele>
        <time>2013-06-30T14:14:19Z</time>
      </trkpt>
      <trkpt lat="40.138167" lon="-5.346683">
        <ele>1859.0</ele>
        <time>2013-06-30T14:14:20Z</time>
      </trkpt>
      <trkpt lat="40.138117" lon="-5.346617">
        <ele>1862.0</ele>
        <time>2013-06-30T14:14:21Z</time>
      </trkpt>
      <trkpt lat="40.138067" lon="-5.346550">
        <ele>1864.0</ele>
        <time>2013-06-30T14:14:22Z</time>
      </trkpt>
      <trkpt lat="40.138050" lon="-5.346467">
        <ele>1866.0</ele>
        <time>2013-06-30T14:14:23Z</time>
      </trkpt>
      <trkpt lat="40.138067" lon="-5.346400">
        <ele>1867.0</ele>
        <time>2013-06-30T14:14:24Z</time>
      </trkpt>
      <trkpt lat="40.138100" lon="-5.346333">
        <ele>1868.0</ele>
        <time>2013-06-30T14:14:25Z</time>
      </trkpt>
      <trkpt lat="40.138150" lon="-5.346267">
        <ele>1870.0</ele>
        <time>2013-06-30T14:14:26Z</time>
      </trkpt>
      <trkpt lat="40.138183" lon="-5.346250">
        <ele>1872.0</ele>
        <time>2013-06-30T14:14:27Z</time>
      </trkpt>
      <trkpt lat="40.138233" lon="-5.346250">
        <ele>1873.0</ele>
        <time>2013-06-30T14:14:28Z</time>
      </trkpt>
      <trkpt lat="40.138300" lon="-5.346283">
        <ele>1874.0</ele>
        <time>2013-06-30T14:14:29Z</time>
      </trkpt>
      <trkpt lat="40.138367" lon="-5.346333">
        <ele>1873.0</ele>
        <time>2013-06-30T14:14:30Z</time>
      </trkpt>
      <trkpt lat="40.138417" lon="-5.346400">
        <ele>1873.0</ele>
        <time>2013-06-30T14:14:31Z</time>
      </trkpt>
      <trkpt lat="40.138483" lon="-5.346483">
        <ele>1874.0</ele>
        <time>2013-06-30T14:14:32Z</time>
      </trkpt>
      <trkpt lat="40.138533" lon="-5.346583">
        <ele>1874.0</ele>
        <time>2013-06-30T14:14:33Z</time>
      </trkpt>
      <trkpt lat="40.138567" lon="-5.346683">
        <ele>1875.0</ele>
        <time>2013-06-30T14:14:34Z</time>
      </trkpt>
      <trkpt lat="40.138600" lon="-5.346800">
        <ele>1876.0</ele>
        <time>2013-06-30T14:14:35Z</time>
      </trkpt>
      <trkpt lat="40.138633" lon="-5.346933">
        <ele>1878.0</ele>
        <time>2013-06-30T14:14:36Z</time>
      </trkpt>
      <trkpt lat="40.138633" lon="-5.347067">
        <ele>1879.0</ele>
        <time>2013-06-30T14:14:37Z</time>
      </trkpt>
      <trkpt lat="40.138633" lon="-5.347200">
        <ele>1881.0</ele>
        <time>2013-06-30T14:14:38Z</time>
      </trkpt>
      <trkpt lat="40.138633" lon="-5.347333">
        <ele>1882.0</ele>
        <time>2013-06-30T14:14:39Z</time>
      </trkpt>
      <trkpt lat="40.138600" lon="-5.347467">
        <ele>1883.0</ele>
        <time>2013-06-30T14:14:40Z</time>
      </trkpt>
      <trkpt lat="40.138567" lon="-5.347600">
        <ele>1884.0</ele>
        <time>2013-06-30T14:14:41Z</time>
      </trkpt>
      <trkpt lat="40.138517" lon="-5.347700">
        <ele>1886.0</ele>
        <time>2013-06-30T14:14:42Z</time>
      </trkpt>
      <trkpt lat="40.138467" lon="-5.347800">
        <ele>1888.0</ele>
        <time>2013-06-30T14:14:43Z</time>
      </trkpt>
      <trkpt lat="40.138400" lon="-5.347900">
        <ele>1890.0</ele>
        <time>2013-06-30T14:14:44Z</time>
      </trkpt>
      <trkpt lat="40.138350" lon="-5.347967">
        <ele>1891.0</ele>
        <time>2013-06-30T14:14:45Z</time>
      </trkpt>
      <trkpt lat="40.138283" lon="-5.348000">
        <ele>1891.0</ele>
        <time>2013-06-30T14:14:46Z</time>
      </trkpt>
      <trkpt lat="40.138217" lon="-5.348033">
        <ele>1889.0</ele>
        <time>2013-06-30T14:14:47Z</time>
      </trkpt>
      <trkpt lat="40.138133" lon="-5.348083">
        <ele>1888.0</ele>
        <time>2013-06-30T14:14:48Z</time>
      </trkpt>
      <trkpt lat="40.138050" lon="-5.348133">
        <ele>1886.0</ele>
        <time>2013-06-30T14:14:49Z</time>
      </trkpt>
      <trkpt lat="40.137967" lon="-5.348217">
        <ele>1886.0</ele>
        <time>2013-06-30T14:14:50Z</time>
      </trkpt>
      <trkpt lat="40.137883" lon="-5.348283">
        <ele>1884.0</ele>
        <time>2013-06-30T14:14:51Z</time>
      </trkpt>
      <trkpt lat="40.137800" lon="-5.348317">
        <ele>1883.0</ele>
        <time>2013-06-30T14:14:52Z</time>
      </trkpt>
      <trkpt lat="40.137717" lon="-5.348350">
        <ele>1881.0</ele>
        <time>2013-06-30T14:14:53Z</time>
      </trkpt>
      <trkpt lat="40.137650" lon="-5.348333">
        <ele>1879.0</ele>
        <time>2013-06-30T14:14:54Z</time>
      </trkpt>
      <trkpt lat="40.137583" lon="-5.348317">
        <ele>1877.0</ele>
        <time>2013-06-30T14:14:55Z</time>
      </trkpt>
      <trkpt lat="40.137500" lon="-5.348283">
        <ele>1875.0</ele>
        <time>2013-06-30T14:14:56Z</time>
      </trkpt>
      <trkpt lat="40.137417" lon="-5.348283">
        <ele>1873.0</ele>
        <time>2013-06-30T14:14:57Z</time>
      </trkpt>
      <trkpt lat="40.137333" lon="-5.348283">
        <ele>1871.0</ele>
        <time>2013-06-30T14:14:58Z</time>
      </trkpt>
      <trkpt lat="40.137233" lon="-5.348283">
        <ele>1869.0</ele>
        <time>2013-06-30T14:14:59Z</time>
      </trkpt>
      <trkpt lat="40.137167" lon="-5.348283">
        <ele>1868.0</ele>
        <time>2013-06-30T14:15:00Z</time>
      </trkpt>
      <trkpt lat="40.137117" lon="-5.348267">
        <ele>1866.0</ele>
        <time>2013-06-30T14:15:01Z</time>
      </trkpt>
      <trkpt lat="40.137083" lon="-5.348200">
        <ele>1862.0</ele>
        <time>2013-06-30T14:15:02Z</time>
      </trkpt>
      <trkpt lat="40.137050" lon="-5.348100">
        <ele>1857.0</ele>
        <time>2013-06-30T14:15:03Z</time>
      </trkpt>
      <trkpt lat="40.137050" lon="-5.347983">
        <ele>1854.0</ele>
        <time>2013-06-30T14:15:04Z</time>
      </trkpt>
      <trkpt lat="40.137067" lon="-5.347850">
        <ele>1855.0</ele>
        <time>2013-06-30T14:15:05Z</time>
      </trkpt>
      <trkpt lat="40.137083" lon="-5.347767">
        <ele>1859.0</ele>
        <time>2013-06-30T14:15:06Z</time>
      </trkpt>
      <trkpt lat="40.137100" lon="-5.347717">
        <ele>1863.0</ele>
        <time>2013-06-30T14:15:07Z</time>
      </trkpt>
      <trkpt lat="40.137083" lon="-5.347700">
        <ele>1866.0</ele>
        <time>2013-06-30T14:15:08Z</time>
      </trkpt>
      <trkpt lat="40.137083" lon="-5.347683">
        <ele>1867.0</ele>
        <time>2013-06-30T14:15:09Z</time>
      </trkpt>
      <trkpt lat="40.137067" lon="-5.347683">
        <ele>1868.0</ele>
        <time>2013-06-30T14:15:10Z</time>
      </trkpt>
      <trkpt lat="40.137083" lon="-5.347667">
        <ele>1867.0</ele>
        <time>2013-06-30T14:15:11Z</time>
      </trkpt>
      <trkpt lat="40.137117" lon="-5.347667">
        <ele>1865.0</ele>
        <time>2013-06-30T14:15:12Z</time>
      </trkpt>
      <trkpt lat="40.137167" lon="-5.347683">
        <ele>1863.0</ele>
        <time>2013-06-30T14:15:13Z</time>
      </trkpt>
      <trkpt lat="40.137233" lon="-5.347717">
        <ele>1862.0</ele>
        <time>2013-06-30T14:15:14Z</time>
      </trkpt>
      <trkpt lat="40.137300" lon="-5.347783">
        <ele>1861.0</ele>
        <time>2013-06-30T14:15:15Z</time>
      </trkpt>
      <trkpt lat="40.137350" lon="-5.347867">
        <ele>1861.0</ele>
        <time>2013-06-30T14:15:16Z</time>
      </trkpt>
      <trkpt lat="40.137417" lon="-5.347950">
        <ele>1861.0</ele>
        <time>2013-06-30T14:15:17Z</time>
      </trkpt>
      <trkpt lat="40.137483" lon="-5.348050">
        <ele>1860.0</ele>
        <time>2013-06-30T14:15:18Z</time>
      </trkpt>
      <trkpt lat="40.137533" lon="-5.348150">
        <ele>1859.0</ele>
        <time>2013-06-30T14:15:19Z</time>
      </trkpt>
      <trkpt lat="40.137617" lon="-5.348233">
        <ele>1859.0</ele>
        <time>2013-06-30T14:15:20Z</time>
      </trkpt>
      <trkpt lat="40.137683" lon="-5.348333">
        <ele>1858.0</ele>
        <time>2013-06-30T14:15:21Z</time>
      </trkpt>
      <trkpt lat="40.137750" lon="-5.348417">
        <ele>1858.0</ele>
        <time>2013-06-30T14:15:22Z</time>
      </trkpt>
      <trkpt lat="40.137833" lon="-5.348500">
        <ele>1858.0</ele>
        <time>2013-06-30T14:15:23Z</time>
      </trkpt>
      <trkpt lat="40.137900" lon="-5.348583">
        <ele>1858.0</ele>
        <time>2013-06-30T14:15:24Z</time>
      </trkpt>
      <trkpt lat="40.137967" lon="-5.348650">
        <ele>1858.0</ele>
        <time>2013-06-30T14:15:25Z</time>
      </trkpt>
      <trkpt lat="40.138017" lon="-5.348733">
        <ele>1858.0</ele>
        <time>2013-06-30T14:15:26Z</time>
      </trkpt>
      <trkpt lat="40.138083" lon="-5.348817">
        <ele>1857.0</ele>
        <time>2013-06-30T14:15:27Z</time>
      </trkpt>
      <trkpt lat="40.138150" lon="-5.348917">
        <ele>1855.0</ele>
        <time>2013-06-30T14:15:28Z</time>
      </trkpt>
      <trkpt lat="40.138200" lon="-5.349033">
        <ele>1854.0</ele>
        <time>2013-06-30T14:15:29Z</time>
      </trkpt>
      <trkpt lat="40.138250" lon="-5.349133">
        <ele>1853.0</ele>
        <time>2013-06-30T14:15:30Z</time>
      </trkpt>
      <trkpt lat="40.138283" lon="-5.349267">
        <ele>1853.0</ele>
        <time>2013-06-30T14:15:31Z</time>
      </trkpt>
      <trkpt lat="40.138317" lon="-5.349383">
        <ele>1853.0</ele>
        <time>2013-06-30T14:15:32Z</time>
      </trkpt>
      <trkpt lat="40.138317" lon="-5.349500">
        <ele>1853.0</ele>
        <time>2013-06-30T14:15:33Z</time>
      </trkpt>
      <trkpt lat="40.138350" lon="-5.349617">
        <ele>1854.0</ele>
        <time>2013-06-30T14:15:34Z</time>
      </trkpt>
      <trkpt lat="40.138350" lon="-5.349717">
        <ele>1854.0</ele>
        <time>2013-06-30T14:15:35Z</time>
      </trkpt>
      <trkpt lat="40.138367" lon="-5.349833">
        <ele>1855.0</ele>
        <time>2013-06-30T14:15:36Z</time>
      </trkpt>
      <trkpt lat="40.138350" lon="-5.349950">
        <ele>1856.0</ele>
        <time>2013-06-30T14:15:37Z</time>
      </trkpt>
      <trkpt lat="40.138350" lon="-5.350067">
        <ele>1857.0</ele>
        <time>2013-06-30T14:15:38Z</time>
      </trkpt>
      <trkpt lat="40.138333" lon="-5.350183">
        <ele>1858.0</ele>
        <time>2013-06-30T14:15:39Z</time>
      </trkpt>
      <trkpt lat="40.138333" lon="-5.350283">
        <ele>1858.0</ele>
        <time>2013-06-30T14:15:40Z</time>
      </trkpt>
      <trkpt lat="40.138317" lon="-5.350383">
        <ele>1857.0</ele>
        <time>2013-06-30T14:15:41Z</time>
      </trkpt>
      <trkpt lat="40.138300" lon="-5.350517">
        <ele>1855.0</ele>
        <time>2013-06-30T14:15:42Z</time>
      </trkpt>
      <trkpt lat="40.138250" lon="-5.350650">
        <ele>1853.0</ele>
        <time>2013-06-30T14:15:43Z</time>
      </trkpt>
      <trkpt lat="40.138217" lon="-5.350783">
        <ele>1853.0</ele>
        <time>2013-06-30T14:15:44Z</time>
      </trkpt>
      <trkpt lat="40.138183" lon="-5.350883">
        <ele>1853.0</ele>
        <time>2013-06-30T14:15:45Z</time>
      </trkpt>
      <trkpt lat="40.138167" lon="-5.350983">
        <ele>1852.0</ele>
        <time>2013-06-30T14:15:46Z</time>
      </trkpt>
      <trkpt lat="40.138150" lon="-5.351100">
        <ele>1850.0</ele>
        <time>2013-06-30T14:15:47Z</time>
      </trkpt>
      <trkpt lat="40.138133" lon="-5.351217">
        <ele>1848.0</ele>
        <time>2013-06-30T14:15:48Z</time>
      </trkpt>
      <trkpt lat="40.138117" lon="-5.351333">
        <ele>1845.0</ele>
        <time>2013-06-30T14:15:49Z</time>
      </trkpt>
      <trkpt lat="40.138083" lon="-5.351483">
        <ele>1842.0</ele>
        <time>2013-06-30T14:15:50Z</time>
      </trkpt>
      <trkpt lat="40.138067" lon="-5.351617">
        <ele>1840.0</ele>
        <time>2013-06-30T14:15:51Z</time>
      </trkpt>
      <trkpt lat="40.138067" lon="-5.351767">
        <ele>1838.0</ele>
        <time>2013-06-30T14:15:52Z</time>
      </trkpt>
      <trkpt lat="40.138067" lon="-5.351900">
        <ele>1837.0</ele>
        <time>2013-06-30T14:15:53Z</time>
      </trkpt>
      <trkpt lat="40.138050" lon="-5.352050">
        <ele>1836.0</ele>
        <time>2013-06-30T14:15:54Z</time>
      </trkpt>
      <trkpt lat="40.138033" lon="-5.352183">
        <ele>1835.0</ele>
        <time>2013-06-30T14:15:55Z</time>
      </trkpt>
      <trkpt lat="40.138017" lon="-5.352333">
        <ele>1834.0</ele>
        <time>2013-06-30T14:15:56Z</time>
      </trkpt>
      <trkpt lat="40.137983" lon="-5.352483">
        <ele>1833.0</ele>
        <time>2013-06-30T14:15:57Z</time>
      </trkpt>
      <trkpt lat="40.137950" lon="-5.352633">
        <ele>1832.0</ele>
        <time>2013-06-30T14:15:58Z</time>
      </trkpt>
      <trkpt lat="40.137917" lon="-5.352783">
        <ele>1831.0</ele>
        <time>2013-06-30T14:15:59Z</time>
      </trkpt>
      <trkpt lat="40.137883" lon="-5.352933">
        <ele>1830.0</ele>
        <time>2013-06-30T14:16:00Z</time>
      </trkpt>
      <trkpt lat="40.137850" lon="-5.353083">
        <ele>1829.0</ele>
        <time>2013-06-30T14:16:01Z</time>
      </trkpt>
      <trkpt lat="40.137817" lon="-5.353233">
        <ele>1828.0</ele>
        <time>2013-06-30T14:16:02Z</time>
      </trkpt>
      <trkpt lat="40.137783" lon="-5.353400">
        <ele>1826.0</ele>
        <time>2013-06-30T14:16:03Z</time>
      </trkpt>
      <trkpt lat="40.137767" lon="-5.353567">
        <ele>1825.0</ele>
        <time>2013-06-30T14:16:04Z</time>
      </trkpt>
      <trkpt lat="40.137733" lon="-5.353717">
        <ele>1825.0</ele>
        <time>2013-06-30T14:16:05Z</time>
      </trkpt>
      <trkpt lat="40.137700" lon="-5.353867">
        <ele>1825.0</ele>
        <time>2013-06-30T14:16:06Z</time>
      </trkpt>
      <trkpt lat="40.137683" lon="-5.354017">
        <ele>1825.0</ele>
        <time>2013-06-30T14:16:07Z</time>
      </trkpt>
      <trkpt lat="40.137667" lon="-5.354150">
        <ele>1824.0</ele>
        <time>2013-06-30T14:16:08Z</time>
      </trkpt>
      <trkpt lat="40.137667" lon="-5.354283">
        <ele>1823.0</ele>
        <time>2013-06-30T14:16:09Z</time>
      </trkpt>
      <trkpt lat="40.137650" lon="-5.354433">
        <ele>1821.0</ele>
        <time>2013-06-30T14:16:10Z</time>
      </trkpt>
      <trkpt lat="40.137650" lon="-5.354583">
        <ele>1819.0</ele>
        <time>2013-06-30T14:16:11Z</time>
      </trkpt>
      <trkpt lat="40.137633" lon="-5.354750">
        <ele>1818.0</ele>
        <time>2013-06-30T14:16:12Z</time>
      </trkpt>
      <trkpt lat="40.137633" lon="-5.354900">
        <ele>1817.0</ele>
        <time>2013-06-30T14:16:13Z</time>
      </trkpt>
      <trkpt lat="40.137633" lon="-5.355050">
        <ele>1816.0</ele>
        <time>2013-06-30T14:16:14Z</time>
      </trkpt>
      <trkpt lat="40.137650" lon="-5.355183">
        <ele>1815.0</ele>
        <time>2013-06-30T14:16:15Z</time>
      </trkpt>
      <trkpt lat="40.137667" lon="-5.355317">
        <ele>1813.0</ele>
        <time>2013-06-30T14:16:16Z</time>
      </trkpt>
      <trkpt lat="40.137683" lon="-5.355450">
        <ele>1810.0</ele>
        <time>2013-06-30T14:16:17Z</time>
      </trkpt>
      <trkpt lat="40.137700" lon="-5.355600">
        <ele>1808.0</ele>
        <time>2013-06-30T14:16:18Z</time>
      </trkpt>
      <trkpt lat="40.137717" lon="-5.355750">
        <ele>1807.0</ele>
        <time>2013-06-30T14:16:19Z</time>
      </trkpt>
      <trkpt lat="40.137733" lon="-5.355900">
        <ele>1805.0</ele>
        <time>2013-06-30T14:16:20Z</time>
      </trkpt>
      <trkpt lat="40.137733" lon="-5.356033">
        <ele>1804.0</ele>
        <time>2013-06-30T14:16:21Z</time>
      </trkpt>
      <trkpt lat="40.137733" lon="-5.356183">
        <ele>1802.0</ele>
        <time>2013-06-30T14:16:22Z</time>
      </trkpt>
      <trkpt lat="40.137733" lon="-5.356333">
        <ele>1799.0</ele>
        <time>2013-06-30T14:16:23Z</time>
      </trkpt>
      <trkpt lat="40.137750" lon="-5.356483">
        <ele>1798.0</ele>
        <time>2013-06-30T14:16:24Z</time>
      </trkpt>
      <trkpt lat="40.137767" lon="-5.356617">
        <ele>1796.0</ele>
        <time>2013-06-30T14:16:25Z</time>
      </trkpt>
      <trkpt lat="40.137783" lon="-5.356750">
        <ele>1795.0</ele>
        <time>2013-06-30T14:16:26Z</time>
      </trkpt>
      <trkpt lat="40.137800" lon="-5.356883">
        <ele>1794.0</ele>
        <time>2013-06-30T14:16:27Z</time>
      </trkpt>
      <trkpt lat="40.137817" lon="-5.357000">
        <ele>1793.0</ele>
        <time>2013-06-30T14:16:28Z</time>
      </trkpt>
      <trkpt lat="40.137833" lon="-5.357133">
        <ele>1791.0</ele>
        <time>2013-06-30T14:16:29Z</time>
      </trkpt>
      <trkpt lat="40.137833" lon="-5.357267">
        <ele>1789.0</ele>
        <time>2013-06-30T14:16:30Z</time>
      </trkpt>
      <trkpt lat="40.137833" lon="-5.357400">
        <ele>1787.0</ele>
        <time>2013-06-30T14:16:31Z</time>
      </trkpt>
      <trkpt lat="40.137833" lon="-5.357550">
        <ele>1785.0</ele>
        <time>2013-06-30T14:16:32Z</time>
      </trkpt>
      <trkpt lat="40.137850" lon="-5.357717">
        <ele>1784.0</ele>
        <time>2013-06-30T14:16:33Z</time>
      </trkpt>
      <trkpt lat="40.137850" lon="-5.357850">
        <ele>1786.0</ele>
        <time>2013-06-30T14:16:34Z</time>
      </trkpt>
      <trkpt lat="40.137850" lon="-5.357983">
        <ele>1787.0</ele>
        <time>2013-06-30T14:16:35Z</time>
      </trkpt>
      <trkpt lat="40.137850" lon="-5.358083">
        <ele>1787.0</ele>
        <time>2013-06-30T14:16:36Z</time>
      </trkpt>
      <trkpt lat="40.137833" lon="-5.358183">
        <ele>1787.0</ele>
        <time>2013-06-30T14:16:37Z</time>
      </trkpt>
      <trkpt lat="40.137817" lon="-5.358300">
        <ele>1784.0</ele>
        <time>2013-06-30T14:16:38Z</time>
      </trkpt>
      <trkpt lat="40.137817" lon="-5.358450">
        <ele>1781.0</ele>
        <time>2013-06-30T14:16:39Z</time>
      </trkpt>
      <trkpt lat="40.137800" lon="-5.358600">
        <ele>1778.0</ele>
        <time>2013-06-30T14:16:40Z</time>
      </trkpt>
      <trkpt lat="40.137783" lon="-5.358750">
        <ele>1777.0</ele>
        <time>2013-06-30T14:16:41Z</time>
      </trkpt>
      <trkpt lat="40.137767" lon="-5.358900">
        <ele>1776.0</ele>
        <time>2013-06-30T14:16:42Z</time>
      </trkpt>
      <trkpt lat="40.137750" lon="-5.359033">
        <ele>1774.0</ele>
        <time>2013-06-30T14:16:43Z</time>
      </trkpt>
      <trkpt lat="40.137733" lon="-5.359167">
        <ele>1772.0</ele>
        <time>2013-06-30T14:16:44Z</time>
      </trkpt>
      <trkpt lat="40.137717" lon="-5.359300">
        <ele>1770.0</ele>
        <time>2013-06-30T14:16:45Z</time>
      </trkpt>
      <trkpt lat="40.137700" lon="-5.359450">
        <ele>1768.0</ele>
        <time>2013-06-30T14:16:46Z</time>
      </trkpt>
      <trkpt lat="40.137683" lon="-5.359600">
        <ele>1767.0</ele>
        <time>2013-06-30T14:16:47Z</time>
      </trkpt>
      <trkpt lat="40.137650" lon="-5.359750">
        <ele>1766.0</ele>
        <time>2013-06-30T14:16:48Z</time>
      </trkpt>
      <trkpt lat="40.137617" lon="-5.359883">
        <ele>1765.0</ele>
        <time>2013-06-30T14:16:49Z</time>
      </trkpt>
      <trkpt lat="40.137583" lon="-5.360017">
        <ele>1765.0</ele>
        <time>2013-06-30T14:16:50Z</time>
      </trkpt>
      <trkpt lat="40.137567" lon="-5.360133">
        <ele>1763.0</ele>
        <time>2013-06-30T14:16:51Z</time>
      </trkpt>
      <trkpt lat="40.137550" lon="-5.360267">
        <ele>1761.0</ele>
        <time>2013-06-30T14:16:52Z</time>
      </trkpt>
      <trkpt lat="40.137517" lon="-5.360400">
        <ele>1759.0</ele>
        <time>2013-06-30T14:16:53Z</time>
      </trkpt>
      <trkpt lat="40.137500" lon="-5.360533">
        <ele>1757.0</ele>
        <time>2013-06-30T14:16:54Z</time>
      </trkpt>
      <trkpt lat="40.137483" lon="-5.360667">
        <ele>1756.0</ele>
        <time>2013-06-30T14:16:55Z</time>
      </trkpt>
      <trkpt lat="40.137467" lon="-5.360783">
        <ele>1754.0</ele>
        <time>2013-06-30T14:16:56Z</time>
      </trkpt>
      <trkpt lat="40.137433" lon="-5.360900">
        <ele>1752.0</ele>
        <time>2013-06-30T14:16:57Z</time>
      </trkpt>
      <trkpt lat="40.137417" lon="-5.361033">
        <ele>1750.0</ele>
        <time>2013-06-30T14:16:58Z</time>
      </trkpt>
      <trkpt lat="40.137400" lon="-5.361183">
        <ele>1747.0</ele>
        <time>2013-06-30T14:16:59Z</time>
      </trkpt>
      <trkpt lat="40.137367" lon="-5.361317">
        <ele>1745.0</ele>
        <time>2013-06-30T14:17:00Z</time>
      </trkpt>
      <trkpt lat="40.137333" lon="-5.361467">
        <ele>1744.0</ele>
        <time>2013-06-30T14:17:01Z</time>
      </trkpt>
      <trkpt lat="40.137317" lon="-5.361600">
        <ele>1743.0</ele>
        <time>2013-06-30T14:17:02Z</time>
      </trkpt>
      <trkpt lat="40.137283" lon="-5.361717">
        <ele>1742.0</ele>
        <time>2013-06-30T14:17:03Z</time>
      </trkpt>
      <trkpt lat="40.137267" lon="-5.361850">
        <ele>1740.0</ele>
        <time>2013-06-30T14:17:04Z</time>
      </trkpt>
      <trkpt lat="40.137233" lon="-5.361983">
        <ele>1737.0</ele>
        <time>2013-06-30T14:17:05Z</time>
      </trkpt>
      <trkpt lat="40.137200" lon="-5.362133">
        <ele>1734.0</ele>
        <time>2013-06-30T14:17:06Z</time>
      </trkpt>
      <trkpt lat="40.137167" lon="-5.362267">
        <ele>1732.0</ele>
        <time>2013-06-30T14:17:07Z</time>
      </trkpt>
      <trkpt lat="40.137150" lon="-5.362417">
        <ele>1731.0</ele>
        <time>2013-06-30T14:17:08Z</time>
      </trkpt>
      <trkpt lat="40.137117" lon="-5.362550">
        <ele>1729.0</ele>
        <time>2013-06-30T14:17:09Z</time>
      </trkpt>
      <trkpt lat="40.137100" lon="-5.362700">
        <ele>1727.0</ele>
        <time>2013-06-30T14:17:10Z</time>
      </trkpt>
      <trkpt lat="40.137083" lon="-5.362850">
        <ele>1724.0</ele>
        <time>2013-06-30T14:17:11Z</time>
      </trkpt>
      <trkpt lat="40.137067" lon="-5.363000">
        <ele>1722.0</ele>
        <time>2013-06-30T14:17:12Z</time>
      </trkpt>
      <trkpt lat="40.137033" lon="-5.363150">
        <ele>1719.0</ele>
        <time>2013-06-30T14:17:13Z</time>
      </trkpt>
      <trkpt lat="40.137017" lon="-5.363317">
        <ele>1716.0</ele>
        <time>2013-06-30T14:17:14Z</time>
      </trkpt>
      <trkpt lat="40.136983" lon="-5.363467">
        <ele>1714.0</ele>
        <time>2013-06-30T14:17:15Z</time>
      </trkpt>
      <trkpt lat="40.136950" lon="-5.363617">
        <ele>1711.0</ele>
        <time>2013-06-30T14:17:16Z</time>
      </trkpt>
      <trkpt lat="40.136900" lon="-5.363767">
        <ele>1709.0</ele>
        <time>2013-06-30T14:17:17Z</time>
      </trkpt>
      <trkpt lat="40.136850" lon="-5.363900">
        <ele>1705.0</ele>
        <time>2013-06-30T14:17:18Z</time>
      </trkpt>
      <trkpt lat="40.136800" lon="-5.364067">
        <ele>1701.0</ele>
        <time>2013-06-30T14:17:19Z</time>
      </trkpt>
      <trkpt lat="40.136750" lon="-5.364217">
        <ele>1698.0</ele>
        <time>2013-06-30T14:17:20Z</time>
      </trkpt>
      <trkpt lat="40.136700" lon="-5.364367">
        <ele>1695.0</ele>
        <time>2013-06-30T14:17:21Z</time>
      </trkpt>
      <trkpt lat="40.136650" lon="-5.364517">
        <ele>1692.0</ele>
        <time>2013-06-30T14:17:22Z</time>
      </trkpt>
      <trkpt lat="40.136617" lon="-5.364650">
        <ele>1690.0</ele>
        <time>2013-06-30T14:17:23Z</time>
      </trkpt>
      <trkpt lat="40.136567" lon="-5.364800">
        <ele>1686.0</ele>
        <time>2013-06-30T14:17:24Z</time>
      </trkpt>
      <trkpt lat="40.136517" lon="-5.364933">
        <ele>1683.0</ele>
        <time>2013-06-30T14:17:25Z</time>
      </trkpt>
      <trkpt lat="40.136467" lon="-5.365083">
        <ele>1679.0</ele>
        <time>2013-06-30T14:17:26Z</time>
      </trkpt>
      <trkpt lat="40.136417" lon="-5.365233">
        <ele>1676.0</ele>
        <time>2013-06-30T14:17:27Z</time>
      </trkpt>
      <trkpt lat="40.136367" lon="-5.365383">
        <ele>1673.0</ele>
        <time>2013-06-30T14:17:28Z</time>
      </trkpt>
      <trkpt lat="40.136317" lon="-5.365533">
        <ele>1670.0</ele>
        <time>2013-06-30T14:17:29Z</time>
      </trkpt>
      <trkpt lat="40.136283" lon="-5.365683">
        <ele>1666.0</ele>
        <time>2013-06-30T14:17:30Z</time>
      </trkpt>
      <trkpt lat="40.136233" lon="-5.365833">
        <ele>1662.0</ele>
        <time>2013-06-30T14:17:31Z</time>
      </trkpt>
      <trkpt lat="40.136183" lon="-5.365983">
        <ele>1657.0</ele>
        <time>2013-06-30T14:17:32Z</time>
      </trkpt>
      <trkpt lat="40.136133" lon="-5.366150">
        <ele>1654.0</ele>
        <time>2013-06-30T14:17:33Z</time>
      </trkpt>
      <trkpt lat="40.136083" lon="-5.366317">
        <ele>1651.0</ele>
        <time>2013-06-30T14:17:34Z</time>
      </trkpt>
      <trkpt lat="40.136050" lon="-5.366450">
        <ele>1648.0</ele>
        <time>2013-06-30T14:17:35Z</time>
      </trkpt>
      <trkpt lat="40.136017" lon="-5.366600">
        <ele>1645.0</ele>
        <time>2013-06-30T14:17:36Z</time>
      </trkpt>
      <trkpt lat="40.135983" lon="-5.366733">
        <ele>1641.0</ele>
        <time>2013-06-30T14:17:37Z</time>
      </trkpt>
      <trkpt lat="40.135950" lon="-5.366883">
        <ele>1635.0</ele>
        <time>2013-06-30T14:17:38Z</time>
      </trkpt>
      <trkpt lat="40.135900" lon="-5.367033">
        <ele>1631.0</ele>
        <time>2013-06-30T14:17:39Z</time>
      </trkpt>
      <trkpt lat="40.135867" lon="-5.367200">
        <ele>1627.0</ele>
        <time>2013-06-30T14:17:40Z</time>
      </trkpt>
      <trkpt lat="40.135817" lon="-5.367367">
        <ele>1624.0</ele>
        <time>2013-06-30T14:17:41Z</time>
      </trkpt>
      <trkpt lat="40.135783" lon="-5.367517">
        <ele>1622.0</ele>
        <time>2013-06-30T14:17:42Z</time>
      </trkpt>
      <trkpt lat="40.135750" lon="-5.367650">
        <ele>1619.0</ele>
        <time>2013-06-30T14:17:43Z</time>
      </trkpt>
      <trkpt lat="40.135717" lon="-5.367800">
        <ele>1616.0</ele>
        <time>2013-06-30T14:17:44Z</time>
      </trkpt>
      <trkpt lat="40.135667" lon="-5.367950">
        <ele>1612.0</ele>
        <time>2013-06-30T14:17:45Z</time>
      </trkpt>
      <trkpt lat="40.135633" lon="-5.368100">
        <ele>1609.0</ele>
        <time>2013-06-30T14:17:46Z</time>
      </trkpt>
      <trkpt lat="40.135600" lon="-5.368267">
        <ele>1606.0</ele>
        <time>2013-06-30T14:17:47Z</time>
      </trkpt>
      <trkpt lat="40.135567" lon="-5.368417">
        <ele>1605.0</ele>
        <time>2013-06-30T14:17:48Z</time>
      </trkpt>
      <trkpt lat="40.135550" lon="-5.368567">
        <ele>1603.0</ele>
        <time>2013-06-30T14:17:49Z</time>
      </trkpt>
      <trkpt lat="40.135517" lon="-5.368717">
        <ele>1601.0</ele>
        <time>2013-06-30T14:17:50Z</time>
      </trkpt>
      <trkpt lat="40.135500" lon="-5.368867">
        <ele>1599.0</ele>
        <time>2013-06-30T14:17:51Z</time>
      </trkpt>
      <trkpt lat="40.135467" lon="-5.369000">
        <ele>1596.0</ele>
        <time>2013-06-30T14:17:52Z</time>
      </trkpt>
      <trkpt lat="40.135433" lon="-5.369150">
        <ele>1593.0</ele>
        <time>2013-06-30T14:17:53Z</time>
      </trkpt>
      <trkpt lat="40.135400" lon="-5.369300">
        <ele>1592.0</ele>
        <time>2013-06-30T14:17:54Z</time>
      </trkpt>
      <trkpt lat="40.135367" lon="-5.369450">
        <ele>1590.0</ele>
        <time>2013-06-30T14:17:55Z</time>
      </trkpt>
      <trkpt lat="40.135317" lon="-5.369600">
        <ele>1588.0</ele>
        <time>2013-06-30T14:17:56Z</time>
      </trkpt>
      <trkpt lat="40.135283" lon="-5.369733">
        <ele>1587.0</ele>
        <time>2013-06-30T14:17:57Z</time>
      </trkpt>
      <trkpt lat="40.135250" lon="-5.369883">
        <ele>1587.0</ele>
        <time>2013-06-30T14:17:58Z</time>
      </trkpt>
      <trkpt lat="40.135217" lon="-5.370017">
        <ele>1586.0</ele>
        <time>2013-06-30T14:17:59Z</time>
      </trkpt>
      <trkpt lat="40.135183" lon="-5.370183">
        <ele>1585.0</ele>
        <time>2013-06-30T14:18:00Z</time>
      </trkpt>
      <trkpt lat="40.135167" lon="-5.370350">
        <ele>1585.0</ele>
        <time>2013-06-30T14:18:01Z</time>
      </trkpt>
      <trkpt lat="40.135133" lon="-5.370517">
        <ele>1586.0</ele>
        <time>2013-06-30T14:18:02Z</time>
      </trkpt>
      <trkpt lat="40.135117" lon="-5.370683">
        <ele>1587.0</ele>
        <time>2013-06-30T14:18:03Z</time>
      </trkpt>
      <trkpt lat="40.135100" lon="-5.370833">
        <ele>1589.0</ele>
        <time>2013-06-30T14:18:04Z</time>
      </trkpt>
      <trkpt lat="40.135083" lon="-5.370983">
        <ele>1591.0</ele>
        <time>2013-06-30T14:18:05Z</time>
      </trkpt>
      <trkpt lat="40.135067" lon="-5.371117">
        <ele>1593.0</ele>
        <time>2013-06-30T14:18:06Z</time>
      </trkpt>
      <trkpt lat="40.135033" lon="-5.371250">
        <ele>1594.0</ele>
        <time>2013-06-30T14:18:07Z</time>
      </trkpt>
      <trkpt lat="40.135017" lon="-5.371400">
        <ele>1594.0</ele>
        <time>2013-06-30T14:18:08Z</time>
      </trkpt>
      <trkpt lat="40.135000" lon="-5.371533">
        <ele>1595.0</ele>
        <time>2013-06-30T14:18:09Z</time>
      </trkpt>
      <trkpt lat="40.135000" lon="-5.371683">
        <ele>1596.0</ele>
        <time>2013-06-30T14:18:10Z</time>
      </trkpt>
      <trkpt lat="40.134983" lon="-5.371817">
        <ele>1598.0</ele>
        <time>2013-06-30T14:18:11Z</time>
      </trkpt>
      <trkpt lat="40.134983" lon="-5.371917">
        <ele>1600.0</ele>
        <time>2013-06-30T14:18:12Z</time>
      </trkpt>
      <trkpt lat="40.134983" lon="-5.372017">
        <ele>1601.0</ele>
        <time>2013-06-30T14:18:13Z</time>
      </trkpt>
      <trkpt lat="40.134950" lon="-5.372133">
        <ele>1600.0</ele>
        <time>2013-06-30T14:18:14Z</time>
      </trkpt>
      <trkpt lat="40.134917" lon="-5.372267">
        <ele>1600.0</ele>
        <time>2013-06-30T14:18:15Z</time>
      </trkpt>
      <trkpt lat="40.134883" lon="-5.372400">
        <ele>1600.0</ele>
        <time>2013-06-30T14:18:16Z</time>
      </trkpt>
      <trkpt lat="40.134850" lon="-5.372550">
        <ele>1601.0</ele>
        <time>2013-06-30T14:18:17Z</time>
      </trkpt>
      <trkpt lat="40.134817" lon="-5.372700">
        <ele>1602.0</ele>
        <time>2013-06-30T14:18:18Z</time>
      </trkpt>
      <trkpt lat="40.134800" lon="-5.372850">
        <ele>1603.0</ele>
        <time>2013-06-30T14:18:19Z</time>
      </trkpt>
      <trkpt lat="40.134767" lon="-5.373000">
        <ele>1603.0</ele>
        <time>2013-06-30T14:18:20Z</time>
      </trkpt>
      <trkpt lat="40.134750" lon="-5.373167">
        <ele>1603.0</ele>
        <time>2013-06-30T14:18:21Z</time>
      </trkpt>
      <trkpt lat="40.134717" lon="-5.373333">
        <ele>1603.0</ele>
        <time>2013-06-30T14:18:22Z</time>
      </trkpt>
      <trkpt lat="40.134700" lon="-5.373500">
        <ele>1602.0</ele>
        <time>2013-06-30T14:18:23Z</time>
      </trkpt>
      <trkpt lat="40.134700" lon="-5.373667">
        <ele>1602.0</ele>
        <time>2013-06-30T14:18:24Z</time>
      </trkpt>
      <trkpt lat="40.134667" lon="-5.373833">
        <ele>1601.0</ele>
        <time>2013-06-30T14:18:25Z</time>
      </trkpt>
      <trkpt lat="40.134633" lon="-5.373967">
        <ele>1600.0</ele>
        <time>2013-06-30T14:18:26Z</time>
      </trkpt>
      <trkpt lat="40.134600" lon="-5.374100">
        <ele>1599.0</ele>
        <time>2013-06-30T14:18:27Z</time>
      </trkpt>
      <trkpt lat="40.134567" lon="-5.374250">
        <ele>1597.0</ele>
        <time>2013-06-30T14:18:28Z</time>
      </trkpt>
      <trkpt lat="40.134550" lon="-5.374417">
        <ele>1594.0</ele>
        <time>2013-06-30T14:18:29Z</time>
      </trkpt>
      <trkpt lat="40.134517" lon="-5.374583">
        <ele>1592.0</ele>
        <time>2013-06-30T14:18:30Z</time>
      </trkpt>
      <trkpt lat="40.134500" lon="-5.374750">
        <ele>1590.0</ele>
        <time>2013-06-30T14:18:31Z</time>
      </trkpt>
      <trkpt lat="40.134467" lon="-5.374900">
        <ele>1588.0</ele>
        <time>2013-06-30T14:18:32Z</time>
      </trkpt>
      <trkpt lat="40.134450" lon="-5.375067">
        <ele>1586.0</ele>
        <time>2013-06-30T14:18:33Z</time>
      </trkpt>
      <trkpt lat="40.134417" lon="-5.375250">
        <ele>1583.0</ele>
        <time>2013-06-30T14:18:34Z</time>
      </trkpt>
      <trkpt lat="40.134400" lon="-5.375417">
        <ele>1580.0</ele>
        <time>2013-06-30T14:18:35Z</time>
      </trkpt>
      <trkpt lat="40.134367" lon="-5.375600">
        <ele>1578.0</ele>
        <time>2013-06-30T14:18:36Z</time>
      </trkpt>
      <trkpt lat="40.134350" lon="-5.375767">
        <ele>1576.0</ele>
        <time>2013-06-30T14:18:37Z</time>
      </trkpt>
      <trkpt lat="40.134333" lon="-5.375950">
        <ele>1575.0</ele>
        <time>2013-06-30T14:18:38Z</time>
      </trkpt>
      <trkpt lat="40.134333" lon="-5.376117">
        <ele>1574.0</ele>
        <time>2013-06-30T14:18:39Z</time>
      </trkpt>
      <trkpt lat="40.134317" lon="-5.376267">
        <ele>1573.0</ele>
        <time>2013-06-30T14:18:40Z</time>
      </trkpt>
      <trkpt lat="40.134300" lon="-5.376433">
        <ele>1571.0</ele>
        <time>2013-06-30T14:18:41Z</time>
      </trkpt>
      <trkpt lat="40.134283" lon="-5.376600">
        <ele>1569.0</ele>
        <time>2013-06-30T14:18:42Z</time>
      </trkpt>
      <trkpt lat="40.134267" lon="-5.376750">
        <ele>1567.0</ele>
        <time>2013-06-30T14:18:43Z</time>
      </trkpt>
      <trkpt lat="40.134250" lon="-5.376917">
        <ele>1565.0</ele>
        <time>2013-06-30T14:18:44Z</time>
      </trkpt>
      <trkpt lat="40.134233" lon="-5.377083">
        <ele>1564.0</ele>
        <time>2013-06-30T14:18:45Z</time>
      </trkpt>
      <trkpt lat="40.134217" lon="-5.377250">
        <ele>1563.0</ele>
        <time>2013-06-30T14:18:46Z</time>
      </trkpt>
      <trkpt lat="40.134200" lon="-5.377417">
        <ele>1562.0</ele>
        <time>2013-06-30T14:18:47Z</time>
      </trkpt>
      <trkpt lat="40.134200" lon="-5.377567">
        <ele>1560.0</ele>
        <time>2013-06-30T14:18:48Z</time>
      </trkpt>
      <trkpt lat="40.134200" lon="-5.377717">
        <ele>1559.0</ele>
        <time>2013-06-30T14:18:49Z</time>
      </trkpt>
      <trkpt lat="40.134183" lon="-5.377883">
        <ele>1557.0</ele>
        <time>2013-06-30T14:18:50Z</time>
      </trkpt>
      <trkpt lat="40.134167" lon="-5.378050">
        <ele>1555.0</ele>
        <time>2013-06-30T14:18:51Z</time>
      </trkpt>
      <trkpt lat="40.134150" lon="-5.378217">
        <ele>1553.0</ele>
        <time>2013-06-30T14:18:52Z</time>
      </trkpt>
      <trkpt lat="40.134133" lon="-5.378383">
        <ele>1552.0</ele>
        <time>2013-06-30T14:18:53Z</time>
      </trkpt>
      <trkpt lat="40.134117" lon="-5.378550">
        <ele>1552.0</ele>
        <time>2013-06-30T14:18:54Z</time>
      </trkpt>
      <trkpt lat="40.134117" lon="-5.378717">
        <ele>1551.0</ele>
        <time>2013-06-30T14:18:55Z</time>
      </trkpt>
      <trkpt lat="40.134100" lon="-5.378867">
        <ele>1549.0</ele>
        <time>2013-06-30T14:18:56Z</time>
      </trkpt>
      <trkpt lat="40.134067" lon="-5.379033">
        <ele>1547.0</ele>
        <time>2013-06-30T14:18:57Z</time>
      </trkpt>
      <trkpt lat="40.134050" lon="-5.379200">
        <ele>1545.0</ele>
        <time>2013-06-30T14:18:58Z</time>
      </trkpt>
      <trkpt lat="40.134033" lon="-5.379367">
        <ele>1544.0</ele>
        <time>2013-06-30T14:18:59Z</time>
      </trkpt>
      <trkpt lat="40.134033" lon="-5.379533">
        <ele>1543.0</ele>
        <time>2013-06-30T14:19:00Z</time>
      </trkpt>
      <trkpt lat="40.134017" lon="-5.379700">
        <ele>1543.0</ele>
        <time>2013-06-30T14:19:01Z</time>
      </trkpt>
      <trkpt lat="40.134017" lon="-5.379850">
        <ele>1542.0</ele>
        <time>2013-06-30T14:19:02Z</time>
      </trkpt>
      <trkpt lat="40.134000" lon="-5.380000">
        <ele>1540.0</ele>
        <time>2013-06-30T14:19:03Z</time>
      </trkpt>
      <trkpt lat="40.133983" lon="-5.380150">
        <ele>1538.0</ele>
        <time>2013-06-30T14:19:04Z</time>
      </trkpt>
      <trkpt lat="40.133983" lon="-5.380300">
        <ele>1537.0</ele>
        <time>2013-06-30T14:19:05Z</time>
      </trkpt>
      <trkpt lat="40.133967" lon="-5.380467">
        <ele>1536.0</ele>
        <time>2013-06-30T14:19:06Z</time>
      </trkpt>
      <trkpt lat="40.133967" lon="-5.380617">
        <ele>1535.0</ele>
        <time>2013-06-30T14:19:07Z</time>
      </trkpt>
      <trkpt lat="40.133967" lon="-5.380767">
        <ele>1533.0</ele>
        <time>2013-06-30T14:19:08Z</time>
      </trkpt>
      <trkpt lat="40.133967" lon="-5.380900">
        <ele>1532.0</ele>
        <time>2013-06-30T14:19:09Z</time>
      </trkpt>
      <trkpt lat="40.133950" lon="-5.381050">
        <ele>1530.0</ele>
        <time>2013-06-30T14:19:10Z</time>
      </trkpt>
      <trkpt lat="40.133950" lon="-5.381200">
        <ele>1528.0</ele>
        <time>2013-06-30T14:19:11Z</time>
      </trkpt>
      <trkpt lat="40.133933" lon="-5.381350">
        <ele>1527.0</ele>
        <time>2013-06-30T14:19:12Z</time>
      </trkpt>
      <trkpt lat="40.133917" lon="-5.381483">
        <ele>1525.0</ele>
        <time>2013-06-30T14:19:13Z</time>
      </trkpt>
      <trkpt lat="40.133900" lon="-5.381633">
        <ele>1524.0</ele>
        <time>2013-06-30T14:19:14Z</time>
      </trkpt>
      <trkpt lat="40.133883" lon="-5.381767">
        <ele>1523.0</ele>
        <time>2013-06-30T14:19:15Z</time>
      </trkpt>
      <trkpt lat="40.133867" lon="-5.381917">
        <ele>1522.0</ele>
        <time>2013-06-30T14:19:16Z</time>
      </trkpt>
      <trkpt lat="40.133850" lon="-5.382067">
        <ele>1521.0</ele>
        <time>2013-06-30T14:19:17Z</time>
      </trkpt>
      <trkpt lat="40.133817" lon="-5.382200">
        <ele>1520.0</ele>
        <time>2013-06-30T14:19:18Z</time>
      </trkpt>
      <trkpt lat="40.133800" lon="-5.382350">
        <ele>1518.0</ele>
        <time>2013-06-30T14:19:19Z</time>
      </trkpt>
      <trkpt lat="40.133783" lon="-5.382500">
        <ele>1517.0</ele>
        <time>2013-06-30T14:19:20Z</time>
      </trkpt>
      <trkpt lat="40.133750" lon="-5.382667">
        <ele>1515.0</ele>
        <time>2013-06-30T14:19:21Z</time>
      </trkpt>
      <trkpt lat="40.133717" lon="-5.382817">
        <ele>1514.0</ele>
        <time>2013-06-30T14:19:22Z</time>
      </trkpt>
      <trkpt lat="40.133683" lon="-5.382983">
        <ele>1513.0</ele>
        <time>2013-06-30T14:19:23Z</time>
      </trkpt>
      <trkpt lat="40.133650" lon="-5.383167">
        <ele>1512.0</ele>
        <time>2013-06-30T14:19:24Z</time>
      </trkpt>
      <trkpt lat="40.133633" lon="-5.383317">
        <ele>1512.0</ele>
        <time>2013-06-30T14:19:25Z</time>
      </trkpt>
      <trkpt lat="40.133600" lon="-5.383467">
        <ele>1512.0</ele>
        <time>2013-06-30T14:19:26Z</time>
      </trkpt>
      <trkpt lat="40.133550" lon="-5.383617">
        <ele>1512.0</ele>
        <time>2013-06-30T14:19:27Z</time>
      </trkpt>
      <trkpt lat="40.133517" lon="-5.383767">
        <ele>1512.0</ele>
        <time>2013-06-30T14:19:28Z</time>
      </trkpt>
      <trkpt lat="40.133483" lon="-5.383917">
        <ele>1511.0</ele>
        <time>2013-06-30T14:19:29Z</time>
      </trkpt>
      <trkpt lat="40.133450" lon="-5.384083">
        <ele>1510.0</ele>
        <time>2013-06-30T14:19:30Z</time>
      </trkpt>
      <trkpt lat="40.133417" lon="-5.384250">
        <ele>1509.0</ele>
        <time>2013-06-30T14:19:31Z</time>
      </trkpt>
      <trkpt lat="40.133383" lon="-5.384400">
        <ele>1508.0</ele>
        <time>2013-06-30T14:19:32Z</time>
      </trkpt>
      <trkpt lat="40.133350" lon="-5.384567">
        <ele>1509.0</ele>
        <time>2013-06-30T14:19:33Z</time>
      </trkpt>
      <trkpt lat="40.133317" lon="-5.384717">
        <ele>1509.0</ele>
        <time>2013-06-30T14:19:34Z</time>
      </trkpt>
      <trkpt lat="40.133283" lon="-5.384867">
        <ele>1510.0</ele>
        <time>2013-06-30T14:19:35Z</time>
      </trkpt>
      <trkpt lat="40.133267" lon="-5.385017">
        <ele>1510.0</ele>
        <time>2013-06-30T14:19:36Z</time>
      </trkpt>
      <trkpt lat="40.133233" lon="-5.385150">
        <ele>1511.0</ele>
        <time>2013-06-30T14:19:37Z</time>
      </trkpt>
      <trkpt lat="40.133233" lon="-5.385283">
        <ele>1512.0</ele>
        <time>2013-06-30T14:19:38Z</time>
      </trkpt>
      <trkpt lat="40.133217" lon="-5.385400">
        <ele>1512.0</ele>
        <time>2013-06-30T14:19:39Z</time>
      </trkpt>
      <trkpt lat="40.133217" lon="-5.385533">
        <ele>1512.0</ele>
        <time>2013-06-30T14:19:40Z</time>
      </trkpt>
      <trkpt lat="40.133200" lon="-5.385667">
        <ele>1511.0</ele>
        <time>2013-06-30T14:19:41Z</time>
      </trkpt>
      <trkpt lat="40.133200" lon="-5.385800">
        <ele>1510.0</ele>
        <time>2013-06-30T14:19:42Z</time>
      </trkpt>
      <trkpt lat="40.133183" lon="-5.385950">
        <ele>1508.0</ele>
        <time>2013-06-30T14:19:43Z</time>
      </trkpt>
      <trkpt lat="40.133183" lon="-5.386100">
        <ele>1508.0</ele>
        <time>2013-06-30T14:19:44Z</time>
      </trkpt>
      <trkpt lat="40.133167" lon="-5.386250">
        <ele>1507.0</ele>
        <time>2013-06-30T14:19:45Z</time>
      </trkpt>
      <trkpt lat="40.133150" lon="-5.386383">
        <ele>1507.0</ele>
        <time>2013-06-30T14:19:46Z</time>
      </trkpt>
      <trkpt lat="40.133150" lon="-5.386533">
        <ele>1506.0</ele>
        <time>2013-06-30T14:19:47Z</time>
      </trkpt>
      <trkpt lat="40.133167" lon="-5.386700">
        <ele>1505.0</ele>
        <time>2013-06-30T14:19:48Z</time>
      </trkpt>
      <trkpt lat="40.133167" lon="-5.386850">
        <ele>1504.0</ele>
        <time>2013-06-30T14:19:49Z</time>
      </trkpt>
      <trkpt lat="40.133183" lon="-5.387000">
        <ele>1504.0</ele>
        <time>2013-06-30T14:19:50Z</time>
      </trkpt>
      <trkpt lat="40.133183" lon="-5.387150">
        <ele>1504.0</ele>
        <time>2013-06-30T14:19:51Z</time>
      </trkpt>
      <trkpt lat="40.133183" lon="-5.387300">
        <ele>1504.0</ele>
        <time>2013-06-30T14:19:52Z</time>
      </trkpt>
      <trkpt lat="40.133183" lon="-5.387467">
        <ele>1504.0</ele>
        <time>2013-06-30T14:19:53Z</time>
      </trkpt>
      <trkpt lat="40.133217" lon="-5.387600">
        <ele>1505.0</ele>
        <time>2013-06-30T14:19:54Z</time>
      </trkpt>
      <trkpt lat="40.133233" lon="-5.387717">
        <ele>1506.0</ele>
        <time>2013-06-30T14:19:55Z</time>
      </trkpt>
      <trkpt lat="40.133267" lon="-5.387817">
        <ele>1507.0</ele>
        <time>2013-06-30T14:19:56Z</time>
      </trkpt>
      <trkpt lat="40.133300" lon="-5.387933">
        <ele>1507.0</ele>
        <time>2013-06-30T14:19:57Z</time>
      </trkpt>
      <trkpt lat="40.133317" lon="-5.388067">
        <ele>1506.0</ele>
        <time>2013-06-30T14:19:58Z</time>
      </trkpt>
      <trkpt lat="40.133350" lon="-5.388200">
        <ele>1505.0</ele>
        <time>2013-06-30T14:19:59Z</time>
      </trkpt>
      <trkpt lat="40.133383" lon="-5.388350">
        <ele>1505.0</ele>
        <time>2013-06-30T14:20:00Z</time>
      </trkpt>
      <trkpt lat="40.133450" lon="-5.388467">
        <ele>1505.0</ele>
        <time>2013-06-30T14:20:01Z</time>
      </trkpt>
      <trkpt lat="40.133517" lon="-5.388567">
        <ele>1506.0</ele>
        <time>2013-06-30T14:20:02Z</time>
      </trkpt>
      <trkpt lat="40.133583" lon="-5.388650">
        <ele>1506.0</ele>
        <time>2013-06-30T14:20:03Z</time>
      </trkpt>
      <trkpt lat="40.133683" lon="-5.388733">
        <ele>1506.0</ele>
        <time>2013-06-30T14:20:04Z</time>
      </trkpt>
      <trkpt lat="40.133767" lon="-5.388800">
        <ele>1506.0</ele>
        <time>2013-06-30T14:20:05Z</time>
      </trkpt>
      <trkpt lat="40.133867" lon="-5.388850">
        <ele>1507.0</ele>
        <time>2013-06-30T14:20:06Z</time>
      </trkpt>
      <trkpt lat="40.133950" lon="-5.388867">
        <ele>1507.0</ele>
        <time>2013-06-30T14:20:07Z</time>
      </trkpt>
      <trkpt lat="40.134050" lon="-5.388867">
        <ele>1507.0</ele>
        <time>2013-06-30T14:20:08Z</time>
      </trkpt>
      <trkpt lat="40.134133" lon="-5.388850">
        <ele>1508.0</ele>
        <time>2013-06-30T14:20:09Z</time>
      </trkpt>
      <trkpt lat="40.134200" lon="-5.388833">
        <ele>1508.0</ele>
        <time>2013-06-30T14:20:10Z</time>
      </trkpt>
      <trkpt lat="40.134267" lon="-5.388800">
        <ele>1509.0</ele>
        <time>2013-06-30T14:20:11Z</time>
      </trkpt>
      <trkpt lat="40.134317" lon="-5.388767">
        <ele>1509.0</ele>
        <time>2013-06-30T14:20:12Z</time>
      </trkpt>
      <trkpt lat="40.134367" lon="-5.388717">
        <ele>1509.0</ele>
        <time>2013-06-30T14:20:13Z</time>
      </trkpt>
      <trkpt lat="40.134400" lon="-5.388683">
        <ele>1509.0</ele>
        <time>2013-06-30T14:20:14Z</time>
      </trkpt>
      <trkpt lat="40.134433" lon="-5.388650">
        <ele>1508.0</ele>
        <time>2013-06-30T14:20:15Z</time>
      </trkpt>
      <trkpt lat="40.134467" lon="-5.388600">
        <ele>1506.0</ele>
        <time>2013-06-30T14:20:16Z</time>
      </trkpt>
      <trkpt lat="40.134483" lon="-5.388533">
        <ele>1505.0</ele>
        <time>2013-06-30T14:20:17Z</time>
      </trkpt>
      <trkpt lat="40.134500" lon="-5.388467">
        <ele>1505.0</ele>
        <time>2013-06-30T14:20:18Z</time>
      </trkpt>
      <trkpt lat="40.134517" lon="-5.388400">
        <ele>1504.0</ele>
        <time>2013-06-30T14:20:19Z</time>
      </trkpt>
      <trkpt lat="40.134517" lon="-5.388317">
        <ele>1503.0</ele>
        <time>2013-06-30T14:20:20Z</time>
      </trkpt>
      <trkpt lat="40.134517" lon="-5.388217">
        <ele>1502.0</ele>
        <time>2013-06-30T14:20:21Z</time>
      </trkpt>
      <trkpt lat="40.134517" lon="-5.388133">
        <ele>1502.0</ele>
        <time>2013-06-30T14:20:22Z</time>
      </trkpt>
      <trkpt lat="40.134500" lon="-5.388050">
        <ele>1502.0</ele>
        <time>2013-06-30T14:20:23Z</time>
      </trkpt>
      <trkpt lat="40.134500" lon="-5.387967">
        <ele>1502.0</ele>
        <time>2013-06-30T14:20:24Z</time>
      </trkpt>
      <trkpt lat="40.134483" lon="-5.387883">
        <ele>1501.0</ele>
        <time>2013-06-30T14:20:25Z</time>
      </trkpt>
      <trkpt lat="40.134467" lon="-5.387800">
        <ele>1500.0</ele>
        <time>2013-06-30T14:20:26Z</time>
      </trkpt>
      <trkpt lat="40.134467" lon="-5.387717">
        <ele>1498.0</ele>
        <time>2013-06-30T14:20:27Z</time>
      </trkpt>
      <trkpt lat="40.134433" lon="-5.387633">
        <ele>1497.0</ele>
        <time>2013-06-30T14:20:28Z</time>
      </trkpt>
      <trkpt lat="40.134383" lon="-5.387533">
        <ele>1496.0</ele>
        <time>2013-06-30T14:20:29Z</time>
      </trkpt>
      <trkpt lat="40.134333" lon="-5.387450">
        <ele>1497.0</ele>
        <time>2013-06-30T14:20:30Z</time>
      </trkpt>
      <trkpt lat="40.134300" lon="-5.387400">
        <ele>1498.0</ele>
        <time>2013-06-30T14:20:31Z</time>
      </trkpt>
      <trkpt lat="40.134267" lon="-5.387333">
        <ele>1499.0</ele>
        <time>2013-06-30T14:20:32Z</time>
      </trkpt>
      <trkpt lat="40.134233" lon="-5.387283">
        <ele>1500.0</ele>
        <time>2013-06-30T14:20:33Z</time>
      </trkpt>
      <trkpt lat="40.134217" lon="-5.387250">
        <ele>1500.0</ele>
        <time>2013-06-30T14:20:34Z</time>
      </trkpt>
      <trkpt lat="40.134200" lon="-5.387200">
        <ele>1500.0</ele>
        <time>2013-06-30T14:20:35Z</time>
      </trkpt>
      <trkpt lat="40.134183" lon="-5.387133">
        <ele>1498.0</ele>
        <time>2013-06-30T14:20:36Z</time>
      </trkpt>
      <trkpt lat="40.134167" lon="-5.387083">
        <ele>1497.0</ele>
        <time>2013-06-30T14:20:37Z</time>
      </trkpt>
      <trkpt lat="40.134133" lon="-5.387017">
        <ele>1496.0</ele>
        <time>2013-06-30T14:20:38Z</time>
      </trkpt>
      <trkpt lat="40.134100" lon="-5.386983">
        <ele>1496.0</ele>
        <time>2013-06-30T14:20:39Z</time>
      </trkpt>
      <trkpt lat="40.134050" lon="-5.386967">
        <ele>1495.0</ele>
        <time>2013-06-30T14:20:40Z</time>
      </trkpt>
      <trkpt lat="40.134017" lon="-5.386967">
        <ele>1494.0</ele>
        <time>2013-06-30T14:20:41Z</time>
      </trkpt>
      <trkpt lat="40.133950" lon="-5.386967">
        <ele>1494.0</ele>
        <time>2013-06-30T14:20:42Z</time>
      </trkpt>
      <trkpt lat="40.133900" lon="-5.386967">
        <ele>1493.0</ele>
        <time>2013-06-30T14:20:43Z</time>
      </trkpt>
      <trkpt lat="40.133833" lon="-5.386983">
        <ele>1492.0</ele>
        <time>2013-06-30T14:20:44Z</time>
      </trkpt>
      <trkpt lat="40.133783" lon="-5.387000">
        <ele>1492.0</ele>
        <time>2013-06-30T14:20:45Z</time>
      </trkpt>
      <trkpt lat="40.133717" lon="-5.387033">
        <ele>1491.0</ele>
        <time>2013-06-30T14:20:46Z</time>
      </trkpt>
      <trkpt lat="40.133650" lon="-5.387083">
        <ele>1489.0</ele>
        <time>2013-06-30T14:20:47Z</time>
      </trkpt>
      <trkpt lat="40.133583" lon="-5.387133">
        <ele>1488.0</ele>
        <time>2013-06-30T14:20:48Z</time>
      </trkpt>
      <trkpt lat="40.133517" lon="-5.387200">
        <ele>1485.0</ele>
        <time>2013-06-30T14:20:49Z</time>
      </trkpt>
      <trkpt lat="40.133450" lon="-5.387267">
        <ele>1483.0</ele>
        <time>2013-06-30T14:20:50Z</time>
      </trkpt>
      <trkpt lat="40.133367" lon="-5.387317">
        <ele>1480.0</ele>
        <time>2013-06-30T14:20:51Z</time>
      </trkpt>
      <trkpt lat="40.133300" lon="-5.387367">
        <ele>1478.0</ele>
        <time>2013-06-30T14:20:52Z</time>
      </trkpt>
      <trkpt lat="40.133233" lon="-5.387433">
        <ele>1476.0</ele>
        <time>2013-06-30T14:20:53Z</time>
      </trkpt>
      <trkpt lat="40.133150" lon="-5.387517">
        <ele>1475.0</ele>
        <time>2013-06-30T14:20:54Z</time>
      </trkpt>
      <trkpt lat="40.133083" lon="-5.387583">
        <ele>1475.0</ele>
        <time>2013-06-30T14:20:55Z</time>
      </trkpt>
      <trkpt lat="40.133017" lon="-5.387667">
        <ele>1475.0</ele>
        <time>2013-06-30T14:20:56Z</time>
      </trkpt>
      <trkpt lat="40.132950" lon="-5.387733">
        <ele>1474.0</ele>
        <time>2013-06-30T14:20:57Z</time>
      </trkpt>
      <trkpt lat="40.132883" lon="-5.387817">
        <ele>1473.0</ele>
        <time>2013-06-30T14:20:58Z</time>
      </trkpt>
      <trkpt lat="40.132817" lon="-5.387917">
        <ele>1472.0</ele>
        <time>2013-06-30T14:20:59Z</time>
      </trkpt>
      <trkpt lat="40.132767" lon="-5.388000">
        <ele>1470.0</ele>
        <time>2013-06-30T14:21:00Z</time>
      </trkpt>
      <trkpt lat="40.132700" lon="-5.388117">
        <ele>1468.0</ele>
        <time>2013-06-30T14:21:01Z</time>
      </trkpt>
      <trkpt lat="40.132633" lon="-5.388233">
        <ele>1466.0</ele>
        <time>2013-06-30T14:21:02Z</time>
      </trkpt>
      <trkpt lat="40.132567" lon="-5.388333">
        <ele>1465.0</ele>
        <time>2013-06-30T14:21:03Z</time>
      </trkpt>
      <trkpt lat="40.132517" lon="-5.388450">
        <ele>1464.0</ele>
        <time>2013-06-30T14:21:04Z</time>
      </trkpt>
      <trkpt lat="40.132483" lon="-5.388583">
        <ele>1463.0</ele>
        <time>2013-06-30T14:21:05Z</time>
      </trkpt>
      <trkpt lat="40.132450" lon="-5.388717">
        <ele>1461.0</ele>
        <time>2013-06-30T14:21:06Z</time>
      </trkpt>
      <trkpt lat="40.132400" lon="-5.388850">
        <ele>1458.0</ele>
        <time>2013-06-30T14:21:07Z</time>
      </trkpt>
      <trkpt lat="40.132367" lon="-5.388983">
        <ele>1457.0</ele>
        <time>2013-06-30T14:21:08Z</time>
      </trkpt>
      <trkpt lat="40.132333" lon="-5.389117">
        <ele>1455.0</ele>
        <time>2013-06-30T14:21:09Z</time>
      </trkpt>
      <trkpt lat="40.132300" lon="-5.389250">
        <ele>1454.0</ele>
        <time>2013-06-30T14:21:10Z</time>
      </trkpt>
      <trkpt lat="40.132250" lon="-5.389367">
        <ele>1453.0</ele>
        <time>2013-06-30T14:21:11Z</time>
      </trkpt>
      <trkpt lat="40.132200" lon="-5.389467">
        <ele>1452.0</ele>
        <time>2013-06-30T14:21:12Z</time>
      </trkpt>
      <trkpt lat="40.132150" lon="-5.389583">
        <ele>1450.0</ele>
        <time>2013-06-30T14:21:13Z</time>
      </trkpt>
      <trkpt lat="40.132117" lon="-5.389717">
        <ele>1448.0</ele>
        <time>2013-06-30T14:21:14Z</time>
      </trkpt>
      <trkpt lat="40.132117" lon="-5.389850">
        <ele>1446.0</ele>
        <time>2013-06-30T14:21:15Z</time>
      </trkpt>
      <trkpt lat="40.132150" lon="-5.389983">
        <ele>1443.0</ele>
        <time>2013-06-30T14:21:16Z</time>
      </trkpt>
      <trkpt lat="40.132233" lon="-5.390117">
        <ele>1441.0</ele>
        <time>2013-06-30T14:21:17Z</time>
      </trkpt>
      <trkpt lat="40.132317" lon="-5.390217">
        <ele>1439.0</ele>
        <time>2013-06-30T14:21:18Z</time>
      </trkpt>
      <trkpt lat="40.132383" lon="-5.390333">
        <ele>1438.0</ele>
        <time>2013-06-30T14:21:19Z</time>
      </trkpt>
      <trkpt lat="40.132450" lon="-5.390450">
        <ele>1436.0</ele>
        <time>2013-06-30T14:21:20Z</time>
      </trkpt>
      <trkpt lat="40.132500" lon="-5.390567">
        <ele>1434.0</ele>
        <time>2013-06-30T14:21:21Z</time>
      </trkpt>
      <trkpt lat="40.132583" lon="-5.390700">
        <ele>1433.0</ele>
        <time>2013-06-30T14:21:22Z</time>
      </trkpt>
      <trkpt lat="40.132650" lon="-5.390833">
        <ele>1431.0</ele>
        <time>2013-06-30T14:21:23Z</time>
      </trkpt>
      <trkpt lat="40.132733" lon="-5.390950">
        <ele>1432.0</ele>
        <time>2013-06-30T14:21:24Z</time>
      </trkpt>
      <trkpt lat="40.132800" lon="-5.391050">
        <ele>1431.0</ele>
        <time>2013-06-30T14:21:25Z</time>
      </trkpt>
      <trkpt lat="40.132883" lon="-5.391150">
        <ele>1430.0</ele>
        <time>2013-06-30T14:21:26Z</time>
      </trkpt>
      <trkpt lat="40.132950" lon="-5.391267">
        <ele>1429.0</ele>
        <time>2013-06-30T14:21:27Z</time>
      </trkpt>
      <trkpt lat="40.133050" lon="-5.391367">
        <ele>1427.0</ele>
        <time>2013-06-30T14:21:28Z</time>
      </trkpt>
      <trkpt lat="40.133133" lon="-5.391467">
        <ele>1426.0</ele>
        <time>2013-06-30T14:21:29Z</time>
      </trkpt>
      <trkpt lat="40.133233" lon="-5.391567">
        <ele>1425.0</ele>
        <time>2013-06-30T14:21:30Z</time>
      </trkpt>
      <trkpt lat="40.133317" lon="-5.391667">
        <ele>1424.0</ele>
        <time>2013-06-30T14:21:31Z</time>
      </trkpt>
      <trkpt lat="40.133400" lon="-5.391767">
        <ele>1423.0</ele>
        <time>2013-06-30T14:21:32Z</time>
      </trkpt>
      <trkpt lat="40.133483" lon="-5.391883">
        <ele>1422.0</ele>
        <time>2013-06-30T14:21:33Z</time>
      </trkpt>
      <trkpt lat="40.133567" lon="-5.392000">
        <ele>1421.0</ele>
        <time>2013-06-30T14:21:34Z</time>
      </trkpt>
      <trkpt lat="40.133650" lon="-5.392100">
        <ele>1420.0</ele>
        <time>2013-06-30T14:21:35Z</time>
      </trkpt>
      <trkpt lat="40.133733" lon="-5.392217">
        <ele>1419.0</ele>
        <time>2013-06-30T14:21:36Z</time>
      </trkpt>
      <trkpt lat="40.133817" lon="-5.392317">
        <ele>1419.0</ele>
        <time>2013-06-30T14:21:37Z</time>
      </trkpt>
      <trkpt lat="40.133883" lon="-5.392433">
        <ele>1417.0</ele>
        <time>2013-06-30T14:21:38Z</time>
      </trkpt>
      <trkpt lat="40.133917" lon="-5.392567">
        <ele>1416.0</ele>
        <time>2013-06-30T14:21:39Z</time>
      </trkpt>
      <trkpt lat="40.133933" lon="-5.392717">
        <ele>1415.0</ele>
        <time>2013-06-30T14:21:40Z</time>
      </trkpt>
      <trkpt lat="40.133950" lon="-5.392850">
        <ele>1414.0</ele>
        <time>2013-06-30T14:21:41Z</time>
      </trkpt>
      <trkpt lat="40.133950" lon="-5.392983">
        <ele>1413.0</ele>
        <time>2013-06-30T14:21:42Z</time>
      </trkpt>
      <trkpt lat="40.133933" lon="-5.393117">
        <ele>1413.0</ele>
        <time>2013-06-30T14:21:43Z</time>
      </trkpt>
      <trkpt lat="40.133900" lon="-5.393250">
        <ele>1412.0</ele>
        <time>2013-06-30T14:21:44Z</time>
      </trkpt>
      <trkpt lat="40.133900" lon="-5.393383">
        <ele>1412.0</ele>
        <time>2013-06-30T14:21:45Z</time>
      </trkpt>
      <trkpt lat="40.133900" lon="-5.393533">
        <ele>1411.0</ele>
        <time>2013-06-30T14:21:46Z</time>
      </trkpt>
      <trkpt lat="40.133917" lon="-5.393683">
        <ele>1410.0</ele>
        <time>2013-06-30T14:21:47Z</time>
      </trkpt>
      <trkpt lat="40.133917" lon="-5.393817">
        <ele>1410.0</ele>
        <time>2013-06-30T14:21:48Z</time>
      </trkpt>
      <trkpt lat="40.133900" lon="-5.393950">
        <ele>1409.0</ele>
        <time>2013-06-30T14:21:49Z</time>
      </trkpt>
      <trkpt lat="40.133867" lon="-5.394067">
        <ele>1408.0</ele>
        <time>2013-06-30T14:21:50Z</time>
      </trkpt>
      <trkpt lat="40.133833" lon="-5.394167">
        <ele>1407.0</ele>
        <time>2013-06-30T14:21:51Z</time>
      </trkpt>
      <trkpt lat="40.133800" lon="-5.394300">
        <ele>1408.0</ele>
        <time>2013-06-30T14:21:52Z</time>
      </trkpt>
      <trkpt lat="40.133767" lon="-5.394417">
        <ele>1408.0</ele>
        <time>2013-06-30T14:21:53Z</time>
      </trkpt>
      <trkpt lat="40.133717" lon="-5.394517">
        <ele>1410.0</ele>
        <time>2013-06-30T14:21:54Z</time>
      </trkpt>
      <trkpt lat="40.133650" lon="-5.394583">
        <ele>1412.0</ele>
        <time>2013-06-30T14:21:55Z</time>
      </trkpt>
      <trkpt lat="40.133600" lon="-5.394633">
        <ele>1414.0</ele>
        <time>2013-06-30T14:21:56Z</time>
      </trkpt>
      <trkpt lat="40.133567" lon="-5.394683">
        <ele>1415.0</ele>
        <time>2013-06-30T14:21:57Z</time>
      </trkpt>
      <trkpt lat="40.133517" lon="-5.394750">
        <ele>1416.0</ele>
        <time>2013-06-30T14:21:58Z</time>
      </trkpt>
      <trkpt lat="40.133450" lon="-5.394800">
        <ele>1416.0</ele>
        <time>2013-06-30T14:21:59Z</time>
      </trkpt>
      <trkpt lat="40.133383" lon="-5.394833">
        <ele>1416.0</ele>
        <time>2013-06-30T14:22:00Z</time>
      </trkpt>
      <trkpt lat="40.133317" lon="-5.394850">
        <ele>1417.0</ele>
        <time>2013-06-30T14:22:01Z</time>
      </trkpt>
      <trkpt lat="40.133250" lon="-5.394883">
        <ele>1417.0</ele>
        <time>2013-06-30T14:22:02Z</time>
      </trkpt>
      <trkpt lat="40.133183" lon="-5.394917">
        <ele>1418.0</ele>
        <time>2013-06-30T14:22:03Z</time>
      </trkpt>
      <trkpt lat="40.133133" lon="-5.394950">
        <ele>1420.0</ele>
        <time>2013-06-30T14:22:04Z</time>
      </trkpt>
      <trkpt lat="40.133083" lon="-5.394983">
        <ele>1421.0</ele>
        <time>2013-06-30T14:22:05Z</time>
      </trkpt>
      <trkpt lat="40.133017" lon="-5.395000">
        <ele>1422.0</ele>
        <time>2013-06-30T14:22:06Z</time>
      </trkpt>
      <trkpt lat="40.132967" lon="-5.394983">
        <ele>1422.0</ele>
        <time>2013-06-30T14:22:07Z</time>
      </trkpt>
      <trkpt lat="40.132917" lon="-5.394967">
        <ele>1424.0</ele>
        <time>2013-06-30T14:22:08Z</time>
      </trkpt>
      <trkpt lat="40.132867" lon="-5.394933">
        <ele>1425.0</ele>
        <time>2013-06-30T14:22:09Z</time>
      </trkpt>
      <trkpt lat="40.132833" lon="-5.394883">
        <ele>1428.0</ele>
        <time>2013-06-30T14:22:10Z</time>
      </trkpt>
      <trkpt lat="40.132833" lon="-5.394817">
        <ele>1429.0</ele>
        <time>2013-06-30T14:22:11Z</time>
      </trkpt>
      <trkpt lat="40.132850" lon="-5.394767">
        <ele>1429.0</ele>
        <time>2013-06-30T14:22:12Z</time>
      </trkpt>
      <trkpt lat="40.132883" lon="-5.394700">
        <ele>1429.0</ele>
        <time>2013-06-30T14:22:13Z</time>
      </trkpt>
      <trkpt lat="40.132917" lon="-5.394633">
        <ele>1429.0</ele>
        <time>2013-06-30T14:22:14Z</time>
      </trkpt>
      <trkpt lat="40.132967" lon="-5.394583">
        <ele>1429.0</ele>
        <time>2013-06-30T14:22:15Z</time>
      </trkpt>
      <trkpt lat="40.133050" lon="-5.394567">
        <ele>1429.0</ele>
        <time>2013-06-30T14:22:16Z</time>
      </trkpt>
      <trkpt lat="40.133133" lon="-5.394550">
        <ele>1429.0</ele>
        <time>2013-06-30T14:22:17Z</time>
      </trkpt>
      <trkpt lat="40.133217" lon="-5.394583">
        <ele>1429.0</ele>
        <time>2013-06-30T14:22:18Z</time>
      </trkpt>
      <trkpt lat="40.133317" lon="-5.394617">
        <ele>1428.0</ele>
        <time>2013-06-30T14:22:19Z</time>
      </trkpt>
      <trkpt lat="40.133400" lon="-5.394683">
        <ele>1428.0</ele>
        <time>2013-06-30T14:22:20Z</time>
      </trkpt>
      <trkpt lat="40.133483" lon="-5.394783">
        <ele>1427.0</ele>
        <time>2013-06-30T14:22:21Z</time>
      </trkpt>
      <trkpt lat="40.133533" lon="-5.394917">
        <ele>1427.0</ele>
        <time>2013-06-30T14:22:22Z</time>
      </trkpt>
      <trkpt lat="40.133567" lon="-5.395050">
        <ele>1426.0</ele>
        <time>2013-06-30T14:22:23Z</time>
      </trkpt>
      <trkpt lat="40.133550" lon="-5.395183">
        <ele>1427.0</ele>
        <time>2013-06-30T14:22:24Z</time>
      </trkpt>
      <trkpt lat="40.133517" lon="-5.395300">
        <ele>1429.0</ele>
        <time>2013-06-30T14:22:25Z</time>
      </trkpt>
      <trkpt lat="40.133467" lon="-5.395367">
        <ele>1430.0</ele>
        <time>2013-06-30T14:22:26Z</time>
      </trkpt>
      <trkpt lat="40.133417" lon="-5.395433">
        <ele>1432.0</ele>
        <time>2013-06-30T14:22:27Z</time>
      </trkpt>
      <trkpt lat="40.133367" lon="-5.395483">
        <ele>1433.0</ele>
        <time>2013-06-30T14:22:28Z</time>
      </trkpt>
      <trkpt lat="40.133317" lon="-5.395533">
        <ele>1434.0</ele>
        <time>2013-06-30T14:22:29Z</time>
      </trkpt>
      <trkpt lat="40.133267" lon="-5.395567">
        <ele>1436.0</ele>
        <time>2013-06-30T14:22:30Z</time>
      </trkpt>
      <trkpt lat="40.133200" lon="-5.395567">
        <ele>1436.0</ele>
        <time>2013-06-30T14:22:31Z</time>
      </trkpt>
      <trkpt lat="40.133150" lon="-5.395533">
        <ele>1436.0</ele>
        <time>2013-06-30T14:22:32Z</time>
      </trkpt>
      <trkpt lat="40.133100" lon="-5.395467">
        <ele>1436.0</ele>
        <time>2013-06-30T14:22:33Z</time>
      </trkpt>
      <trkpt lat="40.133067" lon="-5.395417">
        <ele>1437.0</ele>
        <time>2013-06-30T14:22:34Z</time>
      </trkpt>
      <trkpt lat="40.133050" lon="-5.395350">
        <ele>1437.0</ele>
        <time>2013-06-30T14:22:35Z</time>
      </trkpt>
      <trkpt lat="40.133050" lon="-5.395283">
        <ele>1437.0</ele>
        <time>2013-06-30T14:22:36Z</time>
      </trkpt>
      <trkpt lat="40.133033" lon="-5.395217">
        <ele>1437.0</ele>
        <time>2013-06-30T14:22:37Z</time>
      </trkpt>
      <trkpt lat="40.133033" lon="-5.395133">
        <ele>1438.0</ele>
        <time>2013-06-30T14:22:38Z</time>
      </trkpt>
      <trkpt lat="40.133017" lon="-5.395067">
        <ele>1439.0</ele>
        <time>2013-06-30T14:22:39Z</time>
      </trkpt>
      <trkpt lat="40.133000" lon="-5.395000">
        <ele>1440.0</ele>
        <time>2013-06-30T14:22:40Z</time>
      </trkpt>
      <trkpt lat="40.133000" lon="-5.394933">
        <ele>1441.0</ele>
        <time>2013-06-30T14:22:41Z</time>
      </trkpt>
      <trkpt lat="40.132983" lon="-5.394867">
        <ele>1441.0</ele>
        <time>2013-06-30T14:22:42Z</time>
      </trkpt>
      <trkpt lat="40.132967" lon="-5.394783">
        <ele>1441.0</ele>
        <time>2013-06-30T14:22:43Z</time>
      </trkpt>
      <trkpt lat="40.132933" lon="-5.394717">
        <ele>1441.0</ele>
        <time>2013-06-30T14:22:44Z</time>
      </trkpt>
      <trkpt lat="40.132883" lon="-5.394667">
        <ele>1441.0</ele>
        <time>2013-06-30T14:22:45Z</time>
      </trkpt>
      <trkpt lat="40.132833" lon="-5.394633">
        <ele>1442.0</ele>
        <time>2013-06-30T14:22:46Z</time>
      </trkpt>
      <trkpt lat="40.132767" lon="-5.394617">
        <ele>1444.0</ele>
        <time>2013-06-30T14:22:47Z</time>
      </trkpt>
      <trkpt lat="40.132717" lon="-5.394600">
        <ele>1446.0</ele>
        <time>2013-06-30T14:22:48Z</time>
      </trkpt>
      <trkpt lat="40.132667" lon="-5.394600">
        <ele>1448.0</ele>
        <time>2013-06-30T14:22:49Z</time>
      </trkpt>
      <trkpt lat="40.132617" lon="-5.394600">
        <ele>1449.0</ele>
        <time>2013-06-30T14:22:50Z</time>
      </trkpt>
      <trkpt lat="40.132550" lon="-5.394617">
        <ele>1450.0</ele>
        <time>2013-06-30T14:22:51Z</time>
      </trkpt>
      <trkpt lat="40.132500" lon="-5.394650">
        <ele>1451.0</ele>
        <time>2013-06-30T14:22:52Z</time>
      </trkpt>
      <trkpt lat="40.132450" lon="-5.394700">
        <ele>1453.0</ele>
        <time>2013-06-30T14:22:53Z</time>
      </trkpt>
      <trkpt lat="40.132400" lon="-5.394750">
        <ele>1455.0</ele>
        <time>2013-06-30T14:22:54Z</time>
      </trkpt>
      <trkpt lat="40.132367" lon="-5.394817">
        <ele>1456.0</ele>
        <time>2013-06-30T14:22:55Z</time>
      </trkpt>
      <trkpt lat="40.132333" lon="-5.394900">
        <ele>1458.0</ele>
        <time>2013-06-30T14:22:56Z</time>
      </trkpt>
      <trkpt lat="40.132300" lon="-5.394983">
        <ele>1459.0</ele>
        <time>2013-06-30T14:22:57Z</time>
      </trkpt>
      <trkpt lat="40.132300" lon="-5.395083">
        <ele>1460.0</ele>
        <time>2013-06-30T14:22:58Z</time>
      </trkpt>
      <trkpt lat="40.132300" lon="-5.395183">
        <ele>1461.0</ele>
        <time>2013-06-30T14:22:59Z</time>
      </trkpt>
      <trkpt lat="40.132350" lon="-5.395267">
        <ele>1462.0</ele>
        <time>2013-06-30T14:23:00Z</time>
      </trkpt>
      <trkpt lat="40.132417" lon="-5.395367">
        <ele>1462.0</ele>
        <time>2013-06-30T14:23:01Z</time>
      </trkpt>
      <trkpt lat="40.132500" lon="-5.395417">
        <ele>1463.0</ele>
        <time>2013-06-30T14:23:02Z</time>
      </trkpt>
      <trkpt lat="40.132600" lon="-5.395467">
        <ele>1466.0</ele>
        <time>2013-06-30T14:23:03Z</time>
      </trkpt>
      <trkpt lat="40.132683" lon="-5.395483">
        <ele>1469.0</ele>
        <time>2013-06-30T14:23:04Z</time>
      </trkpt>
      <trkpt lat="40.132750" lon="-5.395467">
        <ele>1471.0</ele>
        <time>2013-06-30T14:23:05Z</time>
      </trkpt>
      <trkpt lat="40.132817" lon="-5.395450">
        <ele>1473.0</ele>
        <time>2013-06-30T14:23:06Z</time>
      </trkpt>
      <trkpt lat="40.132867" lon="-5.395400">
        <ele>1474.0</ele>
        <time>2013-06-30T14:23:07Z</time>
      </trkpt>
      <trkpt lat="40.132933" lon="-5.395350">
        <ele>1474.0</ele>
        <time>2013-06-30T14:23:08Z</time>
      </trkpt>
      <trkpt lat="40.132983" lon="-5.395267">
        <ele>1475.0</ele>
        <time>2013-06-30T14:23:09Z</time>
      </trkpt>
      <trkpt lat="40.133017" lon="-5.395183">
        <ele>1476.0</ele>
        <time>2013-06-30T14:23:10Z</time>
      </trkpt>
      <trkpt lat="40.133033" lon="-5.395100">
        <ele>1477.0</ele>
        <time>2013-06-30T14:23:11Z</time>
      </trkpt>
      <trkpt lat="40.133033" lon="-5.395017">
        <ele>1478.0</ele>
        <time>2013-06-30T14:23:12Z</time>
      </trkpt>
      <trkpt lat="40.133017" lon="-5.394933">
        <ele>1478.0</ele>
        <time>2013-06-30T14:23:13Z</time>
      </trkpt>
      <trkpt lat="40.132983" lon="-5.394850">
        <ele>1478.0</ele>
        <time>2013-06-30T14:23:14Z</time>
      </trkpt>
      <trkpt lat="40.132950" lon="-5.394783">
        <ele>1479.0</ele>
        <time>2013-06-30T14:23:15Z</time>
      </trkpt>
      <trkpt lat="40.132883" lon="-5.394733">
        <ele>1479.0</ele>
        <time>2013-06-30T14:23:16Z</time>
      </trkpt>
      <trkpt lat="40.132817" lon="-5.394717">
        <ele>1480.0</ele>
        <time>2013-06-30T14:23:17Z</time>
      </trkpt>
      <trkpt lat="40.132750" lon="-5.394700">
        <ele>1481.0</ele>
        <time>2013-06-30T14:23:18Z</time>
      </trkpt>
      <trkpt lat="40.132683" lon="-5.394683">
        <ele>1483.0</ele>
        <time>2013-06-30T14:23:19Z</time>
      </trkpt>
      <trkpt lat="40.132633" lon="-5.394667">
        <ele>1484.0</ele>
        <time>2013-06-30T14:23:20Z</time>
      </trkpt>
      <trkpt lat="40.132567" lon="-5.394683">
        <ele>1485.0</ele>
        <time>2013-06-30T14:23:21Z</time>
      </trkpt>
      <trkpt lat="40.132517" lon="-5.394717">
        <ele>1485.0</ele>
        <time>2013-06-30T14:23:22Z</time>
      </trkpt>
      <trkpt lat="40.132467" lon="-5.394767">
        <ele>1486.0</ele>
        <time>2013-06-30T14:23:23Z</time>
      </trkpt>
      <trkpt lat="40.132450" lon="-5.394833">
        <ele>1486.0</ele>
        <time>2013-06-30T14:23:24Z</time>
      </trkpt>
      <trkpt lat="40.132417" lon="-5.394900">
        <ele>1486.0</ele>
        <time>2013-06-30T14:23:25Z</time>
      </trkpt>
      <trkpt lat="40.132383" lon="-5.394983">
        <ele>1486.0</ele>
        <time>2013-06-30T14:23:26Z</time>
      </trkpt>
      <trkpt lat="40.132333" lon="-5.395067">
        <ele>1487.0</ele>
        <time>2013-06-30T14:23:27Z</time>
      </trkpt>
      <trkpt lat="40.132317" lon="-5.395167">
        <ele>1488.0</ele>
        <time>2013-06-30T14:23:28Z</time>
      </trkpt>
      <trkpt lat="40.132317" lon="-5.395267">
        <ele>1489.0</ele>
        <time>2013-06-30T14:23:29Z</time>
      </trkpt>
      <trkpt lat="40.132317" lon="-5.395367">
        <ele>1490.0</ele>
        <time>2013-06-30T14:23:30Z</time>
      </trkpt>
      <trkpt lat="40.132317" lon="-5.395467">
        <ele>1491.0</ele>
        <time>2013-06-30T14:23:31Z</time>
      </trkpt>
      <trkpt lat="40.132317" lon="-5.395583">
        <ele>1491.0</ele>
        <time>2013-06-30T14:23:32Z</time>
      </trkpt>
      <trkpt lat="40.132333" lon="-5.395700">
        <ele>1491.0</ele>
        <time>2013-06-30T14:23:33Z</time>
      </trkpt>
      <trkpt lat="40.132383" lon="-5.395817">
        <ele>1492.0</ele>
        <time>2013-06-30T14:23:34Z</time>
      </trkpt>
      <trkpt lat="40.132433" lon="-5.395933">
        <ele>1493.0</ele>
        <time>2013-06-30T14:23:35Z</time>
      </trkpt>
      <trkpt lat="40.132517" lon="-5.396033">
        <ele>1495.0</ele>
        <time>2013-06-30T14:23:36Z</time>
      </trkpt>
      <trkpt lat="40.132600" lon="-5.396117">
        <ele>1496.0</ele>
        <time>2013-06-30T14:23:37Z</time>
      </trkpt>
      <trkpt lat="40.132667" lon="-5.396167">
        <ele>1498.0</ele>
        <time>2013-06-30T14:23:38Z</time>
      </trkpt>
      <trkpt lat="40.132750" lon="-5.396233">
        <ele>1499.0</ele>
        <time>2013-06-30T14:23:39Z</time>
      </trkpt>
      <trkpt lat="40.132833" lon="-5.396300">
        <ele>1500.0</ele>
        <time>2013-06-30T14:23:40Z</time>
      </trkpt>
      <trkpt lat="40.132933" lon="-5.396350">
        <ele>1501.0</ele>
        <time>2013-06-30T14:23:41Z</time>
      </trkpt>
      <trkpt lat="40.133033" lon="-5.396367">
        <ele>1502.0</ele>
        <time>2013-06-30T14:23:42Z</time>
      </trkpt>
      <trkpt lat="40.133117" lon="-5.396350">
        <ele>1503.0</ele>
        <time>2013-06-30T14:23:43Z</time>
      </trkpt>
      <trkpt lat="40.133217" lon="-5.396317">
        <ele>1504.0</ele>
        <time>2013-06-30T14:23:44Z</time>
      </trkpt>
      <trkpt lat="40.133300" lon="-5.396283">
        <ele>1505.0</ele>
        <time>2013-06-30T14:23:45Z</time>
      </trkpt>
      <trkpt lat="40.133367" lon="-5.396233">
        <ele>1507.0</ele>
        <time>2013-06-30T14:23:46Z</time>
      </trkpt>
      <trkpt lat="40.133433" lon="-5.396183">
        <ele>1509.0</ele>
        <time>2013-06-30T14:23:47Z</time>
      </trkpt>
      <trkpt lat="40.133483" lon="-5.396117">
        <ele>1510.0</ele>
        <time>2013-06-30T14:23:48Z</time>
      </trkpt>
      <trkpt lat="40.133517" lon="-5.396033">
        <ele>1510.0</ele>
        <time>2013-06-30T14:23:49Z</time>
      </trkpt>
      <trkpt lat="40.133567" lon="-5.395933">
        <ele>1511.0</ele>
        <time>2013-06-30T14:23:50Z</time>
      </trkpt>
      <trkpt lat="40.133583" lon="-5.395833">
        <ele>1513.0</ele>
        <time>2013-06-30T14:23:51Z</time>
      </trkpt>
      <trkpt lat="40.133567" lon="-5.395750">
        <ele>1514.0</ele>
        <time>2013-06-30T14:23:52Z</time>
      </trkpt>
      <trkpt lat="40.133550" lon="-5.395683">
        <ele>1515.0</ele>
        <time>2013-06-30T14:23:53Z</time>
      </trkpt>
      <trkpt lat="40.133500" lon="-5.395633">
        <ele>1515.0</ele>
        <time>2013-06-30T14:23:54Z</time>
      </trkpt>
      <trkpt lat="40.133450" lon="-5.395600">
        <ele>1516.0</ele>
        <time>2013-06-30T14:23:55Z</time>
      </trkpt>
      <trkpt lat="40.133400" lon="-5.395583">
        <ele>1516.0</ele>
        <time>2013-06-30T14:23:56Z</time>
      </trkpt>
      <trkpt lat="40.133350" lon="-5.395583">
        <ele>1517.0</ele>
        <time>2013-06-30T14:23:57Z</time>
      </trkpt>
      <trkpt lat="40.133300" lon="-5.395617">
        <ele>1517.0</ele>
        <time>2013-06-30T14:23:58Z</time>
      </trkpt>
      <trkpt lat="40.133267" lon="-5.395683">
        <ele>1517.0</ele>
        <time>2013-06-30T14:23:59Z</time>
      </trkpt>
      <trkpt lat="40.133250" lon="-5.395767">
        <ele>1517.0</ele>
        <time>2013-06-30T14:24:00Z</time>
      </trkpt>
      <trkpt lat="40.133250" lon="-5.395883">
        <ele>1517.0</ele>
        <time>2013-06-30T14:24:01Z</time>
      </trkpt>
      <trkpt lat="40.133250" lon="-5.396000">
        <ele>1518.0</ele>
        <time>2013-06-30T14:24:02Z</time>
      </trkpt>
      <trkpt lat="40.133250" lon="-5.396117">
        <ele>1521.0</ele>
        <time>2013-06-30T14:24:03Z</time>
      </trkpt>
      <trkpt lat="40.133250" lon="-5.396217">
        <ele>1524.0</ele>
        <time>2013-06-30T14:24:04Z</time>
      </trkpt>
      <trkpt lat="40.133250" lon="-5.396300">
        <ele>1527.0</ele>
        <time>2013-06-30T14:24:05Z</time>
      </trkpt>
      <trkpt lat="40.133250" lon="-5.396400">
        <ele>1528.0</ele>
        <time>2013-06-30T14:24:06Z</time>
      </trkpt>
      <trkpt lat="40.133250" lon="-5.396500">
        <ele>1529.0</ele>
        <time>2013-06-30T14:24:07Z</time>
      </trkpt>
      <trkpt lat="40.133233" lon="-5.396617">
        <ele>1530.0</ele>
        <time>2013-06-30T14:24:08Z</time>
      </trkpt>
      <trkpt lat="40.133200" lon="-5.396717">
        <ele>1531.0</ele>
        <time>2013-06-30T14:24:09Z</time>
      </trkpt>
      <trkpt lat="40.133150" lon="-5.396783">
        <ele>1534.0</ele>
        <time>2013-06-30T14:24:10Z</time>
      </trkpt>
      <trkpt lat="40.133100" lon="-5.396833">
        <ele>1535.0</ele>
        <time>2013-06-30T14:24:11Z</time>
      </trkpt>
      <trkpt lat="40.133050" lon="-5.396850">
        <ele>1537.0</ele>
        <time>2013-06-30T14:24:12Z</time>
      </trkpt>
      <trkpt lat="40.133000" lon="-5.396850">
        <ele>1539.0</ele>
        <time>2013-06-30T14:24:13Z</time>
      </trkpt>
      <trkpt lat="40.132950" lon="-5.396850">
        <ele>1540.0</ele>
        <time>2013-06-30T14:24:14Z</time>
      </trkpt>
      <trkpt lat="40.132900" lon="-5.396850">
        <ele>1541.0</ele>
        <time>2013-06-30T14:24:15Z</time>
      </trkpt>
      <trkpt lat="40.132867" lon="-5.396817">
        <ele>1542.0</ele>
        <time>2013-06-30T14:24:16Z</time>
      </trkpt>
      <trkpt lat="40.132850" lon="-5.396750">
        <ele>1544.0</ele>
        <time>2013-06-30T14:24:17Z</time>
      </trkpt>
      <trkpt lat="40.132850" lon="-5.396667">
        <ele>1545.0</ele>
        <time>2013-06-30T14:24:18Z</time>
      </trkpt>
      <trkpt lat="40.132883" lon="-5.396583">
        <ele>1547.0</ele>
        <time>2013-06-30T14:24:19Z</time>
      </trkpt>
      <trkpt lat="40.132917" lon="-5.396517">
        <ele>1549.0</ele>
        <time>2013-06-30T14:24:20Z</time>
      </trkpt>
      <trkpt lat="40.132967" lon="-5.396450">
        <ele>1552.0</ele>
        <time>2013-06-30T14:24:21Z</time>
      </trkpt>
      <trkpt lat="40.133033" lon="-5.396383">
        <ele>1555.0</ele>
        <time>2013-06-30T14:24:22Z</time>
      </trkpt>
      <trkpt lat="40.133100" lon="-5.396350">
        <ele>1557.0</ele>
        <time>2013-06-30T14:24:23Z</time>
      </trkpt>
      <trkpt lat="40.133183" lon="-5.396317">
        <ele>1559.0</ele>
        <time>2013-06-30T14:24:24Z</time>
      </trkpt>
      <trkpt lat="40.133283" lon="-5.396283">
        <ele>1560.0</ele>
        <time>2013-06-30T14:24:25Z</time>
      </trkpt>
      <trkpt lat="40.133400" lon="-5.396300">
        <ele>1563.0</ele>
        <time>2013-06-30T14:24:26Z</time>
      </trkpt>
      <trkpt lat="40.133500" lon="-5.396333">
        <ele>1565.0</ele>
        <time>2013-06-30T14:24:27Z</time>
      </trkpt>
      <trkpt lat="40.133583" lon="-5.396400">
        <ele>1567.0</ele>
        <time>2013-06-30T14:24:28Z</time>
      </trkpt>
      <trkpt lat="40.133683" lon="-5.396467">
        <ele>1569.0</ele>
        <time>2013-06-30T14:24:29Z</time>
      </trkpt>
      <trkpt lat="40.133767" lon="-5.396550">
        <ele>1571.0</ele>
        <time>2013-06-30T14:24:30Z</time>
      </trkpt>
      <trkpt lat="40.133833" lon="-5.396650">
        <ele>1573.0</ele>
        <time>2013-06-30T14:24:31Z</time>
      </trkpt>
      <trkpt lat="40.133900" lon="-5.396750">
        <ele>1575.0</ele>
        <time>2013-06-30T14:24:32Z</time>
      </trkpt>
      <trkpt lat="40.133933" lon="-5.396883">
        <ele>1577.0</ele>
        <time>2013-06-30T14:24:33Z</time>
      </trkpt>
      <trkpt lat="40.133950" lon="-5.397017">
        <ele>1578.0</ele>
        <time>2013-06-30T14:24:34Z</time>
      </trkpt>
      <trkpt lat="40.133950" lon="-5.397133">
        <ele>1580.0</ele>
        <time>2013-06-30T14:24:35Z</time>
      </trkpt>
      <trkpt lat="40.133950" lon="-5.397233">
        <ele>1582.0</ele>
        <time>2013-06-30T14:24:36Z</time>
      </trkpt>
      <trkpt lat="40.133950" lon="-5.397333">
        <ele>1584.0</ele>
        <time>2013-06-30T14:24:37Z</time>
      </trkpt>
      <trkpt lat="40.133950" lon="-5.397417">
        <ele>1585.0</ele>
        <time>2013-06-30T14:24:38Z</time>
      </trkpt>
      <trkpt lat="40.133933" lon="-5.397517">
        <ele>1585.0</ele>
        <time>2013-06-30T14:24:39Z</time>
      </trkpt>
      <trkpt lat="40.133900" lon="-5.397600">
        <ele>1584.0</ele>
        <time>2013-06-30T14:24:40Z</time>
      </trkpt>
      <trkpt lat="40.133850" lon="-5.397667">
        <ele>1584.0</ele>
        <time>2013-06-30T14:24:41Z</time>
      </trkpt>
      <trkpt lat="40.133800" lon="-5.397717">
        <ele>1584.0</ele>
        <time>2013-06-30T14:24:42Z</time>
      </trkpt>
      <trkpt lat="40.133733" lon="-5.397733">
        <ele>1584.0</ele>
        <time>2013-06-30T14:24:43Z</time>
      </trkpt>
      <trkpt lat="40.133667" lon="-5.397717">
        <ele>1584.0</ele>
        <time>2013-06-30T14:24:44Z</time>
      </trkpt>
      <trkpt lat="40.133617" lon="-5.397667">
        <ele>1584.0</ele>
        <time>2013-06-30T14:24:45Z</time>
      </trkpt>
      <trkpt lat="40.133583" lon="-5.397617">
        <ele>1584.0</ele>
        <time>2013-06-30T14:24:46Z</time>
      </trkpt>
      <trkpt lat="40.133550" lon="-5.397550">
        <ele>1584.0</ele>
        <time>2013-06-30T14:24:47Z</time>
      </trkpt>
      <trkpt lat="40.133517" lon="-5.397483">
        <ele>1584.0</ele>
        <time>2013-06-30T14:24:48Z</time>
      </trkpt>
      <trkpt lat="40.133483" lon="-5.397417">
        <ele>1584.0</ele>
        <time>2013-06-30T14:24:49Z</time>
      </trkpt>
      <trkpt lat="40.133467" lon="-5.397350">
        <ele>1585.0</ele>
        <time>2013-06-30T14:24:50Z</time>
      </trkpt>
      <trkpt lat="40.133467" lon="-5.397267">
        <ele>1585.0</ele>
        <time>2013-06-30T14:24:51Z</time>
      </trkpt>
      <trkpt lat="40.133483" lon="-5.397150">
        <ele>1586.0</ele>
        <time>2013-06-30T14:24:52Z</time>
      </trkpt>
      <trkpt lat="40.133517" lon="-5.397050">
        <ele>1588.0</ele>
        <time>2013-06-30T14:24:53Z</time>
      </trkpt>
      <trkpt lat="40.133567" lon="-5.396983">
        <ele>1592.0</ele>
        <time>2013-06-30T14:24:54Z</time>
      </trkpt>
      <trkpt lat="40.133617" lon="-5.396933">
        <ele>1596.0</ele>
        <time>2013-06-30T14:24:55Z</time>
      </trkpt>
      <trkpt lat="40.133683" lon="-5.396917">
        <ele>1599.0</ele>
        <time>2013-06-30T14:24:56Z</time>
      </trkpt>
      <trkpt lat="40.133750" lon="-5.396883">
        <ele>1601.0</ele>
        <time>2013-06-30T14:24:57Z</time>
      </trkpt>
      <trkpt lat="40.133817" lon="-5.396850">
        <ele>1602.0</ele>
        <time>2013-06-30T14:24:58Z</time>
      </trkpt>
      <trkpt lat="40.133900" lon="-5.396817">
        <ele>1603.0</ele>
        <time>2013-06-30T14:24:59Z</time>
      </trkpt>
      <trkpt lat="40.134000" lon="-5.396817">
        <ele>1605.0</ele>
        <time>2013-06-30T14:25:00Z</time>
      </trkpt>
      <trkpt lat="40.134083" lon="-5.396850">
        <ele>1607.0</ele>
        <time>2013-06-30T14:25:01Z</time>
      </trkpt>
      <trkpt lat="40.134183" lon="-5.396933">
        <ele>1608.0</ele>
        <time>2013-06-30T14:25:02Z</time>
      </trkpt>
      <trkpt lat="40.134233" lon="-5.397033">
        <ele>1610.0</ele>
        <time>2013-06-30T14:25:03Z</time>
      </trkpt>
      <trkpt lat="40.134283" lon="-5.397150">
        <ele>1613.0</ele>
        <time>2013-06-30T14:25:04Z</time>
      </trkpt>
      <trkpt lat="40.134300" lon="-5.397250">
        <ele>1615.0</ele>
        <time>2013-06-30T14:25:05Z</time>
      </trkpt>
      <trkpt lat="40.134300" lon="-5.397350">
        <ele>1618.0</ele>
        <time>2013-06-30T14:25:06Z</time>
      </trkpt>
      <trkpt lat="40.134283" lon="-5.397433">
        <ele>1620.0</ele>
        <time>2013-06-30T14:25:07Z</time>
      </trkpt>
      <trkpt lat="40.134233" lon="-5.397500">
        <ele>1623.0</ele>
        <time>2013-06-30T14:25:08Z</time>
      </trkpt>
      <trkpt lat="40.134183" lon="-5.397533">
        <ele>1625.0</ele>
        <time>2013-06-30T14:25:09Z</time>
      </trkpt>
      <trkpt lat="40.134117" lon="-5.397500">
        <ele>1626.0</ele>
        <time>2013-06-30T14:25:10Z</time>
      </trkpt>
      <trkpt lat="40.134067" lon="-5.397450">
        <ele>1629.0</ele>
        <time>2013-06-30T14:25:11Z</time>
      </trkpt>
      <trkpt lat="40.134050" lon="-5.397367">
        <ele>1631.0</ele>
        <time>2013-06-30T14:25:12Z</time>
      </trkpt>
      <trkpt lat="40.134033" lon="-5.397267">
        <ele>1633.0</ele>
        <time>2013-06-30T14:25:13Z</time>
      </trkpt>
      <trkpt lat="40.134067" lon="-5.397167">
        <ele>1635.0</ele>
        <time>2013-06-30T14:25:14Z</time>
      </trkpt>
      <trkpt lat="40.134117" lon="-5.397083">
        <ele>1637.0</ele>
        <time>2013-06-30T14:25:15Z</time>
      </trkpt>
      <trkpt lat="40.134200" lon="-5.397033">
        <ele>1638.0</ele>
        <time>2013-06-30T14:25:16Z</time>
      </trkpt>
      <trkpt lat="40.134300" lon="-5.397000">
        <ele>1641.0</ele>
        <time>2013-06-30T14:25:17Z</time>
      </trkpt>
      <trkpt lat="40.134383" lon="-5.397017">
        <ele>1642.0</ele>
        <time>2013-06-30T14:25:18Z</time>
      </trkpt>
      <trkpt lat="40.134483" lon="-5.397067">
        <ele>1643.0</ele>
        <time>2013-06-30T14:25:19Z</time>
      </trkpt>
      <trkpt lat="40.134567" lon="-5.397117">
        <ele>1644.0</ele>
        <time>2013-06-30T14:25:20Z</time>
      </trkpt>
      <trkpt lat="40.134650" lon="-5.397167">
        <ele>1646.0</ele>
        <time>2013-06-30T14:25:21Z</time>
      </trkpt>
      <trkpt lat="40.134733" lon="-5.397250">
        <ele>1647.0</ele>
        <time>2013-06-30T14:25:22Z</time>
      </trkpt>
      <trkpt lat="40.134783" lon="-5.397367">
        <ele>1649.0</ele>
        <time>2013-06-30T14:25:23Z</time>
      </trkpt>
      <trkpt lat="40.134833" lon="-5.397483">
        <ele>1650.0</ele>
        <time>2013-06-30T14:25:24Z</time>
      </trkpt>
      <trkpt lat="40.134817" lon="-5.397600">
        <ele>1653.0</ele>
        <time>2013-06-30T14:25:25Z</time>
      </trkpt>
      <trkpt lat="40.134800" lon="-5.397683">
        <ele>1657.0</ele>
        <time>2013-06-30T14:25:26Z</time>
      </trkpt>
      <trkpt lat="40.134767" lon="-5.397750">
        <ele>1660.0</ele>
        <time>2013-06-30T14:25:27Z</time>
      </trkpt>
      <trkpt lat="40.134733" lon="-5.397783">
        <ele>1664.0</ele>
        <time>2013-06-30T14:25:28Z</time>
      </trkpt>
      <trkpt lat="40.134700" lon="-5.397817">
        <ele>1666.0</ele>
        <time>2013-06-30T14:25:29Z</time>
      </trkpt>
      <trkpt lat="40.134650" lon="-5.397833">
        <ele>1668.0</ele>
        <time>2013-06-30T14:25:30Z</time>
      </trkpt>
      <trkpt lat="40.134583" lon="-5.397833">
        <ele>1669.0</ele>
        <time>2013-06-30T14:25:31Z</time>
      </trkpt>
      <trkpt lat="40.134533" lon="-5.397800">
        <ele>1671.0</ele>
        <time>2013-06-30T14:25:32Z</time>
      </trkpt>
      <trkpt lat="40.134467" lon="-5.397750">
        <ele>1673.0</ele>
        <time>2013-06-30T14:25:33Z</time>
      </trkpt>
      <trkpt lat="40.134433" lon="-5.397683">
        <ele>1676.0</ele>
        <time>2013-06-30T14:25:34Z</time>
      </trkpt>
      <trkpt lat="40.134417" lon="-5.397600">
        <ele>1679.0</ele>
        <time>2013-06-30T14:25:35Z</time>
      </trkpt>
      <trkpt lat="40.134417" lon="-5.397517">
        <ele>1682.0</ele>
        <time>2013-06-30T14:25:36Z</time>
      </trkpt>
      <trkpt lat="40.134433" lon="-5.397433">
        <ele>1684.0</ele>
        <time>2013-06-30T14:25:37Z</time>
      </trkpt>
      <trkpt lat="40.134483" lon="-5.397350">
        <ele>1685.0</ele>
        <time>2013-06-30T14:25:38Z</time>
      </trkpt>
      <trkpt lat="40.134550" lon="-5.397283">
        <ele>1687.0</ele>
        <time>2013-06-30T14:25:39Z</time>
      </trkpt>
      <trkpt lat="40.134633" lon="-5.397250">
        <ele>1688.0</ele>
        <time>2013-06-30T14:25:40Z</time>
      </trkpt>
      <trkpt lat="40.134733" lon="-5.397250">
        <ele>1689.0</ele>
        <time>2013-06-30T14:25:41Z</time>
      </trkpt>
      <trkpt lat="40.134833" lon="-5.397283">
        <ele>1690.0</ele>
        <time>2013-06-30T14:25:42Z</time>
      </trkpt>
      <trkpt lat="40.134917" lon="-5.397350">
        <ele>1691.0</ele>
        <time>2013-06-30T14:25:43Z</time>
      </trkpt>
      <trkpt lat="40.135000" lon="-5.397417">
        <ele>1692.0</ele>
        <time>2013-06-30T14:25:44Z</time>
      </trkpt>
      <trkpt lat="40.135083" lon="-5.397500">
        <ele>1693.0</ele>
        <time>2013-06-30T14:25:45Z</time>
      </trkpt>
      <trkpt lat="40.135133" lon="-5.397600">
        <ele>1695.0</ele>
        <time>2013-06-30T14:25:46Z</time>
      </trkpt>
      <trkpt lat="40.135150" lon="-5.397717">
        <ele>1696.0</ele>
        <time>2013-06-30T14:25:47Z</time>
      </trkpt>
      <trkpt lat="40.135167" lon="-5.397833">
        <ele>1698.0</ele>
        <time>2013-06-30T14:25:48Z</time>
      </trkpt>
      <trkpt lat="40.135150" lon="-5.397950">
        <ele>1699.0</ele>
        <time>2013-06-30T14:25:49Z</time>
      </trkpt>
      <trkpt lat="40.135133" lon="-5.398033">
        <ele>1704.0</ele>
        <time>2013-06-30T14:25:50Z</time>
      </trkpt>
      <trkpt lat="40.135100" lon="-5.398083">
        <ele>1706.0</ele>
        <time>2013-06-30T14:25:51Z</time>
      </trkpt>
      <trkpt lat="40.135083" lon="-5.398133">
        <ele>1709.0</ele>
        <time>2013-06-30T14:25:52Z</time>
      </trkpt>
      <trkpt lat="40.135050" lon="-5.398183">
        <ele>1709.0</ele>
        <time>2013-06-30T14:25:53Z</time>
      </trkpt>
      <trkpt lat="40.135017" lon="-5.398250">
        <ele>1709.0</ele>
        <time>2013-06-30T14:25:54Z</time>
      </trkpt>
      <trkpt lat="40.134950" lon="-5.398283">
        <ele>1709.0</ele>
        <time>2013-06-30T14:25:55Z</time>
      </trkpt>
      <trkpt lat="40.134867" lon="-5.398283">
        <ele>1709.0</ele>
        <time>2013-06-30T14:25:56Z</time>
      </trkpt>
      <trkpt lat="40.134817" lon="-5.398233">
        <ele>1710.0</ele>
        <time>2013-06-30T14:25:57Z</time>
      </trkpt>
      <trkpt lat="40.134767" lon="-5.398150">
        <ele>1711.0</ele>
        <time>2013-06-30T14:25:58Z</time>
      </trkpt>
      <trkpt lat="40.134750" lon="-5.398050">
        <ele>1713.0</ele>
        <time>2013-06-30T14:25:59Z</time>
      </trkpt>
      <trkpt lat="40.134750" lon="-5.397967">
        <ele>1716.0</ele>
        <time>2013-06-30T14:26:00Z</time>
      </trkpt>
      <trkpt lat="40.134750" lon="-5.397883">
        <ele>1718.0</ele>
        <time>2013-06-30T14:26:01Z</time>
      </trkpt>
      <trkpt lat="40.134750" lon="-5.397800">
        <ele>1720.0</ele>
        <time>2013-06-30T14:26:02Z</time>
      </trkpt>
      <trkpt lat="40.134783" lon="-5.397717">
        <ele>1721.0</ele>
        <time>2013-06-30T14:26:03Z</time>
      </trkpt>
      <trkpt lat="40.134833" lon="-5.397617">
        <ele>1722.0</ele>
        <time>2013-06-30T14:26:04Z</time>
      </trkpt>
      <trkpt lat="40.134900" lon="-5.397550">
        <ele>1722.0</ele>
        <time>2013-06-30T14:26:05Z</time>
      </trkpt>
      <trkpt lat="40.135000" lon="-5.397533">
        <ele>1723.0</ele>
        <time>2013-06-30T14:26:06Z</time>
      </trkpt>
      <trkpt lat="40.135083" lon="-5.397533">
        <ele>1724.0</ele>
        <time>2013-06-30T14:26:07Z</time>
      </trkpt>
      <trkpt lat="40.135167" lon="-5.397550">
        <ele>1724.0</ele>
        <time>2013-06-30T14:26:08Z</time>
      </trkpt>
      <trkpt lat="40.135250" lon="-5.397583">
        <ele>1725.0</ele>
        <time>2013-06-30T14:26:09Z</time>
      </trkpt>
      <trkpt lat="40.135333" lon="-5.397633">
        <ele>1726.0</ele>
        <time>2013-06-30T14:26:10Z</time>
      </trkpt>
      <trkpt lat="40.135417" lon="-5.397700">
        <ele>1727.0</ele>
        <time>2013-06-30T14:26:11Z</time>
      </trkpt>
      <trkpt lat="40.135467" lon="-5.397800">
        <ele>1727.0</ele>
        <time>2013-06-30T14:26:12Z</time>
      </trkpt>
      <trkpt lat="40.135517" lon="-5.397883">
        <ele>1728.0</ele>
        <time>2013-06-30T14:26:13Z</time>
      </trkpt>
      <trkpt lat="40.135533" lon="-5.398000">
        <ele>1728.0</ele>
        <time>2013-06-30T14:26:14Z</time>
      </trkpt>
      <trkpt lat="40.135533" lon="-5.398100">
        <ele>1728.0</ele>
        <time>2013-06-30T14:26:15Z</time>
      </trkpt>
      <trkpt lat="40.135517" lon="-5.398217">
        <ele>1729.0</ele>
        <time>2013-06-30T14:26:16Z</time>
      </trkpt>
      <trkpt lat="40.135467" lon="-5.398300">
        <ele>1731.0</ele>
        <time>2013-06-30T14:26:17Z</time>
      </trkpt>
      <trkpt lat="40.135433" lon="-5.398367">
        <ele>1732.0</ele>
        <time>2013-06-30T14:26:18Z</time>
      </trkpt>
      <trkpt lat="40.135383" lon="-5.398400">
        <ele>1732.0</ele>
        <time>2013-06-30T14:26:19Z</time>
      </trkpt>
      <trkpt lat="40.135333" lon="-5.398433">
        <ele>1733.0</ele>
        <time>2013-06-30T14:26:20Z</time>
      </trkpt>
      <trkpt lat="40.135267" lon="-5.398450">
        <ele>1734.0</ele>
        <time>2013-06-30T14:26:21Z</time>
      </trkpt>
      <trkpt lat="40.135217" lon="-5.398450">
        <ele>1734.0</ele>
        <time>2013-06-30T14:26:22Z</time>
      </trkpt>
      <trkpt lat="40.135150" lon="-5.398450">
        <ele>1736.0</ele>
        <time>2013-06-30T14:26:23Z</time>
      </trkpt>
      <trkpt lat="40.135083" lon="-5.398417">
        <ele>1737.0</ele>
        <time>2013-06-30T14:26:24Z</time>
      </trkpt>
      <trkpt lat="40.135033" lon="-5.398367">
        <ele>1739.0</ele>
        <time>2013-06-30T14:26:25Z</time>
      </trkpt>
      <trkpt lat="40.134983" lon="-5.398300">
        <ele>1741.0</ele>
        <time>2013-06-30T14:26:26Z</time>
      </trkpt>
      <trkpt lat="40.134950" lon="-5.398217">
        <ele>1743.0</ele>
        <time>2013-06-30T14:26:27Z</time>
      </trkpt>
      <trkpt lat="40.134933" lon="-5.398133">
        <ele>1744.0</ele>
        <time>2013-06-30T14:26:28Z</time>
      </trkpt>
      <trkpt lat="40.134917" lon="-5.398050">
        <ele>1745.0</ele>
        <time>2013-06-30T14:26:29Z</time>
      </trkpt>
      <trkpt lat="40.134917" lon="-5.397950">
        <ele>1746.0</ele>
        <time>2013-06-30T14:26:30Z</time>
      </trkpt>
      <trkpt lat="40.134950" lon="-5.397850">
        <ele>1747.0</ele>
        <time>2013-06-30T14:26:31Z</time>
      </trkpt>
      <trkpt lat="40.134983" lon="-5.397750">
        <ele>1748.0</ele>
        <time>2013-06-30T14:26:32Z</time>
      </trkpt>
      <trkpt lat="40.135033" lon="-5.397667">
        <ele>1749.0</ele>
        <time>2013-06-30T14:26:33Z</time>
      </trkpt>
      <trkpt lat="40.135100" lon="-5.397583">
        <ele>1750.0</ele>
        <time>2013-06-30T14:26:34Z</time>
      </trkpt>
      <trkpt lat="40.135183" lon="-5.397533">
        <ele>1751.0</ele>
        <time>2013-06-30T14:26:35Z</time>
      </trkpt>
      <trkpt lat="40.135267" lon="-5.397483">
        <ele>1752.0</ele>
        <time>2013-06-30T14:26:36Z</time>
      </trkpt>
      <trkpt lat="40.135333" lon="-5.397467">
        <ele>1754.0</ele>
        <time>2013-06-30T14:26:37Z</time>
      </trkpt>
      <trkpt lat="40.135417" lon="-5.397450">
        <ele>1755.0</ele>
        <time>2013-06-30T14:26:38Z</time>
      </trkpt>
      <trkpt lat="40.135500" lon="-5.397467">
        <ele>1755.0</ele>
        <time>2013-06-30T14:26:39Z</time>
      </trkpt>
      <trkpt lat="40.135583" lon="-5.397500">
        <ele>1756.0</ele>
        <time>2013-06-30T14:26:40Z</time>
      </trkpt>
      <trkpt lat="40.135667" lon="-5.397550">
        <ele>1757.0</ele>
        <time>2013-06-30T14:26:41Z</time>
      </trkpt>
      <trkpt lat="40.135733" lon="-5.397617">
        <ele>1758.0</ele>
        <time>2013-06-30T14:26:42Z</time>
      </trkpt>
      <trkpt lat="40.135783" lon="-5.397700">
        <ele>1759.0</ele>
        <time>2013-06-30T14:26:43Z</time>
      </trkpt>
      <trkpt lat="40.135817" lon="-5.397800">
        <ele>1760.0</ele>
        <time>2013-06-30T14:26:44Z</time>
      </trkpt>
      <trkpt lat="40.135833" lon="-5.397883">
        <ele>1761.0</ele>
        <time>2013-06-30T14:26:45Z</time>
      </trkpt>
      <trkpt lat="40.135833" lon="-5.397983">
        <ele>1763.0</ele>
        <time>2013-06-30T14:26:46Z</time>
      </trkpt>
      <trkpt lat="40.135850" lon="-5.398083">
        <ele>1765.0</ele>
        <time>2013-06-30T14:26:47Z</time>
      </trkpt>
      <trkpt lat="40.135850" lon="-5.398167">
        <ele>1767.0</ele>
        <time>2013-06-30T14:26:48Z</time>
      </trkpt>
      <trkpt lat="40.135833" lon="-5.398250">
        <ele>1769.0</ele>
        <time>2013-06-30T14:26:49Z</time>
      </trkpt>
      <trkpt lat="40.135817" lon="-5.398317">
        <ele>1770.0</ele>
        <time>2013-06-30T14:26:50Z</time>
      </trkpt>
      <trkpt lat="40.135800" lon="-5.398383">
        <ele>1772.0</ele>
        <time>2013-06-30T14:26:51Z</time>
      </trkpt>
      <trkpt lat="40.135750" lon="-5.398450">
        <ele>1772.0</ele>
        <time>2013-06-30T14:26:52Z</time>
      </trkpt>
      <trkpt lat="40.135717" lon="-5.398500">
        <ele>1774.0</ele>
        <time>2013-06-30T14:26:53Z</time>
      </trkpt>
      <trkpt lat="40.135650" lon="-5.398550">
        <ele>1774.0</ele>
        <time>2013-06-30T14:26:54Z</time>
      </trkpt>
      <trkpt lat="40.135583" lon="-5.398550">
        <ele>1775.0</ele>
        <time>2013-06-30T14:26:55Z</time>
      </trkpt>
      <trkpt lat="40.135517" lon="-5.398550">
        <ele>1777.0</ele>
        <time>2013-06-30T14:26:56Z</time>
      </trkpt>
      <trkpt lat="40.135450" lon="-5.398533">
        <ele>1780.0</ele>
        <time>2013-06-30T14:26:57Z</time>
      </trkpt>
      <trkpt lat="40.135400" lon="-5.398500">
        <ele>1782.0</ele>
        <time>2013-06-30T14:26:58Z</time>
      </trkpt>
      <trkpt lat="40.135333" lon="-5.398450">
        <ele>1784.0</ele>
        <time>2013-06-30T14:26:59Z</time>
      </trkpt>
      <trkpt lat="40.135300" lon="-5.398383">
        <ele>1786.0</ele>
        <time>2013-06-30T14:27:00Z</time>
      </trkpt>
      <trkpt lat="40.135267" lon="-5.398300">
        <ele>1787.0</ele>
        <time>2013-06-30T14:27:01Z</time>
      </trkpt>
      <trkpt lat="40.135250" lon="-5.398200">
        <ele>1788.0</ele>
        <time>2013-06-30T14:27:02Z</time>
      </trkpt>
      <trkpt lat="40.135250" lon="-5.398100">
        <ele>1790.0</ele>
        <time>2013-06-30T14:27:03Z</time>
      </trkpt>
      <trkpt lat="40.135267" lon="-5.398000">
        <ele>1791.0</ele>
        <time>2013-06-30T14:27:04Z</time>
      </trkpt>
      <trkpt lat="40.135317" lon="-5.397917">
        <ele>1792.0</ele>
        <time>2013-06-30T14:27:05Z</time>
      </trkpt>
      <trkpt lat="40.135367" lon="-5.397817">
        <ele>1794.0</ele>
        <time>2013-06-30T14:27:06Z</time>
      </trkpt>
      <trkpt lat="40.135433" lon="-5.397750">
        <ele>1795.0</ele>
        <time>2013-06-30T14:27:07Z</time>
      </trkpt>
      <trkpt lat="40.135500" lon="-5.397683">
        <ele>1796.0</ele>
        <time>2013-06-30T14:27:08Z</time>
      </trkpt>
      <trkpt lat="40.135583" lon="-5.397650">
        <ele>1796.0</ele>
        <time>2013-06-30T14:27:09Z</time>
      </trkpt>
      <trkpt lat="40.135683" lon="-5.397633">
        <ele>1797.0</ele>
        <time>2013-06-30T14:27:10Z</time>
      </trkpt>
      <trkpt lat="40.135767" lon="-5.397633">
        <ele>1797.0</ele>
        <time>2013-06-30T14:27:11Z</time>
      </trkpt>
      <trkpt lat="40.135867" lon="-5.397683">
        <ele>1798.0</ele>
        <time>2013-06-30T14:27:12Z</time>
      </trkpt>
      <trkpt lat="40.135933" lon="-5.397767">
        <ele>1798.0</ele>
        <time>2013-06-30T14:27:13Z</time>
      </trkpt>
      <trkpt lat="40.135967" lon="-5.397867">
        <ele>1799.0</ele>
        <time>2013-06-30T14:27:14Z</time>
      </trkpt>
      <trkpt lat="40.135983" lon="-5.397967">
        <ele>1800.0</ele>
        <time>2013-06-30T14:27:15Z</time>
      </trkpt>
      <trkpt lat="40.136000" lon="-5.398067">
        <ele>1801.0</ele>
        <time>2013-06-30T14:27:16Z</time>
      </trkpt>
      <trkpt lat="40.136000" lon="-5.398150">
        <ele>1802.0</ele>
        <time>2013-06-30T14:27:17Z</time>
      </trkpt>
      <trkpt lat="40.135967" lon="-5.398233">
        <ele>1803.0</ele>
        <time>2013-06-30T14:27:18Z</time>
      </trkpt>
      <trkpt lat="40.135933" lon="-5.398317">
        <ele>1805.0</ele>
        <time>2013-06-30T14:27:19Z</time>
      </trkpt>
      <trkpt lat="40.135900" lon="-5.398367">
        <ele>1804.0</ele>
        <time>2013-06-30T14:27:20Z</time>
      </trkpt>
      <trkpt lat="40.135833" lon="-5.398400">
        <ele>1805.0</ele>
        <time>2013-06-30T14:27:21Z</time>
      </trkpt>
      <trkpt lat="40.135767" lon="-5.398417">
        <ele>1806.0</ele>
        <time>2013-06-30T14:27:22Z</time>
      </trkpt>
      <trkpt lat="40.135700" lon="-5.398417">
        <ele>1808.0</ele>
        <time>2013-06-30T14:27:23Z</time>
      </trkpt>
      <trkpt lat="40.135633" lon="-5.398400">
        <ele>1810.0</ele>
        <time>2013-06-30T14:27:24Z</time>
      </trkpt>
      <trkpt lat="40.135583" lon="-5.398350">
        <ele>1812.0</ele>
        <time>2013-06-30T14:27:25Z</time>
      </trkpt>
      <trkpt lat="40.135533" lon="-5.398283">
        <ele>1814.0</ele>
        <time>2013-06-30T14:27:26Z</time>
      </trkpt>
      <trkpt lat="40.135500" lon="-5.398217">
        <ele>1815.0</ele>
        <time>2013-06-30T14:27:27Z</time>
      </trkpt>
      <trkpt lat="40.135450" lon="-5.398150">
        <ele>1817.0</ele>
        <time>2013-06-30T14:27:28Z</time>
      </trkpt>
      <trkpt lat="40.135417" lon="-5.398083">
        <ele>1819.0</ele>
        <time>2013-06-30T14:27:29Z</time>
      </trkpt>
      <trkpt lat="40.135400" lon="-5.398000">
        <ele>1820.0</ele>
        <time>2013-06-30T14:27:30Z</time>
      </trkpt>
      <trkpt lat="40.135400" lon="-5.397917">
        <ele>1819.0</ele>
        <time>2013-06-30T14:27:31Z</time>
      </trkpt>
      <trkpt lat="40.135400" lon="-5.397800">
        <ele>1819.0</ele>
        <time>2013-06-30T14:27:32Z</time>
      </trkpt>
      <trkpt lat="40.135433" lon="-5.397683">
        <ele>1818.0</ele>
        <time>2013-06-30T14:27:33Z</time>
      </trkpt>
      <trkpt lat="40.135467" lon="-5.397567">
        <ele>1817.0</ele>
        <time>2013-06-30T14:27:34Z</time>
      </trkpt>
      <trkpt lat="40.135533" lon="-5.397467">
        <ele>1817.0</ele>
        <time>2013-06-30T14:27:35Z</time>
      </trkpt>
      <trkpt lat="40.135617" lon="-5.397417">
        <ele>1817.0</ele>
        <time>2013-06-30T14:27:36Z</time>
      </trkpt>
      <trkpt lat="40.135717" lon="-5.397383">
        <ele>1817.0</ele>
        <time>2013-06-30T14:27:37Z</time>
      </trkpt>
      <trkpt lat="40.135817" lon="-5.397400">
        <ele>1817.0</ele>
        <time>2013-06-30T14:27:38Z</time>
      </trkpt>
      <trkpt lat="40.135900" lon="-5.397433">
        <ele>1816.0</ele>
        <time>2013-06-30T14:27:39Z</time>
      </trkpt>
      <trkpt lat="40.135983" lon="-5.397483">
        <ele>1816.0</ele>
        <time>2013-06-30T14:27:40Z</time>
      </trkpt>
      <trkpt lat="40.136050" lon="-5.397550">
        <ele>1816.0</ele>
        <time>2013-06-30T14:27:41Z</time>
      </trkpt>
      <trkpt lat="40.136117" lon="-5.397633">
        <ele>1815.0</ele>
        <time>2013-06-30T14:27:42Z</time>
      </trkpt>
      <trkpt lat="40.136150" lon="-5.397733">
        <ele>1814.0</ele>
        <time>2013-06-30T14:27:43Z</time>
      </trkpt>
      <trkpt lat="40.136167" lon="-5.397850">
        <ele>1814.0</ele>
        <time>2013-06-30T14:27:44Z</time>
      </trkpt>
      <trkpt lat="40.136150" lon="-5.397983">
        <ele>1813.0</ele>
        <time>2013-06-30T14:27:45Z</time>
      </trkpt>
      <trkpt lat="40.136133" lon="-5.398100">
        <ele>1814.0</ele>
        <time>2013-06-30T14:27:46Z</time>
      </trkpt>
      <trkpt lat="40.136117" lon="-5.398217">
        <ele>1816.0</ele>
        <time>2013-06-30T14:27:47Z</time>
      </trkpt>
      <trkpt lat="40.136117" lon="-5.398333">
        <ele>1819.0</ele>
        <time>2013-06-30T14:27:48Z</time>
      </trkpt>
      <trkpt lat="40.136100" lon="-5.398433">
        <ele>1820.0</ele>
        <time>2013-06-30T14:27:49Z</time>
      </trkpt>
      <trkpt lat="40.136083" lon="-5.398550">
        <ele>1821.0</ele>
        <time>2013-06-30T14:27:50Z</time>
      </trkpt>
      <trkpt lat="40.136067" lon="-5.398650">
        <ele>1823.0</ele>
        <time>2013-06-30T14:27:51Z</time>
      </trkpt>
      <trkpt lat="40.136050" lon="-5.398733">
        <ele>1825.0</ele>
        <time>2013-06-30T14:27:52Z</time>
      </trkpt>
      <trkpt lat="40.136033" lon="-5.398817">
        <ele>1828.0</ele>
        <time>2013-06-30T14:27:53Z</time>
      </trkpt>
      <trkpt lat="40.136000" lon="-5.398883">
        <ele>1830.0</ele>
        <time>2013-06-30T14:27:54Z</time>
      </trkpt>
      <trkpt lat="40.135967" lon="-5.398933">
        <ele>1832.0</ele>
        <time>2013-06-30T14:27:55Z</time>
      </trkpt>
      <trkpt lat="40.135933" lon="-5.399000">
        <ele>1833.0</ele>
        <time>2013-06-30T14:27:56Z</time>
      </trkpt>
      <trkpt lat="40.135883" lon="-5.399050">
        <ele>1834.0</ele>
        <time>2013-06-30T14:27:57Z</time>
      </trkpt>
      <trkpt lat="40.135850" lon="-5.399100">
        <ele>1835.0</ele>
        <time>2013-06-30T14:27:58Z</time>
      </trkpt>
      <trkpt lat="40.135783" lon="-5.399133">
        <ele>1836.0</ele>
        <time>2013-06-30T14:27:59Z</time>
      </trkpt>
      <trkpt lat="40.135717" lon="-5.399150">
        <ele>1837.0</ele>
        <time>2013-06-30T14:28:00Z</time>
      </trkpt>
      <trkpt lat="40.135650" lon="-5.399133">
        <ele>1838.0</ele>
        <time>2013-06-30T14:28:01Z</time>
      </trkpt>
      <trkpt lat="40.135600" lon="-5.399100">
        <ele>1840.0</ele>
        <time>2013-06-30T14:28:02Z</time>
      </trkpt>
      <trkpt lat="40.135550" lon="-5.399050">
        <ele>1841.0</ele>
        <time>2013-06-30T14:28:03Z</time>
      </trkpt>
      <trkpt lat="40.135500" lon="-5.398983">
        <ele>1843.0</ele>
        <time>2013-06-30T14:28:04Z</time>
      </trkpt>
      <trkpt lat="40.135483" lon="-5.398900">
        <ele>1845.0</ele>
        <time>2013-06-30T14:28:05Z</time>
      </trkpt>
      <trkpt lat="40.135467" lon="-5.398817">
        <ele>1846.0</ele>
        <time>2013-06-30T14:28:06Z</time>
      </trkpt>
      <trkpt lat="40.135467" lon="-5.398733">
        <ele>1847.0</ele>
        <time>2013-06-30T14:28:07Z</time>
      </trkpt>
      <trkpt lat="40.135483" lon="-5.398633">
        <ele>1847.0</ele>
        <time>2013-06-30T14:28:08Z</time>
      </trkpt>
      <trkpt lat="40.135517" lon="-5.398533">
        <ele>1847.0</ele>
        <time>2013-06-30T14:28:09Z</time>
      </trkpt>
      <trkpt lat="40.135583" lon="-5.398450">
        <ele>1847.0</ele>
        <time>2013-06-30T14:28:10Z</time>
      </trkpt>
      <trkpt lat="40.135650" lon="-5.398367">
        <ele>1847.0</ele>
        <time>2013-06-30T14:28:11Z</time>
      </trkpt>
      <trkpt lat="40.135717" lon="-5.398317">
        <ele>1848.0</ele>
        <time>2013-06-30T14:28:12Z</time>
      </trkpt>
      <trkpt lat="40.135800" lon="-5.398267">
        <ele>1849.0</ele>
        <time>2013-06-30T14:28:13Z</time>
      </trkpt>
      <trkpt lat="40.135883" lon="-5.398217">
        <ele>1850.0</ele>
        <time>2013-06-30T14:28:14Z</time>
      </trkpt>
      <trkpt lat="40.135950" lon="-5.398200">
        <ele>1850.0</ele>
        <time>2013-06-30T14:28:15Z</time>
      </trkpt>
      <trkpt lat="40.136050" lon="-5.398183">
        <ele>1851.0</ele>
        <time>2013-06-30T14:28:16Z</time>
      </trkpt>
      <trkpt lat="40.136133" lon="-5.398200">
        <ele>1851.0</ele>
        <time>2013-06-30T14:28:17Z</time>
      </trkpt>
      <trkpt lat="40.136233" lon="-5.398233">
        <ele>1852.0</ele>
        <time>2013-06-30T14:28:18Z</time>
      </trkpt>
      <trkpt lat="40.136317" lon="-5.398283">
        <ele>1852.0</ele>
        <time>2013-06-30T14:28:19Z</time>
      </trkpt>
      <trkpt lat="40.136383" lon="-5.398367">
        <ele>1853.0</ele>
        <time>2013-06-30T14:28:20Z</time>
      </trkpt>
      <trkpt lat="40.136433" lon="-5.398433">
        <ele>1854.0</ele>
        <time>2013-06-30T14:28:21Z</time>
      </trkpt>
      <trkpt lat="40.136483" lon="-5.398533">
        <ele>1854.0</ele>
        <time>2013-06-30T14:28:22Z</time>
      </trkpt>
      <trkpt lat="40.136517" lon="-5.398633">
        <ele>1854.0</ele>
        <time>2013-06-30T14:28:23Z</time>
      </trkpt>
      <trkpt lat="40.136533" lon="-5.398733">
        <ele>1855.0</ele>
        <time>2013-06-30T14:28:24Z</time>
      </trkpt>
      <trkpt lat="40.136533" lon="-5.398850">
        <ele>1856.0</ele>
        <time>2013-06-30T14:28:25Z</time>
      </trkpt>
      <trkpt lat="40.136517" lon="-5.398933">
        <ele>1857.0</ele>
        <time>2013-06-30T14:28:26Z</time>
      </trkpt>
      <trkpt lat="40.136483" lon="-5.399017">
        <ele>1859.0</ele>
        <time>2013-06-30T14:28:27Z</time>
      </trkpt>
      <trkpt lat="40.136450" lon="-5.399100">
        <ele>1860.0</ele>
        <time>2013-06-30T14:28:28Z</time>
      </trkpt>
      <trkpt lat="40.136450" lon="-5.399167">
        <ele>1862.0</ele>
        <time>2013-06-30T14:28:29Z</time>
      </trkpt>
      <trkpt lat="40.136433" lon="-5.399250">
        <ele>1863.0</ele>
        <time>2013-06-30T14:28:30Z</time>
      </trkpt>
      <trkpt lat="40.136400" lon="-5.399317">
        <ele>1863.0</ele>
        <time>2013-06-30T14:28:31Z</time>
      </trkpt>
      <trkpt lat="40.136367" lon="-5.399383">
        <ele>1864.0</ele>
        <time>2013-06-30T14:28:32Z</time>
      </trkpt>
      <trkpt lat="40.136300" lon="-5.399450">
        <ele>1864.0</ele>
        <time>2013-06-30T14:28:33Z</time>
      </trkpt>
      <trkpt lat="40.136233" lon="-5.399467">
        <ele>1865.0</ele>
        <time>2013-06-30T14:28:34Z</time>
      </trkpt>
      <trkpt lat="40.136167" lon="-5.399467">
        <ele>1867.0</ele>
        <time>2013-06-30T14:28:35Z</time>
      </trkpt>
      <trkpt lat="40.136083" lon="-5.399433">
        <ele>1869.0</ele>
        <time>2013-06-30T14:28:36Z</time>
      </trkpt>
      <trkpt lat="40.136033" lon="-5.399383">
        <ele>1872.0</ele>
        <time>2013-06-30T14:28:37Z</time>
      </trkpt>
      <trkpt lat="40.135983" lon="-5.399317">
        <ele>1875.0</ele>
        <time>2013-06-30T14:28:38Z</time>
      </trkpt>
      <trkpt lat="40.135967" lon="-5.399233">
        <ele>1876.0</ele>
        <time>2013-06-30T14:28:39Z</time>
      </trkpt>
      <trkpt lat="40.135933" lon="-5.399133">
        <ele>1878.0</ele>
        <time>2013-06-30T14:28:40Z</time>
      </trkpt>
      <trkpt lat="40.135933" lon="-5.399033">
        <ele>1879.0</ele>
        <time>2013-06-30T14:28:41Z</time>
      </trkpt>
      <trkpt lat="40.135933" lon="-5.398950">
        <ele>1880.0</ele>
        <time>2013-06-30T14:28:42Z</time>
      </trkpt>
      <trkpt lat="40.135967" lon="-5.398850">
        <ele>1881.0</ele>
        <time>2013-06-30T14:28:43Z</time>
      </trkpt>
      <trkpt lat="40.136017" lon="-5.398767">
        <ele>1882.0</ele>
        <time>2013-06-30T14:28:44Z</time>
      </trkpt>
      <trkpt lat="40.136083" lon="-5.398683">
        <ele>1884.0</ele>
        <time>2013-06-30T14:28:45Z</time>
      </trkpt>
      <trkpt lat="40.136167" lon="-5.398650">
        <ele>1886.0</ele>
        <time>2013-06-30T14:28:46Z</time>
      </trkpt>
      <trkpt lat="40.136250" lon="-5.398650">
        <ele>1888.0</ele>
        <time>2013-06-30T14:28:47Z</time>
      </trkpt>
      <trkpt lat="40.136333" lon="-5.398667">
        <ele>1889.0</ele>
        <time>2013-06-30T14:28:48Z</time>
      </trkpt>
      <trkpt lat="40.136400" lon="-5.398717">
        <ele>1891.0</ele>
        <time>2013-06-30T14:28:49Z</time>
      </trkpt>
      <trkpt lat="40.136467" lon="-5.398783">
        <ele>1893.0</ele>
        <time>2013-06-30T14:28:50Z</time>
      </trkpt>
      <trkpt lat="40.136517" lon="-5.398883">
        <ele>1894.0</ele>
        <time>2013-06-30T14:28:51Z</time>
      </trkpt>
      <trkpt lat="40.136550" lon="-5.398983">
        <ele>1896.0</ele>
        <time>2013-06-30T14:28:52Z</time>
      </trkpt>
      <trkpt lat="40.136550" lon="-5.399083">
        <ele>1898.0</ele>
        <time>2013-06-30T14:28:53Z</time>
      </trkpt>
      <trkpt lat="40.136533" lon="-5.399183">
        <ele>1899.0</ele>
        <time>2013-06-30T14:28:54Z</time>
      </trkpt>
      <trkpt lat="40.136483" lon="-5.399267">
        <ele>1901.0</ele>
        <time>2013-06-30T14:28:55Z</time>
      </trkpt>
      <trkpt lat="40.136417" lon="-5.399317">
        <ele>1903.0</ele>
        <time>2013-06-30T14:28:56Z</time>
      </trkpt>
      <trkpt lat="40.136350" lon="-5.399333">
        <ele>1904.0</ele>
        <time>2013-06-30T14:28:57Z</time>
      </trkpt>
      <trkpt lat="40.136283" lon="-5.399317">
        <ele>1906.0</ele>
        <time>2013-06-30T14:28:58Z</time>
      </trkpt>
      <trkpt lat="40.136200" lon="-5.399283">
        <ele>1908.0</ele>
        <time>2013-06-30T14:28:59Z</time>
      </trkpt>
      <trkpt lat="40.136150" lon="-5.399217">
        <ele>1909.0</ele>
        <time>2013-06-30T14:29:00Z</time>
      </trkpt>
      <trkpt lat="40.136100" lon="-5.399117">
        <ele>1910.0</ele>
        <time>2013-06-30T14:29:01Z</time>
      </trkpt>
      <trkpt lat="40.136100" lon="-5.399017">
        <ele>1911.0</ele>
        <time>2013-06-30T14:29:02Z</time>
      </trkpt>
      <trkpt lat="40.136100" lon="-5.398900">
        <ele>1912.0</ele>
        <time>2013-06-30T14:29:03Z</time>
      </trkpt>
      <trkpt lat="40.136117" lon="-5.398800">
        <ele>1913.0</ele>
        <time>2013-06-30T14:29:04Z</time>
      </trkpt>
      <trkpt lat="40.136133" lon="-5.398700">
        <ele>1914.0</ele>
        <time>2013-06-30T14:29:05Z</time>
      </trkpt>
      <trkpt lat="40.136183" lon="-5.398600">
        <ele>1916.0</ele>
        <time>2013-06-30T14:29:06Z</time>
      </trkpt>
      <trkpt lat="40.136250" lon="-5.398533">
        <ele>1916.0</ele>
        <time>2013-06-30T14:29:07Z</time>
      </trkpt>
      <trkpt lat="40.136350" lon="-5.398500">
        <ele>1917.0</ele>
        <time>2013-06-30T14:29:08Z</time>
      </trkpt>
      <trkpt lat="40.136433" lon="-5.398483">
        <ele>1918.0</ele>
        <time>2013-06-30T14:29:09Z</time>
      </trkpt>
      <trkpt lat="40.136517" lon="-5.398500">
        <ele>1920.0</ele>
        <time>2013-06-30T14:29:10Z</time>
      </trkpt>
      <trkpt lat="40.136583" lon="-5.398550">
        <ele>1922.0</ele>
        <time>2013-06-30T14:29:11Z</time>
      </trkpt>
      <trkpt lat="40.136633" lon="-5.398600">
        <ele>1923.0</ele>
        <time>2013-06-30T14:29:12Z</time>
      </trkpt>
      <trkpt lat="40.136700" lon="-5.398683">
        <ele>1924.0</ele>
        <time>2013-06-30T14:29:13Z</time>
      </trkpt>
      <trkpt lat="40.136733" lon="-5.398767">
        <ele>1925.0</ele>
        <time>2013-06-30T14:29:14Z</time>
      </trkpt>
      <trkpt lat="40.136750" lon="-5.398867">
        <ele>1925.0</ele>
        <time>2013-06-30T14:29:15Z</time>
      </trkpt>
      <trkpt lat="40.136733" lon="-5.398983">
        <ele>1927.0</ele>
        <time>2013-06-30T14:29:16Z</time>
      </trkpt>
      <trkpt lat="40.136700" lon="-5.399083">
        <ele>1929.0</ele>
        <time>2013-06-30T14:29:17Z</time>
      </trkpt>
      <trkpt lat="40.136667" lon="-5.399150">
        <ele>1931.0</ele>
        <time>2013-06-30T14:29:18Z</time>
      </trkpt>
      <trkpt lat="40.136617" lon="-5.399200">
        <ele>1933.0</ele>
        <time>2013-06-30T14:29:19Z</time>
      </trkpt>
      <trkpt lat="40.136567" lon="-5.399233">
        <ele>1935.0</ele>
        <time>2013-06-30T14:29:20Z</time>
      </trkpt>
      <trkpt lat="40.136517" lon="-5.399250">
        <ele>1936.0</ele>
        <time>2013-06-30T14:29:21Z</time>
      </trkpt>
      <trkpt lat="40.136450" lon="-5.399250">
        <ele>1936.0</ele>
        <time>2013-06-30T14:29:22Z</time>
      </trkpt>
      <trkpt lat="40.136383" lon="-5.399233">
        <ele>1936.0</ele>
        <time>2013-06-30T14:29:23Z</time>
      </trkpt>
      <trkpt lat="40.136300" lon="-5.399183">
        <ele>1936.0</ele>
        <time>2013-06-30T14:29:24Z</time>
      </trkpt>
      <trkpt lat="40.136250" lon="-5.399117">
        <ele>1935.0</ele>
        <time>2013-06-30T14:29:25Z</time>
      </trkpt>
      <trkpt lat="40.136217" lon="-5.399017">
        <ele>1934.0</ele>
        <time>2013-06-30T14:29:26Z</time>
      </trkpt>
      <trkpt lat="40.136200" lon="-5.398917">
        <ele>1933.0</ele>
        <time>2013-06-30T14:29:27Z</time>
      </trkpt>
      <trkpt lat="40.136200" lon="-5.398800">
        <ele>1933.0</ele>
        <time>2013-06-30T14:29:28Z</time>
      </trkpt>
      <trkpt lat="40.136233" lon="-5.398700">
        <ele>1933.0</ele>
        <time>2013-06-30T14:29:29Z</time>
      </trkpt>
      <trkpt lat="40.136267" lon="-5.398600">
        <ele>1933.0</ele>
        <time>2013-06-30T14:29:30Z</time>
      </trkpt>
      <trkpt lat="40.136317" lon="-5.398517">
        <ele>1934.0</ele>
        <time>2013-06-30T14:29:31Z</time>
      </trkpt>
      <trkpt lat="40.136367" lon="-5.398450">
        <ele>1935.0</ele>
        <time>2013-06-30T14:29:32Z</time>
      </trkpt>
      <trkpt lat="40.136433" lon="-5.398383">
        <ele>1936.0</ele>
        <time>2013-06-30T14:29:33Z</time>
      </trkpt>
      <trkpt lat="40.136500" lon="-5.398333">
        <ele>1936.0</ele>
        <time>2013-06-30T14:29:34Z</time>
      </trkpt>
      <trkpt lat="40.136567" lon="-5.398317">
        <ele>1936.0</ele>
        <time>2013-06-30T14:29:35Z</time>
      </trkpt>
      <trkpt lat="40.136650" lon="-5.398317">
        <ele>1936.0</ele>
        <time>2013-06-30T14:29:36Z</time>
      </trkpt>
      <trkpt lat="40.136717" lon="-5.398333">
        <ele>1936.0</ele>
        <time>2013-06-30T14:29:37Z</time>
      </trkpt>
      <trkpt lat="40.136783" lon="-5.398383">
        <ele>1935.0</ele>
        <time>2013-06-30T14:29:38Z</time>
      </trkpt>
      <trkpt lat="40.136850" lon="-5.398450">
        <ele>1935.0</ele>
        <time>2013-06-30T14:29:39Z</time>
      </trkpt>
      <trkpt lat="40.136900" lon="-5.398517">
        <ele>1936.0</ele>
        <time>2013-06-30T14:29:40Z</time>
      </trkpt>
      <trkpt lat="40.136950" lon="-5.398600">
        <ele>1936.0</ele>
        <time>2013-06-30T14:29:41Z</time>
      </trkpt>
      <trkpt lat="40.136967" lon="-5.398683">
        <ele>1937.0</ele>
        <time>2013-06-30T14:29:42Z</time>
      </trkpt>
      <trkpt lat="40.136983" lon="-5.398767">
        <ele>1938.0</ele>
        <time>2013-06-30T14:29:43Z</time>
      </trkpt>
      <trkpt lat="40.136967" lon="-5.398850">
        <ele>1940.0</ele>
        <time>2013-06-30T14:29:44Z</time>
      </trkpt>
      <trkpt lat="40.136950" lon="-5.398933">
        <ele>1940.0</ele>
        <time>2013-06-30T14:29:45Z</time>
      </trkpt>
      <trkpt lat="40.136933" lon="-5.399000">
        <ele>1941.0</ele>
        <time>2013-06-30T14:29:46Z</time>
      </trkpt>
      <trkpt lat="40.136883" lon="-5.399083">
        <ele>1941.0</ele>
        <time>2013-06-30T14:29:47Z</time>
      </trkpt>
      <trkpt lat="40.136833" lon="-5.399150">
        <ele>1941.0</ele>
        <time>2013-06-30T14:29:48Z</time>
      </trkpt>
      <trkpt lat="40.136783" lon="-5.399200">
        <ele>1941.0</ele>
        <time>2013-06-30T14:29:49Z</time>
      </trkpt>
      <trkpt lat="40.136733" lon="-5.399233">
        <ele>1941.0</ele>
        <time>2013-06-30T14:29:50Z</time>
      </trkpt>
      <trkpt lat="40.136683" lon="-5.399267">
        <ele>1941.0</ele>
        <time>2013-06-30T14:29:51Z</time>
      </trkpt>
      <trkpt lat="40.136633" lon="-5.399300">
        <ele>1940.0</ele>
        <time>2013-06-30T14:29:52Z</time>
      </trkpt>
      <trkpt lat="40.136567" lon="-5.399367">
        <ele>1938.0</ele>
        <time>2013-06-30T14:29:53Z</time>
      </trkpt>
      <trkpt lat="40.136500" lon="-5.399433">
        <ele>1937.0</ele>
        <time>2013-06-30T14:29:54Z</time>
      </trkpt>
      <trkpt lat="40.136417" lon="-5.399500">
        <ele>1936.0</ele>
        <time>2013-06-30T14:29:55Z</time>
      </trkpt>
      <trkpt lat="40.136350" lon="-5.399567">
        <ele>1936.0</ele>
        <time>2013-06-30T14:29:56Z</time>
      </trkpt>
      <trkpt lat="40.136300" lon="-5.399650">
        <ele>1936.0</ele>
        <time>2013-06-30T14:29:57Z</time>
      </trkpt>
      <trkpt lat="40.136267" lon="-5.399717">
        <ele>1936.0</ele>
        <time>2013-06-30T14:29:58Z</time>
      </trkpt>
      <trkpt lat="40.136217" lon="-5.399783">
        <ele>1936.0</ele>
        <time>2013-06-30T14:29:59Z</time>
      </trkpt>
      <trkpt lat="40.136150" lon="-5.399850">
        <ele>1936.0</ele>
        <time>2013-06-30T14:30:00Z</time>
      </trkpt>
      <trkpt lat="40.136083" lon="-5.399917">
        <ele>1935.0</ele>
        <time>2013-06-30T14:30:01Z</time>
      </trkpt>
      <trkpt lat="40.136033" lon="-5.400000">
        <ele>1935.0</ele>
        <time>2013-06-30T14:30:02Z</time>
      </trkpt>
      <trkpt lat="40.135983" lon="-5.400100">
        <ele>1935.0</ele>
        <time>2013-06-30T14:30:03Z</time>
      </trkpt>
      <trkpt lat="40.135933" lon="-5.400183">
        <ele>1936.0</ele>
        <time>2013-06-30T14:30:04Z</time>
      </trkpt>
      <trkpt lat="40.135867" lon="-5.400267">
        <ele>1937.0</ele>
        <time>2013-06-30T14:30:05Z</time>
      </trkpt>
      <trkpt lat="40.135800" lon="-5.400333">
        <ele>1937.0</ele>
        <time>2013-06-30T14:30:06Z</time>
      </trkpt>
      <trkpt lat="40.135750" lon="-5.400417">
        <ele>1938.0</ele>
        <time>2013-06-30T14:30:07Z</time>
      </trkpt>
      <trkpt lat="40.135700" lon="-5.400500">
        <ele>1938.0</ele>
        <time>2013-06-30T14:30:08Z</time>
      </trkpt>
      <trkpt lat="40.135650" lon="-5.400583">
        <ele>1938.0</ele>
        <time>2013-06-30T14:30:09Z</time>
      </trkpt>
      <trkpt lat="40.135617" lon="-5.400633">
        <ele>1939.0</ele>
        <time>2013-06-30T14:30:10Z</time>
      </trkpt>
      <trkpt lat="40.135567" lon="-5.400683">
        <ele>1940.0</ele>
        <time>2013-06-30T14:30:11Z</time>
      </trkpt>
      <trkpt lat="40.135517" lon="-5.400717">
        <ele>1940.0</ele>
        <time>2013-06-30T14:30:12Z</time>
      </trkpt>
      <trkpt lat="40.135433" lon="-5.400750">
        <ele>1939.0</ele>
        <time>2013-06-30T14:30:13Z</time>
      </trkpt>
      <trkpt lat="40.135350" lon="-5.400750">
        <ele>1939.0</ele>
        <time>2013-06-30T14:30:14Z</time>
      </trkpt>
      <trkpt lat="40.135283" lon="-5.400733">
        <ele>1940.0</ele>
        <time>2013-06-30T14:30:15Z</time>
      </trkpt>
      <trkpt lat="40.135217" lon="-5.400683">
        <ele>1940.0</ele>
        <time>2013-06-30T14:30:16Z</time>
      </trkpt>
      <trkpt lat="40.135183" lon="-5.400633">
        <ele>1940.0</ele>
        <time>2013-06-30T14:30:17Z</time>
      </trkpt>
      <trkpt lat="40.135133" lon="-5.400583">
        <ele>1938.0</ele>
        <time>2013-06-30T14:30:18Z</time>
      </trkpt>
      <trkpt lat="40.135100" lon="-5.400500">
        <ele>1936.0</ele>
        <time>2013-06-30T14:30:19Z</time>
      </trkpt>
      <trkpt lat="40.135050" lon="-5.400433">
        <ele>1934.0</ele>
        <time>2013-06-30T14:30:20Z</time>
      </trkpt>
      <trkpt lat="40.134983" lon="-5.400383">
        <ele>1931.0</ele>
        <time>2013-06-30T14:30:21Z</time>
      </trkpt>
      <trkpt lat="40.134900" lon="-5.400383">
        <ele>1929.0</ele>
        <time>2013-06-30T14:30:22Z</time>
      </trkpt>
      <trkpt lat="40.134817" lon="-5.400417">
        <ele>1926.0</ele>
        <time>2013-06-30T14:30:23Z</time>
      </trkpt>
      <trkpt lat="40.134733" lon="-5.400500">
        <ele>1925.0</ele>
        <time>2013-06-30T14:30:24Z</time>
      </trkpt>
      <trkpt lat="40.134683" lon="-5.400567">
        <ele>1924.0</ele>
        <time>2013-06-30T14:30:25Z</time>
      </trkpt>
      <trkpt lat="40.134617" lon="-5.400633">
        <ele>1922.0</ele>
        <time>2013-06-30T14:30:26Z</time>
      </trkpt>
      <trkpt lat="40.134550" lon="-5.400683">
        <ele>1920.0</ele>
        <time>2013-06-30T14:30:27Z</time>
      </trkpt>
      <trkpt lat="40.134483" lon="-5.400750">
        <ele>1917.0</ele>
        <time>2013-06-30T14:30:28Z</time>
      </trkpt>
      <trkpt lat="40.134417" lon="-5.400833">
        <ele>1914.0</ele>
        <time>2013-06-30T14:30:29Z</time>
      </trkpt>
      <trkpt lat="40.134350" lon="-5.400917">
        <ele>1912.0</ele>
        <time>2013-06-30T14:30:30Z</time>
      </trkpt>
      <trkpt lat="40.134283" lon="-5.401017">
        <ele>1910.0</ele>
        <time>2013-06-30T14:30:31Z</time>
      </trkpt>
      <trkpt lat="40.134233" lon="-5.401083">
        <ele>1909.0</ele>
        <time>2013-06-30T14:30:32Z</time>
      </trkpt>
      <trkpt lat="40.134167" lon="-5.401150">
        <ele>1907.0</ele>
        <time>2013-06-30T14:30:33Z</time>
      </trkpt>
      <trkpt lat="40.134117" lon="-5.401217">
        <ele>1905.0</ele>
        <time>2013-06-30T14:30:34Z</time>
      </trkpt>
      <trkpt lat="40.134067" lon="-5.401283">
        <ele>1902.0</ele>
        <time>2013-06-30T14:30:35Z</time>
      </trkpt>
      <trkpt lat="40.134000" lon="-5.401367">
        <ele>1899.0</ele>
        <time>2013-06-30T14:30:36Z</time>
      </trkpt>
      <trkpt lat="40.133950" lon="-5.401450">
        <ele>1896.0</ele>
        <time>2013-06-30T14:30:37Z</time>
      </trkpt>
      <trkpt lat="40.133883" lon="-5.401550">
        <ele>1893.0</ele>
        <time>2013-06-30T14:30:38Z</time>
      </trkpt>
      <trkpt lat="40.133833" lon="-5.401667">
        <ele>1890.0</ele>
        <time>2013-06-30T14:30:39Z</time>
      </trkpt>
      <trkpt lat="40.133800" lon="-5.401783">
        <ele>1887.0</ele>
        <time>2013-06-30T14:30:40Z</time>
      </trkpt>
      <trkpt lat="40.133783" lon="-5.401917">
        <ele>1885.0</ele>
        <time>2013-06-30T14:30:41Z</time>
      </trkpt>
      <trkpt lat="40.133750" lon="-5.402033">
        <ele>1882.0</ele>
        <time>2013-06-30T14:30:42Z</time>
      </trkpt>
      <trkpt lat="40.133717" lon="-5.402150">
        <ele>1880.0</ele>
        <time>2013-06-30T14:30:43Z</time>
      </trkpt>
      <trkpt lat="40.133667" lon="-5.402267">
        <ele>1878.0</ele>
        <time>2013-06-30T14:30:44Z</time>
      </trkpt>
      <trkpt lat="40.133633" lon="-5.402367">
        <ele>1876.0</ele>
        <time>2013-06-30T14:30:45Z</time>
      </trkpt>
      <trkpt lat="40.133600" lon="-5.402467">
        <ele>1875.0</ele>
        <time>2013-06-30T14:30:46Z</time>
      </trkpt>
      <trkpt lat="40.133567" lon="-5.402567">
        <ele>1873.0</ele>
        <time>2013-06-30T14:30:47Z</time>
      </trkpt>
      <trkpt lat="40.133533" lon="-5.402650">
        <ele>1871.0</ele>
        <time>2013-06-30T14:30:48Z</time>
      </trkpt>
      <trkpt lat="40.133500" lon="-5.402767">
        <ele>1869.0</ele>
        <time>2013-06-30T14:30:49Z</time>
      </trkpt>
      <trkpt lat="40.133467" lon="-5.402883">
        <ele>1867.0</ele>
        <time>2013-06-30T14:30:50Z</time>
      </trkpt>
      <trkpt lat="40.133450" lon="-5.403000">
        <ele>1865.0</ele>
        <time>2013-06-30T14:30:51Z</time>
      </trkpt>
      <trkpt lat="40.133417" lon="-5.403133">
        <ele>1864.0</ele>
        <time>2013-06-30T14:30:52Z</time>
      </trkpt>
      <trkpt lat="40.133383" lon="-5.403250">
        <ele>1863.0</ele>
        <time>2013-06-30T14:30:53Z</time>
      </trkpt>
      <trkpt lat="40.133367" lon="-5.403367">
        <ele>1861.0</ele>
        <time>2013-06-30T14:30:54Z</time>
      </trkpt>
      <trkpt lat="40.133333" lon="-5.403483">
        <ele>1859.0</ele>
        <time>2013-06-30T14:30:55Z</time>
      </trkpt>
      <trkpt lat="40.133300" lon="-5.403600">
        <ele>1858.0</ele>
        <time>2013-06-30T14:30:56Z</time>
      </trkpt>
      <trkpt lat="40.133267" lon="-5.403717">
        <ele>1858.0</ele>
        <time>2013-06-30T14:30:57Z</time>
      </trkpt>
      <trkpt lat="40.133233" lon="-5.403833">
        <ele>1859.0</ele>
        <time>2013-06-30T14:30:58Z</time>
      </trkpt>
      <trkpt lat="40.133200" lon="-5.403933">
        <ele>1859.0</ele>
        <time>2013-06-30T14:30:59Z</time>
      </trkpt>
      <trkpt lat="40.133167" lon="-5.404033">
        <ele>1859.0</ele>
        <time>2013-06-30T14:31:00Z</time>
      </trkpt>
      <trkpt lat="40.133133" lon="-5.404133">
        <ele>1859.0</ele>
        <time>2013-06-30T14:31:01Z</time>
      </trkpt>
      <trkpt lat="40.133100" lon="-5.404250">
        <ele>1858.0</ele>
        <time>2013-06-30T14:31:02Z</time>
      </trkpt>
      <trkpt lat="40.133067" lon="-5.404367">
        <ele>1857.0</ele>
        <time>2013-06-30T14:31:03Z</time>
      </trkpt>
      <trkpt lat="40.133033" lon="-5.404483">
        <ele>1857.0</ele>
        <time>2013-06-30T14:31:04Z</time>
      </trkpt>
      <trkpt lat="40.133000" lon="-5.404600">
        <ele>1857.0</ele>
        <time>2013-06-30T14:31:05Z</time>
      </trkpt>
      <trkpt lat="40.132967" lon="-5.404700">
        <ele>1857.0</ele>
        <time>2013-06-30T14:31:06Z</time>
      </trkpt>
      <trkpt lat="40.132933" lon="-5.404783">
        <ele>1857.0</ele>
        <time>2013-06-30T14:31:07Z</time>
      </trkpt>
      <trkpt lat="40.132900" lon="-5.404883">
        <ele>1856.0</ele>
        <time>2013-06-30T14:31:08Z</time>
      </trkpt>
      <trkpt lat="40.132867" lon="-5.404983">
        <ele>1855.0</ele>
        <time>2013-06-30T14:31:09Z</time>
      </trkpt>
      <trkpt lat="40.132817" lon="-5.405100">
        <ele>1854.0</ele>
        <time>2013-06-30T14:31:10Z</time>
      </trkpt>
      <trkpt lat="40.132767" lon="-5.405200">
        <ele>1853.0</ele>
        <time>2013-06-30T14:31:11Z</time>
      </trkpt>
      <trkpt lat="40.132717" lon="-5.405300">
        <ele>1853.0</ele>
        <time>2013-06-30T14:31:12Z</time>
      </trkpt>
      <trkpt lat="40.132667" lon="-5.405400">
        <ele>1853.0</ele>
        <time>2013-06-30T14:31:13Z</time>
      </trkpt>
      <trkpt lat="40.132617" lon="-5.405483">
        <ele>1852.0</ele>
        <time>2013-06-30T14:31:14Z</time>
      </trkpt>
      <trkpt lat="40.132567" lon="-5.405600">
        <ele>1851.0</ele>
        <time>2013-06-30T14:31:15Z</time>
      </trkpt>
      <trkpt lat="40.132517" lon="-5.405700">
        <ele>1851.0</ele>
        <time>2013-06-30T14:31:16Z</time>
      </trkpt>
      <trkpt lat="40.132467" lon="-5.405817">
        <ele>1851.0</ele>
        <time>2013-06-30T14:31:17Z</time>
      </trkpt>
      <trkpt lat="40.132417" lon="-5.405900">
        <ele>1853.0</ele>
        <time>2013-06-30T14:31:18Z</time>
      </trkpt>
      <trkpt lat="40.132367" lon="-5.405983">
        <ele>1855.0</ele>
        <time>2013-06-30T14:31:19Z</time>
      </trkpt>
      <trkpt lat="40.132317" lon="-5.406067">
        <ele>1855.0</ele>
        <time>2013-06-30T14:31:20Z</time>
      </trkpt>
      <trkpt lat="40.132267" lon="-5.406133">
        <ele>1854.0</ele>
        <time>2013-06-30T14:31:21Z</time>
      </trkpt>
      <trkpt lat="40.132233" lon="-5.406183">
        <ele>1853.0</ele>
        <time>2013-06-30T14:31:22Z</time>
      </trkpt>
      <trkpt lat="40.132167" lon="-5.406233">
        <ele>1852.0</ele>
        <time>2013-06-30T14:31:23Z</time>
      </trkpt>
      <trkpt lat="40.132117" lon="-5.406250">
        <ele>1851.0</ele>
        <time>2013-06-30T14:31:24Z</time>
      </trkpt>
      <trkpt lat="40.132067" lon="-5.406283">
        <ele>1850.0</ele>
        <time>2013-06-30T14:31:25Z</time>
      </trkpt>
      <trkpt lat="40.132000" lon="-5.406333">
        <ele>1849.0</ele>
        <time>2013-06-30T14:31:26Z</time>
      </trkpt>
      <trkpt lat="40.131967" lon="-5.406383">
        <ele>1848.0</ele>
        <time>2013-06-30T14:31:27Z</time>
      </trkpt>
      <trkpt lat="40.131917" lon="-5.406467">
        <ele>1846.0</ele>
        <time>2013-06-30T14:31:28Z</time>
      </trkpt>
      <trkpt lat="40.131867" lon="-5.406533">
        <ele>1845.0</ele>
        <time>2013-06-30T14:31:29Z</time>
      </trkpt>
      <trkpt lat="40.131817" lon="-5.406600">
        <ele>1842.0</ele>
        <time>2013-06-30T14:31:30Z</time>
      </trkpt>
      <trkpt lat="40.131750" lon="-5.406667">
        <ele>1840.0</ele>
        <time>2013-06-30T14:31:31Z</time>
      </trkpt>
      <trkpt lat="40.131683" lon="-5.406750">
        <ele>1838.0</ele>
        <time>2013-06-30T14:31:32Z</time>
      </trkpt>
      <trkpt lat="40.131633" lon="-5.406833">
        <ele>1837.0</ele>
        <time>2013-06-30T14:31:33Z</time>
      </trkpt>
      <trkpt lat="40.131583" lon="-5.406933">
        <ele>1835.0</ele>
        <time>2013-06-30T14:31:34Z</time>
      </trkpt>
      <trkpt lat="40.131533" lon="-5.407050">
        <ele>1833.0</ele>
        <time>2013-06-30T14:31:35Z</time>
      </trkpt>
      <trkpt lat="40.131500" lon="-5.407150">
        <ele>1832.0</ele>
        <time>2013-06-30T14:31:36Z</time>
      </trkpt>
      <trkpt lat="40.131450" lon="-5.407233">
        <ele>1830.0</ele>
        <time>2013-06-30T14:31:37Z</time>
      </trkpt>
      <trkpt lat="40.131400" lon="-5.407333">
        <ele>1829.0</ele>
        <time>2013-06-30T14:31:38Z</time>
      </trkpt>
      <trkpt lat="40.131350" lon="-5.407417">
        <ele>1827.0</ele>
        <time>2013-06-30T14:31:39Z</time>
      </trkpt>
      <trkpt lat="40.131300" lon="-5.407533">
        <ele>1826.0</ele>
        <time>2013-06-30T14:31:40Z</time>
      </trkpt>
      <trkpt lat="40.131250" lon="-5.407633">
        <ele>1824.0</ele>
        <time>2013-06-30T14:31:41Z</time>
      </trkpt>
      <trkpt lat="40.131217" lon="-5.407750">
        <ele>1821.0</ele>
        <time>2013-06-30T14:31:42Z</time>
      </trkpt>
      <trkpt lat="40.131167" lon="-5.407850">
        <ele>1819.0</ele>
        <time>2013-06-30T14:31:43Z</time>
      </trkpt>
      <trkpt lat="40.131133" lon="-5.407950">
        <ele>1817.0</ele>
        <time>2013-06-30T14:31:44Z</time>
      </trkpt>
      <trkpt lat="40.131083" lon="-5.408050">
        <ele>1815.0</ele>
        <time>2013-06-30T14:31:45Z</time>
      </trkpt>
      <trkpt lat="40.131033" lon="-5.408167">
        <ele>1813.0</ele>
        <time>2013-06-30T14:31:46Z</time>
      </trkpt>
      <trkpt lat="40.130983" lon="-5.408267">
        <ele>1811.0</ele>
        <time>2013-06-30T14:31:47Z</time>
      </trkpt>
      <trkpt lat="40.130917" lon="-5.408367">
        <ele>1810.0</ele>
        <time>2013-06-30T14:31:48Z</time>
      </trkpt>
      <trkpt lat="40.130867" lon="-5.408450">
        <ele>1810.0</ele>
        <time>2013-06-30T14:31:49Z</time>
      </trkpt>
      <trkpt lat="40.130833" lon="-5.408550">
        <ele>1809.0</ele>
        <time>2013-06-30T14:31:50Z</time>
      </trkpt>
      <trkpt lat="40.130783" lon="-5.408633">
        <ele>1808.0</ele>
        <time>2013-06-30T14:31:51Z</time>
      </trkpt>
      <trkpt lat="40.130733" lon="-5.408717">
        <ele>1807.0</ele>
        <time>2013-06-30T14:31:52Z</time>
      </trkpt>
      <trkpt lat="40.130683" lon="-5.408800">
        <ele>1805.0</ele>
        <time>2013-06-30T14:31:53Z</time>
      </trkpt>
      <trkpt lat="40.130617" lon="-5.408883">
        <ele>1803.0</ele>
        <time>2013-06-30T14:31:54Z</time>
      </trkpt>
      <trkpt lat="40.130550" lon="-5.408983">
        <ele>1802.0</ele>
        <time>2013-06-30T14:31:55Z</time>
      </trkpt>
      <trkpt lat="40.130483" lon="-5.409067">
        <ele>1800.0</ele>
        <time>2013-06-30T14:31:56Z</time>
      </trkpt>
      <trkpt lat="40.130417" lon="-5.409167">
        <ele>1799.0</ele>
        <time>2013-06-30T14:31:57Z</time>
      </trkpt>
      <trkpt lat="40.130367" lon="-5.409250">
        <ele>1798.0</ele>
        <time>2013-06-30T14:31:58Z</time>
      </trkpt>
      <trkpt lat="40.130317" lon="-5.409350">
        <ele>1796.0</ele>
        <time>2013-06-30T14:31:59Z</time>
      </trkpt>
      <trkpt lat="40.130250" lon="-5.409433">
        <ele>1794.0</ele>
        <time>2013-06-30T14:32:00Z</time>
      </trkpt>
      <trkpt lat="40.130183" lon="-5.409533">
        <ele>1791.0</ele>
        <time>2013-06-30T14:32:01Z</time>
      </trkpt>
      <trkpt lat="40.130117" lon="-5.409650">
        <ele>1789.0</ele>
        <time>2013-06-30T14:32:02Z</time>
      </trkpt>
      <trkpt lat="40.130067" lon="-5.409767">
        <ele>1788.0</ele>
        <time>2013-06-30T14:32:03Z</time>
      </trkpt>
      <trkpt lat="40.130033" lon="-5.409883">
        <ele>1787.0</ele>
        <time>2013-06-30T14:32:04Z</time>
      </trkpt>
      <trkpt lat="40.129983" lon="-5.410000">
        <ele>1785.0</ele>
        <time>2013-06-30T14:32:05Z</time>
      </trkpt>
      <trkpt lat="40.129933" lon="-5.410100">
        <ele>1784.0</ele>
        <time>2013-06-30T14:32:06Z</time>
      </trkpt>
      <trkpt lat="40.129883" lon="-5.410200">
        <ele>1783.0</ele>
        <time>2013-06-30T14:32:07Z</time>
      </trkpt>
      <trkpt lat="40.129850" lon="-5.410300">
        <ele>1781.0</ele>
        <time>2013-06-30T14:32:08Z</time>
      </trkpt>
      <trkpt lat="40.129800" lon="-5.410417">
        <ele>1779.0</ele>
        <time>2013-06-30T14:32:09Z</time>
      </trkpt>
      <trkpt lat="40.129767" lon="-5.410533">
        <ele>1777.0</ele>
        <time>2013-06-30T14:32:10Z</time>
      </trkpt>
      <trkpt lat="40.129717" lon="-5.410650">
        <ele>1776.0</ele>
        <time>2013-06-30T14:32:11Z</time>
      </trkpt>
      <trkpt lat="40.129667" lon="-5.410750">
        <ele>1775.0</ele>
        <time>2013-06-30T14:32:12Z</time>
      </trkpt>
      <trkpt lat="40.129617" lon="-5.410850">
        <ele>1774.0</ele>
        <time>2013-06-30T14:32:13Z</time>
      </trkpt>
      <trkpt lat="40.129567" lon="-5.410950">
        <ele>1773.0</ele>
        <time>2013-06-30T14:32:14Z</time>
      </trkpt>
      <trkpt lat="40.129533" lon="-5.411050">
        <ele>1771.0</ele>
        <time>2013-06-30T14:32:15Z</time>
      </trkpt>
      <trkpt lat="40.129500" lon="-5.411167">
        <ele>1770.0</ele>
        <time>2013-06-30T14:32:16Z</time>
      </trkpt>
      <trkpt lat="40.129450" lon="-5.411283">
        <ele>1769.0</ele>
        <time>2013-06-30T14:32:17Z</time>
      </trkpt>
      <trkpt lat="40.129433" lon="-5.411383">
        <ele>1768.0</ele>
        <time>2013-06-30T14:32:18Z</time>
      </trkpt>
      <trkpt lat="40.129400" lon="-5.411500">
        <ele>1767.0</ele>
        <time>2013-06-30T14:32:19Z</time>
      </trkpt>
      <trkpt lat="40.129383" lon="-5.411600">
        <ele>1765.0</ele>
        <time>2013-06-30T14:32:20Z</time>
      </trkpt>
      <trkpt lat="40.129350" lon="-5.411717">
        <ele>1764.0</ele>
        <time>2013-06-30T14:32:21Z</time>
      </trkpt>
      <trkpt lat="40.129317" lon="-5.411817">
        <ele>1762.0</ele>
        <time>2013-06-30T14:32:22Z</time>
      </trkpt>
      <trkpt lat="40.129283" lon="-5.411933">
        <ele>1761.0</ele>
        <time>2013-06-30T14:32:23Z</time>
      </trkpt>
      <trkpt lat="40.129250" lon="-5.412050">
        <ele>1759.0</ele>
        <time>2013-06-30T14:32:24Z</time>
      </trkpt>
      <trkpt lat="40.129217" lon="-5.412167">
        <ele>1758.0</ele>
        <time>2013-06-30T14:32:25Z</time>
      </trkpt>
      <trkpt lat="40.129183" lon="-5.412267">
        <ele>1757.0</ele>
        <time>2013-06-30T14:32:26Z</time>
      </trkpt>
      <trkpt lat="40.129133" lon="-5.412367">
        <ele>1755.0</ele>
        <time>2013-06-30T14:32:27Z</time>
      </trkpt>
      <trkpt lat="40.129083" lon="-5.412450">
        <ele>1754.0</ele>
        <time>2013-06-30T14:32:28Z</time>
      </trkpt>
      <trkpt lat="40.129033" lon="-5.412550">
        <ele>1752.0</ele>
        <time>2013-06-30T14:32:29Z</time>
      </trkpt>
      <trkpt lat="40.128983" lon="-5.412617">
        <ele>1749.0</ele>
        <time>2013-06-30T14:32:30Z</time>
      </trkpt>
      <trkpt lat="40.128933" lon="-5.412700">
        <ele>1747.0</ele>
        <time>2013-06-30T14:32:31Z</time>
      </trkpt>
      <trkpt lat="40.128883" lon="-5.412783">
        <ele>1744.0</ele>
        <time>2013-06-30T14:32:32Z</time>
      </trkpt>
      <trkpt lat="40.128850" lon="-5.412867">
        <ele>1741.0</ele>
        <time>2013-06-30T14:32:33Z</time>
      </trkpt>
      <trkpt lat="40.128800" lon="-5.412950">
        <ele>1738.0</ele>
        <time>2013-06-30T14:32:34Z</time>
      </trkpt>
      <trkpt lat="40.128733" lon="-5.413033">
        <ele>1735.0</ele>
        <time>2013-06-30T14:32:35Z</time>
      </trkpt>
      <trkpt lat="40.128667" lon="-5.413117">
        <ele>1732.0</ele>
        <time>2013-06-30T14:32:36Z</time>
      </trkpt>
      <trkpt lat="40.128617" lon="-5.413183">
        <ele>1729.0</ele>
        <time>2013-06-30T14:32:37Z</time>
      </trkpt>
      <trkpt lat="40.128550" lon="-5.413267">
        <ele>1726.0</ele>
        <time>2013-06-30T14:32:38Z</time>
      </trkpt>
      <trkpt lat="40.128500" lon="-5.413333">
        <ele>1723.0</ele>
        <time>2013-06-30T14:32:39Z</time>
      </trkpt>
      <trkpt lat="40.128433" lon="-5.413400">
        <ele>1718.0</ele>
        <time>2013-06-30T14:32:40Z</time>
      </trkpt>
      <trkpt lat="40.128367" lon="-5.413467">
        <ele>1714.0</ele>
        <time>2013-06-30T14:32:41Z</time>
      </trkpt>
      <trkpt lat="40.128283" lon="-5.413550">
        <ele>1708.0</ele>
        <time>2013-06-30T14:32:42Z</time>
      </trkpt>
      <trkpt lat="40.128183" lon="-5.413650">
        <ele>1703.0</ele>
        <time>2013-06-30T14:32:43Z</time>
      </trkpt>
      <trkpt lat="40.128083" lon="-5.413733">
        <ele>1699.0</ele>
        <time>2013-06-30T14:32:44Z</time>
      </trkpt>
      <trkpt lat="40.128000" lon="-5.413833">
        <ele>1697.0</ele>
        <time>2013-06-30T14:32:45Z</time>
      </trkpt>
      <trkpt lat="40.127933" lon="-5.413933">
        <ele>1694.0</ele>
        <time>2013-06-30T14:32:46Z</time>
      </trkpt>
      <trkpt lat="40.127883" lon="-5.414033">
        <ele>1691.0</ele>
        <time>2013-06-30T14:32:47Z</time>
      </trkpt>
      <trkpt lat="40.127817" lon="-5.414133">
        <ele>1688.0</ele>
        <time>2013-06-30T14:32:48Z</time>
      </trkpt>
      <trkpt lat="40.127767" lon="-5.414233">
        <ele>1684.0</ele>
        <time>2013-06-30T14:32:49Z</time>
      </trkpt>
      <trkpt lat="40.127700" lon="-5.414367">
        <ele>1681.0</ele>
        <time>2013-06-30T14:32:50Z</time>
      </trkpt>
      <trkpt lat="40.127633" lon="-5.414467">
        <ele>1679.0</ele>
        <time>2013-06-30T14:32:51Z</time>
      </trkpt>
      <trkpt lat="40.127583" lon="-5.414583">
        <ele>1677.0</ele>
        <time>2013-06-30T14:32:52Z</time>
      </trkpt>
      <trkpt lat="40.127533" lon="-5.414667">
        <ele>1675.0</ele>
        <time>2013-06-30T14:32:53Z</time>
      </trkpt>
      <trkpt lat="40.127467" lon="-5.414767">
        <ele>1675.0</ele>
        <time>2013-06-30T14:32:54Z</time>
      </trkpt>
      <trkpt lat="40.127417" lon="-5.414867">
        <ele>1673.0</ele>
        <time>2013-06-30T14:32:55Z</time>
      </trkpt>
      <trkpt lat="40.127350" lon="-5.414983">
        <ele>1671.0</ele>
        <time>2013-06-30T14:32:56Z</time>
      </trkpt>
      <trkpt lat="40.127300" lon="-5.415117">
        <ele>1669.0</ele>
        <time>2013-06-30T14:32:57Z</time>
      </trkpt>
      <trkpt lat="40.127267" lon="-5.415250">
        <ele>1670.0</ele>
        <time>2013-06-30T14:32:58Z</time>
      </trkpt>
      <trkpt lat="40.127250" lon="-5.415350">
        <ele>1670.0</ele>
        <time>2013-06-30T14:32:59Z</time>
      </trkpt>
      <trkpt lat="40.127233" lon="-5.415433">
        <ele>1670.0</ele>
        <time>2013-06-30T14:33:00Z</time>
      </trkpt>
      <trkpt lat="40.127200" lon="-5.415483">
        <ele>1669.0</ele>
        <time>2013-06-30T14:33:01Z</time>
      </trkpt>
      <trkpt lat="40.127150" lon="-5.415550">
        <ele>1667.0</ele>
        <time>2013-06-30T14:33:02Z</time>
      </trkpt>
      <trkpt lat="40.127083" lon="-5.415633">
        <ele>1664.0</ele>
        <time>2013-06-30T14:33:03Z</time>
      </trkpt>
      <trkpt lat="40.127000" lon="-5.415700">
        <ele>1657.0</ele>
        <time>2013-06-30T14:33:04Z</time>
      </trkpt>
      <trkpt lat="40.126917" lon="-5.415750">
        <ele>1654.0</ele>
        <time>2013-06-30T14:33:05Z</time>
      </trkpt>
      <trkpt lat="40.126850" lon="-5.415817">
        <ele>1649.0</ele>
        <time>2013-06-30T14:33:06Z</time>
      </trkpt>
      <trkpt lat="40.126783" lon="-5.415883">
        <ele>1644.0</ele>
        <time>2013-06-30T14:33:07Z</time>
      </trkpt>
      <trkpt lat="40.126717" lon="-5.415933">
        <ele>1635.0</ele>
        <time>2013-06-30T14:33:08Z</time>
      </trkpt>
      <trkpt lat="40.126633" lon="-5.416000">
        <ele>1628.0</ele>
        <time>2013-06-30T14:33:09Z</time>
      </trkpt>
      <trkpt lat="40.126533" lon="-5.416050">
        <ele>1623.0</ele>
        <time>2013-06-30T14:33:10Z</time>
      </trkpt>
      <trkpt lat="40.126433" lon="-5.416117">
        <ele>1619.0</ele>
        <time>2013-06-30T14:33:11Z</time>
      </trkpt>
      <trkpt lat="40.126367" lon="-5.416200">
        <ele>1617.0</ele>
        <time>2013-06-30T14:33:12Z</time>
      </trkpt>
      <trkpt lat="40.126300" lon="-5.416267">
        <ele>1615.0</ele>
        <time>2013-06-30T14:33:13Z</time>
      </trkpt>
      <trkpt lat="40.126267" lon="-5.416333">
        <ele>1612.0</ele>
        <time>2013-06-30T14:33:14Z</time>
      </trkpt>
      <trkpt lat="40.126200" lon="-5.416367">
        <ele>1609.0</ele>
        <time>2013-06-30T14:33:15Z</time>
      </trkpt>
      <trkpt lat="40.126150" lon="-5.416433">
        <ele>1606.0</ele>
        <time>2013-06-30T14:33:16Z</time>
      </trkpt>
      <trkpt lat="40.126067" lon="-5.416517">
        <ele>1603.0</ele>
        <time>2013-06-30T14:33:17Z</time>
      </trkpt>
      <trkpt lat="40.126000" lon="-5.416600">
        <ele>1601.0</ele>
        <time>2013-06-30T14:33:18Z</time>
      </trkpt>
      <trkpt lat="40.125950" lon="-5.416683">
        <ele>1599.0</ele>
        <time>2013-06-30T14:33:19Z</time>
      </trkpt>
      <trkpt lat="40.125917" lon="-5.416750">
        <ele>1597.0</ele>
        <time>2013-06-30T14:33:20Z</time>
      </trkpt>
      <trkpt lat="40.125900" lon="-5.416817">
        <ele>1593.0</ele>
        <time>2013-06-30T14:33:21Z</time>
      </trkpt>
      <trkpt lat="40.125867" lon="-5.416867">
        <ele>1588.0</ele>
        <time>2013-06-30T14:33:22Z</time>
      </trkpt>
      <trkpt lat="40.125800" lon="-5.416933">
        <ele>1584.0</ele>
        <time>2013-06-30T14:33:23Z</time>
      </trkpt>
      <trkpt lat="40.125733" lon="-5.417017">
        <ele>1581.0</ele>
        <time>2013-06-30T14:33:24Z</time>
      </trkpt>
      <trkpt lat="40.125650" lon="-5.417100">
        <ele>1578.0</ele>
        <time>2013-06-30T14:33:25Z</time>
      </trkpt>
      <trkpt lat="40.125583" lon="-5.417200">
        <ele>1575.0</ele>
        <time>2013-06-30T14:33:26Z</time>
      </trkpt>
      <trkpt lat="40.125517" lon="-5.417250">
        <ele>1575.0</ele>
        <time>2013-06-30T14:33:27Z</time>
      </trkpt>
      <trkpt lat="40.125450" lon="-5.417317">
        <ele>1575.0</ele>
        <time>2013-06-30T14:33:28Z</time>
      </trkpt>
      <trkpt lat="40.125400" lon="-5.417400">
        <ele>1574.0</ele>
        <time>2013-06-30T14:33:29Z</time>
      </trkpt>
      <trkpt lat="40.125333" lon="-5.417467">
        <ele>1572.0</ele>
        <time>2013-06-30T14:33:30Z</time>
      </trkpt>
      <trkpt lat="40.125267" lon="-5.417517">
        <ele>1571.0</ele>
        <time>2013-06-30T14:33:31Z</time>
      </trkpt>
      <trkpt lat="40.125183" lon="-5.417550">
        <ele>1571.0</ele>
        <time>2013-06-30T14:33:32Z</time>
      </trkpt>
      <trkpt lat="40.125117" lon="-5.417600">
        <ele>1571.0</ele>
        <time>2013-06-30T14:33:33Z</time>
      </trkpt>
      <trkpt lat="40.125050" lon="-5.417633">
        <ele>1570.0</ele>
        <time>2013-06-30T14:33:34Z</time>
      </trkpt>
      <trkpt lat="40.124983" lon="-5.417700">
        <ele>1569.0</ele>
        <time>2013-06-30T14:33:35Z</time>
      </trkpt>
      <trkpt lat="40.124917" lon="-5.417750">
        <ele>1568.0</ele>
        <time>2013-06-30T14:33:36Z</time>
      </trkpt>
      <trkpt lat="40.124850" lon="-5.417800">
        <ele>1566.0</ele>
        <time>2013-06-30T14:33:37Z</time>
      </trkpt>
      <trkpt lat="40.124767" lon="-5.417850">
        <ele>1565.0</ele>
        <time>2013-06-30T14:33:38Z</time>
      </trkpt>
      <trkpt lat="40.124700" lon="-5.417900">
        <ele>1565.0</ele>
        <time>2013-06-30T14:33:39Z</time>
      </trkpt>
      <trkpt lat="40.124617" lon="-5.417950">
        <ele>1564.0</ele>
        <time>2013-06-30T14:33:40Z</time>
      </trkpt>
      <trkpt lat="40.124550" lon="-5.418000">
        <ele>1564.0</ele>
        <time>2013-06-30T14:33:41Z</time>
      </trkpt>
      <trkpt lat="40.124483" lon="-5.418050">
        <ele>1563.0</ele>
        <time>2013-06-30T14:33:42Z</time>
      </trkpt>
      <trkpt lat="40.124400" lon="-5.418100">
        <ele>1562.0</ele>
        <time>2013-06-30T14:33:43Z</time>
      </trkpt>
      <trkpt lat="40.124317" lon="-5.418167">
        <ele>1560.0</ele>
        <time>2013-06-30T14:33:44Z</time>
      </trkpt>
      <trkpt lat="40.124233" lon="-5.418250">
        <ele>1559.0</ele>
        <time>2013-06-30T14:33:45Z</time>
      </trkpt>
      <trkpt lat="40.124150" lon="-5.418333">
        <ele>1558.0</ele>
        <time>2013-06-30T14:33:46Z</time>
      </trkpt>
      <trkpt lat="40.124067" lon="-5.418400">
        <ele>1557.0</ele>
        <time>2013-06-30T14:33:47Z</time>
      </trkpt>
      <trkpt lat="40.124000" lon="-5.418483">
        <ele>1557.0</ele>
        <time>2013-06-30T14:33:48Z</time>
      </trkpt>
      <trkpt lat="40.123933" lon="-5.418567">
        <ele>1556.0</ele>
        <time>2013-06-30T14:33:49Z</time>
      </trkpt>
      <trkpt lat="40.123867" lon="-5.418650">
        <ele>1554.0</ele>
        <time>2013-06-30T14:33:50Z</time>
      </trkpt>
      <trkpt lat="40.123783" lon="-5.418750">
        <ele>1553.0</ele>
        <time>2013-06-30T14:33:51Z</time>
      </trkpt>
      <trkpt lat="40.123700" lon="-5.418833">
        <ele>1553.0</ele>
        <time>2013-06-30T14:33:52Z</time>
      </trkpt>
      <trkpt lat="40.123617" lon="-5.418917">
        <ele>1552.0</ele>
        <time>2013-06-30T14:33:53Z</time>
      </trkpt>
      <trkpt lat="40.123550" lon="-5.419000">
        <ele>1551.0</ele>
        <time>2013-06-30T14:33:54Z</time>
      </trkpt>
      <trkpt lat="40.123483" lon="-5.419100">
        <ele>1550.0</ele>
        <time>2013-06-30T14:33:55Z</time>
      </trkpt>
      <trkpt lat="40.123417" lon="-5.419183">
        <ele>1548.0</ele>
        <time>2013-06-30T14:33:56Z</time>
      </trkpt>
      <trkpt lat="40.123333" lon="-5.419283">
        <ele>1547.0</ele>
        <time>2013-06-30T14:33:57Z</time>
      </trkpt>
      <trkpt lat="40.123267" lon="-5.419367">
        <ele>1546.0</ele>
        <time>2013-06-30T14:33:58Z</time>
      </trkpt>
      <trkpt lat="40.123200" lon="-5.419467">
        <ele>1544.0</ele>
        <time>2013-06-30T14:33:59Z</time>
      </trkpt>
      <trkpt lat="40.123133" lon="-5.419567">
        <ele>1543.0</ele>
        <time>2013-06-30T14:34:00Z</time>
      </trkpt>
      <trkpt lat="40.123067" lon="-5.419650">
        <ele>1541.0</ele>
        <time>2013-06-30T14:34:01Z</time>
      </trkpt>
      <trkpt lat="40.123000" lon="-5.419733">
        <ele>1540.0</ele>
        <time>2013-06-30T14:34:02Z</time>
      </trkpt>
      <trkpt lat="40.122917" lon="-5.419817">
        <ele>1538.0</ele>
        <time>2013-06-30T14:34:03Z</time>
      </trkpt>
      <trkpt lat="40.122833" lon="-5.419917">
        <ele>1537.0</ele>
        <time>2013-06-30T14:34:04Z</time>
      </trkpt>
      <trkpt lat="40.122767" lon="-5.420017">
        <ele>1536.0</ele>
        <time>2013-06-30T14:34:05Z</time>
      </trkpt>
      <trkpt lat="40.122700" lon="-5.420100">
        <ele>1534.0</ele>
        <time>2013-06-30T14:34:06Z</time>
      </trkpt>
      <trkpt lat="40.122617" lon="-5.420200">
        <ele>1533.0</ele>
        <time>2013-06-30T14:34:07Z</time>
      </trkpt>
      <trkpt lat="40.122533" lon="-5.420283">
        <ele>1531.0</ele>
        <time>2013-06-30T14:34:08Z</time>
      </trkpt>
      <trkpt lat="40.122450" lon="-5.420383">
        <ele>1530.0</ele>
        <time>2013-06-30T14:34:09Z</time>
      </trkpt>
      <trkpt lat="40.122367" lon="-5.420500">
        <ele>1529.0</ele>
        <time>2013-06-30T14:34:10Z</time>
      </trkpt>
      <trkpt lat="40.122300" lon="-5.420600">
        <ele>1527.0</ele>
        <time>2013-06-30T14:34:11Z</time>
      </trkpt>
      <trkpt lat="40.122217" lon="-5.420683">
        <ele>1526.0</ele>
        <time>2013-06-30T14:34:12Z</time>
      </trkpt>
      <trkpt lat="40.122150" lon="-5.420767">
        <ele>1524.0</ele>
        <time>2013-06-30T14:34:13Z</time>
      </trkpt>
      <trkpt lat="40.122067" lon="-5.420867">
        <ele>1522.0</ele>
        <time>2013-06-30T14:34:14Z</time>
      </trkpt>
      <trkpt lat="40.122000" lon="-5.420967">
        <ele>1520.0</ele>
        <time>2013-06-30T14:34:15Z</time>
      </trkpt>
      <trkpt lat="40.121917" lon="-5.421067">
        <ele>1518.0</ele>
        <time>2013-06-30T14:34:16Z</time>
      </trkpt>
      <trkpt lat="40.121833" lon="-5.421167">
        <ele>1516.0</ele>
        <time>2013-06-30T14:34:17Z</time>
      </trkpt>
      <trkpt lat="40.121767" lon="-5.421267">
        <ele>1514.0</ele>
        <time>2013-06-30T14:34:18Z</time>
      </trkpt>
      <trkpt lat="40.121700" lon="-5.421367">
        <ele>1512.0</ele>
        <time>2013-06-30T14:34:19Z</time>
      </trkpt>
      <trkpt lat="40.121617" lon="-5.421483">
        <ele>1510.0</ele>
        <time>2013-06-30T14:34:20Z</time>
      </trkpt>
      <trkpt lat="40.121533" lon="-5.421600">
        <ele>1507.0</ele>
        <time>2013-06-30T14:34:21Z</time>
      </trkpt>
      <trkpt lat="40.121467" lon="-5.421733">
        <ele>1505.0</ele>
        <time>2013-06-30T14:34:22Z</time>
      </trkpt>
      <trkpt lat="40.121383" lon="-5.421867">
        <ele>1503.0</ele>
        <time>2013-06-30T14:34:23Z</time>
      </trkpt>
      <trkpt lat="40.121317" lon="-5.421983">
        <ele>1503.0</ele>
        <time>2013-06-30T14:34:24Z</time>
      </trkpt>
      <trkpt lat="40.121250" lon="-5.422100">
        <ele>1502.0</ele>
        <time>2013-06-30T14:34:25Z</time>
      </trkpt>
      <trkpt lat="40.121183" lon="-5.422200">
        <ele>1501.0</ele>
        <time>2013-06-30T14:34:26Z</time>
      </trkpt>
      <trkpt lat="40.121117" lon="-5.422317">
        <ele>1500.0</ele>
        <time>2013-06-30T14:34:27Z</time>
      </trkpt>
      <trkpt lat="40.121050" lon="-5.422433">
        <ele>1498.0</ele>
        <time>2013-06-30T14:34:28Z</time>
      </trkpt>
      <trkpt lat="40.120983" lon="-5.422550">
        <ele>1498.0</ele>
        <time>2013-06-30T14:34:29Z</time>
      </trkpt>
      <trkpt lat="40.120900" lon="-5.422650">
        <ele>1497.0</ele>
        <time>2013-06-30T14:34:30Z</time>
      </trkpt>
      <trkpt lat="40.120833" lon="-5.422733">
        <ele>1497.0</ele>
        <time>2013-06-30T14:34:31Z</time>
      </trkpt>
      <trkpt lat="40.120783" lon="-5.422800">
        <ele>1494.0</ele>
        <time>2013-06-30T14:34:32Z</time>
      </trkpt>
      <trkpt lat="40.120717" lon="-5.422883">
        <ele>1493.0</ele>
        <time>2013-06-30T14:34:33Z</time>
      </trkpt>
      <trkpt lat="40.120633" lon="-5.422983">
        <ele>1489.0</ele>
        <time>2013-06-30T14:34:34Z</time>
      </trkpt>
      <trkpt lat="40.120567" lon="-5.423067">
        <ele>1487.0</ele>
        <time>2013-06-30T14:34:35Z</time>
      </trkpt>
      <trkpt lat="40.120483" lon="-5.423150">
        <ele>1485.0</ele>
        <time>2013-06-30T14:34:36Z</time>
      </trkpt>
      <trkpt lat="40.120433" lon="-5.423233">
        <ele>1484.0</ele>
        <time>2013-06-30T14:34:37Z</time>
      </trkpt>
      <trkpt lat="40.120367" lon="-5.423300">
        <ele>1482.0</ele>
        <time>2013-06-30T14:34:38Z</time>
      </trkpt>
      <trkpt lat="40.120317" lon="-5.423383">
        <ele>1482.0</ele>
        <time>2013-06-30T14:34:39Z</time>
      </trkpt>
      <trkpt lat="40.120283" lon="-5.423467">
        <ele>1480.0</ele>
        <time>2013-06-30T14:34:40Z</time>
      </trkpt>
      <trkpt lat="40.120233" lon="-5.423567">
        <ele>1479.0</ele>
        <time>2013-06-30T14:34:41Z</time>
      </trkpt>
      <trkpt lat="40.120167" lon="-5.423667">
        <ele>1477.0</ele>
        <time>2013-06-30T14:34:42Z</time>
      </trkpt>
      <trkpt lat="40.120117" lon="-5.423750">
        <ele>1477.0</ele>
        <time>2013-06-30T14:34:43Z</time>
      </trkpt>
      <trkpt lat="40.120067" lon="-5.423850">
        <ele>1476.0</ele>
        <time>2013-06-30T14:34:44Z</time>
      </trkpt>
      <trkpt lat="40.120033" lon="-5.423933">
        <ele>1475.0</ele>
        <time>2013-06-30T14:34:45Z</time>
      </trkpt>
      <trkpt lat="40.119983" lon="-5.424033">
        <ele>1474.0</ele>
        <time>2013-06-30T14:34:46Z</time>
      </trkpt>
      <trkpt lat="40.119950" lon="-5.424150">
        <ele>1472.0</ele>
        <time>2013-06-30T14:34:47Z</time>
      </trkpt>
      <trkpt lat="40.119900" lon="-5.424283">
        <ele>1472.0</ele>
        <time>2013-06-30T14:34:48Z</time>
      </trkpt>
      <trkpt lat="40.119850" lon="-5.424400">
        <ele>1471.0</ele>
        <time>2013-06-30T14:34:49Z</time>
      </trkpt>
      <trkpt lat="40.119783" lon="-5.424517">
        <ele>1472.0</ele>
        <time>2013-06-30T14:34:50Z</time>
      </trkpt>
      <trkpt lat="40.119750" lon="-5.424633">
        <ele>1475.0</ele>
        <time>2013-06-30T14:34:51Z</time>
      </trkpt>
      <trkpt lat="40.119733" lon="-5.424717">
        <ele>1477.0</ele>
        <time>2013-06-30T14:34:52Z</time>
      </trkpt>
      <trkpt lat="40.119717" lon="-5.424800">
        <ele>1477.0</ele>
        <time>2013-06-30T14:34:53Z</time>
      </trkpt>
      <trkpt lat="40.119700" lon="-5.424900">
        <ele>1477.0</ele>
        <time>2013-06-30T14:34:54Z</time>
      </trkpt>
      <trkpt lat="40.119667" lon="-5.425000">
        <ele>1476.0</ele>
        <time>2013-06-30T14:34:55Z</time>
      </trkpt>
      <trkpt lat="40.119617" lon="-5.425117">
        <ele>1475.0</ele>
        <time>2013-06-30T14:34:56Z</time>
      </trkpt>
      <trkpt lat="40.119567" lon="-5.425233">
        <ele>1473.0</ele>
        <time>2013-06-30T14:34:57Z</time>
      </trkpt>
      <trkpt lat="40.119550" lon="-5.425367">
        <ele>1470.0</ele>
        <time>2013-06-30T14:34:58Z</time>
      </trkpt>
      <trkpt lat="40.119517" lon="-5.425500">
        <ele>1468.0</ele>
        <time>2013-06-30T14:34:59Z</time>
      </trkpt>
      <trkpt lat="40.119517" lon="-5.425633">
        <ele>1466.0</ele>
        <time>2013-06-30T14:35:00Z</time>
      </trkpt>
      <trkpt lat="40.119500" lon="-5.425767">
        <ele>1466.0</ele>
        <time>2013-06-30T14:35:01Z</time>
      </trkpt>
      <trkpt lat="40.119467" lon="-5.425883">
        <ele>1465.0</ele>
        <time>2013-06-30T14:35:02Z</time>
      </trkpt>
      <trkpt lat="40.119450" lon="-5.426017">
        <ele>1464.0</ele>
        <time>2013-06-30T14:35:03Z</time>
      </trkpt>
      <trkpt lat="40.119450" lon="-5.426167">
        <ele>1463.0</ele>
        <time>2013-06-30T14:35:04Z</time>
      </trkpt>
      <trkpt lat="40.119433" lon="-5.426317">
        <ele>1462.0</ele>
        <time>2013-06-30T14:35:05Z</time>
      </trkpt>
      <trkpt lat="40.119433" lon="-5.426467">
        <ele>1463.0</ele>
        <time>2013-06-30T14:35:06Z</time>
      </trkpt>
      <trkpt lat="40.119433" lon="-5.426600">
        <ele>1465.0</ele>
        <time>2013-06-30T14:35:07Z</time>
      </trkpt>
      <trkpt lat="40.119417" lon="-5.426733">
        <ele>1467.0</ele>
        <time>2013-06-30T14:35:08Z</time>
      </trkpt>
      <trkpt lat="40.119400" lon="-5.426850">
        <ele>1470.0</ele>
        <time>2013-06-30T14:35:09Z</time>
      </trkpt>
      <trkpt lat="40.119400" lon="-5.426917">
        <ele>1472.0</ele>
        <time>2013-06-30T14:35:10Z</time>
      </trkpt>
      <trkpt lat="40.119417" lon="-5.426983">
        <ele>1473.0</ele>
        <time>2013-06-30T14:35:11Z</time>
      </trkpt>
      <trkpt lat="40.119450" lon="-5.427050">
        <ele>1473.0</ele>
        <time>2013-06-30T14:35:12Z</time>
      </trkpt>
      <trkpt lat="40.119483" lon="-5.427133">
        <ele>1473.0</ele>
        <time>2013-06-30T14:35:13Z</time>
      </trkpt>
      <trkpt lat="40.119533" lon="-5.427183">
        <ele>1474.0</ele>
        <time>2013-06-30T14:35:14Z</time>
      </trkpt>
      <trkpt lat="40.119600" lon="-5.427200">
        <ele>1474.0</ele>
        <time>2013-06-30T14:35:15Z</time>
      </trkpt>
      <trkpt lat="40.119650" lon="-5.427200">
        <ele>1474.0</ele>
        <time>2013-06-30T14:35:16Z</time>
      </trkpt>
      <trkpt lat="40.119717" lon="-5.427183">
        <ele>1475.0</ele>
        <time>2013-06-30T14:35:17Z</time>
      </trkpt>
      <trkpt lat="40.119767" lon="-5.427167">
        <ele>1476.0</ele>
        <time>2013-06-30T14:35:18Z</time>
      </trkpt>
      <trkpt lat="40.119833" lon="-5.427183">
        <ele>1477.0</ele>
        <time>2013-06-30T14:35:19Z</time>
      </trkpt>
      <trkpt lat="40.119883" lon="-5.427217">
        <ele>1478.0</ele>
        <time>2013-06-30T14:35:20Z</time>
      </trkpt>
      <trkpt lat="40.119933" lon="-5.427283">
        <ele>1479.0</ele>
        <time>2013-06-30T14:35:21Z</time>
      </trkpt>
      <trkpt lat="40.119967" lon="-5.427367">
        <ele>1480.0</ele>
        <time>2013-06-30T14:35:22Z</time>
      </trkpt>
      <trkpt lat="40.120000" lon="-5.427467">
        <ele>1482.0</ele>
        <time>2013-06-30T14:35:23Z</time>
      </trkpt>
      <trkpt lat="40.120000" lon="-5.427583">
        <ele>1483.0</ele>
        <time>2013-06-30T14:35:24Z</time>
      </trkpt>
      <trkpt lat="40.119983" lon="-5.427683">
        <ele>1485.0</ele>
        <time>2013-06-30T14:35:25Z</time>
      </trkpt>
      <trkpt lat="40.119967" lon="-5.427800">
        <ele>1486.0</ele>
        <time>2013-06-30T14:35:26Z</time>
      </trkpt>
      <trkpt lat="40.119933" lon="-5.427900">
        <ele>1488.0</ele>
        <time>2013-06-30T14:35:27Z</time>
      </trkpt>
      <trkpt lat="40.119900" lon="-5.428000">
        <ele>1490.0</ele>
        <time>2013-06-30T14:35:28Z</time>
      </trkpt>
      <trkpt lat="40.119850" lon="-5.428083">
        <ele>1491.0</ele>
        <time>2013-06-30T14:35:29Z</time>
      </trkpt>
      <trkpt lat="40.119800" lon="-5.428167">
        <ele>1493.0</ele>
        <time>2013-06-30T14:35:30Z</time>
      </trkpt>
      <trkpt lat="40.119733" lon="-5.428233">
        <ele>1492.0</ele>
        <time>2013-06-30T14:35:31Z</time>
      </trkpt>
      <trkpt lat="40.119667" lon="-5.428283">
        <ele>1491.0</ele>
        <time>2013-06-30T14:35:32Z</time>
      </trkpt>
      <trkpt lat="40.119567" lon="-5.428317">
        <ele>1489.0</ele>
        <time>2013-06-30T14:35:33Z</time>
      </trkpt>
      <trkpt lat="40.119467" lon="-5.428317">
        <ele>1488.0</ele>
        <time>2013-06-30T14:35:34Z</time>
      </trkpt>
      <trkpt lat="40.119350" lon="-5.428267">
        <ele>1489.0</ele>
        <time>2013-06-30T14:35:35Z</time>
      </trkpt>
      <trkpt lat="40.119283" lon="-5.428217">
        <ele>1489.0</ele>
        <time>2013-06-30T14:35:36Z</time>
      </trkpt>
      <trkpt lat="40.119217" lon="-5.428183">
        <ele>1489.0</ele>
        <time>2013-06-30T14:35:37Z</time>
      </trkpt>
      <trkpt lat="40.119167" lon="-5.428150">
        <ele>1490.0</ele>
        <time>2013-06-30T14:35:38Z</time>
      </trkpt>
      <trkpt lat="40.119100" lon="-5.428117">
        <ele>1490.0</ele>
        <time>2013-06-30T14:35:39Z</time>
      </trkpt>
      <trkpt lat="40.119033" lon="-5.428083">
        <ele>1490.0</ele>
        <time>2013-06-30T14:35:40Z</time>
      </trkpt>
      <trkpt lat="40.118983" lon="-5.428033">
        <ele>1491.0</ele>
        <time>2013-06-30T14:35:41Z</time>
      </trkpt>
      <trkpt lat="40.118933" lon="-5.427967">
        <ele>1491.0</ele>
        <time>2013-06-30T14:35:42Z</time>
      </trkpt>
      <trkpt lat="40.118900" lon="-5.427900">
        <ele>1491.0</ele>
        <time>2013-06-30T14:35:43Z</time>
      </trkpt>
      <trkpt lat="40.118900" lon="-5.427817">
        <ele>1492.0</ele>
        <time>2013-06-30T14:35:44Z</time>
      </trkpt>
      <trkpt lat="40.118933" lon="-5.427733">
        <ele>1493.0</ele>
        <time>2013-06-30T14:35:45Z</time>
      </trkpt>
      <trkpt lat="40.118950" lon="-5.427667">
        <ele>1495.0</ele>
        <time>2013-06-30T14:35:46Z</time>
      </trkpt>
      <trkpt lat="40.118983" lon="-5.427617">
        <ele>1496.0</ele>
        <time>2013-06-30T14:35:47Z</time>
      </trkpt>
      <trkpt lat="40.119033" lon="-5.427583">
        <ele>1497.0</ele>
        <time>2013-06-30T14:35:48Z</time>
      </trkpt>
      <trkpt lat="40.119083" lon="-5.427567">
        <ele>1497.0</ele>
        <time>2013-06-30T14:35:49Z</time>
      </trkpt>
      <trkpt lat="40.119133" lon="-5.427550">
        <ele>1497.0</ele>
        <time>2013-06-30T14:35:50Z</time>
      </trkpt>
      <trkpt lat="40.119183" lon="-5.427550">
        <ele>1497.0</ele>
        <time>2013-06-30T14:35:51Z</time>
      </trkpt>
      <trkpt lat="40.119250" lon="-5.427583">
        <ele>1497.0</ele>
        <time>2013-06-30T14:35:52Z</time>
      </trkpt>
      <trkpt lat="40.119317" lon="-5.427633">
        <ele>1498.0</ele>
        <time>2013-06-30T14:35:53Z</time>
      </trkpt>
      <trkpt lat="40.119367" lon="-5.427717">
        <ele>1498.0</ele>
        <time>2013-06-30T14:35:54Z</time>
      </trkpt>
      <trkpt lat="40.119433" lon="-5.427783">
        <ele>1501.0</ele>
        <time>2013-06-30T14:35:55Z</time>
      </trkpt>
      <trkpt lat="40.119483" lon="-5.427850">
        <ele>1503.0</ele>
        <time>2013-06-30T14:35:56Z</time>
      </trkpt>
      <trkpt lat="40.119517" lon="-5.427900">
        <ele>1506.0</ele>
        <time>2013-06-30T14:35:57Z</time>
      </trkpt>
      <trkpt lat="40.119550" lon="-5.427967">
        <ele>1507.0</ele>
        <time>2013-06-30T14:35:58Z</time>
      </trkpt>
      <trkpt lat="40.119567" lon="-5.428050">
        <ele>1508.0</ele>
        <time>2013-06-30T14:35:59Z</time>
      </trkpt>
      <trkpt lat="40.119617" lon="-5.428150">
        <ele>1508.0</ele>
        <time>2013-06-30T14:36:00Z</time>
      </trkpt>
      <trkpt lat="40.119633" lon="-5.428267">
        <ele>1509.0</ele>
        <time>2013-06-30T14:36:01Z</time>
      </trkpt>
      <trkpt lat="40.119617" lon="-5.428383">
        <ele>1510.0</ele>
        <time>2013-06-30T14:36:02Z</time>
      </trkpt>
      <trkpt lat="40.119567" lon="-5.428500">
        <ele>1511.0</ele>
        <time>2013-06-30T14:36:03Z</time>
      </trkpt>
      <trkpt lat="40.119483" lon="-5.428583">
        <ele>1511.0</ele>
        <time>2013-06-30T14:36:04Z</time>
      </trkpt>
      <trkpt lat="40.119400" lon="-5.428650">
        <ele>1512.0</ele>
        <time>2013-06-30T14:36:05Z</time>
      </trkpt>
      <trkpt lat="40.119300" lon="-5.428700">
        <ele>1513.0</ele>
        <time>2013-06-30T14:36:06Z</time>
      </trkpt>
      <trkpt lat="40.119217" lon="-5.428717">
        <ele>1514.0</ele>
        <time>2013-06-30T14:36:07Z</time>
      </trkpt>
      <trkpt lat="40.119117" lon="-5.428717">
        <ele>1515.0</ele>
        <time>2013-06-30T14:36:08Z</time>
      </trkpt>
      <trkpt lat="40.119033" lon="-5.428700">
        <ele>1514.0</ele>
        <time>2013-06-30T14:36:09Z</time>
      </trkpt>
      <trkpt lat="40.118950" lon="-5.428650">
        <ele>1513.0</ele>
        <time>2013-06-30T14:36:10Z</time>
      </trkpt>
      <trkpt lat="40.118900" lon="-5.428583">
        <ele>1512.0</ele>
        <time>2013-06-30T14:36:11Z</time>
      </trkpt>
      <trkpt lat="40.118867" lon="-5.428483">
        <ele>1510.0</ele>
        <time>2013-06-30T14:36:12Z</time>
      </trkpt>
      <trkpt lat="40.118850" lon="-5.428400">
        <ele>1508.0</ele>
        <time>2013-06-30T14:36:13Z</time>
      </trkpt>
      <trkpt lat="40.118833" lon="-5.428300">
        <ele>1507.0</ele>
        <time>2013-06-30T14:36:14Z</time>
      </trkpt>
      <trkpt lat="40.118867" lon="-5.428200">
        <ele>1505.0</ele>
        <time>2013-06-30T14:36:15Z</time>
      </trkpt>
      <trkpt lat="40.118917" lon="-5.428133">
        <ele>1504.0</ele>
        <time>2013-06-30T14:36:16Z</time>
      </trkpt>
      <trkpt lat="40.118983" lon="-5.428067">
        <ele>1503.0</ele>
        <time>2013-06-30T14:36:17Z</time>
      </trkpt>
      <trkpt lat="40.119050" lon="-5.428033">
        <ele>1503.0</ele>
        <time>2013-06-30T14:36:18Z</time>
      </trkpt>
      <trkpt lat="40.119133" lon="-5.427983">
        <ele>1504.0</ele>
        <time>2013-06-30T14:36:19Z</time>
      </trkpt>
      <trkpt lat="40.119217" lon="-5.427933">
        <ele>1506.0</ele>
        <time>2013-06-30T14:36:20Z</time>
      </trkpt>
      <trkpt lat="40.119267" lon="-5.427917">
        <ele>1509.0</ele>
        <time>2013-06-30T14:36:21Z</time>
      </trkpt>
      <trkpt lat="40.119317" lon="-5.427917">
        <ele>1511.0</ele>
        <time>2013-06-30T14:36:22Z</time>
      </trkpt>
      <trkpt lat="40.119367" lon="-5.427900">
        <ele>1512.0</ele>
        <time>2013-06-30T14:36:23Z</time>
      </trkpt>
      <trkpt lat="40.119417" lon="-5.427900">
        <ele>1512.0</ele>
        <time>2013-06-30T14:36:24Z</time>
      </trkpt>
      <trkpt lat="40.119483" lon="-5.427900">
        <ele>1512.0</ele>
        <time>2013-06-30T14:36:25Z</time>
      </trkpt>
      <trkpt lat="40.119567" lon="-5.427917">
        <ele>1512.0</ele>
        <time>2013-06-30T14:36:26Z</time>
      </trkpt>
      <trkpt lat="40.119633" lon="-5.428000">
        <ele>1512.0</ele>
        <time>2013-06-30T14:36:27Z</time>
      </trkpt>
      <trkpt lat="40.119683" lon="-5.428083">
        <ele>1513.0</ele>
        <time>2013-06-30T14:36:28Z</time>
      </trkpt>
      <trkpt lat="40.119733" lon="-5.428200">
        <ele>1514.0</ele>
        <time>2013-06-30T14:36:29Z</time>
      </trkpt>
      <trkpt lat="40.119783" lon="-5.428267">
        <ele>1516.0</ele>
        <time>2013-06-30T14:36:30Z</time>
      </trkpt>
      <trkpt lat="40.119817" lon="-5.428333">
        <ele>1519.0</ele>
        <time>2013-06-30T14:36:31Z</time>
      </trkpt>
      <trkpt lat="40.119850" lon="-5.428400">
        <ele>1522.0</ele>
        <time>2013-06-30T14:36:32Z</time>
      </trkpt>
      <trkpt lat="40.119883" lon="-5.428500">
        <ele>1523.0</ele>
        <time>2013-06-30T14:36:33Z</time>
      </trkpt>
      <trkpt lat="40.119883" lon="-5.428600">
        <ele>1525.0</ele>
        <time>2013-06-30T14:36:34Z</time>
      </trkpt>
      <trkpt lat="40.119883" lon="-5.428700">
        <ele>1527.0</ele>
        <time>2013-06-30T14:36:35Z</time>
      </trkpt>
      <trkpt lat="40.119867" lon="-5.428817">
        <ele>1528.0</ele>
        <time>2013-06-30T14:36:36Z</time>
      </trkpt>
      <trkpt lat="40.119800" lon="-5.428917">
        <ele>1530.0</ele>
        <time>2013-06-30T14:36:37Z</time>
      </trkpt>
      <trkpt lat="40.119733" lon="-5.428983">
        <ele>1532.0</ele>
        <time>2013-06-30T14:36:38Z</time>
      </trkpt>
      <trkpt lat="40.119667" lon="-5.429033">
        <ele>1534.0</ele>
        <time>2013-06-30T14:36:39Z</time>
      </trkpt>
      <trkpt lat="40.119600" lon="-5.429050">
        <ele>1536.0</ele>
        <time>2013-06-30T14:36:40Z</time>
      </trkpt>
      <trkpt lat="40.119517" lon="-5.429067">
        <ele>1537.0</ele>
        <time>2013-06-30T14:36:41Z</time>
      </trkpt>
      <trkpt lat="40.119433" lon="-5.429050">
        <ele>1538.0</ele>
        <time>2013-06-30T14:36:42Z</time>
      </trkpt>
      <trkpt lat="40.119350" lon="-5.429000">
        <ele>1539.0</ele>
        <time>2013-06-30T14:36:43Z</time>
      </trkpt>
      <trkpt lat="40.119283" lon="-5.428917">
        <ele>1541.0</ele>
        <time>2013-06-30T14:36:44Z</time>
      </trkpt>
      <trkpt lat="40.119250" lon="-5.428833">
        <ele>1542.0</ele>
        <time>2013-06-30T14:36:45Z</time>
      </trkpt>
      <trkpt lat="40.119250" lon="-5.428733">
        <ele>1543.0</ele>
        <time>2013-06-30T14:36:46Z</time>
      </trkpt>
      <trkpt lat="40.119283" lon="-5.428667">
        <ele>1545.0</ele>
        <time>2013-06-30T14:36:47Z</time>
      </trkpt>
      <trkpt lat="40.119350" lon="-5.428617">
        <ele>1546.0</ele>
        <time>2013-06-30T14:36:48Z</time>
      </trkpt>
      <trkpt lat="40.119417" lon="-5.428600">
        <ele>1547.0</ele>
        <time>2013-06-30T14:36:49Z</time>
      </trkpt>
      <trkpt lat="40.119500" lon="-5.428617">
        <ele>1548.0</ele>
        <time>2013-06-30T14:36:50Z</time>
      </trkpt>
      <trkpt lat="40.119567" lon="-5.428650">
        <ele>1549.0</ele>
        <time>2013-06-30T14:36:51Z</time>
      </trkpt>
      <trkpt lat="40.119617" lon="-5.428733">
        <ele>1552.0</ele>
        <time>2013-06-30T14:36:52Z</time>
      </trkpt>
      <trkpt lat="40.119633" lon="-5.428817">
        <ele>1555.0</ele>
        <time>2013-06-30T14:36:53Z</time>
      </trkpt>
      <trkpt lat="40.119617" lon="-5.428900">
        <ele>1557.0</ele>
        <time>2013-06-30T14:36:54Z</time>
      </trkpt>
      <trkpt lat="40.119600" lon="-5.429000">
        <ele>1559.0</ele>
        <time>2013-06-30T14:36:55Z</time>
      </trkpt>
      <trkpt lat="40.119583" lon="-5.429100">
        <ele>1560.0</ele>
        <time>2013-06-30T14:36:56Z</time>
      </trkpt>
      <trkpt lat="40.119567" lon="-5.429200">
        <ele>1561.0</ele>
        <time>2013-06-30T14:36:57Z</time>
      </trkpt>
      <trkpt lat="40.119533" lon="-5.429300">
        <ele>1563.0</ele>
        <time>2013-06-30T14:36:58Z</time>
      </trkpt>
      <trkpt lat="40.119467" lon="-5.429383">
        <ele>1565.0</ele>
        <time>2013-06-30T14:36:59Z</time>
      </trkpt>
      <trkpt lat="40.119367" lon="-5.429433">
        <ele>1565.0</ele>
        <time>2013-06-30T14:37:00Z</time>
      </trkpt>
      <trkpt lat="40.119283" lon="-5.429433">
        <ele>1566.0</ele>
        <time>2013-06-30T14:37:01Z</time>
      </trkpt>
      <trkpt lat="40.119200" lon="-5.429417">
        <ele>1567.0</ele>
        <time>2013-06-30T14:37:02Z</time>
      </trkpt>
      <trkpt lat="40.119117" lon="-5.429367">
        <ele>1568.0</ele>
        <time>2013-06-30T14:37:03Z</time>
      </trkpt>
      <trkpt lat="40.119067" lon="-5.429300">
        <ele>1569.0</ele>
        <time>2013-06-30T14:37:04Z</time>
      </trkpt>
      <trkpt lat="40.119033" lon="-5.429217">
        <ele>1570.0</ele>
        <time>2013-06-30T14:37:05Z</time>
      </trkpt>
      <trkpt lat="40.119033" lon="-5.429133">
        <ele>1570.0</ele>
        <time>2013-06-30T14:37:06Z</time>
      </trkpt>
      <trkpt lat="40.119067" lon="-5.429050">
        <ele>1571.0</ele>
        <time>2013-06-30T14:37:07Z</time>
      </trkpt>
      <trkpt lat="40.119100" lon="-5.428967">
        <ele>1573.0</ele>
        <time>2013-06-30T14:37:08Z</time>
      </trkpt>
      <trkpt lat="40.119167" lon="-5.428933">
        <ele>1575.0</ele>
        <time>2013-06-30T14:37:09Z</time>
      </trkpt>
      <trkpt lat="40.119233" lon="-5.428917">
        <ele>1577.0</ele>
        <time>2013-06-30T14:37:10Z</time>
      </trkpt>
      <trkpt lat="40.119317" lon="-5.428917">
        <ele>1578.0</ele>
        <time>2013-06-30T14:37:11Z</time>
      </trkpt>
      <trkpt lat="40.119400" lon="-5.428933">
        <ele>1578.0</ele>
        <time>2013-06-30T14:37:12Z</time>
      </trkpt>
      <trkpt lat="40.119467" lon="-5.428967">
        <ele>1579.0</ele>
        <time>2013-06-30T14:37:13Z</time>
      </trkpt>
      <trkpt lat="40.119550" lon="-5.429017">
        <ele>1580.0</ele>
        <time>2013-06-30T14:37:14Z</time>
      </trkpt>
      <trkpt lat="40.119633" lon="-5.429050">
        <ele>1581.0</ele>
        <time>2013-06-30T14:37:15Z</time>
      </trkpt>
      <trkpt lat="40.119700" lon="-5.429100">
        <ele>1582.0</ele>
        <time>2013-06-30T14:37:16Z</time>
      </trkpt>
      <trkpt lat="40.119767" lon="-5.429150">
        <ele>1583.0</ele>
        <time>2013-06-30T14:37:17Z</time>
      </trkpt>
      <trkpt lat="40.119817" lon="-5.429200">
        <ele>1585.0</ele>
        <time>2013-06-30T14:37:18Z</time>
      </trkpt>
      <trkpt lat="40.119883" lon="-5.429267">
        <ele>1587.0</ele>
        <time>2013-06-30T14:37:19Z</time>
      </trkpt>
      <trkpt lat="40.119933" lon="-5.429333">
        <ele>1590.0</ele>
        <time>2013-06-30T14:37:20Z</time>
      </trkpt>
      <trkpt lat="40.119967" lon="-5.429417">
        <ele>1592.0</ele>
        <time>2013-06-30T14:37:21Z</time>
      </trkpt>
      <trkpt lat="40.120000" lon="-5.429517">
        <ele>1593.0</ele>
        <time>2013-06-30T14:37:22Z</time>
      </trkpt>
      <trkpt lat="40.120000" lon="-5.429633">
        <ele>1594.0</ele>
        <time>2013-06-30T14:37:23Z</time>
      </trkpt>
      <trkpt lat="40.120017" lon="-5.429767">
        <ele>1595.0</ele>
        <time>2013-06-30T14:37:24Z</time>
      </trkpt>
      <trkpt lat="40.120000" lon="-5.429883">
        <ele>1599.0</ele>
        <time>2013-06-30T14:37:25Z</time>
      </trkpt>
      <trkpt lat="40.119967" lon="-5.429983">
        <ele>1602.0</ele>
        <time>2013-06-30T14:37:26Z</time>
      </trkpt>
      <trkpt lat="40.119917" lon="-5.430083">
        <ele>1604.0</ele>
        <time>2013-06-30T14:37:27Z</time>
      </trkpt>
      <trkpt lat="40.119867" lon="-5.430150">
        <ele>1607.0</ele>
        <time>2013-06-30T14:37:28Z</time>
      </trkpt>
      <trkpt lat="40.119800" lon="-5.430233">
        <ele>1610.0</ele>
        <time>2013-06-30T14:37:29Z</time>
      </trkpt>
      <trkpt lat="40.119717" lon="-5.430283">
        <ele>1612.0</ele>
        <time>2013-06-30T14:37:30Z</time>
      </trkpt>
      <trkpt lat="40.119633" lon="-5.430317">
        <ele>1613.0</ele>
        <time>2013-06-30T14:37:31Z</time>
      </trkpt>
      <trkpt lat="40.119550" lon="-5.430317">
        <ele>1614.0</ele>
        <time>2013-06-30T14:37:32Z</time>
      </trkpt>
      <trkpt lat="40.119483" lon="-5.430283">
        <ele>1616.0</ele>
        <time>2013-06-30T14:37:33Z</time>
      </trkpt>
      <trkpt lat="40.119433" lon="-5.430200">
        <ele>1617.0</ele>
        <time>2013-06-30T14:37:34Z</time>
      </trkpt>
      <trkpt lat="40.119417" lon="-5.430117">
        <ele>1619.0</ele>
        <time>2013-06-30T14:37:35Z</time>
      </trkpt>
      <trkpt lat="40.119450" lon="-5.430050">
        <ele>1621.0</ele>
        <time>2013-06-30T14:37:36Z</time>
      </trkpt>
      <trkpt lat="40.119483" lon="-5.429967">
        <ele>1623.0</ele>
        <time>2013-06-30T14:37:37Z</time>
      </trkpt>
      <trkpt lat="40.119517" lon="-5.429900">
        <ele>1626.0</ele>
        <time>2013-06-30T14:37:38Z</time>
      </trkpt>
      <trkpt lat="40.119517" lon="-5.429833">
        <ele>1627.0</ele>
        <time>2013-06-30T14:37:39Z</time>
      </trkpt>
      <trkpt lat="40.119550" lon="-5.429767">
        <ele>1628.0</ele>
        <time>2013-06-30T14:37:40Z</time>
      </trkpt>
      <trkpt lat="40.119583" lon="-5.429700">
        <ele>1628.0</ele>
        <time>2013-06-30T14:37:41Z</time>
      </trkpt>
      <trkpt lat="40.119650" lon="-5.429650">
        <ele>1628.0</ele>
        <time>2013-06-30T14:37:42Z</time>
      </trkpt>
      <trkpt lat="40.119733" lon="-5.429633">
        <ele>1629.0</ele>
        <time>2013-06-30T14:37:43Z</time>
      </trkpt>
      <trkpt lat="40.119817" lon="-5.429650">
        <ele>1629.0</ele>
        <time>2013-06-30T14:37:44Z</time>
      </trkpt>
      <trkpt lat="40.119883" lon="-5.429717">
        <ele>1629.0</ele>
        <time>2013-06-30T14:37:45Z</time>
      </trkpt>
      <trkpt lat="40.119933" lon="-5.429817">
        <ele>1630.0</ele>
        <time>2013-06-30T14:37:46Z</time>
      </trkpt>
      <trkpt lat="40.119967" lon="-5.429900">
        <ele>1634.0</ele>
        <time>2013-06-30T14:37:47Z</time>
      </trkpt>
      <trkpt lat="40.119983" lon="-5.429983">
        <ele>1637.0</ele>
        <time>2013-06-30T14:37:48Z</time>
      </trkpt>
      <trkpt lat="40.119983" lon="-5.430067">
        <ele>1640.0</ele>
        <time>2013-06-30T14:37:49Z</time>
      </trkpt>
      <trkpt lat="40.119967" lon="-5.430167">
        <ele>1642.0</ele>
        <time>2013-06-30T14:37:50Z</time>
      </trkpt>
      <trkpt lat="40.119967" lon="-5.430300">
        <ele>1644.0</ele>
        <time>2013-06-30T14:37:51Z</time>
      </trkpt>
      <trkpt lat="40.119933" lon="-5.430433">
        <ele>1646.0</ele>
        <time>2013-06-30T14:37:52Z</time>
      </trkpt>
      <trkpt lat="40.119883" lon="-5.430550">
        <ele>1649.0</ele>
        <time>2013-06-30T14:37:53Z</time>
      </trkpt>
      <trkpt lat="40.119783" lon="-5.430617">
        <ele>1652.0</ele>
        <time>2013-06-30T14:37:54Z</time>
      </trkpt>
      <trkpt lat="40.119683" lon="-5.430633">
        <ele>1654.0</ele>
        <time>2013-06-30T14:37:55Z</time>
      </trkpt>
      <trkpt lat="40.119583" lon="-5.430583">
        <ele>1657.0</ele>
        <time>2013-06-30T14:37:56Z</time>
      </trkpt>
      <trkpt lat="40.119533" lon="-5.430517">
        <ele>1660.0</ele>
        <time>2013-06-30T14:37:57Z</time>
      </trkpt>
      <trkpt lat="40.119517" lon="-5.430417">
        <ele>1663.0</ele>
        <time>2013-06-30T14:37:58Z</time>
      </trkpt>
      <trkpt lat="40.119517" lon="-5.430333">
        <ele>1665.0</ele>
        <time>2013-06-30T14:37:59Z</time>
      </trkpt>
      <trkpt lat="40.119567" lon="-5.430267">
        <ele>1668.0</ele>
        <time>2013-06-30T14:38:00Z</time>
      </trkpt>
      <trkpt lat="40.119617" lon="-5.430200">
        <ele>1671.0</ele>
        <time>2013-06-30T14:38:01Z</time>
      </trkpt>
      <trkpt lat="40.119683" lon="-5.430150">
        <ele>1673.0</ele>
        <time>2013-06-30T14:38:02Z</time>
      </trkpt>
      <trkpt lat="40.119767" lon="-5.430133">
        <ele>1675.0</ele>
        <time>2013-06-30T14:38:03Z</time>
      </trkpt>
      <trkpt lat="40.119850" lon="-5.430150">
        <ele>1678.0</ele>
        <time>2013-06-30T14:38:04Z</time>
      </trkpt>
      <trkpt lat="40.119933" lon="-5.430183">
        <ele>1680.0</ele>
        <time>2013-06-30T14:38:05Z</time>
      </trkpt>
      <trkpt lat="40.120000" lon="-5.430217">
        <ele>1684.0</ele>
        <time>2013-06-30T14:38:06Z</time>
      </trkpt>
      <trkpt lat="40.120067" lon="-5.430267">
        <ele>1687.0</ele>
        <time>2013-06-30T14:38:07Z</time>
      </trkpt>
      <trkpt lat="40.120117" lon="-5.430333">
        <ele>1690.0</ele>
        <time>2013-06-30T14:38:08Z</time>
      </trkpt>
      <trkpt lat="40.120167" lon="-5.430400">
        <ele>1693.0</ele>
        <time>2013-06-30T14:38:09Z</time>
      </trkpt>
      <trkpt lat="40.120233" lon="-5.430450">
        <ele>1696.0</ele>
        <time>2013-06-30T14:38:10Z</time>
      </trkpt>
      <trkpt lat="40.120283" lon="-5.430517">
        <ele>1700.0</ele>
        <time>2013-06-30T14:38:11Z</time>
      </trkpt>
      <trkpt lat="40.120333" lon="-5.430567">
        <ele>1703.0</ele>
        <time>2013-06-30T14:38:12Z</time>
      </trkpt>
      <trkpt lat="40.120367" lon="-5.430650">
        <ele>1706.0</ele>
        <time>2013-06-30T14:38:13Z</time>
      </trkpt>
      <trkpt lat="40.120383" lon="-5.430767">
        <ele>1709.0</ele>
        <time>2013-06-30T14:38:14Z</time>
      </trkpt>
      <trkpt lat="40.120383" lon="-5.430883">
        <ele>1713.0</ele>
        <time>2013-06-30T14:38:15Z</time>
      </trkpt>
      <trkpt lat="40.120350" lon="-5.430983">
        <ele>1717.0</ele>
        <time>2013-06-30T14:38:16Z</time>
      </trkpt>
      <trkpt lat="40.120317" lon="-5.431083">
        <ele>1721.0</ele>
        <time>2013-06-30T14:38:17Z</time>
      </trkpt>
      <trkpt lat="40.120267" lon="-5.431150">
        <ele>1724.0</ele>
        <time>2013-06-30T14:38:18Z</time>
      </trkpt>
      <trkpt lat="40.120200" lon="-5.431217">
        <ele>1727.0</ele>
        <time>2013-06-30T14:38:19Z</time>
      </trkpt>
      <trkpt lat="40.120133" lon="-5.431250">
        <ele>1730.0</ele>
        <time>2013-06-30T14:38:20Z</time>
      </trkpt>
      <trkpt lat="40.120067" lon="-5.431267">
        <ele>1732.0</ele>
        <time>2013-06-30T14:38:21Z</time>
      </trkpt>
      <trkpt lat="40.119983" lon="-5.431250">
        <ele>1733.0</ele>
        <time>2013-06-30T14:38:22Z</time>
      </trkpt>
      <trkpt lat="40.119917" lon="-5.431183">
        <ele>1735.0</ele>
        <time>2013-06-30T14:38:23Z</time>
      </trkpt>
      <trkpt lat="40.119867" lon="-5.431100">
        <ele>1736.0</ele>
        <time>2013-06-30T14:38:24Z</time>
      </trkpt>
      <trkpt lat="40.119817" lon="-5.431000">
        <ele>1739.0</ele>
        <time>2013-06-30T14:38:25Z</time>
      </trkpt>
      <trkpt lat="40.119800" lon="-5.430917">
        <ele>1742.0</ele>
        <time>2013-06-30T14:38:26Z</time>
      </trkpt>
      <trkpt lat="40.119817" lon="-5.430833">
        <ele>1746.0</ele>
        <time>2013-06-30T14:38:27Z</time>
      </trkpt>
      <trkpt lat="40.119867" lon="-5.430767">
        <ele>1749.0</ele>
        <time>2013-06-30T14:38:28Z</time>
      </trkpt>
      <trkpt lat="40.119917" lon="-5.430733">
        <ele>1752.0</ele>
        <time>2013-06-30T14:38:29Z</time>
      </trkpt>
      <trkpt lat="40.120000" lon="-5.430733">
        <ele>1754.0</ele>
        <time>2013-06-30T14:38:30Z</time>
      </trkpt>
      <trkpt lat="40.120067" lon="-5.430750">
        <ele>1757.0</ele>
        <time>2013-06-30T14:38:31Z</time>
      </trkpt>
      <trkpt lat="40.120133" lon="-5.430817">
        <ele>1761.0</ele>
        <time>2013-06-30T14:38:32Z</time>
      </trkpt>
      <trkpt lat="40.120183" lon="-5.430883">
        <ele>1765.0</ele>
        <time>2013-06-30T14:38:33Z</time>
      </trkpt>
      <trkpt lat="40.120200" lon="-5.430967">
        <ele>1768.0</ele>
        <time>2013-06-30T14:38:34Z</time>
      </trkpt>
      <trkpt lat="40.120217" lon="-5.431067">
        <ele>1771.0</ele>
        <time>2013-06-30T14:38:35Z</time>
      </trkpt>
      <trkpt lat="40.120200" lon="-5.431183">
        <ele>1774.0</ele>
        <time>2013-06-30T14:38:36Z</time>
      </trkpt>
      <trkpt lat="40.120167" lon="-5.431283">
        <ele>1777.0</ele>
        <time>2013-06-30T14:38:37Z</time>
      </trkpt>
      <trkpt lat="40.120117" lon="-5.431367">
        <ele>1779.0</ele>
        <time>2013-06-30T14:38:38Z</time>
      </trkpt>
      <trkpt lat="40.120050" lon="-5.431433">
        <ele>1781.0</ele>
        <time>2013-06-30T14:38:39Z</time>
      </trkpt>
      <trkpt lat="40.119983" lon="-5.431450">
        <ele>1783.0</ele>
        <time>2013-06-30T14:38:40Z</time>
      </trkpt>
      <trkpt lat="40.119900" lon="-5.431467">
        <ele>1784.0</ele>
        <time>2013-06-30T14:38:41Z</time>
      </trkpt>
      <trkpt lat="40.119817" lon="-5.431450">
        <ele>1786.0</ele>
        <time>2013-06-30T14:38:42Z</time>
      </trkpt>
      <trkpt lat="40.119750" lon="-5.431433">
        <ele>1788.0</ele>
        <time>2013-06-30T14:38:43Z</time>
      </trkpt>
      <trkpt lat="40.119700" lon="-5.431367">
        <ele>1790.0</ele>
        <time>2013-06-30T14:38:44Z</time>
      </trkpt>
      <trkpt lat="40.119650" lon="-5.431283">
        <ele>1792.0</ele>
        <time>2013-06-30T14:38:45Z</time>
      </trkpt>
      <trkpt lat="40.119633" lon="-5.431183">
        <ele>1794.0</ele>
        <time>2013-06-30T14:38:46Z</time>
      </trkpt>
      <trkpt lat="40.119633" lon="-5.431067">
        <ele>1797.0</ele>
        <time>2013-06-30T14:38:47Z</time>
      </trkpt>
      <trkpt lat="40.119633" lon="-5.430983">
        <ele>1800.0</ele>
        <time>2013-06-30T14:38:48Z</time>
      </trkpt>
      <trkpt lat="40.119650" lon="-5.430900">
        <ele>1803.0</ele>
        <time>2013-06-30T14:38:49Z</time>
      </trkpt>
      <trkpt lat="40.119683" lon="-5.430817">
        <ele>1806.0</ele>
        <time>2013-06-30T14:38:50Z</time>
      </trkpt>
      <trkpt lat="40.119700" lon="-5.430750">
        <ele>1808.0</ele>
        <time>2013-06-30T14:38:51Z</time>
      </trkpt>
      <trkpt lat="40.119750" lon="-5.430700">
        <ele>1809.0</ele>
        <time>2013-06-30T14:38:52Z</time>
      </trkpt>
      <trkpt lat="40.119800" lon="-5.430650">
        <ele>1810.0</ele>
        <time>2013-06-30T14:38:53Z</time>
      </trkpt>
      <trkpt lat="40.119867" lon="-5.430633">
        <ele>1810.0</ele>
        <time>2013-06-30T14:38:54Z</time>
      </trkpt>
      <trkpt lat="40.119967" lon="-5.430650">
        <ele>1811.0</ele>
        <time>2013-06-30T14:38:55Z</time>
      </trkpt>
      <trkpt lat="40.120033" lon="-5.430683">
        <ele>1813.0</ele>
        <time>2013-06-30T14:38:56Z</time>
      </trkpt>
      <trkpt lat="40.120083" lon="-5.430750">
        <ele>1816.0</ele>
        <time>2013-06-30T14:38:57Z</time>
      </trkpt>
      <trkpt lat="40.120117" lon="-5.430833">
        <ele>1818.0</ele>
        <time>2013-06-30T14:38:58Z</time>
      </trkpt>
      <trkpt lat="40.120133" lon="-5.430917">
        <ele>1821.0</ele>
        <time>2013-06-30T14:38:59Z</time>
      </trkpt>
      <trkpt lat="40.120167" lon="-5.430983">
        <ele>1823.0</ele>
        <time>2013-06-30T14:39:00Z</time>
      </trkpt>
      <trkpt lat="40.120183" lon="-5.431067">
        <ele>1825.0</ele>
        <time>2013-06-30T14:39:01Z</time>
      </trkpt>
      <trkpt lat="40.120200" lon="-5.431150">
        <ele>1827.0</ele>
        <time>2013-06-30T14:39:02Z</time>
      </trkpt>
      <trkpt lat="40.120200" lon="-5.431250">
        <ele>1829.0</ele>
        <time>2013-06-30T14:39:03Z</time>
      </trkpt>
      <trkpt lat="40.120167" lon="-5.431350">
        <ele>1832.0</ele>
        <time>2013-06-30T14:39:04Z</time>
      </trkpt>
      <trkpt lat="40.120117" lon="-5.431433">
        <ele>1834.0</ele>
        <time>2013-06-30T14:39:05Z</time>
      </trkpt>
      <trkpt lat="40.120050" lon="-5.431483">
        <ele>1836.0</ele>
        <time>2013-06-30T14:39:06Z</time>
      </trkpt>
      <trkpt lat="40.119950" lon="-5.431500">
        <ele>1838.0</ele>
        <time>2013-06-30T14:39:07Z</time>
      </trkpt>
      <trkpt lat="40.119867" lon="-5.431500">
        <ele>1841.0</ele>
        <time>2013-06-30T14:39:08Z</time>
      </trkpt>
      <trkpt lat="40.119783" lon="-5.431450">
        <ele>1844.0</ele>
        <time>2013-06-30T14:39:09Z</time>
      </trkpt>
      <trkpt lat="40.119717" lon="-5.431400">
        <ele>1846.0</ele>
        <time>2013-06-30T14:39:10Z</time>
      </trkpt>
      <trkpt lat="40.119650" lon="-5.431333">
        <ele>1848.0</ele>
        <time>2013-06-30T14:39:11Z</time>
      </trkpt>
      <trkpt lat="40.119583" lon="-5.431250">
        <ele>1852.0</ele>
        <time>2013-06-30T14:39:12Z</time>
      </trkpt>
      <trkpt lat="40.119550" lon="-5.431150">
        <ele>1855.0</ele>
        <time>2013-06-30T14:39:13Z</time>
      </trkpt>
      <trkpt lat="40.119550" lon="-5.431067">
        <ele>1858.0</ele>
        <time>2013-06-30T14:39:14Z</time>
      </trkpt>
      <trkpt lat="40.119583" lon="-5.430983">
        <ele>1860.0</ele>
        <time>2013-06-30T14:39:15Z</time>
      </trkpt>
      <trkpt lat="40.119617" lon="-5.430917">
        <ele>1862.0</ele>
        <time>2013-06-30T14:39:16Z</time>
      </trkpt>
      <trkpt lat="40.119667" lon="-5.430867">
        <ele>1864.0</ele>
        <time>2013-06-30T14:39:17Z</time>
      </trkpt>
      <trkpt lat="40.119717" lon="-5.430817">
        <ele>1865.0</ele>
        <time>2013-06-30T14:39:18Z</time>
      </trkpt>
      <trkpt lat="40.119767" lon="-5.430767">
        <ele>1865.0</ele>
        <time>2013-06-30T14:39:19Z</time>
      </trkpt>
      <trkpt lat="40.119833" lon="-5.430733">
        <ele>1866.0</ele>
        <time>2013-06-30T14:39:20Z</time>
      </trkpt>
      <trkpt lat="40.119917" lon="-5.430717">
        <ele>1866.0</ele>
        <time>2013-06-30T14:39:21Z</time>
      </trkpt>
      <trkpt lat="40.120000" lon="-5.430717">
        <ele>1867.0</ele>
        <time>2013-06-30T14:39:22Z</time>
      </trkpt>
      <trkpt lat="40.120067" lon="-5.430767">
        <ele>1870.0</ele>
        <time>2013-06-30T14:39:23Z</time>
      </trkpt>
      <trkpt lat="40.120100" lon="-5.430833">
        <ele>1872.0</ele>
        <time>2013-06-30T14:39:24Z</time>
      </trkpt>
      <trkpt lat="40.120133" lon="-5.430900">
        <ele>1873.0</ele>
        <time>2013-06-30T14:39:25Z</time>
      </trkpt>
      <trkpt lat="40.120133" lon="-5.430983">
        <ele>1874.0</ele>
        <time>2013-06-30T14:39:26Z</time>
      </trkpt>
      <trkpt lat="40.120100" lon="-5.431067">
        <ele>1875.0</ele>
        <time>2013-06-30T14:39:27Z</time>
      </trkpt>
      <trkpt lat="40.120067" lon="-5.431167">
        <ele>1875.0</ele>
        <time>2013-06-30T14:39:28Z</time>
      </trkpt>
      <trkpt lat="40.120017" lon="-5.431267">
        <ele>1875.0</ele>
        <time>2013-06-30T14:39:29Z</time>
      </trkpt>
      <trkpt lat="40.119967" lon="-5.431350">
        <ele>1878.0</ele>
        <time>2013-06-30T14:39:30Z</time>
      </trkpt>
      <trkpt lat="40.119900" lon="-5.431417">
        <ele>1881.0</ele>
        <time>2013-06-30T14:39:31Z</time>
      </trkpt>
      <trkpt lat="40.119850" lon="-5.431450">
        <ele>1884.0</ele>
        <time>2013-06-30T14:39:32Z</time>
      </trkpt>
      <trkpt lat="40.119783" lon="-5.431467">
        <ele>1886.0</ele>
        <time>2013-06-30T14:39:33Z</time>
      </trkpt>
      <trkpt lat="40.119717" lon="-5.431483">
        <ele>1886.0</ele>
        <time>2013-06-30T14:39:34Z</time>
      </trkpt>
      <trkpt lat="40.119617" lon="-5.431467">
        <ele>1887.0</ele>
        <time>2013-06-30T14:39:35Z</time>
      </trkpt>
      <trkpt lat="40.119533" lon="-5.431467">
        <ele>1890.0</ele>
        <time>2013-06-30T14:39:36Z</time>
      </trkpt>
      <trkpt lat="40.119467" lon="-5.431417">
        <ele>1894.0</ele>
        <time>2013-06-30T14:39:37Z</time>
      </trkpt>
      <trkpt lat="40.119417" lon="-5.431333">
        <ele>1896.0</ele>
        <time>2013-06-30T14:39:38Z</time>
      </trkpt>
      <trkpt lat="40.119400" lon="-5.431233">
        <ele>1897.0</ele>
        <time>2013-06-30T14:39:39Z</time>
      </trkpt>
      <trkpt lat="40.119400" lon="-5.431100">
        <ele>1899.0</ele>
        <time>2013-06-30T14:39:40Z</time>
      </trkpt>
      <trkpt lat="40.119417" lon="-5.430983">
        <ele>1901.0</ele>
        <time>2013-06-30T14:39:41Z</time>
      </trkpt>
      <trkpt lat="40.119433" lon="-5.430883">
        <ele>1904.0</ele>
        <time>2013-06-30T14:39:42Z</time>
      </trkpt>
      <trkpt lat="40.119467" lon="-5.430800">
        <ele>1906.0</ele>
        <time>2013-06-30T14:39:43Z</time>
      </trkpt>
      <trkpt lat="40.119517" lon="-5.430733">
        <ele>1907.0</ele>
        <time>2013-06-30T14:39:44Z</time>
      </trkpt>
      <trkpt lat="40.119583" lon="-5.430700">
        <ele>1908.0</ele>
        <time>2013-06-30T14:39:45Z</time>
      </trkpt>
      <trkpt lat="40.119650" lon="-5.430683">
        <ele>1909.0</ele>
        <time>2013-06-30T14:39:46Z</time>
      </trkpt>
      <trkpt lat="40.119717" lon="-5.430683">
        <ele>1910.0</ele>
        <time>2013-06-30T14:39:47Z</time>
      </trkpt>
      <trkpt lat="40.119767" lon="-5.430717">
        <ele>1911.0</ele>
        <time>2013-06-30T14:39:48Z</time>
      </trkpt>
      <trkpt lat="40.119800" lon="-5.430767">
        <ele>1912.0</ele>
        <time>2013-06-30T14:39:49Z</time>
      </trkpt>
      <trkpt lat="40.119850" lon="-5.430850">
        <ele>1912.0</ele>
        <time>2013-06-30T14:39:50Z</time>
      </trkpt>
      <trkpt lat="40.119867" lon="-5.430950">
        <ele>1912.0</ele>
        <time>2013-06-30T14:39:51Z</time>
      </trkpt>
      <trkpt lat="40.119867" lon="-5.431050">
        <ele>1912.0</ele>
        <time>2013-06-30T14:39:52Z</time>
      </trkpt>
      <trkpt lat="40.119833" lon="-5.431150">
        <ele>1913.0</ele>
        <time>2013-06-30T14:39:53Z</time>
      </trkpt>
      <trkpt lat="40.119800" lon="-5.431250">
        <ele>1914.0</ele>
        <time>2013-06-30T14:39:54Z</time>
      </trkpt>
      <trkpt lat="40.119733" lon="-5.431333">
        <ele>1915.0</ele>
        <time>2013-06-30T14:39:55Z</time>
      </trkpt>
      <trkpt lat="40.119683" lon="-5.431417">
        <ele>1916.0</ele>
        <time>2013-06-30T14:39:56Z</time>
      </trkpt>
      <trkpt lat="40.119617" lon="-5.431500">
        <ele>1918.0</ele>
        <time>2013-06-30T14:39:57Z</time>
      </trkpt>
      <trkpt lat="40.119533" lon="-5.431583">
        <ele>1919.0</ele>
        <time>2013-06-30T14:39:58Z</time>
      </trkpt>
      <trkpt lat="40.119467" lon="-5.431667">
        <ele>1921.0</ele>
        <time>2013-06-30T14:39:59Z</time>
      </trkpt>
      <trkpt lat="40.119400" lon="-5.431750">
        <ele>1924.0</ele>
        <time>2013-06-30T14:40:00Z</time>
      </trkpt>
      <trkpt lat="40.119333" lon="-5.431833">
        <ele>1926.0</ele>
        <time>2013-06-30T14:40:01Z</time>
      </trkpt>
      <trkpt lat="40.119267" lon="-5.431917">
        <ele>1929.0</ele>
        <time>2013-06-30T14:40:02Z</time>
      </trkpt>
      <trkpt lat="40.119200" lon="-5.431983">
        <ele>1932.0</ele>
        <time>2013-06-30T14:40:03Z</time>
      </trkpt>
      <trkpt lat="40.119133" lon="-5.432033">
        <ele>1935.0</ele>
        <time>2013-06-30T14:40:04Z</time>
      </trkpt>
      <trkpt lat="40.119033" lon="-5.432083">
        <ele>1939.0</ele>
        <time>2013-06-30T14:40:05Z</time>
      </trkpt>
      <trkpt lat="40.118950" lon="-5.432100">
        <ele>1944.0</ele>
        <time>2013-06-30T14:40:06Z</time>
      </trkpt>
      <trkpt lat="40.118883" lon="-5.432100">
        <ele>1948.0</ele>
        <time>2013-06-30T14:40:07Z</time>
      </trkpt>
      <trkpt lat="40.118817" lon="-5.432083">
        <ele>1952.0</ele>
        <time>2013-06-30T14:40:08Z</time>
      </trkpt>
      <trkpt lat="40.118750" lon="-5.432050">
        <ele>1956.0</ele>
        <time>2013-06-30T14:40:09Z</time>
      </trkpt>
      <trkpt lat="40.118700" lon="-5.432033">
        <ele>1961.0</ele>
        <time>2013-06-30T14:40:10Z</time>
      </trkpt>
      <trkpt lat="40.118650" lon="-5.432000">
        <ele>1965.0</ele>
        <time>2013-06-30T14:40:11Z</time>
      </trkpt>
      <trkpt lat="40.118617" lon="-5.431983">
        <ele>1968.0</ele>
        <time>2013-06-30T14:40:12Z</time>
      </trkpt>
      <trkpt lat="40.118567" lon="-5.431933">
        <ele>1970.0</ele>
        <time>2013-06-30T14:40:13Z</time>
      </trkpt>
      <trkpt lat="40.118517" lon="-5.431867">
        <ele>1970.0</ele>
        <time>2013-06-30T14:40:14Z</time>
      </trkpt>
      <trkpt lat="40.118500" lon="-5.431783">
        <ele>1972.0</ele>
        <time>2013-06-30T14:40:15Z</time>
      </trkpt>
      <trkpt lat="40.118500" lon="-5.431700">
        <ele>1974.0</ele>
        <time>2013-06-30T14:40:16Z</time>
      </trkpt>
      <trkpt lat="40.118517" lon="-5.431633">
        <ele>1974.0</ele>
        <time>2013-06-30T14:40:17Z</time>
      </trkpt>
      <trkpt lat="40.118567" lon="-5.431567">
        <ele>1975.0</ele>
        <time>2013-06-30T14:40:18Z</time>
      </trkpt>
      <trkpt lat="40.118633" lon="-5.431533">
        <ele>1977.0</ele>
        <time>2013-06-30T14:40:19Z</time>
      </trkpt>
      <trkpt lat="40.118717" lon="-5.431517">
        <ele>1979.0</ele>
        <time>2013-06-30T14:40:20Z</time>
      </trkpt>
      <trkpt lat="40.118783" lon="-5.431533">
        <ele>1982.0</ele>
        <time>2013-06-30T14:40:21Z</time>
      </trkpt>
      <trkpt lat="40.118850" lon="-5.431600">
        <ele>1987.0</ele>
        <time>2013-06-30T14:40:22Z</time>
      </trkpt>
      <trkpt lat="40.118900" lon="-5.431700">
        <ele>1990.0</ele>
        <time>2013-06-30T14:40:23Z</time>
      </trkpt>
      <trkpt lat="40.118917" lon="-5.431817">
        <ele>1994.0</ele>
        <time>2013-06-30T14:40:24Z</time>
      </trkpt>
      <trkpt lat="40.118900" lon="-5.431933">
        <ele>1998.0</ele>
        <time>2013-06-30T14:40:25Z</time>
      </trkpt>
      <trkpt lat="40.118883" lon="-5.432050">
        <ele>2002.0</ele>
        <time>2013-06-30T14:40:26Z</time>
      </trkpt>
      <trkpt lat="40.118867" lon="-5.432150">
        <ele>2006.0</ele>
        <time>2013-06-30T14:40:27Z</time>
      </trkpt>
      <trkpt lat="40.118833" lon="-5.432250">
        <ele>2011.0</ele>
        <time>2013-06-30T14:40:28Z</time>
      </trkpt>
      <trkpt lat="40.118783" lon="-5.432333">
        <ele>2015.0</ele>
        <time>2013-06-30T14:40:29Z</time>
      </trkpt>
      <trkpt lat="40.118700" lon="-5.432400">
        <ele>2018.0</ele>
        <time>2013-06-30T14:40:30Z</time>
      </trkpt>
      <trkpt lat="40.118600" lon="-5.432450">
        <ele>2020.0</ele>
        <time>2013-06-30T14:40:31Z</time>
      </trkpt>
      <trkpt lat="40.118500" lon="-5.432467">
        <ele>2024.0</ele>
        <time>2013-06-30T14:40:32Z</time>
      </trkpt>
      <trkpt lat="40.118417" lon="-5.432417">
        <ele>2028.0</ele>
        <time>2013-06-30T14:40:33Z</time>
      </trkpt>
      <trkpt lat="40.118367" lon="-5.432350">
        <ele>2031.0</ele>
        <time>2013-06-30T14:40:34Z</time>
      </trkpt>
      <trkpt lat="40.118333" lon="-5.432250">
        <ele>2033.0</ele>
        <time>2013-06-30T14:40:35Z</time>
      </trkpt>
      <trkpt lat="40.118350" lon="-5.432133">
        <ele>2036.0</ele>
        <time>2013-06-30T14:40:36Z</time>
      </trkpt>
      <trkpt lat="40.118383" lon="-5.432050">
        <ele>2039.0</ele>
        <time>2013-06-30T14:40:37Z</time>
      </trkpt>
      <trkpt lat="40.118433" lon="-5.432000">
        <ele>2043.0</ele>
        <time>2013-06-30T14:40:38Z</time>
      </trkpt>
      <trkpt lat="40.118483" lon="-5.432000">
        <ele>2047.0</ele>
        <time>2013-06-30T14:40:39Z</time>
      </trkpt>
      <trkpt lat="40.118550" lon="-5.432017">
        <ele>2051.0</ele>
        <time>2013-06-30T14:40:40Z</time>
      </trkpt>
      <trkpt lat="40.118600" lon="-5.432067">
        <ele>2055.0</ele>
        <time>2013-06-30T14:40:41Z</time>
      </trkpt>
      <trkpt lat="40.118667" lon="-5.432117">
        <ele>2059.0</ele>
        <time>2013-06-30T14:40:42Z</time>
      </trkpt>
      <trkpt lat="40.118700" lon="-5.432183">
        <ele>2062.0</ele>
        <time>2013-06-30T14:40:43Z</time>
      </trkpt>
      <trkpt lat="40.118733" lon="-5.432283">
        <ele>2066.0</ele>
        <time>2013-06-30T14:40:44Z</time>
      </trkpt>
      <trkpt lat="40.118733" lon="-5.432400">
        <ele>2069.0</ele>
        <time>2013-06-30T14:40:45Z</time>
      </trkpt>
      <trkpt lat="40.118717" lon="-5.432517">
        <ele>2072.0</ele>
        <time>2013-06-30T14:40:46Z</time>
      </trkpt>
      <trkpt lat="40.118650" lon="-5.432633">
        <ele>2075.0</ele>
        <time>2013-06-30T14:40:47Z</time>
      </trkpt>
      <trkpt lat="40.118567" lon="-5.432733">
        <ele>2078.0</ele>
        <time>2013-06-30T14:40:48Z</time>
      </trkpt>
      <trkpt lat="40.118483" lon="-5.432783">
        <ele>2081.0</ele>
        <time>2013-06-30T14:40:49Z</time>
      </trkpt>
      <trkpt lat="40.118383" lon="-5.432800">
        <ele>2086.0</ele>
        <time>2013-06-30T14:40:50Z</time>
      </trkpt>
      <trkpt lat="40.118283" lon="-5.432800">
        <ele>2089.0</ele>
        <time>2013-06-30T14:40:51Z</time>
      </trkpt>
      <trkpt lat="40.118200" lon="-5.432767">
        <ele>2092.0</ele>
        <time>2013-06-30T14:40:52Z</time>
      </trkpt>
      <trkpt lat="40.118133" lon="-5.432717">
        <ele>2094.0</ele>
        <time>2013-06-30T14:40:53Z</time>
      </trkpt>
      <trkpt lat="40.118050" lon="-5.432633">
        <ele>2096.0</ele>
        <time>2013-06-30T14:40:54Z</time>
      </trkpt>
      <trkpt lat="40.118000" lon="-5.432517">
        <ele>2098.0</ele>
        <time>2013-06-30T14:40:55Z</time>
      </trkpt>
      <trkpt lat="40.117967" lon="-5.432400">
        <ele>2101.0</ele>
        <time>2013-06-30T14:40:56Z</time>
      </trkpt>
      <trkpt lat="40.117967" lon="-5.432300">
        <ele>2104.0</ele>
        <time>2013-06-30T14:40:57Z</time>
      </trkpt>
      <trkpt lat="40.117983" lon="-5.432217">
        <ele>2107.0</ele>
        <time>2013-06-30T14:40:58Z</time>
      </trkpt>
      <trkpt lat="40.118017" lon="-5.432150">
        <ele>2110.0</ele>
        <time>2013-06-30T14:40:59Z</time>
      </trkpt>
      <trkpt lat="40.118067" lon="-5.432117">
        <ele>2113.0</ele>
        <time>2013-06-30T14:41:00Z</time>
      </trkpt>
      <trkpt lat="40.118100" lon="-5.432100">
        <ele>2117.0</ele>
        <time>2013-06-30T14:41:01Z</time>
      </trkpt>
      <trkpt lat="40.118150" lon="-5.432083">
        <ele>2120.0</ele>
        <time>2013-06-30T14:41:02Z</time>
      </trkpt>
      <trkpt lat="40.118200" lon="-5.432083">
        <ele>2124.0</ele>
        <time>2013-06-30T14:41:03Z</time>
      </trkpt>
      <trkpt lat="40.118250" lon="-5.432117">
        <ele>2127.0</ele>
        <time>2013-06-30T14:41:04Z</time>
      </trkpt>
      <trkpt lat="40.118283" lon="-5.432183">
        <ele>2130.0</ele>
        <time>2013-06-30T14:41:05Z</time>
      </trkpt>
      <trkpt lat="40.118317" lon="-5.432283">
        <ele>2133.0</ele>
        <time>2013-06-30T14:41:06Z</time>
      </trkpt>
      <trkpt lat="40.118317" lon="-5.432383">
        <ele>2136.0</ele>
        <time>2013-06-30T14:41:07Z</time>
      </trkpt>
      <trkpt lat="40.118283" lon="-5.432500">
        <ele>2139.0</ele>
        <time>2013-06-30T14:41:08Z</time>
      </trkpt>
      <trkpt lat="40.118233" lon="-5.432617">
        <ele>2142.0</ele>
        <time>2013-06-30T14:41:09Z</time>
      </trkpt>
      <trkpt lat="40.118183" lon="-5.432733">
        <ele>2145.0</ele>
        <time>2013-06-30T14:41:10Z</time>
      </trkpt>
      <trkpt lat="40.118150" lon="-5.432833">
        <ele>2149.0</ele>
        <time>2013-06-30T14:41:11Z</time>
      </trkpt>
      <trkpt lat="40.118100" lon="-5.432917">
        <ele>2152.0</ele>
        <time>2013-06-30T14:41:12Z</time>
      </trkpt>
      <trkpt lat="40.118017" lon="-5.432983">
        <ele>2155.0</ele>
        <time>2013-06-30T14:41:13Z</time>
      </trkpt>
      <trkpt lat="40.117933" lon="-5.433033">
        <ele>2155.0</ele>
        <time>2013-06-30T14:41:14Z</time>
      </trkpt>
      <trkpt lat="40.117833" lon="-5.433050">
        <ele>2157.0</ele>
        <time>2013-06-30T14:41:15Z</time>
      </trkpt>
      <trkpt lat="40.117717" lon="-5.433067">
        <ele>2159.0</ele>
        <time>2013-06-30T14:41:16Z</time>
      </trkpt>
      <trkpt lat="40.117633" lon="-5.433050">
        <ele>2163.0</ele>
        <time>2013-06-30T14:41:17Z</time>
      </trkpt>
      <trkpt lat="40.117550" lon="-5.433000">
        <ele>2165.0</ele>
        <time>2013-06-30T14:41:18Z</time>
      </trkpt>
      <trkpt lat="40.117483" lon="-5.432917">
        <ele>2168.0</ele>
        <time>2013-06-30T14:41:19Z</time>
      </trkpt>
      <trkpt lat="40.117417" lon="-5.432817">
        <ele>2170.0</ele>
        <time>2013-06-30T14:41:20Z</time>
      </trkpt>
      <trkpt lat="40.117367" lon="-5.432700">
        <ele>2172.0</ele>
        <time>2013-06-30T14:41:21Z</time>
      </trkpt>
      <trkpt lat="40.117333" lon="-5.432583">
        <ele>2175.0</ele>
        <time>2013-06-30T14:41:22Z</time>
      </trkpt>
      <trkpt lat="40.117333" lon="-5.432467">
        <ele>2176.0</ele>
        <time>2013-06-30T14:41:23Z</time>
      </trkpt>
      <trkpt lat="40.117350" lon="-5.432383">
        <ele>2178.0</ele>
        <time>2013-06-30T14:41:24Z</time>
      </trkpt>
      <trkpt lat="40.117367" lon="-5.432300">
        <ele>2180.0</ele>
        <time>2013-06-30T14:41:25Z</time>
      </trkpt>
      <trkpt lat="40.117417" lon="-5.432250">
        <ele>2181.0</ele>
        <time>2013-06-30T14:41:26Z</time>
      </trkpt>
      <trkpt lat="40.117450" lon="-5.432217">
        <ele>2182.0</ele>
        <time>2013-06-30T14:41:27Z</time>
      </trkpt>
      <trkpt lat="40.117500" lon="-5.432183">
        <ele>2183.0</ele>
        <time>2013-06-30T14:41:28Z</time>
      </trkpt>
      <trkpt lat="40.117567" lon="-5.432200">
        <ele>2185.0</ele>
        <time>2013-06-30T14:41:29Z</time>
      </trkpt>
      <trkpt lat="40.117600" lon="-5.432233">
        <ele>2187.0</ele>
        <time>2013-06-30T14:41:30Z</time>
      </trkpt>
      <trkpt lat="40.117650" lon="-5.432300">
        <ele>2189.0</ele>
        <time>2013-06-30T14:41:31Z</time>
      </trkpt>
      <trkpt lat="40.117667" lon="-5.432383">
        <ele>2191.0</ele>
        <time>2013-06-30T14:41:32Z</time>
      </trkpt>
      <trkpt lat="40.117667" lon="-5.432467">
        <ele>2194.0</ele>
        <time>2013-06-30T14:41:33Z</time>
      </trkpt>
      <trkpt lat="40.117667" lon="-5.432567">
        <ele>2196.0</ele>
        <time>2013-06-30T14:41:34Z</time>
      </trkpt>
      <trkpt lat="40.117667" lon="-5.432683">
        <ele>2198.0</ele>
        <time>2013-06-30T14:41:35Z</time>
      </trkpt>
      <trkpt lat="40.117650" lon="-5.432783">
        <ele>2200.0</ele>
        <time>2013-06-30T14:41:36Z</time>
      </trkpt>
      <trkpt lat="40.117600" lon="-5.432883">
        <ele>2202.0</ele>
        <time>2013-06-30T14:41:37Z</time>
      </trkpt>
      <trkpt lat="40.117533" lon="-5.432967">
        <ele>2204.0</ele>
        <time>2013-06-30T14:41:38Z</time>
      </trkpt>
      <trkpt lat="40.117450" lon="-5.433033">
        <ele>2206.0</ele>
        <time>2013-06-30T14:41:39Z</time>
      </trkpt>
      <trkpt lat="40.117367" lon="-5.433100">
        <ele>2208.0</ele>
        <time>2013-06-30T14:41:40Z</time>
      </trkpt>
      <trkpt lat="40.117283" lon="-5.433167">
        <ele>2210.0</ele>
        <time>2013-06-30T14:41:41Z</time>
      </trkpt>
      <trkpt lat="40.117200" lon="-5.433233">
        <ele>2212.0</ele>
        <time>2013-06-30T14:41:42Z</time>
      </trkpt>
      <trkpt lat="40.117117" lon="-5.433267">
        <ele>2213.0</ele>
        <time>2013-06-30T14:41:43Z</time>
      </trkpt>
      <trkpt lat="40.117000" lon="-5.433250">
        <ele>2215.0</ele>
        <time>2013-06-30T14:41:44Z</time>
      </trkpt>
      <trkpt lat="40.116900" lon="-5.433200">
        <ele>2216.0</ele>
        <time>2013-06-30T14:41:45Z</time>
      </trkpt>
      <trkpt lat="40.116817" lon="-5.433117">
        <ele>2219.0</ele>
        <time>2013-06-30T14:41:46Z</time>
      </trkpt>
      <trkpt lat="40.116750" lon="-5.433017">
        <ele>2222.0</ele>
        <time>2013-06-30T14:41:47Z</time>
      </trkpt>
      <trkpt lat="40.116683" lon="-5.432933">
        <ele>2224.0</ele>
        <time>2013-06-30T14:41:48Z</time>
      </trkpt>
      <trkpt lat="40.116633" lon="-5.432850">
        <ele>2226.0</ele>
        <time>2013-06-30T14:41:49Z</time>
      </trkpt>
      <trkpt lat="40.116600" lon="-5.432733">
        <ele>2227.0</ele>
        <time>2013-06-30T14:41:50Z</time>
      </trkpt>
      <trkpt lat="40.116583" lon="-5.432617">
        <ele>2228.0</ele>
        <time>2013-06-30T14:41:51Z</time>
      </trkpt>
      <trkpt lat="40.116600" lon="-5.432500">
        <ele>2230.0</ele>
        <time>2013-06-30T14:41:52Z</time>
      </trkpt>
      <trkpt lat="40.116633" lon="-5.432417">
        <ele>2232.0</ele>
        <time>2013-06-30T14:41:53Z</time>
      </trkpt>
      <trkpt lat="40.116683" lon="-5.432350">
        <ele>2235.0</ele>
        <time>2013-06-30T14:41:54Z</time>
      </trkpt>
      <trkpt lat="40.116733" lon="-5.432300">
        <ele>2237.0</ele>
        <time>2013-06-30T14:41:55Z</time>
      </trkpt>
      <trkpt lat="40.116783" lon="-5.432283">
        <ele>2238.0</ele>
        <time>2013-06-30T14:41:56Z</time>
      </trkpt>
      <trkpt lat="40.116850" lon="-5.432267">
        <ele>2240.0</ele>
        <time>2013-06-30T14:41:57Z</time>
      </trkpt>
      <trkpt lat="40.116917" lon="-5.432267">
        <ele>2241.0</ele>
        <time>2013-06-30T14:41:58Z</time>
      </trkpt>
      <trkpt lat="40.116983" lon="-5.432267">
        <ele>2243.0</ele>
        <time>2013-06-30T14:41:59Z</time>
      </trkpt>
      <trkpt lat="40.117033" lon="-5.432283">
        <ele>2246.0</ele>
        <time>2013-06-30T14:42:00Z</time>
      </trkpt>
      <trkpt lat="40.117083" lon="-5.432333">
        <ele>2248.0</ele>
        <time>2013-06-30T14:42:01Z</time>
      </trkpt>
      <trkpt lat="40.117100" lon="-5.432400">
        <ele>2250.0</ele>
        <time>2013-06-30T14:42:02Z</time>
      </trkpt>
      <trkpt lat="40.117100" lon="-5.432483">
        <ele>2251.0</ele>
        <time>2013-06-30T14:42:03Z</time>
      </trkpt>
      <trkpt lat="40.117117" lon="-5.432583">
        <ele>2252.0</ele>
        <time>2013-06-30T14:42:04Z</time>
      </trkpt>
      <trkpt lat="40.117117" lon="-5.432700">
        <ele>2254.0</ele>
        <time>2013-06-30T14:42:05Z</time>
      </trkpt>
      <trkpt lat="40.117100" lon="-5.432800">
        <ele>2256.0</ele>
        <time>2013-06-30T14:42:06Z</time>
      </trkpt>
      <trkpt lat="40.117067" lon="-5.432900">
        <ele>2259.0</ele>
        <time>2013-06-30T14:42:07Z</time>
      </trkpt>
      <trkpt lat="40.117017" lon="-5.432967">
        <ele>2261.0</ele>
        <time>2013-06-30T14:42:08Z</time>
      </trkpt>
      <trkpt lat="40.116950" lon="-5.433033">
        <ele>2263.0</ele>
        <time>2013-06-30T14:42:09Z</time>
      </trkpt>
      <trkpt lat="40.116883" lon="-5.433117">
        <ele>2265.0</ele>
        <time>2013-06-30T14:42:10Z</time>
      </trkpt>
      <trkpt lat="40.116817" lon="-5.433200">
        <ele>2267.0</ele>
        <time>2013-06-30T14:42:11Z</time>
      </trkpt>
      <trkpt lat="40.116733" lon="-5.433267">
        <ele>2269.0</ele>
        <time>2013-06-30T14:42:12Z</time>
      </trkpt>
      <trkpt lat="40.116650" lon="-5.433283">
        <ele>2270.0</ele>
        <time>2013-06-30T14:42:13Z</time>
      </trkpt>
      <trkpt lat="40.116550" lon="-5.433267">
        <ele>2268.0</ele>
        <time>2013-06-30T14:42:14Z</time>
      </trkpt>
      <trkpt lat="40.116433" lon="-5.433217">
        <ele>2268.0</ele>
        <time>2013-06-30T14:42:15Z</time>
      </trkpt>
      <trkpt lat="40.116317" lon="-5.433150">
        <ele>2270.0</ele>
        <time>2013-06-30T14:42:16Z</time>
      </trkpt>
      <trkpt lat="40.116217" lon="-5.433083">
        <ele>2272.0</ele>
        <time>2013-06-30T14:42:17Z</time>
      </trkpt>
      <trkpt lat="40.116150" lon="-5.433000">
        <ele>2274.0</ele>
        <time>2013-06-30T14:42:18Z</time>
      </trkpt>
      <trkpt lat="40.116067" lon="-5.432917">
        <ele>2277.0</ele>
        <time>2013-06-30T14:42:19Z</time>
      </trkpt>
      <trkpt lat="40.116017" lon="-5.432817">
        <ele>2280.0</ele>
        <time>2013-06-30T14:42:20Z</time>
      </trkpt>
      <trkpt lat="40.115983" lon="-5.432717">
        <ele>2282.0</ele>
        <time>2013-06-30T14:42:21Z</time>
      </trkpt>
      <trkpt lat="40.115967" lon="-5.432617">
        <ele>2284.0</ele>
        <time>2013-06-30T14:42:22Z</time>
      </trkpt>
      <trkpt lat="40.115967" lon="-5.432533">
        <ele>2285.0</ele>
        <time>2013-06-30T14:42:23Z</time>
      </trkpt>
      <trkpt lat="40.115983" lon="-5.432433">
        <ele>2286.0</ele>
        <time>2013-06-30T14:42:24Z</time>
      </trkpt>
      <trkpt lat="40.116000" lon="-5.432333">
        <ele>2286.0</ele>
        <time>2013-06-30T14:42:25Z</time>
      </trkpt>
      <trkpt lat="40.116033" lon="-5.432267">
        <ele>2287.0</ele>
        <time>2013-06-30T14:42:26Z</time>
      </trkpt>
      <trkpt lat="40.116083" lon="-5.432217">
        <ele>2287.0</ele>
        <time>2013-06-30T14:42:27Z</time>
      </trkpt>
      <trkpt lat="40.116150" lon="-5.432200">
        <ele>2288.0</ele>
        <time>2013-06-30T14:42:28Z</time>
      </trkpt>
      <trkpt lat="40.116217" lon="-5.432217">
        <ele>2290.0</ele>
        <time>2013-06-30T14:42:29Z</time>
      </trkpt>
      <trkpt lat="40.116267" lon="-5.432233">
        <ele>2292.0</ele>
        <time>2013-06-30T14:42:30Z</time>
      </trkpt>
      <trkpt lat="40.116317" lon="-5.432283">
        <ele>2294.0</ele>
        <time>2013-06-30T14:42:31Z</time>
      </trkpt>
      <trkpt lat="40.116350" lon="-5.432317">
        <ele>2297.0</ele>
        <time>2013-06-30T14:42:32Z</time>
      </trkpt>
      <trkpt lat="40.116367" lon="-5.432350">
        <ele>2299.0</ele>
        <time>2013-06-30T14:42:33Z</time>
      </trkpt>
      <trkpt lat="40.116417" lon="-5.432383">
        <ele>2300.0</ele>
        <time>2013-06-30T14:42:34Z</time>
      </trkpt>
      <trkpt lat="40.116450" lon="-5.432450">
        <ele>2301.0</ele>
        <time>2013-06-30T14:42:35Z</time>
      </trkpt>
      <trkpt lat="40.116483" lon="-5.432533">
        <ele>2302.0</ele>
        <time>2013-06-30T14:42:36Z</time>
      </trkpt>
      <trkpt lat="40.116483" lon="-5.432617">
        <ele>2303.0</ele>
        <time>2013-06-30T14:42:37Z</time>
      </trkpt>
      <trkpt lat="40.116483" lon="-5.432717">
        <ele>2304.0</ele>
        <time>2013-06-30T14:42:38Z</time>
      </trkpt>
      <trkpt lat="40.116467" lon="-5.432817">
        <ele>2305.0</ele>
        <time>2013-06-30T14:42:39Z</time>
      </trkpt>
      <trkpt lat="40.116433" lon="-5.432900">
        <ele>2306.0</ele>
        <time>2013-06-30T14:42:40Z</time>
      </trkpt>
      <trkpt lat="40.116400" lon="-5.433000">
        <ele>2307.0</ele>
        <time>2013-06-30T14:42:41Z</time>
      </trkpt>
      <trkpt lat="40.116350" lon="-5.433100">
        <ele>2309.0</ele>
        <time>2013-06-30T14:42:42Z</time>
      </trkpt>
      <trkpt lat="40.116317" lon="-5.433200">
        <ele>2310.0</ele>
        <time>2013-06-30T14:42:43Z</time>
      </trkpt>
      <trkpt lat="40.116250" lon="-5.433283">
        <ele>2312.0</ele>
        <time>2013-06-30T14:42:44Z</time>
      </trkpt>
      <trkpt lat="40.116200" lon="-5.433350">
        <ele>2314.0</ele>
        <time>2013-06-30T14:42:45Z</time>
      </trkpt>
      <trkpt lat="40.116133" lon="-5.433417">
        <ele>2316.0</ele>
        <time>2013-06-30T14:42:46Z</time>
      </trkpt>
      <trkpt lat="40.116067" lon="-5.433483">
        <ele>2317.0</ele>
        <time>2013-06-30T14:42:47Z</time>
      </trkpt>
      <trkpt lat="40.116000" lon="-5.433550">
        <ele>2315.0</ele>
        <time>2013-06-30T14:42:48Z</time>
      </trkpt>
      <trkpt lat="40.115950" lon="-5.433617">
        <ele>2317.0</ele>
        <time>2013-06-30T14:42:49Z</time>
      </trkpt>
      <trkpt lat="40.115883" lon="-5.433667">
        <ele>2318.0</ele>
        <time>2013-06-30T14:42:50Z</time>
      </trkpt>
      <trkpt lat="40.115817" lon="-5.433700">
        <ele>2317.0</ele>
        <time>2013-06-30T14:42:51Z</time>
      </trkpt>
      <trkpt lat="40.115733" lon="-5.433717">
        <ele>2318.0</ele>
        <time>2013-06-30T14:42:52Z</time>
      </trkpt>
      <trkpt lat="40.115633" lon="-5.433700">
        <ele>2318.0</ele>
        <time>2013-06-30T14:42:53Z</time>
      </trkpt>
      <trkpt lat="40.115550" lon="-5.433683">
        <ele>2319.0</ele>
        <time>2013-06-30T14:42:54Z</time>
      </trkpt>
      <trkpt lat="40.115450" lon="-5.433650">
        <ele>2320.0</ele>
        <time>2013-06-30T14:42:55Z</time>
      </trkpt>
      <trkpt lat="40.115367" lon="-5.433600">
        <ele>2320.0</ele>
        <time>2013-06-30T14:42:56Z</time>
      </trkpt>
      <trkpt lat="40.115283" lon="-5.433550">
        <ele>2321.0</ele>
        <time>2013-06-30T14:42:57Z</time>
      </trkpt>
      <trkpt lat="40.115217" lon="-5.433483">
        <ele>2321.0</ele>
        <time>2013-06-30T14:42:58Z</time>
      </trkpt>
      <trkpt lat="40.115167" lon="-5.433383">
        <ele>2321.0</ele>
        <time>2013-06-30T14:42:59Z</time>
      </trkpt>
      <trkpt lat="40.115133" lon="-5.433283">
        <ele>2320.0</ele>
        <time>2013-06-30T14:43:00Z</time>
      </trkpt>
      <trkpt lat="40.115100" lon="-5.433183">
        <ele>2320.0</ele>
        <time>2013-06-30T14:43:01Z</time>
      </trkpt>
      <trkpt lat="40.115083" lon="-5.433067">
        <ele>2320.0</ele>
        <time>2013-06-30T14:43:02Z</time>
      </trkpt>
      <trkpt lat="40.115067" lon="-5.432983">
        <ele>2320.0</ele>
        <time>2013-06-30T14:43:03Z</time>
      </trkpt>
      <trkpt lat="40.115083" lon="-5.432900">
        <ele>2320.0</ele>
        <time>2013-06-30T14:43:04Z</time>
      </trkpt>
      <trkpt lat="40.115100" lon="-5.432817">
        <ele>2320.0</ele>
        <time>2013-06-30T14:43:05Z</time>
      </trkpt>
      <trkpt lat="40.115117" lon="-5.432733">
        <ele>2320.0</ele>
        <time>2013-06-30T14:43:06Z</time>
      </trkpt>
      <trkpt lat="40.115167" lon="-5.432650">
        <ele>2320.0</ele>
        <time>2013-06-30T14:43:07Z</time>
      </trkpt>
      <trkpt lat="40.115200" lon="-5.432567">
        <ele>2321.0</ele>
        <time>2013-06-30T14:43:08Z</time>
      </trkpt>
      <trkpt lat="40.115233" lon="-5.432483">
        <ele>2323.0</ele>
        <time>2013-06-30T14:43:09Z</time>
      </trkpt>
      <trkpt lat="40.115267" lon="-5.432417">
        <ele>2324.0</ele>
        <time>2013-06-30T14:43:10Z</time>
      </trkpt>
      <trkpt lat="40.115300" lon="-5.432367">
        <ele>2326.0</ele>
        <time>2013-06-30T14:43:11Z</time>
      </trkpt>
      <trkpt lat="40.115333" lon="-5.432350">
        <ele>2326.0</ele>
        <time>2013-06-30T14:43:12Z</time>
      </trkpt>
      <trkpt lat="40.115383" lon="-5.432333">
        <ele>2327.0</ele>
        <time>2013-06-30T14:43:13Z</time>
      </trkpt>
      <trkpt lat="40.115433" lon="-5.432350">
        <ele>2327.0</ele>
        <time>2013-06-30T14:43:14Z</time>
      </trkpt>
      <trkpt lat="40.115467" lon="-5.432400">
        <ele>2327.0</ele>
        <time>2013-06-30T14:43:15Z</time>
      </trkpt>
      <trkpt lat="40.115483" lon="-5.432450">
        <ele>2328.0</ele>
        <time>2013-06-30T14:43:16Z</time>
      </trkpt>
      <trkpt lat="40.115500" lon="-5.432500">
        <ele>2330.0</ele>
        <time>2013-06-30T14:43:17Z</time>
      </trkpt>
      <trkpt lat="40.115500" lon="-5.432567">
        <ele>2330.0</ele>
        <time>2013-06-30T14:43:18Z</time>
      </trkpt>
      <trkpt lat="40.115483" lon="-5.432633">
        <ele>2331.0</ele>
        <time>2013-06-30T14:43:19Z</time>
      </trkpt>
      <trkpt lat="40.115483" lon="-5.432700">
        <ele>2332.0</ele>
        <time>2013-06-30T14:43:20Z</time>
      </trkpt>
      <trkpt lat="40.115467" lon="-5.432767">
        <ele>2332.0</ele>
        <time>2013-06-30T14:43:21Z</time>
      </trkpt>
      <trkpt lat="40.115433" lon="-5.432850">
        <ele>2332.0</ele>
        <time>2013-06-30T14:43:22Z</time>
      </trkpt>
      <trkpt lat="40.115367" lon="-5.432933">
        <ele>2333.0</ele>
        <time>2013-06-30T14:43:23Z</time>
      </trkpt>
      <trkpt lat="40.115300" lon="-5.433000">
        <ele>2333.0</ele>
        <time>2013-06-30T14:43:24Z</time>
      </trkpt>
      <trkpt lat="40.115217" lon="-5.433033">
        <ele>2334.0</ele>
        <time>2013-06-30T14:43:25Z</time>
      </trkpt>
      <trkpt lat="40.115133" lon="-5.433067">
        <ele>2336.0</ele>
        <time>2013-06-30T14:43:26Z</time>
      </trkpt>
      <trkpt lat="40.115050" lon="-5.433083">
        <ele>2338.0</ele>
        <time>2013-06-30T14:43:27Z</time>
      </trkpt>
      <trkpt lat="40.114967" lon="-5.433100">
        <ele>2339.0</ele>
        <time>2013-06-30T14:43:28Z</time>
      </trkpt>
      <trkpt lat="40.114883" lon="-5.433117">
        <ele>2339.0</ele>
        <time>2013-06-30T14:43:29Z</time>
      </trkpt>
      <trkpt lat="40.114800" lon="-5.433100">
        <ele>2339.0</ele>
        <time>2013-06-30T14:43:30Z</time>
      </trkpt>
      <trkpt lat="40.114700" lon="-5.433083">
        <ele>2338.0</ele>
        <time>2013-06-30T14:43:31Z</time>
      </trkpt>
      <trkpt lat="40.114600" lon="-5.433033">
        <ele>2337.0</ele>
        <time>2013-06-30T14:43:32Z</time>
      </trkpt>
      <trkpt lat="40.114517" lon="-5.432983">
        <ele>2336.0</ele>
        <time>2013-06-30T14:43:33Z</time>
      </trkpt>
      <trkpt lat="40.114433" lon="-5.432967">
        <ele>2335.0</ele>
        <time>2013-06-30T14:43:34Z</time>
      </trkpt>
      <trkpt lat="40.114333" lon="-5.432967">
        <ele>2333.0</ele>
        <time>2013-06-30T14:43:35Z</time>
      </trkpt>
      <trkpt lat="40.114217" lon="-5.433017">
        <ele>2330.0</ele>
        <time>2013-06-30T14:43:36Z</time>
      </trkpt>
      <trkpt lat="40.114117" lon="-5.433117">
        <ele>2328.0</ele>
        <time>2013-06-30T14:43:37Z</time>
      </trkpt>
      <trkpt lat="40.114017" lon="-5.433200">
        <ele>2326.0</ele>
        <time>2013-06-30T14:43:38Z</time>
      </trkpt>
      <trkpt lat="40.113933" lon="-5.433283">
        <ele>2326.0</ele>
        <time>2013-06-30T14:43:39Z</time>
      </trkpt>
      <trkpt lat="40.113850" lon="-5.433317">
        <ele>2326.0</ele>
        <time>2013-06-30T14:43:40Z</time>
      </trkpt>
      <trkpt lat="40.113783" lon="-5.433367">
        <ele>2324.0</ele>
        <time>2013-06-30T14:43:41Z</time>
      </trkpt>
      <trkpt lat="40.113700" lon="-5.433433">
        <ele>2322.0</ele>
        <time>2013-06-30T14:43:42Z</time>
      </trkpt>
      <trkpt lat="40.113633" lon="-5.433517">
        <ele>2320.0</ele>
        <time>2013-06-30T14:43:43Z</time>
      </trkpt>
      <trkpt lat="40.113550" lon="-5.433617">
        <ele>2316.0</ele>
        <time>2013-06-30T14:43:44Z</time>
      </trkpt>
      <trkpt lat="40.113467" lon="-5.433717">
        <ele>2315.0</ele>
        <time>2013-06-30T14:43:45Z</time>
      </trkpt>
      <trkpt lat="40.113383" lon="-5.433800">
        <ele>2314.0</ele>
        <time>2013-06-30T14:43:46Z</time>
      </trkpt>
      <trkpt lat="40.113317" lon="-5.433883">
        <ele>2313.0</ele>
        <time>2013-06-30T14:43:47Z</time>
      </trkpt>
      <trkpt lat="40.113250" lon="-5.433967">
        <ele>2311.0</ele>
        <time>2013-06-30T14:43:48Z</time>
      </trkpt>
      <trkpt lat="40.113183" lon="-5.434050">
        <ele>2310.0</ele>
        <time>2013-06-30T14:43:49Z</time>
      </trkpt>
      <trkpt lat="40.113117" lon="-5.434150">
        <ele>2308.0</ele>
        <time>2013-06-30T14:43:50Z</time>
      </trkpt>
      <trkpt lat="40.113050" lon="-5.434250">
        <ele>2306.0</ele>
        <time>2013-06-30T14:43:51Z</time>
      </trkpt>
      <trkpt lat="40.112967" lon="-5.434350">
        <ele>2305.0</ele>
        <time>2013-06-30T14:43:52Z</time>
      </trkpt>
      <trkpt lat="40.112883" lon="-5.434433">
        <ele>2304.0</ele>
        <time>2013-06-30T14:43:53Z</time>
      </trkpt>
      <trkpt lat="40.112800" lon="-5.434517">
        <ele>2303.0</ele>
        <time>2013-06-30T14:43:54Z</time>
      </trkpt>
      <trkpt lat="40.112733" lon="-5.434600">
        <ele>2302.0</ele>
        <time>2013-06-30T14:43:55Z</time>
      </trkpt>
      <trkpt lat="40.112650" lon="-5.434683">
        <ele>2300.0</ele>
        <time>2013-06-30T14:43:56Z</time>
      </trkpt>
      <trkpt lat="40.112583" lon="-5.434767">
        <ele>2298.0</ele>
        <time>2013-06-30T14:43:57Z</time>
      </trkpt>
      <trkpt lat="40.112500" lon="-5.434833">
        <ele>2296.0</ele>
        <time>2013-06-30T14:43:58Z</time>
      </trkpt>
      <trkpt lat="40.112433" lon="-5.434917">
        <ele>2294.0</ele>
        <time>2013-06-30T14:43:59Z</time>
      </trkpt>
      <trkpt lat="40.112350" lon="-5.435017">
        <ele>2292.0</ele>
        <time>2013-06-30T14:44:00Z</time>
      </trkpt>
      <trkpt lat="40.112283" lon="-5.435117">
        <ele>2290.0</ele>
        <time>2013-06-30T14:44:01Z</time>
      </trkpt>
      <trkpt lat="40.112200" lon="-5.435217">
        <ele>2289.0</ele>
        <time>2013-06-30T14:44:02Z</time>
      </trkpt>
      <trkpt lat="40.112133" lon="-5.435300">
        <ele>2287.0</ele>
        <time>2013-06-30T14:44:03Z</time>
      </trkpt>
      <trkpt lat="40.112067" lon="-5.435383">
        <ele>2285.0</ele>
        <time>2013-06-30T14:44:04Z</time>
      </trkpt>
      <trkpt lat="40.112000" lon="-5.435467">
        <ele>2282.0</ele>
        <time>2013-06-30T14:44:05Z</time>
      </trkpt>
      <trkpt lat="40.111950" lon="-5.435533">
        <ele>2280.0</ele>
        <time>2013-06-30T14:44:06Z</time>
      </trkpt>
      <trkpt lat="40.111883" lon="-5.435633">
        <ele>2278.0</ele>
        <time>2013-06-30T14:44:07Z</time>
      </trkpt>
      <trkpt lat="40.111817" lon="-5.435733">
        <ele>2276.0</ele>
        <time>2013-06-30T14:44:08Z</time>
      </trkpt>
      <trkpt lat="40.111750" lon="-5.435833">
        <ele>2274.0</ele>
        <time>2013-06-30T14:44:09Z</time>
      </trkpt>
      <trkpt lat="40.111667" lon="-5.435917">
        <ele>2272.0</ele>
        <time>2013-06-30T14:44:10Z</time>
      </trkpt>
      <trkpt lat="40.111600" lon="-5.435967">
        <ele>2270.0</ele>
        <time>2013-06-30T14:44:11Z</time>
      </trkpt>
      <trkpt lat="40.111567" lon="-5.436033">
        <ele>2268.0</ele>
        <time>2013-06-30T14:44:12Z</time>
      </trkpt>
      <trkpt lat="40.111533" lon="-5.436117">
        <ele>2265.0</ele>
        <time>2013-06-30T14:44:13Z</time>
      </trkpt>
      <trkpt lat="40.111517" lon="-5.436217">
        <ele>2262.0</ele>
        <time>2013-06-30T14:44:14Z</time>
      </trkpt>
      <trkpt lat="40.111500" lon="-5.436317">
        <ele>2259.0</ele>
        <time>2013-06-30T14:44:15Z</time>
      </trkpt>
      <trkpt lat="40.111467" lon="-5.436417">
        <ele>2257.0</ele>
        <time>2013-06-30T14:44:16Z</time>
      </trkpt>
      <trkpt lat="40.111433" lon="-5.436500">
        <ele>2254.0</ele>
        <time>2013-06-30T14:44:17Z</time>
      </trkpt>
      <trkpt lat="40.111383" lon="-5.436583">
        <ele>2251.0</ele>
        <time>2013-06-30T14:44:18Z</time>
      </trkpt>
      <trkpt lat="40.111333" lon="-5.436667">
        <ele>2249.0</ele>
        <time>2013-06-30T14:44:19Z</time>
      </trkpt>
      <trkpt lat="40.111300" lon="-5.436733">
        <ele>2246.0</ele>
        <time>2013-06-30T14:44:20Z</time>
      </trkpt>
      <trkpt lat="40.111250" lon="-5.436833">
        <ele>2244.0</ele>
        <time>2013-06-30T14:44:21Z</time>
      </trkpt>
      <trkpt lat="40.111183" lon="-5.436917">
        <ele>2247.0</ele>
        <time>2013-06-30T14:44:22Z</time>
      </trkpt>
      <trkpt lat="40.111117" lon="-5.437017">
        <ele>2246.0</ele>
        <time>2013-06-30T14:44:23Z</time>
      </trkpt>
      <trkpt lat="40.111050" lon="-5.437117">
        <ele>2244.0</ele>
        <time>2013-06-30T14:44:24Z</time>
      </trkpt>
      <trkpt lat="40.111000" lon="-5.437217">
        <ele>2242.0</ele>
        <time>2013-06-30T14:44:25Z</time>
      </trkpt>
      <trkpt lat="40.110967" lon="-5.437317">
        <ele>2239.0</ele>
        <time>2013-06-30T14:44:26Z</time>
      </trkpt>
      <trkpt lat="40.110950" lon="-5.437433">
        <ele>2235.0</ele>
        <time>2013-06-30T14:44:27Z</time>
      </trkpt>
      <trkpt lat="40.110933" lon="-5.437533">
        <ele>2233.0</ele>
        <time>2013-06-30T14:44:28Z</time>
      </trkpt>
      <trkpt lat="40.110900" lon="-5.437633">
        <ele>2229.0</ele>
        <time>2013-06-30T14:44:29Z</time>
      </trkpt>
      <trkpt lat="40.110850" lon="-5.437750">
        <ele>2226.0</ele>
        <time>2013-06-30T14:44:30Z</time>
      </trkpt>
      <trkpt lat="40.110783" lon="-5.437867">
        <ele>2224.0</ele>
        <time>2013-06-30T14:44:31Z</time>
      </trkpt>
      <trkpt lat="40.110733" lon="-5.437983">
        <ele>2221.0</ele>
        <time>2013-06-30T14:44:32Z</time>
      </trkpt>
      <trkpt lat="40.110683" lon="-5.438083">
        <ele>2220.0</ele>
        <time>2013-06-30T14:44:33Z</time>
      </trkpt>
      <trkpt lat="40.110633" lon="-5.438200">
        <ele>2219.0</ele>
        <time>2013-06-30T14:44:34Z</time>
      </trkpt>
      <trkpt lat="40.110600" lon="-5.438300">
        <ele>2217.0</ele>
        <time>2013-06-30T14:44:35Z</time>
      </trkpt>
      <trkpt lat="40.110550" lon="-5.438400">
        <ele>2215.0</ele>
        <time>2013-06-30T14:44:36Z</time>
      </trkpt>
      <trkpt lat="40.110517" lon="-5.438500">
        <ele>2213.0</ele>
        <time>2013-06-30T14:44:37Z</time>
      </trkpt>
      <trkpt lat="40.110467" lon="-5.438600">
        <ele>2212.0</ele>
        <time>2013-06-30T14:44:38Z</time>
      </trkpt>
      <trkpt lat="40.110417" lon="-5.438717">
        <ele>2210.0</ele>
        <time>2013-06-30T14:44:39Z</time>
      </trkpt>
      <trkpt lat="40.110383" lon="-5.438817">
        <ele>2208.0</ele>
        <time>2013-06-30T14:44:40Z</time>
      </trkpt>
      <trkpt lat="40.110333" lon="-5.438917">
        <ele>2207.0</ele>
        <time>2013-06-30T14:44:41Z</time>
      </trkpt>
      <trkpt lat="40.110267" lon="-5.439000">
        <ele>2205.0</ele>
        <time>2013-06-30T14:44:42Z</time>
      </trkpt>
      <trkpt lat="40.110217" lon="-5.439100">
        <ele>2204.0</ele>
        <time>2013-06-30T14:44:43Z</time>
      </trkpt>
      <trkpt lat="40.110150" lon="-5.439200">
        <ele>2202.0</ele>
        <time>2013-06-30T14:44:44Z</time>
      </trkpt>
      <trkpt lat="40.110083" lon="-5.439283">
        <ele>2201.0</ele>
        <time>2013-06-30T14:44:45Z</time>
      </trkpt>
      <trkpt lat="40.110017" lon="-5.439383">
        <ele>2200.0</ele>
        <time>2013-06-30T14:44:46Z</time>
      </trkpt>
      <trkpt lat="40.109950" lon="-5.439467">
        <ele>2200.0</ele>
        <time>2013-06-30T14:44:47Z</time>
      </trkpt>
      <trkpt lat="40.109883" lon="-5.439550">
        <ele>2199.0</ele>
        <time>2013-06-30T14:44:48Z</time>
      </trkpt>
      <trkpt lat="40.109800" lon="-5.439633">
        <ele>2198.0</ele>
        <time>2013-06-30T14:44:49Z</time>
      </trkpt>
      <trkpt lat="40.109717" lon="-5.439717">
        <ele>2198.0</ele>
        <time>2013-06-30T14:44:50Z</time>
      </trkpt>
      <trkpt lat="40.109650" lon="-5.439783">
        <ele>2197.0</ele>
        <time>2013-06-30T14:44:51Z</time>
      </trkpt>
      <trkpt lat="40.109583" lon="-5.439850">
        <ele>2196.0</ele>
        <time>2013-06-30T14:44:52Z</time>
      </trkpt>
      <trkpt lat="40.109500" lon="-5.439917">
        <ele>2195.0</ele>
        <time>2013-06-30T14:44:53Z</time>
      </trkpt>
      <trkpt lat="40.109433" lon="-5.439967">
        <ele>2193.0</ele>
        <time>2013-06-30T14:44:54Z</time>
      </trkpt>
      <trkpt lat="40.109350" lon="-5.440050">
        <ele>2192.0</ele>
        <time>2013-06-30T14:44:55Z</time>
      </trkpt>
      <trkpt lat="40.109283" lon="-5.440117">
        <ele>2190.0</ele>
        <time>2013-06-30T14:44:56Z</time>
      </trkpt>
      <trkpt lat="40.109217" lon="-5.440183">
        <ele>2189.0</ele>
        <time>2013-06-30T14:44:57Z</time>
      </trkpt>
      <trkpt lat="40.109133" lon="-5.440250">
        <ele>2188.0</ele>
        <time>2013-06-30T14:44:58Z</time>
      </trkpt>
      <trkpt lat="40.109050" lon="-5.440300">
        <ele>2187.0</ele>
        <time>2013-06-30T14:44:59Z</time>
      </trkpt>
      <trkpt lat="40.108983" lon="-5.440367">
        <ele>2186.0</ele>
        <time>2013-06-30T14:45:00Z</time>
      </trkpt>
      <trkpt lat="40.108900" lon="-5.440433">
        <ele>2183.0</ele>
        <time>2013-06-30T14:45:01Z</time>
      </trkpt>
      <trkpt lat="40.108817" lon="-5.440500">
        <ele>2181.0</ele>
        <time>2013-06-30T14:45:02Z</time>
      </trkpt>
      <trkpt lat="40.108733" lon="-5.440567">
        <ele>2180.0</ele>
        <time>2013-06-30T14:45:03Z</time>
      </trkpt>
      <trkpt lat="40.108650" lon="-5.440633">
        <ele>2179.0</ele>
        <time>2013-06-30T14:45:04Z</time>
      </trkpt>
      <trkpt lat="40.108567" lon="-5.440700">
        <ele>2178.0</ele>
        <time>2013-06-30T14:45:05Z</time>
      </trkpt>
      <trkpt lat="40.108483" lon="-5.440783">
        <ele>2177.0</ele>
        <time>2013-06-30T14:45:06Z</time>
      </trkpt>
      <trkpt lat="40.108417" lon="-5.440850">
        <ele>2176.0</ele>
        <time>2013-06-30T14:45:07Z</time>
      </trkpt>
      <trkpt lat="40.108350" lon="-5.440933">
        <ele>2176.0</ele>
        <time>2013-06-30T14:45:08Z</time>
      </trkpt>
      <trkpt lat="40.108267" lon="-5.441000">
        <ele>2175.0</ele>
        <time>2013-06-30T14:45:09Z</time>
      </trkpt>
      <trkpt lat="40.108183" lon="-5.441067">
        <ele>2176.0</ele>
        <time>2013-06-30T14:45:10Z</time>
      </trkpt>
      <trkpt lat="40.108100" lon="-5.441150">
        <ele>2176.0</ele>
        <time>2013-06-30T14:45:11Z</time>
      </trkpt>
      <trkpt lat="40.108017" lon="-5.441233">
        <ele>2175.0</ele>
        <time>2013-06-30T14:45:12Z</time>
      </trkpt>
      <trkpt lat="40.107950" lon="-5.441300">
        <ele>2174.0</ele>
        <time>2013-06-30T14:45:13Z</time>
      </trkpt>
      <trkpt lat="40.107867" lon="-5.441383">
        <ele>2174.0</ele>
        <time>2013-06-30T14:45:14Z</time>
      </trkpt>
      <trkpt lat="40.107800" lon="-5.441450">
        <ele>2172.0</ele>
        <time>2013-06-30T14:45:15Z</time>
      </trkpt>
      <trkpt lat="40.107733" lon="-5.441533">
        <ele>2171.0</ele>
        <time>2013-06-30T14:45:16Z</time>
      </trkpt>
      <trkpt lat="40.107650" lon="-5.441600">
        <ele>2169.0</ele>
        <time>2013-06-30T14:45:17Z</time>
      </trkpt>
      <trkpt lat="40.107583" lon="-5.441700">
        <ele>2168.0</ele>
        <time>2013-06-30T14:45:18Z</time>
      </trkpt>
      <trkpt lat="40.107533" lon="-5.441783">
        <ele>2167.0</ele>
        <time>2013-06-30T14:45:19Z</time>
      </trkpt>
      <trkpt lat="40.107467" lon="-5.441867">
        <ele>2166.0</ele>
        <time>2013-06-30T14:45:20Z</time>
      </trkpt>
      <trkpt lat="40.107417" lon="-5.441950">
        <ele>2164.0</ele>
        <time>2013-06-30T14:45:21Z</time>
      </trkpt>
      <trkpt lat="40.107333" lon="-5.442033">
        <ele>2162.0</ele>
        <time>2013-06-30T14:45:22Z</time>
      </trkpt>
      <trkpt lat="40.107267" lon="-5.442117">
        <ele>2160.0</ele>
        <time>2013-06-30T14:45:23Z</time>
      </trkpt>
      <trkpt lat="40.107200" lon="-5.442200">
        <ele>2158.0</ele>
        <time>2013-06-30T14:45:24Z</time>
      </trkpt>
      <trkpt lat="40.107133" lon="-5.442300">
        <ele>2156.0</ele>
        <time>2013-06-30T14:45:25Z</time>
      </trkpt>
      <trkpt lat="40.107050" lon="-5.442400">
        <ele>2154.0</ele>
        <time>2013-06-30T14:45:26Z</time>
      </trkpt>
      <trkpt lat="40.106967" lon="-5.442467">
        <ele>2153.0</ele>
        <time>2013-06-30T14:45:27Z</time>
      </trkpt>
      <trkpt lat="40.106883" lon="-5.442533">
        <ele>2151.0</ele>
        <time>2013-06-30T14:45:28Z</time>
      </trkpt>
      <trkpt lat="40.106817" lon="-5.442600">
        <ele>2148.0</ele>
        <time>2013-06-30T14:45:29Z</time>
      </trkpt>
      <trkpt lat="40.106750" lon="-5.442683">
        <ele>2145.0</ele>
        <time>2013-06-30T14:45:30Z</time>
      </trkpt>
      <trkpt lat="40.106683" lon="-5.442783">
        <ele>2142.0</ele>
        <time>2013-06-30T14:45:31Z</time>
      </trkpt>
      <trkpt lat="40.106617" lon="-5.442883">
        <ele>2139.0</ele>
        <time>2013-06-30T14:45:32Z</time>
      </trkpt>
      <trkpt lat="40.106550" lon="-5.442983">
        <ele>2137.0</ele>
        <time>2013-06-30T14:45:33Z</time>
      </trkpt>
      <trkpt lat="40.106467" lon="-5.443083">
        <ele>2135.0</ele>
        <time>2013-06-30T14:45:34Z</time>
      </trkpt>
      <trkpt lat="40.106400" lon="-5.443183">
        <ele>2133.0</ele>
        <time>2013-06-30T14:45:35Z</time>
      </trkpt>
      <trkpt lat="40.106333" lon="-5.443267">
        <ele>2131.0</ele>
        <time>2013-06-30T14:45:36Z</time>
      </trkpt>
      <trkpt lat="40.106267" lon="-5.443367">
        <ele>2128.0</ele>
        <time>2013-06-30T14:45:37Z</time>
      </trkpt>
      <trkpt lat="40.106200" lon="-5.443450">
        <ele>2126.0</ele>
        <time>2013-06-30T14:45:38Z</time>
      </trkpt>
      <trkpt lat="40.106133" lon="-5.443550">
        <ele>2123.0</ele>
        <time>2013-06-30T14:45:39Z</time>
      </trkpt>
      <trkpt lat="40.106050" lon="-5.443650">
        <ele>2121.0</ele>
        <time>2013-06-30T14:45:40Z</time>
      </trkpt>
      <trkpt lat="40.105983" lon="-5.443767">
        <ele>2118.0</ele>
        <time>2013-06-30T14:45:41Z</time>
      </trkpt>
      <trkpt lat="40.105933" lon="-5.443867">
        <ele>2115.0</ele>
        <time>2013-06-30T14:45:42Z</time>
      </trkpt>
      <trkpt lat="40.105883" lon="-5.443983">
        <ele>2112.0</ele>
        <time>2013-06-30T14:45:43Z</time>
      </trkpt>
      <trkpt lat="40.105817" lon="-5.444083">
        <ele>2109.0</ele>
        <time>2013-06-30T14:45:44Z</time>
      </trkpt>
      <trkpt lat="40.105750" lon="-5.444183">
        <ele>2105.0</ele>
        <time>2013-06-30T14:45:45Z</time>
      </trkpt>
      <trkpt lat="40.105667" lon="-5.444300">
        <ele>2102.0</ele>
        <time>2013-06-30T14:45:46Z</time>
      </trkpt>
      <trkpt lat="40.105600" lon="-5.444417">
        <ele>2098.0</ele>
        <time>2013-06-30T14:45:47Z</time>
      </trkpt>
      <trkpt lat="40.105533" lon="-5.444550">
        <ele>2094.0</ele>
        <time>2013-06-30T14:45:48Z</time>
      </trkpt>
      <trkpt lat="40.105467" lon="-5.444667">
        <ele>2093.0</ele>
        <time>2013-06-30T14:45:49Z</time>
      </trkpt>
      <trkpt lat="40.105400" lon="-5.444767">
        <ele>2093.0</ele>
        <time>2013-06-30T14:45:50Z</time>
      </trkpt>
      <trkpt lat="40.105350" lon="-5.444850">
        <ele>2092.0</ele>
        <time>2013-06-30T14:45:51Z</time>
      </trkpt>
      <trkpt lat="40.105300" lon="-5.444933">
        <ele>2091.0</ele>
        <time>2013-06-30T14:45:52Z</time>
      </trkpt>
      <trkpt lat="40.105233" lon="-5.445000">
        <ele>2089.0</ele>
        <time>2013-06-30T14:45:53Z</time>
      </trkpt>
      <trkpt lat="40.105150" lon="-5.445100">
        <ele>2086.0</ele>
        <time>2013-06-30T14:45:54Z</time>
      </trkpt>
      <trkpt lat="40.105100" lon="-5.445217">
        <ele>2083.0</ele>
        <time>2013-06-30T14:45:55Z</time>
      </trkpt>
      <trkpt lat="40.105033" lon="-5.445333">
        <ele>2080.0</ele>
        <time>2013-06-30T14:45:56Z</time>
      </trkpt>
      <trkpt lat="40.105000" lon="-5.445433">
        <ele>2077.0</ele>
        <time>2013-06-30T14:45:57Z</time>
      </trkpt>
      <trkpt lat="40.104967" lon="-5.445517">
        <ele>2074.0</ele>
        <time>2013-06-30T14:45:58Z</time>
      </trkpt>
      <trkpt lat="40.104900" lon="-5.445600">
        <ele>2075.0</ele>
        <time>2013-06-30T14:45:59Z</time>
      </trkpt>
      <trkpt lat="40.104867" lon="-5.445700">
        <ele>2072.0</ele>
        <time>2013-06-30T14:46:00Z</time>
      </trkpt>
      <trkpt lat="40.104817" lon="-5.445817">
        <ele>2069.0</ele>
        <time>2013-06-30T14:46:01Z</time>
      </trkpt>
      <trkpt lat="40.104783" lon="-5.445950">
        <ele>2065.0</ele>
        <time>2013-06-30T14:46:02Z</time>
      </trkpt>
      <trkpt lat="40.104767" lon="-5.446050">
        <ele>2063.0</ele>
        <time>2013-06-30T14:46:03Z</time>
      </trkpt>
      <trkpt lat="40.104733" lon="-5.446150">
        <ele>2060.0</ele>
        <time>2013-06-30T14:46:04Z</time>
      </trkpt>
      <trkpt lat="40.104700" lon="-5.446250">
        <ele>2058.0</ele>
        <time>2013-06-30T14:46:05Z</time>
      </trkpt>
      <trkpt lat="40.104667" lon="-5.446350">
        <ele>2056.0</ele>
        <time>2013-06-30T14:46:06Z</time>
      </trkpt>
      <trkpt lat="40.104633" lon="-5.446450">
        <ele>2055.0</ele>
        <time>2013-06-30T14:46:07Z</time>
      </trkpt>
      <trkpt lat="40.104617" lon="-5.446567">
        <ele>2053.0</ele>
        <time>2013-06-30T14:46:08Z</time>
      </trkpt>
      <trkpt lat="40.104583" lon="-5.446667">
        <ele>2052.0</ele>
        <time>2013-06-30T14:46:09Z</time>
      </trkpt>
      <trkpt lat="40.104567" lon="-5.446767">
        <ele>2051.0</ele>
        <time>2013-06-30T14:46:10Z</time>
      </trkpt>
      <trkpt lat="40.104550" lon="-5.446850">
        <ele>2051.0</ele>
        <time>2013-06-30T14:46:11Z</time>
      </trkpt>
      <trkpt lat="40.104517" lon="-5.446933">
        <ele>2049.0</ele>
        <time>2013-06-30T14:46:12Z</time>
      </trkpt>
      <trkpt lat="40.104500" lon="-5.447033">
        <ele>2047.0</ele>
        <time>2013-06-30T14:46:13Z</time>
      </trkpt>
      <trkpt lat="40.104483" lon="-5.447150">
        <ele>2045.0</ele>
        <time>2013-06-30T14:46:14Z</time>
      </trkpt>
      <trkpt lat="40.104450" lon="-5.447250">
        <ele>2044.0</ele>
        <time>2013-06-30T14:46:15Z</time>
      </trkpt>
      <trkpt lat="40.104433" lon="-5.447367">
        <ele>2043.0</ele>
        <time>2013-06-30T14:46:16Z</time>
      </trkpt>
      <trkpt lat="40.104400" lon="-5.447450">
        <ele>2042.0</ele>
        <time>2013-06-30T14:46:17Z</time>
      </trkpt>
      <trkpt lat="40.104367" lon="-5.447550">
        <ele>2045.0</ele>
        <time>2013-06-30T14:46:18Z</time>
      </trkpt>
      <trkpt lat="40.104317" lon="-5.447633">
        <ele>2044.0</ele>
        <time>2013-06-30T14:46:19Z</time>
      </trkpt>
      <trkpt lat="40.104283" lon="-5.447733">
        <ele>2043.0</ele>
        <time>2013-06-30T14:46:20Z</time>
      </trkpt>
      <trkpt lat="40.104233" lon="-5.447833">
        <ele>2044.0</ele>
        <time>2013-06-30T14:46:21Z</time>
      </trkpt>
      <trkpt lat="40.104183" lon="-5.447917">
        <ele>2043.0</ele>
        <time>2013-06-30T14:46:22Z</time>
      </trkpt>
      <trkpt lat="40.104117" lon="-5.448017">
        <ele>2043.0</ele>
        <time>2013-06-30T14:46:23Z</time>
      </trkpt>
      <trkpt lat="40.104050" lon="-5.448117">
        <ele>2042.0</ele>
        <time>2013-06-30T14:46:24Z</time>
      </trkpt>
      <trkpt lat="40.104000" lon="-5.448217">
        <ele>2041.0</ele>
        <time>2013-06-30T14:46:25Z</time>
      </trkpt>
      <trkpt lat="40.103950" lon="-5.448317">
        <ele>2040.0</ele>
        <time>2013-06-30T14:46:26Z</time>
      </trkpt>
      <trkpt lat="40.103900" lon="-5.448417">
        <ele>2039.0</ele>
        <time>2013-06-30T14:46:27Z</time>
      </trkpt>
      <trkpt lat="40.103833" lon="-5.448517">
        <ele>2038.0</ele>
        <time>2013-06-30T14:46:28Z</time>
      </trkpt>
      <trkpt lat="40.103783" lon="-5.448617">
        <ele>2036.0</ele>
        <time>2013-06-30T14:46:29Z</time>
      </trkpt>
      <trkpt lat="40.103733" lon="-5.448750">
        <ele>2035.0</ele>
        <time>2013-06-30T14:46:30Z</time>
      </trkpt>
      <trkpt lat="40.103700" lon="-5.448850">
        <ele>2033.0</ele>
        <time>2013-06-30T14:46:31Z</time>
      </trkpt>
      <trkpt lat="40.103667" lon="-5.448967">
        <ele>2032.0</ele>
        <time>2013-06-30T14:46:32Z</time>
      </trkpt>
      <trkpt lat="40.103633" lon="-5.449050">
        <ele>2030.0</ele>
        <time>2013-06-30T14:46:33Z</time>
      </trkpt>
      <trkpt lat="40.103600" lon="-5.449150">
        <ele>2029.0</ele>
        <time>2013-06-30T14:46:34Z</time>
      </trkpt>
      <trkpt lat="40.103550" lon="-5.449250">
        <ele>2028.0</ele>
        <time>2013-06-30T14:46:35Z</time>
      </trkpt>
      <trkpt lat="40.103517" lon="-5.449350">
        <ele>2027.0</ele>
        <time>2013-06-30T14:46:36Z</time>
      </trkpt>
      <trkpt lat="40.103483" lon="-5.449450">
        <ele>2025.0</ele>
        <time>2013-06-30T14:46:37Z</time>
      </trkpt>
      <trkpt lat="40.103417" lon="-5.449550">
        <ele>2024.0</ele>
        <time>2013-06-30T14:46:38Z</time>
      </trkpt>
      <trkpt lat="40.103333" lon="-5.449650">
        <ele>2022.0</ele>
        <time>2013-06-30T14:46:39Z</time>
      </trkpt>
      <trkpt lat="40.103267" lon="-5.449767">
        <ele>2023.0</ele>
        <time>2013-06-30T14:46:40Z</time>
      </trkpt>
      <trkpt lat="40.103217" lon="-5.449867">
        <ele>2026.0</ele>
        <time>2013-06-30T14:46:41Z</time>
      </trkpt>
      <trkpt lat="40.103167" lon="-5.449950">
        <ele>2027.0</ele>
        <time>2013-06-30T14:46:42Z</time>
      </trkpt>
      <trkpt lat="40.103117" lon="-5.450033">
        <ele>2026.0</ele>
        <time>2013-06-30T14:46:43Z</time>
      </trkpt>
      <trkpt lat="40.103067" lon="-5.450117">
        <ele>2026.0</ele>
        <time>2013-06-30T14:46:44Z</time>
      </trkpt>
      <trkpt lat="40.103000" lon="-5.450233">
        <ele>2026.0</ele>
        <time>2013-06-30T14:46:45Z</time>
      </trkpt>
      <trkpt lat="40.102933" lon="-5.450333">
        <ele>2025.0</ele>
        <time>2013-06-30T14:46:46Z</time>
      </trkpt>
      <trkpt lat="40.102867" lon="-5.450433">
        <ele>2025.0</ele>
        <time>2013-06-30T14:46:47Z</time>
      </trkpt>
      <trkpt lat="40.102817" lon="-5.450533">
        <ele>2025.0</ele>
        <time>2013-06-30T14:46:48Z</time>
      </trkpt>
      <trkpt lat="40.102767" lon="-5.450617">
        <ele>2025.0</ele>
        <time>2013-06-30T14:46:49Z</time>
      </trkpt>
      <trkpt lat="40.102700" lon="-5.450717">
        <ele>2023.0</ele>
        <time>2013-06-30T14:46:50Z</time>
      </trkpt>
      <trkpt lat="40.102617" lon="-5.450800">
        <ele>2022.0</ele>
        <time>2013-06-30T14:46:51Z</time>
      </trkpt>
      <trkpt lat="40.102533" lon="-5.450883">
        <ele>2021.0</ele>
        <time>2013-06-30T14:46:52Z</time>
      </trkpt>
      <trkpt lat="40.102467" lon="-5.450983">
        <ele>2020.0</ele>
        <time>2013-06-30T14:46:53Z</time>
      </trkpt>
      <trkpt lat="40.102383" lon="-5.451083">
        <ele>2019.0</ele>
        <time>2013-06-30T14:46:54Z</time>
      </trkpt>
      <trkpt lat="40.102317" lon="-5.451167">
        <ele>2018.0</ele>
        <time>2013-06-30T14:46:55Z</time>
      </trkpt>
      <trkpt lat="40.102250" lon="-5.451267">
        <ele>2017.0</ele>
        <time>2013-06-30T14:46:56Z</time>
      </trkpt>
      <trkpt lat="40.102183" lon="-5.451350">
        <ele>2016.0</ele>
        <time>2013-06-30T14:46:57Z</time>
      </trkpt>
      <trkpt lat="40.102117" lon="-5.451467">
        <ele>2015.0</ele>
        <time>2013-06-30T14:46:58Z</time>
      </trkpt>
      <trkpt lat="40.102050" lon="-5.451567">
        <ele>2014.0</ele>
        <time>2013-06-30T14:46:59Z</time>
      </trkpt>
      <trkpt lat="40.102000" lon="-5.451683">
        <ele>2013.0</ele>
        <time>2013-06-30T14:47:00Z</time>
      </trkpt>
      <trkpt lat="40.101933" lon="-5.451800">
        <ele>2012.0</ele>
        <time>2013-06-30T14:47:01Z</time>
      </trkpt>
      <trkpt lat="40.101883" lon="-5.451917">
        <ele>2011.0</ele>
        <time>2013-06-30T14:47:02Z</time>
      </trkpt>
      <trkpt lat="40.101833" lon="-5.452033">
        <ele>2010.0</ele>
        <time>2013-06-30T14:47:03Z</time>
      </trkpt>
      <trkpt lat="40.101767" lon="-5.452133">
        <ele>2009.0</ele>
        <time>2013-06-30T14:47:04Z</time>
      </trkpt>
      <trkpt lat="40.101700" lon="-5.452250">
        <ele>2008.0</ele>
        <time>2013-06-30T14:47:05Z</time>
      </trkpt>
      <trkpt lat="40.101633" lon="-5.452350">
        <ele>2007.0</ele>
        <time>2013-06-30T14:47:06Z</time>
      </trkpt>
      <trkpt lat="40.101567" lon="-5.452467">
        <ele>2005.0</ele>
        <time>2013-06-30T14:47:07Z</time>
      </trkpt>
      <trkpt lat="40.101500" lon="-5.452567">
        <ele>2003.0</ele>
        <time>2013-06-30T14:47:08Z</time>
      </trkpt>
      <trkpt lat="40.101433" lon="-5.452683">
        <ele>2002.0</ele>
        <time>2013-06-30T14:47:09Z</time>
      </trkpt>
      <trkpt lat="40.101367" lon="-5.452800">
        <ele>2000.0</ele>
        <time>2013-06-30T14:47:10Z</time>
      </trkpt>
      <trkpt lat="40.101300" lon="-5.452917">
        <ele>1998.0</ele>
        <time>2013-06-30T14:47:11Z</time>
      </trkpt>
      <trkpt lat="40.101250" lon="-5.453033">
        <ele>1996.0</ele>
        <time>2013-06-30T14:47:12Z</time>
      </trkpt>
      <trkpt lat="40.101183" lon="-5.453133">
        <ele>1994.0</ele>
        <time>2013-06-30T14:47:13Z</time>
      </trkpt>
      <trkpt lat="40.101133" lon="-5.453250">
        <ele>1991.0</ele>
        <time>2013-06-30T14:47:14Z</time>
      </trkpt>
      <trkpt lat="40.101067" lon="-5.453383">
        <ele>1989.0</ele>
        <time>2013-06-30T14:47:15Z</time>
      </trkpt>
      <trkpt lat="40.101017" lon="-5.453517">
        <ele>1986.0</ele>
        <time>2013-06-30T14:47:16Z</time>
      </trkpt>
      <trkpt lat="40.100983" lon="-5.453650">
        <ele>1984.0</ele>
        <time>2013-06-30T14:47:17Z</time>
      </trkpt>
      <trkpt lat="40.100933" lon="-5.453767">
        <ele>1981.0</ele>
        <time>2013-06-30T14:47:18Z</time>
      </trkpt>
      <trkpt lat="40.100883" lon="-5.453883">
        <ele>1978.0</ele>
        <time>2013-06-30T14:47:19Z</time>
      </trkpt>
      <trkpt lat="40.100850" lon="-5.454000">
        <ele>1976.0</ele>
        <time>2013-06-30T14:47:20Z</time>
      </trkpt>
      <trkpt lat="40.100800" lon="-5.454133">
        <ele>1973.0</ele>
        <time>2013-06-30T14:47:21Z</time>
      </trkpt>
      <trkpt lat="40.100750" lon="-5.454267">
        <ele>1970.0</ele>
        <time>2013-06-30T14:47:22Z</time>
      </trkpt>
      <trkpt lat="40.100683" lon="-5.454383">
        <ele>1967.0</ele>
        <time>2013-06-30T14:47:23Z</time>
      </trkpt>
      <trkpt lat="40.100633" lon="-5.454500">
        <ele>1964.0</ele>
        <time>2013-06-30T14:47:24Z</time>
      </trkpt>
      <trkpt lat="40.100550" lon="-5.454617">
        <ele>1961.0</ele>
        <time>2013-06-30T14:47:25Z</time>
      </trkpt>
      <trkpt lat="40.100483" lon="-5.454733">
        <ele>1958.0</ele>
        <time>2013-06-30T14:47:26Z</time>
      </trkpt>
      <trkpt lat="40.100417" lon="-5.454867">
        <ele>1954.0</ele>
        <time>2013-06-30T14:47:27Z</time>
      </trkpt>
      <trkpt lat="40.100350" lon="-5.455017">
        <ele>1952.0</ele>
        <time>2013-06-30T14:47:28Z</time>
      </trkpt>
      <trkpt lat="40.100267" lon="-5.455150">
        <ele>1951.0</ele>
        <time>2013-06-30T14:47:29Z</time>
      </trkpt>
      <trkpt lat="40.100200" lon="-5.455267">
        <ele>1950.0</ele>
        <time>2013-06-30T14:47:30Z</time>
      </trkpt>
      <trkpt lat="40.100133" lon="-5.455400">
        <ele>1949.0</ele>
        <time>2013-06-30T14:47:31Z</time>
      </trkpt>
      <trkpt lat="40.100083" lon="-5.455517">
        <ele>1948.0</ele>
        <time>2013-06-30T14:47:32Z</time>
      </trkpt>
      <trkpt lat="40.100017" lon="-5.455633">
        <ele>1945.0</ele>
        <time>2013-06-30T14:47:33Z</time>
      </trkpt>
      <trkpt lat="40.099950" lon="-5.455750">
        <ele>1943.0</ele>
        <time>2013-06-30T14:47:34Z</time>
      </trkpt>
      <trkpt lat="40.099883" lon="-5.455867">
        <ele>1940.0</ele>
        <time>2013-06-30T14:47:35Z</time>
      </trkpt>
      <trkpt lat="40.099817" lon="-5.455983">
        <ele>1938.0</ele>
        <time>2013-06-30T14:47:36Z</time>
      </trkpt>
      <trkpt lat="40.099750" lon="-5.456117">
        <ele>1935.0</ele>
        <time>2013-06-30T14:47:37Z</time>
      </trkpt>
      <trkpt lat="40.099683" lon="-5.456233">
        <ele>1933.0</ele>
        <time>2013-06-30T14:47:38Z</time>
      </trkpt>
      <trkpt lat="40.099617" lon="-5.456367">
        <ele>1930.0</ele>
        <time>2013-06-30T14:47:39Z</time>
      </trkpt>
      <trkpt lat="40.099550" lon="-5.456500">
        <ele>1928.0</ele>
        <time>2013-06-30T14:47:40Z</time>
      </trkpt>
      <trkpt lat="40.099483" lon="-5.456617">
        <ele>1926.0</ele>
        <time>2013-06-30T14:47:41Z</time>
      </trkpt>
      <trkpt lat="40.099417" lon="-5.456750">
        <ele>1925.0</ele>
        <time>2013-06-30T14:47:42Z</time>
      </trkpt>
      <trkpt lat="40.099350" lon="-5.456883">
        <ele>1924.0</ele>
        <time>2013-06-30T14:47:43Z</time>
      </trkpt>
      <trkpt lat="40.099300" lon="-5.457000">
        <ele>1922.0</ele>
        <time>2013-06-30T14:47:44Z</time>
      </trkpt>
      <trkpt lat="40.099250" lon="-5.457117">
        <ele>1920.0</ele>
        <time>2013-06-30T14:47:45Z</time>
      </trkpt>
      <trkpt lat="40.099200" lon="-5.457250">
        <ele>1918.0</ele>
        <time>2013-06-30T14:47:46Z</time>
      </trkpt>
      <trkpt lat="40.099133" lon="-5.457367">
        <ele>1916.0</ele>
        <time>2013-06-30T14:47:47Z</time>
      </trkpt>
      <trkpt lat="40.099083" lon="-5.457500">
        <ele>1914.0</ele>
        <time>2013-06-30T14:47:48Z</time>
      </trkpt>
      <trkpt lat="40.099017" lon="-5.457633">
        <ele>1912.0</ele>
        <time>2013-06-30T14:47:49Z</time>
      </trkpt>
      <trkpt lat="40.098967" lon="-5.457750">
        <ele>1910.0</ele>
        <time>2013-06-30T14:47:50Z</time>
      </trkpt>
      <trkpt lat="40.098917" lon="-5.457883">
        <ele>1907.0</ele>
        <time>2013-06-30T14:47:51Z</time>
      </trkpt>
      <trkpt lat="40.098850" lon="-5.458017">
        <ele>1905.0</ele>
        <time>2013-06-30T14:47:52Z</time>
      </trkpt>
      <trkpt lat="40.098800" lon="-5.458133">
        <ele>1903.0</ele>
        <time>2013-06-30T14:47:53Z</time>
      </trkpt>
      <trkpt lat="40.098750" lon="-5.458267">
        <ele>1901.0</ele>
        <time>2013-06-30T14:47:54Z</time>
      </trkpt>
      <trkpt lat="40.098700" lon="-5.458400">
        <ele>1899.0</ele>
        <time>2013-06-30T14:47:55Z</time>
      </trkpt>
      <trkpt lat="40.098633" lon="-5.458533">
        <ele>1897.0</ele>
        <time>2013-06-30T14:47:56Z</time>
      </trkpt>
      <trkpt lat="40.098583" lon="-5.458667">
        <ele>1895.0</ele>
        <time>2013-06-30T14:47:57Z</time>
      </trkpt>
      <trkpt lat="40.098533" lon="-5.458800">
        <ele>1893.0</ele>
        <time>2013-06-30T14:47:58Z</time>
      </trkpt>
      <trkpt lat="40.098467" lon="-5.458917">
        <ele>1891.0</ele>
        <time>2013-06-30T14:47:59Z</time>
      </trkpt>
      <trkpt lat="40.098400" lon="-5.459050">
        <ele>1888.0</ele>
        <time>2013-06-30T14:48:00Z</time>
      </trkpt>
      <trkpt lat="40.098333" lon="-5.459183">
        <ele>1886.0</ele>
        <time>2013-06-30T14:48:01Z</time>
      </trkpt>
      <trkpt lat="40.098267" lon="-5.459333">
        <ele>1884.0</ele>
        <time>2013-06-30T14:48:02Z</time>
      </trkpt>
      <trkpt lat="40.098217" lon="-5.459467">
        <ele>1883.0</ele>
        <time>2013-06-30T14:48:03Z</time>
      </trkpt>
      <trkpt lat="40.098167" lon="-5.459617">
        <ele>1883.0</ele>
        <time>2013-06-30T14:48:04Z</time>
      </trkpt>
      <trkpt lat="40.098133" lon="-5.459733">
        <ele>1882.0</ele>
        <time>2013-06-30T14:48:05Z</time>
      </trkpt>
      <trkpt lat="40.098083" lon="-5.459867">
        <ele>1882.0</ele>
        <time>2013-06-30T14:48:06Z</time>
      </trkpt>
      <trkpt lat="40.098050" lon="-5.459983">
        <ele>1880.0</ele>
        <time>2013-06-30T14:48:07Z</time>
      </trkpt>
      <trkpt lat="40.098000" lon="-5.460117">
        <ele>1879.0</ele>
        <time>2013-06-30T14:48:08Z</time>
      </trkpt>
      <trkpt lat="40.097950" lon="-5.460233">
        <ele>1877.0</ele>
        <time>2013-06-30T14:48:09Z</time>
      </trkpt>
      <trkpt lat="40.097900" lon="-5.460367">
        <ele>1876.0</ele>
        <time>2013-06-30T14:48:10Z</time>
      </trkpt>
      <trkpt lat="40.097850" lon="-5.460483">
        <ele>1875.0</ele>
        <time>2013-06-30T14:48:11Z</time>
      </trkpt>
      <trkpt lat="40.097800" lon="-5.460600">
        <ele>1873.0</ele>
        <time>2013-06-30T14:48:12Z</time>
      </trkpt>
      <trkpt lat="40.097750" lon="-5.460717">
        <ele>1872.0</ele>
        <time>2013-06-30T14:48:13Z</time>
      </trkpt>
      <trkpt lat="40.097683" lon="-5.460833">
        <ele>1870.0</ele>
        <time>2013-06-30T14:48:14Z</time>
      </trkpt>
      <trkpt lat="40.097633" lon="-5.460950">
        <ele>1867.0</ele>
        <time>2013-06-30T14:48:15Z</time>
      </trkpt>
      <trkpt lat="40.097550" lon="-5.461067">
        <ele>1866.0</ele>
        <time>2013-06-30T14:48:16Z</time>
      </trkpt>
      <trkpt lat="40.097483" lon="-5.461183">
        <ele>1864.0</ele>
        <time>2013-06-30T14:48:17Z</time>
      </trkpt>
      <trkpt lat="40.097417" lon="-5.461300">
        <ele>1863.0</ele>
        <time>2013-06-30T14:48:18Z</time>
      </trkpt>
      <trkpt lat="40.097350" lon="-5.461417">
        <ele>1861.0</ele>
        <time>2013-06-30T14:48:19Z</time>
      </trkpt>
      <trkpt lat="40.097300" lon="-5.461550">
        <ele>1859.0</ele>
        <time>2013-06-30T14:48:20Z</time>
      </trkpt>
      <trkpt lat="40.097233" lon="-5.461683">
        <ele>1857.0</ele>
        <time>2013-06-30T14:48:21Z</time>
      </trkpt>
      <trkpt lat="40.097167" lon="-5.461817">
        <ele>1855.0</ele>
        <time>2013-06-30T14:48:22Z</time>
      </trkpt>
      <trkpt lat="40.097100" lon="-5.461950">
        <ele>1853.0</ele>
        <time>2013-06-30T14:48:23Z</time>
      </trkpt>
      <trkpt lat="40.097033" lon="-5.462083">
        <ele>1852.0</ele>
        <time>2013-06-30T14:48:24Z</time>
      </trkpt>
      <trkpt lat="40.097000" lon="-5.462217">
        <ele>1851.0</ele>
        <time>2013-06-30T14:48:25Z</time>
      </trkpt>
      <trkpt lat="40.096950" lon="-5.462350">
        <ele>1850.0</ele>
        <time>2013-06-30T14:48:26Z</time>
      </trkpt>
      <trkpt lat="40.096917" lon="-5.462500">
        <ele>1848.0</ele>
        <time>2013-06-30T14:48:27Z</time>
      </trkpt>
      <trkpt lat="40.096867" lon="-5.462633">
        <ele>1847.0</ele>
        <time>2013-06-30T14:48:28Z</time>
      </trkpt>
      <trkpt lat="40.096817" lon="-5.462783">
        <ele>1846.0</ele>
        <time>2013-06-30T14:48:29Z</time>
      </trkpt>
      <trkpt lat="40.096767" lon="-5.462917">
        <ele>1845.0</ele>
        <time>2013-06-30T14:48:30Z</time>
      </trkpt>
      <trkpt lat="40.096717" lon="-5.463050">
        <ele>1844.0</ele>
        <time>2013-06-30T14:48:31Z</time>
      </trkpt>
      <trkpt lat="40.096650" lon="-5.463150">
        <ele>1843.0</ele>
        <time>2013-06-30T14:48:32Z</time>
      </trkpt>
      <trkpt lat="40.096583" lon="-5.463233">
        <ele>1842.0</ele>
        <time>2013-06-30T14:48:33Z</time>
      </trkpt>
      <trkpt lat="40.096517" lon="-5.463333">
        <ele>1841.0</ele>
        <time>2013-06-30T14:48:34Z</time>
      </trkpt>
      <trkpt lat="40.096450" lon="-5.463450">
        <ele>1840.0</ele>
        <time>2013-06-30T14:48:35Z</time>
      </trkpt>
      <trkpt lat="40.096383" lon="-5.463567">
        <ele>1840.0</ele>
        <time>2013-06-30T14:48:36Z</time>
      </trkpt>
      <trkpt lat="40.096333" lon="-5.463683">
        <ele>1840.0</ele>
        <time>2013-06-30T14:48:37Z</time>
      </trkpt>
      <trkpt lat="40.096267" lon="-5.463783">
        <ele>1839.0</ele>
        <time>2013-06-30T14:48:38Z</time>
      </trkpt>
      <trkpt lat="40.096200" lon="-5.463900">
        <ele>1838.0</ele>
        <time>2013-06-30T14:48:39Z</time>
      </trkpt>
      <trkpt lat="40.096133" lon="-5.464017">
        <ele>1838.0</ele>
        <time>2013-06-30T14:48:40Z</time>
      </trkpt>
      <trkpt lat="40.096067" lon="-5.464133">
        <ele>1836.0</ele>
        <time>2013-06-30T14:48:41Z</time>
      </trkpt>
      <trkpt lat="40.096017" lon="-5.464250">
        <ele>1836.0</ele>
        <time>2013-06-30T14:48:42Z</time>
      </trkpt>
      <trkpt lat="40.095950" lon="-5.464367">
        <ele>1835.0</ele>
        <time>2013-06-30T14:48:43Z</time>
      </trkpt>
      <trkpt lat="40.095883" lon="-5.464483">
        <ele>1835.0</ele>
        <time>2013-06-30T14:48:44Z</time>
      </trkpt>
      <trkpt lat="40.095817" lon="-5.464583">
        <ele>1835.0</ele>
        <time>2013-06-30T14:48:45Z</time>
      </trkpt>
      <trkpt lat="40.095767" lon="-5.464683">
        <ele>1836.0</ele>
        <time>2013-06-30T14:48:46Z</time>
      </trkpt>
      <trkpt lat="40.095700" lon="-5.464783">
        <ele>1836.0</ele>
        <time>2013-06-30T14:48:47Z</time>
      </trkpt>
      <trkpt lat="40.095633" lon="-5.464883">
        <ele>1836.0</ele>
        <time>2013-06-30T14:48:48Z</time>
      </trkpt>
      <trkpt lat="40.095567" lon="-5.464983">
        <ele>1835.0</ele>
        <time>2013-06-30T14:48:49Z</time>
      </trkpt>
      <trkpt lat="40.095500" lon="-5.465083">
        <ele>1835.0</ele>
        <time>2013-06-30T14:48:50Z</time>
      </trkpt>
      <trkpt lat="40.095417" lon="-5.465200">
        <ele>1835.0</ele>
        <time>2013-06-30T14:48:51Z</time>
      </trkpt>
      <trkpt lat="40.095367" lon="-5.465300">
        <ele>1835.0</ele>
        <time>2013-06-30T14:48:52Z</time>
      </trkpt>
      <trkpt lat="40.095300" lon="-5.465400">
        <ele>1835.0</ele>
        <time>2013-06-30T14:48:53Z</time>
      </trkpt>
      <trkpt lat="40.095233" lon="-5.465483">
        <ele>1835.0</ele>
        <time>2013-06-30T14:48:54Z</time>
      </trkpt>
      <trkpt lat="40.095167" lon="-5.465583">
        <ele>1834.0</ele>
        <time>2013-06-30T14:48:55Z</time>
      </trkpt>
      <trkpt lat="40.095100" lon="-5.465667">
        <ele>1833.0</ele>
        <time>2013-06-30T14:48:56Z</time>
      </trkpt>
      <trkpt lat="40.095033" lon="-5.465767">
        <ele>1831.0</ele>
        <time>2013-06-30T14:48:57Z</time>
      </trkpt>
      <trkpt lat="40.094950" lon="-5.465850">
        <ele>1830.0</ele>
        <time>2013-06-30T14:48:58Z</time>
      </trkpt>
      <trkpt lat="40.094883" lon="-5.465933">
        <ele>1828.0</ele>
        <time>2013-06-30T14:48:59Z</time>
      </trkpt>
      <trkpt lat="40.094817" lon="-5.466017">
        <ele>1827.0</ele>
        <time>2013-06-30T14:49:00Z</time>
      </trkpt>
      <trkpt lat="40.094750" lon="-5.466100">
        <ele>1826.0</ele>
        <time>2013-06-30T14:49:01Z</time>
      </trkpt>
      <trkpt lat="40.094700" lon="-5.466200">
        <ele>1825.0</ele>
        <time>2013-06-30T14:49:02Z</time>
      </trkpt>
      <trkpt lat="40.094633" lon="-5.466283">
        <ele>1825.0</ele>
        <time>2013-06-30T14:49:03Z</time>
      </trkpt>
      <trkpt lat="40.094567" lon="-5.466383">
        <ele>1824.0</ele>
        <time>2013-06-30T14:49:04Z</time>
      </trkpt>
      <trkpt lat="40.094500" lon="-5.466467">
        <ele>1824.0</ele>
        <time>2013-06-30T14:49:05Z</time>
      </trkpt>
      <trkpt lat="40.094433" lon="-5.466550">
        <ele>1824.0</ele>
        <time>2013-06-30T14:49:06Z</time>
      </trkpt>
      <trkpt lat="40.094367" lon="-5.466633">
        <ele>1824.0</ele>
        <time>2013-06-30T14:49:07Z</time>
      </trkpt>
      <trkpt lat="40.094300" lon="-5.466717">
        <ele>1823.0</ele>
        <time>2013-06-30T14:49:08Z</time>
      </trkpt>
      <trkpt lat="40.094233" lon="-5.466817">
        <ele>1822.0</ele>
        <time>2013-06-30T14:49:09Z</time>
      </trkpt>
      <trkpt lat="40.094150" lon="-5.466900">
        <ele>1821.0</ele>
        <time>2013-06-30T14:49:10Z</time>
      </trkpt>
      <trkpt lat="40.094083" lon="-5.466983">
        <ele>1819.0</ele>
        <time>2013-06-30T14:49:11Z</time>
      </trkpt>
      <trkpt lat="40.094000" lon="-5.467067">
        <ele>1817.0</ele>
        <time>2013-06-30T14:49:12Z</time>
      </trkpt>
      <trkpt lat="40.093933" lon="-5.467150">
        <ele>1815.0</ele>
        <time>2013-06-30T14:49:13Z</time>
      </trkpt>
      <trkpt lat="40.093850" lon="-5.467233">
        <ele>1813.0</ele>
        <time>2013-06-30T14:49:14Z</time>
      </trkpt>
      <trkpt lat="40.093783" lon="-5.467333">
        <ele>1811.0</ele>
        <time>2013-06-30T14:49:15Z</time>
      </trkpt>
      <trkpt lat="40.093700" lon="-5.467400">
        <ele>1809.0</ele>
        <time>2013-06-30T14:49:16Z</time>
      </trkpt>
      <trkpt lat="40.093617" lon="-5.467483">
        <ele>1808.0</ele>
        <time>2013-06-30T14:49:17Z</time>
      </trkpt>
      <trkpt lat="40.093533" lon="-5.467567">
        <ele>1807.0</ele>
        <time>2013-06-30T14:49:18Z</time>
      </trkpt>
      <trkpt lat="40.093450" lon="-5.467633">
        <ele>1806.0</ele>
        <time>2013-06-30T14:49:19Z</time>
      </trkpt>
      <trkpt lat="40.093383" lon="-5.467717">
        <ele>1805.0</ele>
        <time>2013-06-30T14:49:20Z</time>
      </trkpt>
      <trkpt lat="40.093300" lon="-5.467783">
        <ele>1804.0</ele>
        <time>2013-06-30T14:49:21Z</time>
      </trkpt>
      <trkpt lat="40.093217" lon="-5.467867">
        <ele>1802.0</ele>
        <time>2013-06-30T14:49:22Z</time>
      </trkpt>
      <trkpt lat="40.093150" lon="-5.467950">
        <ele>1800.0</ele>
        <time>2013-06-30T14:49:23Z</time>
      </trkpt>
      <trkpt lat="40.093067" lon="-5.468033">
        <ele>1798.0</ele>
        <time>2013-06-30T14:49:24Z</time>
      </trkpt>
      <trkpt lat="40.092983" lon="-5.468133">
        <ele>1797.0</ele>
        <time>2013-06-30T14:49:25Z</time>
      </trkpt>
      <trkpt lat="40.092900" lon="-5.468233">
        <ele>1795.0</ele>
        <time>2013-06-30T14:49:26Z</time>
      </trkpt>
      <trkpt lat="40.092833" lon="-5.468333">
        <ele>1794.0</ele>
        <time>2013-06-30T14:49:27Z</time>
      </trkpt>
      <trkpt lat="40.092783" lon="-5.468450">
        <ele>1793.0</ele>
        <time>2013-06-30T14:49:28Z</time>
      </trkpt>
      <trkpt lat="40.092717" lon="-5.468567">
        <ele>1792.0</ele>
        <time>2013-06-30T14:49:29Z</time>
      </trkpt>
      <trkpt lat="40.092650" lon="-5.468683">
        <ele>1790.0</ele>
        <time>2013-06-30T14:49:30Z</time>
      </trkpt>
      <trkpt lat="40.092583" lon="-5.468817">
        <ele>1789.0</ele>
        <time>2013-06-30T14:49:31Z</time>
      </trkpt>
      <trkpt lat="40.092533" lon="-5.468933">
        <ele>1790.0</ele>
        <time>2013-06-30T14:49:32Z</time>
      </trkpt>
      <trkpt lat="40.092500" lon="-5.469050">
        <ele>1791.0</ele>
        <time>2013-06-30T14:49:33Z</time>
      </trkpt>
      <trkpt lat="40.092483" lon="-5.469167">
        <ele>1793.0</ele>
        <time>2013-06-30T14:49:34Z</time>
      </trkpt>
      <trkpt lat="40.092467" lon="-5.469250">
        <ele>1794.0</ele>
        <time>2013-06-30T14:49:35Z</time>
      </trkpt>
      <trkpt lat="40.092450" lon="-5.469333">
        <ele>1794.0</ele>
        <time>2013-06-30T14:49:36Z</time>
      </trkpt>
      <trkpt lat="40.092400" lon="-5.469417">
        <ele>1793.0</ele>
        <time>2013-06-30T14:49:37Z</time>
      </trkpt>
      <trkpt lat="40.092367" lon="-5.469533">
        <ele>1791.0</ele>
        <time>2013-06-30T14:49:38Z</time>
      </trkpt>
      <trkpt lat="40.092317" lon="-5.469650">
        <ele>1791.0</ele>
        <time>2013-06-30T14:49:39Z</time>
      </trkpt>
      <trkpt lat="40.092267" lon="-5.469750">
        <ele>1792.0</ele>
        <time>2013-06-30T14:49:40Z</time>
      </trkpt>
      <trkpt lat="40.092233" lon="-5.469833">
        <ele>1793.0</ele>
        <time>2013-06-30T14:49:41Z</time>
      </trkpt>
      <trkpt lat="40.092183" lon="-5.469917">
        <ele>1794.0</ele>
        <time>2013-06-30T14:49:42Z</time>
      </trkpt>
      <trkpt lat="40.092133" lon="-5.470017">
        <ele>1793.0</ele>
        <time>2013-06-30T14:49:43Z</time>
      </trkpt>
      <trkpt lat="40.092100" lon="-5.470100">
        <ele>1793.0</ele>
        <time>2013-06-30T14:49:44Z</time>
      </trkpt>
      <trkpt lat="40.092033" lon="-5.470183">
        <ele>1794.0</ele>
        <time>2013-06-30T14:49:45Z</time>
      </trkpt>
      <trkpt lat="40.091983" lon="-5.470267">
        <ele>1794.0</ele>
        <time>2013-06-30T14:49:46Z</time>
      </trkpt>
      <trkpt lat="40.091917" lon="-5.470350">
        <ele>1794.0</ele>
        <time>2013-06-30T14:49:47Z</time>
      </trkpt>
      <trkpt lat="40.091850" lon="-5.470433">
        <ele>1794.0</ele>
        <time>2013-06-30T14:49:48Z</time>
      </trkpt>
      <trkpt lat="40.091800" lon="-5.470517">
        <ele>1794.0</ele>
        <time>2013-06-30T14:49:49Z</time>
      </trkpt>
      <trkpt lat="40.091750" lon="-5.470583">
        <ele>1794.0</ele>
        <time>2013-06-30T14:49:50Z</time>
      </trkpt>
      <trkpt lat="40.091683" lon="-5.470633">
        <ele>1792.0</ele>
        <time>2013-06-30T14:49:51Z</time>
      </trkpt>
      <trkpt lat="40.091617" lon="-5.470700">
        <ele>1790.0</ele>
        <time>2013-06-30T14:49:52Z</time>
      </trkpt>
      <trkpt lat="40.091533" lon="-5.470783">
        <ele>1788.0</ele>
        <time>2013-06-30T14:49:53Z</time>
      </trkpt>
      <trkpt lat="40.091467" lon="-5.470867">
        <ele>1787.0</ele>
        <time>2013-06-30T14:49:54Z</time>
      </trkpt>
      <trkpt lat="40.091400" lon="-5.470950">
        <ele>1786.0</ele>
        <time>2013-06-30T14:49:55Z</time>
      </trkpt>
      <trkpt lat="40.091333" lon="-5.471033">
        <ele>1786.0</ele>
        <time>2013-06-30T14:49:56Z</time>
      </trkpt>
      <trkpt lat="40.091267" lon="-5.471117">
        <ele>1786.0</ele>
        <time>2013-06-30T14:49:57Z</time>
      </trkpt>
      <trkpt lat="40.091200" lon="-5.471183">
        <ele>1786.0</ele>
        <time>2013-06-30T14:49:58Z</time>
      </trkpt>
      <trkpt lat="40.091133" lon="-5.471250">
        <ele>1786.0</ele>
        <time>2013-06-30T14:49:59Z</time>
      </trkpt>
      <trkpt lat="40.091067" lon="-5.471333">
        <ele>1785.0</ele>
        <time>2013-06-30T14:50:00Z</time>
      </trkpt>
      <trkpt lat="40.091000" lon="-5.471417">
        <ele>1784.0</ele>
        <time>2013-06-30T14:50:01Z</time>
      </trkpt>
      <trkpt lat="40.090917" lon="-5.471517">
        <ele>1784.0</ele>
        <time>2013-06-30T14:50:02Z</time>
      </trkpt>
      <trkpt lat="40.090850" lon="-5.471617">
        <ele>1784.0</ele>
        <time>2013-06-30T14:50:03Z</time>
      </trkpt>
      <trkpt lat="40.090783" lon="-5.471717">
        <ele>1785.0</ele>
        <time>2013-06-30T14:50:04Z</time>
      </trkpt>
      <trkpt lat="40.090717" lon="-5.471800">
        <ele>1785.0</ele>
        <time>2013-06-30T14:50:05Z</time>
      </trkpt>
      <trkpt lat="40.090650" lon="-5.471867">
        <ele>1785.0</ele>
        <time>2013-06-30T14:50:06Z</time>
      </trkpt>
      <trkpt lat="40.090583" lon="-5.471950">
        <ele>1785.0</ele>
        <time>2013-06-30T14:50:07Z</time>
      </trkpt>
      <trkpt lat="40.090517" lon="-5.472033">
        <ele>1784.0</ele>
        <time>2013-06-30T14:50:08Z</time>
      </trkpt>
      <trkpt lat="40.090450" lon="-5.472117">
        <ele>1784.0</ele>
        <time>2013-06-30T14:50:09Z</time>
      </trkpt>
      <trkpt lat="40.090383" lon="-5.472217">
        <ele>1784.0</ele>
        <time>2013-06-30T14:50:10Z</time>
      </trkpt>
      <trkpt lat="40.090317" lon="-5.472300">
        <ele>1784.0</ele>
        <time>2013-06-30T14:50:11Z</time>
      </trkpt>
      <trkpt lat="40.090250" lon="-5.472383">
        <ele>1784.0</ele>
        <time>2013-06-30T14:50:12Z</time>
      </trkpt>
      <trkpt lat="40.090183" lon="-5.472483">
        <ele>1784.0</ele>
        <time>2013-06-30T14:50:13Z</time>
      </trkpt>
      <trkpt lat="40.090133" lon="-5.472567">
        <ele>1785.0</ele>
        <time>2013-06-30T14:50:14Z</time>
      </trkpt>
      <trkpt lat="40.090067" lon="-5.472667">
        <ele>1785.0</ele>
        <time>2013-06-30T14:50:15Z</time>
      </trkpt>
      <trkpt lat="40.090017" lon="-5.472750">
        <ele>1785.0</ele>
        <time>2013-06-30T14:50:16Z</time>
      </trkpt>
      <trkpt lat="40.089950" lon="-5.472850">
        <ele>1784.0</ele>
        <time>2013-06-30T14:50:17Z</time>
      </trkpt>
      <trkpt lat="40.089883" lon="-5.472950">
        <ele>1784.0</ele>
        <time>2013-06-30T14:50:18Z</time>
      </trkpt>
      <trkpt lat="40.089817" lon="-5.473067">
        <ele>1783.0</ele>
        <time>2013-06-30T14:50:19Z</time>
      </trkpt>
      <trkpt lat="40.089750" lon="-5.473183">
        <ele>1784.0</ele>
        <time>2013-06-30T14:50:20Z</time>
      </trkpt>
      <trkpt lat="40.089683" lon="-5.473283">
        <ele>1784.0</ele>
        <time>2013-06-30T14:50:21Z</time>
      </trkpt>
      <trkpt lat="40.089633" lon="-5.473367">
        <ele>1784.0</ele>
        <time>2013-06-30T14:50:22Z</time>
      </trkpt>
      <trkpt lat="40.089567" lon="-5.473467">
        <ele>1784.0</ele>
        <time>2013-06-30T14:50:23Z</time>
      </trkpt>
      <trkpt lat="40.089500" lon="-5.473567">
        <ele>1783.0</ele>
        <time>2013-06-30T14:50:24Z</time>
      </trkpt>
      <trkpt lat="40.089433" lon="-5.473683">
        <ele>1783.0</ele>
        <time>2013-06-30T14:50:25Z</time>
      </trkpt>
      <trkpt lat="40.089367" lon="-5.473800">
        <ele>1783.0</ele>
        <time>2013-06-30T14:50:26Z</time>
      </trkpt>
      <trkpt lat="40.089283" lon="-5.473900">
        <ele>1783.0</ele>
        <time>2013-06-30T14:50:27Z</time>
      </trkpt>
      <trkpt lat="40.089217" lon="-5.474000">
        <ele>1783.0</ele>
        <time>2013-06-30T14:50:28Z</time>
      </trkpt>
      <trkpt lat="40.089150" lon="-5.474100">
        <ele>1783.0</ele>
        <time>2013-06-30T14:50:29Z</time>
      </trkpt>
      <trkpt lat="40.089083" lon="-5.474183">
        <ele>1782.0</ele>
        <time>2013-06-30T14:50:30Z</time>
      </trkpt>
      <trkpt lat="40.089017" lon="-5.474267">
        <ele>1782.0</ele>
        <time>2013-06-30T14:50:31Z</time>
      </trkpt>
      <trkpt lat="40.088950" lon="-5.474367">
        <ele>1782.0</ele>
        <time>2013-06-30T14:50:32Z</time>
      </trkpt>
      <trkpt lat="40.088883" lon="-5.474467">
        <ele>1783.0</ele>
        <time>2013-06-30T14:50:33Z</time>
      </trkpt>
      <trkpt lat="40.088817" lon="-5.474550">
        <ele>1783.0</ele>
        <time>2013-06-30T14:50:34Z</time>
      </trkpt>
      <trkpt lat="40.088750" lon="-5.474633">
        <ele>1782.0</ele>
        <time>2013-06-30T14:50:35Z</time>
      </trkpt>
      <trkpt lat="40.088683" lon="-5.474717">
        <ele>1781.0</ele>
        <time>2013-06-30T14:50:36Z</time>
      </trkpt>
      <trkpt lat="40.088600" lon="-5.474800">
        <ele>1780.0</ele>
        <time>2013-06-30T14:50:37Z</time>
      </trkpt>
      <trkpt lat="40.088517" lon="-5.474900">
        <ele>1780.0</ele>
        <time>2013-06-30T14:50:38Z</time>
      </trkpt>
      <trkpt lat="40.088433" lon="-5.475000">
        <ele>1780.0</ele>
        <time>2013-06-30T14:50:39Z</time>
      </trkpt>
      <trkpt lat="40.088367" lon="-5.475083">
        <ele>1780.0</ele>
        <time>2013-06-30T14:50:40Z</time>
      </trkpt>
      <trkpt lat="40.088283" lon="-5.475167">
        <ele>1780.0</ele>
        <time>2013-06-30T14:50:41Z</time>
      </trkpt>
      <trkpt lat="40.088217" lon="-5.475250">
        <ele>1779.0</ele>
        <time>2013-06-30T14:50:42Z</time>
      </trkpt>
      <trkpt lat="40.088150" lon="-5.475350">
        <ele>1779.0</ele>
        <time>2013-06-30T14:50:43Z</time>
      </trkpt>
      <trkpt lat="40.088067" lon="-5.475450">
        <ele>1778.0</ele>
        <time>2013-06-30T14:50:44Z</time>
      </trkpt>
      <trkpt lat="40.088000" lon="-5.475567">
        <ele>1778.0</ele>
        <time>2013-06-30T14:50:45Z</time>
      </trkpt>
      <trkpt lat="40.087933" lon="-5.475650">
        <ele>1778.0</ele>
        <time>2013-06-30T14:50:46Z</time>
      </trkpt>
      <trkpt lat="40.087850" lon="-5.475750">
        <ele>1778.0</ele>
        <time>2013-06-30T14:50:47Z</time>
      </trkpt>
      <trkpt lat="40.087783" lon="-5.475833">
        <ele>1778.0</ele>
        <time>2013-06-30T14:50:48Z</time>
      </trkpt>
      <trkpt lat="40.087733" lon="-5.475933">
        <ele>1777.0</ele>
        <time>2013-06-30T14:50:49Z</time>
      </trkpt>
      <trkpt lat="40.087650" lon="-5.476033">
        <ele>1776.0</ele>
        <time>2013-06-30T14:50:50Z</time>
      </trkpt>
      <trkpt lat="40.087583" lon="-5.476133">
        <ele>1775.0</ele>
        <time>2013-06-30T14:50:51Z</time>
      </trkpt>
      <trkpt lat="40.087500" lon="-5.476250">
        <ele>1774.0</ele>
        <time>2013-06-30T14:50:52Z</time>
      </trkpt>
      <trkpt lat="40.087433" lon="-5.476350">
        <ele>1774.0</ele>
        <time>2013-06-30T14:50:53Z</time>
      </trkpt>
      <trkpt lat="40.087367" lon="-5.476467">
        <ele>1773.0</ele>
        <time>2013-06-30T14:50:54Z</time>
      </trkpt>
      <trkpt lat="40.087300" lon="-5.476567">
        <ele>1773.0</ele>
        <time>2013-06-30T14:50:55Z</time>
      </trkpt>
      <trkpt lat="40.087233" lon="-5.476683">
        <ele>1772.0</ele>
        <time>2013-06-30T14:50:56Z</time>
      </trkpt>
      <trkpt lat="40.087167" lon="-5.476800">
        <ele>1771.0</ele>
        <time>2013-06-30T14:50:57Z</time>
      </trkpt>
      <trkpt lat="40.087100" lon="-5.476917">
        <ele>1771.0</ele>
        <time>2013-06-30T14:50:58Z</time>
      </trkpt>
      <trkpt lat="40.087033" lon="-5.477033">
        <ele>1771.0</ele>
        <time>2013-06-30T14:50:59Z</time>
      </trkpt>
      <trkpt lat="40.086983" lon="-5.477150">
        <ele>1771.0</ele>
        <time>2013-06-30T14:51:00Z</time>
      </trkpt>
      <trkpt lat="40.086950" lon="-5.477267">
        <ele>1770.0</ele>
        <time>2013-06-30T14:51:01Z</time>
      </trkpt>
      <trkpt lat="40.086883" lon="-5.477400">
        <ele>1770.0</ele>
        <time>2013-06-30T14:51:02Z</time>
      </trkpt>
      <trkpt lat="40.086833" lon="-5.477517">
        <ele>1768.0</ele>
        <time>2013-06-30T14:51:03Z</time>
      </trkpt>
      <trkpt lat="40.086767" lon="-5.477650">
        <ele>1767.0</ele>
        <time>2013-06-30T14:51:04Z</time>
      </trkpt>
      <trkpt lat="40.086700" lon="-5.477783">
        <ele>1768.0</ele>
        <time>2013-06-30T14:51:05Z</time>
      </trkpt>
      <trkpt lat="40.086650" lon="-5.477917">
        <ele>1768.0</ele>
        <time>2013-06-30T14:51:06Z</time>
      </trkpt>
      <trkpt lat="40.086600" lon="-5.478050">
        <ele>1768.0</ele>
        <time>2013-06-30T14:51:07Z</time>
      </trkpt>
      <trkpt lat="40.086567" lon="-5.478167">
        <ele>1767.0</ele>
        <time>2013-06-30T14:51:08Z</time>
      </trkpt>
      <trkpt lat="40.086500" lon="-5.478283">
        <ele>1766.0</ele>
        <time>2013-06-30T14:51:09Z</time>
      </trkpt>
      <trkpt lat="40.086433" lon="-5.478400">
        <ele>1765.0</ele>
        <time>2013-06-30T14:51:10Z</time>
      </trkpt>
      <trkpt lat="40.086383" lon="-5.478533">
        <ele>1764.0</ele>
        <time>2013-06-30T14:51:11Z</time>
      </trkpt>
      <trkpt lat="40.086333" lon="-5.478683">
        <ele>1763.0</ele>
        <time>2013-06-30T14:51:12Z</time>
      </trkpt>
      <trkpt lat="40.086283" lon="-5.478817">
        <ele>1763.0</ele>
        <time>2013-06-30T14:51:13Z</time>
      </trkpt>
      <trkpt lat="40.086217" lon="-5.478933">
        <ele>1763.0</ele>
        <time>2013-06-30T14:51:14Z</time>
      </trkpt>
      <trkpt lat="40.086167" lon="-5.479067">
        <ele>1762.0</ele>
        <time>2013-06-30T14:51:15Z</time>
      </trkpt>
      <trkpt lat="40.086133" lon="-5.479183">
        <ele>1761.0</ele>
        <time>2013-06-30T14:51:16Z</time>
      </trkpt>
      <trkpt lat="40.086100" lon="-5.479317">
        <ele>1760.0</ele>
        <time>2013-06-30T14:51:17Z</time>
      </trkpt>
      <trkpt lat="40.086050" lon="-5.479467">
        <ele>1759.0</ele>
        <time>2013-06-30T14:51:18Z</time>
      </trkpt>
      <trkpt lat="40.086017" lon="-5.479600">
        <ele>1758.0</ele>
        <time>2013-06-30T14:51:19Z</time>
      </trkpt>
      <trkpt lat="40.085967" lon="-5.479733">
        <ele>1758.0</ele>
        <time>2013-06-30T14:51:20Z</time>
      </trkpt>
      <trkpt lat="40.085917" lon="-5.479867">
        <ele>1758.0</ele>
        <time>2013-06-30T14:51:21Z</time>
      </trkpt>
      <trkpt lat="40.085883" lon="-5.479983">
        <ele>1758.0</ele>
        <time>2013-06-30T14:51:22Z</time>
      </trkpt>
      <trkpt lat="40.085833" lon="-5.480117">
        <ele>1758.0</ele>
        <time>2013-06-30T14:51:23Z</time>
      </trkpt>
      <trkpt lat="40.085800" lon="-5.480250">
        <ele>1757.0</ele>
        <time>2013-06-30T14:51:24Z</time>
      </trkpt>
      <trkpt lat="40.085750" lon="-5.480383">
        <ele>1757.0</ele>
        <time>2013-06-30T14:51:25Z</time>
      </trkpt>
      <trkpt lat="40.085700" lon="-5.480517">
        <ele>1756.0</ele>
        <time>2013-06-30T14:51:26Z</time>
      </trkpt>
      <trkpt lat="40.085650" lon="-5.480633">
        <ele>1756.0</ele>
        <time>2013-06-30T14:51:27Z</time>
      </trkpt>
      <trkpt lat="40.085583" lon="-5.480750">
        <ele>1755.0</ele>
        <time>2013-06-30T14:51:28Z</time>
      </trkpt>
      <trkpt lat="40.085517" lon="-5.480850">
        <ele>1755.0</ele>
        <time>2013-06-30T14:51:29Z</time>
      </trkpt>
      <trkpt lat="40.085467" lon="-5.480967">
        <ele>1755.0</ele>
        <time>2013-06-30T14:51:30Z</time>
      </trkpt>
      <trkpt lat="40.085417" lon="-5.481083">
        <ele>1755.0</ele>
        <time>2013-06-30T14:51:31Z</time>
      </trkpt>
      <trkpt lat="40.085383" lon="-5.481183">
        <ele>1754.0</ele>
        <time>2013-06-30T14:51:32Z</time>
      </trkpt>
      <trkpt lat="40.085333" lon="-5.481300">
        <ele>1753.0</ele>
        <time>2013-06-30T14:51:33Z</time>
      </trkpt>
      <trkpt lat="40.085283" lon="-5.481400">
        <ele>1752.0</ele>
        <time>2013-06-30T14:51:34Z</time>
      </trkpt>
      <trkpt lat="40.085217" lon="-5.481500">
        <ele>1751.0</ele>
        <time>2013-06-30T14:51:35Z</time>
      </trkpt>
      <trkpt lat="40.085167" lon="-5.481600">
        <ele>1750.0</ele>
        <time>2013-06-30T14:51:36Z</time>
      </trkpt>
      <trkpt lat="40.085117" lon="-5.481683">
        <ele>1749.0</ele>
        <time>2013-06-30T14:51:37Z</time>
      </trkpt>
      <trkpt lat="40.085067" lon="-5.481783">
        <ele>1748.0</ele>
        <time>2013-06-30T14:51:38Z</time>
      </trkpt>
      <trkpt lat="40.085000" lon="-5.481883">
        <ele>1747.0</ele>
        <time>2013-06-30T14:51:39Z</time>
      </trkpt>
      <trkpt lat="40.084933" lon="-5.481967">
        <ele>1745.0</ele>
        <time>2013-06-30T14:51:40Z</time>
      </trkpt>
      <trkpt lat="40.084867" lon="-5.482067">
        <ele>1743.0</ele>
        <time>2013-06-30T14:51:41Z</time>
      </trkpt>
      <trkpt lat="40.084817" lon="-5.482167">
        <ele>1741.0</ele>
        <time>2013-06-30T14:51:42Z</time>
      </trkpt>
      <trkpt lat="40.084750" lon="-5.482267">
        <ele>1740.0</ele>
        <time>2013-06-30T14:51:43Z</time>
      </trkpt>
      <trkpt lat="40.084683" lon="-5.482367">
        <ele>1738.0</ele>
        <time>2013-06-30T14:51:44Z</time>
      </trkpt>
      <trkpt lat="40.084617" lon="-5.482467">
        <ele>1737.0</ele>
        <time>2013-06-30T14:51:45Z</time>
      </trkpt>
      <trkpt lat="40.084533" lon="-5.482567">
        <ele>1735.0</ele>
        <time>2013-06-30T14:51:46Z</time>
      </trkpt>
      <trkpt lat="40.084450" lon="-5.482667">
        <ele>1734.0</ele>
        <time>2013-06-30T14:51:47Z</time>
      </trkpt>
      <trkpt lat="40.084367" lon="-5.482783">
        <ele>1733.0</ele>
        <time>2013-06-30T14:51:48Z</time>
      </trkpt>
      <trkpt lat="40.084267" lon="-5.482883">
        <ele>1732.0</ele>
        <time>2013-06-30T14:51:49Z</time>
      </trkpt>
      <trkpt lat="40.084200" lon="-5.482967">
        <ele>1732.0</ele>
        <time>2013-06-30T14:51:50Z</time>
      </trkpt>
      <trkpt lat="40.084117" lon="-5.483067">
        <ele>1731.0</ele>
        <time>2013-06-30T14:51:51Z</time>
      </trkpt>
      <trkpt lat="40.084033" lon="-5.483167">
        <ele>1731.0</ele>
        <time>2013-06-30T14:51:52Z</time>
      </trkpt>
      <trkpt lat="40.083950" lon="-5.483250">
        <ele>1730.0</ele>
        <time>2013-06-30T14:51:53Z</time>
      </trkpt>
      <trkpt lat="40.083867" lon="-5.483333">
        <ele>1729.0</ele>
        <time>2013-06-30T14:51:54Z</time>
      </trkpt>
      <trkpt lat="40.083783" lon="-5.483433">
        <ele>1728.0</ele>
        <time>2013-06-30T14:51:55Z</time>
      </trkpt>
      <trkpt lat="40.083717" lon="-5.483533">
        <ele>1727.0</ele>
        <time>2013-06-30T14:51:56Z</time>
      </trkpt>
      <trkpt lat="40.083650" lon="-5.483633">
        <ele>1726.0</ele>
        <time>2013-06-30T14:51:57Z</time>
      </trkpt>
      <trkpt lat="40.083567" lon="-5.483717">
        <ele>1725.0</ele>
        <time>2013-06-30T14:51:58Z</time>
      </trkpt>
      <trkpt lat="40.083500" lon="-5.483817">
        <ele>1724.0</ele>
        <time>2013-06-30T14:51:59Z</time>
      </trkpt>
      <trkpt lat="40.083417" lon="-5.483900">
        <ele>1723.0</ele>
        <time>2013-06-30T14:52:00Z</time>
      </trkpt>
      <trkpt lat="40.083333" lon="-5.483983">
        <ele>1722.0</ele>
        <time>2013-06-30T14:52:01Z</time>
      </trkpt>
      <trkpt lat="40.083250" lon="-5.484083">
        <ele>1720.0</ele>
        <time>2013-06-30T14:52:02Z</time>
      </trkpt>
      <trkpt lat="40.083150" lon="-5.484167">
        <ele>1718.0</ele>
        <time>2013-06-30T14:52:03Z</time>
      </trkpt>
      <trkpt lat="40.083050" lon="-5.484250">
        <ele>1717.0</ele>
        <time>2013-06-30T14:52:04Z</time>
      </trkpt>
      <trkpt lat="40.082967" lon="-5.484333">
        <ele>1717.0</ele>
        <time>2013-06-30T14:52:05Z</time>
      </trkpt>
      <trkpt lat="40.082867" lon="-5.484400">
        <ele>1716.0</ele>
        <time>2013-06-30T14:52:06Z</time>
      </trkpt>
      <trkpt lat="40.082800" lon="-5.484467">
        <ele>1715.0</ele>
        <time>2013-06-30T14:52:07Z</time>
      </trkpt>
      <trkpt lat="40.082717" lon="-5.484533">
        <ele>1714.0</ele>
        <time>2013-06-30T14:52:08Z</time>
      </trkpt>
      <trkpt lat="40.082633" lon="-5.484600">
        <ele>1712.0</ele>
        <time>2013-06-30T14:52:09Z</time>
      </trkpt>
      <trkpt lat="40.082550" lon="-5.484683">
        <ele>1711.0</ele>
        <time>2013-06-30T14:52:10Z</time>
      </trkpt>
      <trkpt lat="40.082467" lon="-5.484767">
        <ele>1709.0</ele>
        <time>2013-06-30T14:52:11Z</time>
      </trkpt>
      <trkpt lat="40.082383" lon="-5.484867">
        <ele>1708.0</ele>
        <time>2013-06-30T14:52:12Z</time>
      </trkpt>
      <trkpt lat="40.082300" lon="-5.484950">
        <ele>1707.0</ele>
        <time>2013-06-30T14:52:13Z</time>
      </trkpt>
      <trkpt lat="40.082217" lon="-5.485033">
        <ele>1706.0</ele>
        <time>2013-06-30T14:52:14Z</time>
      </trkpt>
      <trkpt lat="40.082133" lon="-5.485100">
        <ele>1704.0</ele>
        <time>2013-06-30T14:52:15Z</time>
      </trkpt>
      <trkpt lat="40.082067" lon="-5.485183">
        <ele>1702.0</ele>
        <time>2013-06-30T14:52:16Z</time>
      </trkpt>
      <trkpt lat="40.081983" lon="-5.485250">
        <ele>1700.0</ele>
        <time>2013-06-30T14:52:17Z</time>
      </trkpt>
      <trkpt lat="40.081900" lon="-5.485350">
        <ele>1696.0</ele>
        <time>2013-06-30T14:52:18Z</time>
      </trkpt>
      <trkpt lat="40.081800" lon="-5.485450">
        <ele>1692.0</ele>
        <time>2013-06-30T14:52:19Z</time>
      </trkpt>
      <trkpt lat="40.081717" lon="-5.485550">
        <ele>1688.0</ele>
        <time>2013-06-30T14:52:20Z</time>
      </trkpt>
      <trkpt lat="40.081633" lon="-5.485633">
        <ele>1684.0</ele>
        <time>2013-06-30T14:52:21Z</time>
      </trkpt>
      <trkpt lat="40.081550" lon="-5.485733">
        <ele>1679.0</ele>
        <time>2013-06-30T14:52:22Z</time>
      </trkpt>
      <trkpt lat="40.081467" lon="-5.485833">
        <ele>1675.0</ele>
        <time>2013-06-30T14:52:23Z</time>
      </trkpt>
      <trkpt lat="40.081383" lon="-5.485950">
        <ele>1670.0</ele>
        <time>2013-06-30T14:52:24Z</time>
      </trkpt>
      <trkpt lat="40.081300" lon="-5.486067">
        <ele>1664.0</ele>
        <time>2013-06-30T14:52:25Z</time>
      </trkpt>
      <trkpt lat="40.081217" lon="-5.486200">
        <ele>1660.0</ele>
        <time>2013-06-30T14:52:26Z</time>
      </trkpt>
      <trkpt lat="40.081150" lon="-5.486333">
        <ele>1655.0</ele>
        <time>2013-06-30T14:52:27Z</time>
      </trkpt>
      <trkpt lat="40.081100" lon="-5.486467">
        <ele>1650.0</ele>
        <time>2013-06-30T14:52:28Z</time>
      </trkpt>
      <trkpt lat="40.081033" lon="-5.486600">
        <ele>1645.0</ele>
        <time>2013-06-30T14:52:29Z</time>
      </trkpt>
      <trkpt lat="40.080983" lon="-5.486733">
        <ele>1641.0</ele>
        <time>2013-06-30T14:52:30Z</time>
      </trkpt>
      <trkpt lat="40.080933" lon="-5.486867">
        <ele>1636.0</ele>
        <time>2013-06-30T14:52:31Z</time>
      </trkpt>
      <trkpt lat="40.080883" lon="-5.487000">
        <ele>1633.0</ele>
        <time>2013-06-30T14:52:32Z</time>
      </trkpt>
      <trkpt lat="40.080850" lon="-5.487117">
        <ele>1629.0</ele>
        <time>2013-06-30T14:52:33Z</time>
      </trkpt>
      <trkpt lat="40.080817" lon="-5.487267">
        <ele>1626.0</ele>
        <time>2013-06-30T14:52:34Z</time>
      </trkpt>
      <trkpt lat="40.080800" lon="-5.487383">
        <ele>1622.0</ele>
        <time>2013-06-30T14:52:35Z</time>
      </trkpt>
      <trkpt lat="40.080767" lon="-5.487517">
        <ele>1619.0</ele>
        <time>2013-06-30T14:52:36Z</time>
      </trkpt>
      <trkpt lat="40.080733" lon="-5.487650">
        <ele>1615.0</ele>
        <time>2013-06-30T14:52:37Z</time>
      </trkpt>
      <trkpt lat="40.080717" lon="-5.487783">
        <ele>1610.0</ele>
        <time>2013-06-30T14:52:38Z</time>
      </trkpt>
      <trkpt lat="40.080683" lon="-5.487933">
        <ele>1606.0</ele>
        <time>2013-06-30T14:52:39Z</time>
      </trkpt>
      <trkpt lat="40.080667" lon="-5.488083">
        <ele>1603.0</ele>
        <time>2013-06-30T14:52:40Z</time>
      </trkpt>
      <trkpt lat="40.080650" lon="-5.488233">
        <ele>1600.0</ele>
        <time>2013-06-30T14:52:41Z</time>
      </trkpt>
      <trkpt lat="40.080617" lon="-5.488367">
        <ele>1596.0</ele>
        <time>2013-06-30T14:52:42Z</time>
      </trkpt>
      <trkpt lat="40.080583" lon="-5.488517">
        <ele>1593.0</ele>
        <time>2013-06-30T14:52:43Z</time>
      </trkpt>
      <trkpt lat="40.080567" lon="-5.488650">
        <ele>1590.0</ele>
        <time>2013-06-30T14:52:44Z</time>
      </trkpt>
      <trkpt lat="40.080550" lon="-5.488767">
        <ele>1587.0</ele>
        <time>2013-06-30T14:52:45Z</time>
      </trkpt>
      <trkpt lat="40.080517" lon="-5.488900">
        <ele>1583.0</ele>
        <time>2013-06-30T14:52:46Z</time>
      </trkpt>
      <trkpt lat="40.080500" lon="-5.489017">
        <ele>1579.0</ele>
        <time>2013-06-30T14:52:47Z</time>
      </trkpt>
      <trkpt lat="40.080467" lon="-5.489150">
        <ele>1574.0</ele>
        <time>2013-06-30T14:52:48Z</time>
      </trkpt>
      <trkpt lat="40.080433" lon="-5.489283">
        <ele>1570.0</ele>
        <time>2013-06-30T14:52:49Z</time>
      </trkpt>
      <trkpt lat="40.080400" lon="-5.489433">
        <ele>1567.0</ele>
        <time>2013-06-30T14:52:50Z</time>
      </trkpt>
      <trkpt lat="40.080383" lon="-5.489567">
        <ele>1564.0</ele>
        <time>2013-06-30T14:52:51Z</time>
      </trkpt>
      <trkpt lat="40.080350" lon="-5.489683">
        <ele>1561.0</ele>
        <time>2013-06-30T14:52:52Z</time>
      </trkpt>
      <trkpt lat="40.080333" lon="-5.489800">
        <ele>1557.0</ele>
        <time>2013-06-30T14:52:53Z</time>
      </trkpt>
      <trkpt lat="40.080300" lon="-5.489917">
        <ele>1553.0</ele>
        <time>2013-06-30T14:52:54Z</time>
      </trkpt>
      <trkpt lat="40.080267" lon="-5.490033">
        <ele>1549.0</ele>
        <time>2013-06-30T14:52:55Z</time>
      </trkpt>
      <trkpt lat="40.080233" lon="-5.490167">
        <ele>1544.0</ele>
        <time>2013-06-30T14:52:56Z</time>
      </trkpt>
      <trkpt lat="40.080183" lon="-5.490300">
        <ele>1540.0</ele>
        <time>2013-06-30T14:52:57Z</time>
      </trkpt>
      <trkpt lat="40.080150" lon="-5.490433">
        <ele>1537.0</ele>
        <time>2013-06-30T14:52:58Z</time>
      </trkpt>
      <trkpt lat="40.080117" lon="-5.490567">
        <ele>1533.0</ele>
        <time>2013-06-30T14:52:59Z</time>
      </trkpt>
      <trkpt lat="40.080083" lon="-5.490683">
        <ele>1530.0</ele>
        <time>2013-06-30T14:53:00Z</time>
      </trkpt>
      <trkpt lat="40.080050" lon="-5.490817">
        <ele>1526.0</ele>
        <time>2013-06-30T14:53:01Z</time>
      </trkpt>
      <trkpt lat="40.080000" lon="-5.490950">
        <ele>1523.0</ele>
        <time>2013-06-30T14:53:02Z</time>
      </trkpt>
      <trkpt lat="40.079950" lon="-5.491083">
        <ele>1520.0</ele>
        <time>2013-06-30T14:53:03Z</time>
      </trkpt>
      <trkpt lat="40.079917" lon="-5.491217">
        <ele>1517.0</ele>
        <time>2013-06-30T14:53:04Z</time>
      </trkpt>
      <trkpt lat="40.079900" lon="-5.491350">
        <ele>1515.0</ele>
        <time>2013-06-30T14:53:05Z</time>
      </trkpt>
      <trkpt lat="40.079883" lon="-5.491483">
        <ele>1512.0</ele>
        <time>2013-06-30T14:53:06Z</time>
      </trkpt>
      <trkpt lat="40.079850" lon="-5.491617">
        <ele>1510.0</ele>
        <time>2013-06-30T14:53:07Z</time>
      </trkpt>
      <trkpt lat="40.079833" lon="-5.491750">
        <ele>1508.0</ele>
        <time>2013-06-30T14:53:08Z</time>
      </trkpt>
      <trkpt lat="40.079817" lon="-5.491867">
        <ele>1506.0</ele>
        <time>2013-06-30T14:53:09Z</time>
      </trkpt>
      <trkpt lat="40.079783" lon="-5.492000">
        <ele>1504.0</ele>
        <time>2013-06-30T14:53:10Z</time>
      </trkpt>
      <trkpt lat="40.079767" lon="-5.492133">
        <ele>1502.0</ele>
        <time>2013-06-30T14:53:11Z</time>
      </trkpt>
      <trkpt lat="40.079717" lon="-5.492250">
        <ele>1500.0</ele>
        <time>2013-06-30T14:53:12Z</time>
      </trkpt>
      <trkpt lat="40.079683" lon="-5.492400">
        <ele>1499.0</ele>
        <time>2013-06-30T14:53:13Z</time>
      </trkpt>
      <trkpt lat="40.079650" lon="-5.492533">
        <ele>1497.0</ele>
        <time>2013-06-30T14:53:14Z</time>
      </trkpt>
      <trkpt lat="40.079617" lon="-5.492683">
        <ele>1496.0</ele>
        <time>2013-06-30T14:53:15Z</time>
      </trkpt>
      <trkpt lat="40.079583" lon="-5.492817">
        <ele>1495.0</ele>
        <time>2013-06-30T14:53:16Z</time>
      </trkpt>
      <trkpt lat="40.079517" lon="-5.492950">
        <ele>1494.0</ele>
        <time>2013-06-30T14:53:17Z</time>
      </trkpt>
      <trkpt lat="40.079467" lon="-5.493067">
        <ele>1493.0</ele>
        <time>2013-06-30T14:53:18Z</time>
      </trkpt>
      <trkpt lat="40.079417" lon="-5.493183">
        <ele>1493.0</ele>
        <time>2013-06-30T14:53:19Z</time>
      </trkpt>
      <trkpt lat="40.079367" lon="-5.493317">
        <ele>1493.0</ele>
        <time>2013-06-30T14:53:20Z</time>
      </trkpt>
      <trkpt lat="40.079317" lon="-5.493450">
        <ele>1493.0</ele>
        <time>2013-06-30T14:53:21Z</time>
      </trkpt>
      <trkpt lat="40.079250" lon="-5.493567">
        <ele>1493.0</ele>
        <time>2013-06-30T14:53:22Z</time>
      </trkpt>
      <trkpt lat="40.079200" lon="-5.493683">
        <ele>1493.0</ele>
        <time>2013-06-30T14:53:23Z</time>
      </trkpt>
      <trkpt lat="40.079150" lon="-5.493783">
        <ele>1494.0</ele>
        <time>2013-06-30T14:53:24Z</time>
      </trkpt>
      <trkpt lat="40.079117" lon="-5.493883">
        <ele>1494.0</ele>
        <time>2013-06-30T14:53:25Z</time>
      </trkpt>
      <trkpt lat="40.079067" lon="-5.494000">
        <ele>1495.0</ele>
        <time>2013-06-30T14:53:26Z</time>
      </trkpt>
      <trkpt lat="40.079017" lon="-5.494133">
        <ele>1495.0</ele>
        <time>2013-06-30T14:53:27Z</time>
      </trkpt>
      <trkpt lat="40.078950" lon="-5.494233">
        <ele>1496.0</ele>
        <time>2013-06-30T14:53:28Z</time>
      </trkpt>
      <trkpt lat="40.078900" lon="-5.494333">
        <ele>1497.0</ele>
        <time>2013-06-30T14:53:29Z</time>
      </trkpt>
      <trkpt lat="40.078867" lon="-5.494433">
        <ele>1498.0</ele>
        <time>2013-06-30T14:53:30Z</time>
      </trkpt>
      <trkpt lat="40.078817" lon="-5.494517">
        <ele>1498.0</ele>
        <time>2013-06-30T14:53:31Z</time>
      </trkpt>
      <trkpt lat="40.078800" lon="-5.494617">
        <ele>1498.0</ele>
        <time>2013-06-30T14:53:32Z</time>
      </trkpt>
      <trkpt lat="40.078767" lon="-5.494717">
        <ele>1497.0</ele>
        <time>2013-06-30T14:53:33Z</time>
      </trkpt>
      <trkpt lat="40.078733" lon="-5.494833">
        <ele>1496.0</ele>
        <time>2013-06-30T14:53:34Z</time>
      </trkpt>
      <trkpt lat="40.078700" lon="-5.494967">
        <ele>1495.0</ele>
        <time>2013-06-30T14:53:35Z</time>
      </trkpt>
      <trkpt lat="40.078667" lon="-5.495117">
        <ele>1494.0</ele>
        <time>2013-06-30T14:53:36Z</time>
      </trkpt>
      <trkpt lat="40.078633" lon="-5.495250">
        <ele>1493.0</ele>
        <time>2013-06-30T14:53:37Z</time>
      </trkpt>
      <trkpt lat="40.078583" lon="-5.495383">
        <ele>1494.0</ele>
        <time>2013-06-30T14:53:38Z</time>
      </trkpt>
      <trkpt lat="40.078550" lon="-5.495500">
        <ele>1494.0</ele>
        <time>2013-06-30T14:53:39Z</time>
      </trkpt>
      <trkpt lat="40.078517" lon="-5.495617">
        <ele>1493.0</ele>
        <time>2013-06-30T14:53:40Z</time>
      </trkpt>
      <trkpt lat="40.078483" lon="-5.495767">
        <ele>1493.0</ele>
        <time>2013-06-30T14:53:41Z</time>
      </trkpt>
      <trkpt lat="40.078433" lon="-5.495900">
        <ele>1493.0</ele>
        <time>2013-06-30T14:53:42Z</time>
      </trkpt>
      <trkpt lat="40.078400" lon="-5.496050">
        <ele>1493.0</ele>
        <time>2013-06-30T14:53:43Z</time>
      </trkpt>
      <trkpt lat="40.078367" lon="-5.496183">
        <ele>1494.0</ele>
        <time>2013-06-30T14:53:44Z</time>
      </trkpt>
      <trkpt lat="40.078333" lon="-5.496300">
        <ele>1494.0</ele>
        <time>2013-06-30T14:53:45Z</time>
      </trkpt>
      <trkpt lat="40.078300" lon="-5.496433">
        <ele>1494.0</ele>
        <time>2013-06-30T14:53:46Z</time>
      </trkpt>
      <trkpt lat="40.078283" lon="-5.496550">
        <ele>1494.0</ele>
        <time>2013-06-30T14:53:47Z</time>
      </trkpt>
      <trkpt lat="40.078250" lon="-5.496667">
        <ele>1495.0</ele>
        <time>2013-06-30T14:53:48Z</time>
      </trkpt>
      <trkpt lat="40.078233" lon="-5.496767">
        <ele>1495.0</ele>
        <time>2013-06-30T14:53:49Z</time>
      </trkpt>
      <trkpt lat="40.078217" lon="-5.496867">
        <ele>1495.0</ele>
        <time>2013-06-30T14:53:50Z</time>
      </trkpt>
      <trkpt lat="40.078183" lon="-5.496950">
        <ele>1495.0</ele>
        <time>2013-06-30T14:53:51Z</time>
      </trkpt>
      <trkpt lat="40.078150" lon="-5.497050">
        <ele>1495.0</ele>
        <time>2013-06-30T14:53:52Z</time>
      </trkpt>
      <trkpt lat="40.078100" lon="-5.497150">
        <ele>1494.0</ele>
        <time>2013-06-30T14:53:53Z</time>
      </trkpt>
      <trkpt lat="40.078033" lon="-5.497233">
        <ele>1494.0</ele>
        <time>2013-06-30T14:53:54Z</time>
      </trkpt>
      <trkpt lat="40.077983" lon="-5.497317">
        <ele>1495.0</ele>
        <time>2013-06-30T14:53:55Z</time>
      </trkpt>
      <trkpt lat="40.077917" lon="-5.497417">
        <ele>1496.0</ele>
        <time>2013-06-30T14:53:56Z</time>
      </trkpt>
      <trkpt lat="40.077867" lon="-5.497517">
        <ele>1496.0</ele>
        <time>2013-06-30T14:53:57Z</time>
      </trkpt>
      <trkpt lat="40.077817" lon="-5.497617">
        <ele>1496.0</ele>
        <time>2013-06-30T14:53:58Z</time>
      </trkpt>
      <trkpt lat="40.077767" lon="-5.497750">
        <ele>1496.0</ele>
        <time>2013-06-30T14:53:59Z</time>
      </trkpt>
      <trkpt lat="40.077717" lon="-5.497883">
        <ele>1495.0</ele>
        <time>2013-06-30T14:54:00Z</time>
      </trkpt>
      <trkpt lat="40.077667" lon="-5.498017">
        <ele>1495.0</ele>
        <time>2013-06-30T14:54:01Z</time>
      </trkpt>
      <trkpt lat="40.077617" lon="-5.498167">
        <ele>1495.0</ele>
        <time>2013-06-30T14:54:02Z</time>
      </trkpt>
      <trkpt lat="40.077567" lon="-5.498300">
        <ele>1495.0</ele>
        <time>2013-06-30T14:54:03Z</time>
      </trkpt>
      <trkpt lat="40.077517" lon="-5.498417">
        <ele>1495.0</ele>
        <time>2013-06-30T14:54:04Z</time>
      </trkpt>
      <trkpt lat="40.077467" lon="-5.498517">
        <ele>1495.0</ele>
        <time>2013-06-30T14:54:05Z</time>
      </trkpt>
      <trkpt lat="40.077433" lon="-5.498617">
        <ele>1494.0</ele>
        <time>2013-06-30T14:54:06Z</time>
      </trkpt>
      <trkpt lat="40.077400" lon="-5.498717">
        <ele>1492.0</ele>
        <time>2013-06-30T14:54:07Z</time>
      </trkpt>
      <trkpt lat="40.077367" lon="-5.498833">
        <ele>1491.0</ele>
        <time>2013-06-30T14:54:08Z</time>
      </trkpt>
      <trkpt lat="40.077333" lon="-5.498950">
        <ele>1489.0</ele>
        <time>2013-06-30T14:54:09Z</time>
      </trkpt>
      <trkpt lat="40.077283" lon="-5.499067">
        <ele>1487.0</ele>
        <time>2013-06-30T14:54:10Z</time>
      </trkpt>
      <trkpt lat="40.077233" lon="-5.499200">
        <ele>1486.0</ele>
        <time>2013-06-30T14:54:11Z</time>
      </trkpt>
      <trkpt lat="40.077183" lon="-5.499350">
        <ele>1484.0</ele>
        <time>2013-06-30T14:54:12Z</time>
      </trkpt>
      <trkpt lat="40.077133" lon="-5.499483">
        <ele>1483.0</ele>
        <time>2013-06-30T14:54:13Z</time>
      </trkpt>
      <trkpt lat="40.077083" lon="-5.499617">
        <ele>1481.0</ele>
        <time>2013-06-30T14:54:14Z</time>
      </trkpt>
      <trkpt lat="40.077033" lon="-5.499750">
        <ele>1479.0</ele>
        <time>2013-06-30T14:54:15Z</time>
      </trkpt>
      <trkpt lat="40.076983" lon="-5.499883">
        <ele>1478.0</ele>
        <time>2013-06-30T14:54:16Z</time>
      </trkpt>
      <trkpt lat="40.076933" lon="-5.500017">
        <ele>1475.0</ele>
        <time>2013-06-30T14:54:17Z</time>
      </trkpt>
      <trkpt lat="40.076883" lon="-5.500150">
        <ele>1474.0</ele>
        <time>2013-06-30T14:54:18Z</time>
      </trkpt>
      <trkpt lat="40.076817" lon="-5.500300">
        <ele>1472.0</ele>
        <time>2013-06-30T14:54:19Z</time>
      </trkpt>
      <trkpt lat="40.076767" lon="-5.500433">
        <ele>1470.0</ele>
        <time>2013-06-30T14:54:20Z</time>
      </trkpt>
      <trkpt lat="40.076717" lon="-5.500583">
        <ele>1468.0</ele>
        <time>2013-06-30T14:54:21Z</time>
      </trkpt>
      <trkpt lat="40.076667" lon="-5.500717">
        <ele>1465.0</ele>
        <time>2013-06-30T14:54:22Z</time>
      </trkpt>
      <trkpt lat="40.076600" lon="-5.500850">
        <ele>1463.0</ele>
        <time>2013-06-30T14:54:23Z</time>
      </trkpt>
      <trkpt lat="40.076550" lon="-5.501000">
        <ele>1460.0</ele>
        <time>2013-06-30T14:54:24Z</time>
      </trkpt>
      <trkpt lat="40.076483" lon="-5.501133">
        <ele>1458.0</ele>
        <time>2013-06-30T14:54:25Z</time>
      </trkpt>
      <trkpt lat="40.076417" lon="-5.501267">
        <ele>1457.0</ele>
        <time>2013-06-30T14:54:26Z</time>
      </trkpt>
      <trkpt lat="40.076350" lon="-5.501367">
        <ele>1455.0</ele>
        <time>2013-06-30T14:54:27Z</time>
      </trkpt>
      <trkpt lat="40.076283" lon="-5.501483">
        <ele>1454.0</ele>
        <time>2013-06-30T14:54:28Z</time>
      </trkpt>
      <trkpt lat="40.076200" lon="-5.501583">
        <ele>1452.0</ele>
        <time>2013-06-30T14:54:29Z</time>
      </trkpt>
      <trkpt lat="40.076133" lon="-5.501700">
        <ele>1450.0</ele>
        <time>2013-06-30T14:54:30Z</time>
      </trkpt>
      <trkpt lat="40.076067" lon="-5.501817">
        <ele>1449.0</ele>
        <time>2013-06-30T14:54:31Z</time>
      </trkpt>
      <trkpt lat="40.075983" lon="-5.501933">
        <ele>1447.0</ele>
        <time>2013-06-30T14:54:32Z</time>
      </trkpt>
      <trkpt lat="40.075900" lon="-5.502050">
        <ele>1445.0</ele>
        <time>2013-06-30T14:54:33Z</time>
      </trkpt>
      <trkpt lat="40.075817" lon="-5.502150">
        <ele>1443.0</ele>
        <time>2013-06-30T14:54:34Z</time>
      </trkpt>
      <trkpt lat="40.075750" lon="-5.502250">
        <ele>1442.0</ele>
        <time>2013-06-30T14:54:35Z</time>
      </trkpt>
      <trkpt lat="40.075683" lon="-5.502367">
        <ele>1439.0</ele>
        <time>2013-06-30T14:54:36Z</time>
      </trkpt>
      <trkpt lat="40.075617" lon="-5.502467">
        <ele>1438.0</ele>
        <time>2013-06-30T14:54:37Z</time>
      </trkpt>
      <trkpt lat="40.075550" lon="-5.502583">
        <ele>1435.0</ele>
        <time>2013-06-30T14:54:38Z</time>
      </trkpt>
      <trkpt lat="40.075467" lon="-5.502683">
        <ele>1433.0</ele>
        <time>2013-06-30T14:54:39Z</time>
      </trkpt>
      <trkpt lat="40.075400" lon="-5.502800">
        <ele>1431.0</ele>
        <time>2013-06-30T14:54:40Z</time>
      </trkpt>
      <trkpt lat="40.075333" lon="-5.502900">
        <ele>1429.0</ele>
        <time>2013-06-30T14:54:41Z</time>
      </trkpt>
      <trkpt lat="40.075283" lon="-5.503017">
        <ele>1427.0</ele>
        <time>2013-06-30T14:54:42Z</time>
      </trkpt>
      <trkpt lat="40.075233" lon="-5.503133">
        <ele>1424.0</ele>
        <time>2013-06-30T14:54:43Z</time>
      </trkpt>
      <trkpt lat="40.075167" lon="-5.503250">
        <ele>1422.0</ele>
        <time>2013-06-30T14:54:44Z</time>
      </trkpt>
      <trkpt lat="40.075100" lon="-5.503367">
        <ele>1420.0</ele>
        <time>2013-06-30T14:54:45Z</time>
      </trkpt>
      <trkpt lat="40.075033" lon="-5.503483">
        <ele>1418.0</ele>
        <time>2013-06-30T14:54:46Z</time>
      </trkpt>
      <trkpt lat="40.074983" lon="-5.503567">
        <ele>1417.0</ele>
        <time>2013-06-30T14:54:47Z</time>
      </trkpt>
      <trkpt lat="40.074933" lon="-5.503650">
        <ele>1416.0</ele>
        <time>2013-06-30T14:54:48Z</time>
      </trkpt>
      <trkpt lat="40.074883" lon="-5.503750">
        <ele>1413.0</ele>
        <time>2013-06-30T14:54:49Z</time>
      </trkpt>
      <trkpt lat="40.074817" lon="-5.503867">
        <ele>1411.0</ele>
        <time>2013-06-30T14:54:50Z</time>
      </trkpt>
      <trkpt lat="40.074750" lon="-5.503983">
        <ele>1410.0</ele>
        <time>2013-06-30T14:54:51Z</time>
      </trkpt>
      <trkpt lat="40.074700" lon="-5.504083">
        <ele>1408.0</ele>
        <time>2013-06-30T14:54:52Z</time>
      </trkpt>
      <trkpt lat="40.074633" lon="-5.504183">
        <ele>1406.0</ele>
        <time>2013-06-30T14:54:53Z</time>
      </trkpt>
      <trkpt lat="40.074583" lon="-5.504283">
        <ele>1404.0</ele>
        <time>2013-06-30T14:54:54Z</time>
      </trkpt>
      <trkpt lat="40.074550" lon="-5.504383">
        <ele>1401.0</ele>
        <time>2013-06-30T14:54:55Z</time>
      </trkpt>
      <trkpt lat="40.074500" lon="-5.504500">
        <ele>1397.0</ele>
        <time>2013-06-30T14:54:56Z</time>
      </trkpt>
      <trkpt lat="40.074450" lon="-5.504617">
        <ele>1394.0</ele>
        <time>2013-06-30T14:54:57Z</time>
      </trkpt>
      <trkpt lat="40.074400" lon="-5.504733">
        <ele>1392.0</ele>
        <time>2013-06-30T14:54:58Z</time>
      </trkpt>
      <trkpt lat="40.074333" lon="-5.504850">
        <ele>1390.0</ele>
        <time>2013-06-30T14:54:59Z</time>
      </trkpt>
      <trkpt lat="40.074283" lon="-5.504967">
        <ele>1388.0</ele>
        <time>2013-06-30T14:55:00Z</time>
      </trkpt>
      <trkpt lat="40.074233" lon="-5.505083">
        <ele>1386.0</ele>
        <time>2013-06-30T14:55:01Z</time>
      </trkpt>
      <trkpt lat="40.074183" lon="-5.505183">
        <ele>1385.0</ele>
        <time>2013-06-30T14:55:02Z</time>
      </trkpt>
      <trkpt lat="40.074117" lon="-5.505283">
        <ele>1383.0</ele>
        <time>2013-06-30T14:55:03Z</time>
      </trkpt>
      <trkpt lat="40.074050" lon="-5.505383">
        <ele>1382.0</ele>
        <time>2013-06-30T14:55:04Z</time>
      </trkpt>
      <trkpt lat="40.073967" lon="-5.505483">
        <ele>1380.0</ele>
        <time>2013-06-30T14:55:05Z</time>
      </trkpt>
      <trkpt lat="40.073900" lon="-5.505600">
        <ele>1379.0</ele>
        <time>2013-06-30T14:55:06Z</time>
      </trkpt>
      <trkpt lat="40.073817" lon="-5.505717">
        <ele>1378.0</ele>
        <time>2013-06-30T14:55:07Z</time>
      </trkpt>
      <trkpt lat="40.073750" lon="-5.505817">
        <ele>1378.0</ele>
        <time>2013-06-30T14:55:08Z</time>
      </trkpt>
      <trkpt lat="40.073683" lon="-5.505917">
        <ele>1377.0</ele>
        <time>2013-06-30T14:55:09Z</time>
      </trkpt>
      <trkpt lat="40.073617" lon="-5.506017">
        <ele>1377.0</ele>
        <time>2013-06-30T14:55:10Z</time>
      </trkpt>
      <trkpt lat="40.073550" lon="-5.506133">
        <ele>1375.0</ele>
        <time>2013-06-30T14:55:11Z</time>
      </trkpt>
      <trkpt lat="40.073483" lon="-5.506250">
        <ele>1373.0</ele>
        <time>2013-06-30T14:55:12Z</time>
      </trkpt>
      <trkpt lat="40.073417" lon="-5.506367">
        <ele>1372.0</ele>
        <time>2013-06-30T14:55:13Z</time>
      </trkpt>
      <trkpt lat="40.073350" lon="-5.506483">
        <ele>1371.0</ele>
        <time>2013-06-30T14:55:14Z</time>
      </trkpt>
      <trkpt lat="40.073300" lon="-5.506600">
        <ele>1370.0</ele>
        <time>2013-06-30T14:55:15Z</time>
      </trkpt>
      <trkpt lat="40.073233" lon="-5.506717">
        <ele>1370.0</ele>
        <time>2013-06-30T14:55:16Z</time>
      </trkpt>
      <trkpt lat="40.073183" lon="-5.506817">
        <ele>1369.0</ele>
        <time>2013-06-30T14:55:17Z</time>
      </trkpt>
      <trkpt lat="40.073133" lon="-5.506933">
        <ele>1368.0</ele>
        <time>2013-06-30T14:55:18Z</time>
      </trkpt>
      <trkpt lat="40.073083" lon="-5.507050">
        <ele>1366.0</ele>
        <time>2013-06-30T14:55:19Z</time>
      </trkpt>
      <trkpt lat="40.073033" lon="-5.507167">
        <ele>1365.0</ele>
        <time>2013-06-30T14:55:20Z</time>
      </trkpt>
      <trkpt lat="40.072983" lon="-5.507283">
        <ele>1364.0</ele>
        <time>2013-06-30T14:55:21Z</time>
      </trkpt>
      <trkpt lat="40.072950" lon="-5.507400">
        <ele>1362.0</ele>
        <time>2013-06-30T14:55:22Z</time>
      </trkpt>
      <trkpt lat="40.072900" lon="-5.507517">
        <ele>1360.0</ele>
        <time>2013-06-30T14:55:23Z</time>
      </trkpt>
      <trkpt lat="40.072867" lon="-5.507617">
        <ele>1358.0</ele>
        <time>2013-06-30T14:55:24Z</time>
      </trkpt>
      <trkpt lat="40.072817" lon="-5.507733">
        <ele>1357.0</ele>
        <time>2013-06-30T14:55:25Z</time>
      </trkpt>
      <trkpt lat="40.072767" lon="-5.507850">
        <ele>1355.0</ele>
        <time>2013-06-30T14:55:26Z</time>
      </trkpt>
      <trkpt lat="40.072733" lon="-5.507967">
        <ele>1353.0</ele>
        <time>2013-06-30T14:55:27Z</time>
      </trkpt>
      <trkpt lat="40.072700" lon="-5.508083">
        <ele>1351.0</ele>
        <time>2013-06-30T14:55:28Z</time>
      </trkpt>
      <trkpt lat="40.072667" lon="-5.508200">
        <ele>1349.0</ele>
        <time>2013-06-30T14:55:29Z</time>
      </trkpt>
      <trkpt lat="40.072633" lon="-5.508333">
        <ele>1348.0</ele>
        <time>2013-06-30T14:55:30Z</time>
      </trkpt>
      <trkpt lat="40.072600" lon="-5.508467">
        <ele>1346.0</ele>
        <time>2013-06-30T14:55:31Z</time>
      </trkpt>
      <trkpt lat="40.072583" lon="-5.508583">
        <ele>1345.0</ele>
        <time>2013-06-30T14:55:32Z</time>
      </trkpt>
      <trkpt lat="40.072550" lon="-5.508700">
        <ele>1344.0</ele>
        <time>2013-06-30T14:55:33Z</time>
      </trkpt>
      <trkpt lat="40.072533" lon="-5.508817">
        <ele>1343.0</ele>
        <time>2013-06-30T14:55:34Z</time>
      </trkpt>
      <trkpt lat="40.072500" lon="-5.508917">
        <ele>1342.0</ele>
        <time>2013-06-30T14:55:35Z</time>
      </trkpt>
      <trkpt lat="40.072467" lon="-5.509033">
        <ele>1340.0</ele>
        <time>2013-06-30T14:55:36Z</time>
      </trkpt>
      <trkpt lat="40.072433" lon="-5.509150">
        <ele>1338.0</ele>
        <time>2013-06-30T14:55:37Z</time>
      </trkpt>
      <trkpt lat="40.072383" lon="-5.509283">
        <ele>1337.0</ele>
        <time>2013-06-30T14:55:38Z</time>
      </trkpt>
      <trkpt lat="40.072333" lon="-5.509400">
        <ele>1336.0</ele>
        <time>2013-06-30T14:55:39Z</time>
      </trkpt>
      <trkpt lat="40.072300" lon="-5.509517">
        <ele>1335.0</ele>
        <time>2013-06-30T14:55:40Z</time>
      </trkpt>
      <trkpt lat="40.072267" lon="-5.509633">
        <ele>1333.0</ele>
        <time>2013-06-30T14:55:41Z</time>
      </trkpt>
      <trkpt lat="40.072233" lon="-5.509750">
        <ele>1332.0</ele>
        <time>2013-06-30T14:55:42Z</time>
      </trkpt>
      <trkpt lat="40.072183" lon="-5.509883">
        <ele>1331.0</ele>
        <time>2013-06-30T14:55:43Z</time>
      </trkpt>
      <trkpt lat="40.072133" lon="-5.510000">
        <ele>1330.0</ele>
        <time>2013-06-30T14:55:44Z</time>
      </trkpt>
      <trkpt lat="40.072100" lon="-5.510117">
        <ele>1329.0</ele>
        <time>2013-06-30T14:55:45Z</time>
      </trkpt>
      <trkpt lat="40.072067" lon="-5.510233">
        <ele>1327.0</ele>
        <time>2013-06-30T14:55:46Z</time>
      </trkpt>
      <trkpt lat="40.072033" lon="-5.510350">
        <ele>1326.0</ele>
        <time>2013-06-30T14:55:47Z</time>
      </trkpt>
      <trkpt lat="40.072000" lon="-5.510467">
        <ele>1325.0</ele>
        <time>2013-06-30T14:55:48Z</time>
      </trkpt>
      <trkpt lat="40.071967" lon="-5.510600">
        <ele>1323.0</ele>
        <time>2013-06-30T14:55:49Z</time>
      </trkpt>
      <trkpt lat="40.071933" lon="-5.510750">
        <ele>1322.0</ele>
        <time>2013-06-30T14:55:50Z</time>
      </trkpt>
      <trkpt lat="40.071900" lon="-5.510883">
        <ele>1321.0</ele>
        <time>2013-06-30T14:55:51Z</time>
      </trkpt>
      <trkpt lat="40.071850" lon="-5.511000">
        <ele>1320.0</ele>
        <time>2013-06-30T14:55:52Z</time>
      </trkpt>
      <trkpt lat="40.071800" lon="-5.511133">
        <ele>1320.0</ele>
        <time>2013-06-30T14:55:53Z</time>
      </trkpt>
      <trkpt lat="40.071767" lon="-5.511250">
        <ele>1319.0</ele>
        <time>2013-06-30T14:55:54Z</time>
      </trkpt>
      <trkpt lat="40.071717" lon="-5.511367">
        <ele>1318.0</ele>
        <time>2013-06-30T14:55:55Z</time>
      </trkpt>
      <trkpt lat="40.071667" lon="-5.511517">
        <ele>1317.0</ele>
        <time>2013-06-30T14:55:56Z</time>
      </trkpt>
      <trkpt lat="40.071633" lon="-5.511650">
        <ele>1316.0</ele>
        <time>2013-06-30T14:55:57Z</time>
      </trkpt>
      <trkpt lat="40.071600" lon="-5.511800">
        <ele>1315.0</ele>
        <time>2013-06-30T14:55:58Z</time>
      </trkpt>
      <trkpt lat="40.071567" lon="-5.511933">
        <ele>1315.0</ele>
        <time>2013-06-30T14:55:59Z</time>
      </trkpt>
      <trkpt lat="40.071533" lon="-5.512067">
        <ele>1314.0</ele>
        <time>2013-06-30T14:56:00Z</time>
      </trkpt>
      <trkpt lat="40.071517" lon="-5.512200">
        <ele>1312.0</ele>
        <time>2013-06-30T14:56:01Z</time>
      </trkpt>
      <trkpt lat="40.071483" lon="-5.512333">
        <ele>1310.0</ele>
        <time>2013-06-30T14:56:02Z</time>
      </trkpt>
      <trkpt lat="40.071450" lon="-5.512483">
        <ele>1308.0</ele>
        <time>2013-06-30T14:56:03Z</time>
      </trkpt>
      <trkpt lat="40.071417" lon="-5.512633">
        <ele>1306.0</ele>
        <time>2013-06-30T14:56:04Z</time>
      </trkpt>
      <trkpt lat="40.071367" lon="-5.512767">
        <ele>1304.0</ele>
        <time>2013-06-30T14:56:05Z</time>
      </trkpt>
      <trkpt lat="40.071333" lon="-5.512900">
        <ele>1303.0</ele>
        <time>2013-06-30T14:56:06Z</time>
      </trkpt>
      <trkpt lat="40.071300" lon="-5.513033">
        <ele>1301.0</ele>
        <time>2013-06-30T14:56:07Z</time>
      </trkpt>
      <trkpt lat="40.071250" lon="-5.513167">
        <ele>1300.0</ele>
        <time>2013-06-30T14:56:08Z</time>
      </trkpt>
      <trkpt lat="40.071217" lon="-5.513317">
        <ele>1299.0</ele>
        <time>2013-06-30T14:56:09Z</time>
      </trkpt>
      <trkpt lat="40.071167" lon="-5.513450">
        <ele>1298.0</ele>
        <time>2013-06-30T14:56:10Z</time>
      </trkpt>
      <trkpt lat="40.071133" lon="-5.513600">
        <ele>1298.0</ele>
        <time>2013-06-30T14:56:11Z</time>
      </trkpt>
      <trkpt lat="40.071117" lon="-5.513733">
        <ele>1297.0</ele>
        <time>2013-06-30T14:56:12Z</time>
      </trkpt>
      <trkpt lat="40.071100" lon="-5.513867">
        <ele>1296.0</ele>
        <time>2013-06-30T14:56:13Z</time>
      </trkpt>
      <trkpt lat="40.071067" lon="-5.514017">
        <ele>1293.0</ele>
        <time>2013-06-30T14:56:14Z</time>
      </trkpt>
      <trkpt lat="40.071033" lon="-5.514167">
        <ele>1291.0</ele>
        <time>2013-06-30T14:56:15Z</time>
      </trkpt>
      <trkpt lat="40.071000" lon="-5.514317">
        <ele>1290.0</ele>
        <time>2013-06-30T14:56:16Z</time>
      </trkpt>
      <trkpt lat="40.070967" lon="-5.514450">
        <ele>1289.0</ele>
        <time>2013-06-30T14:56:17Z</time>
      </trkpt>
      <trkpt lat="40.070950" lon="-5.514567">
        <ele>1288.0</ele>
        <time>2013-06-30T14:56:18Z</time>
      </trkpt>
      <trkpt lat="40.070933" lon="-5.514700">
        <ele>1287.0</ele>
        <time>2013-06-30T14:56:19Z</time>
      </trkpt>
      <trkpt lat="40.070900" lon="-5.514817">
        <ele>1285.0</ele>
        <time>2013-06-30T14:56:20Z</time>
      </trkpt>
      <trkpt lat="40.070850" lon="-5.514950">
        <ele>1283.0</ele>
        <time>2013-06-30T14:56:21Z</time>
      </trkpt>
      <trkpt lat="40.070817" lon="-5.515083">
        <ele>1282.0</ele>
        <time>2013-06-30T14:56:22Z</time>
      </trkpt>
      <trkpt lat="40.070800" lon="-5.515217">
        <ele>1281.0</ele>
        <time>2013-06-30T14:56:23Z</time>
      </trkpt>
      <trkpt lat="40.070767" lon="-5.515333">
        <ele>1279.0</ele>
        <time>2013-06-30T14:56:24Z</time>
      </trkpt>
      <trkpt lat="40.070750" lon="-5.515450">
        <ele>1278.0</ele>
        <time>2013-06-30T14:56:25Z</time>
      </trkpt>
      <trkpt lat="40.070700" lon="-5.515567">
        <ele>1276.0</ele>
        <time>2013-06-30T14:56:26Z</time>
      </trkpt>
      <trkpt lat="40.070667" lon="-5.515667">
        <ele>1274.0</ele>
        <time>2013-06-30T14:56:27Z</time>
      </trkpt>
      <trkpt lat="40.070633" lon="-5.515800">
        <ele>1272.0</ele>
        <time>2013-06-30T14:56:28Z</time>
      </trkpt>
      <trkpt lat="40.070600" lon="-5.515917">
        <ele>1270.0</ele>
        <time>2013-06-30T14:56:29Z</time>
      </trkpt>
      <trkpt lat="40.070550" lon="-5.516050">
        <ele>1268.0</ele>
        <time>2013-06-30T14:56:30Z</time>
      </trkpt>
      <trkpt lat="40.070517" lon="-5.516167">
        <ele>1266.0</ele>
        <time>2013-06-30T14:56:31Z</time>
      </trkpt>
      <trkpt lat="40.070483" lon="-5.516267">
        <ele>1264.0</ele>
        <time>2013-06-30T14:56:32Z</time>
      </trkpt>
      <trkpt lat="40.070433" lon="-5.516383">
        <ele>1263.0</ele>
        <time>2013-06-30T14:56:33Z</time>
      </trkpt>
      <trkpt lat="40.070400" lon="-5.516500">
        <ele>1261.0</ele>
        <time>2013-06-30T14:56:34Z</time>
      </trkpt>
      <trkpt lat="40.070350" lon="-5.516617">
        <ele>1260.0</ele>
        <time>2013-06-30T14:56:35Z</time>
      </trkpt>
      <trkpt lat="40.070300" lon="-5.516733">
        <ele>1258.0</ele>
        <time>2013-06-30T14:56:36Z</time>
      </trkpt>
      <trkpt lat="40.070267" lon="-5.516850">
        <ele>1256.0</ele>
        <time>2013-06-30T14:56:37Z</time>
      </trkpt>
      <trkpt lat="40.070217" lon="-5.516967">
        <ele>1255.0</ele>
        <time>2013-06-30T14:56:38Z</time>
      </trkpt>
      <trkpt lat="40.070183" lon="-5.517067">
        <ele>1253.0</ele>
        <time>2013-06-30T14:56:39Z</time>
      </trkpt>
      <trkpt lat="40.070133" lon="-5.517183">
        <ele>1250.0</ele>
        <time>2013-06-30T14:56:40Z</time>
      </trkpt>
      <trkpt lat="40.070083" lon="-5.517300">
        <ele>1247.0</ele>
        <time>2013-06-30T14:56:41Z</time>
      </trkpt>
      <trkpt lat="40.070050" lon="-5.517417">
        <ele>1245.0</ele>
        <time>2013-06-30T14:56:42Z</time>
      </trkpt>
      <trkpt lat="40.070000" lon="-5.517550">
        <ele>1242.0</ele>
        <time>2013-06-30T14:56:43Z</time>
      </trkpt>
      <trkpt lat="40.069967" lon="-5.517650">
        <ele>1239.0</ele>
        <time>2013-06-30T14:56:44Z</time>
      </trkpt>
      <trkpt lat="40.069933" lon="-5.517767">
        <ele>1236.0</ele>
        <time>2013-06-30T14:56:45Z</time>
      </trkpt>
      <trkpt lat="40.069900" lon="-5.517900">
        <ele>1233.0</ele>
        <time>2013-06-30T14:56:46Z</time>
      </trkpt>
      <trkpt lat="40.069850" lon="-5.518017">
        <ele>1230.0</ele>
        <time>2013-06-30T14:56:47Z</time>
      </trkpt>
      <trkpt lat="40.069817" lon="-5.518133">
        <ele>1226.0</ele>
        <time>2013-06-30T14:56:48Z</time>
      </trkpt>
      <trkpt lat="40.069783" lon="-5.518267">
        <ele>1223.0</ele>
        <time>2013-06-30T14:56:49Z</time>
      </trkpt>
      <trkpt lat="40.069750" lon="-5.518383">
        <ele>1219.0</ele>
        <time>2013-06-30T14:56:50Z</time>
      </trkpt>
      <trkpt lat="40.069717" lon="-5.518517">
        <ele>1216.0</ele>
        <time>2013-06-30T14:56:51Z</time>
      </trkpt>
      <trkpt lat="40.069700" lon="-5.518633">
        <ele>1212.0</ele>
        <time>2013-06-30T14:56:52Z</time>
      </trkpt>
      <trkpt lat="40.069667" lon="-5.518750">
        <ele>1209.0</ele>
        <time>2013-06-30T14:56:53Z</time>
      </trkpt>
      <trkpt lat="40.069633" lon="-5.518867">
        <ele>1206.0</ele>
        <time>2013-06-30T14:56:54Z</time>
      </trkpt>
      <trkpt lat="40.069600" lon="-5.518983">
        <ele>1203.0</ele>
        <time>2013-06-30T14:56:55Z</time>
      </trkpt>
      <trkpt lat="40.069567" lon="-5.519083">
        <ele>1201.0</ele>
        <time>2013-06-30T14:56:56Z</time>
      </trkpt>
      <trkpt lat="40.069533" lon="-5.519200">
        <ele>1200.0</ele>
        <time>2013-06-30T14:56:57Z</time>
      </trkpt>
      <trkpt lat="40.069500" lon="-5.519300">
        <ele>1198.0</ele>
        <time>2013-06-30T14:56:58Z</time>
      </trkpt>
      <trkpt lat="40.069467" lon="-5.519417">
        <ele>1196.0</ele>
        <time>2013-06-30T14:56:59Z</time>
      </trkpt>
      <trkpt lat="40.069417" lon="-5.519517">
        <ele>1194.0</ele>
        <time>2013-06-30T14:57:00Z</time>
      </trkpt>
      <trkpt lat="40.069383" lon="-5.519617">
        <ele>1193.0</ele>
        <time>2013-06-30T14:57:01Z</time>
      </trkpt>
      <trkpt lat="40.069350" lon="-5.519717">
        <ele>1191.0</ele>
        <time>2013-06-30T14:57:02Z</time>
      </trkpt>
      <trkpt lat="40.069300" lon="-5.519800">
        <ele>1189.0</ele>
        <time>2013-06-30T14:57:03Z</time>
      </trkpt>
      <trkpt lat="40.069250" lon="-5.519883">
        <ele>1186.0</ele>
        <time>2013-06-30T14:57:04Z</time>
      </trkpt>
      <trkpt lat="40.069183" lon="-5.519967">
        <ele>1184.0</ele>
        <time>2013-06-30T14:57:05Z</time>
      </trkpt>
      <trkpt lat="40.069117" lon="-5.520050">
        <ele>1182.0</ele>
        <time>2013-06-30T14:57:06Z</time>
      </trkpt>
      <trkpt lat="40.069067" lon="-5.520133">
        <ele>1181.0</ele>
        <time>2013-06-30T14:57:07Z</time>
      </trkpt>
      <trkpt lat="40.069000" lon="-5.520200">
        <ele>1179.0</ele>
        <time>2013-06-30T14:57:08Z</time>
      </trkpt>
      <trkpt lat="40.068933" lon="-5.520267">
        <ele>1177.0</ele>
        <time>2013-06-30T14:57:09Z</time>
      </trkpt>
      <trkpt lat="40.068867" lon="-5.520333">
        <ele>1174.0</ele>
        <time>2013-06-30T14:57:10Z</time>
      </trkpt>
      <trkpt lat="40.068800" lon="-5.520400">
        <ele>1172.0</ele>
        <time>2013-06-30T14:57:11Z</time>
      </trkpt>
      <trkpt lat="40.068717" lon="-5.520467">
        <ele>1170.0</ele>
        <time>2013-06-30T14:57:12Z</time>
      </trkpt>
      <trkpt lat="40.068650" lon="-5.520517">
        <ele>1168.0</ele>
        <time>2013-06-30T14:57:13Z</time>
      </trkpt>
      <trkpt lat="40.068567" lon="-5.520550">
        <ele>1167.0</ele>
        <time>2013-06-30T14:57:14Z</time>
      </trkpt>
      <trkpt lat="40.068500" lon="-5.520600">
        <ele>1165.0</ele>
        <time>2013-06-30T14:57:15Z</time>
      </trkpt>
      <trkpt lat="40.068433" lon="-5.520650">
        <ele>1163.0</ele>
        <time>2013-06-30T14:57:16Z</time>
      </trkpt>
      <trkpt lat="40.068350" lon="-5.520700">
        <ele>1160.0</ele>
        <time>2013-06-30T14:57:17Z</time>
      </trkpt>
      <trkpt lat="40.068267" lon="-5.520750">
        <ele>1158.0</ele>
        <time>2013-06-30T14:57:18Z</time>
      </trkpt>
      <trkpt lat="40.068183" lon="-5.520800">
        <ele>1157.0</ele>
        <time>2013-06-30T14:57:19Z</time>
      </trkpt>
      <trkpt lat="40.068100" lon="-5.520850">
        <ele>1156.0</ele>
        <time>2013-06-30T14:57:20Z</time>
      </trkpt>
      <trkpt lat="40.068033" lon="-5.520883">
        <ele>1155.0</ele>
        <time>2013-06-30T14:57:21Z</time>
      </trkpt>
      <trkpt lat="40.067967" lon="-5.520933">
        <ele>1153.0</ele>
        <time>2013-06-30T14:57:22Z</time>
      </trkpt>
      <trkpt lat="40.067900" lon="-5.521000">
        <ele>1151.0</ele>
        <time>2013-06-30T14:57:23Z</time>
      </trkpt>
      <trkpt lat="40.067833" lon="-5.521067">
        <ele>1150.0</ele>
        <time>2013-06-30T14:57:24Z</time>
      </trkpt>
      <trkpt lat="40.067767" lon="-5.521133">
        <ele>1148.0</ele>
        <time>2013-06-30T14:57:25Z</time>
      </trkpt>
      <trkpt lat="40.067683" lon="-5.521183">
        <ele>1147.0</ele>
        <time>2013-06-30T14:57:26Z</time>
      </trkpt>
      <trkpt lat="40.067617" lon="-5.521233">
        <ele>1147.0</ele>
        <time>2013-06-30T14:57:27Z</time>
      </trkpt>
      <trkpt lat="40.067550" lon="-5.521283">
        <ele>1145.0</ele>
        <time>2013-06-30T14:57:28Z</time>
      </trkpt>
      <trkpt lat="40.067483" lon="-5.521333">
        <ele>1144.0</ele>
        <time>2013-06-30T14:57:29Z</time>
      </trkpt>
      <trkpt lat="40.067400" lon="-5.521400">
        <ele>1142.0</ele>
        <time>2013-06-30T14:57:30Z</time>
      </trkpt>
      <trkpt lat="40.067317" lon="-5.521450">
        <ele>1139.0</ele>
        <time>2013-06-30T14:57:31Z</time>
      </trkpt>
      <trkpt lat="40.067233" lon="-5.521517">
        <ele>1137.0</ele>
        <time>2013-06-30T14:57:32Z</time>
      </trkpt>
      <trkpt lat="40.067150" lon="-5.521567">
        <ele>1136.0</ele>
        <time>2013-06-30T14:57:33Z</time>
      </trkpt>
      <trkpt lat="40.067083" lon="-5.521633">
        <ele>1134.0</ele>
        <time>2013-06-30T14:57:34Z</time>
      </trkpt>
      <trkpt lat="40.067000" lon="-5.521683">
        <ele>1132.0</ele>
        <time>2013-06-30T14:57:35Z</time>
      </trkpt>
      <trkpt lat="40.066933" lon="-5.521733">
        <ele>1130.0</ele>
        <time>2013-06-30T14:57:36Z</time>
      </trkpt>
      <trkpt lat="40.066867" lon="-5.521800">
        <ele>1128.0</ele>
        <time>2013-06-30T14:57:37Z</time>
      </trkpt>
      <trkpt lat="40.066783" lon="-5.521850">
        <ele>1126.0</ele>
        <time>2013-06-30T14:57:38Z</time>
      </trkpt>
      <trkpt lat="40.066717" lon="-5.521900">
        <ele>1124.0</ele>
        <time>2013-06-30T14:57:39Z</time>
      </trkpt>
      <trkpt lat="40.066633" lon="-5.521950">
        <ele>1123.0</ele>
        <time>2013-06-30T14:57:40Z</time>
      </trkpt>
      <trkpt lat="40.066567" lon="-5.522000">
        <ele>1121.0</ele>
        <time>2013-06-30T14:57:41Z</time>
      </trkpt>
      <trkpt lat="40.066500" lon="-5.522033">
        <ele>1118.0</ele>
        <time>2013-06-30T14:57:42Z</time>
      </trkpt>
      <trkpt lat="40.066417" lon="-5.522083">
        <ele>1115.0</ele>
        <time>2013-06-30T14:57:43Z</time>
      </trkpt>
      <trkpt lat="40.066333" lon="-5.522150">
        <ele>1113.0</ele>
        <time>2013-06-30T14:57:44Z</time>
      </trkpt>
      <trkpt lat="40.066250" lon="-5.522217">
        <ele>1111.0</ele>
        <time>2013-06-30T14:57:45Z</time>
      </trkpt>
      <trkpt lat="40.066183" lon="-5.522300">
        <ele>1109.0</ele>
        <time>2013-06-30T14:57:46Z</time>
      </trkpt>
      <trkpt lat="40.066100" lon="-5.522383">
        <ele>1108.0</ele>
        <time>2013-06-30T14:57:47Z</time>
      </trkpt>
      <trkpt lat="40.066033" lon="-5.522450">
        <ele>1106.0</ele>
        <time>2013-06-30T14:57:48Z</time>
      </trkpt>
      <trkpt lat="40.065967" lon="-5.522517">
        <ele>1104.0</ele>
        <time>2013-06-30T14:57:49Z</time>
      </trkpt>
      <trkpt lat="40.065883" lon="-5.522583">
        <ele>1102.0</ele>
        <time>2013-06-30T14:57:50Z</time>
      </trkpt>
      <trkpt lat="40.065800" lon="-5.522650">
        <ele>1101.0</ele>
        <time>2013-06-30T14:57:51Z</time>
      </trkpt>
      <trkpt lat="40.065717" lon="-5.522717">
        <ele>1099.0</ele>
        <time>2013-06-30T14:57:52Z</time>
      </trkpt>
      <trkpt lat="40.065650" lon="-5.522783">
        <ele>1098.0</ele>
        <time>2013-06-30T14:57:53Z</time>
      </trkpt>
      <trkpt lat="40.065567" lon="-5.522850">
        <ele>1097.0</ele>
        <time>2013-06-30T14:57:54Z</time>
      </trkpt>
      <trkpt lat="40.065483" lon="-5.522917">
        <ele>1095.0</ele>
        <time>2013-06-30T14:57:55Z</time>
      </trkpt>
      <trkpt lat="40.065417" lon="-5.522967">
        <ele>1094.0</ele>
        <time>2013-06-30T14:57:56Z</time>
      </trkpt>
      <trkpt lat="40.065350" lon="-5.523017">
        <ele>1093.0</ele>
        <time>2013-06-30T14:57:57Z</time>
      </trkpt>
      <trkpt lat="40.065300" lon="-5.523067">
        <ele>1091.0</ele>
        <time>2013-06-30T14:57:58Z</time>
      </trkpt>
      <trkpt lat="40.065233" lon="-5.523133">
        <ele>1089.0</ele>
        <time>2013-06-30T14:57:59Z</time>
      </trkpt>
      <trkpt lat="40.065167" lon="-5.523183">
        <ele>1087.0</ele>
        <time>2013-06-30T14:58:00Z</time>
      </trkpt>
      <trkpt lat="40.065083" lon="-5.523233">
        <ele>1085.0</ele>
        <time>2013-06-30T14:58:01Z</time>
      </trkpt>
      <trkpt lat="40.065017" lon="-5.523283">
        <ele>1084.0</ele>
        <time>2013-06-30T14:58:02Z</time>
      </trkpt>
      <trkpt lat="40.064950" lon="-5.523333">
        <ele>1083.0</ele>
        <time>2013-06-30T14:58:03Z</time>
      </trkpt>
      <trkpt lat="40.064867" lon="-5.523383">
        <ele>1081.0</ele>
        <time>2013-06-30T14:58:04Z</time>
      </trkpt>
      <trkpt lat="40.064800" lon="-5.523433">
        <ele>1079.0</ele>
        <time>2013-06-30T14:58:05Z</time>
      </trkpt>
      <trkpt lat="40.064717" lon="-5.523483">
        <ele>1077.0</ele>
        <time>2013-06-30T14:58:06Z</time>
      </trkpt>
      <trkpt lat="40.064633" lon="-5.523533">
        <ele>1075.0</ele>
        <time>2013-06-30T14:58:07Z</time>
      </trkpt>
      <trkpt lat="40.064550" lon="-5.523583">
        <ele>1073.0</ele>
        <time>2013-06-30T14:58:08Z</time>
      </trkpt>
      <trkpt lat="40.064467" lon="-5.523633">
        <ele>1071.0</ele>
        <time>2013-06-30T14:58:09Z</time>
      </trkpt>
      <trkpt lat="40.064383" lon="-5.523683">
        <ele>1070.0</ele>
        <time>2013-06-30T14:58:10Z</time>
      </trkpt>
      <trkpt lat="40.064300" lon="-5.523717">
        <ele>1068.0</ele>
        <time>2013-06-30T14:58:11Z</time>
      </trkpt>
      <trkpt lat="40.064217" lon="-5.523767">
        <ele>1065.0</ele>
        <time>2013-06-30T14:58:12Z</time>
      </trkpt>
      <trkpt lat="40.064133" lon="-5.523833">
        <ele>1063.0</ele>
        <time>2013-06-30T14:58:13Z</time>
      </trkpt>
      <trkpt lat="40.064050" lon="-5.523900">
        <ele>1061.0</ele>
        <time>2013-06-30T14:58:14Z</time>
      </trkpt>
      <trkpt lat="40.063967" lon="-5.523950">
        <ele>1059.0</ele>
        <time>2013-06-30T14:58:15Z</time>
      </trkpt>
      <trkpt lat="40.063883" lon="-5.524017">
        <ele>1058.0</ele>
        <time>2013-06-30T14:58:16Z</time>
      </trkpt>
      <trkpt lat="40.063800" lon="-5.524067">
        <ele>1056.0</ele>
        <time>2013-06-30T14:58:17Z</time>
      </trkpt>
      <trkpt lat="40.063717" lon="-5.524133">
        <ele>1055.0</ele>
        <time>2013-06-30T14:58:18Z</time>
      </trkpt>
      <trkpt lat="40.063650" lon="-5.524200">
        <ele>1053.0</ele>
        <time>2013-06-30T14:58:19Z</time>
      </trkpt>
      <trkpt lat="40.063567" lon="-5.524250">
        <ele>1051.0</ele>
        <time>2013-06-30T14:58:20Z</time>
      </trkpt>
      <trkpt lat="40.063483" lon="-5.524317">
        <ele>1048.0</ele>
        <time>2013-06-30T14:58:21Z</time>
      </trkpt>
      <trkpt lat="40.063400" lon="-5.524383">
        <ele>1047.0</ele>
        <time>2013-06-30T14:58:22Z</time>
      </trkpt>
      <trkpt lat="40.063317" lon="-5.524433">
        <ele>1045.0</ele>
        <time>2013-06-30T14:58:23Z</time>
      </trkpt>
      <trkpt lat="40.063233" lon="-5.524483">
        <ele>1044.0</ele>
        <time>2013-06-30T14:58:24Z</time>
      </trkpt>
      <trkpt lat="40.063150" lon="-5.524550">
        <ele>1043.0</ele>
        <time>2013-06-30T14:58:25Z</time>
      </trkpt>
      <trkpt lat="40.063067" lon="-5.524583">
        <ele>1041.0</ele>
        <time>2013-06-30T14:58:26Z</time>
      </trkpt>
      <trkpt lat="40.062983" lon="-5.524633">
        <ele>1039.0</ele>
        <time>2013-06-30T14:58:27Z</time>
      </trkpt>
      <trkpt lat="40.062900" lon="-5.524683">
        <ele>1037.0</ele>
        <time>2013-06-30T14:58:28Z</time>
      </trkpt>
      <trkpt lat="40.062817" lon="-5.524733">
        <ele>1035.0</ele>
        <time>2013-06-30T14:58:29Z</time>
      </trkpt>
      <trkpt lat="40.062733" lon="-5.524783">
        <ele>1033.0</ele>
        <time>2013-06-30T14:58:30Z</time>
      </trkpt>
      <trkpt lat="40.062650" lon="-5.524833">
        <ele>1031.0</ele>
        <time>2013-06-30T14:58:31Z</time>
      </trkpt>
      <trkpt lat="40.062567" lon="-5.524883">
        <ele>1028.0</ele>
        <time>2013-06-30T14:58:32Z</time>
      </trkpt>
      <trkpt lat="40.062483" lon="-5.524917">
        <ele>1026.0</ele>
        <time>2013-06-30T14:58:33Z</time>
      </trkpt>
      <trkpt lat="40.062400" lon="-5.524967">
        <ele>1023.0</ele>
        <time>2013-06-30T14:58:34Z</time>
      </trkpt>
      <trkpt lat="40.062317" lon="-5.525000">
        <ele>1021.0</ele>
        <time>2013-06-30T14:58:35Z</time>
      </trkpt>
      <trkpt lat="40.062233" lon="-5.525050">
        <ele>1018.0</ele>
        <time>2013-06-30T14:58:36Z</time>
      </trkpt>
      <trkpt lat="40.062133" lon="-5.525100">
        <ele>1016.0</ele>
        <time>2013-06-30T14:58:37Z</time>
      </trkpt>
      <trkpt lat="40.062050" lon="-5.525133">
        <ele>1013.0</ele>
        <time>2013-06-30T14:58:38Z</time>
      </trkpt>
      <trkpt lat="40.061967" lon="-5.525183">
        <ele>1011.0</ele>
        <time>2013-06-30T14:58:39Z</time>
      </trkpt>
      <trkpt lat="40.061867" lon="-5.525217">
        <ele>1008.0</ele>
        <time>2013-06-30T14:58:40Z</time>
      </trkpt>
      <trkpt lat="40.061783" lon="-5.525250">
        <ele>1006.0</ele>
        <time>2013-06-30T14:58:41Z</time>
      </trkpt>
      <trkpt lat="40.061700" lon="-5.525283">
        <ele>1005.0</ele>
        <time>2013-06-30T14:58:42Z</time>
      </trkpt>
      <trkpt lat="40.061617" lon="-5.525317">
        <ele>1003.0</ele>
        <time>2013-06-30T14:58:43Z</time>
      </trkpt>
      <trkpt lat="40.061533" lon="-5.525350">
        <ele>1001.0</ele>
        <time>2013-06-30T14:58:44Z</time>
      </trkpt>
      <trkpt lat="40.061450" lon="-5.525383">
        <ele>999.0</ele>
        <time>2013-06-30T14:58:45Z</time>
      </trkpt>
      <trkpt lat="40.061350" lon="-5.525417">
        <ele>997.0</ele>
        <time>2013-06-30T14:58:46Z</time>
      </trkpt>
      <trkpt lat="40.061267" lon="-5.525450">
        <ele>994.0</ele>
        <time>2013-06-30T14:58:47Z</time>
      </trkpt>
      <trkpt lat="40.061167" lon="-5.525467">
        <ele>993.0</ele>
        <time>2013-06-30T14:58:48Z</time>
      </trkpt>
      <trkpt lat="40.061083" lon="-5.525500">
        <ele>991.0</ele>
        <time>2013-06-30T14:58:49Z</time>
      </trkpt>
      <trkpt lat="40.061000" lon="-5.525533">
        <ele>989.0</ele>
        <time>2013-06-30T14:58:50Z</time>
      </trkpt>
      <trkpt lat="40.060917" lon="-5.525567">
        <ele>986.0</ele>
        <time>2013-06-30T14:58:51Z</time>
      </trkpt>
      <trkpt lat="40.060817" lon="-5.525600">
        <ele>984.0</ele>
        <time>2013-06-30T14:58:52Z</time>
      </trkpt>
      <trkpt lat="40.060733" lon="-5.525633">
        <ele>982.0</ele>
        <time>2013-06-30T14:58:53Z</time>
      </trkpt>
      <trkpt lat="40.060633" lon="-5.525650">
        <ele>981.0</ele>
        <time>2013-06-30T14:58:54Z</time>
      </trkpt>
      <trkpt lat="40.060550" lon="-5.525683">
        <ele>979.0</ele>
        <time>2013-06-30T14:58:55Z</time>
      </trkpt>
      <trkpt lat="40.060467" lon="-5.525700">
        <ele>978.0</ele>
        <time>2013-06-30T14:58:56Z</time>
      </trkpt>
      <trkpt lat="40.060383" lon="-5.525733">
        <ele>977.0</ele>
        <time>2013-06-30T14:58:57Z</time>
      </trkpt>
      <trkpt lat="40.060300" lon="-5.525767">
        <ele>975.0</ele>
        <time>2013-06-30T14:58:58Z</time>
      </trkpt>
      <trkpt lat="40.060217" lon="-5.525800">
        <ele>973.0</ele>
        <time>2013-06-30T14:58:59Z</time>
      </trkpt>
      <trkpt lat="40.060117" lon="-5.525817">
        <ele>970.0</ele>
        <time>2013-06-30T14:59:00Z</time>
      </trkpt>
      <trkpt lat="40.060017" lon="-5.525850">
        <ele>968.0</ele>
        <time>2013-06-30T14:59:01Z</time>
      </trkpt>
      <trkpt lat="40.059917" lon="-5.525900">
        <ele>965.0</ele>
        <time>2013-06-30T14:59:02Z</time>
      </trkpt>
      <trkpt lat="40.059833" lon="-5.525933">
        <ele>963.0</ele>
        <time>2013-06-30T14:59:03Z</time>
      </trkpt>
      <trkpt lat="40.059750" lon="-5.525983">
        <ele>961.0</ele>
        <time>2013-06-30T14:59:04Z</time>
      </trkpt>
      <trkpt lat="40.059667" lon="-5.526017">
        <ele>960.0</ele>
        <time>2013-06-30T14:59:05Z</time>
      </trkpt>
      <trkpt lat="40.059583" lon="-5.526067">
        <ele>957.0</ele>
        <time>2013-06-30T14:59:06Z</time>
      </trkpt>
      <trkpt lat="40.059500" lon="-5.526100">
        <ele>955.0</ele>
        <time>2013-06-30T14:59:07Z</time>
      </trkpt>
      <trkpt lat="40.059400" lon="-5.526133">
        <ele>952.0</ele>
        <time>2013-06-30T14:59:08Z</time>
      </trkpt>
      <trkpt lat="40.059317" lon="-5.526183">
        <ele>949.0</ele>
        <time>2013-06-30T14:59:09Z</time>
      </trkpt>
      <trkpt lat="40.059217" lon="-5.526217">
        <ele>946.0</ele>
        <time>2013-06-30T14:59:10Z</time>
      </trkpt>
      <trkpt lat="40.059117" lon="-5.526250">
        <ele>944.0</ele>
        <time>2013-06-30T14:59:11Z</time>
      </trkpt>
      <trkpt lat="40.059017" lon="-5.526283">
        <ele>943.0</ele>
        <time>2013-06-30T14:59:12Z</time>
      </trkpt>
      <trkpt lat="40.058933" lon="-5.526300">
        <ele>942.0</ele>
        <time>2013-06-30T14:59:13Z</time>
      </trkpt>
      <trkpt lat="40.058850" lon="-5.526317">
        <ele>944.0</ele>
        <time>2013-06-30T14:59:14Z</time>
      </trkpt>
      <trkpt lat="40.058767" lon="-5.526333">
        <ele>945.0</ele>
        <time>2013-06-30T14:59:15Z</time>
      </trkpt>
      <trkpt lat="40.058700" lon="-5.526367">
        <ele>945.0</ele>
        <time>2013-06-30T14:59:16Z</time>
      </trkpt>
      <trkpt lat="40.058633" lon="-5.526400">
        <ele>944.0</ele>
        <time>2013-06-30T14:59:17Z</time>
      </trkpt>
      <trkpt lat="40.058567" lon="-5.526450">
        <ele>944.0</ele>
        <time>2013-06-30T14:59:18Z</time>
      </trkpt>
      <trkpt lat="40.058500" lon="-5.526500">
        <ele>943.0</ele>
        <time>2013-06-30T14:59:19Z</time>
      </trkpt>
      <trkpt lat="40.058433" lon="-5.526567">
        <ele>942.0</ele>
        <time>2013-06-30T14:59:20Z</time>
      </trkpt>
      <trkpt lat="40.058367" lon="-5.526617">
        <ele>941.0</ele>
        <time>2013-06-30T14:59:21Z</time>
      </trkpt>
      <trkpt lat="40.058300" lon="-5.526650">
        <ele>939.0</ele>
        <time>2013-06-30T14:59:22Z</time>
      </trkpt>
      <trkpt lat="40.058217" lon="-5.526700">
        <ele>937.0</ele>
        <time>2013-06-30T14:59:23Z</time>
      </trkpt>
      <trkpt lat="40.058117" lon="-5.526750">
        <ele>935.0</ele>
        <time>2013-06-30T14:59:24Z</time>
      </trkpt>
      <trkpt lat="40.058033" lon="-5.526800">
        <ele>934.0</ele>
        <time>2013-06-30T14:59:25Z</time>
      </trkpt>
      <trkpt lat="40.057933" lon="-5.526850">
        <ele>933.0</ele>
        <time>2013-06-30T14:59:26Z</time>
      </trkpt>
      <trkpt lat="40.057850" lon="-5.526883">
        <ele>933.0</ele>
        <time>2013-06-30T14:59:27Z</time>
      </trkpt>
      <trkpt lat="40.057767" lon="-5.526933">
        <ele>933.0</ele>
        <time>2013-06-30T14:59:28Z</time>
      </trkpt>
      <trkpt lat="40.057683" lon="-5.526983">
        <ele>932.0</ele>
        <time>2013-06-30T14:59:29Z</time>
      </trkpt>
      <trkpt lat="40.057600" lon="-5.527033">
        <ele>932.0</ele>
        <time>2013-06-30T14:59:30Z</time>
      </trkpt>
      <trkpt lat="40.057517" lon="-5.527100">
        <ele>931.0</ele>
        <time>2013-06-30T14:59:31Z</time>
      </trkpt>
      <trkpt lat="40.057450" lon="-5.527167">
        <ele>931.0</ele>
        <time>2013-06-30T14:59:32Z</time>
      </trkpt>
      <trkpt lat="40.057383" lon="-5.527250">
        <ele>931.0</ele>
        <time>2013-06-30T14:59:33Z</time>
      </trkpt>
      <trkpt lat="40.057300" lon="-5.527317">
        <ele>930.0</ele>
        <time>2013-06-30T14:59:34Z</time>
      </trkpt>
      <trkpt lat="40.057217" lon="-5.527400">
        <ele>930.0</ele>
        <time>2013-06-30T14:59:35Z</time>
      </trkpt>
      <trkpt lat="40.057150" lon="-5.527483">
        <ele>929.0</ele>
        <time>2013-06-30T14:59:36Z</time>
      </trkpt>
      <trkpt lat="40.057067" lon="-5.527567">
        <ele>929.0</ele>
        <time>2013-06-30T14:59:37Z</time>
      </trkpt>
      <trkpt lat="40.057000" lon="-5.527633">
        <ele>929.0</ele>
        <time>2013-06-30T14:59:38Z</time>
      </trkpt>
      <trkpt lat="40.056917" lon="-5.527700">
        <ele>929.0</ele>
        <time>2013-06-30T14:59:39Z</time>
      </trkpt>
      <trkpt lat="40.056850" lon="-5.527767">
        <ele>930.0</ele>
        <time>2013-06-30T14:59:40Z</time>
      </trkpt>
      <trkpt lat="40.056767" lon="-5.527817">
        <ele>930.0</ele>
        <time>2013-06-30T14:59:41Z</time>
      </trkpt>
      <trkpt lat="40.056683" lon="-5.527850">
        <ele>929.0</ele>
        <time>2013-06-30T14:59:42Z</time>
      </trkpt>
      <trkpt lat="40.056583" lon="-5.527850">
        <ele>928.0</ele>
        <time>2013-06-30T14:59:43Z</time>
      </trkpt>
      <trkpt lat="40.056483" lon="-5.527867">
        <ele>928.0</ele>
        <time>2013-06-30T14:59:44Z</time>
      </trkpt>
      <trkpt lat="40.056383" lon="-5.527917">
        <ele>929.0</ele>
        <time>2013-06-30T14:59:45Z</time>
      </trkpt>
      <trkpt lat="40.056283" lon="-5.527950">
        <ele>929.0</ele>
        <time>2013-06-30T14:59:46Z</time>
      </trkpt>
      <trkpt lat="40.056200" lon="-5.528000">
        <ele>930.0</ele>
        <time>2013-06-30T14:59:47Z</time>
      </trkpt>
      <trkpt lat="40.056117" lon="-5.528017">
        <ele>931.0</ele>
        <time>2013-06-30T14:59:48Z</time>
      </trkpt>
      <trkpt lat="40.056033" lon="-5.528033">
        <ele>933.0</ele>
        <time>2013-06-30T14:59:49Z</time>
      </trkpt>
      <trkpt lat="40.055967" lon="-5.528050">
        <ele>934.0</ele>
        <time>2013-06-30T14:59:50Z</time>
      </trkpt>
      <trkpt lat="40.055900" lon="-5.528050">
        <ele>934.0</ele>
        <time>2013-06-30T14:59:51Z</time>
      </trkpt>
      <trkpt lat="40.055817" lon="-5.528067">
        <ele>935.0</ele>
        <time>2013-06-30T14:59:52Z</time>
      </trkpt>
      <trkpt lat="40.055733" lon="-5.528050">
        <ele>933.0</ele>
        <time>2013-06-30T14:59:53Z</time>
      </trkpt>
      <trkpt lat="40.055650" lon="-5.528017">
        <ele>933.0</ele>
        <time>2013-06-30T14:59:54Z</time>
      </trkpt>
      <trkpt lat="40.055583" lon="-5.527933">
        <ele>933.0</ele>
        <time>2013-06-30T14:59:55Z</time>
      </trkpt>
      <trkpt lat="40.055550" lon="-5.527850">
        <ele>934.0</ele>
        <time>2013-06-30T14:59:56Z</time>
      </trkpt>
      <trkpt lat="40.055533" lon="-5.527750">
        <ele>935.0</ele>
        <time>2013-06-30T14:59:57Z</time>
      </trkpt>
      <trkpt lat="40.055517" lon="-5.527667">
        <ele>936.0</ele>
        <time>2013-06-30T14:59:58Z</time>
      </trkpt>
      <trkpt lat="40.055500" lon="-5.527583">
        <ele>937.0</ele>
        <time>2013-06-30T14:59:59Z</time>
      </trkpt>
      <trkpt lat="40.055500" lon="-5.527500">
        <ele>937.0</ele>
        <time>2013-06-30T15:00:00Z</time>
      </trkpt>
      <trkpt lat="40.055500" lon="-5.527417">
        <ele>938.0</ele>
        <time>2013-06-30T15:00:01Z</time>
      </trkpt>
      <trkpt lat="40.055517" lon="-5.527333">
        <ele>939.0</ele>
        <time>2013-06-30T15:00:02Z</time>
      </trkpt>
      <trkpt lat="40.055550" lon="-5.527267">
        <ele>941.0</ele>
        <time>2013-06-30T15:00:03Z</time>
      </trkpt>
      <trkpt lat="40.055600" lon="-5.527200">
        <ele>942.0</ele>
        <time>2013-06-30T15:00:04Z</time>
      </trkpt>
      <trkpt lat="40.055650" lon="-5.527167">
        <ele>942.0</ele>
        <time>2013-06-30T15:00:05Z</time>
      </trkpt>
      <trkpt lat="40.055700" lon="-5.527133">
        <ele>943.0</ele>
        <time>2013-06-30T15:00:06Z</time>
      </trkpt>
      <trkpt lat="40.055767" lon="-5.527100">
        <ele>944.0</ele>
        <time>2013-06-30T15:00:07Z</time>
      </trkpt>
      <trkpt lat="40.055833" lon="-5.527117">
        <ele>945.0</ele>
        <time>2013-06-30T15:00:08Z</time>
      </trkpt>
      <trkpt lat="40.055900" lon="-5.527133">
        <ele>945.0</ele>
        <time>2013-06-30T15:00:09Z</time>
      </trkpt>
      <trkpt lat="40.055967" lon="-5.527183">
        <ele>946.0</ele>
        <time>2013-06-30T15:00:10Z</time>
      </trkpt>
      <trkpt lat="40.056017" lon="-5.527250">
        <ele>947.0</ele>
        <time>2013-06-30T15:00:11Z</time>
      </trkpt>
      <trkpt lat="40.056083" lon="-5.527300">
        <ele>948.0</ele>
        <time>2013-06-30T15:00:12Z</time>
      </trkpt>
      <trkpt lat="40.056133" lon="-5.527367">
        <ele>949.0</ele>
        <time>2013-06-30T15:00:13Z</time>
      </trkpt>
      <trkpt lat="40.056167" lon="-5.527433">
        <ele>950.0</ele>
        <time>2013-06-30T15:00:14Z</time>
      </trkpt>
      <trkpt lat="40.056200" lon="-5.527500">
        <ele>951.0</ele>
        <time>2013-06-30T15:00:15Z</time>
      </trkpt>
      <trkpt lat="40.056233" lon="-5.527600">
        <ele>951.0</ele>
        <time>2013-06-30T15:00:16Z</time>
      </trkpt>
      <trkpt lat="40.056250" lon="-5.527683">
        <ele>951.0</ele>
        <time>2013-06-30T15:00:17Z</time>
      </trkpt>
      <trkpt lat="40.056250" lon="-5.527783">
        <ele>951.0</ele>
        <time>2013-06-30T15:00:18Z</time>
      </trkpt>
      <trkpt lat="40.056233" lon="-5.527883">
        <ele>951.0</ele>
        <time>2013-06-30T15:00:19Z</time>
      </trkpt>
      <trkpt lat="40.056217" lon="-5.527983">
        <ele>952.0</ele>
        <time>2013-06-30T15:00:20Z</time>
      </trkpt>
      <trkpt lat="40.056183" lon="-5.528067">
        <ele>952.0</ele>
        <time>2013-06-30T15:00:21Z</time>
      </trkpt>
      <trkpt lat="40.056133" lon="-5.528150">
        <ele>952.0</ele>
        <time>2013-06-30T15:00:22Z</time>
      </trkpt>
      <trkpt lat="40.056100" lon="-5.528233">
        <ele>952.0</ele>
        <time>2013-06-30T15:00:23Z</time>
      </trkpt>
      <trkpt lat="40.056033" lon="-5.528317">
        <ele>951.0</ele>
        <time>2013-06-30T15:00:24Z</time>
      </trkpt>
      <trkpt lat="40.055967" lon="-5.528383">
        <ele>951.0</ele>
        <time>2013-06-30T15:00:25Z</time>
      </trkpt>
      <trkpt lat="40.055900" lon="-5.528433">
        <ele>951.0</ele>
        <time>2013-06-30T15:00:26Z</time>
      </trkpt>
      <trkpt lat="40.055817" lon="-5.528467">
        <ele>952.0</ele>
        <time>2013-06-30T15:00:27Z</time>
      </trkpt>
      <trkpt lat="40.055750" lon="-5.528483">
        <ele>953.0</ele>
        <time>2013-06-30T15:00:28Z</time>
      </trkpt>
      <trkpt lat="40.055667" lon="-5.528500">
        <ele>954.0</ele>
        <time>2013-06-30T15:00:29Z</time>
      </trkpt>
      <trkpt lat="40.055600" lon="-5.528500">
        <ele>954.0</ele>
        <time>2013-06-30T15:00:30Z</time>
      </trkpt>
      <trkpt lat="40.055517" lon="-5.528483">
        <ele>954.0</ele>
        <time>2013-06-30T15:00:31Z</time>
      </trkpt>
      <trkpt lat="40.055450" lon="-5.528417">
        <ele>953.0</ele>
        <time>2013-06-30T15:00:32Z</time>
      </trkpt>
      <trkpt lat="40.055383" lon="-5.528350">
        <ele>953.0</ele>
        <time>2013-06-30T15:00:33Z</time>
      </trkpt>
      <trkpt lat="40.055317" lon="-5.528283">
        <ele>954.0</ele>
        <time>2013-06-30T15:00:34Z</time>
      </trkpt>
      <trkpt lat="40.055283" lon="-5.528217">
        <ele>956.0</ele>
        <time>2013-06-30T15:00:35Z</time>
      </trkpt>
      <trkpt lat="40.055233" lon="-5.528150">
        <ele>957.0</ele>
        <time>2013-06-30T15:00:36Z</time>
      </trkpt>
      <trkpt lat="40.055200" lon="-5.528100">
        <ele>957.0</ele>
        <time>2013-06-30T15:00:37Z</time>
      </trkpt>
      <trkpt lat="40.055183" lon="-5.528017">
        <ele>957.0</ele>
        <time>2013-06-30T15:00:38Z</time>
      </trkpt>
      <trkpt lat="40.055167" lon="-5.527917">
        <ele>956.0</ele>
        <time>2013-06-30T15:00:39Z</time>
      </trkpt>
      <trkpt lat="40.055167" lon="-5.527817">
        <ele>956.0</ele>
        <time>2013-06-30T15:00:40Z</time>
      </trkpt>
      <trkpt lat="40.055167" lon="-5.527717">
        <ele>956.0</ele>
        <time>2013-06-30T15:00:41Z</time>
      </trkpt>
      <trkpt lat="40.055200" lon="-5.527650">
        <ele>956.0</ele>
        <time>2013-06-30T15:00:42Z</time>
      </trkpt>
      <trkpt lat="40.055233" lon="-5.527583">
        <ele>956.0</ele>
        <time>2013-06-30T15:00:43Z</time>
      </trkpt>
      <trkpt lat="40.055283" lon="-5.527533">
        <ele>956.0</ele>
        <time>2013-06-30T15:00:44Z</time>
      </trkpt>
      <trkpt lat="40.055333" lon="-5.527467">
        <ele>956.0</ele>
        <time>2013-06-30T15:00:45Z</time>
      </trkpt>
      <trkpt lat="40.055400" lon="-5.527417">
        <ele>956.0</ele>
        <time>2013-06-30T15:00:46Z</time>
      </trkpt>
      <trkpt lat="40.055483" lon="-5.527400">
        <ele>956.0</ele>
        <time>2013-06-30T15:00:47Z</time>
      </trkpt>
      <trkpt lat="40.055567" lon="-5.527417">
        <ele>955.0</ele>
        <time>2013-06-30T15:00:48Z</time>
      </trkpt>
      <trkpt lat="40.055633" lon="-5.527433">
        <ele>955.0</ele>
        <time>2013-06-30T15:00:49Z</time>
      </trkpt>
      <trkpt lat="40.055700" lon="-5.527467">
        <ele>955.0</ele>
        <time>2013-06-30T15:00:50Z</time>
      </trkpt>
      <trkpt lat="40.055767" lon="-5.527517">
        <ele>955.0</ele>
        <time>2013-06-30T15:00:51Z</time>
      </trkpt>
      <trkpt lat="40.055817" lon="-5.527567">
        <ele>955.0</ele>
        <time>2013-06-30T15:00:52Z</time>
      </trkpt>
      <trkpt lat="40.055850" lon="-5.527667">
        <ele>954.0</ele>
        <time>2013-06-30T15:00:53Z</time>
      </trkpt>
      <trkpt lat="40.055867" lon="-5.527767">
        <ele>953.0</ele>
        <time>2013-06-30T15:00:54Z</time>
      </trkpt>
      <trkpt lat="40.055867" lon="-5.527900">
        <ele>952.0</ele>
        <time>2013-06-30T15:00:55Z</time>
      </trkpt>
      <trkpt lat="40.055850" lon="-5.528017">
        <ele>952.0</ele>
        <time>2013-06-30T15:00:56Z</time>
      </trkpt>
      <trkpt lat="40.055817" lon="-5.528117">
        <ele>951.0</ele>
        <time>2013-06-30T15:00:57Z</time>
      </trkpt>
      <trkpt lat="40.055750" lon="-5.528200">
        <ele>951.0</ele>
        <time>2013-06-30T15:00:58Z</time>
      </trkpt>
      <trkpt lat="40.055700" lon="-5.528267">
        <ele>951.0</ele>
        <time>2013-06-30T15:00:59Z</time>
      </trkpt>
      <trkpt lat="40.055617" lon="-5.528300">
        <ele>951.0</ele>
        <time>2013-06-30T15:01:00Z</time>
      </trkpt>
      <trkpt lat="40.055533" lon="-5.528333">
        <ele>951.0</ele>
        <time>2013-06-30T15:01:01Z</time>
      </trkpt>
      <trkpt lat="40.055450" lon="-5.528350">
        <ele>952.0</ele>
        <time>2013-06-30T15:01:02Z</time>
      </trkpt>
      <trkpt lat="40.055367" lon="-5.528350">
        <ele>952.0</ele>
        <time>2013-06-30T15:01:03Z</time>
      </trkpt>
      <trkpt lat="40.055267" lon="-5.528333">
        <ele>952.0</ele>
        <time>2013-06-30T15:01:04Z</time>
      </trkpt>
      <trkpt lat="40.055183" lon="-5.528333">
        <ele>952.0</ele>
        <time>2013-06-30T15:01:05Z</time>
      </trkpt>
      <trkpt lat="40.055100" lon="-5.528333">
        <ele>952.0</ele>
        <time>2013-06-30T15:01:06Z</time>
      </trkpt>
      <trkpt lat="40.055017" lon="-5.528317">
        <ele>952.0</ele>
        <time>2013-06-30T15:01:07Z</time>
      </trkpt>
      <trkpt lat="40.054917" lon="-5.528300">
        <ele>952.0</ele>
        <time>2013-06-30T15:01:08Z</time>
      </trkpt>
      <trkpt lat="40.054833" lon="-5.528283">
        <ele>955.0</ele>
        <time>2013-06-30T15:01:09Z</time>
      </trkpt>
      <trkpt lat="40.054750" lon="-5.528233">
        <ele>957.0</ele>
        <time>2013-06-30T15:01:10Z</time>
      </trkpt>
      <trkpt lat="40.054667" lon="-5.528217">
        <ele>958.0</ele>
        <time>2013-06-30T15:01:11Z</time>
      </trkpt>
      <trkpt lat="40.054600" lon="-5.528183">
        <ele>960.0</ele>
        <time>2013-06-30T15:01:12Z</time>
      </trkpt>
      <trkpt lat="40.054517" lon="-5.528167">
        <ele>961.0</ele>
        <time>2013-06-30T15:01:13Z</time>
      </trkpt>
      <trkpt lat="40.054450" lon="-5.528117">
        <ele>962.0</ele>
        <time>2013-06-30T15:01:14Z</time>
      </trkpt>
      <trkpt lat="40.054383" lon="-5.528050">
        <ele>963.0</ele>
        <time>2013-06-30T15:01:15Z</time>
      </trkpt>
      <trkpt lat="40.054317" lon="-5.527967">
        <ele>965.0</ele>
        <time>2013-06-30T15:01:16Z</time>
      </trkpt>
      <trkpt lat="40.054267" lon="-5.527883">
        <ele>967.0</ele>
        <time>2013-06-30T15:01:17Z</time>
      </trkpt>
      <trkpt lat="40.054250" lon="-5.527817">
        <ele>970.0</ele>
        <time>2013-06-30T15:01:18Z</time>
      </trkpt>
      <trkpt lat="40.054233" lon="-5.527750">
        <ele>972.0</ele>
        <time>2013-06-30T15:01:19Z</time>
      </trkpt>
      <trkpt lat="40.054250" lon="-5.527650">
        <ele>973.0</ele>
        <time>2013-06-30T15:01:20Z</time>
      </trkpt>
      <trkpt lat="40.054267" lon="-5.527567">
        <ele>973.0</ele>
        <time>2013-06-30T15:01:21Z</time>
      </trkpt>
      <trkpt lat="40.054300" lon="-5.527483">
        <ele>975.0</ele>
        <time>2013-06-30T15:01:22Z</time>
      </trkpt>
      <trkpt lat="40.054333" lon="-5.527400">
        <ele>977.0</ele>
        <time>2013-06-30T15:01:23Z</time>
      </trkpt>
      <trkpt lat="40.054367" lon="-5.527350">
        <ele>979.0</ele>
        <time>2013-06-30T15:01:24Z</time>
      </trkpt>
      <trkpt lat="40.054433" lon="-5.527317">
        <ele>980.0</ele>
        <time>2013-06-30T15:01:25Z</time>
      </trkpt>
      <trkpt lat="40.054517" lon="-5.527300">
        <ele>980.0</ele>
        <time>2013-06-30T15:01:26Z</time>
      </trkpt>
      <trkpt lat="40.054600" lon="-5.527300">
        <ele>982.0</ele>
        <time>2013-06-30T15:01:27Z</time>
      </trkpt>
      <trkpt lat="40.054667" lon="-5.527333">
        <ele>986.0</ele>
        <time>2013-06-30T15:01:28Z</time>
      </trkpt>
      <trkpt lat="40.054733" lon="-5.527383">
        <ele>989.0</ele>
        <time>2013-06-30T15:01:29Z</time>
      </trkpt>
      <trkpt lat="40.054767" lon="-5.527433">
        <ele>991.0</ele>
        <time>2013-06-30T15:01:30Z</time>
      </trkpt>
      <trkpt lat="40.054817" lon="-5.527483">
        <ele>992.0</ele>
        <time>2013-06-30T15:01:31Z</time>
      </trkpt>
      <trkpt lat="40.054867" lon="-5.527567">
        <ele>993.0</ele>
        <time>2013-06-30T15:01:32Z</time>
      </trkpt>
      <trkpt lat="40.054900" lon="-5.527650">
        <ele>994.0</ele>
        <time>2013-06-30T15:01:33Z</time>
      </trkpt>
      <trkpt lat="40.054900" lon="-5.527733">
        <ele>994.0</ele>
        <time>2013-06-30T15:01:34Z</time>
      </trkpt>
      <trkpt lat="40.054883" lon="-5.527817">
        <ele>994.0</ele>
        <time>2013-06-30T15:01:35Z</time>
      </trkpt>
      <trkpt lat="40.054833" lon="-5.527917">
        <ele>994.0</ele>
        <time>2013-06-30T15:01:36Z</time>
      </trkpt>
      <trkpt lat="40.054783" lon="-5.528000">
        <ele>994.0</ele>
        <time>2013-06-30T15:01:37Z</time>
      </trkpt>
      <trkpt lat="40.054717" lon="-5.528050">
        <ele>994.0</ele>
        <time>2013-06-30T15:01:38Z</time>
      </trkpt>
      <trkpt lat="40.054650" lon="-5.528067">
        <ele>994.0</ele>
        <time>2013-06-30T15:01:39Z</time>
      </trkpt>
      <trkpt lat="40.054583" lon="-5.528083">
        <ele>995.0</ele>
        <time>2013-06-30T15:01:40Z</time>
      </trkpt>
      <trkpt lat="40.054500" lon="-5.528083">
        <ele>996.0</ele>
        <time>2013-06-30T15:01:41Z</time>
      </trkpt>
      <trkpt lat="40.054417" lon="-5.528083">
        <ele>997.0</ele>
        <time>2013-06-30T15:01:42Z</time>
      </trkpt>
      <trkpt lat="40.054333" lon="-5.528067">
        <ele>999.0</ele>
        <time>2013-06-30T15:01:43Z</time>
      </trkpt>
      <trkpt lat="40.054250" lon="-5.528033">
        <ele>1000.0</ele>
        <time>2013-06-30T15:01:44Z</time>
      </trkpt>
      <trkpt lat="40.054183" lon="-5.528000">
        <ele>1002.0</ele>
        <time>2013-06-30T15:01:45Z</time>
      </trkpt>
      <trkpt lat="40.054133" lon="-5.527950">
        <ele>1003.0</ele>
        <time>2013-06-30T15:01:46Z</time>
      </trkpt>
      <trkpt lat="40.054100" lon="-5.527883">
        <ele>1004.0</ele>
        <time>2013-06-30T15:01:47Z</time>
      </trkpt>
      <trkpt lat="40.054050" lon="-5.527817">
        <ele>1005.0</ele>
        <time>2013-06-30T15:01:48Z</time>
      </trkpt>
      <trkpt lat="40.054017" lon="-5.527717">
        <ele>1006.0</ele>
        <time>2013-06-30T15:01:49Z</time>
      </trkpt>
      <trkpt lat="40.053983" lon="-5.527633">
        <ele>1007.0</ele>
        <time>2013-06-30T15:01:50Z</time>
      </trkpt>
      <trkpt lat="40.053983" lon="-5.527550">
        <ele>1009.0</ele>
        <time>2013-06-30T15:01:51Z</time>
      </trkpt>
      <trkpt lat="40.054000" lon="-5.527483">
        <ele>1010.0</ele>
        <time>2013-06-30T15:01:52Z</time>
      </trkpt>
      <trkpt lat="40.054017" lon="-5.527400">
        <ele>1011.0</ele>
        <time>2013-06-30T15:01:53Z</time>
      </trkpt>
      <trkpt lat="40.054050" lon="-5.527333">
        <ele>1011.0</ele>
        <time>2013-06-30T15:01:54Z</time>
      </trkpt>
      <trkpt lat="40.054083" lon="-5.527250">
        <ele>1011.0</ele>
        <time>2013-06-30T15:01:55Z</time>
      </trkpt>
      <trkpt lat="40.054133" lon="-5.527200">
        <ele>1011.0</ele>
        <time>2013-06-30T15:01:56Z</time>
      </trkpt>
      <trkpt lat="40.054183" lon="-5.527150">
        <ele>1010.0</ele>
        <time>2013-06-30T15:01:57Z</time>
      </trkpt>
      <trkpt lat="40.054233" lon="-5.527100">
        <ele>1010.0</ele>
        <time>2013-06-30T15:01:58Z</time>
      </trkpt>
      <trkpt lat="40.054267" lon="-5.527067">
        <ele>1009.0</ele>
        <time>2013-06-30T15:01:59Z</time>
      </trkpt>
      <trkpt lat="40.054300" lon="-5.527000">
        <ele>1008.0</ele>
        <time>2013-06-30T15:02:00Z</time>
      </trkpt>
      <trkpt lat="40.054350" lon="-5.526950">
        <ele>1007.0</ele>
        <time>2013-06-30T15:02:01Z</time>
      </trkpt>
      <trkpt lat="40.054417" lon="-5.526883">
        <ele>1007.0</ele>
        <time>2013-06-30T15:02:02Z</time>
      </trkpt>
      <trkpt lat="40.054483" lon="-5.526867">
        <ele>1007.0</ele>
        <time>2013-06-30T15:02:03Z</time>
      </trkpt>
      <trkpt lat="40.054567" lon="-5.526867">
        <ele>1007.0</ele>
        <time>2013-06-30T15:02:04Z</time>
      </trkpt>
      <trkpt lat="40.054633" lon="-5.526883">
        <ele>1007.0</ele>
        <time>2013-06-30T15:02:05Z</time>
      </trkpt>
      <trkpt lat="40.054700" lon="-5.526933">
        <ele>1006.0</ele>
        <time>2013-06-30T15:02:06Z</time>
      </trkpt>
      <trkpt lat="40.054767" lon="-5.527000">
        <ele>1006.0</ele>
        <time>2013-06-30T15:02:07Z</time>
      </trkpt>
      <trkpt lat="40.054833" lon="-5.527067">
        <ele>1007.0</ele>
        <time>2013-06-30T15:02:08Z</time>
      </trkpt>
      <trkpt lat="40.054883" lon="-5.527150">
        <ele>1007.0</ele>
        <time>2013-06-30T15:02:09Z</time>
      </trkpt>
      <trkpt lat="40.054917" lon="-5.527217">
        <ele>1008.0</ele>
        <time>2013-06-30T15:02:10Z</time>
      </trkpt>
      <trkpt lat="40.054950" lon="-5.527300">
        <ele>1009.0</ele>
        <time>2013-06-30T15:02:11Z</time>
      </trkpt>
      <trkpt lat="40.054950" lon="-5.527400">
        <ele>1010.0</ele>
        <time>2013-06-30T15:02:12Z</time>
      </trkpt>
      <trkpt lat="40.054950" lon="-5.527483">
        <ele>1011.0</ele>
        <time>2013-06-30T15:02:13Z</time>
      </trkpt>
      <trkpt lat="40.054933" lon="-5.527583">
        <ele>1011.0</ele>
        <time>2013-06-30T15:02:14Z</time>
      </trkpt>
      <trkpt lat="40.054900" lon="-5.527667">
        <ele>1012.0</ele>
        <time>2013-06-30T15:02:15Z</time>
      </trkpt>
      <trkpt lat="40.054850" lon="-5.527750">
        <ele>1012.0</ele>
        <time>2013-06-30T15:02:16Z</time>
      </trkpt>
      <trkpt lat="40.054783" lon="-5.527800">
        <ele>1012.0</ele>
        <time>2013-06-30T15:02:17Z</time>
      </trkpt>
      <trkpt lat="40.054700" lon="-5.527833">
        <ele>1012.0</ele>
        <time>2013-06-30T15:02:18Z</time>
      </trkpt>
      <trkpt lat="40.054633" lon="-5.527867">
        <ele>1012.0</ele>
        <time>2013-06-30T15:02:19Z</time>
      </trkpt>
      <trkpt lat="40.054550" lon="-5.527883">
        <ele>1013.0</ele>
        <time>2013-06-30T15:02:20Z</time>
      </trkpt>
      <trkpt lat="40.054483" lon="-5.527900">
        <ele>1013.0</ele>
        <time>2013-06-30T15:02:21Z</time>
      </trkpt>
      <trkpt lat="40.054400" lon="-5.527883">
        <ele>1013.0</ele>
        <time>2013-06-30T15:02:22Z</time>
      </trkpt>
      <trkpt lat="40.054317" lon="-5.527867">
        <ele>1015.0</ele>
        <time>2013-06-30T15:02:23Z</time>
      </trkpt>
      <trkpt lat="40.054250" lon="-5.527817">
        <ele>1016.0</ele>
        <time>2013-06-30T15:02:24Z</time>
      </trkpt>
      <trkpt lat="40.054183" lon="-5.527750">
        <ele>1016.0</ele>
        <time>2013-06-30T15:02:25Z</time>
      </trkpt>
      <trkpt lat="40.054150" lon="-5.527683">
        <ele>1017.0</ele>
        <time>2013-06-30T15:02:26Z</time>
      </trkpt>
      <trkpt lat="40.054117" lon="-5.527617">
        <ele>1017.0</ele>
        <time>2013-06-30T15:02:27Z</time>
      </trkpt>
      <trkpt lat="40.054083" lon="-5.527533">
        <ele>1018.0</ele>
        <time>2013-06-30T15:02:28Z</time>
      </trkpt>
      <trkpt lat="40.054083" lon="-5.527450">
        <ele>1018.0</ele>
        <time>2013-06-30T15:02:29Z</time>
      </trkpt>
      <trkpt lat="40.054100" lon="-5.527350">
        <ele>1018.0</ele>
        <time>2013-06-30T15:02:30Z</time>
      </trkpt>
      <trkpt lat="40.054133" lon="-5.527267">
        <ele>1018.0</ele>
        <time>2013-06-30T15:02:31Z</time>
      </trkpt>
      <trkpt lat="40.054183" lon="-5.527200">
        <ele>1019.0</ele>
        <time>2013-06-30T15:02:32Z</time>
      </trkpt>
      <trkpt lat="40.054250" lon="-5.527150">
        <ele>1020.0</ele>
        <time>2013-06-30T15:02:33Z</time>
      </trkpt>
      <trkpt lat="40.054317" lon="-5.527133">
        <ele>1020.0</ele>
        <time>2013-06-30T15:02:34Z</time>
      </trkpt>
      <trkpt lat="40.054383" lon="-5.527100">
        <ele>1019.0</ele>
        <time>2013-06-30T15:02:35Z</time>
      </trkpt>
      <trkpt lat="40.054483" lon="-5.527100">
        <ele>1018.0</ele>
        <time>2013-06-30T15:02:36Z</time>
      </trkpt>
      <trkpt lat="40.054567" lon="-5.527133">
        <ele>1018.0</ele>
        <time>2013-06-30T15:02:37Z</time>
      </trkpt>
      <trkpt lat="40.054650" lon="-5.527183">
        <ele>1019.0</ele>
        <time>2013-06-30T15:02:38Z</time>
      </trkpt>
      <trkpt lat="40.054700" lon="-5.527250">
        <ele>1019.0</ele>
        <time>2013-06-30T15:02:39Z</time>
      </trkpt>
      <trkpt lat="40.054750" lon="-5.527333">
        <ele>1019.0</ele>
        <time>2013-06-30T15:02:40Z</time>
      </trkpt>
      <trkpt lat="40.054783" lon="-5.527417">
        <ele>1020.0</ele>
        <time>2013-06-30T15:02:41Z</time>
      </trkpt>
      <trkpt lat="40.054817" lon="-5.527517">
        <ele>1020.0</ele>
        <time>2013-06-30T15:02:42Z</time>
      </trkpt>
      <trkpt lat="40.054817" lon="-5.527617">
        <ele>1020.0</ele>
        <time>2013-06-30T15:02:43Z</time>
      </trkpt>
      <trkpt lat="40.054800" lon="-5.527700">
        <ele>1020.0</ele>
        <time>2013-06-30T15:02:44Z</time>
      </trkpt>
      <trkpt lat="40.054783" lon="-5.527800">
        <ele>1020.0</ele>
        <time>2013-06-30T15:02:45Z</time>
      </trkpt>
      <trkpt lat="40.054750" lon="-5.527883">
        <ele>1020.0</ele>
        <time>2013-06-30T15:02:46Z</time>
      </trkpt>
      <trkpt lat="40.054700" lon="-5.527967">
        <ele>1021.0</ele>
        <time>2013-06-30T15:02:47Z</time>
      </trkpt>
      <trkpt lat="40.054650" lon="-5.528050">
        <ele>1021.0</ele>
        <time>2013-06-30T15:02:48Z</time>
      </trkpt>
      <trkpt lat="40.054600" lon="-5.528117">
        <ele>1021.0</ele>
        <time>2013-06-30T15:02:49Z</time>
      </trkpt>
      <trkpt lat="40.054533" lon="-5.528167">
        <ele>1021.0</ele>
        <time>2013-06-30T15:02:50Z</time>
      </trkpt>
      <trkpt lat="40.054450" lon="-5.528217">
        <ele>1022.0</ele>
        <time>2013-06-30T15:02:51Z</time>
      </trkpt>
      <trkpt lat="40.054383" lon="-5.528250">
        <ele>1022.0</ele>
        <time>2013-06-30T15:02:52Z</time>
      </trkpt>
      <trkpt lat="40.054300" lon="-5.528267">
        <ele>1022.0</ele>
        <time>2013-06-30T15:02:53Z</time>
      </trkpt>
      <trkpt lat="40.054217" lon="-5.528267">
        <ele>1022.0</ele>
        <time>2013-06-30T15:02:54Z</time>
      </trkpt>
      <trkpt lat="40.054133" lon="-5.528233">
        <ele>1021.0</ele>
        <time>2013-06-30T15:02:55Z</time>
      </trkpt>
      <trkpt lat="40.054083" lon="-5.528200">
        <ele>1020.0</ele>
        <time>2013-06-30T15:02:56Z</time>
      </trkpt>
      <trkpt lat="40.054017" lon="-5.528117">
        <ele>1018.0</ele>
        <time>2013-06-30T15:02:57Z</time>
      </trkpt>
      <trkpt lat="40.053983" lon="-5.528033">
        <ele>1018.0</ele>
        <time>2013-06-30T15:02:58Z</time>
      </trkpt>
      <trkpt lat="40.053967" lon="-5.527950">
        <ele>1019.0</ele>
        <time>2013-06-30T15:02:59Z</time>
      </trkpt>
      <trkpt lat="40.053950" lon="-5.527867">
        <ele>1020.0</ele>
        <time>2013-06-30T15:03:00Z</time>
      </trkpt>
      <trkpt lat="40.053967" lon="-5.527783">
        <ele>1020.0</ele>
        <time>2013-06-30T15:03:01Z</time>
      </trkpt>
      <trkpt lat="40.053983" lon="-5.527683">
        <ele>1019.0</ele>
        <time>2013-06-30T15:03:02Z</time>
      </trkpt>
      <trkpt lat="40.054017" lon="-5.527600">
        <ele>1019.0</ele>
        <time>2013-06-30T15:03:03Z</time>
      </trkpt>
      <trkpt lat="40.054067" lon="-5.527500">
        <ele>1019.0</ele>
        <time>2013-06-30T15:03:04Z</time>
      </trkpt>
      <trkpt lat="40.054117" lon="-5.527433">
        <ele>1019.0</ele>
        <time>2013-06-30T15:03:05Z</time>
      </trkpt>
      <trkpt lat="40.054183" lon="-5.527400">
        <ele>1020.0</ele>
        <time>2013-06-30T15:03:06Z</time>
      </trkpt>
      <trkpt lat="40.054250" lon="-5.527383">
        <ele>1020.0</ele>
        <time>2013-06-30T15:03:07Z</time>
      </trkpt>
      <trkpt lat="40.054317" lon="-5.527367">
        <ele>1020.0</ele>
        <time>2013-06-30T15:03:08Z</time>
      </trkpt>
      <trkpt lat="40.054400" lon="-5.527367">
        <ele>1020.0</ele>
        <time>2013-06-30T15:03:09Z</time>
      </trkpt>
      <trkpt lat="40.054500" lon="-5.527400">
        <ele>1019.0</ele>
        <time>2013-06-30T15:03:10Z</time>
      </trkpt>
      <trkpt lat="40.054583" lon="-5.527450">
        <ele>1019.0</ele>
        <time>2013-06-30T15:03:11Z</time>
      </trkpt>
      <trkpt lat="40.054667" lon="-5.527517">
        <ele>1020.0</ele>
        <time>2013-06-30T15:03:12Z</time>
      </trkpt>
      <trkpt lat="40.054717" lon="-5.527600">
        <ele>1021.0</ele>
        <time>2013-06-30T15:03:13Z</time>
      </trkpt>
      <trkpt lat="40.054750" lon="-5.527700">
        <ele>1022.0</ele>
        <time>2013-06-30T15:03:14Z</time>
      </trkpt>
      <trkpt lat="40.054783" lon="-5.527783">
        <ele>1021.0</ele>
        <time>2013-06-30T15:03:15Z</time>
      </trkpt>
      <trkpt lat="40.054817" lon="-5.527883">
        <ele>1021.0</ele>
        <time>2013-06-30T15:03:16Z</time>
      </trkpt>
      <trkpt lat="40.054850" lon="-5.528000">
        <ele>1020.0</ele>
        <time>2013-06-30T15:03:17Z</time>
      </trkpt>
      <trkpt lat="40.054867" lon="-5.528117">
        <ele>1019.0</ele>
        <time>2013-06-30T15:03:18Z</time>
      </trkpt>
      <trkpt lat="40.054850" lon="-5.528233">
        <ele>1019.0</ele>
        <time>2013-06-30T15:03:19Z</time>
      </trkpt>
      <trkpt lat="40.054817" lon="-5.528333">
        <ele>1019.0</ele>
        <time>2013-06-30T15:03:20Z</time>
      </trkpt>
      <trkpt lat="40.054783" lon="-5.528417">
        <ele>1019.0</ele>
        <time>2013-06-30T15:03:21Z</time>
      </trkpt>
      <trkpt lat="40.054717" lon="-5.528500">
        <ele>1019.0</ele>
        <time>2013-06-30T15:03:22Z</time>
      </trkpt>
      <trkpt lat="40.054667" lon="-5.528567">
        <ele>1019.0</ele>
        <time>2013-06-30T15:03:23Z</time>
      </trkpt>
      <trkpt lat="40.054617" lon="-5.528633">
        <ele>1019.0</ele>
        <time>2013-06-30T15:03:24Z</time>
      </trkpt>
      <trkpt lat="40.054550" lon="-5.528700">
        <ele>1018.0</ele>
        <time>2013-06-30T15:03:25Z</time>
      </trkpt>
      <trkpt lat="40.054483" lon="-5.528767">
        <ele>1017.0</ele>
        <time>2013-06-30T15:03:26Z</time>
      </trkpt>
      <trkpt lat="40.054400" lon="-5.528833">
        <ele>1017.0</ele>
        <time>2013-06-30T15:03:27Z</time>
      </trkpt>
      <trkpt lat="40.054333" lon="-5.528900">
        <ele>1018.0</ele>
        <time>2013-06-30T15:03:28Z</time>
      </trkpt>
      <trkpt lat="40.054267" lon="-5.528950">
        <ele>1018.0</ele>
        <time>2013-06-30T15:03:29Z</time>
      </trkpt>
      <trkpt lat="40.054183" lon="-5.529000">
        <ele>1018.0</ele>
        <time>2013-06-30T15:03:30Z</time>
      </trkpt>
      <trkpt lat="40.054117" lon="-5.529050">
        <ele>1018.0</ele>
        <time>2013-06-30T15:03:31Z</time>
      </trkpt>
      <trkpt lat="40.054033" lon="-5.529083">
        <ele>1017.0</ele>
        <time>2013-06-30T15:03:32Z</time>
      </trkpt>
      <trkpt lat="40.053950" lon="-5.529117">
        <ele>1017.0</ele>
        <time>2013-06-30T15:03:33Z</time>
      </trkpt>
      <trkpt lat="40.053867" lon="-5.529167">
        <ele>1017.0</ele>
        <time>2013-06-30T15:03:34Z</time>
      </trkpt>
      <trkpt lat="40.053783" lon="-5.529200">
        <ele>1018.0</ele>
        <time>2013-06-30T15:03:35Z</time>
      </trkpt>
      <trkpt lat="40.053717" lon="-5.529250">
        <ele>1018.0</ele>
        <time>2013-06-30T15:03:36Z</time>
      </trkpt>
      <trkpt lat="40.053633" lon="-5.529300">
        <ele>1018.0</ele>
        <time>2013-06-30T15:03:37Z</time>
      </trkpt>
      <trkpt lat="40.053567" lon="-5.529350">
        <ele>1018.0</ele>
        <time>2013-06-30T15:03:38Z</time>
      </trkpt>
      <trkpt lat="40.053483" lon="-5.529383">
        <ele>1018.0</ele>
        <time>2013-06-30T15:03:39Z</time>
      </trkpt>
      <trkpt lat="40.053400" lon="-5.529417">
        <ele>1018.0</ele>
        <time>2013-06-30T15:03:40Z</time>
      </trkpt>
      <trkpt lat="40.053317" lon="-5.529433">
        <ele>1019.0</ele>
        <time>2013-06-30T15:03:41Z</time>
      </trkpt>
      <trkpt lat="40.053233" lon="-5.529467">
        <ele>1019.0</ele>
        <time>2013-06-30T15:03:42Z</time>
      </trkpt>
      <trkpt lat="40.053150" lon="-5.529500">
        <ele>1020.0</ele>
        <time>2013-06-30T15:03:43Z</time>
      </trkpt>
      <trkpt lat="40.053050" lon="-5.529517">
        <ele>1020.0</ele>
        <time>2013-06-30T15:03:44Z</time>
      </trkpt>
      <trkpt lat="40.052967" lon="-5.529533">
        <ele>1020.0</ele>
        <time>2013-06-30T15:03:45Z</time>
      </trkpt>
      <trkpt lat="40.052867" lon="-5.529550">
        <ele>1021.0</ele>
        <time>2013-06-30T15:03:46Z</time>
      </trkpt>
      <trkpt lat="40.052783" lon="-5.529550">
        <ele>1021.0</ele>
        <time>2013-06-30T15:03:47Z</time>
      </trkpt>
      <trkpt lat="40.052700" lon="-5.529550">
        <ele>1022.0</ele>
        <time>2013-06-30T15:03:48Z</time>
      </trkpt>
      <trkpt lat="40.052617" lon="-5.529550">
        <ele>1022.0</ele>
        <time>2013-06-30T15:03:49Z</time>
      </trkpt>
      <trkpt lat="40.052533" lon="-5.529550">
        <ele>1023.0</ele>
        <time>2013-06-30T15:03:50Z</time>
      </trkpt>
      <trkpt lat="40.052467" lon="-5.529550">
        <ele>1024.0</ele>
        <time>2013-06-30T15:03:51Z</time>
      </trkpt>
      <trkpt lat="40.052417" lon="-5.529517">
        <ele>1023.0</ele>
        <time>2013-06-30T15:03:52Z</time>
      </trkpt>
      <trkpt lat="40.052367" lon="-5.529483">
        <ele>1021.0</ele>
        <time>2013-06-30T15:03:53Z</time>
      </trkpt>
      <trkpt lat="40.052317" lon="-5.529417">
        <ele>1020.0</ele>
        <time>2013-06-30T15:03:54Z</time>
      </trkpt>
      <trkpt lat="40.052283" lon="-5.529350">
        <ele>1019.0</ele>
        <time>2013-06-30T15:03:55Z</time>
      </trkpt>
      <trkpt lat="40.052250" lon="-5.529283">
        <ele>1018.0</ele>
        <time>2013-06-30T15:03:56Z</time>
      </trkpt>
      <trkpt lat="40.052233" lon="-5.529217">
        <ele>1017.0</ele>
        <time>2013-06-30T15:03:57Z</time>
      </trkpt>
      <trkpt lat="40.052217" lon="-5.529133">
        <ele>1017.0</ele>
        <time>2013-06-30T15:03:58Z</time>
      </trkpt>
      <trkpt lat="40.052217" lon="-5.529067">
        <ele>1016.0</ele>
        <time>2013-06-30T15:03:59Z</time>
      </trkpt>
      <trkpt lat="40.052217" lon="-5.528983">
        <ele>1016.0</ele>
        <time>2013-06-30T15:04:00Z</time>
      </trkpt>
      <trkpt lat="40.052233" lon="-5.528900">
        <ele>1015.0</ele>
        <time>2013-06-30T15:04:01Z</time>
      </trkpt>
      <trkpt lat="40.052250" lon="-5.528833">
        <ele>1015.0</ele>
        <time>2013-06-30T15:04:02Z</time>
      </trkpt>
      <trkpt lat="40.052300" lon="-5.528783">
        <ele>1015.0</ele>
        <time>2013-06-30T15:04:03Z</time>
      </trkpt>
      <trkpt lat="40.052350" lon="-5.528733">
        <ele>1015.0</ele>
        <time>2013-06-30T15:04:04Z</time>
      </trkpt>
      <trkpt lat="40.052400" lon="-5.528700">
        <ele>1014.0</ele>
        <time>2013-06-30T15:04:05Z</time>
      </trkpt>
      <trkpt lat="40.052467" lon="-5.528667">
        <ele>1014.0</ele>
        <time>2013-06-30T15:04:06Z</time>
      </trkpt>
      <trkpt lat="40.052533" lon="-5.528633">
        <ele>1014.0</ele>
        <time>2013-06-30T15:04:07Z</time>
      </trkpt>
      <trkpt lat="40.052600" lon="-5.528617">
        <ele>1014.0</ele>
        <time>2013-06-30T15:04:08Z</time>
      </trkpt>
      <trkpt lat="40.052667" lon="-5.528617">
        <ele>1014.0</ele>
        <time>2013-06-30T15:04:09Z</time>
      </trkpt>
      <trkpt lat="40.052733" lon="-5.528633">
        <ele>1013.0</ele>
        <time>2013-06-30T15:04:10Z</time>
      </trkpt>
      <trkpt lat="40.052800" lon="-5.528683">
        <ele>1013.0</ele>
        <time>2013-06-30T15:04:11Z</time>
      </trkpt>
      <trkpt lat="40.052867" lon="-5.528733">
        <ele>1013.0</ele>
        <time>2013-06-30T15:04:12Z</time>
      </trkpt>
      <trkpt lat="40.052933" lon="-5.528783">
        <ele>1014.0</ele>
        <time>2013-06-30T15:04:13Z</time>
      </trkpt>
      <trkpt lat="40.052983" lon="-5.528850">
        <ele>1015.0</ele>
        <time>2013-06-30T15:04:14Z</time>
      </trkpt>
      <trkpt lat="40.053017" lon="-5.528917">
        <ele>1016.0</ele>
        <time>2013-06-30T15:04:15Z</time>
      </trkpt>
      <trkpt lat="40.053067" lon="-5.528967">
        <ele>1016.0</ele>
        <time>2013-06-30T15:04:16Z</time>
      </trkpt>
      <trkpt lat="40.053117" lon="-5.529017">
        <ele>1016.0</ele>
        <time>2013-06-30T15:04:17Z</time>
      </trkpt>
      <trkpt lat="40.053167" lon="-5.529083">
        <ele>1016.0</ele>
        <time>2013-06-30T15:04:18Z</time>
      </trkpt>
      <trkpt lat="40.053217" lon="-5.529150">
        <ele>1017.0</ele>
        <time>2013-06-30T15:04:19Z</time>
      </trkpt>
      <trkpt lat="40.053250" lon="-5.529233">
        <ele>1019.0</ele>
        <time>2013-06-30T15:04:20Z</time>
      </trkpt>
      <trkpt lat="40.053283" lon="-5.529317">
        <ele>1021.0</ele>
        <time>2013-06-30T15:04:21Z</time>
      </trkpt>
      <trkpt lat="40.053317" lon="-5.529383">
        <ele>1022.0</ele>
        <time>2013-06-30T15:04:22Z</time>
      </trkpt>
      <trkpt lat="40.053367" lon="-5.529433">
        <ele>1022.0</ele>
        <time>2013-06-30T15:04:23Z</time>
      </trkpt>
      <trkpt lat="40.053400" lon="-5.529483">
        <ele>1022.0</ele>
        <time>2013-06-30T15:04:24Z</time>
      </trkpt>
      <trkpt lat="40.053450" lon="-5.529517">
        <ele>1022.0</ele>
        <time>2013-06-30T15:04:25Z</time>
      </trkpt>
      <trkpt lat="40.053500" lon="-5.529550">
        <ele>1022.0</ele>
        <time>2013-06-30T15:04:26Z</time>
      </trkpt>
      <trkpt lat="40.053550" lon="-5.529550">
        <ele>1021.0</ele>
        <time>2013-06-30T15:04:27Z</time>
      </trkpt>
      <trkpt lat="40.053600" lon="-5.529550">
        <ele>1021.0</ele>
        <time>2013-06-30T15:04:28Z</time>
      </trkpt>
      <trkpt lat="40.053667" lon="-5.529533">
        <ele>1021.0</ele>
        <time>2013-06-30T15:04:29Z</time>
      </trkpt>
      <trkpt lat="40.053717" lon="-5.529500">
        <ele>1021.0</ele>
        <time>2013-06-30T15:04:30Z</time>
      </trkpt>
      <trkpt lat="40.053767" lon="-5.529467">
        <ele>1021.0</ele>
        <time>2013-06-30T15:04:31Z</time>
      </trkpt>
      <trkpt lat="40.053833" lon="-5.529450">
        <ele>1021.0</ele>
        <time>2013-06-30T15:04:32Z</time>
      </trkpt>
      <trkpt lat="40.053883" lon="-5.529400">
        <ele>1022.0</ele>
        <time>2013-06-30T15:04:33Z</time>
      </trkpt>
      <trkpt lat="40.053950" lon="-5.529367">
        <ele>1022.0</ele>
        <time>2013-06-30T15:04:34Z</time>
      </trkpt>
      <trkpt lat="40.054000" lon="-5.529333">
        <ele>1022.0</ele>
        <time>2013-06-30T15:04:35Z</time>
      </trkpt>
      <trkpt lat="40.054050" lon="-5.529317">
        <ele>1022.0</ele>
        <time>2013-06-30T15:04:36Z</time>
      </trkpt>
      <trkpt lat="40.054117" lon="-5.529283">
        <ele>1023.0</ele>
        <time>2013-06-30T15:04:37Z</time>
      </trkpt>
      <trkpt lat="40.054167" lon="-5.529250">
        <ele>1023.0</ele>
        <time>2013-06-30T15:04:38Z</time>
      </trkpt>
      <trkpt lat="40.054217" lon="-5.529200">
        <ele>1025.0</ele>
        <time>2013-06-30T15:04:39Z</time>
      </trkpt>
      <trkpt lat="40.054283" lon="-5.529167">
        <ele>1026.0</ele>
        <time>2013-06-30T15:04:40Z</time>
      </trkpt>
      <trkpt lat="40.054333" lon="-5.529117">
        <ele>1027.0</ele>
        <time>2013-06-30T15:04:41Z</time>
      </trkpt>
      <trkpt lat="40.054383" lon="-5.529083">
        <ele>1028.0</ele>
        <time>2013-06-30T15:04:42Z</time>
      </trkpt>
      <trkpt lat="40.054450" lon="-5.529050">
        <ele>1029.0</ele>
        <time>2013-06-30T15:04:43Z</time>
      </trkpt>
      <trkpt lat="40.054500" lon="-5.529000">
        <ele>1029.0</ele>
        <time>2013-06-30T15:04:44Z</time>
      </trkpt>
      <trkpt lat="40.054550" lon="-5.528950">
        <ele>1030.0</ele>
        <time>2013-06-30T15:04:45Z</time>
      </trkpt>
      <trkpt lat="40.054600" lon="-5.528883">
        <ele>1030.0</ele>
        <time>2013-06-30T15:04:46Z</time>
      </trkpt>
      <trkpt lat="40.054650" lon="-5.528817">
        <ele>1030.0</ele>
        <time>2013-06-30T15:04:47Z</time>
      </trkpt>
      <trkpt lat="40.054700" lon="-5.528733">
        <ele>1030.0</ele>
        <time>2013-06-30T15:04:48Z</time>
      </trkpt>
      <trkpt lat="40.054733" lon="-5.528667">
        <ele>1030.0</ele>
        <time>2013-06-30T15:04:49Z</time>
      </trkpt>
      <trkpt lat="40.054767" lon="-5.528583">
        <ele>1030.0</ele>
        <time>2013-06-30T15:04:50Z</time>
      </trkpt>
      <trkpt lat="40.054800" lon="-5.528483">
        <ele>1030.0</ele>
        <time>2013-06-30T15:04:51Z</time>
      </trkpt>
      <trkpt lat="40.054800" lon="-5.528400">
        <ele>1030.0</ele>
        <time>2013-06-30T15:04:52Z</time>
      </trkpt>
      <trkpt lat="40.054783" lon="-5.528300">
        <ele>1030.0</ele>
        <time>2013-06-30T15:04:53Z</time>
      </trkpt>
      <trkpt lat="40.054733" lon="-5.528217">
        <ele>1030.0</ele>
        <time>2013-06-30T15:04:54Z</time>
      </trkpt>
      <trkpt lat="40.054667" lon="-5.528150">
        <ele>1030.0</ele>
        <time>2013-06-30T15:04:55Z</time>
      </trkpt>
      <trkpt lat="40.054600" lon="-5.528117">
        <ele>1031.0</ele>
        <time>2013-06-30T15:04:56Z</time>
      </trkpt>
      <trkpt lat="40.054550" lon="-5.528117">
        <ele>1032.0</ele>
        <time>2013-06-30T15:04:57Z</time>
      </trkpt>
      <trkpt lat="40.054500" lon="-5.528133">
        <ele>1032.0</ele>
        <time>2013-06-30T15:04:58Z</time>
      </trkpt>
      <trkpt lat="40.054433" lon="-5.528167">
        <ele>1033.0</ele>
        <time>2013-06-30T15:04:59Z</time>
      </trkpt>
      <trkpt lat="40.054383" lon="-5.528200">
        <ele>1034.0</ele>
        <time>2013-06-30T15:05:00Z</time>
      </trkpt>
      <trkpt lat="40.054317" lon="-5.528233">
        <ele>1035.0</ele>
        <time>2013-06-30T15:05:01Z</time>
      </trkpt>
      <trkpt lat="40.054267" lon="-5.528267">
        <ele>1035.0</ele>
        <time>2013-06-30T15:05:02Z</time>
      </trkpt>
      <trkpt lat="40.054200" lon="-5.528317">
        <ele>1036.0</ele>
        <time>2013-06-30T15:05:03Z</time>
      </trkpt>
      <trkpt lat="40.054150" lon="-5.528383">
        <ele>1037.0</ele>
        <time>2013-06-30T15:05:04Z</time>
      </trkpt>
      <trkpt lat="40.054100" lon="-5.528450">
        <ele>1039.0</ele>
        <time>2013-06-30T15:05:05Z</time>
      </trkpt>
      <trkpt lat="40.054067" lon="-5.528533">
        <ele>1040.0</ele>
        <time>2013-06-30T15:05:06Z</time>
      </trkpt>
      <trkpt lat="40.054050" lon="-5.528617">
        <ele>1041.0</ele>
        <time>2013-06-30T15:05:07Z</time>
      </trkpt>
      <trkpt lat="40.054033" lon="-5.528717">
        <ele>1042.0</ele>
        <time>2013-06-30T15:05:08Z</time>
      </trkpt>
      <trkpt lat="40.054033" lon="-5.528817">
        <ele>1044.0</ele>
        <time>2013-06-30T15:05:09Z</time>
      </trkpt>
      <trkpt lat="40.054050" lon="-5.528917">
        <ele>1045.0</ele>
        <time>2013-06-30T15:05:10Z</time>
      </trkpt>
      <trkpt lat="40.054083" lon="-5.529017">
        <ele>1046.0</ele>
        <time>2013-06-30T15:05:11Z</time>
      </trkpt>
      <trkpt lat="40.054117" lon="-5.529100">
        <ele>1047.0</ele>
        <time>2013-06-30T15:05:12Z</time>
      </trkpt>
      <trkpt lat="40.054167" lon="-5.529183">
        <ele>1047.0</ele>
        <time>2013-06-30T15:05:13Z</time>
      </trkpt>
      <trkpt lat="40.054233" lon="-5.529233">
        <ele>1048.0</ele>
        <time>2013-06-30T15:05:14Z</time>
      </trkpt>
      <trkpt lat="40.054300" lon="-5.529267">
        <ele>1048.0</ele>
        <time>2013-06-30T15:05:15Z</time>
      </trkpt>
      <trkpt lat="40.054367" lon="-5.529267">
        <ele>1049.0</ele>
        <time>2013-06-30T15:05:16Z</time>
      </trkpt>
      <trkpt lat="40.054433" lon="-5.529250">
        <ele>1049.0</ele>
        <time>2013-06-30T15:05:17Z</time>
      </trkpt>
      <trkpt lat="40.054483" lon="-5.529200">
        <ele>1050.0</ele>
        <time>2013-06-30T15:05:18Z</time>
      </trkpt>
      <trkpt lat="40.054533" lon="-5.529150">
        <ele>1050.0</ele>
        <time>2013-06-30T15:05:19Z</time>
      </trkpt>
      <trkpt lat="40.054567" lon="-5.529083">
        <ele>1050.0</ele>
        <time>2013-06-30T15:05:20Z</time>
      </trkpt>
      <trkpt lat="40.054600" lon="-5.529000">
        <ele>1049.0</ele>
        <time>2013-06-30T15:05:21Z</time>
      </trkpt>
      <trkpt lat="40.054617" lon="-5.528900">
        <ele>1049.0</ele>
        <time>2013-06-30T15:05:22Z</time>
      </trkpt>
      <trkpt lat="40.054600" lon="-5.528817">
        <ele>1050.0</ele>
        <time>2013-06-30T15:05:23Z</time>
      </trkpt>
      <trkpt lat="40.054567" lon="-5.528733">
        <ele>1050.0</ele>
        <time>2013-06-30T15:05:24Z</time>
      </trkpt>
      <trkpt lat="40.054517" lon="-5.528667">
        <ele>1051.0</ele>
        <time>2013-06-30T15:05:25Z</time>
      </trkpt>
      <trkpt lat="40.054450" lon="-5.528617">
        <ele>1051.0</ele>
        <time>2013-06-30T15:05:26Z</time>
      </trkpt>
      <trkpt lat="40.054367" lon="-5.528583">
        <ele>1052.0</ele>
        <time>2013-06-30T15:05:27Z</time>
      </trkpt>
      <trkpt lat="40.054300" lon="-5.528567">
        <ele>1053.0</ele>
        <time>2013-06-30T15:05:28Z</time>
      </trkpt>
      <trkpt lat="40.054233" lon="-5.528567">
        <ele>1054.0</ele>
        <time>2013-06-30T15:05:29Z</time>
      </trkpt>
      <trkpt lat="40.054167" lon="-5.528583">
        <ele>1056.0</ele>
        <time>2013-06-30T15:05:30Z</time>
      </trkpt>
      <trkpt lat="40.054100" lon="-5.528600">
        <ele>1057.0</ele>
        <time>2013-06-30T15:05:31Z</time>
      </trkpt>
      <trkpt lat="40.054033" lon="-5.528633">
        <ele>1058.0</ele>
        <time>2013-06-30T15:05:32Z</time>
      </trkpt>
      <trkpt lat="40.053967" lon="-5.528683">
        <ele>1059.0</ele>
        <time>2013-06-30T15:05:33Z</time>
      </trkpt>
      <trkpt lat="40.053900" lon="-5.528733">
        <ele>1060.0</ele>
        <time>2013-06-30T15:05:34Z</time>
      </trkpt>
      <trkpt lat="40.053850" lon="-5.528817">
        <ele>1061.0</ele>
        <time>2013-06-30T15:05:35Z</time>
      </trkpt>
      <trkpt lat="40.053800" lon="-5.528883">
        <ele>1062.0</ele>
        <time>2013-06-30T15:05:36Z</time>
      </trkpt>
      <trkpt lat="40.053783" lon="-5.528967">
        <ele>1064.0</ele>
        <time>2013-06-30T15:05:37Z</time>
      </trkpt>
      <trkpt lat="40.053767" lon="-5.529067">
        <ele>1064.0</ele>
        <time>2013-06-30T15:05:38Z</time>
      </trkpt>
      <trkpt lat="40.053767" lon="-5.529167">
        <ele>1065.0</ele>
        <time>2013-06-30T15:05:39Z</time>
      </trkpt>
      <trkpt lat="40.053783" lon="-5.529267">
        <ele>1066.0</ele>
        <time>2013-06-30T15:05:40Z</time>
      </trkpt>
      <trkpt lat="40.053800" lon="-5.529367">
        <ele>1067.0</ele>
        <time>2013-06-30T15:05:41Z</time>
      </trkpt>
      <trkpt lat="40.053833" lon="-5.529450">
        <ele>1068.0</ele>
        <time>2013-06-30T15:05:42Z</time>
      </trkpt>
      <trkpt lat="40.053883" lon="-5.529517">
        <ele>1069.0</ele>
        <time>2013-06-30T15:05:43Z</time>
      </trkpt>
      <trkpt lat="40.053950" lon="-5.529567">
        <ele>1070.0</ele>
        <time>2013-06-30T15:05:44Z</time>
      </trkpt>
      <trkpt lat="40.054017" lon="-5.529617">
        <ele>1071.0</ele>
        <time>2013-06-30T15:05:45Z</time>
      </trkpt>
      <trkpt lat="40.054083" lon="-5.529650">
        <ele>1072.0</ele>
        <time>2013-06-30T15:05:46Z</time>
      </trkpt>
      <trkpt lat="40.054150" lon="-5.529667">
        <ele>1072.0</ele>
        <time>2013-06-30T15:05:47Z</time>
      </trkpt>
      <trkpt lat="40.054200" lon="-5.529683">
        <ele>1072.0</ele>
        <time>2013-06-30T15:05:48Z</time>
      </trkpt>
      <trkpt lat="40.054267" lon="-5.529667">
        <ele>1070.0</ele>
        <time>2013-06-30T15:05:49Z</time>
      </trkpt>
      <trkpt lat="40.054333" lon="-5.529617">
        <ele>1069.0</ele>
        <time>2013-06-30T15:05:50Z</time>
      </trkpt>
      <trkpt lat="40.054400" lon="-5.529550">
        <ele>1069.0</ele>
        <time>2013-06-30T15:05:51Z</time>
      </trkpt>
      <trkpt lat="40.054450" lon="-5.529483">
        <ele>1069.0</ele>
        <time>2013-06-30T15:05:52Z</time>
      </trkpt>
      <trkpt lat="40.054500" lon="-5.529417">
        <ele>1069.0</ele>
        <time>2013-06-30T15:05:53Z</time>
      </trkpt>
      <trkpt lat="40.054533" lon="-5.529350">
        <ele>1069.0</ele>
        <time>2013-06-30T15:05:54Z</time>
      </trkpt>
      <trkpt lat="40.054567" lon="-5.529267">
        <ele>1069.0</ele>
        <time>2013-06-30T15:05:55Z</time>
      </trkpt>
      <trkpt lat="40.054600" lon="-5.529183">
        <ele>1068.0</ele>
        <time>2013-06-30T15:05:56Z</time>
      </trkpt>
      <trkpt lat="40.054600" lon="-5.529083">
        <ele>1068.0</ele>
        <time>2013-06-30T15:05:57Z</time>
      </trkpt>
      <trkpt lat="40.054600" lon="-5.528983">
        <ele>1068.0</ele>
        <time>2013-06-30T15:05:58Z</time>
      </trkpt>
      <trkpt lat="40.054583" lon="-5.528883">
        <ele>1068.0</ele>
        <time>2013-06-30T15:05:59Z</time>
      </trkpt>
      <trkpt lat="40.054567" lon="-5.528800">
        <ele>1069.0</ele>
        <time>2013-06-30T15:06:00Z</time>
      </trkpt>
      <trkpt lat="40.054533" lon="-5.528717">
        <ele>1070.0</ele>
        <time>2013-06-30T15:06:01Z</time>
      </trkpt>
      <trkpt lat="40.054517" lon="-5.528650">
        <ele>1071.0</ele>
        <time>2013-06-30T15:06:02Z</time>
      </trkpt>
      <trkpt lat="40.054483" lon="-5.528567">
        <ele>1071.0</ele>
        <time>2013-06-30T15:06:03Z</time>
      </trkpt>
      <trkpt lat="40.054450" lon="-5.528500">
        <ele>1072.0</ele>
        <time>2013-06-30T15:06:04Z</time>
      </trkpt>
      <trkpt lat="40.054417" lon="-5.528417">
        <ele>1073.0</ele>
        <time>2013-06-30T15:06:05Z</time>
      </trkpt>
      <trkpt lat="40.054367" lon="-5.528350">
        <ele>1074.0</ele>
        <time>2013-06-30T15:06:06Z</time>
      </trkpt>
      <trkpt lat="40.054333" lon="-5.528283">
        <ele>1075.0</ele>
        <time>2013-06-30T15:06:07Z</time>
      </trkpt>
      <trkpt lat="40.054283" lon="-5.528233">
        <ele>1075.0</ele>
        <time>2013-06-30T15:06:08Z</time>
      </trkpt>
      <trkpt lat="40.054250" lon="-5.528183">
        <ele>1075.0</ele>
        <time>2013-06-30T15:06:09Z</time>
      </trkpt>
      <trkpt lat="40.054183" lon="-5.528133">
        <ele>1075.0</ele>
        <time>2013-06-30T15:06:10Z</time>
      </trkpt>
      <trkpt lat="40.054133" lon="-5.528100">
        <ele>1076.0</ele>
        <time>2013-06-30T15:06:11Z</time>
      </trkpt>
      <trkpt lat="40.054067" lon="-5.528083">
        <ele>1076.0</ele>
        <time>2013-06-30T15:06:12Z</time>
      </trkpt>
      <trkpt lat="40.054017" lon="-5.528083">
        <ele>1076.0</ele>
        <time>2013-06-30T15:06:13Z</time>
      </trkpt>
      <trkpt lat="40.053967" lon="-5.528067">
        <ele>1076.0</ele>
        <time>2013-06-30T15:06:14Z</time>
      </trkpt>
      <trkpt lat="40.053900" lon="-5.528067">
        <ele>1075.0</ele>
        <time>2013-06-30T15:06:15Z</time>
      </trkpt>
      <trkpt lat="40.053833" lon="-5.528083">
        <ele>1073.0</ele>
        <time>2013-06-30T15:06:16Z</time>
      </trkpt>
      <trkpt lat="40.053750" lon="-5.528100">
        <ele>1072.0</ele>
        <time>2013-06-30T15:06:17Z</time>
      </trkpt>
      <trkpt lat="40.053683" lon="-5.528133">
        <ele>1071.0</ele>
        <time>2013-06-30T15:06:18Z</time>
      </trkpt>
      <trkpt lat="40.053617" lon="-5.528167">
        <ele>1071.0</ele>
        <time>2013-06-30T15:06:19Z</time>
      </trkpt>
      <trkpt lat="40.053533" lon="-5.528217">
        <ele>1070.0</ele>
        <time>2013-06-30T15:06:20Z</time>
      </trkpt>
      <trkpt lat="40.053467" lon="-5.528250">
        <ele>1070.0</ele>
        <time>2013-06-30T15:06:21Z</time>
      </trkpt>
      <trkpt lat="40.053400" lon="-5.528283">
        <ele>1069.0</ele>
        <time>2013-06-30T15:06:22Z</time>
      </trkpt>
      <trkpt lat="40.053333" lon="-5.528333">
        <ele>1069.0</ele>
        <time>2013-06-30T15:06:23Z</time>
      </trkpt>
      <trkpt lat="40.053267" lon="-5.528400">
        <ele>1068.0</ele>
        <time>2013-06-30T15:06:24Z</time>
      </trkpt>
      <trkpt lat="40.053200" lon="-5.528483">
        <ele>1067.0</ele>
        <time>2013-06-30T15:06:25Z</time>
      </trkpt>
      <trkpt lat="40.053133" lon="-5.528550">
        <ele>1067.0</ele>
        <time>2013-06-30T15:06:26Z</time>
      </trkpt>
      <trkpt lat="40.053067" lon="-5.528633">
        <ele>1067.0</ele>
        <time>2013-06-30T15:06:27Z</time>
      </trkpt>
      <trkpt lat="40.052983" lon="-5.528717">
        <ele>1067.0</ele>
        <time>2013-06-30T15:06:28Z</time>
      </trkpt>
      <trkpt lat="40.052917" lon="-5.528800">
        <ele>1068.0</ele>
        <time>2013-06-30T15:06:29Z</time>
      </trkpt>
      <trkpt lat="40.052833" lon="-5.528883">
        <ele>1068.0</ele>
        <time>2013-06-30T15:06:30Z</time>
      </trkpt>
      <trkpt lat="40.052767" lon="-5.528983">
        <ele>1068.0</ele>
        <time>2013-06-30T15:06:31Z</time>
      </trkpt>
      <trkpt lat="40.052700" lon="-5.529083">
        <ele>1068.0</ele>
        <time>2013-06-30T15:06:32Z</time>
      </trkpt>
      <trkpt lat="40.052650" lon="-5.529200">
        <ele>1068.0</ele>
        <time>2013-06-30T15:06:33Z</time>
      </trkpt>
      <trkpt lat="40.052583" lon="-5.529300">
        <ele>1068.0</ele>
        <time>2013-06-30T15:06:34Z</time>
      </trkpt>
      <trkpt lat="40.052533" lon="-5.529400">
        <ele>1069.0</ele>
        <time>2013-06-30T15:06:35Z</time>
      </trkpt>
      <trkpt lat="40.052483" lon="-5.529500">
        <ele>1069.0</ele>
        <time>2013-06-30T15:06:36Z</time>
      </trkpt>
      <trkpt lat="40.052417" lon="-5.529583">
        <ele>1069.0</ele>
        <time>2013-06-30T15:06:37Z</time>
      </trkpt>
      <trkpt lat="40.052367" lon="-5.529667">
        <ele>1069.0</ele>
        <time>2013-06-30T15:06:38Z</time>
      </trkpt>
      <trkpt lat="40.052300" lon="-5.529767">
        <ele>1069.0</ele>
        <time>2013-06-30T15:06:39Z</time>
      </trkpt>
      <trkpt lat="40.052250" lon="-5.529867">
        <ele>1068.0</ele>
        <time>2013-06-30T15:06:40Z</time>
      </trkpt>
      <trkpt lat="40.052200" lon="-5.529967">
        <ele>1068.0</ele>
        <time>2013-06-30T15:06:41Z</time>
      </trkpt>
      <trkpt lat="40.052133" lon="-5.530067">
        <ele>1068.0</ele>
        <time>2013-06-30T15:06:42Z</time>
      </trkpt>
      <trkpt lat="40.052067" lon="-5.530167">
        <ele>1067.0</ele>
        <time>2013-06-30T15:06:43Z</time>
      </trkpt>
      <trkpt lat="40.051983" lon="-5.530267">
        <ele>1067.0</ele>
        <time>2013-06-30T15:06:44Z</time>
      </trkpt>
      <trkpt lat="40.051917" lon="-5.530383">
        <ele>1067.0</ele>
        <time>2013-06-30T15:06:45Z</time>
      </trkpt>
      <trkpt lat="40.051867" lon="-5.530483">
        <ele>1067.0</ele>
        <time>2013-06-30T15:06:46Z</time>
      </trkpt>
      <trkpt lat="40.051800" lon="-5.530600">
        <ele>1066.0</ele>
        <time>2013-06-30T15:06:47Z</time>
      </trkpt>
      <trkpt lat="40.051733" lon="-5.530700">
        <ele>1066.0</ele>
        <time>2013-06-30T15:06:48Z</time>
      </trkpt>
      <trkpt lat="40.051683" lon="-5.530800">
        <ele>1065.0</ele>
        <time>2013-06-30T15:06:49Z</time>
      </trkpt>
      <trkpt lat="40.051617" lon="-5.530900">
        <ele>1064.0</ele>
        <time>2013-06-30T15:06:50Z</time>
      </trkpt>
      <trkpt lat="40.051550" lon="-5.531017">
        <ele>1064.0</ele>
        <time>2013-06-30T15:06:51Z</time>
      </trkpt>
      <trkpt lat="40.051483" lon="-5.531117">
        <ele>1063.0</ele>
        <time>2013-06-30T15:06:52Z</time>
      </trkpt>
      <trkpt lat="40.051433" lon="-5.531200">
        <ele>1063.0</ele>
        <time>2013-06-30T15:06:53Z</time>
      </trkpt>
      <trkpt lat="40.051367" lon="-5.531283">
        <ele>1063.0</ele>
        <time>2013-06-30T15:06:54Z</time>
      </trkpt>
      <trkpt lat="40.051300" lon="-5.531383">
        <ele>1063.0</ele>
        <time>2013-06-30T15:06:55Z</time>
      </trkpt>
      <trkpt lat="40.051233" lon="-5.531467">
        <ele>1062.0</ele>
        <time>2013-06-30T15:06:56Z</time>
      </trkpt>
      <trkpt lat="40.051167" lon="-5.531583">
        <ele>1062.0</ele>
        <time>2013-06-30T15:06:57Z</time>
      </trkpt>
      <trkpt lat="40.051117" lon="-5.531683">
        <ele>1061.0</ele>
        <time>2013-06-30T15:06:58Z</time>
      </trkpt>
      <trkpt lat="40.051050" lon="-5.531767">
        <ele>1061.0</ele>
        <time>2013-06-30T15:06:59Z</time>
      </trkpt>
      <trkpt lat="40.051000" lon="-5.531867">
        <ele>1060.0</ele>
        <time>2013-06-30T15:07:00Z</time>
      </trkpt>
      <trkpt lat="40.050933" lon="-5.531967">
        <ele>1059.0</ele>
        <time>2013-06-30T15:07:01Z</time>
      </trkpt>
      <trkpt lat="40.050883" lon="-5.532067">
        <ele>1058.0</ele>
        <time>2013-06-30T15:07:02Z</time>
      </trkpt>
      <trkpt lat="40.050817" lon="-5.532167">
        <ele>1056.0</ele>
        <time>2013-06-30T15:07:03Z</time>
      </trkpt>
      <trkpt lat="40.050750" lon="-5.532250">
        <ele>1054.0</ele>
        <time>2013-06-30T15:07:04Z</time>
      </trkpt>
      <trkpt lat="40.050683" lon="-5.532317">
        <ele>1052.0</ele>
        <time>2013-06-30T15:07:05Z</time>
      </trkpt>
      <trkpt lat="40.050617" lon="-5.532400">
        <ele>1049.0</ele>
        <time>2013-06-30T15:07:06Z</time>
      </trkpt>
      <trkpt lat="40.050550" lon="-5.532500">
        <ele>1047.0</ele>
        <time>2013-06-30T15:07:07Z</time>
      </trkpt>
      <trkpt lat="40.050483" lon="-5.532583">
        <ele>1045.0</ele>
        <time>2013-06-30T15:07:08Z</time>
      </trkpt>
      <trkpt lat="40.050417" lon="-5.532683">
        <ele>1043.0</ele>
        <time>2013-06-30T15:07:09Z</time>
      </trkpt>
      <trkpt lat="40.050350" lon="-5.532783">
        <ele>1041.0</ele>
        <time>2013-06-30T15:07:10Z</time>
      </trkpt>
      <trkpt lat="40.050283" lon="-5.532883">
        <ele>1039.0</ele>
        <time>2013-06-30T15:07:11Z</time>
      </trkpt>
      <trkpt lat="40.050217" lon="-5.532967">
        <ele>1038.0</ele>
        <time>2013-06-30T15:07:12Z</time>
      </trkpt>
      <trkpt lat="40.050150" lon="-5.533050">
        <ele>1037.0</ele>
        <time>2013-06-30T15:07:13Z</time>
      </trkpt>
      <trkpt lat="40.050067" lon="-5.533133">
        <ele>1035.0</ele>
        <time>2013-06-30T15:07:14Z</time>
      </trkpt>
      <trkpt lat="40.049983" lon="-5.533217">
        <ele>1033.0</ele>
        <time>2013-06-30T15:07:15Z</time>
      </trkpt>
      <trkpt lat="40.049900" lon="-5.533300">
        <ele>1032.0</ele>
        <time>2013-06-30T15:07:16Z</time>
      </trkpt>
      <trkpt lat="40.049817" lon="-5.533383">
        <ele>1031.0</ele>
        <time>2013-06-30T15:07:17Z</time>
      </trkpt>
      <trkpt lat="40.049750" lon="-5.533483">
        <ele>1031.0</ele>
        <time>2013-06-30T15:07:18Z</time>
      </trkpt>
      <trkpt lat="40.049683" lon="-5.533567">
        <ele>1030.0</ele>
        <time>2013-06-30T15:07:19Z</time>
      </trkpt>
      <trkpt lat="40.049617" lon="-5.533667">
        <ele>1029.0</ele>
        <time>2013-06-30T15:07:20Z</time>
      </trkpt>
      <trkpt lat="40.049567" lon="-5.533767">
        <ele>1029.0</ele>
        <time>2013-06-30T15:07:21Z</time>
      </trkpt>
      <trkpt lat="40.049500" lon="-5.533833">
        <ele>1029.0</ele>
        <time>2013-06-30T15:07:22Z</time>
      </trkpt>
      <trkpt lat="40.049433" lon="-5.533917">
        <ele>1029.0</ele>
        <time>2013-06-30T15:07:23Z</time>
      </trkpt>
      <trkpt lat="40.049350" lon="-5.533983">
        <ele>1029.0</ele>
        <time>2013-06-30T15:07:24Z</time>
      </trkpt>
      <trkpt lat="40.049267" lon="-5.534067">
        <ele>1029.0</ele>
        <time>2013-06-30T15:07:25Z</time>
      </trkpt>
      <trkpt lat="40.049183" lon="-5.534117">
        <ele>1029.0</ele>
        <time>2013-06-30T15:07:26Z</time>
      </trkpt>
      <trkpt lat="40.049117" lon="-5.534183">
        <ele>1030.0</ele>
        <time>2013-06-30T15:07:27Z</time>
      </trkpt>
      <trkpt lat="40.049033" lon="-5.534233">
        <ele>1030.0</ele>
        <time>2013-06-30T15:07:28Z</time>
      </trkpt>
      <trkpt lat="40.048967" lon="-5.534300">
        <ele>1029.0</ele>
        <time>2013-06-30T15:07:29Z</time>
      </trkpt>
      <trkpt lat="40.048883" lon="-5.534383">
        <ele>1029.0</ele>
        <time>2013-06-30T15:07:30Z</time>
      </trkpt>
      <trkpt lat="40.048800" lon="-5.534467">
        <ele>1029.0</ele>
        <time>2013-06-30T15:07:31Z</time>
      </trkpt>
      <trkpt lat="40.048733" lon="-5.534550">
        <ele>1029.0</ele>
        <time>2013-06-30T15:07:32Z</time>
      </trkpt>
      <trkpt lat="40.048667" lon="-5.534650">
        <ele>1030.0</ele>
        <time>2013-06-30T15:07:33Z</time>
      </trkpt>
      <trkpt lat="40.048600" lon="-5.534733">
        <ele>1030.0</ele>
        <time>2013-06-30T15:07:34Z</time>
      </trkpt>
      <trkpt lat="40.048533" lon="-5.534817">
        <ele>1030.0</ele>
        <time>2013-06-30T15:07:35Z</time>
      </trkpt>
      <trkpt lat="40.048467" lon="-5.534900">
        <ele>1029.0</ele>
        <time>2013-06-30T15:07:36Z</time>
      </trkpt>
      <trkpt lat="40.048400" lon="-5.534983">
        <ele>1027.0</ele>
        <time>2013-06-30T15:07:37Z</time>
      </trkpt>
      <trkpt lat="40.048333" lon="-5.535067">
        <ele>1025.0</ele>
        <time>2013-06-30T15:07:38Z</time>
      </trkpt>
      <trkpt lat="40.048250" lon="-5.535167">
        <ele>1023.0</ele>
        <time>2013-06-30T15:07:39Z</time>
      </trkpt>
      <trkpt lat="40.048183" lon="-5.535267">
        <ele>1022.0</ele>
        <time>2013-06-30T15:07:40Z</time>
      </trkpt>
      <trkpt lat="40.048117" lon="-5.535383">
        <ele>1021.0</ele>
        <time>2013-06-30T15:07:41Z</time>
      </trkpt>
      <trkpt lat="40.048050" lon="-5.535500">
        <ele>1021.0</ele>
        <time>2013-06-30T15:07:42Z</time>
      </trkpt>
      <trkpt lat="40.048000" lon="-5.535583">
        <ele>1021.0</ele>
        <time>2013-06-30T15:07:43Z</time>
      </trkpt>
      <trkpt lat="40.047933" lon="-5.535683">
        <ele>1020.0</ele>
        <time>2013-06-30T15:07:44Z</time>
      </trkpt>
      <trkpt lat="40.047867" lon="-5.535783">
        <ele>1019.0</ele>
        <time>2013-06-30T15:07:45Z</time>
      </trkpt>
      <trkpt lat="40.047817" lon="-5.535900">
        <ele>1018.0</ele>
        <time>2013-06-30T15:07:46Z</time>
      </trkpt>
      <trkpt lat="40.047750" lon="-5.536000">
        <ele>1017.0</ele>
        <time>2013-06-30T15:07:47Z</time>
      </trkpt>
      <trkpt lat="40.047700" lon="-5.536117">
        <ele>1016.0</ele>
        <time>2013-06-30T15:07:48Z</time>
      </trkpt>
      <trkpt lat="40.047633" lon="-5.536217">
        <ele>1015.0</ele>
        <time>2013-06-30T15:07:49Z</time>
      </trkpt>
      <trkpt lat="40.047583" lon="-5.536333">
        <ele>1014.0</ele>
        <time>2013-06-30T15:07:50Z</time>
      </trkpt>
      <trkpt lat="40.047517" lon="-5.536433">
        <ele>1012.0</ele>
        <time>2013-06-30T15:07:51Z</time>
      </trkpt>
      <trkpt lat="40.047450" lon="-5.536533">
        <ele>1011.0</ele>
        <time>2013-06-30T15:07:52Z</time>
      </trkpt>
      <trkpt lat="40.047383" lon="-5.536633">
        <ele>1009.0</ele>
        <time>2013-06-30T15:07:53Z</time>
      </trkpt>
      <trkpt lat="40.047300" lon="-5.536733">
        <ele>1008.0</ele>
        <time>2013-06-30T15:07:54Z</time>
      </trkpt>
      <trkpt lat="40.047233" lon="-5.536833">
        <ele>1006.0</ele>
        <time>2013-06-30T15:07:55Z</time>
      </trkpt>
      <trkpt lat="40.047167" lon="-5.536933">
        <ele>1005.0</ele>
        <time>2013-06-30T15:07:56Z</time>
      </trkpt>
      <trkpt lat="40.047100" lon="-5.537017">
        <ele>1003.0</ele>
        <time>2013-06-30T15:07:57Z</time>
      </trkpt>
      <trkpt lat="40.047017" lon="-5.537117">
        <ele>1002.0</ele>
        <time>2013-06-30T15:07:58Z</time>
      </trkpt>
      <trkpt lat="40.046933" lon="-5.537217">
        <ele>1001.0</ele>
        <time>2013-06-30T15:07:59Z</time>
      </trkpt>
      <trkpt lat="40.046850" lon="-5.537317">
        <ele>1001.0</ele>
        <time>2013-06-30T15:08:00Z</time>
      </trkpt>
      <trkpt lat="40.046767" lon="-5.537417">
        <ele>1002.0</ele>
        <time>2013-06-30T15:08:01Z</time>
      </trkpt>
      <trkpt lat="40.046700" lon="-5.537517">
        <ele>1001.0</ele>
        <time>2013-06-30T15:08:02Z</time>
      </trkpt>
      <trkpt lat="40.046633" lon="-5.537617">
        <ele>1000.0</ele>
        <time>2013-06-30T15:08:03Z</time>
      </trkpt>
      <trkpt lat="40.046567" lon="-5.537717">
        <ele>998.0</ele>
        <time>2013-06-30T15:08:04Z</time>
      </trkpt>
      <trkpt lat="40.046483" lon="-5.537850">
        <ele>997.0</ele>
        <time>2013-06-30T15:08:05Z</time>
      </trkpt>
      <trkpt lat="40.046400" lon="-5.537950">
        <ele>996.0</ele>
        <time>2013-06-30T15:08:06Z</time>
      </trkpt>
      <trkpt lat="40.046333" lon="-5.538050">
        <ele>995.0</ele>
        <time>2013-06-30T15:08:07Z</time>
      </trkpt>
      <trkpt lat="40.046250" lon="-5.538133">
        <ele>993.0</ele>
        <time>2013-06-30T15:08:08Z</time>
      </trkpt>
      <trkpt lat="40.046183" lon="-5.538217">
        <ele>992.0</ele>
        <time>2013-06-30T15:08:09Z</time>
      </trkpt>
      <trkpt lat="40.046117" lon="-5.538333">
        <ele>990.0</ele>
        <time>2013-06-30T15:08:10Z</time>
      </trkpt>
      <trkpt lat="40.046050" lon="-5.538433">
        <ele>987.0</ele>
        <time>2013-06-30T15:08:11Z</time>
      </trkpt>
      <trkpt lat="40.045967" lon="-5.538550">
        <ele>985.0</ele>
        <time>2013-06-30T15:08:12Z</time>
      </trkpt>
      <trkpt lat="40.045883" lon="-5.538650">
        <ele>984.0</ele>
        <time>2013-06-30T15:08:13Z</time>
      </trkpt>
      <trkpt lat="40.045800" lon="-5.538733">
        <ele>983.0</ele>
        <time>2013-06-30T15:08:14Z</time>
      </trkpt>
      <trkpt lat="40.045733" lon="-5.538817">
        <ele>981.0</ele>
        <time>2013-06-30T15:08:15Z</time>
      </trkpt>
      <trkpt lat="40.045683" lon="-5.538917">
        <ele>980.0</ele>
        <time>2013-06-30T15:08:16Z</time>
      </trkpt>
      <trkpt lat="40.045617" lon="-5.539033">
        <ele>978.0</ele>
        <time>2013-06-30T15:08:17Z</time>
      </trkpt>
      <trkpt lat="40.045533" lon="-5.539133">
        <ele>976.0</ele>
        <time>2013-06-30T15:08:18Z</time>
      </trkpt>
      <trkpt lat="40.045450" lon="-5.539233">
        <ele>975.0</ele>
        <time>2013-06-30T15:08:19Z</time>
      </trkpt>
      <trkpt lat="40.045367" lon="-5.539333">
        <ele>974.0</ele>
        <time>2013-06-30T15:08:20Z</time>
      </trkpt>
      <trkpt lat="40.045283" lon="-5.539433">
        <ele>973.0</ele>
        <time>2013-06-30T15:08:21Z</time>
      </trkpt>
      <trkpt lat="40.045217" lon="-5.539550">
        <ele>972.0</ele>
        <time>2013-06-30T15:08:22Z</time>
      </trkpt>
      <trkpt lat="40.045133" lon="-5.539667">
        <ele>971.0</ele>
        <time>2013-06-30T15:08:23Z</time>
      </trkpt>
      <trkpt lat="40.045067" lon="-5.539783">
        <ele>970.0</ele>
        <time>2013-06-30T15:08:24Z</time>
      </trkpt>
      <trkpt lat="40.044983" lon="-5.539900">
        <ele>966.0</ele>
        <time>2013-06-30T15:08:25Z</time>
      </trkpt>
      <trkpt lat="40.044900" lon="-5.540000">
        <ele>963.0</ele>
        <time>2013-06-30T15:08:26Z</time>
      </trkpt>
      <trkpt lat="40.044817" lon="-5.540100">
        <ele>961.0</ele>
        <time>2013-06-30T15:08:27Z</time>
      </trkpt>
      <trkpt lat="40.044717" lon="-5.540200">
        <ele>959.0</ele>
        <time>2013-06-30T15:08:28Z</time>
      </trkpt>
      <trkpt lat="40.044650" lon="-5.540300">
        <ele>957.0</ele>
        <time>2013-06-30T15:08:29Z</time>
      </trkpt>
      <trkpt lat="40.044567" lon="-5.540400">
        <ele>955.0</ele>
        <time>2013-06-30T15:08:30Z</time>
      </trkpt>
      <trkpt lat="40.044483" lon="-5.540517">
        <ele>952.0</ele>
        <time>2013-06-30T15:08:31Z</time>
      </trkpt>
      <trkpt lat="40.044400" lon="-5.540617">
        <ele>950.0</ele>
        <time>2013-06-30T15:08:32Z</time>
      </trkpt>
      <trkpt lat="40.044300" lon="-5.540733">
        <ele>949.0</ele>
        <time>2013-06-30T15:08:33Z</time>
      </trkpt>
      <trkpt lat="40.044233" lon="-5.540850">
        <ele>950.0</ele>
        <time>2013-06-30T15:08:34Z</time>
      </trkpt>
      <trkpt lat="40.044167" lon="-5.540950">
        <ele>951.0</ele>
        <time>2013-06-30T15:08:35Z</time>
      </trkpt>
      <trkpt lat="40.044117" lon="-5.541033">
        <ele>951.0</ele>
        <time>2013-06-30T15:08:36Z</time>
      </trkpt>
      <trkpt lat="40.044050" lon="-5.541117">
        <ele>949.0</ele>
        <time>2013-06-30T15:08:37Z</time>
      </trkpt>
      <trkpt lat="40.044000" lon="-5.541217">
        <ele>947.0</ele>
        <time>2013-06-30T15:08:38Z</time>
      </trkpt>
      <trkpt lat="40.043933" lon="-5.541333">
        <ele>944.0</ele>
        <time>2013-06-30T15:08:39Z</time>
      </trkpt>
      <trkpt lat="40.043867" lon="-5.541467">
        <ele>941.0</ele>
        <time>2013-06-30T15:08:40Z</time>
      </trkpt>
      <trkpt lat="40.043800" lon="-5.541583">
        <ele>939.0</ele>
        <time>2013-06-30T15:08:41Z</time>
      </trkpt>
      <trkpt lat="40.043733" lon="-5.541700">
        <ele>938.0</ele>
        <time>2013-06-30T15:08:42Z</time>
      </trkpt>
      <trkpt lat="40.043683" lon="-5.541783">
        <ele>937.0</ele>
        <time>2013-06-30T15:08:43Z</time>
      </trkpt>
      <trkpt lat="40.043633" lon="-5.541867">
        <ele>934.0</ele>
        <time>2013-06-30T15:08:44Z</time>
      </trkpt>
      <trkpt lat="40.043583" lon="-5.541950">
        <ele>931.0</ele>
        <time>2013-06-30T15:08:45Z</time>
      </trkpt>
      <trkpt lat="40.043517" lon="-5.542067">
        <ele>927.0</ele>
        <time>2013-06-30T15:08:46Z</time>
      </trkpt>
      <trkpt lat="40.043450" lon="-5.542183">
        <ele>923.0</ele>
        <time>2013-06-30T15:08:47Z</time>
      </trkpt>
      <trkpt lat="40.043383" lon="-5.542300">
        <ele>921.0</ele>
        <time>2013-06-30T15:08:48Z</time>
      </trkpt>
      <trkpt lat="40.043300" lon="-5.542400">
        <ele>919.0</ele>
        <time>2013-06-30T15:08:49Z</time>
      </trkpt>
      <trkpt lat="40.043233" lon="-5.542483">
        <ele>918.0</ele>
        <time>2013-06-30T15:08:50Z</time>
      </trkpt>
      <trkpt lat="40.043183" lon="-5.542600">
        <ele>917.0</ele>
        <time>2013-06-30T15:08:51Z</time>
      </trkpt>
      <trkpt lat="40.043117" lon="-5.542717">
        <ele>914.0</ele>
        <time>2013-06-30T15:08:52Z</time>
      </trkpt>
      <trkpt lat="40.043050" lon="-5.542850">
        <ele>912.0</ele>
        <time>2013-06-30T15:08:53Z</time>
      </trkpt>
      <trkpt lat="40.042983" lon="-5.542950">
        <ele>910.0</ele>
        <time>2013-06-30T15:08:54Z</time>
      </trkpt>
      <trkpt lat="40.042900" lon="-5.543050">
        <ele>907.0</ele>
        <time>2013-06-30T15:08:55Z</time>
      </trkpt>
      <trkpt lat="40.042817" lon="-5.543133">
        <ele>905.0</ele>
        <time>2013-06-30T15:08:56Z</time>
      </trkpt>
      <trkpt lat="40.042750" lon="-5.543250">
        <ele>903.0</ele>
        <time>2013-06-30T15:08:57Z</time>
      </trkpt>
      <trkpt lat="40.042683" lon="-5.543350">
        <ele>901.0</ele>
        <time>2013-06-30T15:08:58Z</time>
      </trkpt>
      <trkpt lat="40.042600" lon="-5.543467">
        <ele>899.0</ele>
        <time>2013-06-30T15:08:59Z</time>
      </trkpt>
      <trkpt lat="40.042517" lon="-5.543583">
        <ele>897.0</ele>
        <time>2013-06-30T15:09:00Z</time>
      </trkpt>
      <trkpt lat="40.042450" lon="-5.543683">
        <ele>895.0</ele>
        <time>2013-06-30T15:09:01Z</time>
      </trkpt>
      <trkpt lat="40.042383" lon="-5.543800">
        <ele>894.0</ele>
        <time>2013-06-30T15:09:02Z</time>
      </trkpt>
      <trkpt lat="40.042317" lon="-5.543900">
        <ele>892.0</ele>
        <time>2013-06-30T15:09:03Z</time>
      </trkpt>
      <trkpt lat="40.042250" lon="-5.544017">
        <ele>890.0</ele>
        <time>2013-06-30T15:09:04Z</time>
      </trkpt>
      <trkpt lat="40.042200" lon="-5.544133">
        <ele>887.0</ele>
        <time>2013-06-30T15:09:05Z</time>
      </trkpt>
      <trkpt lat="40.042133" lon="-5.544250">
        <ele>885.0</ele>
        <time>2013-06-30T15:09:06Z</time>
      </trkpt>
      <trkpt lat="40.042083" lon="-5.544367">
        <ele>882.0</ele>
        <time>2013-06-30T15:09:07Z</time>
      </trkpt>
      <trkpt lat="40.042017" lon="-5.544483">
        <ele>879.0</ele>
        <time>2013-06-30T15:09:08Z</time>
      </trkpt>
      <trkpt lat="40.041967" lon="-5.544583">
        <ele>876.0</ele>
        <time>2013-06-30T15:09:09Z</time>
      </trkpt>
      <trkpt lat="40.041900" lon="-5.544683">
        <ele>874.0</ele>
        <time>2013-06-30T15:09:10Z</time>
      </trkpt>
      <trkpt lat="40.041833" lon="-5.544800">
        <ele>871.0</ele>
        <time>2013-06-30T15:09:11Z</time>
      </trkpt>
      <trkpt lat="40.041783" lon="-5.544917">
        <ele>868.0</ele>
        <time>2013-06-30T15:09:12Z</time>
      </trkpt>
      <trkpt lat="40.041717" lon="-5.545033">
        <ele>865.0</ele>
        <time>2013-06-30T15:09:13Z</time>
      </trkpt>
      <trkpt lat="40.041667" lon="-5.545167">
        <ele>861.0</ele>
        <time>2013-06-30T15:09:14Z</time>
      </trkpt>
      <trkpt lat="40.041600" lon="-5.545283">
        <ele>859.0</ele>
        <time>2013-06-30T15:09:15Z</time>
      </trkpt>
      <trkpt lat="40.041550" lon="-5.545417">
        <ele>856.0</ele>
        <time>2013-06-30T15:09:16Z</time>
      </trkpt>
      <trkpt lat="40.041483" lon="-5.545533">
        <ele>854.0</ele>
        <time>2013-06-30T15:09:17Z</time>
      </trkpt>
      <trkpt lat="40.041400" lon="-5.545650">
        <ele>851.0</ele>
        <time>2013-06-30T15:09:18Z</time>
      </trkpt>
      <trkpt lat="40.041333" lon="-5.545767">
        <ele>850.0</ele>
        <time>2013-06-30T15:09:19Z</time>
      </trkpt>
      <trkpt lat="40.041267" lon="-5.545867">
        <ele>848.0</ele>
        <time>2013-06-30T15:09:20Z</time>
      </trkpt>
      <trkpt lat="40.041200" lon="-5.545967">
        <ele>844.0</ele>
        <time>2013-06-30T15:09:21Z</time>
      </trkpt>
      <trkpt lat="40.041117" lon="-5.546083">
        <ele>841.0</ele>
        <time>2013-06-30T15:09:22Z</time>
      </trkpt>
      <trkpt lat="40.041017" lon="-5.546200">
        <ele>838.0</ele>
        <time>2013-06-30T15:09:23Z</time>
      </trkpt>
      <trkpt lat="40.040933" lon="-5.546317">
        <ele>836.0</ele>
        <time>2013-06-30T15:09:24Z</time>
      </trkpt>
      <trkpt lat="40.040850" lon="-5.546433">
        <ele>835.0</ele>
        <time>2013-06-30T15:09:25Z</time>
      </trkpt>
      <trkpt lat="40.040783" lon="-5.546533">
        <ele>833.0</ele>
        <time>2013-06-30T15:09:26Z</time>
      </trkpt>
      <trkpt lat="40.040717" lon="-5.546650">
        <ele>832.0</ele>
        <time>2013-06-30T15:09:27Z</time>
      </trkpt>
      <trkpt lat="40.040650" lon="-5.546767">
        <ele>829.0</ele>
        <time>2013-06-30T15:09:28Z</time>
      </trkpt>
      <trkpt lat="40.040583" lon="-5.546900">
        <ele>826.0</ele>
        <time>2013-06-30T15:09:29Z</time>
      </trkpt>
      <trkpt lat="40.040517" lon="-5.547033">
        <ele>824.0</ele>
        <time>2013-06-30T15:09:30Z</time>
      </trkpt>
      <trkpt lat="40.040450" lon="-5.547167">
        <ele>823.0</ele>
        <time>2013-06-30T15:09:31Z</time>
      </trkpt>
      <trkpt lat="40.040400" lon="-5.547283">
        <ele>821.0</ele>
        <time>2013-06-30T15:09:32Z</time>
      </trkpt>
      <trkpt lat="40.040333" lon="-5.547417">
        <ele>819.0</ele>
        <time>2013-06-30T15:09:33Z</time>
      </trkpt>
      <trkpt lat="40.040283" lon="-5.547550">
        <ele>817.0</ele>
        <time>2013-06-30T15:09:34Z</time>
      </trkpt>
      <trkpt lat="40.040217" lon="-5.547683">
        <ele>816.0</ele>
        <time>2013-06-30T15:09:35Z</time>
      </trkpt>
      <trkpt lat="40.040150" lon="-5.547817">
        <ele>814.0</ele>
        <time>2013-06-30T15:09:36Z</time>
      </trkpt>
      <trkpt lat="40.040067" lon="-5.547917">
        <ele>814.0</ele>
        <time>2013-06-30T15:09:37Z</time>
      </trkpt>
      <trkpt lat="40.039983" lon="-5.548017">
        <ele>813.0</ele>
        <time>2013-06-30T15:09:38Z</time>
      </trkpt>
      <trkpt lat="40.039900" lon="-5.548100">
        <ele>812.0</ele>
        <time>2013-06-30T15:09:39Z</time>
      </trkpt>
      <trkpt lat="40.039800" lon="-5.548183">
        <ele>811.0</ele>
        <time>2013-06-30T15:09:40Z</time>
      </trkpt>
      <trkpt lat="40.039717" lon="-5.548267">
        <ele>809.0</ele>
        <time>2013-06-30T15:09:41Z</time>
      </trkpt>
      <trkpt lat="40.039617" lon="-5.548367">
        <ele>808.0</ele>
        <time>2013-06-30T15:09:42Z</time>
      </trkpt>
      <trkpt lat="40.039517" lon="-5.548450">
        <ele>807.0</ele>
        <time>2013-06-30T15:09:43Z</time>
      </trkpt>
      <trkpt lat="40.039417" lon="-5.548533">
        <ele>806.0</ele>
        <time>2013-06-30T15:09:44Z</time>
      </trkpt>
      <trkpt lat="40.039333" lon="-5.548600">
        <ele>805.0</ele>
        <time>2013-06-30T15:09:45Z</time>
      </trkpt>
      <trkpt lat="40.039233" lon="-5.548683">
        <ele>803.0</ele>
        <time>2013-06-30T15:09:46Z</time>
      </trkpt>
      <trkpt lat="40.039133" lon="-5.548767">
        <ele>802.0</ele>
        <time>2013-06-30T15:09:47Z</time>
      </trkpt>
      <trkpt lat="40.039050" lon="-5.548850">
        <ele>801.0</ele>
        <time>2013-06-30T15:09:48Z</time>
      </trkpt>
      <trkpt lat="40.038950" lon="-5.548933">
        <ele>801.0</ele>
        <time>2013-06-30T15:09:49Z</time>
      </trkpt>
      <trkpt lat="40.038867" lon="-5.549017">
        <ele>800.0</ele>
        <time>2013-06-30T15:09:50Z</time>
      </trkpt>
      <trkpt lat="40.038783" lon="-5.549100">
        <ele>799.0</ele>
        <time>2013-06-30T15:09:51Z</time>
      </trkpt>
      <trkpt lat="40.038683" lon="-5.549200">
        <ele>797.0</ele>
        <time>2013-06-30T15:09:52Z</time>
      </trkpt>
      <trkpt lat="40.038600" lon="-5.549300">
        <ele>796.0</ele>
        <time>2013-06-30T15:09:53Z</time>
      </trkpt>
      <trkpt lat="40.038500" lon="-5.549400">
        <ele>795.0</ele>
        <time>2013-06-30T15:09:54Z</time>
      </trkpt>
      <trkpt lat="40.038417" lon="-5.549500">
        <ele>794.0</ele>
        <time>2013-06-30T15:09:55Z</time>
      </trkpt>
      <trkpt lat="40.038317" lon="-5.549583">
        <ele>793.0</ele>
        <time>2013-06-30T15:09:56Z</time>
      </trkpt>
      <trkpt lat="40.038233" lon="-5.549683">
        <ele>792.0</ele>
        <time>2013-06-30T15:09:57Z</time>
      </trkpt>
      <trkpt lat="40.038150" lon="-5.549783">
        <ele>790.0</ele>
        <time>2013-06-30T15:09:58Z</time>
      </trkpt>
      <trkpt lat="40.038067" lon="-5.549867">
        <ele>788.0</ele>
        <time>2013-06-30T15:09:59Z</time>
      </trkpt>
      <trkpt lat="40.037967" lon="-5.549967">
        <ele>785.0</ele>
        <time>2013-06-30T15:10:00Z</time>
      </trkpt>
      <trkpt lat="40.037867" lon="-5.550083">
        <ele>783.0</ele>
        <time>2013-06-30T15:10:01Z</time>
      </trkpt>
      <trkpt lat="40.037767" lon="-5.550183">
        <ele>782.0</ele>
        <time>2013-06-30T15:10:02Z</time>
      </trkpt>
      <trkpt lat="40.037667" lon="-5.550283">
        <ele>781.0</ele>
        <time>2013-06-30T15:10:03Z</time>
      </trkpt>
      <trkpt lat="40.037583" lon="-5.550383">
        <ele>780.0</ele>
        <time>2013-06-30T15:10:04Z</time>
      </trkpt>
      <trkpt lat="40.037500" lon="-5.550483">
        <ele>779.0</ele>
        <time>2013-06-30T15:10:05Z</time>
      </trkpt>
      <trkpt lat="40.037400" lon="-5.550583">
        <ele>778.0</ele>
        <time>2013-06-30T15:10:06Z</time>
      </trkpt>
      <trkpt lat="40.037317" lon="-5.550683">
        <ele>775.0</ele>
        <time>2013-06-30T15:10:07Z</time>
      </trkpt>
      <trkpt lat="40.037217" lon="-5.550800">
        <ele>773.0</ele>
        <time>2013-06-30T15:10:08Z</time>
      </trkpt>
      <trkpt lat="40.037117" lon="-5.550900">
        <ele>772.0</ele>
        <time>2013-06-30T15:10:09Z</time>
      </trkpt>
      <trkpt lat="40.037017" lon="-5.551000">
        <ele>771.0</ele>
        <time>2013-06-30T15:10:10Z</time>
      </trkpt>
      <trkpt lat="40.036933" lon="-5.551083">
        <ele>770.0</ele>
        <time>2013-06-30T15:10:11Z</time>
      </trkpt>
      <trkpt lat="40.036833" lon="-5.551167">
        <ele>769.0</ele>
        <time>2013-06-30T15:10:12Z</time>
      </trkpt>
      <trkpt lat="40.036733" lon="-5.551250">
        <ele>767.0</ele>
        <time>2013-06-30T15:10:13Z</time>
      </trkpt>
      <trkpt lat="40.036633" lon="-5.551333">
        <ele>765.0</ele>
        <time>2013-06-30T15:10:14Z</time>
      </trkpt>
      <trkpt lat="40.036517" lon="-5.551433">
        <ele>763.0</ele>
        <time>2013-06-30T15:10:15Z</time>
      </trkpt>
      <trkpt lat="40.036433" lon="-5.551517">
        <ele>762.0</ele>
        <time>2013-06-30T15:10:16Z</time>
      </trkpt>
      <trkpt lat="40.036333" lon="-5.551617">
        <ele>760.0</ele>
        <time>2013-06-30T15:10:17Z</time>
      </trkpt>
      <trkpt lat="40.036250" lon="-5.551700">
        <ele>759.0</ele>
        <time>2013-06-30T15:10:18Z</time>
      </trkpt>
      <trkpt lat="40.036150" lon="-5.551783">
        <ele>758.0</ele>
        <time>2013-06-30T15:10:19Z</time>
      </trkpt>
      <trkpt lat="40.036067" lon="-5.551883">
        <ele>756.0</ele>
        <time>2013-06-30T15:10:20Z</time>
      </trkpt>
      <trkpt lat="40.035967" lon="-5.551967">
        <ele>755.0</ele>
        <time>2013-06-30T15:10:21Z</time>
      </trkpt>
      <trkpt lat="40.035867" lon="-5.552033">
        <ele>754.0</ele>
        <time>2013-06-30T15:10:22Z</time>
      </trkpt>
      <trkpt lat="40.035767" lon="-5.552117">
        <ele>753.0</ele>
        <time>2013-06-30T15:10:23Z</time>
      </trkpt>
      <trkpt lat="40.035683" lon="-5.552183">
        <ele>751.0</ele>
        <time>2013-06-30T15:10:24Z</time>
      </trkpt>
      <trkpt lat="40.035583" lon="-5.552233">
        <ele>749.0</ele>
        <time>2013-06-30T15:10:25Z</time>
      </trkpt>
      <trkpt lat="40.035483" lon="-5.552300">
        <ele>747.0</ele>
        <time>2013-06-30T15:10:26Z</time>
      </trkpt>
      <trkpt lat="40.035367" lon="-5.552383">
        <ele>745.0</ele>
        <time>2013-06-30T15:10:27Z</time>
      </trkpt>
      <trkpt lat="40.035267" lon="-5.552450">
        <ele>743.0</ele>
        <time>2013-06-30T15:10:28Z</time>
      </trkpt>
      <trkpt lat="40.035167" lon="-5.552533">
        <ele>741.0</ele>
        <time>2013-06-30T15:10:29Z</time>
      </trkpt>
      <trkpt lat="40.035067" lon="-5.552617">
        <ele>739.0</ele>
        <time>2013-06-30T15:10:30Z</time>
      </trkpt>
      <trkpt lat="40.034983" lon="-5.552700">
        <ele>736.0</ele>
        <time>2013-06-30T15:10:31Z</time>
      </trkpt>
      <trkpt lat="40.034883" lon="-5.552767">
        <ele>734.0</ele>
        <time>2013-06-30T15:10:32Z</time>
      </trkpt>
      <trkpt lat="40.034767" lon="-5.552850">
        <ele>731.0</ele>
        <time>2013-06-30T15:10:33Z</time>
      </trkpt>
      <trkpt lat="40.034667" lon="-5.552917">
        <ele>728.0</ele>
        <time>2013-06-30T15:10:34Z</time>
      </trkpt>
      <trkpt lat="40.034567" lon="-5.553000">
        <ele>726.0</ele>
        <time>2013-06-30T15:10:35Z</time>
      </trkpt>
      <trkpt lat="40.034483" lon="-5.553100">
        <ele>724.0</ele>
        <time>2013-06-30T15:10:36Z</time>
      </trkpt>
      <trkpt lat="40.034400" lon="-5.553183">
        <ele>722.0</ele>
        <time>2013-06-30T15:10:37Z</time>
      </trkpt>
      <trkpt lat="40.034317" lon="-5.553250">
        <ele>719.0</ele>
        <time>2013-06-30T15:10:38Z</time>
      </trkpt>
      <trkpt lat="40.034233" lon="-5.553333">
        <ele>716.0</ele>
        <time>2013-06-30T15:10:39Z</time>
      </trkpt>
      <trkpt lat="40.034133" lon="-5.553417">
        <ele>713.0</ele>
        <time>2013-06-30T15:10:40Z</time>
      </trkpt>
      <trkpt lat="40.034033" lon="-5.553517">
        <ele>710.0</ele>
        <time>2013-06-30T15:10:41Z</time>
      </trkpt>
      <trkpt lat="40.033933" lon="-5.553600">
        <ele>708.0</ele>
        <time>2013-06-30T15:10:42Z</time>
      </trkpt>
      <trkpt lat="40.033850" lon="-5.553700">
        <ele>707.0</ele>
        <time>2013-06-30T15:10:43Z</time>
      </trkpt>
      <trkpt lat="40.033767" lon="-5.553783">
        <ele>705.0</ele>
        <time>2013-06-30T15:10:44Z</time>
      </trkpt>
      <trkpt lat="40.033667" lon="-5.553867">
        <ele>703.0</ele>
        <time>2013-06-30T15:10:45Z</time>
      </trkpt>
      <trkpt lat="40.033583" lon="-5.553967">
        <ele>701.0</ele>
        <time>2013-06-30T15:10:46Z</time>
      </trkpt>
      <trkpt lat="40.033500" lon="-5.554033">
        <ele>699.0</ele>
        <time>2013-06-30T15:10:47Z</time>
      </trkpt>
      <trkpt lat="40.033400" lon="-5.554100">
        <ele>698.0</ele>
        <time>2013-06-30T15:10:48Z</time>
      </trkpt>
      <trkpt lat="40.033317" lon="-5.554167">
        <ele>696.0</ele>
        <time>2013-06-30T15:10:49Z</time>
      </trkpt>
      <trkpt lat="40.033217" lon="-5.554233">
        <ele>694.0</ele>
        <time>2013-06-30T15:10:50Z</time>
      </trkpt>
      <trkpt lat="40.033133" lon="-5.554300">
        <ele>693.0</ele>
        <time>2013-06-30T15:10:51Z</time>
      </trkpt>
      <trkpt lat="40.033033" lon="-5.554367">
        <ele>691.0</ele>
        <time>2013-06-30T15:10:52Z</time>
      </trkpt>
      <trkpt lat="40.032950" lon="-5.554433">
        <ele>689.0</ele>
        <time>2013-06-30T15:10:53Z</time>
      </trkpt>
      <trkpt lat="40.032850" lon="-5.554500">
        <ele>688.0</ele>
        <time>2013-06-30T15:10:54Z</time>
      </trkpt>
      <trkpt lat="40.032767" lon="-5.554583">
        <ele>686.0</ele>
        <time>2013-06-30T15:10:55Z</time>
      </trkpt>
      <trkpt lat="40.032667" lon="-5.554667">
        <ele>685.0</ele>
        <time>2013-06-30T15:10:56Z</time>
      </trkpt>
      <trkpt lat="40.032583" lon="-5.554750">
        <ele>684.0</ele>
        <time>2013-06-30T15:10:57Z</time>
      </trkpt>
      <trkpt lat="40.032500" lon="-5.554833">
        <ele>682.0</ele>
        <time>2013-06-30T15:10:58Z</time>
      </trkpt>
      <trkpt lat="40.032433" lon="-5.554900">
        <ele>680.0</ele>
        <time>2013-06-30T15:10:59Z</time>
      </trkpt>
      <trkpt lat="40.032333" lon="-5.554983">
        <ele>677.0</ele>
        <time>2013-06-30T15:11:00Z</time>
      </trkpt>
      <trkpt lat="40.032250" lon="-5.555067">
        <ele>674.0</ele>
        <time>2013-06-30T15:11:01Z</time>
      </trkpt>
      <trkpt lat="40.032150" lon="-5.555150">
        <ele>672.0</ele>
        <time>2013-06-30T15:11:02Z</time>
      </trkpt>
      <trkpt lat="40.032067" lon="-5.555233">
        <ele>670.0</ele>
        <time>2013-06-30T15:11:03Z</time>
      </trkpt>
      <trkpt lat="40.031967" lon="-5.555317">
        <ele>668.0</ele>
        <time>2013-06-30T15:11:04Z</time>
      </trkpt>
      <trkpt lat="40.031867" lon="-5.555383">
        <ele>666.0</ele>
        <time>2013-06-30T15:11:05Z</time>
      </trkpt>
      <trkpt lat="40.031767" lon="-5.555450">
        <ele>663.0</ele>
        <time>2013-06-30T15:11:06Z</time>
      </trkpt>
      <trkpt lat="40.031667" lon="-5.555500">
        <ele>661.0</ele>
        <time>2013-06-30T15:11:07Z</time>
      </trkpt>
      <trkpt lat="40.031567" lon="-5.555567">
        <ele>658.0</ele>
        <time>2013-06-30T15:11:08Z</time>
      </trkpt>
      <trkpt lat="40.031483" lon="-5.555633">
        <ele>656.0</ele>
        <time>2013-06-30T15:11:09Z</time>
      </trkpt>
      <trkpt lat="40.031383" lon="-5.555700">
        <ele>653.0</ele>
        <time>2013-06-30T15:11:10Z</time>
      </trkpt>
      <trkpt lat="40.031283" lon="-5.555767">
        <ele>651.0</ele>
        <time>2013-06-30T15:11:11Z</time>
      </trkpt>
      <trkpt lat="40.031200" lon="-5.555833">
        <ele>648.0</ele>
        <time>2013-06-30T15:11:12Z</time>
      </trkpt>
      <trkpt lat="40.031100" lon="-5.555900">
        <ele>646.0</ele>
        <time>2013-06-30T15:11:13Z</time>
      </trkpt>
      <trkpt lat="40.031017" lon="-5.555967">
        <ele>644.0</ele>
        <time>2013-06-30T15:11:14Z</time>
      </trkpt>
      <trkpt lat="40.030917" lon="-5.556033">
        <ele>642.0</ele>
        <time>2013-06-30T15:11:15Z</time>
      </trkpt>
      <trkpt lat="40.030833" lon="-5.556117">
        <ele>640.0</ele>
        <time>2013-06-30T15:11:16Z</time>
      </trkpt>
      <trkpt lat="40.030750" lon="-5.556200">
        <ele>638.0</ele>
        <time>2013-06-30T15:11:17Z</time>
      </trkpt>
      <trkpt lat="40.030667" lon="-5.556300">
        <ele>636.0</ele>
        <time>2013-06-30T15:11:18Z</time>
      </trkpt>
      <trkpt lat="40.030583" lon="-5.556383">
        <ele>635.0</ele>
        <time>2013-06-30T15:11:19Z</time>
      </trkpt>
      <trkpt lat="40.030517" lon="-5.556467">
        <ele>633.0</ele>
        <time>2013-06-30T15:11:20Z</time>
      </trkpt>
      <trkpt lat="40.030433" lon="-5.556550">
        <ele>631.0</ele>
        <time>2013-06-30T15:11:21Z</time>
      </trkpt>
      <trkpt lat="40.030350" lon="-5.556617">
        <ele>629.0</ele>
        <time>2013-06-30T15:11:22Z</time>
      </trkpt>
      <trkpt lat="40.030267" lon="-5.556717">
        <ele>627.0</ele>
        <time>2013-06-30T15:11:23Z</time>
      </trkpt>
      <trkpt lat="40.030183" lon="-5.556800">
        <ele>624.0</ele>
        <time>2013-06-30T15:11:24Z</time>
      </trkpt>
      <trkpt lat="40.030100" lon="-5.556900">
        <ele>622.0</ele>
        <time>2013-06-30T15:11:25Z</time>
      </trkpt>
      <trkpt lat="40.030000" lon="-5.557000">
        <ele>621.0</ele>
        <time>2013-06-30T15:11:26Z</time>
      </trkpt>
      <trkpt lat="40.029917" lon="-5.557083">
        <ele>621.0</ele>
        <time>2013-06-30T15:11:27Z</time>
      </trkpt>
      <trkpt lat="40.029833" lon="-5.557167">
        <ele>620.0</ele>
        <time>2013-06-30T15:11:28Z</time>
      </trkpt>
      <trkpt lat="40.029750" lon="-5.557250">
        <ele>619.0</ele>
        <time>2013-06-30T15:11:29Z</time>
      </trkpt>
      <trkpt lat="40.029667" lon="-5.557333">
        <ele>618.0</ele>
        <time>2013-06-30T15:11:30Z</time>
      </trkpt>
      <trkpt lat="40.029567" lon="-5.557417">
        <ele>617.0</ele>
        <time>2013-06-30T15:11:31Z</time>
      </trkpt>
      <trkpt lat="40.029483" lon="-5.557500">
        <ele>615.0</ele>
        <time>2013-06-30T15:11:32Z</time>
      </trkpt>
      <trkpt lat="40.029383" lon="-5.557583">
        <ele>615.0</ele>
        <time>2013-06-30T15:11:33Z</time>
      </trkpt>
      <trkpt lat="40.029300" lon="-5.557683">
        <ele>615.0</ele>
        <time>2013-06-30T15:11:34Z</time>
      </trkpt>
      <trkpt lat="40.029217" lon="-5.557767">
        <ele>614.0</ele>
        <time>2013-06-30T15:11:35Z</time>
      </trkpt>
      <trkpt lat="40.029133" lon="-5.557850">
        <ele>613.0</ele>
        <time>2013-06-30T15:11:36Z</time>
      </trkpt>
      <trkpt lat="40.029050" lon="-5.557933">
        <ele>612.0</ele>
        <time>2013-06-30T15:11:37Z</time>
      </trkpt>
      <trkpt lat="40.028950" lon="-5.558017">
        <ele>611.0</ele>
        <time>2013-06-30T15:11:38Z</time>
      </trkpt>
      <trkpt lat="40.028867" lon="-5.558117">
        <ele>610.0</ele>
        <time>2013-06-30T15:11:39Z</time>
      </trkpt>
      <trkpt lat="40.028767" lon="-5.558200">
        <ele>608.0</ele>
        <time>2013-06-30T15:11:40Z</time>
      </trkpt>
      <trkpt lat="40.028683" lon="-5.558283">
        <ele>606.0</ele>
        <time>2013-06-30T15:11:41Z</time>
      </trkpt>
      <trkpt lat="40.028583" lon="-5.558367">
        <ele>603.0</ele>
        <time>2013-06-30T15:11:42Z</time>
      </trkpt>
      <trkpt lat="40.028500" lon="-5.558483">
        <ele>600.0</ele>
        <time>2013-06-30T15:11:43Z</time>
      </trkpt>
      <trkpt lat="40.028400" lon="-5.558583">
        <ele>599.0</ele>
        <time>2013-06-30T15:11:44Z</time>
      </trkpt>
      <trkpt lat="40.028350" lon="-5.558683">
        <ele>599.0</ele>
        <time>2013-06-30T15:11:45Z</time>
      </trkpt>
      <trkpt lat="40.028300" lon="-5.558783">
        <ele>599.0</ele>
        <time>2013-06-30T15:11:46Z</time>
      </trkpt>
      <trkpt lat="40.028250" lon="-5.558867">
        <ele>599.0</ele>
        <time>2013-06-30T15:11:47Z</time>
      </trkpt>
      <trkpt lat="40.028200" lon="-5.558950">
        <ele>599.0</ele>
        <time>2013-06-30T15:11:48Z</time>
      </trkpt>
      <trkpt lat="40.028133" lon="-5.559033">
        <ele>597.0</ele>
        <time>2013-06-30T15:11:49Z</time>
      </trkpt>
      <trkpt lat="40.028067" lon="-5.559133">
        <ele>597.0</ele>
        <time>2013-06-30T15:11:50Z</time>
      </trkpt>
      <trkpt lat="40.028000" lon="-5.559233">
        <ele>597.0</ele>
        <time>2013-06-30T15:11:51Z</time>
      </trkpt>
      <trkpt lat="40.027933" lon="-5.559300">
        <ele>597.0</ele>
        <time>2013-06-30T15:11:52Z</time>
      </trkpt>
      <trkpt lat="40.027867" lon="-5.559367">
        <ele>597.0</ele>
        <time>2013-06-30T15:11:53Z</time>
      </trkpt>
      <trkpt lat="40.027800" lon="-5.559417">
        <ele>598.0</ele>
        <time>2013-06-30T15:11:54Z</time>
      </trkpt>
      <trkpt lat="40.027733" lon="-5.559483">
        <ele>598.0</ele>
        <time>2013-06-30T15:11:55Z</time>
      </trkpt>
      <trkpt lat="40.027683" lon="-5.559533">
        <ele>598.0</ele>
        <time>2013-06-30T15:11:56Z</time>
      </trkpt>
      <trkpt lat="40.027633" lon="-5.559600">
        <ele>599.0</ele>
        <time>2013-06-30T15:11:57Z</time>
      </trkpt>
      <trkpt lat="40.027583" lon="-5.559667">
        <ele>600.0</ele>
        <time>2013-06-30T15:11:58Z</time>
      </trkpt>
      <trkpt lat="40.027550" lon="-5.559717">
        <ele>600.0</ele>
        <time>2013-06-30T15:11:59Z</time>
      </trkpt>
      <trkpt lat="40.027500" lon="-5.559767">
        <ele>599.0</ele>
        <time>2013-06-30T15:12:00Z</time>
      </trkpt>
      <trkpt lat="40.027467" lon="-5.559833">
        <ele>599.0</ele>
        <time>2013-06-30T15:12:01Z</time>
      </trkpt>
      <trkpt lat="40.027433" lon="-5.559900">
        <ele>599.0</ele>
        <time>2013-06-30T15:12:02Z</time>
      </trkpt>
      <trkpt lat="40.027400" lon="-5.559967">
        <ele>598.0</ele>
        <time>2013-06-30T15:12:03Z</time>
      </trkpt>
      <trkpt lat="40.027383" lon="-5.560033">
        <ele>597.0</ele>
        <time>2013-06-30T15:12:04Z</time>
      </trkpt>
      <trkpt lat="40.027383" lon="-5.560100">
        <ele>596.0</ele>
        <time>2013-06-30T15:12:05Z</time>
      </trkpt>
      <trkpt lat="40.027400" lon="-5.560183">
        <ele>595.0</ele>
        <time>2013-06-30T15:12:06Z</time>
      </trkpt>
      <trkpt lat="40.027400" lon="-5.560267">
        <ele>595.0</ele>
        <time>2013-06-30T15:12:07Z</time>
      </trkpt>
      <trkpt lat="40.027417" lon="-5.560350">
        <ele>594.0</ele>
        <time>2013-06-30T15:12:08Z</time>
      </trkpt>
      <trkpt lat="40.027433" lon="-5.560417">
        <ele>593.0</ele>
        <time>2013-06-30T15:12:09Z</time>
      </trkpt>
      <trkpt lat="40.027450" lon="-5.560467">
        <ele>591.0</ele>
        <time>2013-06-30T15:12:10Z</time>
      </trkpt>
      <trkpt lat="40.027483" lon="-5.560533">
        <ele>588.0</ele>
        <time>2013-06-30T15:12:11Z</time>
      </trkpt>
      <trkpt lat="40.027517" lon="-5.560617">
        <ele>585.0</ele>
        <time>2013-06-30T15:12:12Z</time>
      </trkpt>
      <trkpt lat="40.027567" lon="-5.560700">
        <ele>582.0</ele>
        <time>2013-06-30T15:12:13Z</time>
      </trkpt>
      <trkpt lat="40.027600" lon="-5.560783">
        <ele>581.0</ele>
        <time>2013-06-30T15:12:14Z</time>
      </trkpt>
      <trkpt lat="40.027633" lon="-5.560850">
        <ele>581.0</ele>
        <time>2013-06-30T15:12:15Z</time>
      </trkpt>
      <trkpt lat="40.027650" lon="-5.560900">
        <ele>580.0</ele>
        <time>2013-06-30T15:12:16Z</time>
      </trkpt>
      <trkpt lat="40.027650" lon="-5.560967">
        <ele>579.0</ele>
        <time>2013-06-30T15:12:17Z</time>
      </trkpt>
      <trkpt lat="40.027633" lon="-5.561050">
        <ele>577.0</ele>
        <time>2013-06-30T15:12:18Z</time>
      </trkpt>
      <trkpt lat="40.027583" lon="-5.561133">
        <ele>575.0</ele>
        <time>2013-06-30T15:12:19Z</time>
      </trkpt>
      <trkpt lat="40.027517" lon="-5.561200">
        <ele>572.0</ele>
        <time>2013-06-30T15:12:20Z</time>
      </trkpt>
      <trkpt lat="40.027433" lon="-5.561267">
        <ele>571.0</ele>
        <time>2013-06-30T15:12:21Z</time>
      </trkpt>
      <trkpt lat="40.027367" lon="-5.561333">
        <ele>570.0</ele>
        <time>2013-06-30T15:12:22Z</time>
      </trkpt>
      <trkpt lat="40.027317" lon="-5.561400">
        <ele>569.0</ele>
        <time>2013-06-30T15:12:23Z</time>
      </trkpt>
      <trkpt lat="40.027267" lon="-5.561467">
        <ele>569.0</ele>
        <time>2013-06-30T15:12:24Z</time>
      </trkpt>
      <trkpt lat="40.027200" lon="-5.561533">
        <ele>568.0</ele>
        <time>2013-06-30T15:12:25Z</time>
      </trkpt>
      <trkpt lat="40.027133" lon="-5.561600">
        <ele>567.0</ele>
        <time>2013-06-30T15:12:26Z</time>
      </trkpt>
      <trkpt lat="40.027067" lon="-5.561667">
        <ele>565.0</ele>
        <time>2013-06-30T15:12:27Z</time>
      </trkpt>
      <trkpt lat="40.027000" lon="-5.561750">
        <ele>564.0</ele>
        <time>2013-06-30T15:12:28Z</time>
      </trkpt>
      <trkpt lat="40.026933" lon="-5.561817">
        <ele>563.0</ele>
        <time>2013-06-30T15:12:29Z</time>
      </trkpt>
      <trkpt lat="40.026883" lon="-5.561883">
        <ele>563.0</ele>
        <time>2013-06-30T15:12:30Z</time>
      </trkpt>
      <trkpt lat="40.026833" lon="-5.561950">
        <ele>562.0</ele>
        <time>2013-06-30T15:12:31Z</time>
      </trkpt>
      <trkpt lat="40.026767" lon="-5.562000">
        <ele>561.0</ele>
        <time>2013-06-30T15:12:32Z</time>
      </trkpt>
      <trkpt lat="40.026700" lon="-5.562067">
        <ele>561.0</ele>
        <time>2013-06-30T15:12:33Z</time>
      </trkpt>
      <trkpt lat="40.026633" lon="-5.562133">
        <ele>560.0</ele>
        <time>2013-06-30T15:12:34Z</time>
      </trkpt>
      <trkpt lat="40.026567" lon="-5.562183">
        <ele>561.0</ele>
        <time>2013-06-30T15:12:35Z</time>
      </trkpt>
      <trkpt lat="40.026500" lon="-5.562250">
        <ele>563.0</ele>
        <time>2013-06-30T15:12:36Z</time>
      </trkpt>
      <trkpt lat="40.026450" lon="-5.562283">
        <ele>563.0</ele>
        <time>2013-06-30T15:12:37Z</time>
      </trkpt>
      <trkpt lat="40.026400" lon="-5.562333">
        <ele>563.0</ele>
        <time>2013-06-30T15:12:38Z</time>
      </trkpt>
      <trkpt lat="40.026350" lon="-5.562367">
        <ele>564.0</ele>
        <time>2013-06-30T15:12:39Z</time>
      </trkpt>
      <trkpt lat="40.026283" lon="-5.562400">
        <ele>564.0</ele>
        <time>2013-06-30T15:12:40Z</time>
      </trkpt>
      <trkpt lat="40.026233" lon="-5.562433">
        <ele>564.0</ele>
        <time>2013-06-30T15:12:41Z</time>
      </trkpt>
      <trkpt lat="40.026183" lon="-5.562467">
        <ele>563.0</ele>
        <time>2013-06-30T15:12:42Z</time>
      </trkpt>
      <trkpt lat="40.026133" lon="-5.562500">
        <ele>562.0</ele>
        <time>2013-06-30T15:12:43Z</time>
      </trkpt>
      <trkpt lat="40.026067" lon="-5.562533">
        <ele>561.0</ele>
        <time>2013-06-30T15:12:44Z</time>
      </trkpt>
      <trkpt lat="40.025983" lon="-5.562567">
        <ele>560.0</ele>
        <time>2013-06-30T15:12:45Z</time>
      </trkpt>
      <trkpt lat="40.025900" lon="-5.562583">
        <ele>559.0</ele>
        <time>2013-06-30T15:12:46Z</time>
      </trkpt>
      <trkpt lat="40.025817" lon="-5.562617">
        <ele>558.0</ele>
        <time>2013-06-30T15:12:47Z</time>
      </trkpt>
      <trkpt lat="40.025717" lon="-5.562667">
        <ele>557.0</ele>
        <time>2013-06-30T15:12:48Z</time>
      </trkpt>
      <trkpt lat="40.025633" lon="-5.562700">
        <ele>556.0</ele>
        <time>2013-06-30T15:12:49Z</time>
      </trkpt>
      <trkpt lat="40.025550" lon="-5.562750">
        <ele>555.0</ele>
        <time>2013-06-30T15:12:50Z</time>
      </trkpt>
      <trkpt lat="40.025467" lon="-5.562783">
        <ele>554.0</ele>
        <time>2013-06-30T15:12:51Z</time>
      </trkpt>
      <trkpt lat="40.025383" lon="-5.562833">
        <ele>553.0</ele>
        <time>2013-06-30T15:12:52Z</time>
      </trkpt>
      <trkpt lat="40.025300" lon="-5.562867">
        <ele>552.0</ele>
        <time>2013-06-30T15:12:53Z</time>
      </trkpt>
      <trkpt lat="40.025200" lon="-5.562917">
        <ele>551.0</ele>
        <time>2013-06-30T15:12:54Z</time>
      </trkpt>
      <trkpt lat="40.025117" lon="-5.562983">
        <ele>551.0</ele>
        <time>2013-06-30T15:12:55Z</time>
      </trkpt>
      <trkpt lat="40.025050" lon="-5.563033">
        <ele>552.0</ele>
        <time>2013-06-30T15:12:56Z</time>
      </trkpt>
      <trkpt lat="40.024967" lon="-5.563083">
        <ele>552.0</ele>
        <time>2013-06-30T15:12:57Z</time>
      </trkpt>
      <trkpt lat="40.024900" lon="-5.563117">
        <ele>552.0</ele>
        <time>2013-06-30T15:12:58Z</time>
      </trkpt>
      <trkpt lat="40.024817" lon="-5.563150">
        <ele>551.0</ele>
        <time>2013-06-30T15:12:59Z</time>
      </trkpt>
      <trkpt lat="40.024733" lon="-5.563217">
        <ele>550.0</ele>
        <time>2013-06-30T15:13:00Z</time>
      </trkpt>
      <trkpt lat="40.024650" lon="-5.563267">
        <ele>548.0</ele>
        <time>2013-06-30T15:13:01Z</time>
      </trkpt>
      <trkpt lat="40.024567" lon="-5.563333">
        <ele>548.0</ele>
        <time>2013-06-30T15:13:02Z</time>
      </trkpt>
      <trkpt lat="40.024483" lon="-5.563383">
        <ele>549.0</ele>
        <time>2013-06-30T15:13:03Z</time>
      </trkpt>
      <trkpt lat="40.024433" lon="-5.563433">
        <ele>549.0</ele>
        <time>2013-06-30T15:13:04Z</time>
      </trkpt>
      <trkpt lat="40.024367" lon="-5.563483">
        <ele>548.0</ele>
        <time>2013-06-30T15:13:05Z</time>
      </trkpt>
      <trkpt lat="40.024300" lon="-5.563567">
        <ele>546.0</ele>
        <time>2013-06-30T15:13:06Z</time>
      </trkpt>
      <trkpt lat="40.024233" lon="-5.563633">
        <ele>544.0</ele>
        <time>2013-06-30T15:13:07Z</time>
      </trkpt>
      <trkpt lat="40.024167" lon="-5.563717">
        <ele>543.0</ele>
        <time>2013-06-30T15:13:08Z</time>
      </trkpt>
      <trkpt lat="40.024100" lon="-5.563767">
        <ele>543.0</ele>
        <time>2013-06-30T15:13:09Z</time>
      </trkpt>
      <trkpt lat="40.024050" lon="-5.563817">
        <ele>542.0</ele>
        <time>2013-06-30T15:13:10Z</time>
      </trkpt>
      <trkpt lat="40.023983" lon="-5.563867">
        <ele>541.0</ele>
        <time>2013-06-30T15:13:11Z</time>
      </trkpt>
      <trkpt lat="40.023933" lon="-5.563933">
        <ele>539.0</ele>
        <time>2013-06-30T15:13:12Z</time>
      </trkpt>
      <trkpt lat="40.023867" lon="-5.564000">
        <ele>538.0</ele>
        <time>2013-06-30T15:13:13Z</time>
      </trkpt>
      <trkpt lat="40.023800" lon="-5.564083">
        <ele>537.0</ele>
        <time>2013-06-30T15:13:14Z</time>
      </trkpt>
      <trkpt lat="40.023733" lon="-5.564133">
        <ele>536.0</ele>
        <time>2013-06-30T15:13:15Z</time>
      </trkpt>
      <trkpt lat="40.023667" lon="-5.564183">
        <ele>534.0</ele>
        <time>2013-06-30T15:13:16Z</time>
      </trkpt>
      <trkpt lat="40.023600" lon="-5.564217">
        <ele>533.0</ele>
        <time>2013-06-30T15:13:17Z</time>
      </trkpt>
      <trkpt lat="40.023533" lon="-5.564283">
        <ele>531.0</ele>
        <time>2013-06-30T15:13:18Z</time>
      </trkpt>
      <trkpt lat="40.023467" lon="-5.564333">
        <ele>528.0</ele>
        <time>2013-06-30T15:13:19Z</time>
      </trkpt>
      <trkpt lat="40.023383" lon="-5.564383">
        <ele>526.0</ele>
        <time>2013-06-30T15:13:20Z</time>
      </trkpt>
      <trkpt lat="40.023300" lon="-5.564433">
        <ele>525.0</ele>
        <time>2013-06-30T15:13:21Z</time>
      </trkpt>
      <trkpt lat="40.023217" lon="-5.564467">
        <ele>524.0</ele>
        <time>2013-06-30T15:13:22Z</time>
      </trkpt>
      <trkpt lat="40.023150" lon="-5.564517">
        <ele>523.0</ele>
        <time>2013-06-30T15:13:23Z</time>
      </trkpt>
      <trkpt lat="40.023083" lon="-5.564550">
        <ele>521.0</ele>
        <time>2013-06-30T15:13:24Z</time>
      </trkpt>
      <trkpt lat="40.023000" lon="-5.564600">
        <ele>519.0</ele>
        <time>2013-06-30T15:13:25Z</time>
      </trkpt>
      <trkpt lat="40.022933" lon="-5.564650">
        <ele>517.0</ele>
        <time>2013-06-30T15:13:26Z</time>
      </trkpt>
      <trkpt lat="40.022833" lon="-5.564683">
        <ele>515.0</ele>
        <time>2013-06-30T15:13:27Z</time>
      </trkpt>
      <trkpt lat="40.022750" lon="-5.564717">
        <ele>513.0</ele>
        <time>2013-06-30T15:13:28Z</time>
      </trkpt>
      <trkpt lat="40.022667" lon="-5.564750">
        <ele>511.0</ele>
        <time>2013-06-30T15:13:29Z</time>
      </trkpt>
      <trkpt lat="40.022567" lon="-5.564800">
        <ele>509.0</ele>
        <time>2013-06-30T15:13:30Z</time>
      </trkpt>
      <trkpt lat="40.022483" lon="-5.564833">
        <ele>508.0</ele>
        <time>2013-06-30T15:13:31Z</time>
      </trkpt>
      <trkpt lat="40.022400" lon="-5.564867">
        <ele>505.0</ele>
        <time>2013-06-30T15:13:32Z</time>
      </trkpt>
      <trkpt lat="40.022317" lon="-5.564900">
        <ele>503.0</ele>
        <time>2013-06-30T15:13:33Z</time>
      </trkpt>
      <trkpt lat="40.022217" lon="-5.564933">
        <ele>500.0</ele>
        <time>2013-06-30T15:13:34Z</time>
      </trkpt>
      <trkpt lat="40.022133" lon="-5.564967">
        <ele>498.0</ele>
        <time>2013-06-30T15:13:35Z</time>
      </trkpt>
      <trkpt lat="40.022033" lon="-5.565017">
        <ele>497.0</ele>
        <time>2013-06-30T15:13:36Z</time>
      </trkpt>
      <trkpt lat="40.021950" lon="-5.565067">
        <ele>495.0</ele>
        <time>2013-06-30T15:13:37Z</time>
      </trkpt>
      <trkpt lat="40.021867" lon="-5.565117">
        <ele>493.0</ele>
        <time>2013-06-30T15:13:38Z</time>
      </trkpt>
      <trkpt lat="40.021783" lon="-5.565150">
        <ele>491.0</ele>
        <time>2013-06-30T15:13:39Z</time>
      </trkpt>
      <trkpt lat="40.021700" lon="-5.565200">
        <ele>488.0</ele>
        <time>2013-06-30T15:13:40Z</time>
      </trkpt>
      <trkpt lat="40.021617" lon="-5.565267">
        <ele>485.0</ele>
        <time>2013-06-30T15:13:41Z</time>
      </trkpt>
      <trkpt lat="40.021533" lon="-5.565333">
        <ele>483.0</ele>
        <time>2013-06-30T15:13:42Z</time>
      </trkpt>
      <trkpt lat="40.021433" lon="-5.565383">
        <ele>481.0</ele>
        <time>2013-06-30T15:13:43Z</time>
      </trkpt>
      <trkpt lat="40.021350" lon="-5.565433">
        <ele>479.0</ele>
        <time>2013-06-30T15:13:44Z</time>
      </trkpt>
      <trkpt lat="40.021267" lon="-5.565483">
        <ele>478.0</ele>
        <time>2013-06-30T15:13:45Z</time>
      </trkpt>
      <trkpt lat="40.021200" lon="-5.565550">
        <ele>476.0</ele>
        <time>2013-06-30T15:13:46Z</time>
      </trkpt>
      <trkpt lat="40.021117" lon="-5.565600">
        <ele>474.0</ele>
        <time>2013-06-30T15:13:47Z</time>
      </trkpt>
      <trkpt lat="40.021050" lon="-5.565667">
        <ele>471.0</ele>
        <time>2013-06-30T15:13:48Z</time>
      </trkpt>
      <trkpt lat="40.020950" lon="-5.565717">
        <ele>469.0</ele>
        <time>2013-06-30T15:13:49Z</time>
      </trkpt>
      <trkpt lat="40.020867" lon="-5.565783">
        <ele>468.0</ele>
        <time>2013-06-30T15:13:50Z</time>
      </trkpt>
      <trkpt lat="40.020800" lon="-5.565833">
        <ele>467.0</ele>
        <time>2013-06-30T15:13:51Z</time>
      </trkpt>
      <trkpt lat="40.020733" lon="-5.565900">
        <ele>466.0</ele>
        <time>2013-06-30T15:13:52Z</time>
      </trkpt>
      <trkpt lat="40.020667" lon="-5.565967">
        <ele>464.0</ele>
        <time>2013-06-30T15:13:53Z</time>
      </trkpt>
      <trkpt lat="40.020583" lon="-5.566033">
        <ele>462.0</ele>
        <time>2013-06-30T15:13:54Z</time>
      </trkpt>
      <trkpt lat="40.020517" lon="-5.566100">
        <ele>460.0</ele>
        <time>2013-06-30T15:13:55Z</time>
      </trkpt>
      <trkpt lat="40.020450" lon="-5.566167">
        <ele>458.0</ele>
        <time>2013-06-30T15:13:56Z</time>
      </trkpt>
      <trkpt lat="40.020383" lon="-5.566233">
        <ele>456.0</ele>
        <time>2013-06-30T15:13:57Z</time>
      </trkpt>
      <trkpt lat="40.020317" lon="-5.566300">
        <ele>455.0</ele>
        <time>2013-06-30T15:13:58Z</time>
      </trkpt>
      <trkpt lat="40.020250" lon="-5.566350">
        <ele>454.0</ele>
        <time>2013-06-30T15:13:59Z</time>
      </trkpt>
      <trkpt lat="40.020200" lon="-5.566400">
        <ele>452.0</ele>
        <time>2013-06-30T15:14:00Z</time>
      </trkpt>
      <trkpt lat="40.020133" lon="-5.566467">
        <ele>450.0</ele>
        <time>2013-06-30T15:14:01Z</time>
      </trkpt>
      <trkpt lat="40.020067" lon="-5.566533">
        <ele>448.0</ele>
        <time>2013-06-30T15:14:02Z</time>
      </trkpt>
      <trkpt lat="40.020000" lon="-5.566600">
        <ele>446.0</ele>
        <time>2013-06-30T15:14:03Z</time>
      </trkpt>
      <trkpt lat="40.019950" lon="-5.566667">
        <ele>444.0</ele>
        <time>2013-06-30T15:14:04Z</time>
      </trkpt>
      <trkpt lat="40.019883" lon="-5.566733">
        <ele>444.0</ele>
        <time>2013-06-30T15:14:05Z</time>
      </trkpt>
      <trkpt lat="40.019850" lon="-5.566800">
        <ele>443.0</ele>
        <time>2013-06-30T15:14:06Z</time>
      </trkpt>
      <trkpt lat="40.019800" lon="-5.566867">
        <ele>441.0</ele>
        <time>2013-06-30T15:14:07Z</time>
      </trkpt>
      <trkpt lat="40.019750" lon="-5.566933">
        <ele>439.0</ele>
        <time>2013-06-30T15:14:08Z</time>
      </trkpt>
      <trkpt lat="40.019683" lon="-5.567000">
        <ele>437.0</ele>
        <time>2013-06-30T15:14:09Z</time>
      </trkpt>
      <trkpt lat="40.019633" lon="-5.567083">
        <ele>434.0</ele>
        <time>2013-06-30T15:14:10Z</time>
      </trkpt>
      <trkpt lat="40.019583" lon="-5.567150">
        <ele>432.0</ele>
        <time>2013-06-30T15:14:11Z</time>
      </trkpt>
      <trkpt lat="40.019533" lon="-5.567200">
        <ele>431.0</ele>
        <time>2013-06-30T15:14:12Z</time>
      </trkpt>
      <trkpt lat="40.019483" lon="-5.567267">
        <ele>429.0</ele>
        <time>2013-06-30T15:14:13Z</time>
      </trkpt>
      <trkpt lat="40.019417" lon="-5.567317">
        <ele>427.0</ele>
        <time>2013-06-30T15:14:14Z</time>
      </trkpt>
      <trkpt lat="40.019367" lon="-5.567383">
        <ele>426.0</ele>
        <time>2013-06-30T15:14:15Z</time>
      </trkpt>
      <trkpt lat="40.019283" lon="-5.567450">
        <ele>425.0</ele>
        <time>2013-06-30T15:14:16Z</time>
      </trkpt>
      <trkpt lat="40.019217" lon="-5.567517">
        <ele>425.0</ele>
        <time>2013-06-30T15:14:17Z</time>
      </trkpt>
      <trkpt lat="40.019150" lon="-5.567550">
        <ele>425.0</ele>
        <time>2013-06-30T15:14:18Z</time>
      </trkpt>
      <trkpt lat="40.019083" lon="-5.567583">
        <ele>425.0</ele>
        <time>2013-06-30T15:14:19Z</time>
      </trkpt>
      <trkpt lat="40.019017" lon="-5.567633">
        <ele>425.0</ele>
        <time>2013-06-30T15:14:20Z</time>
      </trkpt>
      <trkpt lat="40.018967" lon="-5.567683">
        <ele>425.0</ele>
        <time>2013-06-30T15:14:21Z</time>
      </trkpt>
      <trkpt lat="40.018917" lon="-5.567700">
        <ele>425.0</ele>
        <time>2013-06-30T15:14:22Z</time>
      </trkpt>
      <trkpt lat="40.018867" lon="-5.567733">
        <ele>423.0</ele>
        <time>2013-06-30T15:14:23Z</time>
      </trkpt>
      <trkpt lat="40.018800" lon="-5.567750">
        <ele>422.0</ele>
        <time>2013-06-30T15:14:24Z</time>
      </trkpt>
      <trkpt lat="40.018717" lon="-5.567767">
        <ele>421.0</ele>
        <time>2013-06-30T15:14:25Z</time>
      </trkpt>
      <trkpt lat="40.018633" lon="-5.567767">
        <ele>420.0</ele>
        <time>2013-06-30T15:14:26Z</time>
      </trkpt>
      <trkpt lat="40.018550" lon="-5.567767">
        <ele>419.0</ele>
        <time>2013-06-30T15:14:27Z</time>
      </trkpt>
      <trkpt lat="40.018450" lon="-5.567767">
        <ele>417.0</ele>
        <time>2013-06-30T15:14:28Z</time>
      </trkpt>
      <trkpt lat="40.018367" lon="-5.567767">
        <ele>415.0</ele>
        <time>2013-06-30T15:14:29Z</time>
      </trkpt>
      <trkpt lat="40.018283" lon="-5.567783">
        <ele>413.0</ele>
        <time>2013-06-30T15:14:30Z</time>
      </trkpt>
      <trkpt lat="40.018200" lon="-5.567800">
        <ele>411.0</ele>
        <time>2013-06-30T15:14:31Z</time>
      </trkpt>
      <trkpt lat="40.018083" lon="-5.567833">
        <ele>409.0</ele>
        <time>2013-06-30T15:14:32Z</time>
      </trkpt>
      <trkpt lat="40.017983" lon="-5.567850">
        <ele>409.0</ele>
        <time>2013-06-30T15:14:33Z</time>
      </trkpt>
      <trkpt lat="40.017900" lon="-5.567900">
        <ele>409.0</ele>
        <time>2013-06-30T15:14:34Z</time>
      </trkpt>
      <trkpt lat="40.017833" lon="-5.567933">
        <ele>408.0</ele>
        <time>2013-06-30T15:14:35Z</time>
      </trkpt>
      <trkpt lat="40.017767" lon="-5.567983">
        <ele>406.0</ele>
        <time>2013-06-30T15:14:36Z</time>
      </trkpt>
      <trkpt lat="40.017683" lon="-5.568033">
        <ele>404.0</ele>
        <time>2013-06-30T15:14:37Z</time>
      </trkpt>
      <trkpt lat="40.017617" lon="-5.568083">
        <ele>402.0</ele>
        <time>2013-06-30T15:14:38Z</time>
      </trkpt>
      <trkpt lat="40.017550" lon="-5.568150">
        <ele>399.0</ele>
        <time>2013-06-30T15:14:39Z</time>
      </trkpt>
      <trkpt lat="40.017467" lon="-5.568217">
        <ele>398.0</ele>
        <time>2013-06-30T15:14:40Z</time>
      </trkpt>
      <trkpt lat="40.017400" lon="-5.568283">
        <ele>397.0</ele>
        <time>2013-06-30T15:14:41Z</time>
      </trkpt>
      <trkpt lat="40.017317" lon="-5.568317">
        <ele>396.0</ele>
        <time>2013-06-30T15:14:42Z</time>
      </trkpt>
      <trkpt lat="40.017217" lon="-5.568367">
        <ele>395.0</ele>
        <time>2013-06-30T15:14:43Z</time>
      </trkpt>
      <trkpt lat="40.017117" lon="-5.568400">
        <ele>394.0</ele>
        <time>2013-06-30T15:14:44Z</time>
      </trkpt>
      <trkpt lat="40.017033" lon="-5.568433">
        <ele>393.0</ele>
        <time>2013-06-30T15:14:45Z</time>
      </trkpt>
      <trkpt lat="40.016950" lon="-5.568467">
        <ele>393.0</ele>
        <time>2013-06-30T15:14:46Z</time>
      </trkpt>
      <trkpt lat="40.016867" lon="-5.568517">
        <ele>391.0</ele>
        <time>2013-06-30T15:14:47Z</time>
      </trkpt>
      <trkpt lat="40.016783" lon="-5.568600">
        <ele>390.0</ele>
        <time>2013-06-30T15:14:48Z</time>
      </trkpt>
      <trkpt lat="40.016733" lon="-5.568700">
        <ele>389.0</ele>
        <time>2013-06-30T15:14:49Z</time>
      </trkpt>
      <trkpt lat="40.016683" lon="-5.568783">
        <ele>389.0</ele>
        <time>2013-06-30T15:14:50Z</time>
      </trkpt>
      <trkpt lat="40.016633" lon="-5.568867">
        <ele>389.0</ele>
        <time>2013-06-30T15:14:51Z</time>
      </trkpt>
      <trkpt lat="40.016583" lon="-5.568950">
        <ele>388.0</ele>
        <time>2013-06-30T15:14:52Z</time>
      </trkpt>
      <trkpt lat="40.016533" lon="-5.569050">
        <ele>388.0</ele>
        <time>2013-06-30T15:14:53Z</time>
      </trkpt>
      <trkpt lat="40.016500" lon="-5.569167">
        <ele>387.0</ele>
        <time>2013-06-30T15:14:54Z</time>
      </trkpt>
      <trkpt lat="40.016467" lon="-5.569267">
        <ele>388.0</ele>
        <time>2013-06-30T15:14:55Z</time>
      </trkpt>
      <trkpt lat="40.016433" lon="-5.569350">
        <ele>389.0</ele>
        <time>2013-06-30T15:14:56Z</time>
      </trkpt>
      <trkpt lat="40.016400" lon="-5.569417">
        <ele>389.0</ele>
        <time>2013-06-30T15:14:57Z</time>
      </trkpt>
      <trkpt lat="40.016367" lon="-5.569483">
        <ele>390.0</ele>
        <time>2013-06-30T15:14:58Z</time>
      </trkpt>
      <trkpt lat="40.016317" lon="-5.569533">
        <ele>390.0</ele>
        <time>2013-06-30T15:14:59Z</time>
      </trkpt>
      <trkpt lat="40.016250" lon="-5.569567">
        <ele>390.0</ele>
        <time>2013-06-30T15:15:00Z</time>
      </trkpt>
      <trkpt lat="40.016167" lon="-5.569583">
        <ele>390.0</ele>
        <time>2013-06-30T15:15:01Z</time>
      </trkpt>
      <trkpt lat="40.016083" lon="-5.569600">
        <ele>390.0</ele>
        <time>2013-06-30T15:15:02Z</time>
      </trkpt>
      <trkpt lat="40.016000" lon="-5.569600">
        <ele>391.0</ele>
        <time>2013-06-30T15:15:03Z</time>
      </trkpt>
      <trkpt lat="40.015917" lon="-5.569583">
        <ele>392.0</ele>
        <time>2013-06-30T15:15:04Z</time>
      </trkpt>
      <trkpt lat="40.015833" lon="-5.569533">
        <ele>393.0</ele>
        <time>2013-06-30T15:15:05Z</time>
      </trkpt>
      <trkpt lat="40.015750" lon="-5.569467">
        <ele>394.0</ele>
        <time>2013-06-30T15:15:06Z</time>
      </trkpt>
      <trkpt lat="40.015683" lon="-5.569400">
        <ele>395.0</ele>
        <time>2013-06-30T15:15:07Z</time>
      </trkpt>
      <trkpt lat="40.015617" lon="-5.569350">
        <ele>395.0</ele>
        <time>2013-06-30T15:15:08Z</time>
      </trkpt>
      <trkpt lat="40.015550" lon="-5.569267">
        <ele>395.0</ele>
        <time>2013-06-30T15:15:09Z</time>
      </trkpt>
      <trkpt lat="40.015500" lon="-5.569183">
        <ele>395.0</ele>
        <time>2013-06-30T15:15:10Z</time>
      </trkpt>
      <trkpt lat="40.015467" lon="-5.569067">
        <ele>394.0</ele>
        <time>2013-06-30T15:15:11Z</time>
      </trkpt>
      <trkpt lat="40.015467" lon="-5.568933">
        <ele>393.0</ele>
        <time>2013-06-30T15:15:12Z</time>
      </trkpt>
      <trkpt lat="40.015467" lon="-5.568817">
        <ele>393.0</ele>
        <time>2013-06-30T15:15:13Z</time>
      </trkpt>
      <trkpt lat="40.015500" lon="-5.568717">
        <ele>393.0</ele>
        <time>2013-06-30T15:15:14Z</time>
      </trkpt>
      <trkpt lat="40.015533" lon="-5.568633">
        <ele>392.0</ele>
        <time>2013-06-30T15:15:15Z</time>
      </trkpt>
      <trkpt lat="40.015567" lon="-5.568567">
        <ele>392.0</ele>
        <time>2013-06-30T15:15:16Z</time>
      </trkpt>
      <trkpt lat="40.015617" lon="-5.568500">
        <ele>392.0</ele>
        <time>2013-06-30T15:15:17Z</time>
      </trkpt>
      <trkpt lat="40.015650" lon="-5.568467">
        <ele>392.0</ele>
        <time>2013-06-30T15:15:18Z</time>
      </trkpt>
      <trkpt lat="40.015700" lon="-5.568467">
        <ele>392.0</ele>
        <time>2013-06-30T15:15:19Z</time>
      </trkpt>
      <trkpt lat="40.015733" lon="-5.568500">
        <ele>392.0</ele>
        <time>2013-06-30T15:15:20Z</time>
      </trkpt>
      <trkpt lat="40.015783" lon="-5.568583">
        <ele>391.0</ele>
        <time>2013-06-30T15:15:21Z</time>
      </trkpt>
      <trkpt lat="40.015817" lon="-5.568683">
        <ele>389.0</ele>
        <time>2013-06-30T15:15:22Z</time>
      </trkpt>
      <trkpt lat="40.015817" lon="-5.568767">
        <ele>388.0</ele>
        <time>2013-06-30T15:15:23Z</time>
      </trkpt>
      <trkpt lat="40.015783" lon="-5.568850">
        <ele>389.0</ele>
        <time>2013-06-30T15:15:24Z</time>
      </trkpt>
      <trkpt lat="40.015767" lon="-5.568917">
        <ele>389.0</ele>
        <time>2013-06-30T15:15:25Z</time>
      </trkpt>
      <trkpt lat="40.015733" lon="-5.568983">
        <ele>389.0</ele>
        <time>2013-06-30T15:15:26Z</time>
      </trkpt>
      <trkpt lat="40.015700" lon="-5.569067">
        <ele>388.0</ele>
        <time>2013-06-30T15:15:27Z</time>
      </trkpt>
      <trkpt lat="40.015633" lon="-5.569133">
        <ele>388.0</ele>
        <time>2013-06-30T15:15:28Z</time>
      </trkpt>
      <trkpt lat="40.015567" lon="-5.569167">
        <ele>388.0</ele>
        <time>2013-06-30T15:15:29Z</time>
      </trkpt>
      <trkpt lat="40.015483" lon="-5.569183">
        <ele>387.0</ele>
        <time>2013-06-30T15:15:30Z</time>
      </trkpt>
      <trkpt lat="40.015400" lon="-5.569183">
        <ele>388.0</ele>
        <time>2013-06-30T15:15:31Z</time>
      </trkpt>
      <trkpt lat="40.015317" lon="-5.569200">
        <ele>388.0</ele>
        <time>2013-06-30T15:15:32Z</time>
      </trkpt>
      <trkpt lat="40.015250" lon="-5.569200">
        <ele>389.0</ele>
        <time>2013-06-30T15:15:33Z</time>
      </trkpt>
      <trkpt lat="40.015183" lon="-5.569183">
        <ele>390.0</ele>
        <time>2013-06-30T15:15:34Z</time>
      </trkpt>
      <trkpt lat="40.015117" lon="-5.569150">
        <ele>391.0</ele>
        <time>2013-06-30T15:15:35Z</time>
      </trkpt>
      <trkpt lat="40.015050" lon="-5.569117">
        <ele>391.0</ele>
        <time>2013-06-30T15:15:36Z</time>
      </trkpt>
      <trkpt lat="40.014983" lon="-5.569083">
        <ele>390.0</ele>
        <time>2013-06-30T15:15:37Z</time>
      </trkpt>
      <trkpt lat="40.014900" lon="-5.569050">
        <ele>390.0</ele>
        <time>2013-06-30T15:15:38Z</time>
      </trkpt>
      <trkpt lat="40.014833" lon="-5.569017">
        <ele>391.0</ele>
        <time>2013-06-30T15:15:39Z</time>
      </trkpt>
      <trkpt lat="40.014767" lon="-5.568967">
        <ele>391.0</ele>
        <time>2013-06-30T15:15:40Z</time>
      </trkpt>
      <trkpt lat="40.014700" lon="-5.568917">
        <ele>392.0</ele>
        <time>2013-06-30T15:15:41Z</time>
      </trkpt>
      <trkpt lat="40.014633" lon="-5.568850">
        <ele>393.0</ele>
        <time>2013-06-30T15:15:42Z</time>
      </trkpt>
      <trkpt lat="40.014567" lon="-5.568783">
        <ele>394.0</ele>
        <time>2013-06-30T15:15:43Z</time>
      </trkpt>
      <trkpt lat="40.014500" lon="-5.568733">
        <ele>396.0</ele>
        <time>2013-06-30T15:15:44Z</time>
      </trkpt>
      <trkpt lat="40.014450" lon="-5.568667">
        <ele>397.0</ele>
        <time>2013-06-30T15:15:45Z</time>
      </trkpt>
      <trkpt lat="40.014400" lon="-5.568617">
        <ele>397.0</ele>
        <time>2013-06-30T15:15:46Z</time>
      </trkpt>
      <trkpt lat="40.014333" lon="-5.568583">
        <ele>396.0</ele>
        <time>2013-06-30T15:15:47Z</time>
      </trkpt>
      <trkpt lat="40.014250" lon="-5.568583">
        <ele>396.0</ele>
        <time>2013-06-30T15:15:48Z</time>
      </trkpt>
      <trkpt lat="40.014167" lon="-5.568600">
        <ele>396.0</ele>
        <time>2013-06-30T15:15:49Z</time>
      </trkpt>
      <trkpt lat="40.014117" lon="-5.568667">
        <ele>397.0</ele>
        <time>2013-06-30T15:15:50Z</time>
      </trkpt>
      <trkpt lat="40.014100" lon="-5.568750">
        <ele>397.0</ele>
        <time>2013-06-30T15:15:51Z</time>
      </trkpt>
      <trkpt lat="40.014117" lon="-5.568817">
        <ele>398.0</ele>
        <time>2013-06-30T15:15:52Z</time>
      </trkpt>
      <trkpt lat="40.014133" lon="-5.568867">
        <ele>399.0</ele>
        <time>2013-06-30T15:15:53Z</time>
      </trkpt>
      <trkpt lat="40.014167" lon="-5.568917">
        <ele>399.0</ele>
        <time>2013-06-30T15:15:54Z</time>
      </trkpt>
      <trkpt lat="40.014200" lon="-5.568967">
        <ele>399.0</ele>
        <time>2013-06-30T15:15:55Z</time>
      </trkpt>
      <trkpt lat="40.014233" lon="-5.569000">
        <ele>399.0</ele>
        <time>2013-06-30T15:15:56Z</time>
      </trkpt>
      <trkpt lat="40.014283" lon="-5.569033">
        <ele>398.0</ele>
        <time>2013-06-30T15:15:57Z</time>
      </trkpt>
      <trkpt lat="40.014350" lon="-5.569033">
        <ele>397.0</ele>
        <time>2013-06-30T15:15:58Z</time>
      </trkpt>
      <trkpt lat="40.014417" lon="-5.569017">
        <ele>397.0</ele>
        <time>2013-06-30T15:15:59Z</time>
      </trkpt>
      <trkpt lat="40.014483" lon="-5.568967">
        <ele>397.0</ele>
        <time>2013-06-30T15:16:00Z</time>
      </trkpt>
      <trkpt lat="40.014533" lon="-5.568900">
        <ele>397.0</ele>
        <time>2013-06-30T15:16:01Z</time>
      </trkpt>
      <trkpt lat="40.014567" lon="-5.568800">
        <ele>396.0</ele>
        <time>2013-06-30T15:16:02Z</time>
      </trkpt>
      <trkpt lat="40.014600" lon="-5.568683">
        <ele>395.0</ele>
        <time>2013-06-30T15:16:03Z</time>
      </trkpt>
      <trkpt lat="40.014600" lon="-5.568550">
        <ele>394.0</ele>
        <time>2013-06-30T15:16:04Z</time>
      </trkpt>
      <trkpt lat="40.014583" lon="-5.568417">
        <ele>393.0</ele>
        <time>2013-06-30T15:16:05Z</time>
      </trkpt>
      <trkpt lat="40.014517" lon="-5.568317">
        <ele>393.0</ele>
        <time>2013-06-30T15:16:06Z</time>
      </trkpt>
      <trkpt lat="40.014433" lon="-5.568250">
        <ele>392.0</ele>
        <time>2013-06-30T15:16:07Z</time>
      </trkpt>
      <trkpt lat="40.014350" lon="-5.568250">
        <ele>392.0</ele>
        <time>2013-06-30T15:16:08Z</time>
      </trkpt>
      <trkpt lat="40.014267" lon="-5.568283">
        <ele>392.0</ele>
        <time>2013-06-30T15:16:09Z</time>
      </trkpt>
      <trkpt lat="40.014200" lon="-5.568350">
        <ele>392.0</ele>
        <time>2013-06-30T15:16:10Z</time>
      </trkpt>
      <trkpt lat="40.014133" lon="-5.568400">
        <ele>393.0</ele>
        <time>2013-06-30T15:16:11Z</time>
      </trkpt>
      <trkpt lat="40.014083" lon="-5.568450">
        <ele>393.0</ele>
        <time>2013-06-30T15:16:12Z</time>
      </trkpt>
      <trkpt lat="40.014017" lon="-5.568500">
        <ele>393.0</ele>
        <time>2013-06-30T15:16:13Z</time>
      </trkpt>
      <trkpt lat="40.013967" lon="-5.568550">
        <ele>392.0</ele>
        <time>2013-06-30T15:16:14Z</time>
      </trkpt>
      <trkpt lat="40.013900" lon="-5.568617">
        <ele>392.0</ele>
        <time>2013-06-30T15:16:15Z</time>
      </trkpt>
      <trkpt lat="40.013850" lon="-5.568683">
        <ele>392.0</ele>
        <time>2013-06-30T15:16:16Z</time>
      </trkpt>
      <trkpt lat="40.013800" lon="-5.568750">
        <ele>392.0</ele>
        <time>2013-06-30T15:16:17Z</time>
      </trkpt>
      <trkpt lat="40.013767" lon="-5.568817">
        <ele>392.0</ele>
        <time>2013-06-30T15:16:18Z</time>
      </trkpt>
      <trkpt lat="40.013717" lon="-5.568900">
        <ele>391.0</ele>
        <time>2013-06-30T15:16:19Z</time>
      </trkpt>
      <trkpt lat="40.013667" lon="-5.568967">
        <ele>391.0</ele>
        <time>2013-06-30T15:16:20Z</time>
      </trkpt>
      <trkpt lat="40.013617" lon="-5.569033">
        <ele>390.0</ele>
        <time>2013-06-30T15:16:21Z</time>
      </trkpt>
      <trkpt lat="40.013550" lon="-5.569117">
        <ele>390.0</ele>
        <time>2013-06-30T15:16:22Z</time>
      </trkpt>
      <trkpt lat="40.013500" lon="-5.569200">
        <ele>390.0</ele>
        <time>2013-06-30T15:16:23Z</time>
      </trkpt>
      <trkpt lat="40.013450" lon="-5.569267">
        <ele>389.0</ele>
        <time>2013-06-30T15:16:24Z</time>
      </trkpt>
      <trkpt lat="40.013400" lon="-5.569317">
        <ele>388.0</ele>
        <time>2013-06-30T15:16:25Z</time>
      </trkpt>
      <trkpt lat="40.013367" lon="-5.569383">
        <ele>387.0</ele>
        <time>2013-06-30T15:16:26Z</time>
      </trkpt>
      <trkpt lat="40.013333" lon="-5.569467">
        <ele>385.0</ele>
        <time>2013-06-30T15:16:27Z</time>
      </trkpt>
      <trkpt lat="40.013283" lon="-5.569533">
        <ele>384.0</ele>
        <time>2013-06-30T15:16:28Z</time>
      </trkpt>
      <trkpt lat="40.013250" lon="-5.569617">
        <ele>382.0</ele>
        <time>2013-06-30T15:16:29Z</time>
      </trkpt>
      <trkpt lat="40.013217" lon="-5.569700">
        <ele>381.0</ele>
        <time>2013-06-30T15:16:30Z</time>
      </trkpt>
      <trkpt lat="40.013183" lon="-5.569767">
        <ele>380.0</ele>
        <time>2013-06-30T15:16:31Z</time>
      </trkpt>
      <trkpt lat="40.013133" lon="-5.569833">
        <ele>379.0</ele>
        <time>2013-06-30T15:16:32Z</time>
      </trkpt>
      <trkpt lat="40.013083" lon="-5.569900">
        <ele>377.0</ele>
        <time>2013-06-30T15:16:33Z</time>
      </trkpt>
      <trkpt lat="40.013033" lon="-5.569967">
        <ele>376.0</ele>
        <time>2013-06-30T15:16:34Z</time>
      </trkpt>
      <trkpt lat="40.012983" lon="-5.570033">
        <ele>375.0</ele>
        <time>2013-06-30T15:16:35Z</time>
      </trkpt>
      <trkpt lat="40.012933" lon="-5.570083">
        <ele>374.0</ele>
        <time>2013-06-30T15:16:36Z</time>
      </trkpt>
      <trkpt lat="40.012883" lon="-5.570150">
        <ele>373.0</ele>
        <time>2013-06-30T15:16:37Z</time>
      </trkpt>
      <trkpt lat="40.012833" lon="-5.570200">
        <ele>371.0</ele>
        <time>2013-06-30T15:16:38Z</time>
      </trkpt>
      <trkpt lat="40.012767" lon="-5.570250">
        <ele>370.0</ele>
        <time>2013-06-30T15:16:39Z</time>
      </trkpt>
      <trkpt lat="40.012717" lon="-5.570283">
        <ele>368.0</ele>
        <time>2013-06-30T15:16:40Z</time>
      </trkpt>
      <trkpt lat="40.012650" lon="-5.570333">
        <ele>367.0</ele>
        <time>2013-06-30T15:16:41Z</time>
      </trkpt>
      <trkpt lat="40.012583" lon="-5.570383">
        <ele>366.0</ele>
        <time>2013-06-30T15:16:42Z</time>
      </trkpt>
      <trkpt lat="40.012533" lon="-5.570417">
        <ele>365.0</ele>
        <time>2013-06-30T15:16:43Z</time>
      </trkpt>
      <trkpt lat="40.012517" lon="-5.570467">
        <ele>364.0</ele>
        <time>2013-06-30T15:16:44Z</time>
      </trkpt>
      <trkpt lat="40.012517" lon="-5.570517">
        <ele>361.0</ele>
        <time>2013-06-30T15:16:45Z</time>
      </trkpt>
      <trkpt lat="40.012567" lon="-5.570567">
        <ele>358.0</ele>
        <time>2013-06-30T15:16:46Z</time>
      </trkpt>
      <trkpt lat="40.012633" lon="-5.570583">
        <ele>355.0</ele>
        <time>2013-06-30T15:16:47Z</time>
      </trkpt>
      <trkpt lat="40.012717" lon="-5.570583">
        <ele>353.0</ele>
        <time>2013-06-30T15:16:48Z</time>
      </trkpt>
      <trkpt lat="40.012783" lon="-5.570567">
        <ele>353.0</ele>
        <time>2013-06-30T15:16:49Z</time>
      </trkpt>
      <trkpt lat="40.012850" lon="-5.570550">
        <ele>352.0</ele>
        <time>2013-06-30T15:16:50Z</time>
      </trkpt>
      <trkpt lat="40.012933" lon="-5.570533">
        <ele>351.0</ele>
        <time>2013-06-30T15:16:51Z</time>
      </trkpt>
      <trkpt lat="40.013000" lon="-5.570500">
        <ele>351.0</ele>
        <time>2013-06-30T15:16:52Z</time>
      </trkpt>
      <trkpt lat="40.013083" lon="-5.570467">
        <ele>350.0</ele>
        <time>2013-06-30T15:16:53Z</time>
      </trkpt>
      <trkpt lat="40.013150" lon="-5.570417">
        <ele>349.0</ele>
        <time>2013-06-30T15:16:54Z</time>
      </trkpt>
      <trkpt lat="40.013233" lon="-5.570367">
        <ele>348.0</ele>
        <time>2013-06-30T15:16:55Z</time>
      </trkpt>
      <trkpt lat="40.013300" lon="-5.570317">
        <ele>347.0</ele>
        <time>2013-06-30T15:16:56Z</time>
      </trkpt>
      <trkpt lat="40.013367" lon="-5.570267">
        <ele>346.0</ele>
        <time>2013-06-30T15:16:57Z</time>
      </trkpt>
      <trkpt lat="40.013433" lon="-5.570250">
        <ele>345.0</ele>
        <time>2013-06-30T15:16:58Z</time>
      </trkpt>
      <trkpt lat="40.013500" lon="-5.570233">
        <ele>344.0</ele>
        <time>2013-06-30T15:16:59Z</time>
      </trkpt>
      <trkpt lat="40.013550" lon="-5.570217">
        <ele>342.0</ele>
        <time>2013-06-30T15:17:00Z</time>
      </trkpt>
      <trkpt lat="40.013600" lon="-5.570217">
        <ele>341.0</ele>
        <time>2013-06-30T15:17:01Z</time>
      </trkpt>
      <trkpt lat="40.013650" lon="-5.570233">
        <ele>340.0</ele>
        <time>2013-06-30T15:17:02Z</time>
      </trkpt>
      <trkpt lat="40.013700" lon="-5.570233">
        <ele>339.0</ele>
        <time>2013-06-30T15:17:03Z</time>
      </trkpt>
      <trkpt lat="40.013750" lon="-5.570250">
        <ele>337.0</ele>
        <time>2013-06-30T15:17:04Z</time>
      </trkpt>
      <trkpt lat="40.013833" lon="-5.570267">
        <ele>335.0</ele>
        <time>2013-06-30T15:17:05Z</time>
      </trkpt>
      <trkpt lat="40.013883" lon="-5.570283">
        <ele>336.0</ele>
        <time>2013-06-30T15:17:06Z</time>
      </trkpt>
      <trkpt lat="40.013933" lon="-5.570283">
        <ele>337.0</ele>
        <time>2013-06-30T15:17:07Z</time>
      </trkpt>
      <trkpt lat="40.013983" lon="-5.570267">
        <ele>337.0</ele>
        <time>2013-06-30T15:17:08Z</time>
      </trkpt>
      <trkpt lat="40.014017" lon="-5.570233">
        <ele>335.0</ele>
        <time>2013-06-30T15:17:09Z</time>
      </trkpt>
      <trkpt lat="40.014050" lon="-5.570200">
        <ele>334.0</ele>
        <time>2013-06-30T15:17:10Z</time>
      </trkpt>
      <trkpt lat="40.014100" lon="-5.570167">
        <ele>331.0</ele>
        <time>2013-06-30T15:17:11Z</time>
      </trkpt>
      <trkpt lat="40.014150" lon="-5.570167">
        <ele>329.0</ele>
        <time>2013-06-30T15:17:12Z</time>
      </trkpt>
      <trkpt lat="40.014167" lon="-5.570233">
        <ele>326.0</ele>
        <time>2013-06-30T15:17:13Z</time>
      </trkpt>
      <trkpt lat="40.014183" lon="-5.570317">
        <ele>322.0</ele>
        <time>2013-06-30T15:17:14Z</time>
      </trkpt>
      <trkpt lat="40.014167" lon="-5.570417">
        <ele>321.0</ele>
        <time>2013-06-30T15:17:15Z</time>
      </trkpt>
      <trkpt lat="40.014133" lon="-5.570483">
        <ele>320.0</ele>
        <time>2013-06-30T15:17:16Z</time>
      </trkpt>
      <trkpt lat="40.014117" lon="-5.570550">
        <ele>321.0</ele>
        <time>2013-06-30T15:17:17Z</time>
      </trkpt>
      <trkpt lat="40.014083" lon="-5.570583">
        <ele>320.0</ele>
        <time>2013-06-30T15:17:18Z</time>
      </trkpt>
      <trkpt lat="40.014083" lon="-5.570633">
        <ele>319.0</ele>
        <time>2013-06-30T15:17:19Z</time>
      </trkpt>
      <trkpt lat="40.014067" lon="-5.570683">
        <ele>318.0</ele>
        <time>2013-06-30T15:17:20Z</time>
      </trkpt>
      <trkpt lat="40.014050" lon="-5.570733">
        <ele>316.0</ele>
        <time>2013-06-30T15:17:21Z</time>
      </trkpt>
      <trkpt lat="40.014067" lon="-5.570783">
        <ele>315.0</ele>
        <time>2013-06-30T15:17:22Z</time>
      </trkpt>
      <trkpt lat="40.014067" lon="-5.570817">
        <ele>313.0</ele>
        <time>2013-06-30T15:17:23Z</time>
      </trkpt>
      <trkpt lat="40.014083" lon="-5.570867">
        <ele>312.0</ele>
        <time>2013-06-30T15:17:24Z</time>
      </trkpt>
      <trkpt lat="40.014100" lon="-5.570900">
        <ele>310.0</ele>
        <time>2013-06-30T15:17:25Z</time>
      </trkpt>
      <trkpt lat="40.014133" lon="-5.570933">
        <ele>308.0</ele>
        <time>2013-06-30T15:17:26Z</time>
      </trkpt>
      <trkpt lat="40.014167" lon="-5.570983">
        <ele>306.0</ele>
        <time>2013-06-30T15:17:27Z</time>
      </trkpt>
      <trkpt lat="40.014167" lon="-5.571033">
        <ele>304.0</ele>
        <time>2013-06-30T15:17:28Z</time>
      </trkpt>
      <trkpt lat="40.014150" lon="-5.571100">
        <ele>301.0</ele>
        <time>2013-06-30T15:17:29Z</time>
      </trkpt>
      <trkpt lat="40.014100" lon="-5.571167">
        <ele>299.0</ele>
        <time>2013-06-30T15:17:30Z</time>
      </trkpt>
      <trkpt lat="40.014050" lon="-5.571200">
        <ele>298.0</ele>
        <time>2013-06-30T15:17:31Z</time>
      </trkpt>
      <trkpt lat="40.014000" lon="-5.571233">
        <ele>297.0</ele>
        <time>2013-06-30T15:17:32Z</time>
      </trkpt>
      <trkpt lat="40.013933" lon="-5.571250">
        <ele>295.0</ele>
        <time>2013-06-30T15:17:33Z</time>
      </trkpt>
      <trkpt lat="40.013883" lon="-5.571283">
        <ele>293.0</ele>
        <time>2013-06-30T15:17:34Z</time>
      </trkpt>
      <trkpt lat="40.013833" lon="-5.571333">
        <ele>290.0</ele>
        <time>2013-06-30T15:17:35Z</time>
      </trkpt>
      <trkpt lat="40.013817" lon="-5.571417">
        <ele>288.0</ele>
        <time>2013-06-30T15:17:36Z</time>
      </trkpt>
      <trkpt lat="40.013800" lon="-5.571500">
        <ele>285.0</ele>
        <time>2013-06-30T15:17:37Z</time>
      </trkpt>
      <trkpt lat="40.013783" lon="-5.571567">
        <ele>283.0</ele>
        <time>2013-06-30T15:17:38Z</time>
      </trkpt>
      <trkpt lat="40.013750" lon="-5.571633">
        <ele>284.0</ele>
        <time>2013-06-30T15:17:39Z</time>
      </trkpt>
      <trkpt lat="40.013767" lon="-5.571683">
        <ele>284.0</ele>
        <time>2013-06-30T15:17:40Z</time>
      </trkpt>
      <trkpt lat="40.013767" lon="-5.571717">
        <ele>283.0</ele>
        <time>2013-06-30T15:17:41Z</time>
      </trkpt>
      <trkpt lat="40.013783" lon="-5.571750">
        <ele>282.0</ele>
        <time>2013-06-30T15:17:42Z</time>
      </trkpt>
      <trkpt lat="40.013783" lon="-5.571800">
        <ele>282.0</ele>
        <time>2013-06-30T15:17:43Z</time>
      </trkpt>
      <trkpt lat="40.013767" lon="-5.571867">
        <ele>280.0</ele>
        <time>2013-06-30T15:17:44Z</time>
      </trkpt>
      <trkpt lat="40.013750" lon="-5.571917">
        <ele>279.0</ele>
        <time>2013-06-30T15:17:45Z</time>
      </trkpt>
      <trkpt lat="40.013717" lon="-5.571983">
        <ele>277.0</ele>
        <time>2013-06-30T15:17:46Z</time>
      </trkpt>
      <trkpt lat="40.013667" lon="-5.572033">
        <ele>276.0</ele>
        <time>2013-06-30T15:17:47Z</time>
      </trkpt>
      <trkpt lat="40.013617" lon="-5.572067">
        <ele>275.0</ele>
        <time>2013-06-30T15:17:48Z</time>
      </trkpt>
      <trkpt lat="40.013567" lon="-5.572100">
        <ele>274.0</ele>
        <time>2013-06-30T15:17:49Z</time>
      </trkpt>
      <trkpt lat="40.013533" lon="-5.572133">
        <ele>273.0</ele>
        <time>2013-06-30T15:17:50Z</time>
      </trkpt>
      <trkpt lat="40.013500" lon="-5.572167">
        <ele>273.0</ele>
        <time>2013-06-30T15:17:51Z</time>
      </trkpt>
      <trkpt lat="40.013500" lon="-5.572167">
        <ele>272.0</ele>
        <time>2013-06-30T15:17:52Z</time>
      </trkpt>
      <trkpt lat="40.013483" lon="-5.572167">
        <ele>271.0</ele>
        <time>2013-06-30T15:17:53Z</time>
      </trkpt>
      <trkpt lat="40.013483" lon="-5.572150">
        <ele>271.0</ele>
        <time>2013-06-30T15:17:54Z</time>
      </trkpt>
      <trkpt lat="40.013467" lon="-5.572150">
        <ele>271.0</ele>
        <time>2013-06-30T15:17:55Z</time>
      </trkpt>
      <trkpt lat="40.013450" lon="-5.572133">
        <ele>270.0</ele>
        <time>2013-06-30T15:17:56Z</time>
      </trkpt>
      <trkpt lat="40.013433" lon="-5.572117">
        <ele>270.0</ele>
        <time>2013-06-30T15:17:57Z</time>
      </trkpt>
      <trkpt lat="40.013450" lon="-5.572117">
        <ele>269.0</ele>
        <time>2013-06-30T15:17:58Z</time>
      </trkpt>
      <trkpt lat="40.013450" lon="-5.572117">
        <ele>269.0</ele>
        <time>2013-06-30T15:17:59Z</time>
      </trkpt>
      <trkpt lat="40.013433" lon="-5.572117">
        <ele>269.0</ele>
        <time>2013-06-30T15:18:00Z</time>
      </trkpt>
      <trkpt lat="40.013433" lon="-5.572117">
        <ele>269.0</ele>
        <time>2013-06-30T15:18:01Z</time>
      </trkpt>
      <trkpt lat="40.013433" lon="-5.572117">
        <ele>270.0</ele>
        <time>2013-06-30T15:18:02Z</time>
      </trkpt>
      <trkpt lat="40.013450" lon="-5.572117">
        <ele>269.0</ele>
        <time>2013-06-30T15:18:03Z</time>
      </trkpt>
      <trkpt lat="40.013450" lon="-5.572133">
        <ele>269.0</ele>
        <time>2013-06-30T15:18:04Z</time>
      </trkpt>
      <trkpt lat="40.013450" lon="-5.572133">
        <ele>269.0</ele>
        <time>2013-06-30T15:18:05Z</time>
      </trkpt>
      <trkpt lat="40.013450" lon="-5.572133">
        <ele>269.0</ele>
        <time>2013-06-30T15:18:06Z</time>
      </trkpt>
      <trkpt lat="40.013450" lon="-5.572133">
        <ele>269.0</ele>
        <time>2013-06-30T15:18:07Z</time>
      </trkpt>
      <trkpt lat="40.013467" lon="-5.572133">
        <ele>269.0</ele>
        <time>2013-06-30T15:18:08Z</time>
      </trkpt>
      <trkpt lat="40.013467" lon="-5.572150">
        <ele>269.0</ele>
        <time>2013-06-30T15:18:09Z</time>
      </trkpt>
      <trkpt lat="40.013467" lon="-5.572150">
        <ele>269.0</ele>
        <time>2013-06-30T15:18:10Z</time>
      </trkpt>
      <trkpt lat="40.013467" lon="-5.572150">
        <ele>268.0</ele>
        <time>2013-06-30T15:18:11Z</time>
      </trkpt>
      <trkpt lat="40.013467" lon="-5.572167">
        <ele>268.0</ele>
        <time>2013-06-30T15:18:12Z</time>
      </trkpt>
      <trkpt lat="40.013467" lon="-5.572167">
        <ele>268.0</ele>
        <time>2013-06-30T15:18:13Z</time>
      </trkpt>
      <trkpt lat="40.013467" lon="-5.572167">
        <ele>268.0</ele>
        <time>2013-06-30T15:18:14Z</time>
      </trkpt>
      <trkpt lat="40.013467" lon="-5.572150">
        <ele>268.0</ele>
        <time>2013-06-30T15:18:15Z</time>
      </trkpt>
      <trkpt lat="40.013467" lon="-5.572150">
        <ele>268.0</ele>
        <time>2013-06-30T15:18:16Z</time>
      </trkpt>
      <trkpt lat="40.013467" lon="-5.572150">
        <ele>268.0</ele>
        <time>2013-06-30T15:18:17Z</time>
      </trkpt>
      <trkpt lat="40.013467" lon="-5.572150">
        <ele>268.0</ele>
        <time>2013-06-30T15:18:18Z</time>
      </trkpt>
      <trkpt lat="40.013483" lon="-5.572150">
        <ele>268.0</ele>
        <time>2013-06-30T15:18:19Z</time>
      </trkpt>
      <trkpt lat="40.013483" lon="-5.572150">
        <ele>268.0</ele>
        <time>2013-06-30T15:18:20Z</time>
      </trkpt>
      <trkpt lat="40.013467" lon="-5.572150">
        <ele>267.0</ele>
        <time>2013-06-30T15:18:21Z</time>
      </trkpt>
      <trkpt lat="40.013467" lon="-5.572150">
        <ele>267.0</ele>
        <time>2013-06-30T15:18:22Z</time>
      </trkpt>
      <trkpt lat="40.013467" lon="-5.572167">
        <ele>267.0</ele>
        <time>2013-06-30T15:18:23Z</time>
      </trkpt>
      <trkpt lat="40.013467" lon="-5.572167">
        <ele>267.0</ele>
        <time>2013-06-30T15:18:24Z</time>
      </trkpt>
      <trkpt lat="40.013467" lon="-5.572167">
        <ele>267.0</ele>
        <time>2013-06-30T15:18:25Z</time>
      </trkpt>
      <trkpt lat="40.013467" lon="-5.572167">
        <ele>267.0</ele>
        <time>2013-06-30T15:18:26Z</time>
      </trkpt>
      <trkpt lat="40.013467" lon="-5.572167">
        <ele>267.0</ele>
        <time>2013-06-30T15:18:27Z</time>
      </trkpt>
      <trkpt lat="40.013450" lon="-5.572167">
        <ele>268.0</ele>
        <time>2013-06-30T15:18:28Z</time>
      </trkpt>
      <trkpt lat="40.013450" lon="-5.572150">
        <ele>267.0</ele>
        <time>2013-06-30T15:18:29Z</time>
      </trkpt>
      <trkpt lat="40.013467" lon="-5.572167">
        <ele>269.0</ele>
        <time>2013-06-30T15:18:30Z</time>
      </trkpt>
      <trkpt lat="40.013467" lon="-5.572167">
        <ele>269.0</ele>
        <time>2013-06-30T15:18:31Z</time>
      </trkpt>
      <trkpt lat="40.013450" lon="-5.572167">
        <ele>268.0</ele>
        <time>2013-06-30T15:18:32Z</time>
      </trkpt>
      <trkpt lat="40.013467" lon="-5.572167">
        <ele>269.0</ele>
        <time>2013-06-30T15:18:33Z</time>
      </trkpt>
      <trkpt lat="40.013467" lon="-5.572167">
        <ele>269.0</ele>
        <time>2013-06-30T15:18:34Z</time>
      </trkpt>
      <trkpt lat="40.013467" lon="-5.572167">
        <ele>270.0</ele>
        <time>2013-06-30T15:18:35Z</time>
      </trkpt>
      <trkpt lat="40.013450" lon="-5.572167">
        <ele>270.0</ele>
        <time>2013-06-30T15:18:36Z</time>
      </trkpt>
      <trkpt lat="40.013467" lon="-5.572167">
        <ele>270.0</ele>
        <time>2013-06-30T15:18:37Z</time>
      </trkpt>
      <trkpt lat="40.013467" lon="-5.572167">
        <ele>269.0</ele>
        <time>2013-06-30T15:18:38Z</time>
      </trkpt>
      <trkpt lat="40.013467" lon="-5.572167">
        <ele>269.0</ele>
        <time>2013-06-30T15:18:39Z</time>
      </trkpt>
      <trkpt lat="40.013450" lon="-5.572167">
        <ele>269.0</ele>
        <time>2013-06-30T15:18:40Z</time>
      </trkpt>
      <trkpt lat="40.013450" lon="-5.572167">
        <ele>269.0</ele>
        <time>2013-06-30T15:18:41Z</time>
      </trkpt>
      <trkpt lat="40.013450" lon="-5.572183">
        <ele>269.0</ele>
        <time>2013-06-30T15:18:42Z</time>
      </trkpt>
      <trkpt lat="40.013450" lon="-5.572167">
        <ele>269.0</ele>
        <time>2013-06-30T15:18:43Z</time>
      </trkpt>
      <trkpt lat="40.013450" lon="-5.572167">
        <ele>269.0</ele>
        <time>2013-06-30T15:18:44Z</time>
      </trkpt>
      <trkpt lat="40.013450" lon="-5.572167">
        <ele>269.0</ele>
        <time>2013-06-30T15:18:45Z</time>
      </trkpt>
      <trkpt lat="40.013450" lon="-5.572167">
        <ele>269.0</ele>
        <time>2013-06-30T15:18:46Z</time>
      </trkpt>
      <trkpt lat="40.013450" lon="-5.572167">
        <ele>269.0</ele>
        <time>2013-06-30T15:18:47Z</time>
      </trkpt>
      <trkpt lat="40.013450" lon="-5.572167">
        <ele>269.0</ele>
        <time>2013-06-30T15:18:48Z</time>
      </trkpt>
      <trkpt lat="40.013450" lon="-5.572167">
        <ele>269.0</ele>
        <time>2013-06-30T15:18:49Z</time>
      </trkpt>
      <trkpt lat="40.013450" lon="-5.572167">
        <ele>269.0</ele>
        <time>2013-06-30T15:18:50Z</time>
      </trkpt>
      <trkpt lat="40.013450" lon="-5.572167">
        <ele>269.0</ele>
        <time>2013-06-30T15:18:51Z</time>
      </trkpt>
      <trkpt lat="40.013450" lon="-5.572167">
        <ele>270.0</ele>
        <time>2013-06-30T15:18:52Z</time>
      </trkpt>
      <trkpt lat="40.013450" lon="-5.572167">
        <ele>270.0</ele>
        <time>2013-06-30T15:18:53Z</time>
      </trkpt>
      <trkpt lat="40.013450" lon="-5.572167">
        <ele>270.0</ele>
        <time>2013-06-30T15:18:54Z</time>
      </trkpt>
      <trkpt lat="40.013450" lon="-5.572167">
        <ele>270.0</ele>
        <time>2013-06-30T15:18:55Z</time>
      </trkpt>
      <trkpt lat="40.013450" lon="-5.572167">
        <ele>271.0</ele>
        <time>2013-06-30T15:18:56Z</time>
      </trkpt>
      <trkpt lat="40.013450" lon="-5.572167">
        <ele>271.0</ele>
        <time>2013-06-30T15:18:57Z</time>
      </trkpt>
      <trkpt lat="40.013450" lon="-5.572167">
        <ele>271.0</ele>
        <time>2013-06-30T15:18:58Z</time>
      </trkpt>
      <trkpt lat="40.013450" lon="-5.572167">
        <ele>271.0</ele>
        <time>2013-06-30T15:18:59Z</time>
      </trkpt>
      <trkpt lat="40.013450" lon="-5.572167">
        <ele>271.0</ele>
        <time>2013-06-30T15:19:00Z</time>
      </trkpt>
      <trkpt lat="40.013450" lon="-5.572167">
        <ele>271.0</ele>
        <time>2013-06-30T15:19:01Z</time>
      </trkpt>
      <trkpt lat="40.013450" lon="-5.572167">
        <ele>272.0</ele>
        <time>2013-06-30T15:19:02Z</time>
      </trkpt>
      <trkpt lat="40.013450" lon="-5.572167">
        <ele>272.0</ele>
        <time>2013-06-30T15:19:03Z</time>
      </trkpt>
      <trkpt lat="40.013450" lon="-5.572167">
        <ele>272.0</ele>
        <time>2013-06-30T15:19:04Z</time>
      </trkpt>
      <trkpt lat="40.013450" lon="-5.572167">
        <ele>272.0</ele>
        <time>2013-06-30T15:19:05Z</time>
      </trkpt>
      <trkpt lat="40.013450" lon="-5.572167">
        <ele>272.0</ele>
        <time>2013-06-30T15:19:06Z</time>
      </trkpt>
      <trkpt lat="40.013450" lon="-5.572167">
        <ele>272.0</ele>
        <time>2013-06-30T15:19:07Z</time>
      </trkpt>
      <trkpt lat="40.013433" lon="-5.572150">
        <ele>272.0</ele>
        <time>2013-06-30T15:19:08Z</time>
      </trkpt>
      <trkpt lat="40.013433" lon="-5.572150">
        <ele>272.0</ele>
        <time>2013-06-30T15:19:09Z</time>
      </trkpt>
      <trkpt lat="40.013433" lon="-5.572150">
        <ele>272.0</ele>
        <time>2013-06-30T15:19:10Z</time>
      </trkpt>
      <trkpt lat="40.013433" lon="-5.572133">
        <ele>272.0</ele>
        <time>2013-06-30T15:19:11Z</time>
      </trkpt>
      <trkpt lat="40.013433" lon="-5.572133">
        <ele>272.0</ele>
        <time>2013-06-30T15:19:12Z</time>
      </trkpt>
      <trkpt lat="40.013450" lon="-5.572133">
        <ele>271.0</ele>
        <time>2013-06-30T15:19:13Z</time>
      </trkpt>
      <trkpt lat="40.013450" lon="-5.572133">
        <ele>271.0</ele>
        <time>2013-06-30T15:19:14Z</time>
      </trkpt>
      <trkpt lat="40.013450" lon="-5.572133">
        <ele>271.0</ele>
        <time>2013-06-30T15:19:15Z</time>
      </trkpt>
      <trkpt lat="40.013450" lon="-5.572133">
        <ele>271.0</ele>
        <time>2013-06-30T15:19:16Z</time>
      </trkpt>
      <trkpt lat="40.013450" lon="-5.572133">
        <ele>271.0</ele>
        <time>2013-06-30T15:19:17Z</time>
      </trkpt>
      <trkpt lat="40.013450" lon="-5.572133">
        <ele>271.0</ele>
        <time>2013-06-30T15:19:18Z</time>
      </trkpt>
      <trkpt lat="40.013450" lon="-5.572117">
        <ele>270.0</ele>
        <time>2013-06-30T15:19:19Z</time>
      </trkpt>
      <trkpt lat="40.013450" lon="-5.572117">
        <ele>270.0</ele>
        <time>2013-06-30T15:19:20Z</time>
      </trkpt>
      <trkpt lat="40.013450" lon="-5.572117">
        <ele>269.0</ele>
        <time>2013-06-30T15:19:21Z</time>
      </trkpt>
      <trkpt lat="40.013450" lon="-5.572117">
        <ele>269.0</ele>
        <time>2013-06-30T15:19:22Z</time>
      </trkpt>
      <trkpt lat="40.013450" lon="-5.572100">
        <ele>269.0</ele>
        <time>2013-06-30T15:19:23Z</time>
      </trkpt>
      <trkpt lat="40.013450" lon="-5.572117">
        <ele>269.0</ele>
        <time>2013-06-30T15:19:24Z</time>
      </trkpt>
      <trkpt lat="40.013450" lon="-5.572117">
        <ele>269.0</ele>
        <time>2013-06-30T15:19:25Z</time>
      </trkpt>
      <trkpt lat="40.013467" lon="-5.572117">
        <ele>269.0</ele>
        <time>2013-06-30T15:19:26Z</time>
      </trkpt>
      <trkpt lat="40.013467" lon="-5.572117">
        <ele>269.0</ele>
        <time>2013-06-30T15:19:27Z</time>
      </trkpt>
      <trkpt lat="40.013467" lon="-5.572117">
        <ele>269.0</ele>
        <time>2013-06-30T15:19:28Z</time>
      </trkpt>
      <trkpt lat="40.013467" lon="-5.572117">
        <ele>268.0</ele>
        <time>2013-06-30T15:19:29Z</time>
      </trkpt>
      <trkpt lat="40.013467" lon="-5.572117">
        <ele>268.0</ele>
        <time>2013-06-30T15:19:30Z</time>
      </trkpt>
      <trkpt lat="40.013467" lon="-5.572117">
        <ele>268.0</ele>
        <time>2013-06-30T15:19:31Z</time>
      </trkpt>
      <trkpt lat="40.013467" lon="-5.572117">
        <ele>268.0</ele>
        <time>2013-06-30T15:19:32Z</time>
      </trkpt>
      <trkpt lat="40.013467" lon="-5.572117">
        <ele>268.0</ele>
        <time>2013-06-30T15:19:33Z</time>
      </trkpt>
      <trkpt lat="40.013467" lon="-5.572117">
        <ele>268.0</ele>
        <time>2013-06-30T15:19:34Z</time>
      </trkpt>
      <trkpt lat="40.013467" lon="-5.572117">
        <ele>268.0</ele>
        <time>2013-06-30T15:19:35Z</time>
      </trkpt>
      <trkpt lat="40.013467" lon="-5.572133">
        <ele>268.0</ele>
        <time>2013-06-30T15:19:36Z</time>
      </trkpt>
      <trkpt lat="40.013467" lon="-5.572150">
        <ele>267.0</ele>
        <time>2013-06-30T15:19:37Z</time>
      </trkpt>
      <trkpt lat="40.013450" lon="-5.572150">
        <ele>267.0</ele>
        <time>2013-06-30T15:19:38Z</time>
      </trkpt>
      <trkpt lat="40.013450" lon="-5.572133">
        <ele>267.0</ele>
        <time>2013-06-30T15:19:39Z</time>
      </trkpt>
      <trkpt lat="40.013450" lon="-5.572150">
        <ele>267.0</ele>
        <time>2013-06-30T15:19:40Z</time>
      </trkpt>
      <trkpt lat="40.013467" lon="-5.572150">
        <ele>267.0</ele>
        <time>2013-06-30T15:19:41Z</time>
      </trkpt>
      <trkpt lat="40.013467" lon="-5.572133">
        <ele>267.0</ele>
        <time>2013-06-30T15:19:42Z</time>
      </trkpt>
      <trkpt lat="40.013467" lon="-5.572133">
        <ele>267.0</ele>
        <time>2013-06-30T15:19:43Z</time>
      </trkpt>
      <trkpt lat="40.013467" lon="-5.572133">
        <ele>267.0</ele>
        <time>2013-06-30T15:19:44Z</time>
      </trkpt>
      <trkpt lat="40.013467" lon="-5.572133">
        <ele>267.0</ele>
        <time>2013-06-30T15:19:45Z</time>
      </trkpt>
      <trkpt lat="40.013467" lon="-5.572150">
        <ele>268.0</ele>
        <time>2013-06-30T15:19:46Z</time>
      </trkpt>
      <trkpt lat="40.013467" lon="-5.572150">
        <ele>268.0</ele>
        <time>2013-06-30T15:19:47Z</time>
      </trkpt>
      <trkpt lat="40.013467" lon="-5.572133">
        <ele>268.0</ele>
        <time>2013-06-30T15:19:48Z</time>
      </trkpt>
      <trkpt lat="40.013467" lon="-5.572133">
        <ele>268.0</ele>
        <time>2013-06-30T15:19:49Z</time>
      </trkpt>
      <trkpt lat="40.013467" lon="-5.572133">
        <ele>268.0</ele>
        <time>2013-06-30T15:19:50Z</time>
      </trkpt>
      <trkpt lat="40.013467" lon="-5.572133">
        <ele>268.0</ele>
        <time>2013-06-30T15:19:51Z</time>
      </trkpt>
      <trkpt lat="40.013467" lon="-5.572133">
        <ele>268.0</ele>
        <time>2013-06-30T15:19:52Z</time>
      </trkpt>
      <trkpt lat="40.013467" lon="-5.572133">
        <ele>268.0</ele>
        <time>2013-06-30T15:19:53Z</time>
      </trkpt>
      <trkpt lat="40.013467" lon="-5.572133">
        <ele>267.0</ele>
        <time>2013-06-30T15:19:54Z</time>
      </trkpt>
      <trkpt lat="40.013467" lon="-5.572133">
        <ele>267.0</ele>
        <time>2013-06-30T15:19:55Z</time>
      </trkpt>
      <trkpt lat="40.013467" lon="-5.572133">
        <ele>267.0</ele>
        <time>2013-06-30T15:19:56Z</time>
      </trkpt>
    </trkseg>
  </trk>
</gpx>
